<?xml version="1.0" encoding="UTF-8" standalone="no" ?>
<gpx xmlns="http://www.topografix.com/GPX/1/1" xmlns:xsi="http://www.w3.org/2001/XMLSchema-instance" xsi:schemaLocation="http://www.topografix.com/GPX/1/1 http://www.topografix.com/GPX/1/1/gpx.xsd" version="1.1" creator="VisuGPX - https://www.visugpx.com">
  <metadata>
    <name>Marche ACC du 03/05/2022</name>
    <desc><![CDATA[Circuit au départ du Château de l'Hôpitau par le Boulevard Jacques Demy, promenade de l'Hôpitau, rue des Besneries, route de Port Barbe, Port Barbe, les bords de l'Erdre, (un groupe de cormorans entre 100 et 200 spécimens étaient là, pauvres pêcheurs.... !!!), quai de la Jonnelière, quai du Halleray, Petit Port, les bords du Cens, la vallée du Cens,  le parc de La Gaudinière, chemin Joseph Pierre, l'hippodrome du Petit Port, rue de La Barbotte, rue Stéphane Leduc, promenade des Renards, le rond-point de La Rivière, rue Arago, rue Képler, allée des semailles, retour point de départ.]]></desc>
  </metadata>
  <trk>
    <name><![CDATA[20220503_083509.gpx]]></name>
    <trkseg>
      <trkpt lat="47.27004" lon="-1.55246">
        <ele>37</ele>
        <time>2022-05-03T06:45:18.000Z</time>
      </trkpt>
      <trkpt lat="47.26974" lon="-1.55231">
        <ele>72</ele>
        <time>2022-05-03T06:45:21Z</time>
      </trkpt>
      <trkpt lat="47.26974" lon="-1.5523">
        <ele>72</ele>
        <time>2022-05-03T06:45:22Z</time>
      </trkpt>
      <trkpt lat="47.26974" lon="-1.55228">
        <ele>73</ele>
        <time>2022-05-03T06:45:23Z</time>
      </trkpt>
      <trkpt lat="47.26973" lon="-1.55225">
        <ele>72</ele>
        <time>2022-05-03T06:45:25Z</time>
      </trkpt>
      <trkpt lat="47.26974" lon="-1.55223">
        <ele>72</ele>
        <time>2022-05-03T06:45:27Z</time>
      </trkpt>
      <trkpt lat="47.26975" lon="-1.55222">
        <ele>73</ele>
        <time>2022-05-03T06:45:28Z</time>
      </trkpt>
      <trkpt lat="47.26975" lon="-1.55222">
        <ele>73</ele>
        <time>2022-05-03T06:45:29Z</time>
      </trkpt>
      <trkpt lat="47.26976" lon="-1.55221">
        <ele>73</ele>
        <time>2022-05-03T06:45:30Z</time>
      </trkpt>
      <trkpt lat="47.26978" lon="-1.5522">
        <ele>73</ele>
        <time>2022-05-03T06:45:31Z</time>
      </trkpt>
      <trkpt lat="47.26978" lon="-1.55219">
        <ele>74</ele>
        <time>2022-05-03T06:45:32Z</time>
      </trkpt>
      <trkpt lat="47.26979" lon="-1.55218">
        <ele>74</ele>
        <time>2022-05-03T06:45:33Z</time>
      </trkpt>
      <trkpt lat="47.2698" lon="-1.55217">
        <ele>75</ele>
        <time>2022-05-03T06:45:34Z</time>
      </trkpt>
      <trkpt lat="47.26981" lon="-1.55217">
        <ele>75</ele>
        <time>2022-05-03T06:45:35Z</time>
      </trkpt>
      <trkpt lat="47.26984" lon="-1.55217">
        <ele>75</ele>
        <time>2022-05-03T06:45:37Z</time>
      </trkpt>
      <trkpt lat="47.26986" lon="-1.55216">
        <ele>76</ele>
        <time>2022-05-03T06:45:39Z</time>
      </trkpt>
      <trkpt lat="47.26987" lon="-1.55216">
        <ele>76</ele>
        <time>2022-05-03T06:45:40Z</time>
      </trkpt>
      <trkpt lat="47.26988" lon="-1.55215">
        <ele>76</ele>
        <time>2022-05-03T06:45:41Z</time>
      </trkpt>
      <trkpt lat="47.26991" lon="-1.55213">
        <ele>77</ele>
        <time>2022-05-03T06:45:43Z</time>
      </trkpt>
      <trkpt lat="47.26991" lon="-1.55209">
        <ele>76</ele>
        <time>2022-05-03T06:45:45Z</time>
      </trkpt>
      <trkpt lat="47.26991" lon="-1.55208">
        <ele>76</ele>
        <time>2022-05-03T06:45:46Z</time>
      </trkpt>
      <trkpt lat="47.26991" lon="-1.55207">
        <ele>76</ele>
        <time>2022-05-03T06:45:47Z</time>
      </trkpt>
      <trkpt lat="47.26989" lon="-1.55206">
        <ele>76</ele>
        <time>2022-05-03T06:45:48Z</time>
      </trkpt>
      <trkpt lat="47.26989" lon="-1.55205">
        <ele>76</ele>
        <time>2022-05-03T06:45:49Z</time>
      </trkpt>
      <trkpt lat="47.26988" lon="-1.55205">
        <ele>76</ele>
        <time>2022-05-03T06:45:50Z</time>
      </trkpt>
      <trkpt lat="47.26987" lon="-1.55204">
        <ele>76</ele>
        <time>2022-05-03T06:45:51Z</time>
      </trkpt>
      <trkpt lat="47.26986" lon="-1.55205">
        <ele>76</ele>
        <time>2022-05-03T06:45:52Z</time>
      </trkpt>
      <trkpt lat="47.26985" lon="-1.55205">
        <ele>75</ele>
        <time>2022-05-03T06:45:53Z</time>
      </trkpt>
      <trkpt lat="47.26984" lon="-1.55206">
        <ele>74</ele>
        <time>2022-05-03T06:45:54Z</time>
      </trkpt>
      <trkpt lat="47.26981" lon="-1.55206">
        <ele>74</ele>
        <time>2022-05-03T06:45:56Z</time>
      </trkpt>
      <trkpt lat="47.26979" lon="-1.55207">
        <ele>73</ele>
        <time>2022-05-03T06:45:58Z</time>
      </trkpt>
      <trkpt lat="47.26978" lon="-1.55207">
        <ele>73</ele>
        <time>2022-05-03T06:45:59Z</time>
      </trkpt>
      <trkpt lat="47.26976" lon="-1.55208">
        <ele>73</ele>
        <time>2022-05-03T06:46:00Z</time>
      </trkpt>
      <trkpt lat="47.26975" lon="-1.55208">
        <ele>73</ele>
        <time>2022-05-03T06:46:01Z</time>
      </trkpt>
      <trkpt lat="47.26974" lon="-1.55208">
        <ele>73</ele>
        <time>2022-05-03T06:46:02Z</time>
      </trkpt>
      <trkpt lat="47.26973" lon="-1.55208">
        <ele>73</ele>
        <time>2022-05-03T06:46:03Z</time>
      </trkpt>
      <trkpt lat="47.26971" lon="-1.55208">
        <ele>73</ele>
        <time>2022-05-03T06:46:04Z</time>
      </trkpt>
      <trkpt lat="47.2697" lon="-1.55208">
        <ele>72</ele>
        <time>2022-05-03T06:46:05Z</time>
      </trkpt>
      <trkpt lat="47.26968" lon="-1.55208">
        <ele>72</ele>
        <time>2022-05-03T06:46:06Z</time>
      </trkpt>
      <trkpt lat="47.26966" lon="-1.55208">
        <ele>72</ele>
        <time>2022-05-03T06:46:08Z</time>
      </trkpt>
      <trkpt lat="47.26963" lon="-1.55207">
        <ele>73</ele>
        <time>2022-05-03T06:46:10Z</time>
      </trkpt>
      <trkpt lat="47.26962" lon="-1.55206">
        <ele>73</ele>
        <time>2022-05-03T06:46:11Z</time>
      </trkpt>
      <trkpt lat="47.26961" lon="-1.55204">
        <ele>73</ele>
        <time>2022-05-03T06:46:12Z</time>
      </trkpt>
      <trkpt lat="47.2696" lon="-1.55202">
        <ele>73</ele>
        <time>2022-05-03T06:46:13Z</time>
      </trkpt>
      <trkpt lat="47.26959" lon="-1.552">
        <ele>74</ele>
        <time>2022-05-03T06:46:14Z</time>
      </trkpt>
      <trkpt lat="47.26958" lon="-1.55199">
        <ele>73</ele>
        <time>2022-05-03T06:46:15Z</time>
      </trkpt>
      <trkpt lat="47.26957" lon="-1.55198">
        <ele>73</ele>
        <time>2022-05-03T06:46:16Z</time>
      </trkpt>
      <trkpt lat="47.26956" lon="-1.55196">
        <ele>73</ele>
        <time>2022-05-03T06:46:17Z</time>
      </trkpt>
      <trkpt lat="47.26956" lon="-1.55195">
        <ele>74</ele>
        <time>2022-05-03T06:46:18Z</time>
      </trkpt>
      <trkpt lat="47.26955" lon="-1.55193">
        <ele>74</ele>
        <time>2022-05-03T06:46:19Z</time>
      </trkpt>
      <trkpt lat="47.26955" lon="-1.55191">
        <ele>74</ele>
        <time>2022-05-03T06:46:20Z</time>
      </trkpt>
      <trkpt lat="47.26954" lon="-1.55189">
        <ele>74</ele>
        <time>2022-05-03T06:46:21Z</time>
      </trkpt>
      <trkpt lat="47.26954" lon="-1.55187">
        <ele>74</ele>
        <time>2022-05-03T06:46:22Z</time>
      </trkpt>
      <trkpt lat="47.26954" lon="-1.55184">
        <ele>74</ele>
        <time>2022-05-03T06:46:23Z</time>
      </trkpt>
      <trkpt lat="47.26954" lon="-1.55182">
        <ele>74</ele>
        <time>2022-05-03T06:46:24Z</time>
      </trkpt>
      <trkpt lat="47.26954" lon="-1.5518">
        <ele>74</ele>
        <time>2022-05-03T06:46:25Z</time>
      </trkpt>
      <trkpt lat="47.26953" lon="-1.55179">
        <ele>74</ele>
        <time>2022-05-03T06:46:26Z</time>
      </trkpt>
      <trkpt lat="47.26953" lon="-1.55177">
        <ele>74</ele>
        <time>2022-05-03T06:46:27Z</time>
      </trkpt>
      <trkpt lat="47.26953" lon="-1.55174">
        <ele>73</ele>
        <time>2022-05-03T06:46:28Z</time>
      </trkpt>
      <trkpt lat="47.26953" lon="-1.55172">
        <ele>73</ele>
        <time>2022-05-03T06:46:29Z</time>
      </trkpt>
      <trkpt lat="47.26952" lon="-1.5517">
        <ele>73</ele>
        <time>2022-05-03T06:46:30Z</time>
      </trkpt>
      <trkpt lat="47.26952" lon="-1.55168">
        <ele>73</ele>
        <time>2022-05-03T06:46:31Z</time>
      </trkpt>
      <trkpt lat="47.26952" lon="-1.55168">
        <ele>73</ele>
        <time>2022-05-03T06:46:31Z</time>
      </trkpt>
      <trkpt lat="47.26951" lon="-1.55164">
        <ele>73</ele>
        <time>2022-05-03T06:46:33Z</time>
      </trkpt>
      <trkpt lat="47.26951" lon="-1.55162">
        <ele>73</ele>
        <time>2022-05-03T06:46:34Z</time>
      </trkpt>
      <trkpt lat="47.2695" lon="-1.5516">
        <ele>73</ele>
        <time>2022-05-03T06:46:35Z</time>
      </trkpt>
      <trkpt lat="47.2695" lon="-1.55158">
        <ele>73</ele>
        <time>2022-05-03T06:46:36Z</time>
      </trkpt>
      <trkpt lat="47.26949" lon="-1.55156">
        <ele>73</ele>
        <time>2022-05-03T06:46:37Z</time>
      </trkpt>
      <trkpt lat="47.26948" lon="-1.55154">
        <ele>73</ele>
        <time>2022-05-03T06:46:38Z</time>
      </trkpt>
      <trkpt lat="47.26947" lon="-1.55152">
        <ele>73</ele>
        <time>2022-05-03T06:46:39Z</time>
      </trkpt>
      <trkpt lat="47.26947" lon="-1.5515">
        <ele>73</ele>
        <time>2022-05-03T06:46:40Z</time>
      </trkpt>
      <trkpt lat="47.26946" lon="-1.55148">
        <ele>73</ele>
        <time>2022-05-03T06:46:41Z</time>
      </trkpt>
      <trkpt lat="47.26946" lon="-1.55146">
        <ele>73</ele>
        <time>2022-05-03T06:46:42Z</time>
      </trkpt>
      <trkpt lat="47.26945" lon="-1.55145">
        <ele>73</ele>
        <time>2022-05-03T06:46:43Z</time>
      </trkpt>
      <trkpt lat="47.26945" lon="-1.55143">
        <ele>73</ele>
        <time>2022-05-03T06:46:44Z</time>
      </trkpt>
      <trkpt lat="47.26945" lon="-1.55141">
        <ele>73</ele>
        <time>2022-05-03T06:46:45Z</time>
      </trkpt>
      <trkpt lat="47.26945" lon="-1.55139">
        <ele>73</ele>
        <time>2022-05-03T06:46:46Z</time>
      </trkpt>
      <trkpt lat="47.26944" lon="-1.55137">
        <ele>73</ele>
        <time>2022-05-03T06:46:47Z</time>
      </trkpt>
      <trkpt lat="47.26944" lon="-1.55135">
        <ele>73</ele>
        <time>2022-05-03T06:46:48Z</time>
      </trkpt>
      <trkpt lat="47.26943" lon="-1.55133">
        <ele>73</ele>
        <time>2022-05-03T06:46:49Z</time>
      </trkpt>
      <trkpt lat="47.26943" lon="-1.55131">
        <ele>73</ele>
        <time>2022-05-03T06:46:50Z</time>
      </trkpt>
      <trkpt lat="47.26942" lon="-1.55129">
        <ele>73</ele>
        <time>2022-05-03T06:46:51Z</time>
      </trkpt>
      <trkpt lat="47.26942" lon="-1.55127">
        <ele>73</ele>
        <time>2022-05-03T06:46:52Z</time>
      </trkpt>
      <trkpt lat="47.26942" lon="-1.55125">
        <ele>73</ele>
        <time>2022-05-03T06:46:53Z</time>
      </trkpt>
      <trkpt lat="47.26942" lon="-1.55123">
        <ele>73</ele>
        <time>2022-05-03T06:46:54Z</time>
      </trkpt>
      <trkpt lat="47.26942" lon="-1.55121">
        <ele>73</ele>
        <time>2022-05-03T06:46:55Z</time>
      </trkpt>
      <trkpt lat="47.26941" lon="-1.55119">
        <ele>73</ele>
        <time>2022-05-03T06:46:56Z</time>
      </trkpt>
      <trkpt lat="47.26941" lon="-1.55116">
        <ele>73</ele>
        <time>2022-05-03T06:46:58Z</time>
      </trkpt>
      <trkpt lat="47.2694" lon="-1.55112">
        <ele>73</ele>
        <time>2022-05-03T06:47:00Z</time>
      </trkpt>
      <trkpt lat="47.2694" lon="-1.5511">
        <ele>73</ele>
        <time>2022-05-03T06:47:01Z</time>
      </trkpt>
      <trkpt lat="47.2694" lon="-1.55108">
        <ele>73</ele>
        <time>2022-05-03T06:47:02Z</time>
      </trkpt>
      <trkpt lat="47.26939" lon="-1.55106">
        <ele>73</ele>
        <time>2022-05-03T06:47:03Z</time>
      </trkpt>
      <trkpt lat="47.26939" lon="-1.55104">
        <ele>73</ele>
        <time>2022-05-03T06:47:04Z</time>
      </trkpt>
      <trkpt lat="47.26939" lon="-1.55102">
        <ele>72</ele>
        <time>2022-05-03T06:47:05Z</time>
      </trkpt>
      <trkpt lat="47.26939" lon="-1.551">
        <ele>72</ele>
        <time>2022-05-03T06:47:06Z</time>
      </trkpt>
      <trkpt lat="47.26939" lon="-1.55098">
        <ele>73</ele>
        <time>2022-05-03T06:47:07Z</time>
      </trkpt>
      <trkpt lat="47.26938" lon="-1.55096">
        <ele>72</ele>
        <time>2022-05-03T06:47:08Z</time>
      </trkpt>
      <trkpt lat="47.26938" lon="-1.55095">
        <ele>72</ele>
        <time>2022-05-03T06:47:09Z</time>
      </trkpt>
      <trkpt lat="47.26938" lon="-1.55093">
        <ele>72</ele>
        <time>2022-05-03T06:47:10Z</time>
      </trkpt>
      <trkpt lat="47.26937" lon="-1.55091">
        <ele>71</ele>
        <time>2022-05-03T06:47:11Z</time>
      </trkpt>
      <trkpt lat="47.26936" lon="-1.55089">
        <ele>71</ele>
        <time>2022-05-03T06:47:12Z</time>
      </trkpt>
      <trkpt lat="47.26936" lon="-1.55087">
        <ele>72</ele>
        <time>2022-05-03T06:47:13Z</time>
      </trkpt>
      <trkpt lat="47.26935" lon="-1.55086">
        <ele>71</ele>
        <time>2022-05-03T06:47:14Z</time>
      </trkpt>
      <trkpt lat="47.26934" lon="-1.55084">
        <ele>71</ele>
        <time>2022-05-03T06:47:15Z</time>
      </trkpt>
      <trkpt lat="47.26934" lon="-1.55082">
        <ele>71</ele>
        <time>2022-05-03T06:47:16Z</time>
      </trkpt>
      <trkpt lat="47.26933" lon="-1.5508">
        <ele>71</ele>
        <time>2022-05-03T06:47:17Z</time>
      </trkpt>
      <trkpt lat="47.26933" lon="-1.55078">
        <ele>71</ele>
        <time>2022-05-03T06:47:18Z</time>
      </trkpt>
      <trkpt lat="47.26932" lon="-1.55076">
        <ele>71</ele>
        <time>2022-05-03T06:47:19Z</time>
      </trkpt>
      <trkpt lat="47.26932" lon="-1.55075">
        <ele>71</ele>
        <time>2022-05-03T06:47:20Z</time>
      </trkpt>
      <trkpt lat="47.26931" lon="-1.55074">
        <ele>71</ele>
        <time>2022-05-03T06:47:21Z</time>
      </trkpt>
      <trkpt lat="47.26931" lon="-1.55072">
        <ele>71</ele>
        <time>2022-05-03T06:47:22Z</time>
      </trkpt>
      <trkpt lat="47.26932" lon="-1.55071">
        <ele>70</ele>
        <time>2022-05-03T06:47:23Z</time>
      </trkpt>
      <trkpt lat="47.26931" lon="-1.55069">
        <ele>70</ele>
        <time>2022-05-03T06:47:24Z</time>
      </trkpt>
      <trkpt lat="47.26931" lon="-1.55067">
        <ele>70</ele>
        <time>2022-05-03T06:47:25Z</time>
      </trkpt>
      <trkpt lat="47.26931" lon="-1.55066">
        <ele>71</ele>
        <time>2022-05-03T06:47:26Z</time>
      </trkpt>
      <trkpt lat="47.26931" lon="-1.55064">
        <ele>71</ele>
        <time>2022-05-03T06:47:27Z</time>
      </trkpt>
      <trkpt lat="47.26931" lon="-1.55064">
        <ele>71</ele>
        <time>2022-05-03T06:47:27Z</time>
      </trkpt>
      <trkpt lat="47.2693" lon="-1.5506">
        <ele>71</ele>
        <time>2022-05-03T06:47:29Z</time>
      </trkpt>
      <trkpt lat="47.2693" lon="-1.55058">
        <ele>71</ele>
        <time>2022-05-03T06:47:30Z</time>
      </trkpt>
      <trkpt lat="47.2693" lon="-1.55057">
        <ele>70</ele>
        <time>2022-05-03T06:47:31Z</time>
      </trkpt>
      <trkpt lat="47.26929" lon="-1.55055">
        <ele>70</ele>
        <time>2022-05-03T06:47:32Z</time>
      </trkpt>
      <trkpt lat="47.26928" lon="-1.55053">
        <ele>70</ele>
        <time>2022-05-03T06:47:33Z</time>
      </trkpt>
      <trkpt lat="47.26928" lon="-1.55052">
        <ele>70</ele>
        <time>2022-05-03T06:47:34Z</time>
      </trkpt>
      <trkpt lat="47.26928" lon="-1.5505">
        <ele>70</ele>
        <time>2022-05-03T06:47:35Z</time>
      </trkpt>
      <trkpt lat="47.26928" lon="-1.55049">
        <ele>70</ele>
        <time>2022-05-03T06:47:36Z</time>
      </trkpt>
      <trkpt lat="47.26928" lon="-1.55047">
        <ele>69</ele>
        <time>2022-05-03T06:47:37Z</time>
      </trkpt>
      <trkpt lat="47.26928" lon="-1.55045">
        <ele>69</ele>
        <time>2022-05-03T06:47:38Z</time>
      </trkpt>
      <trkpt lat="47.26927" lon="-1.55044">
        <ele>69</ele>
        <time>2022-05-03T06:47:39Z</time>
      </trkpt>
      <trkpt lat="47.26926" lon="-1.55042">
        <ele>69</ele>
        <time>2022-05-03T06:47:40Z</time>
      </trkpt>
      <trkpt lat="47.26926" lon="-1.5504">
        <ele>69</ele>
        <time>2022-05-03T06:47:41Z</time>
      </trkpt>
      <trkpt lat="47.26925" lon="-1.55038">
        <ele>69</ele>
        <time>2022-05-03T06:47:42Z</time>
      </trkpt>
      <trkpt lat="47.26925" lon="-1.55036">
        <ele>69</ele>
        <time>2022-05-03T06:47:43Z</time>
      </trkpt>
      <trkpt lat="47.26925" lon="-1.55036">
        <ele>69</ele>
        <time>2022-05-03T06:47:43Z</time>
      </trkpt>
      <trkpt lat="47.26924" lon="-1.55033">
        <ele>69</ele>
        <time>2022-05-03T06:47:45Z</time>
      </trkpt>
      <trkpt lat="47.26923" lon="-1.55031">
        <ele>69</ele>
        <time>2022-05-03T06:47:46Z</time>
      </trkpt>
      <trkpt lat="47.26923" lon="-1.5503">
        <ele>70</ele>
        <time>2022-05-03T06:47:47Z</time>
      </trkpt>
      <trkpt lat="47.26923" lon="-1.55028">
        <ele>70</ele>
        <time>2022-05-03T06:47:48Z</time>
      </trkpt>
      <trkpt lat="47.26923" lon="-1.55027">
        <ele>70</ele>
        <time>2022-05-03T06:47:49Z</time>
      </trkpt>
      <trkpt lat="47.26923" lon="-1.55027">
        <ele>70</ele>
        <time>2022-05-03T06:47:49Z</time>
      </trkpt>
      <trkpt lat="47.26922" lon="-1.55024">
        <ele>70</ele>
        <time>2022-05-03T06:47:51Z</time>
      </trkpt>
      <trkpt lat="47.26922" lon="-1.55022">
        <ele>70</ele>
        <time>2022-05-03T06:47:52Z</time>
      </trkpt>
      <trkpt lat="47.26921" lon="-1.5502">
        <ele>70</ele>
        <time>2022-05-03T06:47:53Z</time>
      </trkpt>
      <trkpt lat="47.2692" lon="-1.55018">
        <ele>70</ele>
        <time>2022-05-03T06:47:54Z</time>
      </trkpt>
      <trkpt lat="47.2692" lon="-1.55016">
        <ele>70</ele>
        <time>2022-05-03T06:47:55Z</time>
      </trkpt>
      <trkpt lat="47.2692" lon="-1.55014">
        <ele>71</ele>
        <time>2022-05-03T06:47:56Z</time>
      </trkpt>
      <trkpt lat="47.26919" lon="-1.55012">
        <ele>70</ele>
        <time>2022-05-03T06:47:57Z</time>
      </trkpt>
      <trkpt lat="47.26918" lon="-1.55009">
        <ele>70</ele>
        <time>2022-05-03T06:47:58Z</time>
      </trkpt>
      <trkpt lat="47.26918" lon="-1.55007">
        <ele>70</ele>
        <time>2022-05-03T06:47:59Z</time>
      </trkpt>
      <trkpt lat="47.26918" lon="-1.55005">
        <ele>70</ele>
        <time>2022-05-03T06:48:00Z</time>
      </trkpt>
      <trkpt lat="47.26918" lon="-1.55003">
        <ele>70</ele>
        <time>2022-05-03T06:48:01Z</time>
      </trkpt>
      <trkpt lat="47.26917" lon="-1.55001">
        <ele>70</ele>
        <time>2022-05-03T06:48:02Z</time>
      </trkpt>
      <trkpt lat="47.26917" lon="-1.54999">
        <ele>70</ele>
        <time>2022-05-03T06:48:03Z</time>
      </trkpt>
      <trkpt lat="47.26916" lon="-1.54998">
        <ele>70</ele>
        <time>2022-05-03T06:48:04Z</time>
      </trkpt>
      <trkpt lat="47.26916" lon="-1.54997">
        <ele>70</ele>
        <time>2022-05-03T06:48:05Z</time>
      </trkpt>
      <trkpt lat="47.26915" lon="-1.54995">
        <ele>70</ele>
        <time>2022-05-03T06:48:06Z</time>
      </trkpt>
      <trkpt lat="47.26915" lon="-1.54993">
        <ele>70</ele>
        <time>2022-05-03T06:48:07Z</time>
      </trkpt>
      <trkpt lat="47.26914" lon="-1.54991">
        <ele>70</ele>
        <time>2022-05-03T06:48:08Z</time>
      </trkpt>
      <trkpt lat="47.26914" lon="-1.54989">
        <ele>70</ele>
        <time>2022-05-03T06:48:09Z</time>
      </trkpt>
      <trkpt lat="47.26914" lon="-1.54987">
        <ele>70</ele>
        <time>2022-05-03T06:48:10Z</time>
      </trkpt>
      <trkpt lat="47.26913" lon="-1.54985">
        <ele>70</ele>
        <time>2022-05-03T06:48:11Z</time>
      </trkpt>
      <trkpt lat="47.26913" lon="-1.54983">
        <ele>70</ele>
        <time>2022-05-03T06:48:12Z</time>
      </trkpt>
      <trkpt lat="47.26913" lon="-1.54981">
        <ele>70</ele>
        <time>2022-05-03T06:48:13Z</time>
      </trkpt>
      <trkpt lat="47.26913" lon="-1.54979">
        <ele>71</ele>
        <time>2022-05-03T06:48:14Z</time>
      </trkpt>
      <trkpt lat="47.26912" lon="-1.54977">
        <ele>71</ele>
        <time>2022-05-03T06:48:15Z</time>
      </trkpt>
      <trkpt lat="47.26912" lon="-1.54977">
        <ele>71</ele>
        <time>2022-05-03T06:48:15Z</time>
      </trkpt>
      <trkpt lat="47.26912" lon="-1.54973">
        <ele>71</ele>
        <time>2022-05-03T06:48:17Z</time>
      </trkpt>
      <trkpt lat="47.26912" lon="-1.5497">
        <ele>71</ele>
        <time>2022-05-03T06:48:18Z</time>
      </trkpt>
      <trkpt lat="47.26912" lon="-1.54968">
        <ele>71</ele>
        <time>2022-05-03T06:48:19Z</time>
      </trkpt>
      <trkpt lat="47.26913" lon="-1.54967">
        <ele>72</ele>
        <time>2022-05-03T06:48:20Z</time>
      </trkpt>
      <trkpt lat="47.26913" lon="-1.54967">
        <ele>72</ele>
        <time>2022-05-03T06:48:20Z</time>
      </trkpt>
      <trkpt lat="47.26914" lon="-1.54963">
        <ele>72</ele>
        <time>2022-05-03T06:48:22Z</time>
      </trkpt>
      <trkpt lat="47.26914" lon="-1.54962">
        <ele>72</ele>
        <time>2022-05-03T06:48:23Z</time>
      </trkpt>
      <trkpt lat="47.26915" lon="-1.5496">
        <ele>72</ele>
        <time>2022-05-03T06:48:24Z</time>
      </trkpt>
      <trkpt lat="47.26915" lon="-1.54959">
        <ele>72</ele>
        <time>2022-05-03T06:48:25Z</time>
      </trkpt>
      <trkpt lat="47.26915" lon="-1.54957">
        <ele>72</ele>
        <time>2022-05-03T06:48:26Z</time>
      </trkpt>
      <trkpt lat="47.26916" lon="-1.54955">
        <ele>72</ele>
        <time>2022-05-03T06:48:27Z</time>
      </trkpt>
      <trkpt lat="47.26917" lon="-1.54953">
        <ele>72</ele>
        <time>2022-05-03T06:48:28Z</time>
      </trkpt>
      <trkpt lat="47.26917" lon="-1.54952">
        <ele>73</ele>
        <time>2022-05-03T06:48:29Z</time>
      </trkpt>
      <trkpt lat="47.26917" lon="-1.5495">
        <ele>73</ele>
        <time>2022-05-03T06:48:30Z</time>
      </trkpt>
      <trkpt lat="47.26918" lon="-1.54947">
        <ele>73</ele>
        <time>2022-05-03T06:48:31Z</time>
      </trkpt>
      <trkpt lat="47.26918" lon="-1.54945">
        <ele>73</ele>
        <time>2022-05-03T06:48:32Z</time>
      </trkpt>
      <trkpt lat="47.26919" lon="-1.54943">
        <ele>73</ele>
        <time>2022-05-03T06:48:33Z</time>
      </trkpt>
      <trkpt lat="47.26919" lon="-1.54942">
        <ele>73</ele>
        <time>2022-05-03T06:48:34Z</time>
      </trkpt>
      <trkpt lat="47.2692" lon="-1.5494">
        <ele>73</ele>
        <time>2022-05-03T06:48:35Z</time>
      </trkpt>
      <trkpt lat="47.2692" lon="-1.54939">
        <ele>73</ele>
        <time>2022-05-03T06:48:36Z</time>
      </trkpt>
      <trkpt lat="47.2692" lon="-1.54937">
        <ele>74</ele>
        <time>2022-05-03T06:48:37Z</time>
      </trkpt>
      <trkpt lat="47.26921" lon="-1.54935">
        <ele>74</ele>
        <time>2022-05-03T06:48:38Z</time>
      </trkpt>
      <trkpt lat="47.26922" lon="-1.54933">
        <ele>74</ele>
        <time>2022-05-03T06:48:39Z</time>
      </trkpt>
      <trkpt lat="47.26922" lon="-1.54931">
        <ele>74</ele>
        <time>2022-05-03T06:48:40Z</time>
      </trkpt>
      <trkpt lat="47.26923" lon="-1.54929">
        <ele>74</ele>
        <time>2022-05-03T06:48:41Z</time>
      </trkpt>
      <trkpt lat="47.26923" lon="-1.54927">
        <ele>73</ele>
        <time>2022-05-03T06:48:42Z</time>
      </trkpt>
      <trkpt lat="47.26924" lon="-1.54926">
        <ele>74</ele>
        <time>2022-05-03T06:48:43Z</time>
      </trkpt>
      <trkpt lat="47.26924" lon="-1.54926">
        <ele>74</ele>
        <time>2022-05-03T06:48:43Z</time>
      </trkpt>
      <trkpt lat="47.26925" lon="-1.54923">
        <ele>73</ele>
        <time>2022-05-03T06:48:45Z</time>
      </trkpt>
      <trkpt lat="47.26925" lon="-1.54923">
        <ele>73</ele>
        <time>2022-05-03T06:48:45Z</time>
      </trkpt>
      <trkpt lat="47.26925" lon="-1.54921">
        <ele>74</ele>
        <time>2022-05-03T06:48:46Z</time>
      </trkpt>
      <trkpt lat="47.26926" lon="-1.54919">
        <ele>74</ele>
        <time>2022-05-03T06:48:47Z</time>
      </trkpt>
      <trkpt lat="47.26925" lon="-1.54917">
        <ele>74</ele>
        <time>2022-05-03T06:48:48Z</time>
      </trkpt>
      <trkpt lat="47.26925" lon="-1.54913">
        <ele>73</ele>
        <time>2022-05-03T06:48:50Z</time>
      </trkpt>
      <trkpt lat="47.26924" lon="-1.5491">
        <ele>73</ele>
        <time>2022-05-03T06:48:51Z</time>
      </trkpt>
      <trkpt lat="47.26924" lon="-1.5491">
        <ele>73</ele>
        <time>2022-05-03T06:48:51Z</time>
      </trkpt>
      <trkpt lat="47.26924" lon="-1.54908">
        <ele>73</ele>
        <time>2022-05-03T06:48:52Z</time>
      </trkpt>
      <trkpt lat="47.26924" lon="-1.54907">
        <ele>73</ele>
        <time>2022-05-03T06:48:53Z</time>
      </trkpt>
      <trkpt lat="47.26923" lon="-1.54905">
        <ele>73</ele>
        <time>2022-05-03T06:48:54Z</time>
      </trkpt>
      <trkpt lat="47.26923" lon="-1.54902">
        <ele>73</ele>
        <time>2022-05-03T06:48:56Z</time>
      </trkpt>
      <trkpt lat="47.26923" lon="-1.549">
        <ele>73</ele>
        <time>2022-05-03T06:48:57Z</time>
      </trkpt>
      <trkpt lat="47.26922" lon="-1.54898">
        <ele>74</ele>
        <time>2022-05-03T06:48:58Z</time>
      </trkpt>
      <trkpt lat="47.26922" lon="-1.54898">
        <ele>74</ele>
        <time>2022-05-03T06:48:58Z</time>
      </trkpt>
      <trkpt lat="47.26922" lon="-1.54894">
        <ele>74</ele>
        <time>2022-05-03T06:49:00Z</time>
      </trkpt>
      <trkpt lat="47.26921" lon="-1.54893">
        <ele>74</ele>
        <time>2022-05-03T06:49:01Z</time>
      </trkpt>
      <trkpt lat="47.26921" lon="-1.54893">
        <ele>74</ele>
        <time>2022-05-03T06:49:01Z</time>
      </trkpt>
      <trkpt lat="47.2692" lon="-1.5489">
        <ele>74</ele>
        <time>2022-05-03T06:49:03Z</time>
      </trkpt>
      <trkpt lat="47.2692" lon="-1.54888">
        <ele>74</ele>
        <time>2022-05-03T06:49:04Z</time>
      </trkpt>
      <trkpt lat="47.2692" lon="-1.54886">
        <ele>74</ele>
        <time>2022-05-03T06:49:05Z</time>
      </trkpt>
      <trkpt lat="47.26919" lon="-1.54885">
        <ele>74</ele>
        <time>2022-05-03T06:49:06Z</time>
      </trkpt>
      <trkpt lat="47.26918" lon="-1.54883">
        <ele>74</ele>
        <time>2022-05-03T06:49:07Z</time>
      </trkpt>
      <trkpt lat="47.26918" lon="-1.54883">
        <ele>74</ele>
        <time>2022-05-03T06:49:07Z</time>
      </trkpt>
      <trkpt lat="47.26917" lon="-1.54879">
        <ele>75</ele>
        <time>2022-05-03T06:49:09Z</time>
      </trkpt>
      <trkpt lat="47.26917" lon="-1.54878">
        <ele>75</ele>
        <time>2022-05-03T06:49:10Z</time>
      </trkpt>
      <trkpt lat="47.26917" lon="-1.54878">
        <ele>75</ele>
        <time>2022-05-03T06:49:10Z</time>
      </trkpt>
      <trkpt lat="47.26916" lon="-1.54874">
        <ele>74</ele>
        <time>2022-05-03T06:49:12Z</time>
      </trkpt>
      <trkpt lat="47.26916" lon="-1.54874">
        <ele>74</ele>
        <time>2022-05-03T06:49:12Z</time>
      </trkpt>
      <trkpt lat="47.26915" lon="-1.5487">
        <ele>75</ele>
        <time>2022-05-03T06:49:14Z</time>
      </trkpt>
      <trkpt lat="47.26915" lon="-1.54868">
        <ele>75</ele>
        <time>2022-05-03T06:49:15Z</time>
      </trkpt>
      <trkpt lat="47.26915" lon="-1.54868">
        <ele>75</ele>
        <time>2022-05-03T06:49:15Z</time>
      </trkpt>
      <trkpt lat="47.26914" lon="-1.54864">
        <ele>74</ele>
        <time>2022-05-03T06:49:17Z</time>
      </trkpt>
      <trkpt lat="47.26914" lon="-1.54862">
        <ele>74</ele>
        <time>2022-05-03T06:49:18Z</time>
      </trkpt>
      <trkpt lat="47.26914" lon="-1.54862">
        <ele>74</ele>
        <time>2022-05-03T06:49:18Z</time>
      </trkpt>
      <trkpt lat="47.26913" lon="-1.54859">
        <ele>74</ele>
        <time>2022-05-03T06:49:20Z</time>
      </trkpt>
      <trkpt lat="47.26912" lon="-1.54857">
        <ele>75</ele>
        <time>2022-05-03T06:49:21Z</time>
      </trkpt>
      <trkpt lat="47.26912" lon="-1.54857">
        <ele>75</ele>
        <time>2022-05-03T06:49:21Z</time>
      </trkpt>
      <trkpt lat="47.26911" lon="-1.54854">
        <ele>74</ele>
        <time>2022-05-03T06:49:23Z</time>
      </trkpt>
      <trkpt lat="47.26911" lon="-1.54854">
        <ele>74</ele>
        <time>2022-05-03T06:49:23Z</time>
      </trkpt>
      <trkpt lat="47.2691" lon="-1.54851">
        <ele>75</ele>
        <time>2022-05-03T06:49:25Z</time>
      </trkpt>
      <trkpt lat="47.2691" lon="-1.54851">
        <ele>75</ele>
        <time>2022-05-03T06:49:25Z</time>
      </trkpt>
      <trkpt lat="47.26909" lon="-1.54848">
        <ele>76</ele>
        <time>2022-05-03T06:49:27Z</time>
      </trkpt>
      <trkpt lat="47.26909" lon="-1.54845">
        <ele>76</ele>
        <time>2022-05-03T06:49:28Z</time>
      </trkpt>
      <trkpt lat="47.26908" lon="-1.54844">
        <ele>76</ele>
        <time>2022-05-03T06:49:29Z</time>
      </trkpt>
      <trkpt lat="47.26907" lon="-1.54842">
        <ele>75</ele>
        <time>2022-05-03T06:49:30Z</time>
      </trkpt>
      <trkpt lat="47.26907" lon="-1.5484">
        <ele>76</ele>
        <time>2022-05-03T06:49:31Z</time>
      </trkpt>
      <trkpt lat="47.26907" lon="-1.5484">
        <ele>76</ele>
        <time>2022-05-03T06:49:31Z</time>
      </trkpt>
      <trkpt lat="47.26906" lon="-1.54837">
        <ele>76</ele>
        <time>2022-05-03T06:49:33Z</time>
      </trkpt>
      <trkpt lat="47.26906" lon="-1.54837">
        <ele>76</ele>
        <time>2022-05-03T06:49:33Z</time>
      </trkpt>
      <trkpt lat="47.26905" lon="-1.54835">
        <ele>76</ele>
        <time>2022-05-03T06:49:34Z</time>
      </trkpt>
      <trkpt lat="47.26905" lon="-1.54833">
        <ele>76</ele>
        <time>2022-05-03T06:49:35Z</time>
      </trkpt>
      <trkpt lat="47.26904" lon="-1.54831">
        <ele>76</ele>
        <time>2022-05-03T06:49:36Z</time>
      </trkpt>
      <trkpt lat="47.26904" lon="-1.54828">
        <ele>77</ele>
        <time>2022-05-03T06:49:38Z</time>
      </trkpt>
      <trkpt lat="47.26904" lon="-1.54828">
        <ele>77</ele>
        <time>2022-05-03T06:49:38Z</time>
      </trkpt>
      <trkpt lat="47.26903" lon="-1.54826">
        <ele>77</ele>
        <time>2022-05-03T06:49:39Z</time>
      </trkpt>
      <trkpt lat="47.26903" lon="-1.54823">
        <ele>78</ele>
        <time>2022-05-03T06:49:40Z</time>
      </trkpt>
      <trkpt lat="47.26902" lon="-1.54821">
        <ele>78</ele>
        <time>2022-05-03T06:49:41Z</time>
      </trkpt>
      <trkpt lat="47.26902" lon="-1.5482">
        <ele>77</ele>
        <time>2022-05-03T06:49:42Z</time>
      </trkpt>
      <trkpt lat="47.26901" lon="-1.54818">
        <ele>78</ele>
        <time>2022-05-03T06:49:43Z</time>
      </trkpt>
      <trkpt lat="47.26901" lon="-1.54816">
        <ele>78</ele>
        <time>2022-05-03T06:49:44Z</time>
      </trkpt>
      <trkpt lat="47.269" lon="-1.54812">
        <ele>79</ele>
        <time>2022-05-03T06:49:46Z</time>
      </trkpt>
      <trkpt lat="47.269" lon="-1.5481">
        <ele>79</ele>
        <time>2022-05-03T06:49:47Z</time>
      </trkpt>
      <trkpt lat="47.26899" lon="-1.54808">
        <ele>79</ele>
        <time>2022-05-03T06:49:48Z</time>
      </trkpt>
      <trkpt lat="47.26899" lon="-1.54806">
        <ele>79</ele>
        <time>2022-05-03T06:49:49Z</time>
      </trkpt>
      <trkpt lat="47.26899" lon="-1.54806">
        <ele>79</ele>
        <time>2022-05-03T06:49:49Z</time>
      </trkpt>
      <trkpt lat="47.26899" lon="-1.54803">
        <ele>79</ele>
        <time>2022-05-03T06:49:51Z</time>
      </trkpt>
      <trkpt lat="47.26899" lon="-1.54803">
        <ele>79</ele>
        <time>2022-05-03T06:49:51Z</time>
      </trkpt>
      <trkpt lat="47.26899" lon="-1.54802">
        <ele>80</ele>
        <time>2022-05-03T06:49:52Z</time>
      </trkpt>
      <trkpt lat="47.26898" lon="-1.54798">
        <ele>81</ele>
        <time>2022-05-03T06:49:54Z</time>
      </trkpt>
      <trkpt lat="47.26898" lon="-1.54798">
        <ele>81</ele>
        <time>2022-05-03T06:49:54Z</time>
      </trkpt>
      <trkpt lat="47.26897" lon="-1.54796">
        <ele>81</ele>
        <time>2022-05-03T06:49:55Z</time>
      </trkpt>
      <trkpt lat="47.26897" lon="-1.54794">
        <ele>81</ele>
        <time>2022-05-03T06:49:56Z</time>
      </trkpt>
      <trkpt lat="47.26897" lon="-1.54793">
        <ele>81</ele>
        <time>2022-05-03T06:49:57Z</time>
      </trkpt>
      <trkpt lat="47.26896" lon="-1.5479">
        <ele>81</ele>
        <time>2022-05-03T06:49:59Z</time>
      </trkpt>
      <trkpt lat="47.26896" lon="-1.5479">
        <ele>81</ele>
        <time>2022-05-03T06:49:59Z</time>
      </trkpt>
      <trkpt lat="47.26895" lon="-1.54786">
        <ele>81</ele>
        <time>2022-05-03T06:50:01Z</time>
      </trkpt>
      <trkpt lat="47.26895" lon="-1.54786">
        <ele>81</ele>
        <time>2022-05-03T06:50:01Z</time>
      </trkpt>
      <trkpt lat="47.26895" lon="-1.54784">
        <ele>81</ele>
        <time>2022-05-03T06:50:02Z</time>
      </trkpt>
      <trkpt lat="47.26894" lon="-1.54782">
        <ele>81</ele>
        <time>2022-05-03T06:50:03Z</time>
      </trkpt>
      <trkpt lat="47.26894" lon="-1.5478">
        <ele>81</ele>
        <time>2022-05-03T06:50:04Z</time>
      </trkpt>
      <trkpt lat="47.26894" lon="-1.54778">
        <ele>81</ele>
        <time>2022-05-03T06:50:05Z</time>
      </trkpt>
      <trkpt lat="47.26893" lon="-1.54776">
        <ele>81</ele>
        <time>2022-05-03T06:50:06Z</time>
      </trkpt>
      <trkpt lat="47.26892" lon="-1.54772">
        <ele>81</ele>
        <time>2022-05-03T06:50:08Z</time>
      </trkpt>
      <trkpt lat="47.26891" lon="-1.54771">
        <ele>81</ele>
        <time>2022-05-03T06:50:09Z</time>
      </trkpt>
      <trkpt lat="47.26891" lon="-1.54768">
        <ele>81</ele>
        <time>2022-05-03T06:50:10Z</time>
      </trkpt>
      <trkpt lat="47.26891" lon="-1.54768">
        <ele>81</ele>
        <time>2022-05-03T06:50:10Z</time>
      </trkpt>
      <trkpt lat="47.26891" lon="-1.54766">
        <ele>80</ele>
        <time>2022-05-03T06:50:11Z</time>
      </trkpt>
      <trkpt lat="47.2689" lon="-1.54762">
        <ele>80</ele>
        <time>2022-05-03T06:50:13Z</time>
      </trkpt>
      <trkpt lat="47.2689" lon="-1.54762">
        <ele>80</ele>
        <time>2022-05-03T06:50:13Z</time>
      </trkpt>
      <trkpt lat="47.2689" lon="-1.5476">
        <ele>81</ele>
        <time>2022-05-03T06:50:14Z</time>
      </trkpt>
      <trkpt lat="47.26889" lon="-1.54756">
        <ele>81</ele>
        <time>2022-05-03T06:50:16Z</time>
      </trkpt>
      <trkpt lat="47.26888" lon="-1.54755">
        <ele>80</ele>
        <time>2022-05-03T06:50:17Z</time>
      </trkpt>
      <trkpt lat="47.26888" lon="-1.54755">
        <ele>80</ele>
        <time>2022-05-03T06:50:17Z</time>
      </trkpt>
      <trkpt lat="47.26888" lon="-1.54753">
        <ele>81</ele>
        <time>2022-05-03T06:50:18Z</time>
      </trkpt>
      <trkpt lat="47.26888" lon="-1.54751">
        <ele>81</ele>
        <time>2022-05-03T06:50:19Z</time>
      </trkpt>
      <trkpt lat="47.26886" lon="-1.54748">
        <ele>80</ele>
        <time>2022-05-03T06:50:21Z</time>
      </trkpt>
      <trkpt lat="47.26886" lon="-1.54748">
        <ele>80</ele>
        <time>2022-05-03T06:50:21Z</time>
      </trkpt>
      <trkpt lat="47.26886" lon="-1.54745">
        <ele>80</ele>
        <time>2022-05-03T06:50:22Z</time>
      </trkpt>
      <trkpt lat="47.26886" lon="-1.54744">
        <ele>80</ele>
        <time>2022-05-03T06:50:23Z</time>
      </trkpt>
      <trkpt lat="47.26886" lon="-1.54742">
        <ele>80</ele>
        <time>2022-05-03T06:50:24Z</time>
      </trkpt>
      <trkpt lat="47.26885" lon="-1.5474">
        <ele>80</ele>
        <time>2022-05-03T06:50:25Z</time>
      </trkpt>
      <trkpt lat="47.26885" lon="-1.54738">
        <ele>81</ele>
        <time>2022-05-03T06:50:26Z</time>
      </trkpt>
      <trkpt lat="47.26884" lon="-1.54736">
        <ele>80</ele>
        <time>2022-05-03T06:50:27Z</time>
      </trkpt>
      <trkpt lat="47.26884" lon="-1.54735">
        <ele>80</ele>
        <time>2022-05-03T06:50:28Z</time>
      </trkpt>
      <trkpt lat="47.26883" lon="-1.54733">
        <ele>80</ele>
        <time>2022-05-03T06:50:29Z</time>
      </trkpt>
      <trkpt lat="47.26883" lon="-1.54731">
        <ele>80</ele>
        <time>2022-05-03T06:50:30Z</time>
      </trkpt>
      <trkpt lat="47.26883" lon="-1.54729">
        <ele>80</ele>
        <time>2022-05-03T06:50:31Z</time>
      </trkpt>
      <trkpt lat="47.26883" lon="-1.54727">
        <ele>80</ele>
        <time>2022-05-03T06:50:32Z</time>
      </trkpt>
      <trkpt lat="47.26882" lon="-1.54725">
        <ele>80</ele>
        <time>2022-05-03T06:50:33Z</time>
      </trkpt>
      <trkpt lat="47.26881" lon="-1.54723">
        <ele>80</ele>
        <time>2022-05-03T06:50:34Z</time>
      </trkpt>
      <trkpt lat="47.26881" lon="-1.54722">
        <ele>79</ele>
        <time>2022-05-03T06:50:35Z</time>
      </trkpt>
      <trkpt lat="47.2688" lon="-1.5472">
        <ele>79</ele>
        <time>2022-05-03T06:50:36Z</time>
      </trkpt>
      <trkpt lat="47.2688" lon="-1.54718">
        <ele>80</ele>
        <time>2022-05-03T06:50:37Z</time>
      </trkpt>
      <trkpt lat="47.26879" lon="-1.54717">
        <ele>80</ele>
        <time>2022-05-03T06:50:38Z</time>
      </trkpt>
      <trkpt lat="47.26878" lon="-1.54715">
        <ele>80</ele>
        <time>2022-05-03T06:50:39Z</time>
      </trkpt>
      <trkpt lat="47.26878" lon="-1.54713">
        <ele>81</ele>
        <time>2022-05-03T06:50:40Z</time>
      </trkpt>
      <trkpt lat="47.26877" lon="-1.54711">
        <ele>80</ele>
        <time>2022-05-03T06:50:41Z</time>
      </trkpt>
      <trkpt lat="47.26876" lon="-1.54708">
        <ele>80</ele>
        <time>2022-05-03T06:50:43Z</time>
      </trkpt>
      <trkpt lat="47.26876" lon="-1.54708">
        <ele>80</ele>
        <time>2022-05-03T06:50:43Z</time>
      </trkpt>
      <trkpt lat="47.26876" lon="-1.54706">
        <ele>81</ele>
        <time>2022-05-03T06:50:44Z</time>
      </trkpt>
      <trkpt lat="47.26875" lon="-1.54704">
        <ele>81</ele>
        <time>2022-05-03T06:50:45Z</time>
      </trkpt>
      <trkpt lat="47.26875" lon="-1.54702">
        <ele>81</ele>
        <time>2022-05-03T06:50:46Z</time>
      </trkpt>
      <trkpt lat="47.26875" lon="-1.54701">
        <ele>81</ele>
        <time>2022-05-03T06:50:47Z</time>
      </trkpt>
      <trkpt lat="47.26873" lon="-1.54698">
        <ele>82</ele>
        <time>2022-05-03T06:50:49Z</time>
      </trkpt>
      <trkpt lat="47.26873" lon="-1.54698">
        <ele>82</ele>
        <time>2022-05-03T06:50:49Z</time>
      </trkpt>
      <trkpt lat="47.26873" lon="-1.54696">
        <ele>83</ele>
        <time>2022-05-03T06:50:50Z</time>
      </trkpt>
      <trkpt lat="47.26872" lon="-1.54694">
        <ele>83</ele>
        <time>2022-05-03T06:50:51Z</time>
      </trkpt>
      <trkpt lat="47.26872" lon="-1.54692">
        <ele>83</ele>
        <time>2022-05-03T06:50:52Z</time>
      </trkpt>
      <trkpt lat="47.26871" lon="-1.5469">
        <ele>83</ele>
        <time>2022-05-03T06:50:53Z</time>
      </trkpt>
      <trkpt lat="47.2687" lon="-1.54688">
        <ele>82</ele>
        <time>2022-05-03T06:50:54Z</time>
      </trkpt>
      <trkpt lat="47.2687" lon="-1.54686">
        <ele>83</ele>
        <time>2022-05-03T06:50:55Z</time>
      </trkpt>
      <trkpt lat="47.26869" lon="-1.54684">
        <ele>82</ele>
        <time>2022-05-03T06:50:56Z</time>
      </trkpt>
      <trkpt lat="47.26869" lon="-1.54682">
        <ele>82</ele>
        <time>2022-05-03T06:50:57Z</time>
      </trkpt>
      <trkpt lat="47.26868" lon="-1.5468">
        <ele>82</ele>
        <time>2022-05-03T06:50:58Z</time>
      </trkpt>
      <trkpt lat="47.26868" lon="-1.54678">
        <ele>82</ele>
        <time>2022-05-03T06:50:59Z</time>
      </trkpt>
      <trkpt lat="47.26868" lon="-1.54676">
        <ele>81</ele>
        <time>2022-05-03T06:51:00Z</time>
      </trkpt>
      <trkpt lat="47.26867" lon="-1.54674">
        <ele>81</ele>
        <time>2022-05-03T06:51:01Z</time>
      </trkpt>
      <trkpt lat="47.26867" lon="-1.54671">
        <ele>81</ele>
        <time>2022-05-03T06:51:02Z</time>
      </trkpt>
      <trkpt lat="47.26866" lon="-1.54669">
        <ele>80</ele>
        <time>2022-05-03T06:51:03Z</time>
      </trkpt>
      <trkpt lat="47.26866" lon="-1.54667">
        <ele>80</ele>
        <time>2022-05-03T06:51:04Z</time>
      </trkpt>
      <trkpt lat="47.26865" lon="-1.54664">
        <ele>80</ele>
        <time>2022-05-03T06:51:05Z</time>
      </trkpt>
      <trkpt lat="47.26865" lon="-1.54662">
        <ele>80</ele>
        <time>2022-05-03T06:51:06Z</time>
      </trkpt>
      <trkpt lat="47.26865" lon="-1.5466">
        <ele>80</ele>
        <time>2022-05-03T06:51:07Z</time>
      </trkpt>
      <trkpt lat="47.26864" lon="-1.54658">
        <ele>80</ele>
        <time>2022-05-03T06:51:08Z</time>
      </trkpt>
      <trkpt lat="47.26864" lon="-1.54656">
        <ele>80</ele>
        <time>2022-05-03T06:51:09Z</time>
      </trkpt>
      <trkpt lat="47.26863" lon="-1.54655">
        <ele>80</ele>
        <time>2022-05-03T06:51:10Z</time>
      </trkpt>
      <trkpt lat="47.26862" lon="-1.54654">
        <ele>80</ele>
        <time>2022-05-03T06:51:11Z</time>
      </trkpt>
      <trkpt lat="47.26861" lon="-1.54652">
        <ele>80</ele>
        <time>2022-05-03T06:51:12Z</time>
      </trkpt>
      <trkpt lat="47.2686" lon="-1.54651">
        <ele>79</ele>
        <time>2022-05-03T06:51:13Z</time>
      </trkpt>
      <trkpt lat="47.2686" lon="-1.5465">
        <ele>79</ele>
        <time>2022-05-03T06:51:14Z</time>
      </trkpt>
      <trkpt lat="47.26859" lon="-1.54649">
        <ele>80</ele>
        <time>2022-05-03T06:51:15Z</time>
      </trkpt>
      <trkpt lat="47.2686" lon="-1.54647">
        <ele>81</ele>
        <time>2022-05-03T06:51:16Z</time>
      </trkpt>
      <trkpt lat="47.26859" lon="-1.54645">
        <ele>81</ele>
        <time>2022-05-03T06:51:17Z</time>
      </trkpt>
      <trkpt lat="47.26859" lon="-1.54644">
        <ele>81</ele>
        <time>2022-05-03T06:51:18Z</time>
      </trkpt>
      <trkpt lat="47.26859" lon="-1.54643">
        <ele>81</ele>
        <time>2022-05-03T06:51:19Z</time>
      </trkpt>
      <trkpt lat="47.26859" lon="-1.54641">
        <ele>81</ele>
        <time>2022-05-03T06:51:20Z</time>
      </trkpt>
      <trkpt lat="47.26859" lon="-1.54639">
        <ele>81</ele>
        <time>2022-05-03T06:51:21Z</time>
      </trkpt>
      <trkpt lat="47.26859" lon="-1.54637">
        <ele>82</ele>
        <time>2022-05-03T06:51:22Z</time>
      </trkpt>
      <trkpt lat="47.26859" lon="-1.54635">
        <ele>81</ele>
        <time>2022-05-03T06:51:23Z</time>
      </trkpt>
      <trkpt lat="47.26859" lon="-1.54633">
        <ele>81</ele>
        <time>2022-05-03T06:51:24Z</time>
      </trkpt>
      <trkpt lat="47.2686" lon="-1.5463">
        <ele>81</ele>
        <time>2022-05-03T06:51:25Z</time>
      </trkpt>
      <trkpt lat="47.2686" lon="-1.54629">
        <ele>81</ele>
        <time>2022-05-03T06:51:26Z</time>
      </trkpt>
      <trkpt lat="47.26861" lon="-1.54627">
        <ele>81</ele>
        <time>2022-05-03T06:51:27Z</time>
      </trkpt>
      <trkpt lat="47.26861" lon="-1.54625">
        <ele>81</ele>
        <time>2022-05-03T06:51:28Z</time>
      </trkpt>
      <trkpt lat="47.26862" lon="-1.54623">
        <ele>81</ele>
        <time>2022-05-03T06:51:29Z</time>
      </trkpt>
      <trkpt lat="47.26862" lon="-1.54622">
        <ele>81</ele>
        <time>2022-05-03T06:51:30Z</time>
      </trkpt>
      <trkpt lat="47.26863" lon="-1.5462">
        <ele>82</ele>
        <time>2022-05-03T06:51:31Z</time>
      </trkpt>
      <trkpt lat="47.26864" lon="-1.54619">
        <ele>82</ele>
        <time>2022-05-03T06:51:32Z</time>
      </trkpt>
      <trkpt lat="47.26864" lon="-1.54618">
        <ele>82</ele>
        <time>2022-05-03T06:51:33Z</time>
      </trkpt>
      <trkpt lat="47.26865" lon="-1.54616">
        <ele>81</ele>
        <time>2022-05-03T06:51:34Z</time>
      </trkpt>
      <trkpt lat="47.26866" lon="-1.54614">
        <ele>82</ele>
        <time>2022-05-03T06:51:35Z</time>
      </trkpt>
      <trkpt lat="47.26867" lon="-1.5461">
        <ele>82</ele>
        <time>2022-05-03T06:51:37Z</time>
      </trkpt>
      <trkpt lat="47.26867" lon="-1.5461">
        <ele>82</ele>
        <time>2022-05-03T06:51:37Z</time>
      </trkpt>
      <trkpt lat="47.26867" lon="-1.54609">
        <ele>82</ele>
        <time>2022-05-03T06:51:38Z</time>
      </trkpt>
      <trkpt lat="47.26868" lon="-1.54607">
        <ele>82</ele>
        <time>2022-05-03T06:51:39Z</time>
      </trkpt>
      <trkpt lat="47.26868" lon="-1.54605">
        <ele>82</ele>
        <time>2022-05-03T06:51:40Z</time>
      </trkpt>
      <trkpt lat="47.26868" lon="-1.54604">
        <ele>82</ele>
        <time>2022-05-03T06:51:41Z</time>
      </trkpt>
      <trkpt lat="47.26869" lon="-1.54602">
        <ele>82</ele>
        <time>2022-05-03T06:51:43Z</time>
      </trkpt>
      <trkpt lat="47.26869" lon="-1.54602">
        <ele>82</ele>
        <time>2022-05-03T06:51:43Z</time>
      </trkpt>
      <trkpt lat="47.26869" lon="-1.546">
        <ele>82</ele>
        <time>2022-05-03T06:51:44Z</time>
      </trkpt>
      <trkpt lat="47.2687" lon="-1.54599">
        <ele>83</ele>
        <time>2022-05-03T06:51:45Z</time>
      </trkpt>
      <trkpt lat="47.2687" lon="-1.54597">
        <ele>83</ele>
        <time>2022-05-03T06:51:46Z</time>
      </trkpt>
      <trkpt lat="47.2687" lon="-1.54595">
        <ele>83</ele>
        <time>2022-05-03T06:51:47Z</time>
      </trkpt>
      <trkpt lat="47.2687" lon="-1.54593">
        <ele>83</ele>
        <time>2022-05-03T06:51:48Z</time>
      </trkpt>
      <trkpt lat="47.26871" lon="-1.54592">
        <ele>82</ele>
        <time>2022-05-03T06:51:49Z</time>
      </trkpt>
      <trkpt lat="47.26871" lon="-1.5459">
        <ele>82</ele>
        <time>2022-05-03T06:51:50Z</time>
      </trkpt>
      <trkpt lat="47.26871" lon="-1.54588">
        <ele>81</ele>
        <time>2022-05-03T06:51:51Z</time>
      </trkpt>
      <trkpt lat="47.26871" lon="-1.54586">
        <ele>81</ele>
        <time>2022-05-03T06:51:52Z</time>
      </trkpt>
      <trkpt lat="47.26871" lon="-1.54584">
        <ele>81</ele>
        <time>2022-05-03T06:51:53Z</time>
      </trkpt>
      <trkpt lat="47.26872" lon="-1.54583">
        <ele>81</ele>
        <time>2022-05-03T06:51:54Z</time>
      </trkpt>
      <trkpt lat="47.26872" lon="-1.54581">
        <ele>81</ele>
        <time>2022-05-03T06:51:55Z</time>
      </trkpt>
      <trkpt lat="47.26872" lon="-1.54579">
        <ele>81</ele>
        <time>2022-05-03T06:51:56Z</time>
      </trkpt>
      <trkpt lat="47.26871" lon="-1.54577">
        <ele>81</ele>
        <time>2022-05-03T06:51:57Z</time>
      </trkpt>
      <trkpt lat="47.26871" lon="-1.54576">
        <ele>81</ele>
        <time>2022-05-03T06:51:58Z</time>
      </trkpt>
      <trkpt lat="47.2687" lon="-1.54574">
        <ele>81</ele>
        <time>2022-05-03T06:51:59Z</time>
      </trkpt>
      <trkpt lat="47.26869" lon="-1.54573">
        <ele>81</ele>
        <time>2022-05-03T06:52:00Z</time>
      </trkpt>
      <trkpt lat="47.26868" lon="-1.54572">
        <ele>80</ele>
        <time>2022-05-03T06:52:01Z</time>
      </trkpt>
      <trkpt lat="47.26867" lon="-1.54571">
        <ele>80</ele>
        <time>2022-05-03T06:52:02Z</time>
      </trkpt>
      <trkpt lat="47.26866" lon="-1.54569">
        <ele>80</ele>
        <time>2022-05-03T06:52:03Z</time>
      </trkpt>
      <trkpt lat="47.26865" lon="-1.54568">
        <ele>79</ele>
        <time>2022-05-03T06:52:04Z</time>
      </trkpt>
      <trkpt lat="47.26864" lon="-1.54568">
        <ele>79</ele>
        <time>2022-05-03T06:52:05Z</time>
      </trkpt>
      <trkpt lat="47.26862" lon="-1.54567">
        <ele>78</ele>
        <time>2022-05-03T06:52:06Z</time>
      </trkpt>
      <trkpt lat="47.26862" lon="-1.54566">
        <ele>78</ele>
        <time>2022-05-03T06:52:07Z</time>
      </trkpt>
      <trkpt lat="47.2686" lon="-1.54565">
        <ele>78</ele>
        <time>2022-05-03T06:52:08Z</time>
      </trkpt>
      <trkpt lat="47.26859" lon="-1.54565">
        <ele>78</ele>
        <time>2022-05-03T06:52:09Z</time>
      </trkpt>
      <trkpt lat="47.26857" lon="-1.54565">
        <ele>78</ele>
        <time>2022-05-03T06:52:10Z</time>
      </trkpt>
      <trkpt lat="47.26856" lon="-1.54564">
        <ele>78</ele>
        <time>2022-05-03T06:52:11Z</time>
      </trkpt>
      <trkpt lat="47.26854" lon="-1.54564">
        <ele>77</ele>
        <time>2022-05-03T06:52:12Z</time>
      </trkpt>
      <trkpt lat="47.26853" lon="-1.54564">
        <ele>77</ele>
        <time>2022-05-03T06:52:13Z</time>
      </trkpt>
      <trkpt lat="47.26852" lon="-1.54564">
        <ele>77</ele>
        <time>2022-05-03T06:52:14Z</time>
      </trkpt>
      <trkpt lat="47.26851" lon="-1.54564">
        <ele>77</ele>
        <time>2022-05-03T06:52:15Z</time>
      </trkpt>
      <trkpt lat="47.26849" lon="-1.54565">
        <ele>77</ele>
        <time>2022-05-03T06:52:16Z</time>
      </trkpt>
      <trkpt lat="47.26848" lon="-1.54565">
        <ele>77</ele>
        <time>2022-05-03T06:52:17Z</time>
      </trkpt>
      <trkpt lat="47.26846" lon="-1.54565">
        <ele>77</ele>
        <time>2022-05-03T06:52:18Z</time>
      </trkpt>
      <trkpt lat="47.26845" lon="-1.54565">
        <ele>77</ele>
        <time>2022-05-03T06:52:19Z</time>
      </trkpt>
      <trkpt lat="47.26843" lon="-1.54565">
        <ele>77</ele>
        <time>2022-05-03T06:52:20Z</time>
      </trkpt>
      <trkpt lat="47.26842" lon="-1.54565">
        <ele>76</ele>
        <time>2022-05-03T06:52:21Z</time>
      </trkpt>
      <trkpt lat="47.2684" lon="-1.54565">
        <ele>76</ele>
        <time>2022-05-03T06:52:22Z</time>
      </trkpt>
      <trkpt lat="47.26837" lon="-1.54564">
        <ele>76</ele>
        <time>2022-05-03T06:52:24Z</time>
      </trkpt>
      <trkpt lat="47.26834" lon="-1.54563">
        <ele>76</ele>
        <time>2022-05-03T06:52:26Z</time>
      </trkpt>
      <trkpt lat="47.26832" lon="-1.54563">
        <ele>76</ele>
        <time>2022-05-03T06:52:27Z</time>
      </trkpt>
      <trkpt lat="47.26831" lon="-1.54562">
        <ele>75</ele>
        <time>2022-05-03T06:52:28Z</time>
      </trkpt>
      <trkpt lat="47.26829" lon="-1.54561">
        <ele>75</ele>
        <time>2022-05-03T06:52:29Z</time>
      </trkpt>
      <trkpt lat="47.26828" lon="-1.5456">
        <ele>76</ele>
        <time>2022-05-03T06:52:30Z</time>
      </trkpt>
      <trkpt lat="47.26827" lon="-1.5456">
        <ele>76</ele>
        <time>2022-05-03T06:52:31Z</time>
      </trkpt>
      <trkpt lat="47.26826" lon="-1.54559">
        <ele>76</ele>
        <time>2022-05-03T06:52:32Z</time>
      </trkpt>
      <trkpt lat="47.26824" lon="-1.54558">
        <ele>76</ele>
        <time>2022-05-03T06:52:33Z</time>
      </trkpt>
      <trkpt lat="47.26823" lon="-1.54557">
        <ele>76</ele>
        <time>2022-05-03T06:52:34Z</time>
      </trkpt>
      <trkpt lat="47.26822" lon="-1.54556">
        <ele>76</ele>
        <time>2022-05-03T06:52:35Z</time>
      </trkpt>
      <trkpt lat="47.2682" lon="-1.54555">
        <ele>76</ele>
        <time>2022-05-03T06:52:36Z</time>
      </trkpt>
      <trkpt lat="47.26819" lon="-1.54555">
        <ele>76</ele>
        <time>2022-05-03T06:52:37Z</time>
      </trkpt>
      <trkpt lat="47.26817" lon="-1.54554">
        <ele>76</ele>
        <time>2022-05-03T06:52:38Z</time>
      </trkpt>
      <trkpt lat="47.26816" lon="-1.54553">
        <ele>76</ele>
        <time>2022-05-03T06:52:39Z</time>
      </trkpt>
      <trkpt lat="47.26815" lon="-1.54552">
        <ele>76</ele>
        <time>2022-05-03T06:52:40Z</time>
      </trkpt>
      <trkpt lat="47.26814" lon="-1.5455">
        <ele>76</ele>
        <time>2022-05-03T06:52:41Z</time>
      </trkpt>
      <trkpt lat="47.26812" lon="-1.54549">
        <ele>75</ele>
        <time>2022-05-03T06:52:42Z</time>
      </trkpt>
      <trkpt lat="47.26811" lon="-1.54548">
        <ele>75</ele>
        <time>2022-05-03T06:52:43Z</time>
      </trkpt>
      <trkpt lat="47.2681" lon="-1.54547">
        <ele>75</ele>
        <time>2022-05-03T06:52:44Z</time>
      </trkpt>
      <trkpt lat="47.26809" lon="-1.54546">
        <ele>75</ele>
        <time>2022-05-03T06:52:45Z</time>
      </trkpt>
      <trkpt lat="47.26808" lon="-1.54545">
        <ele>75</ele>
        <time>2022-05-03T06:52:46Z</time>
      </trkpt>
      <trkpt lat="47.26807" lon="-1.54544">
        <ele>75</ele>
        <time>2022-05-03T06:52:47Z</time>
      </trkpt>
      <trkpt lat="47.26806" lon="-1.54543">
        <ele>75</ele>
        <time>2022-05-03T06:52:48Z</time>
      </trkpt>
      <trkpt lat="47.26805" lon="-1.54541">
        <ele>74</ele>
        <time>2022-05-03T06:52:49Z</time>
      </trkpt>
      <trkpt lat="47.26804" lon="-1.5454">
        <ele>75</ele>
        <time>2022-05-03T06:52:50Z</time>
      </trkpt>
      <trkpt lat="47.26803" lon="-1.54539">
        <ele>75</ele>
        <time>2022-05-03T06:52:51Z</time>
      </trkpt>
      <trkpt lat="47.26802" lon="-1.54538">
        <ele>75</ele>
        <time>2022-05-03T06:52:52Z</time>
      </trkpt>
      <trkpt lat="47.26801" lon="-1.54537">
        <ele>75</ele>
        <time>2022-05-03T06:52:53Z</time>
      </trkpt>
      <trkpt lat="47.26799" lon="-1.54535">
        <ele>74</ele>
        <time>2022-05-03T06:52:54Z</time>
      </trkpt>
      <trkpt lat="47.26798" lon="-1.54534">
        <ele>74</ele>
        <time>2022-05-03T06:52:55Z</time>
      </trkpt>
      <trkpt lat="47.26797" lon="-1.54533">
        <ele>74</ele>
        <time>2022-05-03T06:52:56Z</time>
      </trkpt>
      <trkpt lat="47.26796" lon="-1.54532">
        <ele>74</ele>
        <time>2022-05-03T06:52:57Z</time>
      </trkpt>
      <trkpt lat="47.26795" lon="-1.5453">
        <ele>74</ele>
        <time>2022-05-03T06:52:58Z</time>
      </trkpt>
      <trkpt lat="47.26794" lon="-1.54529">
        <ele>74</ele>
        <time>2022-05-03T06:52:59Z</time>
      </trkpt>
      <trkpt lat="47.26793" lon="-1.54528">
        <ele>74</ele>
        <time>2022-05-03T06:53:00Z</time>
      </trkpt>
      <trkpt lat="47.26792" lon="-1.54527">
        <ele>75</ele>
        <time>2022-05-03T06:53:01Z</time>
      </trkpt>
      <trkpt lat="47.26791" lon="-1.54525">
        <ele>74</ele>
        <time>2022-05-03T06:53:02Z</time>
      </trkpt>
      <trkpt lat="47.2679" lon="-1.54524">
        <ele>75</ele>
        <time>2022-05-03T06:53:03Z</time>
      </trkpt>
      <trkpt lat="47.2679" lon="-1.54523">
        <ele>75</ele>
        <time>2022-05-03T06:53:04Z</time>
      </trkpt>
      <trkpt lat="47.26789" lon="-1.54522">
        <ele>75</ele>
        <time>2022-05-03T06:53:05Z</time>
      </trkpt>
      <trkpt lat="47.26788" lon="-1.54521">
        <ele>76</ele>
        <time>2022-05-03T06:53:06Z</time>
      </trkpt>
      <trkpt lat="47.26786" lon="-1.54519">
        <ele>76</ele>
        <time>2022-05-03T06:53:07Z</time>
      </trkpt>
      <trkpt lat="47.26785" lon="-1.54518">
        <ele>75</ele>
        <time>2022-05-03T06:53:08Z</time>
      </trkpt>
      <trkpt lat="47.26784" lon="-1.54516">
        <ele>75</ele>
        <time>2022-05-03T06:53:09Z</time>
      </trkpt>
      <trkpt lat="47.26783" lon="-1.54514">
        <ele>75</ele>
        <time>2022-05-03T06:53:10Z</time>
      </trkpt>
      <trkpt lat="47.26782" lon="-1.54513">
        <ele>75</ele>
        <time>2022-05-03T06:53:11Z</time>
      </trkpt>
      <trkpt lat="47.26781" lon="-1.54511">
        <ele>75</ele>
        <time>2022-05-03T06:53:12Z</time>
      </trkpt>
      <trkpt lat="47.2678" lon="-1.5451">
        <ele>75</ele>
        <time>2022-05-03T06:53:13Z</time>
      </trkpt>
      <trkpt lat="47.26779" lon="-1.54509">
        <ele>76</ele>
        <time>2022-05-03T06:53:14Z</time>
      </trkpt>
      <trkpt lat="47.26778" lon="-1.54508">
        <ele>76</ele>
        <time>2022-05-03T06:53:15Z</time>
      </trkpt>
      <trkpt lat="47.26777" lon="-1.54507">
        <ele>76</ele>
        <time>2022-05-03T06:53:16Z</time>
      </trkpt>
      <trkpt lat="47.26775" lon="-1.54506">
        <ele>75</ele>
        <time>2022-05-03T06:53:17Z</time>
      </trkpt>
      <trkpt lat="47.26774" lon="-1.54506">
        <ele>75</ele>
        <time>2022-05-03T06:53:18Z</time>
      </trkpt>
      <trkpt lat="47.26773" lon="-1.54505">
        <ele>75</ele>
        <time>2022-05-03T06:53:19Z</time>
      </trkpt>
      <trkpt lat="47.26771" lon="-1.54505">
        <ele>75</ele>
        <time>2022-05-03T06:53:20Z</time>
      </trkpt>
      <trkpt lat="47.2677" lon="-1.54505">
        <ele>75</ele>
        <time>2022-05-03T06:53:21Z</time>
      </trkpt>
      <trkpt lat="47.26769" lon="-1.54504">
        <ele>76</ele>
        <time>2022-05-03T06:53:22Z</time>
      </trkpt>
      <trkpt lat="47.26767" lon="-1.54505">
        <ele>76</ele>
        <time>2022-05-03T06:53:23Z</time>
      </trkpt>
      <trkpt lat="47.26765" lon="-1.54504">
        <ele>76</ele>
        <time>2022-05-03T06:53:24Z</time>
      </trkpt>
      <trkpt lat="47.26764" lon="-1.54503">
        <ele>75</ele>
        <time>2022-05-03T06:53:25Z</time>
      </trkpt>
      <trkpt lat="47.26762" lon="-1.54504">
        <ele>75</ele>
        <time>2022-05-03T06:53:26Z</time>
      </trkpt>
      <trkpt lat="47.26761" lon="-1.54504">
        <ele>76</ele>
        <time>2022-05-03T06:53:27Z</time>
      </trkpt>
      <trkpt lat="47.26759" lon="-1.54504">
        <ele>76</ele>
        <time>2022-05-03T06:53:28Z</time>
      </trkpt>
      <trkpt lat="47.26758" lon="-1.54504">
        <ele>75</ele>
        <time>2022-05-03T06:53:29Z</time>
      </trkpt>
      <trkpt lat="47.26757" lon="-1.54503">
        <ele>75</ele>
        <time>2022-05-03T06:53:30Z</time>
      </trkpt>
      <trkpt lat="47.26756" lon="-1.54502">
        <ele>75</ele>
        <time>2022-05-03T06:53:31Z</time>
      </trkpt>
      <trkpt lat="47.26755" lon="-1.545">
        <ele>76</ele>
        <time>2022-05-03T06:53:32Z</time>
      </trkpt>
      <trkpt lat="47.26754" lon="-1.54499">
        <ele>76</ele>
        <time>2022-05-03T06:53:33Z</time>
      </trkpt>
      <trkpt lat="47.26753" lon="-1.54497">
        <ele>75</ele>
        <time>2022-05-03T06:53:34Z</time>
      </trkpt>
      <trkpt lat="47.26753" lon="-1.54495">
        <ele>75</ele>
        <time>2022-05-03T06:53:35Z</time>
      </trkpt>
      <trkpt lat="47.26752" lon="-1.54493">
        <ele>75</ele>
        <time>2022-05-03T06:53:36Z</time>
      </trkpt>
      <trkpt lat="47.26752" lon="-1.54491">
        <ele>75</ele>
        <time>2022-05-03T06:53:37Z</time>
      </trkpt>
      <trkpt lat="47.26751" lon="-1.5449">
        <ele>74</ele>
        <time>2022-05-03T06:53:38Z</time>
      </trkpt>
      <trkpt lat="47.2675" lon="-1.54488">
        <ele>75</ele>
        <time>2022-05-03T06:53:39Z</time>
      </trkpt>
      <trkpt lat="47.26749" lon="-1.54487">
        <ele>74</ele>
        <time>2022-05-03T06:53:40Z</time>
      </trkpt>
      <trkpt lat="47.26748" lon="-1.54485">
        <ele>75</ele>
        <time>2022-05-03T06:53:41Z</time>
      </trkpt>
      <trkpt lat="47.26748" lon="-1.54484">
        <ele>75</ele>
        <time>2022-05-03T06:53:42Z</time>
      </trkpt>
      <trkpt lat="47.26746" lon="-1.54483">
        <ele>74</ele>
        <time>2022-05-03T06:53:43Z</time>
      </trkpt>
      <trkpt lat="47.26746" lon="-1.54482">
        <ele>74</ele>
        <time>2022-05-03T06:53:44Z</time>
      </trkpt>
      <trkpt lat="47.26745" lon="-1.5448">
        <ele>74</ele>
        <time>2022-05-03T06:53:45Z</time>
      </trkpt>
      <trkpt lat="47.26744" lon="-1.54479">
        <ele>75</ele>
        <time>2022-05-03T06:53:46Z</time>
      </trkpt>
      <trkpt lat="47.26743" lon="-1.54479">
        <ele>74</ele>
        <time>2022-05-03T06:53:47Z</time>
      </trkpt>
      <trkpt lat="47.26742" lon="-1.54478">
        <ele>74</ele>
        <time>2022-05-03T06:53:48Z</time>
      </trkpt>
      <trkpt lat="47.26741" lon="-1.54476">
        <ele>74</ele>
        <time>2022-05-03T06:53:49Z</time>
      </trkpt>
      <trkpt lat="47.2674" lon="-1.54475">
        <ele>74</ele>
        <time>2022-05-03T06:53:50Z</time>
      </trkpt>
      <trkpt lat="47.26739" lon="-1.54474">
        <ele>74</ele>
        <time>2022-05-03T06:53:51Z</time>
      </trkpt>
      <trkpt lat="47.26738" lon="-1.54472">
        <ele>74</ele>
        <time>2022-05-03T06:53:52Z</time>
      </trkpt>
      <trkpt lat="47.26737" lon="-1.54472">
        <ele>74</ele>
        <time>2022-05-03T06:53:53Z</time>
      </trkpt>
      <trkpt lat="47.26735" lon="-1.54471">
        <ele>74</ele>
        <time>2022-05-03T06:53:54Z</time>
      </trkpt>
      <trkpt lat="47.26734" lon="-1.5447">
        <ele>74</ele>
        <time>2022-05-03T06:53:56Z</time>
      </trkpt>
      <trkpt lat="47.26733" lon="-1.54469">
        <ele>74</ele>
        <time>2022-05-03T06:53:57Z</time>
      </trkpt>
      <trkpt lat="47.26732" lon="-1.54469">
        <ele>74</ele>
        <time>2022-05-03T06:53:58Z</time>
      </trkpt>
      <trkpt lat="47.2673" lon="-1.54468">
        <ele>74</ele>
        <time>2022-05-03T06:53:59Z</time>
      </trkpt>
      <trkpt lat="47.26729" lon="-1.54468">
        <ele>74</ele>
        <time>2022-05-03T06:54:00Z</time>
      </trkpt>
      <trkpt lat="47.26728" lon="-1.54467">
        <ele>74</ele>
        <time>2022-05-03T06:54:01Z</time>
      </trkpt>
      <trkpt lat="47.26727" lon="-1.54467">
        <ele>74</ele>
        <time>2022-05-03T06:54:02Z</time>
      </trkpt>
      <trkpt lat="47.26725" lon="-1.54466">
        <ele>74</ele>
        <time>2022-05-03T06:54:03Z</time>
      </trkpt>
      <trkpt lat="47.26724" lon="-1.54466">
        <ele>74</ele>
        <time>2022-05-03T06:54:04Z</time>
      </trkpt>
      <trkpt lat="47.26722" lon="-1.54466">
        <ele>74</ele>
        <time>2022-05-03T06:54:05Z</time>
      </trkpt>
      <trkpt lat="47.26721" lon="-1.54465">
        <ele>73</ele>
        <time>2022-05-03T06:54:06Z</time>
      </trkpt>
      <trkpt lat="47.2672" lon="-1.54465">
        <ele>73</ele>
        <time>2022-05-03T06:54:07Z</time>
      </trkpt>
      <trkpt lat="47.26718" lon="-1.54465">
        <ele>73</ele>
        <time>2022-05-03T06:54:08Z</time>
      </trkpt>
      <trkpt lat="47.26717" lon="-1.54464">
        <ele>73</ele>
        <time>2022-05-03T06:54:09Z</time>
      </trkpt>
      <trkpt lat="47.26716" lon="-1.54464">
        <ele>73</ele>
        <time>2022-05-03T06:54:10Z</time>
      </trkpt>
      <trkpt lat="47.26714" lon="-1.54463">
        <ele>73</ele>
        <time>2022-05-03T06:54:11Z</time>
      </trkpt>
      <trkpt lat="47.26713" lon="-1.54462">
        <ele>73</ele>
        <time>2022-05-03T06:54:12Z</time>
      </trkpt>
      <trkpt lat="47.26712" lon="-1.54461">
        <ele>73</ele>
        <time>2022-05-03T06:54:13Z</time>
      </trkpt>
      <trkpt lat="47.26711" lon="-1.54461">
        <ele>73</ele>
        <time>2022-05-03T06:54:14Z</time>
      </trkpt>
      <trkpt lat="47.2671" lon="-1.54461">
        <ele>73</ele>
        <time>2022-05-03T06:54:15Z</time>
      </trkpt>
      <trkpt lat="47.26709" lon="-1.54461">
        <ele>73</ele>
        <time>2022-05-03T06:54:16Z</time>
      </trkpt>
      <trkpt lat="47.26707" lon="-1.54461">
        <ele>73</ele>
        <time>2022-05-03T06:54:17Z</time>
      </trkpt>
      <trkpt lat="47.26706" lon="-1.5446">
        <ele>73</ele>
        <time>2022-05-03T06:54:18Z</time>
      </trkpt>
      <trkpt lat="47.26704" lon="-1.5446">
        <ele>73</ele>
        <time>2022-05-03T06:54:19Z</time>
      </trkpt>
      <trkpt lat="47.26703" lon="-1.54459">
        <ele>73</ele>
        <time>2022-05-03T06:54:20Z</time>
      </trkpt>
      <trkpt lat="47.26702" lon="-1.54459">
        <ele>73</ele>
        <time>2022-05-03T06:54:21Z</time>
      </trkpt>
      <trkpt lat="47.26701" lon="-1.54459">
        <ele>73</ele>
        <time>2022-05-03T06:54:22Z</time>
      </trkpt>
      <trkpt lat="47.26699" lon="-1.54459">
        <ele>73</ele>
        <time>2022-05-03T06:54:23Z</time>
      </trkpt>
      <trkpt lat="47.26698" lon="-1.54458">
        <ele>73</ele>
        <time>2022-05-03T06:54:24Z</time>
      </trkpt>
      <trkpt lat="47.26697" lon="-1.54457">
        <ele>73</ele>
        <time>2022-05-03T06:54:25Z</time>
      </trkpt>
      <trkpt lat="47.26696" lon="-1.54457">
        <ele>72</ele>
        <time>2022-05-03T06:54:26Z</time>
      </trkpt>
      <trkpt lat="47.26695" lon="-1.54457">
        <ele>72</ele>
        <time>2022-05-03T06:54:27Z</time>
      </trkpt>
      <trkpt lat="47.26693" lon="-1.54456">
        <ele>71</ele>
        <time>2022-05-03T06:54:28Z</time>
      </trkpt>
      <trkpt lat="47.26692" lon="-1.54456">
        <ele>71</ele>
        <time>2022-05-03T06:54:29Z</time>
      </trkpt>
      <trkpt lat="47.2669" lon="-1.54456">
        <ele>71</ele>
        <time>2022-05-03T06:54:30Z</time>
      </trkpt>
      <trkpt lat="47.26689" lon="-1.54456">
        <ele>71</ele>
        <time>2022-05-03T06:54:31Z</time>
      </trkpt>
      <trkpt lat="47.26687" lon="-1.54455">
        <ele>71</ele>
        <time>2022-05-03T06:54:32Z</time>
      </trkpt>
      <trkpt lat="47.26686" lon="-1.54455">
        <ele>70</ele>
        <time>2022-05-03T06:54:33Z</time>
      </trkpt>
      <trkpt lat="47.26684" lon="-1.54455">
        <ele>70</ele>
        <time>2022-05-03T06:54:34Z</time>
      </trkpt>
      <trkpt lat="47.26683" lon="-1.54454">
        <ele>71</ele>
        <time>2022-05-03T06:54:35Z</time>
      </trkpt>
      <trkpt lat="47.26682" lon="-1.54454">
        <ele>71</ele>
        <time>2022-05-03T06:54:36Z</time>
      </trkpt>
      <trkpt lat="47.2668" lon="-1.54453">
        <ele>71</ele>
        <time>2022-05-03T06:54:37Z</time>
      </trkpt>
      <trkpt lat="47.26679" lon="-1.54453">
        <ele>71</ele>
        <time>2022-05-03T06:54:38Z</time>
      </trkpt>
      <trkpt lat="47.26677" lon="-1.54453">
        <ele>71</ele>
        <time>2022-05-03T06:54:39Z</time>
      </trkpt>
      <trkpt lat="47.26675" lon="-1.54452">
        <ele>71</ele>
        <time>2022-05-03T06:54:40Z</time>
      </trkpt>
      <trkpt lat="47.26674" lon="-1.54452">
        <ele>70</ele>
        <time>2022-05-03T06:54:41Z</time>
      </trkpt>
      <trkpt lat="47.26673" lon="-1.54452">
        <ele>71</ele>
        <time>2022-05-03T06:54:42Z</time>
      </trkpt>
      <trkpt lat="47.26672" lon="-1.54453">
        <ele>70</ele>
        <time>2022-05-03T06:54:43Z</time>
      </trkpt>
      <trkpt lat="47.26671" lon="-1.54453">
        <ele>70</ele>
        <time>2022-05-03T06:54:44Z</time>
      </trkpt>
      <trkpt lat="47.26669" lon="-1.54453">
        <ele>70</ele>
        <time>2022-05-03T06:54:45Z</time>
      </trkpt>
      <trkpt lat="47.26668" lon="-1.54453">
        <ele>70</ele>
        <time>2022-05-03T06:54:46Z</time>
      </trkpt>
      <trkpt lat="47.26667" lon="-1.54453">
        <ele>70</ele>
        <time>2022-05-03T06:54:47Z</time>
      </trkpt>
      <trkpt lat="47.26666" lon="-1.54453">
        <ele>70</ele>
        <time>2022-05-03T06:54:48Z</time>
      </trkpt>
      <trkpt lat="47.26664" lon="-1.54453">
        <ele>71</ele>
        <time>2022-05-03T06:54:49Z</time>
      </trkpt>
      <trkpt lat="47.26662" lon="-1.54454">
        <ele>71</ele>
        <time>2022-05-03T06:54:50Z</time>
      </trkpt>
      <trkpt lat="47.26661" lon="-1.54454">
        <ele>71</ele>
        <time>2022-05-03T06:54:51Z</time>
      </trkpt>
      <trkpt lat="47.26659" lon="-1.54454">
        <ele>71</ele>
        <time>2022-05-03T06:54:52Z</time>
      </trkpt>
      <trkpt lat="47.26658" lon="-1.54455">
        <ele>71</ele>
        <time>2022-05-03T06:54:53Z</time>
      </trkpt>
      <trkpt lat="47.26656" lon="-1.54455">
        <ele>71</ele>
        <time>2022-05-03T06:54:54Z</time>
      </trkpt>
      <trkpt lat="47.26655" lon="-1.54455">
        <ele>71</ele>
        <time>2022-05-03T06:54:55Z</time>
      </trkpt>
      <trkpt lat="47.26653" lon="-1.54455">
        <ele>70</ele>
        <time>2022-05-03T06:54:56Z</time>
      </trkpt>
      <trkpt lat="47.26652" lon="-1.54455">
        <ele>70</ele>
        <time>2022-05-03T06:54:57Z</time>
      </trkpt>
      <trkpt lat="47.2665" lon="-1.54455">
        <ele>70</ele>
        <time>2022-05-03T06:54:58Z</time>
      </trkpt>
      <trkpt lat="47.26649" lon="-1.54455">
        <ele>71</ele>
        <time>2022-05-03T06:54:59Z</time>
      </trkpt>
      <trkpt lat="47.26647" lon="-1.54455">
        <ele>71</ele>
        <time>2022-05-03T06:55:00Z</time>
      </trkpt>
      <trkpt lat="47.26646" lon="-1.54455">
        <ele>71</ele>
        <time>2022-05-03T06:55:01Z</time>
      </trkpt>
      <trkpt lat="47.26644" lon="-1.54456">
        <ele>71</ele>
        <time>2022-05-03T06:55:02Z</time>
      </trkpt>
      <trkpt lat="47.26643" lon="-1.54456">
        <ele>70</ele>
        <time>2022-05-03T06:55:03Z</time>
      </trkpt>
      <trkpt lat="47.26642" lon="-1.54456">
        <ele>70</ele>
        <time>2022-05-03T06:55:04Z</time>
      </trkpt>
      <trkpt lat="47.2664" lon="-1.54457">
        <ele>70</ele>
        <time>2022-05-03T06:55:05Z</time>
      </trkpt>
      <trkpt lat="47.26639" lon="-1.54457">
        <ele>70</ele>
        <time>2022-05-03T06:55:06Z</time>
      </trkpt>
      <trkpt lat="47.26638" lon="-1.54457">
        <ele>71</ele>
        <time>2022-05-03T06:55:07Z</time>
      </trkpt>
      <trkpt lat="47.26636" lon="-1.54457">
        <ele>71</ele>
        <time>2022-05-03T06:55:08Z</time>
      </trkpt>
      <trkpt lat="47.26635" lon="-1.54458">
        <ele>71</ele>
        <time>2022-05-03T06:55:09Z</time>
      </trkpt>
      <trkpt lat="47.26634" lon="-1.54458">
        <ele>71</ele>
        <time>2022-05-03T06:55:10Z</time>
      </trkpt>
      <trkpt lat="47.26632" lon="-1.54459">
        <ele>71</ele>
        <time>2022-05-03T06:55:11Z</time>
      </trkpt>
      <trkpt lat="47.26631" lon="-1.54459">
        <ele>71</ele>
        <time>2022-05-03T06:55:12Z</time>
      </trkpt>
      <trkpt lat="47.2663" lon="-1.54459">
        <ele>72</ele>
        <time>2022-05-03T06:55:13Z</time>
      </trkpt>
      <trkpt lat="47.26628" lon="-1.54459">
        <ele>72</ele>
        <time>2022-05-03T06:55:14Z</time>
      </trkpt>
      <trkpt lat="47.26627" lon="-1.5446">
        <ele>72</ele>
        <time>2022-05-03T06:55:15Z</time>
      </trkpt>
      <trkpt lat="47.26626" lon="-1.5446">
        <ele>71</ele>
        <time>2022-05-03T06:55:16Z</time>
      </trkpt>
      <trkpt lat="47.26625" lon="-1.54461">
        <ele>71</ele>
        <time>2022-05-03T06:55:17Z</time>
      </trkpt>
      <trkpt lat="47.26623" lon="-1.54461">
        <ele>72</ele>
        <time>2022-05-03T06:55:18Z</time>
      </trkpt>
      <trkpt lat="47.26622" lon="-1.54462">
        <ele>72</ele>
        <time>2022-05-03T06:55:19Z</time>
      </trkpt>
      <trkpt lat="47.2662" lon="-1.54462">
        <ele>72</ele>
        <time>2022-05-03T06:55:20Z</time>
      </trkpt>
      <trkpt lat="47.26619" lon="-1.54463">
        <ele>72</ele>
        <time>2022-05-03T06:55:21Z</time>
      </trkpt>
      <trkpt lat="47.26618" lon="-1.54463">
        <ele>72</ele>
        <time>2022-05-03T06:55:22Z</time>
      </trkpt>
      <trkpt lat="47.26616" lon="-1.54463">
        <ele>71</ele>
        <time>2022-05-03T06:55:23Z</time>
      </trkpt>
      <trkpt lat="47.26615" lon="-1.54464">
        <ele>71</ele>
        <time>2022-05-03T06:55:24Z</time>
      </trkpt>
      <trkpt lat="47.26613" lon="-1.54464">
        <ele>71</ele>
        <time>2022-05-03T06:55:25Z</time>
      </trkpt>
      <trkpt lat="47.26612" lon="-1.54464">
        <ele>71</ele>
        <time>2022-05-03T06:55:26Z</time>
      </trkpt>
      <trkpt lat="47.26611" lon="-1.54465">
        <ele>71</ele>
        <time>2022-05-03T06:55:27Z</time>
      </trkpt>
      <trkpt lat="47.26609" lon="-1.54465">
        <ele>71</ele>
        <time>2022-05-03T06:55:28Z</time>
      </trkpt>
      <trkpt lat="47.26608" lon="-1.54465">
        <ele>71</ele>
        <time>2022-05-03T06:55:29Z</time>
      </trkpt>
      <trkpt lat="47.26607" lon="-1.54466">
        <ele>71</ele>
        <time>2022-05-03T06:55:30Z</time>
      </trkpt>
      <trkpt lat="47.26605" lon="-1.54466">
        <ele>71</ele>
        <time>2022-05-03T06:55:31Z</time>
      </trkpt>
      <trkpt lat="47.26604" lon="-1.54466">
        <ele>71</ele>
        <time>2022-05-03T06:55:32Z</time>
      </trkpt>
      <trkpt lat="47.26602" lon="-1.54466">
        <ele>71</ele>
        <time>2022-05-03T06:55:33Z</time>
      </trkpt>
      <trkpt lat="47.26601" lon="-1.54466">
        <ele>71</ele>
        <time>2022-05-03T06:55:34Z</time>
      </trkpt>
      <trkpt lat="47.266" lon="-1.54465">
        <ele>71</ele>
        <time>2022-05-03T06:55:35Z</time>
      </trkpt>
      <trkpt lat="47.26598" lon="-1.54464">
        <ele>71</ele>
        <time>2022-05-03T06:55:36Z</time>
      </trkpt>
      <trkpt lat="47.26597" lon="-1.54463">
        <ele>72</ele>
        <time>2022-05-03T06:55:37Z</time>
      </trkpt>
      <trkpt lat="47.26595" lon="-1.54462">
        <ele>72</ele>
        <time>2022-05-03T06:55:38Z</time>
      </trkpt>
      <trkpt lat="47.26594" lon="-1.54461">
        <ele>71</ele>
        <time>2022-05-03T06:55:39Z</time>
      </trkpt>
      <trkpt lat="47.26592" lon="-1.54459">
        <ele>71</ele>
        <time>2022-05-03T06:55:40Z</time>
      </trkpt>
      <trkpt lat="47.26591" lon="-1.54458">
        <ele>70</ele>
        <time>2022-05-03T06:55:41Z</time>
      </trkpt>
      <trkpt lat="47.2659" lon="-1.54456">
        <ele>70</ele>
        <time>2022-05-03T06:55:42Z</time>
      </trkpt>
      <trkpt lat="47.26589" lon="-1.54454">
        <ele>71</ele>
        <time>2022-05-03T06:55:43Z</time>
      </trkpt>
      <trkpt lat="47.26588" lon="-1.54453">
        <ele>70</ele>
        <time>2022-05-03T06:55:44Z</time>
      </trkpt>
      <trkpt lat="47.26587" lon="-1.54451">
        <ele>71</ele>
        <time>2022-05-03T06:55:45Z</time>
      </trkpt>
      <trkpt lat="47.26587" lon="-1.5445">
        <ele>71</ele>
        <time>2022-05-03T06:55:46Z</time>
      </trkpt>
      <trkpt lat="47.26586" lon="-1.54448">
        <ele>71</ele>
        <time>2022-05-03T06:55:47Z</time>
      </trkpt>
      <trkpt lat="47.26585" lon="-1.54447">
        <ele>71</ele>
        <time>2022-05-03T06:55:48Z</time>
      </trkpt>
      <trkpt lat="47.26585" lon="-1.54445">
        <ele>70</ele>
        <time>2022-05-03T06:55:49Z</time>
      </trkpt>
      <trkpt lat="47.26585" lon="-1.54444">
        <ele>70</ele>
        <time>2022-05-03T06:55:50Z</time>
      </trkpt>
      <trkpt lat="47.26584" lon="-1.54442">
        <ele>71</ele>
        <time>2022-05-03T06:55:51Z</time>
      </trkpt>
      <trkpt lat="47.26584" lon="-1.5444">
        <ele>71</ele>
        <time>2022-05-03T06:55:52Z</time>
      </trkpt>
      <trkpt lat="47.26583" lon="-1.54438">
        <ele>71</ele>
        <time>2022-05-03T06:55:53Z</time>
      </trkpt>
      <trkpt lat="47.26583" lon="-1.54436">
        <ele>71</ele>
        <time>2022-05-03T06:55:54Z</time>
      </trkpt>
      <trkpt lat="47.26583" lon="-1.54434">
        <ele>71</ele>
        <time>2022-05-03T06:55:55Z</time>
      </trkpt>
      <trkpt lat="47.26583" lon="-1.54433">
        <ele>71</ele>
        <time>2022-05-03T06:55:56Z</time>
      </trkpt>
      <trkpt lat="47.26582" lon="-1.54431">
        <ele>71</ele>
        <time>2022-05-03T06:55:57Z</time>
      </trkpt>
      <trkpt lat="47.26582" lon="-1.54429">
        <ele>71</ele>
        <time>2022-05-03T06:55:58Z</time>
      </trkpt>
      <trkpt lat="47.26581" lon="-1.54428">
        <ele>71</ele>
        <time>2022-05-03T06:55:59Z</time>
      </trkpt>
      <trkpt lat="47.26581" lon="-1.54425">
        <ele>71</ele>
        <time>2022-05-03T06:56:00Z</time>
      </trkpt>
      <trkpt lat="47.26581" lon="-1.54423">
        <ele>71</ele>
        <time>2022-05-03T06:56:01Z</time>
      </trkpt>
      <trkpt lat="47.26581" lon="-1.54421">
        <ele>71</ele>
        <time>2022-05-03T06:56:02Z</time>
      </trkpt>
      <trkpt lat="47.26581" lon="-1.54419">
        <ele>72</ele>
        <time>2022-05-03T06:56:03Z</time>
      </trkpt>
      <trkpt lat="47.26581" lon="-1.54417">
        <ele>72</ele>
        <time>2022-05-03T06:56:04Z</time>
      </trkpt>
      <trkpt lat="47.2658" lon="-1.54415">
        <ele>72</ele>
        <time>2022-05-03T06:56:05Z</time>
      </trkpt>
      <trkpt lat="47.2658" lon="-1.54413">
        <ele>72</ele>
        <time>2022-05-03T06:56:06Z</time>
      </trkpt>
      <trkpt lat="47.26579" lon="-1.54412">
        <ele>71</ele>
        <time>2022-05-03T06:56:07Z</time>
      </trkpt>
      <trkpt lat="47.26579" lon="-1.5441">
        <ele>72</ele>
        <time>2022-05-03T06:56:08Z</time>
      </trkpt>
      <trkpt lat="47.26579" lon="-1.54408">
        <ele>72</ele>
        <time>2022-05-03T06:56:09Z</time>
      </trkpt>
      <trkpt lat="47.26578" lon="-1.54406">
        <ele>71</ele>
        <time>2022-05-03T06:56:10Z</time>
      </trkpt>
      <trkpt lat="47.26578" lon="-1.54404">
        <ele>71</ele>
        <time>2022-05-03T06:56:11Z</time>
      </trkpt>
      <trkpt lat="47.26577" lon="-1.54403">
        <ele>71</ele>
        <time>2022-05-03T06:56:12Z</time>
      </trkpt>
      <trkpt lat="47.26577" lon="-1.54402">
        <ele>71</ele>
        <time>2022-05-03T06:56:13Z</time>
      </trkpt>
      <trkpt lat="47.26577" lon="-1.544">
        <ele>71</ele>
        <time>2022-05-03T06:56:14Z</time>
      </trkpt>
      <trkpt lat="47.26577" lon="-1.54398">
        <ele>71</ele>
        <time>2022-05-03T06:56:15Z</time>
      </trkpt>
      <trkpt lat="47.26577" lon="-1.54397">
        <ele>71</ele>
        <time>2022-05-03T06:56:16Z</time>
      </trkpt>
      <trkpt lat="47.26577" lon="-1.54396">
        <ele>71</ele>
        <time>2022-05-03T06:56:17Z</time>
      </trkpt>
      <trkpt lat="47.26578" lon="-1.54394">
        <ele>70</ele>
        <time>2022-05-03T06:56:18Z</time>
      </trkpt>
      <trkpt lat="47.26578" lon="-1.54393">
        <ele>70</ele>
        <time>2022-05-03T06:56:19Z</time>
      </trkpt>
      <trkpt lat="47.26579" lon="-1.54391">
        <ele>70</ele>
        <time>2022-05-03T06:56:20Z</time>
      </trkpt>
      <trkpt lat="47.2658" lon="-1.5439">
        <ele>71</ele>
        <time>2022-05-03T06:56:21Z</time>
      </trkpt>
      <trkpt lat="47.2658" lon="-1.54388">
        <ele>71</ele>
        <time>2022-05-03T06:56:22Z</time>
      </trkpt>
      <trkpt lat="47.26581" lon="-1.54387">
        <ele>71</ele>
        <time>2022-05-03T06:56:23Z</time>
      </trkpt>
      <trkpt lat="47.26582" lon="-1.54386">
        <ele>72</ele>
        <time>2022-05-03T06:56:24Z</time>
      </trkpt>
      <trkpt lat="47.26583" lon="-1.54385">
        <ele>72</ele>
        <time>2022-05-03T06:56:25Z</time>
      </trkpt>
      <trkpt lat="47.26584" lon="-1.54385">
        <ele>72</ele>
        <time>2022-05-03T06:56:26Z</time>
      </trkpt>
      <trkpt lat="47.26585" lon="-1.54384">
        <ele>73</ele>
        <time>2022-05-03T06:56:27Z</time>
      </trkpt>
      <trkpt lat="47.26585" lon="-1.54384">
        <ele>73</ele>
        <time>2022-05-03T06:56:28Z</time>
      </trkpt>
      <trkpt lat="47.26587" lon="-1.54384">
        <ele>73</ele>
        <time>2022-05-03T06:56:29Z</time>
      </trkpt>
      <trkpt lat="47.26588" lon="-1.54383">
        <ele>73</ele>
        <time>2022-05-03T06:56:30Z</time>
      </trkpt>
      <trkpt lat="47.26589" lon="-1.54383">
        <ele>73</ele>
        <time>2022-05-03T06:56:31Z</time>
      </trkpt>
      <trkpt lat="47.2659" lon="-1.54383">
        <ele>73</ele>
        <time>2022-05-03T06:56:32Z</time>
      </trkpt>
      <trkpt lat="47.2659" lon="-1.54383">
        <ele>74</ele>
        <time>2022-05-03T06:56:33Z</time>
      </trkpt>
      <trkpt lat="47.26592" lon="-1.54383">
        <ele>74</ele>
        <time>2022-05-03T06:56:34Z</time>
      </trkpt>
      <trkpt lat="47.26592" lon="-1.54382">
        <ele>74</ele>
        <time>2022-05-03T06:56:35Z</time>
      </trkpt>
      <trkpt lat="47.26593" lon="-1.54382">
        <ele>74</ele>
        <time>2022-05-03T06:56:36Z</time>
      </trkpt>
      <trkpt lat="47.26595" lon="-1.54382">
        <ele>74</ele>
        <time>2022-05-03T06:56:37Z</time>
      </trkpt>
      <trkpt lat="47.26595" lon="-1.54382">
        <ele>75</ele>
        <time>2022-05-03T06:56:38Z</time>
      </trkpt>
      <trkpt lat="47.26597" lon="-1.54382">
        <ele>75</ele>
        <time>2022-05-03T06:56:39Z</time>
      </trkpt>
      <trkpt lat="47.26598" lon="-1.54381">
        <ele>76</ele>
        <time>2022-05-03T06:56:40Z</time>
      </trkpt>
      <trkpt lat="47.26599" lon="-1.54381">
        <ele>76</ele>
        <time>2022-05-03T06:56:41Z</time>
      </trkpt>
      <trkpt lat="47.266" lon="-1.54381">
        <ele>76</ele>
        <time>2022-05-03T06:56:42Z</time>
      </trkpt>
      <trkpt lat="47.26601" lon="-1.54381">
        <ele>77</ele>
        <time>2022-05-03T06:56:43Z</time>
      </trkpt>
      <trkpt lat="47.26602" lon="-1.54381">
        <ele>77</ele>
        <time>2022-05-03T06:56:44Z</time>
      </trkpt>
      <trkpt lat="47.26603" lon="-1.54381">
        <ele>77</ele>
        <time>2022-05-03T06:56:45Z</time>
      </trkpt>
      <trkpt lat="47.26605" lon="-1.54381">
        <ele>77</ele>
        <time>2022-05-03T06:56:46Z</time>
      </trkpt>
      <trkpt lat="47.26606" lon="-1.54381">
        <ele>76</ele>
        <time>2022-05-03T06:56:47Z</time>
      </trkpt>
      <trkpt lat="47.26607" lon="-1.5438">
        <ele>76</ele>
        <time>2022-05-03T06:56:48Z</time>
      </trkpt>
      <trkpt lat="47.26608" lon="-1.54379">
        <ele>77</ele>
        <time>2022-05-03T06:56:49Z</time>
      </trkpt>
      <trkpt lat="47.2661" lon="-1.54378">
        <ele>77</ele>
        <time>2022-05-03T06:56:50Z</time>
      </trkpt>
      <trkpt lat="47.26612" lon="-1.54377">
        <ele>77</ele>
        <time>2022-05-03T06:56:51Z</time>
      </trkpt>
      <trkpt lat="47.26614" lon="-1.54376">
        <ele>78</ele>
        <time>2022-05-03T06:56:52Z</time>
      </trkpt>
      <trkpt lat="47.26615" lon="-1.54375">
        <ele>78</ele>
        <time>2022-05-03T06:56:53Z</time>
      </trkpt>
      <trkpt lat="47.26616" lon="-1.54374">
        <ele>78</ele>
        <time>2022-05-03T06:56:54Z</time>
      </trkpt>
      <trkpt lat="47.26617" lon="-1.54372">
        <ele>78</ele>
        <time>2022-05-03T06:56:55Z</time>
      </trkpt>
      <trkpt lat="47.26619" lon="-1.54372">
        <ele>79</ele>
        <time>2022-05-03T06:56:56Z</time>
      </trkpt>
      <trkpt lat="47.2662" lon="-1.5437">
        <ele>79</ele>
        <time>2022-05-03T06:56:57Z</time>
      </trkpt>
      <trkpt lat="47.26621" lon="-1.54369">
        <ele>78</ele>
        <time>2022-05-03T06:56:58Z</time>
      </trkpt>
      <trkpt lat="47.26623" lon="-1.54367">
        <ele>78</ele>
        <time>2022-05-03T06:56:59Z</time>
      </trkpt>
      <trkpt lat="47.26624" lon="-1.54365">
        <ele>77</ele>
        <time>2022-05-03T06:57:00Z</time>
      </trkpt>
      <trkpt lat="47.26624" lon="-1.54364">
        <ele>77</ele>
        <time>2022-05-03T06:57:01Z</time>
      </trkpt>
      <trkpt lat="47.26625" lon="-1.54362">
        <ele>77</ele>
        <time>2022-05-03T06:57:02Z</time>
      </trkpt>
      <trkpt lat="47.26625" lon="-1.5436">
        <ele>76</ele>
        <time>2022-05-03T06:57:03Z</time>
      </trkpt>
      <trkpt lat="47.26626" lon="-1.54358">
        <ele>76</ele>
        <time>2022-05-03T06:57:04Z</time>
      </trkpt>
      <trkpt lat="47.26627" lon="-1.54356">
        <ele>77</ele>
        <time>2022-05-03T06:57:05Z</time>
      </trkpt>
      <trkpt lat="47.26627" lon="-1.54355">
        <ele>77</ele>
        <time>2022-05-03T06:57:06Z</time>
      </trkpt>
      <trkpt lat="47.26628" lon="-1.54353">
        <ele>77</ele>
        <time>2022-05-03T06:57:07Z</time>
      </trkpt>
      <trkpt lat="47.26629" lon="-1.54352">
        <ele>77</ele>
        <time>2022-05-03T06:57:08Z</time>
      </trkpt>
      <trkpt lat="47.26629" lon="-1.54351">
        <ele>76</ele>
        <time>2022-05-03T06:57:09Z</time>
      </trkpt>
      <trkpt lat="47.26629" lon="-1.54349">
        <ele>76</ele>
        <time>2022-05-03T06:57:10Z</time>
      </trkpt>
      <trkpt lat="47.26629" lon="-1.54346">
        <ele>76</ele>
        <time>2022-05-03T06:57:11Z</time>
      </trkpt>
      <trkpt lat="47.26629" lon="-1.54344">
        <ele>76</ele>
        <time>2022-05-03T06:57:12Z</time>
      </trkpt>
      <trkpt lat="47.26629" lon="-1.54342">
        <ele>76</ele>
        <time>2022-05-03T06:57:13Z</time>
      </trkpt>
      <trkpt lat="47.26629" lon="-1.5434">
        <ele>76</ele>
        <time>2022-05-03T06:57:14Z</time>
      </trkpt>
      <trkpt lat="47.26629" lon="-1.54338">
        <ele>75</ele>
        <time>2022-05-03T06:57:15Z</time>
      </trkpt>
      <trkpt lat="47.26629" lon="-1.54336">
        <ele>75</ele>
        <time>2022-05-03T06:57:16Z</time>
      </trkpt>
      <trkpt lat="47.26628" lon="-1.54334">
        <ele>75</ele>
        <time>2022-05-03T06:57:17Z</time>
      </trkpt>
      <trkpt lat="47.26628" lon="-1.54332">
        <ele>75</ele>
        <time>2022-05-03T06:57:18Z</time>
      </trkpt>
      <trkpt lat="47.26628" lon="-1.5433">
        <ele>75</ele>
        <time>2022-05-03T06:57:19Z</time>
      </trkpt>
      <trkpt lat="47.26627" lon="-1.54328">
        <ele>75</ele>
        <time>2022-05-03T06:57:20Z</time>
      </trkpt>
      <trkpt lat="47.26627" lon="-1.54326">
        <ele>74</ele>
        <time>2022-05-03T06:57:21Z</time>
      </trkpt>
      <trkpt lat="47.26627" lon="-1.54325">
        <ele>74</ele>
        <time>2022-05-03T06:57:22Z</time>
      </trkpt>
      <trkpt lat="47.26627" lon="-1.54322">
        <ele>73</ele>
        <time>2022-05-03T06:57:23Z</time>
      </trkpt>
      <trkpt lat="47.26627" lon="-1.5432">
        <ele>73</ele>
        <time>2022-05-03T06:57:24Z</time>
      </trkpt>
      <trkpt lat="47.26627" lon="-1.54318">
        <ele>73</ele>
        <time>2022-05-03T06:57:25Z</time>
      </trkpt>
      <trkpt lat="47.26627" lon="-1.54316">
        <ele>73</ele>
        <time>2022-05-03T06:57:26Z</time>
      </trkpt>
      <trkpt lat="47.26626" lon="-1.54315">
        <ele>73</ele>
        <time>2022-05-03T06:57:27Z</time>
      </trkpt>
      <trkpt lat="47.26626" lon="-1.54313">
        <ele>73</ele>
        <time>2022-05-03T06:57:28Z</time>
      </trkpt>
      <trkpt lat="47.26625" lon="-1.54311">
        <ele>73</ele>
        <time>2022-05-03T06:57:29Z</time>
      </trkpt>
      <trkpt lat="47.26625" lon="-1.54309">
        <ele>73</ele>
        <time>2022-05-03T06:57:30Z</time>
      </trkpt>
      <trkpt lat="47.26624" lon="-1.54307">
        <ele>73</ele>
        <time>2022-05-03T06:57:31Z</time>
      </trkpt>
      <trkpt lat="47.26624" lon="-1.54306">
        <ele>73</ele>
        <time>2022-05-03T06:57:32Z</time>
      </trkpt>
      <trkpt lat="47.26624" lon="-1.54303">
        <ele>73</ele>
        <time>2022-05-03T06:57:33Z</time>
      </trkpt>
      <trkpt lat="47.26623" lon="-1.54302">
        <ele>73</ele>
        <time>2022-05-03T06:57:34Z</time>
      </trkpt>
      <trkpt lat="47.26622" lon="-1.543">
        <ele>73</ele>
        <time>2022-05-03T06:57:35Z</time>
      </trkpt>
      <trkpt lat="47.26622" lon="-1.54298">
        <ele>73</ele>
        <time>2022-05-03T06:57:36Z</time>
      </trkpt>
      <trkpt lat="47.26621" lon="-1.54296">
        <ele>73</ele>
        <time>2022-05-03T06:57:37Z</time>
      </trkpt>
      <trkpt lat="47.26621" lon="-1.54295">
        <ele>73</ele>
        <time>2022-05-03T06:57:38Z</time>
      </trkpt>
      <trkpt lat="47.2662" lon="-1.54293">
        <ele>73</ele>
        <time>2022-05-03T06:57:39Z</time>
      </trkpt>
      <trkpt lat="47.26619" lon="-1.54291">
        <ele>73</ele>
        <time>2022-05-03T06:57:40Z</time>
      </trkpt>
      <trkpt lat="47.26618" lon="-1.54289">
        <ele>73</ele>
        <time>2022-05-03T06:57:41Z</time>
      </trkpt>
      <trkpt lat="47.26617" lon="-1.54286">
        <ele>73</ele>
        <time>2022-05-03T06:57:42Z</time>
      </trkpt>
      <trkpt lat="47.26617" lon="-1.54284">
        <ele>72</ele>
        <time>2022-05-03T06:57:43Z</time>
      </trkpt>
      <trkpt lat="47.26616" lon="-1.54282">
        <ele>72</ele>
        <time>2022-05-03T06:57:44Z</time>
      </trkpt>
      <trkpt lat="47.26616" lon="-1.54279">
        <ele>71</ele>
        <time>2022-05-03T06:57:45Z</time>
      </trkpt>
      <trkpt lat="47.26615" lon="-1.54277">
        <ele>71</ele>
        <time>2022-05-03T06:57:46Z</time>
      </trkpt>
      <trkpt lat="47.26614" lon="-1.54275">
        <ele>70</ele>
        <time>2022-05-03T06:57:47Z</time>
      </trkpt>
      <trkpt lat="47.26614" lon="-1.54273">
        <ele>70</ele>
        <time>2022-05-03T06:57:48Z</time>
      </trkpt>
      <trkpt lat="47.26613" lon="-1.54272">
        <ele>70</ele>
        <time>2022-05-03T06:57:49Z</time>
      </trkpt>
      <trkpt lat="47.26612" lon="-1.5427">
        <ele>70</ele>
        <time>2022-05-03T06:57:50Z</time>
      </trkpt>
      <trkpt lat="47.26611" lon="-1.54269">
        <ele>70</ele>
        <time>2022-05-03T06:57:51Z</time>
      </trkpt>
      <trkpt lat="47.2661" lon="-1.54267">
        <ele>70</ele>
        <time>2022-05-03T06:57:52Z</time>
      </trkpt>
      <trkpt lat="47.26609" lon="-1.54265">
        <ele>70</ele>
        <time>2022-05-03T06:57:53Z</time>
      </trkpt>
      <trkpt lat="47.26608" lon="-1.54264">
        <ele>70</ele>
        <time>2022-05-03T06:57:54Z</time>
      </trkpt>
      <trkpt lat="47.26607" lon="-1.54262">
        <ele>69</ele>
        <time>2022-05-03T06:57:55Z</time>
      </trkpt>
      <trkpt lat="47.26606" lon="-1.5426">
        <ele>69</ele>
        <time>2022-05-03T06:57:56Z</time>
      </trkpt>
      <trkpt lat="47.26606" lon="-1.54258">
        <ele>69</ele>
        <time>2022-05-03T06:57:57Z</time>
      </trkpt>
      <trkpt lat="47.26606" lon="-1.54256">
        <ele>69</ele>
        <time>2022-05-03T06:57:58Z</time>
      </trkpt>
      <trkpt lat="47.26605" lon="-1.54254">
        <ele>69</ele>
        <time>2022-05-03T06:57:59Z</time>
      </trkpt>
      <trkpt lat="47.26605" lon="-1.54252">
        <ele>69</ele>
        <time>2022-05-03T06:58:00Z</time>
      </trkpt>
      <trkpt lat="47.26604" lon="-1.5425">
        <ele>69</ele>
        <time>2022-05-03T06:58:01Z</time>
      </trkpt>
      <trkpt lat="47.26603" lon="-1.54248">
        <ele>69</ele>
        <time>2022-05-03T06:58:02Z</time>
      </trkpt>
      <trkpt lat="47.26603" lon="-1.54246">
        <ele>69</ele>
        <time>2022-05-03T06:58:03Z</time>
      </trkpt>
      <trkpt lat="47.26602" lon="-1.54245">
        <ele>69</ele>
        <time>2022-05-03T06:58:04Z</time>
      </trkpt>
      <trkpt lat="47.26601" lon="-1.54243">
        <ele>69</ele>
        <time>2022-05-03T06:58:05Z</time>
      </trkpt>
      <trkpt lat="47.266" lon="-1.54242">
        <ele>69</ele>
        <time>2022-05-03T06:58:06Z</time>
      </trkpt>
      <trkpt lat="47.26599" lon="-1.5424">
        <ele>69</ele>
        <time>2022-05-03T06:58:07Z</time>
      </trkpt>
      <trkpt lat="47.26599" lon="-1.54239">
        <ele>69</ele>
        <time>2022-05-03T06:58:08Z</time>
      </trkpt>
      <trkpt lat="47.26598" lon="-1.54237">
        <ele>69</ele>
        <time>2022-05-03T06:58:09Z</time>
      </trkpt>
      <trkpt lat="47.26598" lon="-1.54235">
        <ele>69</ele>
        <time>2022-05-03T06:58:10Z</time>
      </trkpt>
      <trkpt lat="47.26597" lon="-1.54234">
        <ele>69</ele>
        <time>2022-05-03T06:58:11Z</time>
      </trkpt>
      <trkpt lat="47.26597" lon="-1.54232">
        <ele>69</ele>
        <time>2022-05-03T06:58:12Z</time>
      </trkpt>
      <trkpt lat="47.26595" lon="-1.5423">
        <ele>69</ele>
        <time>2022-05-03T06:58:13Z</time>
      </trkpt>
      <trkpt lat="47.26595" lon="-1.54228">
        <ele>69</ele>
        <time>2022-05-03T06:58:14Z</time>
      </trkpt>
      <trkpt lat="47.26595" lon="-1.54227">
        <ele>68</ele>
        <time>2022-05-03T06:58:15Z</time>
      </trkpt>
      <trkpt lat="47.26594" lon="-1.54225">
        <ele>68</ele>
        <time>2022-05-03T06:58:16Z</time>
      </trkpt>
      <trkpt lat="47.26593" lon="-1.54224">
        <ele>68</ele>
        <time>2022-05-03T06:58:17Z</time>
      </trkpt>
      <trkpt lat="47.26592" lon="-1.54222">
        <ele>67</ele>
        <time>2022-05-03T06:58:18Z</time>
      </trkpt>
      <trkpt lat="47.26591" lon="-1.5422">
        <ele>67</ele>
        <time>2022-05-03T06:58:19Z</time>
      </trkpt>
      <trkpt lat="47.2659" lon="-1.54218">
        <ele>67</ele>
        <time>2022-05-03T06:58:20Z</time>
      </trkpt>
      <trkpt lat="47.2659" lon="-1.54216">
        <ele>68</ele>
        <time>2022-05-03T06:58:21Z</time>
      </trkpt>
      <trkpt lat="47.2659" lon="-1.54214">
        <ele>68</ele>
        <time>2022-05-03T06:58:22Z</time>
      </trkpt>
      <trkpt lat="47.26589" lon="-1.54212">
        <ele>67</ele>
        <time>2022-05-03T06:58:23Z</time>
      </trkpt>
      <trkpt lat="47.26588" lon="-1.54211">
        <ele>67</ele>
        <time>2022-05-03T06:58:24Z</time>
      </trkpt>
      <trkpt lat="47.26588" lon="-1.54209">
        <ele>67</ele>
        <time>2022-05-03T06:58:25Z</time>
      </trkpt>
      <trkpt lat="47.26587" lon="-1.54207">
        <ele>66</ele>
        <time>2022-05-03T06:58:26Z</time>
      </trkpt>
      <trkpt lat="47.26587" lon="-1.54205">
        <ele>67</ele>
        <time>2022-05-03T06:58:27Z</time>
      </trkpt>
      <trkpt lat="47.26586" lon="-1.54203">
        <ele>67</ele>
        <time>2022-05-03T06:58:28Z</time>
      </trkpt>
      <trkpt lat="47.26585" lon="-1.54202">
        <ele>67</ele>
        <time>2022-05-03T06:58:29Z</time>
      </trkpt>
      <trkpt lat="47.26584" lon="-1.542">
        <ele>67</ele>
        <time>2022-05-03T06:58:30Z</time>
      </trkpt>
      <trkpt lat="47.26584" lon="-1.54199">
        <ele>67</ele>
        <time>2022-05-03T06:58:31Z</time>
      </trkpt>
      <trkpt lat="47.26583" lon="-1.54197">
        <ele>67</ele>
        <time>2022-05-03T06:58:32Z</time>
      </trkpt>
      <trkpt lat="47.26582" lon="-1.54196">
        <ele>67</ele>
        <time>2022-05-03T06:58:33Z</time>
      </trkpt>
      <trkpt lat="47.26582" lon="-1.54196">
        <ele>67</ele>
        <time>2022-05-03T06:58:34Z</time>
      </trkpt>
      <trkpt lat="47.26581" lon="-1.54195">
        <ele>67</ele>
        <time>2022-05-03T06:58:35Z</time>
      </trkpt>
      <trkpt lat="47.26581" lon="-1.54194">
        <ele>67</ele>
        <time>2022-05-03T06:58:36Z</time>
      </trkpt>
      <trkpt lat="47.26581" lon="-1.54194">
        <ele>67</ele>
        <time>2022-05-03T06:58:37Z</time>
      </trkpt>
      <trkpt lat="47.26579" lon="-1.54191">
        <ele>67</ele>
        <time>2022-05-03T06:58:38Z</time>
      </trkpt>
      <trkpt lat="47.26579" lon="-1.5419">
        <ele>67</ele>
        <time>2022-05-03T06:58:39Z</time>
      </trkpt>
      <trkpt lat="47.26578" lon="-1.54188">
        <ele>67</ele>
        <time>2022-05-03T06:58:40Z</time>
      </trkpt>
      <trkpt lat="47.26577" lon="-1.54186">
        <ele>68</ele>
        <time>2022-05-03T06:58:41Z</time>
      </trkpt>
      <trkpt lat="47.26576" lon="-1.54184">
        <ele>68</ele>
        <time>2022-05-03T06:58:42Z</time>
      </trkpt>
      <trkpt lat="47.26576" lon="-1.54182">
        <ele>68</ele>
        <time>2022-05-03T06:58:43Z</time>
      </trkpt>
      <trkpt lat="47.26574" lon="-1.54181">
        <ele>67</ele>
        <time>2022-05-03T06:58:44Z</time>
      </trkpt>
      <trkpt lat="47.26574" lon="-1.54179">
        <ele>67</ele>
        <time>2022-05-03T06:58:45Z</time>
      </trkpt>
      <trkpt lat="47.26573" lon="-1.54177">
        <ele>67</ele>
        <time>2022-05-03T06:58:46Z</time>
      </trkpt>
      <trkpt lat="47.26572" lon="-1.54175">
        <ele>67</ele>
        <time>2022-05-03T06:58:47Z</time>
      </trkpt>
      <trkpt lat="47.26571" lon="-1.54173">
        <ele>67</ele>
        <time>2022-05-03T06:58:48Z</time>
      </trkpt>
      <trkpt lat="47.2657" lon="-1.5417">
        <ele>67</ele>
        <time>2022-05-03T06:58:49Z</time>
      </trkpt>
      <trkpt lat="47.2657" lon="-1.54168">
        <ele>67</ele>
        <time>2022-05-03T06:58:50Z</time>
      </trkpt>
      <trkpt lat="47.26569" lon="-1.54166">
        <ele>67</ele>
        <time>2022-05-03T06:58:51Z</time>
      </trkpt>
      <trkpt lat="47.26568" lon="-1.54164">
        <ele>66</ele>
        <time>2022-05-03T06:58:52Z</time>
      </trkpt>
      <trkpt lat="47.26567" lon="-1.54162">
        <ele>66</ele>
        <time>2022-05-03T06:58:53Z</time>
      </trkpt>
      <trkpt lat="47.26566" lon="-1.5416">
        <ele>66</ele>
        <time>2022-05-03T06:58:54Z</time>
      </trkpt>
      <trkpt lat="47.26565" lon="-1.54158">
        <ele>66</ele>
        <time>2022-05-03T06:58:55Z</time>
      </trkpt>
      <trkpt lat="47.26564" lon="-1.54157">
        <ele>65</ele>
        <time>2022-05-03T06:58:56Z</time>
      </trkpt>
      <trkpt lat="47.26563" lon="-1.54155">
        <ele>65</ele>
        <time>2022-05-03T06:58:57Z</time>
      </trkpt>
      <trkpt lat="47.26561" lon="-1.54153">
        <ele>65</ele>
        <time>2022-05-03T06:58:58Z</time>
      </trkpt>
      <trkpt lat="47.2656" lon="-1.54152">
        <ele>65</ele>
        <time>2022-05-03T06:58:59Z</time>
      </trkpt>
      <trkpt lat="47.26559" lon="-1.5415">
        <ele>65</ele>
        <time>2022-05-03T06:59:00Z</time>
      </trkpt>
      <trkpt lat="47.26558" lon="-1.54149">
        <ele>65</ele>
        <time>2022-05-03T06:59:01Z</time>
      </trkpt>
      <trkpt lat="47.26557" lon="-1.54147">
        <ele>65</ele>
        <time>2022-05-03T06:59:02Z</time>
      </trkpt>
      <trkpt lat="47.26556" lon="-1.54146">
        <ele>65</ele>
        <time>2022-05-03T06:59:03Z</time>
      </trkpt>
      <trkpt lat="47.26555" lon="-1.54144">
        <ele>65</ele>
        <time>2022-05-03T06:59:04Z</time>
      </trkpt>
      <trkpt lat="47.26554" lon="-1.54142">
        <ele>64</ele>
        <time>2022-05-03T06:59:05Z</time>
      </trkpt>
      <trkpt lat="47.26553" lon="-1.54139">
        <ele>64</ele>
        <time>2022-05-03T06:59:06Z</time>
      </trkpt>
      <trkpt lat="47.26552" lon="-1.54138">
        <ele>64</ele>
        <time>2022-05-03T06:59:07Z</time>
      </trkpt>
      <trkpt lat="47.26551" lon="-1.54136">
        <ele>63</ele>
        <time>2022-05-03T06:59:08Z</time>
      </trkpt>
      <trkpt lat="47.2655" lon="-1.54133">
        <ele>63</ele>
        <time>2022-05-03T06:59:09Z</time>
      </trkpt>
      <trkpt lat="47.26549" lon="-1.54132">
        <ele>63</ele>
        <time>2022-05-03T06:59:10Z</time>
      </trkpt>
      <trkpt lat="47.26548" lon="-1.5413">
        <ele>63</ele>
        <time>2022-05-03T06:59:11Z</time>
      </trkpt>
      <trkpt lat="47.26548" lon="-1.54128">
        <ele>63</ele>
        <time>2022-05-03T06:59:12Z</time>
      </trkpt>
      <trkpt lat="47.26547" lon="-1.54126">
        <ele>63</ele>
        <time>2022-05-03T06:59:13Z</time>
      </trkpt>
      <trkpt lat="47.26546" lon="-1.54124">
        <ele>63</ele>
        <time>2022-05-03T06:59:14Z</time>
      </trkpt>
      <trkpt lat="47.26545" lon="-1.54122">
        <ele>62</ele>
        <time>2022-05-03T06:59:15Z</time>
      </trkpt>
      <trkpt lat="47.26544" lon="-1.5412">
        <ele>62</ele>
        <time>2022-05-03T06:59:16Z</time>
      </trkpt>
      <trkpt lat="47.26543" lon="-1.54118">
        <ele>62</ele>
        <time>2022-05-03T06:59:17Z</time>
      </trkpt>
      <trkpt lat="47.26542" lon="-1.54117">
        <ele>61</ele>
        <time>2022-05-03T06:59:18Z</time>
      </trkpt>
      <trkpt lat="47.26541" lon="-1.54116">
        <ele>62</ele>
        <time>2022-05-03T06:59:19Z</time>
      </trkpt>
      <trkpt lat="47.2654" lon="-1.54115">
        <ele>61</ele>
        <time>2022-05-03T06:59:20Z</time>
      </trkpt>
      <trkpt lat="47.2654" lon="-1.54114">
        <ele>61</ele>
        <time>2022-05-03T06:59:21Z</time>
      </trkpt>
      <trkpt lat="47.26539" lon="-1.54112">
        <ele>61</ele>
        <time>2022-05-03T06:59:22Z</time>
      </trkpt>
      <trkpt lat="47.26538" lon="-1.54111">
        <ele>61</ele>
        <time>2022-05-03T06:59:23Z</time>
      </trkpt>
      <trkpt lat="47.26537" lon="-1.54109">
        <ele>61</ele>
        <time>2022-05-03T06:59:24Z</time>
      </trkpt>
      <trkpt lat="47.26536" lon="-1.54108">
        <ele>61</ele>
        <time>2022-05-03T06:59:25Z</time>
      </trkpt>
      <trkpt lat="47.26536" lon="-1.54106">
        <ele>61</ele>
        <time>2022-05-03T06:59:26Z</time>
      </trkpt>
      <trkpt lat="47.26535" lon="-1.54104">
        <ele>61</ele>
        <time>2022-05-03T06:59:27Z</time>
      </trkpt>
      <trkpt lat="47.26534" lon="-1.54102">
        <ele>61</ele>
        <time>2022-05-03T06:59:28Z</time>
      </trkpt>
      <trkpt lat="47.26534" lon="-1.54099">
        <ele>61</ele>
        <time>2022-05-03T06:59:29Z</time>
      </trkpt>
      <trkpt lat="47.26534" lon="-1.54097">
        <ele>61</ele>
        <time>2022-05-03T06:59:30Z</time>
      </trkpt>
      <trkpt lat="47.26534" lon="-1.54095">
        <ele>60</ele>
        <time>2022-05-03T06:59:31Z</time>
      </trkpt>
      <trkpt lat="47.26533" lon="-1.54093">
        <ele>60</ele>
        <time>2022-05-03T06:59:32Z</time>
      </trkpt>
      <trkpt lat="47.26532" lon="-1.54091">
        <ele>59</ele>
        <time>2022-05-03T06:59:33Z</time>
      </trkpt>
      <trkpt lat="47.26532" lon="-1.54089">
        <ele>59</ele>
        <time>2022-05-03T06:59:34Z</time>
      </trkpt>
      <trkpt lat="47.26531" lon="-1.54087">
        <ele>59</ele>
        <time>2022-05-03T06:59:35Z</time>
      </trkpt>
      <trkpt lat="47.26531" lon="-1.54085">
        <ele>58</ele>
        <time>2022-05-03T06:59:36Z</time>
      </trkpt>
      <trkpt lat="47.2653" lon="-1.54083">
        <ele>58</ele>
        <time>2022-05-03T06:59:37Z</time>
      </trkpt>
      <trkpt lat="47.26529" lon="-1.54081">
        <ele>58</ele>
        <time>2022-05-03T06:59:38Z</time>
      </trkpt>
      <trkpt lat="47.26528" lon="-1.5408">
        <ele>57</ele>
        <time>2022-05-03T06:59:39Z</time>
      </trkpt>
      <trkpt lat="47.26527" lon="-1.54078">
        <ele>57</ele>
        <time>2022-05-03T06:59:40Z</time>
      </trkpt>
      <trkpt lat="47.26526" lon="-1.54076">
        <ele>57</ele>
        <time>2022-05-03T06:59:41Z</time>
      </trkpt>
      <trkpt lat="47.26526" lon="-1.54075">
        <ele>57</ele>
        <time>2022-05-03T06:59:42Z</time>
      </trkpt>
      <trkpt lat="47.26525" lon="-1.54073">
        <ele>57</ele>
        <time>2022-05-03T06:59:43Z</time>
      </trkpt>
      <trkpt lat="47.26524" lon="-1.54071">
        <ele>57</ele>
        <time>2022-05-03T06:59:44Z</time>
      </trkpt>
      <trkpt lat="47.26523" lon="-1.54069">
        <ele>56</ele>
        <time>2022-05-03T06:59:45Z</time>
      </trkpt>
      <trkpt lat="47.26522" lon="-1.54067">
        <ele>56</ele>
        <time>2022-05-03T06:59:46Z</time>
      </trkpt>
      <trkpt lat="47.26521" lon="-1.54066">
        <ele>56</ele>
        <time>2022-05-03T06:59:47Z</time>
      </trkpt>
      <trkpt lat="47.26521" lon="-1.54064">
        <ele>56</ele>
        <time>2022-05-03T06:59:48Z</time>
      </trkpt>
      <trkpt lat="47.2652" lon="-1.54062">
        <ele>56</ele>
        <time>2022-05-03T06:59:49Z</time>
      </trkpt>
      <trkpt lat="47.26519" lon="-1.5406">
        <ele>55</ele>
        <time>2022-05-03T06:59:50Z</time>
      </trkpt>
      <trkpt lat="47.26518" lon="-1.54058">
        <ele>55</ele>
        <time>2022-05-03T06:59:51Z</time>
      </trkpt>
      <trkpt lat="47.26517" lon="-1.54057">
        <ele>55</ele>
        <time>2022-05-03T06:59:52Z</time>
      </trkpt>
      <trkpt lat="47.26516" lon="-1.54055">
        <ele>54</ele>
        <time>2022-05-03T06:59:53Z</time>
      </trkpt>
      <trkpt lat="47.26516" lon="-1.54053">
        <ele>54</ele>
        <time>2022-05-03T06:59:54Z</time>
      </trkpt>
      <trkpt lat="47.26514" lon="-1.54052">
        <ele>54</ele>
        <time>2022-05-03T06:59:55Z</time>
      </trkpt>
      <trkpt lat="47.26513" lon="-1.54051">
        <ele>54</ele>
        <time>2022-05-03T06:59:56Z</time>
      </trkpt>
      <trkpt lat="47.26513" lon="-1.5405">
        <ele>54</ele>
        <time>2022-05-03T06:59:57Z</time>
      </trkpt>
      <trkpt lat="47.26512" lon="-1.54048">
        <ele>54</ele>
        <time>2022-05-03T06:59:58Z</time>
      </trkpt>
      <trkpt lat="47.26511" lon="-1.54047">
        <ele>54</ele>
        <time>2022-05-03T06:59:59Z</time>
      </trkpt>
      <trkpt lat="47.2651" lon="-1.54046">
        <ele>54</ele>
        <time>2022-05-03T07:00:00Z</time>
      </trkpt>
      <trkpt lat="47.2651" lon="-1.54045">
        <ele>54</ele>
        <time>2022-05-03T07:00:01Z</time>
      </trkpt>
      <trkpt lat="47.26509" lon="-1.54044">
        <ele>54</ele>
        <time>2022-05-03T07:00:02Z</time>
      </trkpt>
      <trkpt lat="47.26508" lon="-1.54043">
        <ele>54</ele>
        <time>2022-05-03T07:00:03Z</time>
      </trkpt>
      <trkpt lat="47.26508" lon="-1.54041">
        <ele>54</ele>
        <time>2022-05-03T07:00:04Z</time>
      </trkpt>
      <trkpt lat="47.26507" lon="-1.5404">
        <ele>54</ele>
        <time>2022-05-03T07:00:05Z</time>
      </trkpt>
      <trkpt lat="47.26506" lon="-1.54039">
        <ele>54</ele>
        <time>2022-05-03T07:00:06Z</time>
      </trkpt>
      <trkpt lat="47.26506" lon="-1.54038">
        <ele>54</ele>
        <time>2022-05-03T07:00:07Z</time>
      </trkpt>
      <trkpt lat="47.26505" lon="-1.54037">
        <ele>54</ele>
        <time>2022-05-03T07:00:08Z</time>
      </trkpt>
      <trkpt lat="47.26505" lon="-1.54036">
        <ele>54</ele>
        <time>2022-05-03T07:00:09Z</time>
      </trkpt>
      <trkpt lat="47.26504" lon="-1.54035">
        <ele>54</ele>
        <time>2022-05-03T07:00:10Z</time>
      </trkpt>
      <trkpt lat="47.26503" lon="-1.54034">
        <ele>54</ele>
        <time>2022-05-03T07:00:11Z</time>
      </trkpt>
      <trkpt lat="47.26503" lon="-1.54033">
        <ele>54</ele>
        <time>2022-05-03T07:00:12Z</time>
      </trkpt>
      <trkpt lat="47.26502" lon="-1.54031">
        <ele>54</ele>
        <time>2022-05-03T07:00:13Z</time>
      </trkpt>
      <trkpt lat="47.26502" lon="-1.54029">
        <ele>54</ele>
        <time>2022-05-03T07:00:14Z</time>
      </trkpt>
      <trkpt lat="47.26502" lon="-1.54027">
        <ele>53</ele>
        <time>2022-05-03T07:00:15Z</time>
      </trkpt>
      <trkpt lat="47.26501" lon="-1.54026">
        <ele>53</ele>
        <time>2022-05-03T07:00:16Z</time>
      </trkpt>
      <trkpt lat="47.265" lon="-1.54024">
        <ele>53</ele>
        <time>2022-05-03T07:00:17Z</time>
      </trkpt>
      <trkpt lat="47.26499" lon="-1.54022">
        <ele>52</ele>
        <time>2022-05-03T07:00:18Z</time>
      </trkpt>
      <trkpt lat="47.26498" lon="-1.5402">
        <ele>52</ele>
        <time>2022-05-03T07:00:19Z</time>
      </trkpt>
      <trkpt lat="47.26498" lon="-1.54019">
        <ele>53</ele>
        <time>2022-05-03T07:00:20Z</time>
      </trkpt>
      <trkpt lat="47.26497" lon="-1.54018">
        <ele>53</ele>
        <time>2022-05-03T07:00:21Z</time>
      </trkpt>
      <trkpt lat="47.26496" lon="-1.54016">
        <ele>53</ele>
        <time>2022-05-03T07:00:22Z</time>
      </trkpt>
      <trkpt lat="47.26495" lon="-1.54015">
        <ele>52</ele>
        <time>2022-05-03T07:00:23Z</time>
      </trkpt>
      <trkpt lat="47.26495" lon="-1.54013">
        <ele>52</ele>
        <time>2022-05-03T07:00:24Z</time>
      </trkpt>
      <trkpt lat="47.26494" lon="-1.54012">
        <ele>52</ele>
        <time>2022-05-03T07:00:25Z</time>
      </trkpt>
      <trkpt lat="47.26493" lon="-1.54011">
        <ele>52</ele>
        <time>2022-05-03T07:00:26Z</time>
      </trkpt>
      <trkpt lat="47.26492" lon="-1.54009">
        <ele>52</ele>
        <time>2022-05-03T07:00:27Z</time>
      </trkpt>
      <trkpt lat="47.26492" lon="-1.54008">
        <ele>52</ele>
        <time>2022-05-03T07:00:28Z</time>
      </trkpt>
      <trkpt lat="47.26491" lon="-1.54006">
        <ele>53</ele>
        <time>2022-05-03T07:00:29Z</time>
      </trkpt>
      <trkpt lat="47.26491" lon="-1.54004">
        <ele>53</ele>
        <time>2022-05-03T07:00:30Z</time>
      </trkpt>
      <trkpt lat="47.26491" lon="-1.54002">
        <ele>53</ele>
        <time>2022-05-03T07:00:31Z</time>
      </trkpt>
      <trkpt lat="47.2649" lon="-1.54">
        <ele>53</ele>
        <time>2022-05-03T07:00:32Z</time>
      </trkpt>
      <trkpt lat="47.2649" lon="-1.53998">
        <ele>53</ele>
        <time>2022-05-03T07:00:33Z</time>
      </trkpt>
      <trkpt lat="47.2649" lon="-1.53996">
        <ele>53</ele>
        <time>2022-05-03T07:00:34Z</time>
      </trkpt>
      <trkpt lat="47.26489" lon="-1.53995">
        <ele>53</ele>
        <time>2022-05-03T07:00:35Z</time>
      </trkpt>
      <trkpt lat="47.26489" lon="-1.53993">
        <ele>53</ele>
        <time>2022-05-03T07:00:36Z</time>
      </trkpt>
      <trkpt lat="47.26487" lon="-1.53992">
        <ele>53</ele>
        <time>2022-05-03T07:00:37Z</time>
      </trkpt>
      <trkpt lat="47.26486" lon="-1.53991">
        <ele>53</ele>
        <time>2022-05-03T07:00:38Z</time>
      </trkpt>
      <trkpt lat="47.26485" lon="-1.5399">
        <ele>52</ele>
        <time>2022-05-03T07:00:39Z</time>
      </trkpt>
      <trkpt lat="47.26484" lon="-1.5399">
        <ele>53</ele>
        <time>2022-05-03T07:00:40Z</time>
      </trkpt>
      <trkpt lat="47.26482" lon="-1.5399">
        <ele>53</ele>
        <time>2022-05-03T07:00:41Z</time>
      </trkpt>
      <trkpt lat="47.26481" lon="-1.5399">
        <ele>53</ele>
        <time>2022-05-03T07:00:42Z</time>
      </trkpt>
      <trkpt lat="47.2648" lon="-1.5399">
        <ele>53</ele>
        <time>2022-05-03T07:00:43Z</time>
      </trkpt>
      <trkpt lat="47.26478" lon="-1.5399">
        <ele>53</ele>
        <time>2022-05-03T07:00:44Z</time>
      </trkpt>
      <trkpt lat="47.26477" lon="-1.5399">
        <ele>52</ele>
        <time>2022-05-03T07:00:45Z</time>
      </trkpt>
      <trkpt lat="47.26476" lon="-1.53991">
        <ele>52</ele>
        <time>2022-05-03T07:00:46Z</time>
      </trkpt>
      <trkpt lat="47.26474" lon="-1.53991">
        <ele>53</ele>
        <time>2022-05-03T07:00:47Z</time>
      </trkpt>
      <trkpt lat="47.26473" lon="-1.53992">
        <ele>52</ele>
        <time>2022-05-03T07:00:48Z</time>
      </trkpt>
      <trkpt lat="47.26471" lon="-1.53992">
        <ele>52</ele>
        <time>2022-05-03T07:00:49Z</time>
      </trkpt>
      <trkpt lat="47.2647" lon="-1.53993">
        <ele>52</ele>
        <time>2022-05-03T07:00:50Z</time>
      </trkpt>
      <trkpt lat="47.26469" lon="-1.53993">
        <ele>52</ele>
        <time>2022-05-03T07:00:51Z</time>
      </trkpt>
      <trkpt lat="47.26468" lon="-1.53994">
        <ele>51</ele>
        <time>2022-05-03T07:00:52Z</time>
      </trkpt>
      <trkpt lat="47.26466" lon="-1.53995">
        <ele>51</ele>
        <time>2022-05-03T07:00:53Z</time>
      </trkpt>
      <trkpt lat="47.26465" lon="-1.53995">
        <ele>51</ele>
        <time>2022-05-03T07:00:54Z</time>
      </trkpt>
      <trkpt lat="47.26464" lon="-1.53996">
        <ele>52</ele>
        <time>2022-05-03T07:00:55Z</time>
      </trkpt>
      <trkpt lat="47.26463" lon="-1.53996">
        <ele>52</ele>
        <time>2022-05-03T07:00:56Z</time>
      </trkpt>
      <trkpt lat="47.26462" lon="-1.53997">
        <ele>52</ele>
        <time>2022-05-03T07:00:57Z</time>
      </trkpt>
      <trkpt lat="47.26461" lon="-1.53998">
        <ele>52</ele>
        <time>2022-05-03T07:00:58Z</time>
      </trkpt>
      <trkpt lat="47.2646" lon="-1.53999">
        <ele>52</ele>
        <time>2022-05-03T07:00:59Z</time>
      </trkpt>
      <trkpt lat="47.26458" lon="-1.53999">
        <ele>51</ele>
        <time>2022-05-03T07:01:00Z</time>
      </trkpt>
      <trkpt lat="47.26457" lon="-1.53999">
        <ele>51</ele>
        <time>2022-05-03T07:01:01Z</time>
      </trkpt>
      <trkpt lat="47.26455" lon="-1.53999">
        <ele>51</ele>
        <time>2022-05-03T07:01:02Z</time>
      </trkpt>
      <trkpt lat="47.26454" lon="-1.54">
        <ele>51</ele>
        <time>2022-05-03T07:01:03Z</time>
      </trkpt>
      <trkpt lat="47.26453" lon="-1.54">
        <ele>51</ele>
        <time>2022-05-03T07:01:04Z</time>
      </trkpt>
      <trkpt lat="47.26452" lon="-1.54001">
        <ele>51</ele>
        <time>2022-05-03T07:01:05Z</time>
      </trkpt>
      <trkpt lat="47.2645" lon="-1.54001">
        <ele>51</ele>
        <time>2022-05-03T07:01:06Z</time>
      </trkpt>
      <trkpt lat="47.26448" lon="-1.54001">
        <ele>51</ele>
        <time>2022-05-03T07:01:07Z</time>
      </trkpt>
      <trkpt lat="47.26447" lon="-1.54001">
        <ele>51</ele>
        <time>2022-05-03T07:01:08Z</time>
      </trkpt>
      <trkpt lat="47.26446" lon="-1.54001">
        <ele>51</ele>
        <time>2022-05-03T07:01:09Z</time>
      </trkpt>
      <trkpt lat="47.26445" lon="-1.54001">
        <ele>51</ele>
        <time>2022-05-03T07:01:10Z</time>
      </trkpt>
      <trkpt lat="47.26444" lon="-1.54001">
        <ele>51</ele>
        <time>2022-05-03T07:01:11Z</time>
      </trkpt>
      <trkpt lat="47.26442" lon="-1.54001">
        <ele>51</ele>
        <time>2022-05-03T07:01:12Z</time>
      </trkpt>
      <trkpt lat="47.26441" lon="-1.54001">
        <ele>51</ele>
        <time>2022-05-03T07:01:13Z</time>
      </trkpt>
      <trkpt lat="47.26439" lon="-1.54001">
        <ele>51</ele>
        <time>2022-05-03T07:01:14Z</time>
      </trkpt>
      <trkpt lat="47.26438" lon="-1.54001">
        <ele>51</ele>
        <time>2022-05-03T07:01:15Z</time>
      </trkpt>
      <trkpt lat="47.26437" lon="-1.54001">
        <ele>51</ele>
        <time>2022-05-03T07:01:16Z</time>
      </trkpt>
      <trkpt lat="47.26435" lon="-1.54">
        <ele>51</ele>
        <time>2022-05-03T07:01:17Z</time>
      </trkpt>
      <trkpt lat="47.26434" lon="-1.54">
        <ele>50</ele>
        <time>2022-05-03T07:01:18Z</time>
      </trkpt>
      <trkpt lat="47.26432" lon="-1.53999">
        <ele>50</ele>
        <time>2022-05-03T07:01:19Z</time>
      </trkpt>
      <trkpt lat="47.2643" lon="-1.53999">
        <ele>50</ele>
        <time>2022-05-03T07:01:20Z</time>
      </trkpt>
      <trkpt lat="47.26428" lon="-1.53998">
        <ele>50</ele>
        <time>2022-05-03T07:01:21Z</time>
      </trkpt>
      <trkpt lat="47.26427" lon="-1.53998">
        <ele>50</ele>
        <time>2022-05-03T07:01:22Z</time>
      </trkpt>
      <trkpt lat="47.26425" lon="-1.53997">
        <ele>50</ele>
        <time>2022-05-03T07:01:23Z</time>
      </trkpt>
      <trkpt lat="47.26424" lon="-1.53996">
        <ele>50</ele>
        <time>2022-05-03T07:01:24Z</time>
      </trkpt>
      <trkpt lat="47.26423" lon="-1.53996">
        <ele>50</ele>
        <time>2022-05-03T07:01:25Z</time>
      </trkpt>
      <trkpt lat="47.26421" lon="-1.53995">
        <ele>50</ele>
        <time>2022-05-03T07:01:26Z</time>
      </trkpt>
      <trkpt lat="47.2642" lon="-1.53995">
        <ele>50</ele>
        <time>2022-05-03T07:01:27Z</time>
      </trkpt>
      <trkpt lat="47.26418" lon="-1.53995">
        <ele>50</ele>
        <time>2022-05-03T07:01:28Z</time>
      </trkpt>
      <trkpt lat="47.26417" lon="-1.53995">
        <ele>50</ele>
        <time>2022-05-03T07:01:29Z</time>
      </trkpt>
      <trkpt lat="47.26416" lon="-1.53994">
        <ele>50</ele>
        <time>2022-05-03T07:01:30Z</time>
      </trkpt>
      <trkpt lat="47.26415" lon="-1.53994">
        <ele>50</ele>
        <time>2022-05-03T07:01:31Z</time>
      </trkpt>
      <trkpt lat="47.26414" lon="-1.53994">
        <ele>50</ele>
        <time>2022-05-03T07:01:32Z</time>
      </trkpt>
      <trkpt lat="47.26414" lon="-1.53994">
        <ele>51</ele>
        <time>2022-05-03T07:01:33Z</time>
      </trkpt>
      <trkpt lat="47.26413" lon="-1.53995">
        <ele>51</ele>
        <time>2022-05-03T07:01:34Z</time>
      </trkpt>
      <trkpt lat="47.26413" lon="-1.53995">
        <ele>50</ele>
        <time>2022-05-03T07:01:35Z</time>
      </trkpt>
      <trkpt lat="47.26411" lon="-1.53995">
        <ele>50</ele>
        <time>2022-05-03T07:01:36Z</time>
      </trkpt>
      <trkpt lat="47.2641" lon="-1.53995">
        <ele>51</ele>
        <time>2022-05-03T07:01:37Z</time>
      </trkpt>
      <trkpt lat="47.26409" lon="-1.53996">
        <ele>51</ele>
        <time>2022-05-03T07:01:38Z</time>
      </trkpt>
      <trkpt lat="47.26408" lon="-1.53996">
        <ele>51</ele>
        <time>2022-05-03T07:01:39Z</time>
      </trkpt>
      <trkpt lat="47.26407" lon="-1.53996">
        <ele>50</ele>
        <time>2022-05-03T07:01:40Z</time>
      </trkpt>
      <trkpt lat="47.26406" lon="-1.53996">
        <ele>50</ele>
        <time>2022-05-03T07:01:41Z</time>
      </trkpt>
      <trkpt lat="47.26404" lon="-1.53996">
        <ele>50</ele>
        <time>2022-05-03T07:01:42Z</time>
      </trkpt>
      <trkpt lat="47.26403" lon="-1.53996">
        <ele>50</ele>
        <time>2022-05-03T07:01:43Z</time>
      </trkpt>
      <trkpt lat="47.26402" lon="-1.53995">
        <ele>50</ele>
        <time>2022-05-03T07:01:44Z</time>
      </trkpt>
      <trkpt lat="47.26401" lon="-1.53995">
        <ele>50</ele>
        <time>2022-05-03T07:01:45Z</time>
      </trkpt>
      <trkpt lat="47.264" lon="-1.53995">
        <ele>51</ele>
        <time>2022-05-03T07:01:46Z</time>
      </trkpt>
      <trkpt lat="47.26398" lon="-1.53994">
        <ele>50</ele>
        <time>2022-05-03T07:01:47Z</time>
      </trkpt>
      <trkpt lat="47.26397" lon="-1.53994">
        <ele>50</ele>
        <time>2022-05-03T07:01:48Z</time>
      </trkpt>
      <trkpt lat="47.26395" lon="-1.53993">
        <ele>50</ele>
        <time>2022-05-03T07:01:49Z</time>
      </trkpt>
      <trkpt lat="47.26394" lon="-1.53993">
        <ele>50</ele>
        <time>2022-05-03T07:01:50Z</time>
      </trkpt>
      <trkpt lat="47.26393" lon="-1.53993">
        <ele>50</ele>
        <time>2022-05-03T07:01:51Z</time>
      </trkpt>
      <trkpt lat="47.26391" lon="-1.53993">
        <ele>50</ele>
        <time>2022-05-03T07:01:52Z</time>
      </trkpt>
      <trkpt lat="47.2639" lon="-1.53992">
        <ele>50</ele>
        <time>2022-05-03T07:01:53Z</time>
      </trkpt>
      <trkpt lat="47.26389" lon="-1.53992">
        <ele>50</ele>
        <time>2022-05-03T07:01:54Z</time>
      </trkpt>
      <trkpt lat="47.26387" lon="-1.53991">
        <ele>50</ele>
        <time>2022-05-03T07:01:55Z</time>
      </trkpt>
      <trkpt lat="47.26386" lon="-1.53991">
        <ele>51</ele>
        <time>2022-05-03T07:01:56Z</time>
      </trkpt>
      <trkpt lat="47.26385" lon="-1.53991">
        <ele>51</ele>
        <time>2022-05-03T07:01:57Z</time>
      </trkpt>
      <trkpt lat="47.26384" lon="-1.5399">
        <ele>52</ele>
        <time>2022-05-03T07:01:58Z</time>
      </trkpt>
      <trkpt lat="47.26383" lon="-1.5399">
        <ele>52</ele>
        <time>2022-05-03T07:01:59Z</time>
      </trkpt>
      <trkpt lat="47.26382" lon="-1.5399">
        <ele>52</ele>
        <time>2022-05-03T07:02:00Z</time>
      </trkpt>
      <trkpt lat="47.2638" lon="-1.53989">
        <ele>52</ele>
        <time>2022-05-03T07:02:01Z</time>
      </trkpt>
      <trkpt lat="47.26379" lon="-1.5399">
        <ele>51</ele>
        <time>2022-05-03T07:02:02Z</time>
      </trkpt>
      <trkpt lat="47.26378" lon="-1.5399">
        <ele>51</ele>
        <time>2022-05-03T07:02:03Z</time>
      </trkpt>
      <trkpt lat="47.26377" lon="-1.5399">
        <ele>51</ele>
        <time>2022-05-03T07:02:04Z</time>
      </trkpt>
      <trkpt lat="47.26375" lon="-1.53989">
        <ele>51</ele>
        <time>2022-05-03T07:02:05Z</time>
      </trkpt>
      <trkpt lat="47.26374" lon="-1.53989">
        <ele>51</ele>
        <time>2022-05-03T07:02:06Z</time>
      </trkpt>
      <trkpt lat="47.26373" lon="-1.53989">
        <ele>51</ele>
        <time>2022-05-03T07:02:07Z</time>
      </trkpt>
      <trkpt lat="47.26371" lon="-1.53988">
        <ele>51</ele>
        <time>2022-05-03T07:02:08Z</time>
      </trkpt>
      <trkpt lat="47.26369" lon="-1.53988">
        <ele>51</ele>
        <time>2022-05-03T07:02:09Z</time>
      </trkpt>
      <trkpt lat="47.26368" lon="-1.53988">
        <ele>52</ele>
        <time>2022-05-03T07:02:10Z</time>
      </trkpt>
      <trkpt lat="47.26366" lon="-1.53987">
        <ele>52</ele>
        <time>2022-05-03T07:02:11Z</time>
      </trkpt>
      <trkpt lat="47.26365" lon="-1.53987">
        <ele>52</ele>
        <time>2022-05-03T07:02:12Z</time>
      </trkpt>
      <trkpt lat="47.26363" lon="-1.53986">
        <ele>52</ele>
        <time>2022-05-03T07:02:13Z</time>
      </trkpt>
      <trkpt lat="47.26361" lon="-1.53985">
        <ele>52</ele>
        <time>2022-05-03T07:02:14Z</time>
      </trkpt>
      <trkpt lat="47.2636" lon="-1.53984">
        <ele>52</ele>
        <time>2022-05-03T07:02:15Z</time>
      </trkpt>
      <trkpt lat="47.26358" lon="-1.53983">
        <ele>52</ele>
        <time>2022-05-03T07:02:16Z</time>
      </trkpt>
      <trkpt lat="47.26357" lon="-1.53983">
        <ele>52</ele>
        <time>2022-05-03T07:02:17Z</time>
      </trkpt>
      <trkpt lat="47.26356" lon="-1.53982">
        <ele>52</ele>
        <time>2022-05-03T07:02:18Z</time>
      </trkpt>
      <trkpt lat="47.26355" lon="-1.53981">
        <ele>52</ele>
        <time>2022-05-03T07:02:19Z</time>
      </trkpt>
      <trkpt lat="47.26354" lon="-1.5398">
        <ele>52</ele>
        <time>2022-05-03T07:02:20Z</time>
      </trkpt>
      <trkpt lat="47.26354" lon="-1.5398">
        <ele>52</ele>
        <time>2022-05-03T07:02:21Z</time>
      </trkpt>
      <trkpt lat="47.26353" lon="-1.5398">
        <ele>52</ele>
        <time>2022-05-03T07:02:22Z</time>
      </trkpt>
      <trkpt lat="47.26352" lon="-1.53979">
        <ele>52</ele>
        <time>2022-05-03T07:02:23Z</time>
      </trkpt>
      <trkpt lat="47.26351" lon="-1.53979">
        <ele>52</ele>
        <time>2022-05-03T07:02:24Z</time>
      </trkpt>
      <trkpt lat="47.2635" lon="-1.53979">
        <ele>52</ele>
        <time>2022-05-03T07:02:25Z</time>
      </trkpt>
      <trkpt lat="47.26349" lon="-1.53979">
        <ele>52</ele>
        <time>2022-05-03T07:02:26Z</time>
      </trkpt>
      <trkpt lat="47.26347" lon="-1.53978">
        <ele>52</ele>
        <time>2022-05-03T07:02:27Z</time>
      </trkpt>
      <trkpt lat="47.26346" lon="-1.53979">
        <ele>52</ele>
        <time>2022-05-03T07:02:28Z</time>
      </trkpt>
      <trkpt lat="47.26345" lon="-1.53978">
        <ele>52</ele>
        <time>2022-05-03T07:02:29Z</time>
      </trkpt>
      <trkpt lat="47.26344" lon="-1.53978">
        <ele>52</ele>
        <time>2022-05-03T07:02:30Z</time>
      </trkpt>
      <trkpt lat="47.26342" lon="-1.53978">
        <ele>53</ele>
        <time>2022-05-03T07:02:31Z</time>
      </trkpt>
      <trkpt lat="47.26341" lon="-1.53977">
        <ele>53</ele>
        <time>2022-05-03T07:02:32Z</time>
      </trkpt>
      <trkpt lat="47.2634" lon="-1.53977">
        <ele>53</ele>
        <time>2022-05-03T07:02:33Z</time>
      </trkpt>
      <trkpt lat="47.26339" lon="-1.53977">
        <ele>54</ele>
        <time>2022-05-03T07:02:34Z</time>
      </trkpt>
      <trkpt lat="47.26337" lon="-1.53977">
        <ele>54</ele>
        <time>2022-05-03T07:02:35Z</time>
      </trkpt>
      <trkpt lat="47.26336" lon="-1.53976">
        <ele>54</ele>
        <time>2022-05-03T07:02:36Z</time>
      </trkpt>
      <trkpt lat="47.26335" lon="-1.53976">
        <ele>54</ele>
        <time>2022-05-03T07:02:37Z</time>
      </trkpt>
      <trkpt lat="47.26334" lon="-1.53975">
        <ele>54</ele>
        <time>2022-05-03T07:02:38Z</time>
      </trkpt>
      <trkpt lat="47.26333" lon="-1.53975">
        <ele>55</ele>
        <time>2022-05-03T07:02:39Z</time>
      </trkpt>
      <trkpt lat="47.26332" lon="-1.53974">
        <ele>55</ele>
        <time>2022-05-03T07:02:40Z</time>
      </trkpt>
      <trkpt lat="47.26331" lon="-1.53973">
        <ele>55</ele>
        <time>2022-05-03T07:02:41Z</time>
      </trkpt>
      <trkpt lat="47.2633" lon="-1.53972">
        <ele>55</ele>
        <time>2022-05-03T07:02:42Z</time>
      </trkpt>
      <trkpt lat="47.26329" lon="-1.53971">
        <ele>55</ele>
        <time>2022-05-03T07:02:43Z</time>
      </trkpt>
      <trkpt lat="47.26328" lon="-1.5397">
        <ele>55</ele>
        <time>2022-05-03T07:02:44Z</time>
      </trkpt>
      <trkpt lat="47.26327" lon="-1.5397">
        <ele>56</ele>
        <time>2022-05-03T07:02:45Z</time>
      </trkpt>
      <trkpt lat="47.26325" lon="-1.53969">
        <ele>56</ele>
        <time>2022-05-03T07:02:46Z</time>
      </trkpt>
      <trkpt lat="47.26324" lon="-1.53968">
        <ele>57</ele>
        <time>2022-05-03T07:02:47Z</time>
      </trkpt>
      <trkpt lat="47.26323" lon="-1.53968">
        <ele>57</ele>
        <time>2022-05-03T07:02:48Z</time>
      </trkpt>
      <trkpt lat="47.26321" lon="-1.53967">
        <ele>58</ele>
        <time>2022-05-03T07:02:49Z</time>
      </trkpt>
      <trkpt lat="47.2632" lon="-1.53967">
        <ele>58</ele>
        <time>2022-05-03T07:02:50Z</time>
      </trkpt>
      <trkpt lat="47.26319" lon="-1.53966">
        <ele>58</ele>
        <time>2022-05-03T07:02:51Z</time>
      </trkpt>
      <trkpt lat="47.26318" lon="-1.53965">
        <ele>58</ele>
        <time>2022-05-03T07:02:52Z</time>
      </trkpt>
      <trkpt lat="47.26316" lon="-1.53964">
        <ele>58</ele>
        <time>2022-05-03T07:02:53Z</time>
      </trkpt>
      <trkpt lat="47.26315" lon="-1.53963">
        <ele>58</ele>
        <time>2022-05-03T07:02:54Z</time>
      </trkpt>
      <trkpt lat="47.26313" lon="-1.53962">
        <ele>58</ele>
        <time>2022-05-03T07:02:55Z</time>
      </trkpt>
      <trkpt lat="47.26312" lon="-1.53961">
        <ele>58</ele>
        <time>2022-05-03T07:02:56Z</time>
      </trkpt>
      <trkpt lat="47.26311" lon="-1.53961">
        <ele>58</ele>
        <time>2022-05-03T07:02:57Z</time>
      </trkpt>
      <trkpt lat="47.26309" lon="-1.5396">
        <ele>59</ele>
        <time>2022-05-03T07:02:58Z</time>
      </trkpt>
      <trkpt lat="47.26307" lon="-1.53959">
        <ele>59</ele>
        <time>2022-05-03T07:02:59Z</time>
      </trkpt>
      <trkpt lat="47.26307" lon="-1.53958">
        <ele>59</ele>
        <time>2022-05-03T07:03:00Z</time>
      </trkpt>
      <trkpt lat="47.26305" lon="-1.53957">
        <ele>59</ele>
        <time>2022-05-03T07:03:01Z</time>
      </trkpt>
      <trkpt lat="47.26305" lon="-1.53957">
        <ele>59</ele>
        <time>2022-05-03T07:03:02Z</time>
      </trkpt>
      <trkpt lat="47.26304" lon="-1.53955">
        <ele>59</ele>
        <time>2022-05-03T07:03:03Z</time>
      </trkpt>
      <trkpt lat="47.26303" lon="-1.53954">
        <ele>59</ele>
        <time>2022-05-03T07:03:04Z</time>
      </trkpt>
      <trkpt lat="47.26302" lon="-1.53952">
        <ele>59</ele>
        <time>2022-05-03T07:03:05Z</time>
      </trkpt>
      <trkpt lat="47.26301" lon="-1.53952">
        <ele>59</ele>
        <time>2022-05-03T07:03:06Z</time>
      </trkpt>
      <trkpt lat="47.263" lon="-1.53951">
        <ele>59</ele>
        <time>2022-05-03T07:03:07Z</time>
      </trkpt>
      <trkpt lat="47.26299" lon="-1.5395">
        <ele>59</ele>
        <time>2022-05-03T07:03:08Z</time>
      </trkpt>
      <trkpt lat="47.26298" lon="-1.53949">
        <ele>59</ele>
        <time>2022-05-03T07:03:09Z</time>
      </trkpt>
      <trkpt lat="47.26297" lon="-1.53948">
        <ele>59</ele>
        <time>2022-05-03T07:03:10Z</time>
      </trkpt>
      <trkpt lat="47.26296" lon="-1.53947">
        <ele>59</ele>
        <time>2022-05-03T07:03:11Z</time>
      </trkpt>
      <trkpt lat="47.26295" lon="-1.53947">
        <ele>60</ele>
        <time>2022-05-03T07:03:12Z</time>
      </trkpt>
      <trkpt lat="47.26294" lon="-1.53946">
        <ele>60</ele>
        <time>2022-05-03T07:03:13Z</time>
      </trkpt>
      <trkpt lat="47.26294" lon="-1.53945">
        <ele>60</ele>
        <time>2022-05-03T07:03:14Z</time>
      </trkpt>
      <trkpt lat="47.26292" lon="-1.53944">
        <ele>60</ele>
        <time>2022-05-03T07:03:15Z</time>
      </trkpt>
      <trkpt lat="47.26291" lon="-1.53943">
        <ele>60</ele>
        <time>2022-05-03T07:03:16Z</time>
      </trkpt>
      <trkpt lat="47.26291" lon="-1.53942">
        <ele>60</ele>
        <time>2022-05-03T07:03:17Z</time>
      </trkpt>
      <trkpt lat="47.26289" lon="-1.53941">
        <ele>60</ele>
        <time>2022-05-03T07:03:18Z</time>
      </trkpt>
      <trkpt lat="47.26289" lon="-1.53939">
        <ele>61</ele>
        <time>2022-05-03T07:03:19Z</time>
      </trkpt>
      <trkpt lat="47.26288" lon="-1.53938">
        <ele>61</ele>
        <time>2022-05-03T07:03:20Z</time>
      </trkpt>
      <trkpt lat="47.26287" lon="-1.53936">
        <ele>61</ele>
        <time>2022-05-03T07:03:21Z</time>
      </trkpt>
      <trkpt lat="47.26286" lon="-1.53936">
        <ele>61</ele>
        <time>2022-05-03T07:03:22Z</time>
      </trkpt>
      <trkpt lat="47.26285" lon="-1.53935">
        <ele>62</ele>
        <time>2022-05-03T07:03:23Z</time>
      </trkpt>
      <trkpt lat="47.26284" lon="-1.53934">
        <ele>61</ele>
        <time>2022-05-03T07:03:24Z</time>
      </trkpt>
      <trkpt lat="47.26283" lon="-1.53933">
        <ele>61</ele>
        <time>2022-05-03T07:03:25Z</time>
      </trkpt>
      <trkpt lat="47.26282" lon="-1.53932">
        <ele>61</ele>
        <time>2022-05-03T07:03:26Z</time>
      </trkpt>
      <trkpt lat="47.26281" lon="-1.53932">
        <ele>61</ele>
        <time>2022-05-03T07:03:27Z</time>
      </trkpt>
      <trkpt lat="47.26279" lon="-1.53931">
        <ele>61</ele>
        <time>2022-05-03T07:03:28Z</time>
      </trkpt>
      <trkpt lat="47.26278" lon="-1.5393">
        <ele>61</ele>
        <time>2022-05-03T07:03:29Z</time>
      </trkpt>
      <trkpt lat="47.26277" lon="-1.53928">
        <ele>61</ele>
        <time>2022-05-03T07:03:30Z</time>
      </trkpt>
      <trkpt lat="47.26276" lon="-1.53927">
        <ele>61</ele>
        <time>2022-05-03T07:03:31Z</time>
      </trkpt>
      <trkpt lat="47.26275" lon="-1.53925">
        <ele>62</ele>
        <time>2022-05-03T07:03:32Z</time>
      </trkpt>
      <trkpt lat="47.26274" lon="-1.53924">
        <ele>62</ele>
        <time>2022-05-03T07:03:33Z</time>
      </trkpt>
      <trkpt lat="47.26273" lon="-1.53923">
        <ele>62</ele>
        <time>2022-05-03T07:03:34Z</time>
      </trkpt>
      <trkpt lat="47.26272" lon="-1.53922">
        <ele>62</ele>
        <time>2022-05-03T07:03:35Z</time>
      </trkpt>
      <trkpt lat="47.26271" lon="-1.5392">
        <ele>62</ele>
        <time>2022-05-03T07:03:36Z</time>
      </trkpt>
      <trkpt lat="47.2627" lon="-1.53919">
        <ele>62</ele>
        <time>2022-05-03T07:03:37Z</time>
      </trkpt>
      <trkpt lat="47.26268" lon="-1.53918">
        <ele>62</ele>
        <time>2022-05-03T07:03:38Z</time>
      </trkpt>
      <trkpt lat="47.26267" lon="-1.53916">
        <ele>63</ele>
        <time>2022-05-03T07:03:39Z</time>
      </trkpt>
      <trkpt lat="47.26266" lon="-1.53915">
        <ele>63</ele>
        <time>2022-05-03T07:03:40Z</time>
      </trkpt>
      <trkpt lat="47.26265" lon="-1.53914">
        <ele>63</ele>
        <time>2022-05-03T07:03:41Z</time>
      </trkpt>
      <trkpt lat="47.26263" lon="-1.53913">
        <ele>63</ele>
        <time>2022-05-03T07:03:42Z</time>
      </trkpt>
      <trkpt lat="47.26262" lon="-1.53912">
        <ele>63</ele>
        <time>2022-05-03T07:03:43Z</time>
      </trkpt>
      <trkpt lat="47.26261" lon="-1.53911">
        <ele>63</ele>
        <time>2022-05-03T07:03:44Z</time>
      </trkpt>
      <trkpt lat="47.2626" lon="-1.53911">
        <ele>63</ele>
        <time>2022-05-03T07:03:45Z</time>
      </trkpt>
      <trkpt lat="47.2626" lon="-1.5391">
        <ele>63</ele>
        <time>2022-05-03T07:03:46Z</time>
      </trkpt>
      <trkpt lat="47.26259" lon="-1.53909">
        <ele>63</ele>
        <time>2022-05-03T07:03:47Z</time>
      </trkpt>
      <trkpt lat="47.26258" lon="-1.53909">
        <ele>63</ele>
        <time>2022-05-03T07:03:48Z</time>
      </trkpt>
      <trkpt lat="47.26257" lon="-1.53908">
        <ele>63</ele>
        <time>2022-05-03T07:03:49Z</time>
      </trkpt>
      <trkpt lat="47.26256" lon="-1.53907">
        <ele>64</ele>
        <time>2022-05-03T07:03:50Z</time>
      </trkpt>
      <trkpt lat="47.26255" lon="-1.53906">
        <ele>64</ele>
        <time>2022-05-03T07:03:51Z</time>
      </trkpt>
      <trkpt lat="47.26254" lon="-1.53905">
        <ele>64</ele>
        <time>2022-05-03T07:03:52Z</time>
      </trkpt>
      <trkpt lat="47.26253" lon="-1.53903">
        <ele>64</ele>
        <time>2022-05-03T07:03:53Z</time>
      </trkpt>
      <trkpt lat="47.26252" lon="-1.53902">
        <ele>64</ele>
        <time>2022-05-03T07:03:54Z</time>
      </trkpt>
      <trkpt lat="47.26251" lon="-1.53901">
        <ele>64</ele>
        <time>2022-05-03T07:03:55Z</time>
      </trkpt>
      <trkpt lat="47.26249" lon="-1.53901">
        <ele>64</ele>
        <time>2022-05-03T07:03:56Z</time>
      </trkpt>
      <trkpt lat="47.26248" lon="-1.539">
        <ele>63</ele>
        <time>2022-05-03T07:03:57Z</time>
      </trkpt>
      <trkpt lat="47.26247" lon="-1.53899">
        <ele>64</ele>
        <time>2022-05-03T07:03:58Z</time>
      </trkpt>
      <trkpt lat="47.26246" lon="-1.53898">
        <ele>64</ele>
        <time>2022-05-03T07:03:59Z</time>
      </trkpt>
      <trkpt lat="47.26244" lon="-1.53897">
        <ele>64</ele>
        <time>2022-05-03T07:04:00Z</time>
      </trkpt>
      <trkpt lat="47.26243" lon="-1.53895">
        <ele>64</ele>
        <time>2022-05-03T07:04:01Z</time>
      </trkpt>
      <trkpt lat="47.26242" lon="-1.53894">
        <ele>64</ele>
        <time>2022-05-03T07:04:02Z</time>
      </trkpt>
      <trkpt lat="47.2624" lon="-1.53892">
        <ele>64</ele>
        <time>2022-05-03T07:04:03Z</time>
      </trkpt>
      <trkpt lat="47.26239" lon="-1.53892">
        <ele>64</ele>
        <time>2022-05-03T07:04:04Z</time>
      </trkpt>
      <trkpt lat="47.26238" lon="-1.5389">
        <ele>64</ele>
        <time>2022-05-03T07:04:05Z</time>
      </trkpt>
      <trkpt lat="47.26236" lon="-1.5389">
        <ele>65</ele>
        <time>2022-05-03T07:04:06Z</time>
      </trkpt>
      <trkpt lat="47.26235" lon="-1.53889">
        <ele>65</ele>
        <time>2022-05-03T07:04:07Z</time>
      </trkpt>
      <trkpt lat="47.26234" lon="-1.53888">
        <ele>64</ele>
        <time>2022-05-03T07:04:08Z</time>
      </trkpt>
      <trkpt lat="47.26233" lon="-1.53887">
        <ele>64</ele>
        <time>2022-05-03T07:04:09Z</time>
      </trkpt>
      <trkpt lat="47.26232" lon="-1.53885">
        <ele>64</ele>
        <time>2022-05-03T07:04:10Z</time>
      </trkpt>
      <trkpt lat="47.26231" lon="-1.53884">
        <ele>64</ele>
        <time>2022-05-03T07:04:11Z</time>
      </trkpt>
      <trkpt lat="47.26229" lon="-1.53884">
        <ele>64</ele>
        <time>2022-05-03T07:04:12Z</time>
      </trkpt>
      <trkpt lat="47.26228" lon="-1.53882">
        <ele>64</ele>
        <time>2022-05-03T07:04:13Z</time>
      </trkpt>
      <trkpt lat="47.26226" lon="-1.53881">
        <ele>64</ele>
        <time>2022-05-03T07:04:14Z</time>
      </trkpt>
      <trkpt lat="47.26225" lon="-1.5388">
        <ele>64</ele>
        <time>2022-05-03T07:04:15Z</time>
      </trkpt>
      <trkpt lat="47.26223" lon="-1.53878">
        <ele>63</ele>
        <time>2022-05-03T07:04:16Z</time>
      </trkpt>
      <trkpt lat="47.26222" lon="-1.53877">
        <ele>63</ele>
        <time>2022-05-03T07:04:17Z</time>
      </trkpt>
      <trkpt lat="47.2622" lon="-1.53875">
        <ele>64</ele>
        <time>2022-05-03T07:04:18Z</time>
      </trkpt>
      <trkpt lat="47.26219" lon="-1.53874">
        <ele>63</ele>
        <time>2022-05-03T07:04:19Z</time>
      </trkpt>
      <trkpt lat="47.26218" lon="-1.53873">
        <ele>62</ele>
        <time>2022-05-03T07:04:20Z</time>
      </trkpt>
      <trkpt lat="47.26216" lon="-1.53872">
        <ele>61</ele>
        <time>2022-05-03T07:04:21Z</time>
      </trkpt>
      <trkpt lat="47.26215" lon="-1.53872">
        <ele>61</ele>
        <time>2022-05-03T07:04:22Z</time>
      </trkpt>
      <trkpt lat="47.26214" lon="-1.5387">
        <ele>61</ele>
        <time>2022-05-03T07:04:23Z</time>
      </trkpt>
      <trkpt lat="47.26212" lon="-1.53869">
        <ele>61</ele>
        <time>2022-05-03T07:04:24Z</time>
      </trkpt>
      <trkpt lat="47.2621" lon="-1.53868">
        <ele>61</ele>
        <time>2022-05-03T07:04:25Z</time>
      </trkpt>
      <trkpt lat="47.26209" lon="-1.53867">
        <ele>61</ele>
        <time>2022-05-03T07:04:26Z</time>
      </trkpt>
      <trkpt lat="47.26208" lon="-1.53866">
        <ele>61</ele>
        <time>2022-05-03T07:04:27Z</time>
      </trkpt>
      <trkpt lat="47.26206" lon="-1.53865">
        <ele>61</ele>
        <time>2022-05-03T07:04:28Z</time>
      </trkpt>
      <trkpt lat="47.26205" lon="-1.53864">
        <ele>61</ele>
        <time>2022-05-03T07:04:29Z</time>
      </trkpt>
      <trkpt lat="47.26204" lon="-1.53863">
        <ele>61</ele>
        <time>2022-05-03T07:04:30Z</time>
      </trkpt>
      <trkpt lat="47.26202" lon="-1.53861">
        <ele>62</ele>
        <time>2022-05-03T07:04:31Z</time>
      </trkpt>
      <trkpt lat="47.26201" lon="-1.5386">
        <ele>62</ele>
        <time>2022-05-03T07:04:32Z</time>
      </trkpt>
      <trkpt lat="47.262" lon="-1.53859">
        <ele>62</ele>
        <time>2022-05-03T07:04:33Z</time>
      </trkpt>
      <trkpt lat="47.26199" lon="-1.53858">
        <ele>63</ele>
        <time>2022-05-03T07:04:34Z</time>
      </trkpt>
      <trkpt lat="47.26197" lon="-1.53857">
        <ele>63</ele>
        <time>2022-05-03T07:04:35Z</time>
      </trkpt>
      <trkpt lat="47.26196" lon="-1.53857">
        <ele>63</ele>
        <time>2022-05-03T07:04:36Z</time>
      </trkpt>
      <trkpt lat="47.26195" lon="-1.53856">
        <ele>63</ele>
        <time>2022-05-03T07:04:37Z</time>
      </trkpt>
      <trkpt lat="47.26194" lon="-1.53856">
        <ele>63</ele>
        <time>2022-05-03T07:04:38Z</time>
      </trkpt>
      <trkpt lat="47.26193" lon="-1.53855">
        <ele>63</ele>
        <time>2022-05-03T07:04:39Z</time>
      </trkpt>
      <trkpt lat="47.26192" lon="-1.53855">
        <ele>63</ele>
        <time>2022-05-03T07:04:40Z</time>
      </trkpt>
      <trkpt lat="47.2619" lon="-1.53854">
        <ele>63</ele>
        <time>2022-05-03T07:04:41Z</time>
      </trkpt>
      <trkpt lat="47.26189" lon="-1.53853">
        <ele>63</ele>
        <time>2022-05-03T07:04:42Z</time>
      </trkpt>
      <trkpt lat="47.26188" lon="-1.53852">
        <ele>63</ele>
        <time>2022-05-03T07:04:43Z</time>
      </trkpt>
      <trkpt lat="47.26186" lon="-1.53852">
        <ele>63</ele>
        <time>2022-05-03T07:04:44Z</time>
      </trkpt>
      <trkpt lat="47.26185" lon="-1.53852">
        <ele>63</ele>
        <time>2022-05-03T07:04:45Z</time>
      </trkpt>
      <trkpt lat="47.26183" lon="-1.53852">
        <ele>63</ele>
        <time>2022-05-03T07:04:46Z</time>
      </trkpt>
      <trkpt lat="47.26181" lon="-1.53851">
        <ele>63</ele>
        <time>2022-05-03T07:04:47Z</time>
      </trkpt>
      <trkpt lat="47.2618" lon="-1.53849">
        <ele>64</ele>
        <time>2022-05-03T07:04:48Z</time>
      </trkpt>
      <trkpt lat="47.26179" lon="-1.53848">
        <ele>63</ele>
        <time>2022-05-03T07:04:49Z</time>
      </trkpt>
      <trkpt lat="47.26178" lon="-1.53847">
        <ele>63</ele>
        <time>2022-05-03T07:04:50Z</time>
      </trkpt>
      <trkpt lat="47.26176" lon="-1.53846">
        <ele>63</ele>
        <time>2022-05-03T07:04:51Z</time>
      </trkpt>
      <trkpt lat="47.26175" lon="-1.53846">
        <ele>63</ele>
        <time>2022-05-03T07:04:52Z</time>
      </trkpt>
      <trkpt lat="47.26174" lon="-1.53845">
        <ele>63</ele>
        <time>2022-05-03T07:04:53Z</time>
      </trkpt>
      <trkpt lat="47.26172" lon="-1.53845">
        <ele>63</ele>
        <time>2022-05-03T07:04:54Z</time>
      </trkpt>
      <trkpt lat="47.26171" lon="-1.53844">
        <ele>63</ele>
        <time>2022-05-03T07:04:55Z</time>
      </trkpt>
      <trkpt lat="47.2617" lon="-1.53843">
        <ele>63</ele>
        <time>2022-05-03T07:04:56Z</time>
      </trkpt>
      <trkpt lat="47.26168" lon="-1.53842">
        <ele>62</ele>
        <time>2022-05-03T07:04:57Z</time>
      </trkpt>
      <trkpt lat="47.26167" lon="-1.53841">
        <ele>62</ele>
        <time>2022-05-03T07:04:58Z</time>
      </trkpt>
      <trkpt lat="47.26165" lon="-1.53841">
        <ele>61</ele>
        <time>2022-05-03T07:04:59Z</time>
      </trkpt>
      <trkpt lat="47.26164" lon="-1.5384">
        <ele>61</ele>
        <time>2022-05-03T07:05:00Z</time>
      </trkpt>
      <trkpt lat="47.26162" lon="-1.5384">
        <ele>61</ele>
        <time>2022-05-03T07:05:01Z</time>
      </trkpt>
      <trkpt lat="47.2616" lon="-1.5384">
        <ele>61</ele>
        <time>2022-05-03T07:05:02Z</time>
      </trkpt>
      <trkpt lat="47.26159" lon="-1.53839">
        <ele>61</ele>
        <time>2022-05-03T07:05:03Z</time>
      </trkpt>
      <trkpt lat="47.26157" lon="-1.53839">
        <ele>61</ele>
        <time>2022-05-03T07:05:04Z</time>
      </trkpt>
      <trkpt lat="47.26156" lon="-1.53839">
        <ele>61</ele>
        <time>2022-05-03T07:05:05Z</time>
      </trkpt>
      <trkpt lat="47.26155" lon="-1.53838">
        <ele>61</ele>
        <time>2022-05-03T07:05:06Z</time>
      </trkpt>
      <trkpt lat="47.26154" lon="-1.53839">
        <ele>61</ele>
        <time>2022-05-03T07:05:07Z</time>
      </trkpt>
      <trkpt lat="47.26152" lon="-1.53839">
        <ele>61</ele>
        <time>2022-05-03T07:05:08Z</time>
      </trkpt>
      <trkpt lat="47.26151" lon="-1.53838">
        <ele>61</ele>
        <time>2022-05-03T07:05:09Z</time>
      </trkpt>
      <trkpt lat="47.2615" lon="-1.53838">
        <ele>61</ele>
        <time>2022-05-03T07:05:10Z</time>
      </trkpt>
      <trkpt lat="47.2615" lon="-1.53838">
        <ele>61</ele>
        <time>2022-05-03T07:05:11Z</time>
      </trkpt>
      <trkpt lat="47.2615" lon="-1.53838">
        <ele>61</ele>
        <time>2022-05-03T07:05:12Z</time>
      </trkpt>
      <trkpt lat="47.26147" lon="-1.53837">
        <ele>61</ele>
        <time>2022-05-03T07:05:13Z</time>
      </trkpt>
      <trkpt lat="47.26146" lon="-1.53836">
        <ele>60</ele>
        <time>2022-05-03T07:05:14Z</time>
      </trkpt>
      <trkpt lat="47.26144" lon="-1.53836">
        <ele>61</ele>
        <time>2022-05-03T07:05:15Z</time>
      </trkpt>
      <trkpt lat="47.26143" lon="-1.53836">
        <ele>61</ele>
        <time>2022-05-03T07:05:16Z</time>
      </trkpt>
      <trkpt lat="47.26142" lon="-1.53837">
        <ele>60</ele>
        <time>2022-05-03T07:05:17Z</time>
      </trkpt>
      <trkpt lat="47.2614" lon="-1.53837">
        <ele>61</ele>
        <time>2022-05-03T07:05:18Z</time>
      </trkpt>
      <trkpt lat="47.26139" lon="-1.53837">
        <ele>61</ele>
        <time>2022-05-03T07:05:19Z</time>
      </trkpt>
      <trkpt lat="47.26136" lon="-1.53837">
        <ele>61</ele>
        <time>2022-05-03T07:05:20Z</time>
      </trkpt>
      <trkpt lat="47.26135" lon="-1.53837">
        <ele>61</ele>
        <time>2022-05-03T07:05:21Z</time>
      </trkpt>
      <trkpt lat="47.26134" lon="-1.53837">
        <ele>60</ele>
        <time>2022-05-03T07:05:22Z</time>
      </trkpt>
      <trkpt lat="47.26133" lon="-1.53836">
        <ele>60</ele>
        <time>2022-05-03T07:05:23Z</time>
      </trkpt>
      <trkpt lat="47.26132" lon="-1.53837">
        <ele>60</ele>
        <time>2022-05-03T07:05:24Z</time>
      </trkpt>
      <trkpt lat="47.2613" lon="-1.53836">
        <ele>60</ele>
        <time>2022-05-03T07:05:25Z</time>
      </trkpt>
      <trkpt lat="47.26129" lon="-1.53836">
        <ele>60</ele>
        <time>2022-05-03T07:05:26Z</time>
      </trkpt>
      <trkpt lat="47.26128" lon="-1.53836">
        <ele>60</ele>
        <time>2022-05-03T07:05:27Z</time>
      </trkpt>
      <trkpt lat="47.26127" lon="-1.53836">
        <ele>61</ele>
        <time>2022-05-03T07:05:28Z</time>
      </trkpt>
      <trkpt lat="47.26126" lon="-1.53836">
        <ele>60</ele>
        <time>2022-05-03T07:05:29Z</time>
      </trkpt>
      <trkpt lat="47.26125" lon="-1.53835">
        <ele>61</ele>
        <time>2022-05-03T07:05:30Z</time>
      </trkpt>
      <trkpt lat="47.26123" lon="-1.53835">
        <ele>61</ele>
        <time>2022-05-03T07:05:31Z</time>
      </trkpt>
      <trkpt lat="47.26122" lon="-1.53835">
        <ele>61</ele>
        <time>2022-05-03T07:05:32Z</time>
      </trkpt>
      <trkpt lat="47.26121" lon="-1.53834">
        <ele>61</ele>
        <time>2022-05-03T07:05:33Z</time>
      </trkpt>
      <trkpt lat="47.2612" lon="-1.53834">
        <ele>61</ele>
        <time>2022-05-03T07:05:34Z</time>
      </trkpt>
      <trkpt lat="47.26119" lon="-1.53834">
        <ele>61</ele>
        <time>2022-05-03T07:05:35Z</time>
      </trkpt>
      <trkpt lat="47.26118" lon="-1.53834">
        <ele>62</ele>
        <time>2022-05-03T07:05:36Z</time>
      </trkpt>
      <trkpt lat="47.26117" lon="-1.53834">
        <ele>62</ele>
        <time>2022-05-03T07:05:37Z</time>
      </trkpt>
      <trkpt lat="47.26115" lon="-1.53835">
        <ele>62</ele>
        <time>2022-05-03T07:05:38Z</time>
      </trkpt>
      <trkpt lat="47.26115" lon="-1.53835">
        <ele>62</ele>
        <time>2022-05-03T07:05:39Z</time>
      </trkpt>
      <trkpt lat="47.26114" lon="-1.53835">
        <ele>62</ele>
        <time>2022-05-03T07:05:40Z</time>
      </trkpt>
      <trkpt lat="47.26113" lon="-1.53836">
        <ele>62</ele>
        <time>2022-05-03T07:05:41Z</time>
      </trkpt>
      <trkpt lat="47.26112" lon="-1.53836">
        <ele>62</ele>
        <time>2022-05-03T07:05:42Z</time>
      </trkpt>
      <trkpt lat="47.2611" lon="-1.53837">
        <ele>62</ele>
        <time>2022-05-03T07:05:43Z</time>
      </trkpt>
      <trkpt lat="47.26109" lon="-1.53838">
        <ele>62</ele>
        <time>2022-05-03T07:05:44Z</time>
      </trkpt>
      <trkpt lat="47.26108" lon="-1.53838">
        <ele>61</ele>
        <time>2022-05-03T07:05:45Z</time>
      </trkpt>
      <trkpt lat="47.26107" lon="-1.53839">
        <ele>61</ele>
        <time>2022-05-03T07:05:46Z</time>
      </trkpt>
      <trkpt lat="47.26106" lon="-1.53839">
        <ele>60</ele>
        <time>2022-05-03T07:05:47Z</time>
      </trkpt>
      <trkpt lat="47.26106" lon="-1.53839">
        <ele>60</ele>
        <time>2022-05-03T07:05:48Z</time>
      </trkpt>
      <trkpt lat="47.26106" lon="-1.53839">
        <ele>60</ele>
        <time>2022-05-03T07:05:49Z</time>
      </trkpt>
      <trkpt lat="47.26102" lon="-1.5384">
        <ele>60</ele>
        <time>2022-05-03T07:05:50Z</time>
      </trkpt>
      <trkpt lat="47.26101" lon="-1.5384">
        <ele>60</ele>
        <time>2022-05-03T07:05:51Z</time>
      </trkpt>
      <trkpt lat="47.26097" lon="-1.53841">
        <ele>60</ele>
        <time>2022-05-03T07:05:52Z</time>
      </trkpt>
      <trkpt lat="47.26097" lon="-1.53841">
        <ele>60</ele>
        <time>2022-05-03T07:05:52Z</time>
      </trkpt>
      <trkpt lat="47.26096" lon="-1.53841">
        <ele>60</ele>
        <time>2022-05-03T07:05:54Z</time>
      </trkpt>
      <trkpt lat="47.26095" lon="-1.53841">
        <ele>60</ele>
        <time>2022-05-03T07:05:55Z</time>
      </trkpt>
      <trkpt lat="47.26093" lon="-1.53841">
        <ele>59</ele>
        <time>2022-05-03T07:05:56Z</time>
      </trkpt>
      <trkpt lat="47.26092" lon="-1.53841">
        <ele>59</ele>
        <time>2022-05-03T07:05:57Z</time>
      </trkpt>
      <trkpt lat="47.2609" lon="-1.53841">
        <ele>59</ele>
        <time>2022-05-03T07:05:58Z</time>
      </trkpt>
      <trkpt lat="47.26089" lon="-1.53841">
        <ele>59</ele>
        <time>2022-05-03T07:05:59Z</time>
      </trkpt>
      <trkpt lat="47.26087" lon="-1.53841">
        <ele>59</ele>
        <time>2022-05-03T07:06:00Z</time>
      </trkpt>
      <trkpt lat="47.26086" lon="-1.53842">
        <ele>59</ele>
        <time>2022-05-03T07:06:01Z</time>
      </trkpt>
      <trkpt lat="47.26084" lon="-1.53842">
        <ele>59</ele>
        <time>2022-05-03T07:06:02Z</time>
      </trkpt>
      <trkpt lat="47.26083" lon="-1.53842">
        <ele>60</ele>
        <time>2022-05-03T07:06:03Z</time>
      </trkpt>
      <trkpt lat="47.26081" lon="-1.53843">
        <ele>59</ele>
        <time>2022-05-03T07:06:04Z</time>
      </trkpt>
      <trkpt lat="47.2608" lon="-1.53843">
        <ele>59</ele>
        <time>2022-05-03T07:06:05Z</time>
      </trkpt>
      <trkpt lat="47.26078" lon="-1.53844">
        <ele>59</ele>
        <time>2022-05-03T07:06:06Z</time>
      </trkpt>
      <trkpt lat="47.26077" lon="-1.53844">
        <ele>59</ele>
        <time>2022-05-03T07:06:07Z</time>
      </trkpt>
      <trkpt lat="47.26075" lon="-1.53844">
        <ele>59</ele>
        <time>2022-05-03T07:06:08Z</time>
      </trkpt>
      <trkpt lat="47.26072" lon="-1.53845">
        <ele>58</ele>
        <time>2022-05-03T07:06:09Z</time>
      </trkpt>
      <trkpt lat="47.26071" lon="-1.53845">
        <ele>58</ele>
        <time>2022-05-03T07:06:10Z</time>
      </trkpt>
      <trkpt lat="47.26069" lon="-1.53845">
        <ele>58</ele>
        <time>2022-05-03T07:06:11Z</time>
      </trkpt>
      <trkpt lat="47.26067" lon="-1.53844">
        <ele>58</ele>
        <time>2022-05-03T07:06:12Z</time>
      </trkpt>
      <trkpt lat="47.26066" lon="-1.53844">
        <ele>58</ele>
        <time>2022-05-03T07:06:13Z</time>
      </trkpt>
      <trkpt lat="47.26064" lon="-1.53844">
        <ele>58</ele>
        <time>2022-05-03T07:06:14Z</time>
      </trkpt>
      <trkpt lat="47.26064" lon="-1.53844">
        <ele>58</ele>
        <time>2022-05-03T07:06:15Z</time>
      </trkpt>
      <trkpt lat="47.26062" lon="-1.53844">
        <ele>58</ele>
        <time>2022-05-03T07:06:16Z</time>
      </trkpt>
      <trkpt lat="47.26061" lon="-1.53844">
        <ele>58</ele>
        <time>2022-05-03T07:06:17Z</time>
      </trkpt>
      <trkpt lat="47.26059" lon="-1.53844">
        <ele>58</ele>
        <time>2022-05-03T07:06:18Z</time>
      </trkpt>
      <trkpt lat="47.26057" lon="-1.53845">
        <ele>58</ele>
        <time>2022-05-03T07:06:19Z</time>
      </trkpt>
      <trkpt lat="47.26055" lon="-1.53844">
        <ele>58</ele>
        <time>2022-05-03T07:06:20Z</time>
      </trkpt>
      <trkpt lat="47.26053" lon="-1.53845">
        <ele>58</ele>
        <time>2022-05-03T07:06:21Z</time>
      </trkpt>
      <trkpt lat="47.26051" lon="-1.53844">
        <ele>58</ele>
        <time>2022-05-03T07:06:22Z</time>
      </trkpt>
      <trkpt lat="47.26049" lon="-1.53844">
        <ele>57</ele>
        <time>2022-05-03T07:06:23Z</time>
      </trkpt>
      <trkpt lat="47.26047" lon="-1.53844">
        <ele>57</ele>
        <time>2022-05-03T07:06:24Z</time>
      </trkpt>
      <trkpt lat="47.26045" lon="-1.53844">
        <ele>57</ele>
        <time>2022-05-03T07:06:25Z</time>
      </trkpt>
      <trkpt lat="47.26043" lon="-1.53844">
        <ele>56</ele>
        <time>2022-05-03T07:06:26Z</time>
      </trkpt>
      <trkpt lat="47.26042" lon="-1.53844">
        <ele>56</ele>
        <time>2022-05-03T07:06:27Z</time>
      </trkpt>
      <trkpt lat="47.2604" lon="-1.53843">
        <ele>56</ele>
        <time>2022-05-03T07:06:28Z</time>
      </trkpt>
      <trkpt lat="47.26038" lon="-1.53843">
        <ele>56</ele>
        <time>2022-05-03T07:06:29Z</time>
      </trkpt>
      <trkpt lat="47.26035" lon="-1.53842">
        <ele>56</ele>
        <time>2022-05-03T07:06:30Z</time>
      </trkpt>
      <trkpt lat="47.26034" lon="-1.53842">
        <ele>55</ele>
        <time>2022-05-03T07:06:31Z</time>
      </trkpt>
      <trkpt lat="47.26033" lon="-1.53842">
        <ele>56</ele>
        <time>2022-05-03T07:06:32Z</time>
      </trkpt>
      <trkpt lat="47.26031" lon="-1.53842">
        <ele>56</ele>
        <time>2022-05-03T07:06:33Z</time>
      </trkpt>
      <trkpt lat="47.26029" lon="-1.53843">
        <ele>56</ele>
        <time>2022-05-03T07:06:34Z</time>
      </trkpt>
      <trkpt lat="47.26027" lon="-1.53843">
        <ele>55</ele>
        <time>2022-05-03T07:06:35Z</time>
      </trkpt>
      <trkpt lat="47.26026" lon="-1.53843">
        <ele>55</ele>
        <time>2022-05-03T07:06:36Z</time>
      </trkpt>
      <trkpt lat="47.26025" lon="-1.53844">
        <ele>55</ele>
        <time>2022-05-03T07:06:37Z</time>
      </trkpt>
      <trkpt lat="47.26023" lon="-1.53844">
        <ele>55</ele>
        <time>2022-05-03T07:06:38Z</time>
      </trkpt>
      <trkpt lat="47.26022" lon="-1.53844">
        <ele>55</ele>
        <time>2022-05-03T07:06:39Z</time>
      </trkpt>
      <trkpt lat="47.2602" lon="-1.53844">
        <ele>55</ele>
        <time>2022-05-03T07:06:40Z</time>
      </trkpt>
      <trkpt lat="47.26019" lon="-1.53844">
        <ele>55</ele>
        <time>2022-05-03T07:06:41Z</time>
      </trkpt>
      <trkpt lat="47.26017" lon="-1.53844">
        <ele>55</ele>
        <time>2022-05-03T07:06:42Z</time>
      </trkpt>
      <trkpt lat="47.26014" lon="-1.53844">
        <ele>55</ele>
        <time>2022-05-03T07:06:43Z</time>
      </trkpt>
      <trkpt lat="47.26014" lon="-1.53844">
        <ele>55</ele>
        <time>2022-05-03T07:06:43Z</time>
      </trkpt>
      <trkpt lat="47.26012" lon="-1.53845">
        <ele>55</ele>
        <time>2022-05-03T07:06:45Z</time>
      </trkpt>
      <trkpt lat="47.26011" lon="-1.53845">
        <ele>55</ele>
        <time>2022-05-03T07:06:46Z</time>
      </trkpt>
      <trkpt lat="47.26009" lon="-1.53846">
        <ele>54</ele>
        <time>2022-05-03T07:06:47Z</time>
      </trkpt>
      <trkpt lat="47.26008" lon="-1.53846">
        <ele>54</ele>
        <time>2022-05-03T07:06:48Z</time>
      </trkpt>
      <trkpt lat="47.26006" lon="-1.53846">
        <ele>54</ele>
        <time>2022-05-03T07:06:49Z</time>
      </trkpt>
      <trkpt lat="47.26004" lon="-1.53846">
        <ele>54</ele>
        <time>2022-05-03T07:06:50Z</time>
      </trkpt>
      <trkpt lat="47.26003" lon="-1.53845">
        <ele>54</ele>
        <time>2022-05-03T07:06:51Z</time>
      </trkpt>
      <trkpt lat="47.26001" lon="-1.53846">
        <ele>54</ele>
        <time>2022-05-03T07:06:52Z</time>
      </trkpt>
      <trkpt lat="47.26" lon="-1.53846">
        <ele>54</ele>
        <time>2022-05-03T07:06:53Z</time>
      </trkpt>
      <trkpt lat="47.25998" lon="-1.53846">
        <ele>54</ele>
        <time>2022-05-03T07:06:54Z</time>
      </trkpt>
      <trkpt lat="47.25996" lon="-1.53846">
        <ele>55</ele>
        <time>2022-05-03T07:06:55Z</time>
      </trkpt>
      <trkpt lat="47.25995" lon="-1.53847">
        <ele>54</ele>
        <time>2022-05-03T07:06:56Z</time>
      </trkpt>
      <trkpt lat="47.25993" lon="-1.53847">
        <ele>54</ele>
        <time>2022-05-03T07:06:57Z</time>
      </trkpt>
      <trkpt lat="47.25991" lon="-1.53848">
        <ele>54</ele>
        <time>2022-05-03T07:06:58Z</time>
      </trkpt>
      <trkpt lat="47.2599" lon="-1.53849">
        <ele>54</ele>
        <time>2022-05-03T07:06:59Z</time>
      </trkpt>
      <trkpt lat="47.25989" lon="-1.53849">
        <ele>54</ele>
        <time>2022-05-03T07:07:00Z</time>
      </trkpt>
      <trkpt lat="47.25989" lon="-1.53849">
        <ele>54</ele>
        <time>2022-05-03T07:07:00Z</time>
      </trkpt>
      <trkpt lat="47.25987" lon="-1.53849">
        <ele>54</ele>
        <time>2022-05-03T07:07:02Z</time>
      </trkpt>
      <trkpt lat="47.25986" lon="-1.5385">
        <ele>54</ele>
        <time>2022-05-03T07:07:03Z</time>
      </trkpt>
      <trkpt lat="47.25984" lon="-1.53851">
        <ele>55</ele>
        <time>2022-05-03T07:07:04Z</time>
      </trkpt>
      <trkpt lat="47.25984" lon="-1.53851">
        <ele>55</ele>
        <time>2022-05-03T07:07:04Z</time>
      </trkpt>
      <trkpt lat="47.25982" lon="-1.53852">
        <ele>56</ele>
        <time>2022-05-03T07:07:06Z</time>
      </trkpt>
      <trkpt lat="47.25982" lon="-1.53852">
        <ele>56</ele>
        <time>2022-05-03T07:07:06Z</time>
      </trkpt>
      <trkpt lat="47.2598" lon="-1.53853">
        <ele>56</ele>
        <time>2022-05-03T07:07:08Z</time>
      </trkpt>
      <trkpt lat="47.25979" lon="-1.53854">
        <ele>55</ele>
        <time>2022-05-03T07:07:09Z</time>
      </trkpt>
      <trkpt lat="47.25978" lon="-1.53855">
        <ele>55</ele>
        <time>2022-05-03T07:07:10Z</time>
      </trkpt>
      <trkpt lat="47.25977" lon="-1.53855">
        <ele>55</ele>
        <time>2022-05-03T07:07:11Z</time>
      </trkpt>
      <trkpt lat="47.25976" lon="-1.53856">
        <ele>55</ele>
        <time>2022-05-03T07:07:12Z</time>
      </trkpt>
      <trkpt lat="47.25976" lon="-1.53856">
        <ele>55</ele>
        <time>2022-05-03T07:07:12Z</time>
      </trkpt>
      <trkpt lat="47.25975" lon="-1.53856">
        <ele>54</ele>
        <time>2022-05-03T07:07:14Z</time>
      </trkpt>
      <trkpt lat="47.25973" lon="-1.53857">
        <ele>55</ele>
        <time>2022-05-03T07:07:15Z</time>
      </trkpt>
      <trkpt lat="47.25972" lon="-1.53858">
        <ele>55</ele>
        <time>2022-05-03T07:07:16Z</time>
      </trkpt>
      <trkpt lat="47.25971" lon="-1.53859">
        <ele>55</ele>
        <time>2022-05-03T07:07:17Z</time>
      </trkpt>
      <trkpt lat="47.2597" lon="-1.5386">
        <ele>55</ele>
        <time>2022-05-03T07:07:18Z</time>
      </trkpt>
      <trkpt lat="47.25969" lon="-1.53861">
        <ele>55</ele>
        <time>2022-05-03T07:07:19Z</time>
      </trkpt>
      <trkpt lat="47.25969" lon="-1.53861">
        <ele>55</ele>
        <time>2022-05-03T07:07:20Z</time>
      </trkpt>
      <trkpt lat="47.25967" lon="-1.53862">
        <ele>55</ele>
        <time>2022-05-03T07:07:21Z</time>
      </trkpt>
      <trkpt lat="47.25966" lon="-1.53863">
        <ele>54</ele>
        <time>2022-05-03T07:07:22Z</time>
      </trkpt>
      <trkpt lat="47.25965" lon="-1.53863">
        <ele>55</ele>
        <time>2022-05-03T07:07:23Z</time>
      </trkpt>
      <trkpt lat="47.25964" lon="-1.53863">
        <ele>55</ele>
        <time>2022-05-03T07:07:24Z</time>
      </trkpt>
      <trkpt lat="47.25962" lon="-1.53864">
        <ele>55</ele>
        <time>2022-05-03T07:07:25Z</time>
      </trkpt>
      <trkpt lat="47.25962" lon="-1.53865">
        <ele>55</ele>
        <time>2022-05-03T07:07:26Z</time>
      </trkpt>
      <trkpt lat="47.2596" lon="-1.53866">
        <ele>56</ele>
        <time>2022-05-03T07:07:27Z</time>
      </trkpt>
      <trkpt lat="47.25959" lon="-1.53867">
        <ele>55</ele>
        <time>2022-05-03T07:07:28Z</time>
      </trkpt>
      <trkpt lat="47.25958" lon="-1.53868">
        <ele>56</ele>
        <time>2022-05-03T07:07:29Z</time>
      </trkpt>
      <trkpt lat="47.25957" lon="-1.53869">
        <ele>56</ele>
        <time>2022-05-03T07:07:30Z</time>
      </trkpt>
      <trkpt lat="47.25955" lon="-1.53869">
        <ele>55</ele>
        <time>2022-05-03T07:07:31Z</time>
      </trkpt>
      <trkpt lat="47.25954" lon="-1.5387">
        <ele>55</ele>
        <time>2022-05-03T07:07:32Z</time>
      </trkpt>
      <trkpt lat="47.25953" lon="-1.53871">
        <ele>54</ele>
        <time>2022-05-03T07:07:33Z</time>
      </trkpt>
      <trkpt lat="47.25952" lon="-1.53872">
        <ele>54</ele>
        <time>2022-05-03T07:07:34Z</time>
      </trkpt>
      <trkpt lat="47.25952" lon="-1.53872">
        <ele>54</ele>
        <time>2022-05-03T07:07:35Z</time>
      </trkpt>
      <trkpt lat="47.25951" lon="-1.53872">
        <ele>54</ele>
        <time>2022-05-03T07:07:36Z</time>
      </trkpt>
      <trkpt lat="47.25951" lon="-1.53872">
        <ele>54</ele>
        <time>2022-05-03T07:07:37Z</time>
      </trkpt>
      <trkpt lat="47.25951" lon="-1.53872">
        <ele>54</ele>
        <time>2022-05-03T07:07:38Z</time>
      </trkpt>
      <trkpt lat="47.25949" lon="-1.53875">
        <ele>54</ele>
        <time>2022-05-03T07:07:39Z</time>
      </trkpt>
      <trkpt lat="47.25948" lon="-1.53876">
        <ele>54</ele>
        <time>2022-05-03T07:07:40Z</time>
      </trkpt>
      <trkpt lat="47.25946" lon="-1.53877">
        <ele>54</ele>
        <time>2022-05-03T07:07:41Z</time>
      </trkpt>
      <trkpt lat="47.25945" lon="-1.53878">
        <ele>54</ele>
        <time>2022-05-03T07:07:42Z</time>
      </trkpt>
      <trkpt lat="47.25945" lon="-1.53878">
        <ele>54</ele>
        <time>2022-05-03T07:07:43Z</time>
      </trkpt>
      <trkpt lat="47.25943" lon="-1.53878">
        <ele>55</ele>
        <time>2022-05-03T07:07:44Z</time>
      </trkpt>
      <trkpt lat="47.25943" lon="-1.53879">
        <ele>55</ele>
        <time>2022-05-03T07:07:45Z</time>
      </trkpt>
      <trkpt lat="47.25941" lon="-1.5388">
        <ele>55</ele>
        <time>2022-05-03T07:07:46Z</time>
      </trkpt>
      <trkpt lat="47.25941" lon="-1.5388">
        <ele>55</ele>
        <time>2022-05-03T07:07:47Z</time>
      </trkpt>
      <trkpt lat="47.2594" lon="-1.53881">
        <ele>55</ele>
        <time>2022-05-03T07:07:48Z</time>
      </trkpt>
      <trkpt lat="47.25937" lon="-1.53883">
        <ele>56</ele>
        <time>2022-05-03T07:07:49Z</time>
      </trkpt>
      <trkpt lat="47.25936" lon="-1.53884">
        <ele>55</ele>
        <time>2022-05-03T07:07:50Z</time>
      </trkpt>
      <trkpt lat="47.25934" lon="-1.53885">
        <ele>55</ele>
        <time>2022-05-03T07:07:51Z</time>
      </trkpt>
      <trkpt lat="47.25932" lon="-1.53886">
        <ele>55</ele>
        <time>2022-05-03T07:07:52Z</time>
      </trkpt>
      <trkpt lat="47.2593" lon="-1.53887">
        <ele>55</ele>
        <time>2022-05-03T07:07:53Z</time>
      </trkpt>
      <trkpt lat="47.25929" lon="-1.53887">
        <ele>55</ele>
        <time>2022-05-03T07:07:54Z</time>
      </trkpt>
      <trkpt lat="47.25927" lon="-1.53888">
        <ele>55</ele>
        <time>2022-05-03T07:07:55Z</time>
      </trkpt>
      <trkpt lat="47.25925" lon="-1.53889">
        <ele>55</ele>
        <time>2022-05-03T07:07:56Z</time>
      </trkpt>
      <trkpt lat="47.25924" lon="-1.53889">
        <ele>55</ele>
        <time>2022-05-03T07:07:57Z</time>
      </trkpt>
      <trkpt lat="47.25922" lon="-1.5389">
        <ele>55</ele>
        <time>2022-05-03T07:07:58Z</time>
      </trkpt>
      <trkpt lat="47.25921" lon="-1.53891">
        <ele>55</ele>
        <time>2022-05-03T07:07:59Z</time>
      </trkpt>
      <trkpt lat="47.25919" lon="-1.53892">
        <ele>55</ele>
        <time>2022-05-03T07:08:00Z</time>
      </trkpt>
      <trkpt lat="47.25917" lon="-1.53893">
        <ele>55</ele>
        <time>2022-05-03T07:08:01Z</time>
      </trkpt>
      <trkpt lat="47.25916" lon="-1.53894">
        <ele>55</ele>
        <time>2022-05-03T07:08:02Z</time>
      </trkpt>
      <trkpt lat="47.25914" lon="-1.53895">
        <ele>54</ele>
        <time>2022-05-03T07:08:03Z</time>
      </trkpt>
      <trkpt lat="47.25912" lon="-1.53895">
        <ele>54</ele>
        <time>2022-05-03T07:08:04Z</time>
      </trkpt>
      <trkpt lat="47.25911" lon="-1.53896">
        <ele>54</ele>
        <time>2022-05-03T07:08:05Z</time>
      </trkpt>
      <trkpt lat="47.25909" lon="-1.53897">
        <ele>54</ele>
        <time>2022-05-03T07:08:06Z</time>
      </trkpt>
      <trkpt lat="47.25908" lon="-1.53898">
        <ele>54</ele>
        <time>2022-05-03T07:08:07Z</time>
      </trkpt>
      <trkpt lat="47.25908" lon="-1.53898">
        <ele>54</ele>
        <time>2022-05-03T07:08:08Z</time>
      </trkpt>
      <trkpt lat="47.25907" lon="-1.53899">
        <ele>54</ele>
        <time>2022-05-03T07:08:09Z</time>
      </trkpt>
      <trkpt lat="47.25906" lon="-1.539">
        <ele>54</ele>
        <time>2022-05-03T07:08:10Z</time>
      </trkpt>
      <trkpt lat="47.25904" lon="-1.53901">
        <ele>54</ele>
        <time>2022-05-03T07:08:11Z</time>
      </trkpt>
      <trkpt lat="47.25903" lon="-1.53902">
        <ele>54</ele>
        <time>2022-05-03T07:08:12Z</time>
      </trkpt>
      <trkpt lat="47.25901" lon="-1.53903">
        <ele>54</ele>
        <time>2022-05-03T07:08:13Z</time>
      </trkpt>
      <trkpt lat="47.259" lon="-1.53904">
        <ele>54</ele>
        <time>2022-05-03T07:08:14Z</time>
      </trkpt>
      <trkpt lat="47.25898" lon="-1.53905">
        <ele>54</ele>
        <time>2022-05-03T07:08:15Z</time>
      </trkpt>
      <trkpt lat="47.25897" lon="-1.53906">
        <ele>54</ele>
        <time>2022-05-03T07:08:16Z</time>
      </trkpt>
      <trkpt lat="47.25896" lon="-1.53908">
        <ele>55</ele>
        <time>2022-05-03T07:08:17Z</time>
      </trkpt>
      <trkpt lat="47.25894" lon="-1.53909">
        <ele>55</ele>
        <time>2022-05-03T07:08:18Z</time>
      </trkpt>
      <trkpt lat="47.25893" lon="-1.5391">
        <ele>55</ele>
        <time>2022-05-03T07:08:19Z</time>
      </trkpt>
      <trkpt lat="47.25891" lon="-1.53911">
        <ele>55</ele>
        <time>2022-05-03T07:08:20Z</time>
      </trkpt>
      <trkpt lat="47.2589" lon="-1.53912">
        <ele>55</ele>
        <time>2022-05-03T07:08:21Z</time>
      </trkpt>
      <trkpt lat="47.25888" lon="-1.53914">
        <ele>55</ele>
        <time>2022-05-03T07:08:22Z</time>
      </trkpt>
      <trkpt lat="47.25887" lon="-1.53915">
        <ele>55</ele>
        <time>2022-05-03T07:08:23Z</time>
      </trkpt>
      <trkpt lat="47.25887" lon="-1.53916">
        <ele>55</ele>
        <time>2022-05-03T07:08:24Z</time>
      </trkpt>
      <trkpt lat="47.25886" lon="-1.53917">
        <ele>55</ele>
        <time>2022-05-03T07:08:25Z</time>
      </trkpt>
      <trkpt lat="47.25885" lon="-1.53918">
        <ele>55</ele>
        <time>2022-05-03T07:08:26Z</time>
      </trkpt>
      <trkpt lat="47.25884" lon="-1.53919">
        <ele>55</ele>
        <time>2022-05-03T07:08:27Z</time>
      </trkpt>
      <trkpt lat="47.25883" lon="-1.5392">
        <ele>55</ele>
        <time>2022-05-03T07:08:28Z</time>
      </trkpt>
      <trkpt lat="47.25881" lon="-1.53921">
        <ele>55</ele>
        <time>2022-05-03T07:08:29Z</time>
      </trkpt>
      <trkpt lat="47.2588" lon="-1.53922">
        <ele>55</ele>
        <time>2022-05-03T07:08:30Z</time>
      </trkpt>
      <trkpt lat="47.25879" lon="-1.53923">
        <ele>55</ele>
        <time>2022-05-03T07:08:31Z</time>
      </trkpt>
      <trkpt lat="47.25877" lon="-1.53924">
        <ele>55</ele>
        <time>2022-05-03T07:08:32Z</time>
      </trkpt>
      <trkpt lat="47.25876" lon="-1.53925">
        <ele>56</ele>
        <time>2022-05-03T07:08:33Z</time>
      </trkpt>
      <trkpt lat="47.25875" lon="-1.53926">
        <ele>56</ele>
        <time>2022-05-03T07:08:34Z</time>
      </trkpt>
      <trkpt lat="47.25874" lon="-1.53927">
        <ele>55</ele>
        <time>2022-05-03T07:08:35Z</time>
      </trkpt>
      <trkpt lat="47.25872" lon="-1.53928">
        <ele>55</ele>
        <time>2022-05-03T07:08:36Z</time>
      </trkpt>
      <trkpt lat="47.25871" lon="-1.53929">
        <ele>55</ele>
        <time>2022-05-03T07:08:37Z</time>
      </trkpt>
      <trkpt lat="47.2587" lon="-1.53929">
        <ele>55</ele>
        <time>2022-05-03T07:08:38Z</time>
      </trkpt>
      <trkpt lat="47.25868" lon="-1.53931">
        <ele>55</ele>
        <time>2022-05-03T07:08:39Z</time>
      </trkpt>
      <trkpt lat="47.25867" lon="-1.53931">
        <ele>56</ele>
        <time>2022-05-03T07:08:40Z</time>
      </trkpt>
      <trkpt lat="47.25866" lon="-1.53932">
        <ele>56</ele>
        <time>2022-05-03T07:08:41Z</time>
      </trkpt>
      <trkpt lat="47.25864" lon="-1.53933">
        <ele>56</ele>
        <time>2022-05-03T07:08:42Z</time>
      </trkpt>
      <trkpt lat="47.25863" lon="-1.53933">
        <ele>56</ele>
        <time>2022-05-03T07:08:43Z</time>
      </trkpt>
      <trkpt lat="47.25862" lon="-1.53934">
        <ele>56</ele>
        <time>2022-05-03T07:08:44Z</time>
      </trkpt>
      <trkpt lat="47.25861" lon="-1.53935">
        <ele>56</ele>
        <time>2022-05-03T07:08:45Z</time>
      </trkpt>
      <trkpt lat="47.25859" lon="-1.53936">
        <ele>56</ele>
        <time>2022-05-03T07:08:46Z</time>
      </trkpt>
      <trkpt lat="47.25858" lon="-1.53937">
        <ele>56</ele>
        <time>2022-05-03T07:08:47Z</time>
      </trkpt>
      <trkpt lat="47.25857" lon="-1.53938">
        <ele>56</ele>
        <time>2022-05-03T07:08:48Z</time>
      </trkpt>
      <trkpt lat="47.25856" lon="-1.53939">
        <ele>56</ele>
        <time>2022-05-03T07:08:49Z</time>
      </trkpt>
      <trkpt lat="47.25855" lon="-1.53939">
        <ele>56</ele>
        <time>2022-05-03T07:08:50Z</time>
      </trkpt>
      <trkpt lat="47.25854" lon="-1.5394">
        <ele>57</ele>
        <time>2022-05-03T07:08:51Z</time>
      </trkpt>
      <trkpt lat="47.25853" lon="-1.53941">
        <ele>57</ele>
        <time>2022-05-03T07:08:52Z</time>
      </trkpt>
      <trkpt lat="47.25853" lon="-1.53942">
        <ele>57</ele>
        <time>2022-05-03T07:08:53Z</time>
      </trkpt>
      <trkpt lat="47.25852" lon="-1.53943">
        <ele>57</ele>
        <time>2022-05-03T07:08:54Z</time>
      </trkpt>
      <trkpt lat="47.25851" lon="-1.53944">
        <ele>57</ele>
        <time>2022-05-03T07:08:55Z</time>
      </trkpt>
      <trkpt lat="47.2585" lon="-1.53945">
        <ele>57</ele>
        <time>2022-05-03T07:08:56Z</time>
      </trkpt>
      <trkpt lat="47.25848" lon="-1.53946">
        <ele>57</ele>
        <time>2022-05-03T07:08:57Z</time>
      </trkpt>
      <trkpt lat="47.25847" lon="-1.53947">
        <ele>57</ele>
        <time>2022-05-03T07:08:58Z</time>
      </trkpt>
      <trkpt lat="47.25845" lon="-1.53948">
        <ele>57</ele>
        <time>2022-05-03T07:08:59Z</time>
      </trkpt>
      <trkpt lat="47.25843" lon="-1.53948">
        <ele>57</ele>
        <time>2022-05-03T07:09:00Z</time>
      </trkpt>
      <trkpt lat="47.25842" lon="-1.53949">
        <ele>58</ele>
        <time>2022-05-03T07:09:01Z</time>
      </trkpt>
      <trkpt lat="47.2584" lon="-1.53949">
        <ele>58</ele>
        <time>2022-05-03T07:09:02Z</time>
      </trkpt>
      <trkpt lat="47.25839" lon="-1.53949">
        <ele>58</ele>
        <time>2022-05-03T07:09:03Z</time>
      </trkpt>
      <trkpt lat="47.25838" lon="-1.53949">
        <ele>58</ele>
        <time>2022-05-03T07:09:04Z</time>
      </trkpt>
      <trkpt lat="47.25836" lon="-1.53949">
        <ele>59</ele>
        <time>2022-05-03T07:09:05Z</time>
      </trkpt>
      <trkpt lat="47.25835" lon="-1.53949">
        <ele>59</ele>
        <time>2022-05-03T07:09:06Z</time>
      </trkpt>
      <trkpt lat="47.25834" lon="-1.5395">
        <ele>60</ele>
        <time>2022-05-03T07:09:07Z</time>
      </trkpt>
      <trkpt lat="47.25832" lon="-1.5395">
        <ele>60</ele>
        <time>2022-05-03T07:09:08Z</time>
      </trkpt>
      <trkpt lat="47.25831" lon="-1.5395">
        <ele>60</ele>
        <time>2022-05-03T07:09:09Z</time>
      </trkpt>
      <trkpt lat="47.25829" lon="-1.5395">
        <ele>61</ele>
        <time>2022-05-03T07:09:10Z</time>
      </trkpt>
      <trkpt lat="47.25828" lon="-1.5395">
        <ele>61</ele>
        <time>2022-05-03T07:09:11Z</time>
      </trkpt>
      <trkpt lat="47.25827" lon="-1.5395">
        <ele>61</ele>
        <time>2022-05-03T07:09:12Z</time>
      </trkpt>
      <trkpt lat="47.25826" lon="-1.5395">
        <ele>61</ele>
        <time>2022-05-03T07:09:13Z</time>
      </trkpt>
      <trkpt lat="47.25825" lon="-1.5395">
        <ele>61</ele>
        <time>2022-05-03T07:09:14Z</time>
      </trkpt>
      <trkpt lat="47.25824" lon="-1.5395">
        <ele>61</ele>
        <time>2022-05-03T07:09:15Z</time>
      </trkpt>
      <trkpt lat="47.25822" lon="-1.53951">
        <ele>61</ele>
        <time>2022-05-03T07:09:16Z</time>
      </trkpt>
      <trkpt lat="47.25822" lon="-1.53951">
        <ele>61</ele>
        <time>2022-05-03T07:09:17Z</time>
      </trkpt>
      <trkpt lat="47.2582" lon="-1.53952">
        <ele>61</ele>
        <time>2022-05-03T07:09:18Z</time>
      </trkpt>
      <trkpt lat="47.25819" lon="-1.53953">
        <ele>61</ele>
        <time>2022-05-03T07:09:19Z</time>
      </trkpt>
      <trkpt lat="47.25818" lon="-1.53953">
        <ele>61</ele>
        <time>2022-05-03T07:09:20Z</time>
      </trkpt>
      <trkpt lat="47.25818" lon="-1.53953">
        <ele>61</ele>
        <time>2022-05-03T07:09:21Z</time>
      </trkpt>
      <trkpt lat="47.25816" lon="-1.53953">
        <ele>61</ele>
        <time>2022-05-03T07:09:22Z</time>
      </trkpt>
      <trkpt lat="47.25815" lon="-1.53953">
        <ele>62</ele>
        <time>2022-05-03T07:09:23Z</time>
      </trkpt>
      <trkpt lat="47.25814" lon="-1.53953">
        <ele>62</ele>
        <time>2022-05-03T07:09:24Z</time>
      </trkpt>
      <trkpt lat="47.25812" lon="-1.53953">
        <ele>62</ele>
        <time>2022-05-03T07:09:25Z</time>
      </trkpt>
      <trkpt lat="47.25811" lon="-1.53953">
        <ele>62</ele>
        <time>2022-05-03T07:09:26Z</time>
      </trkpt>
      <trkpt lat="47.2581" lon="-1.53953">
        <ele>62</ele>
        <time>2022-05-03T07:09:27Z</time>
      </trkpt>
      <trkpt lat="47.25808" lon="-1.53954">
        <ele>62</ele>
        <time>2022-05-03T07:09:28Z</time>
      </trkpt>
      <trkpt lat="47.25806" lon="-1.53955">
        <ele>62</ele>
        <time>2022-05-03T07:09:29Z</time>
      </trkpt>
      <trkpt lat="47.25804" lon="-1.53955">
        <ele>62</ele>
        <time>2022-05-03T07:09:30Z</time>
      </trkpt>
      <trkpt lat="47.25802" lon="-1.53956">
        <ele>62</ele>
        <time>2022-05-03T07:09:31Z</time>
      </trkpt>
      <trkpt lat="47.258" lon="-1.53957">
        <ele>62</ele>
        <time>2022-05-03T07:09:32Z</time>
      </trkpt>
      <trkpt lat="47.25798" lon="-1.53958">
        <ele>62</ele>
        <time>2022-05-03T07:09:33Z</time>
      </trkpt>
      <trkpt lat="47.25797" lon="-1.53959">
        <ele>62</ele>
        <time>2022-05-03T07:09:34Z</time>
      </trkpt>
      <trkpt lat="47.25795" lon="-1.53959">
        <ele>62</ele>
        <time>2022-05-03T07:09:35Z</time>
      </trkpt>
      <trkpt lat="47.25793" lon="-1.5396">
        <ele>62</ele>
        <time>2022-05-03T07:09:36Z</time>
      </trkpt>
      <trkpt lat="47.25791" lon="-1.5396">
        <ele>62</ele>
        <time>2022-05-03T07:09:37Z</time>
      </trkpt>
      <trkpt lat="47.2579" lon="-1.53961">
        <ele>62</ele>
        <time>2022-05-03T07:09:38Z</time>
      </trkpt>
      <trkpt lat="47.25789" lon="-1.53962">
        <ele>62</ele>
        <time>2022-05-03T07:09:39Z</time>
      </trkpt>
      <trkpt lat="47.25788" lon="-1.53962">
        <ele>62</ele>
        <time>2022-05-03T07:09:40Z</time>
      </trkpt>
      <trkpt lat="47.25787" lon="-1.53963">
        <ele>62</ele>
        <time>2022-05-03T07:09:41Z</time>
      </trkpt>
      <trkpt lat="47.25786" lon="-1.53963">
        <ele>62</ele>
        <time>2022-05-03T07:09:42Z</time>
      </trkpt>
      <trkpt lat="47.25784" lon="-1.53964">
        <ele>62</ele>
        <time>2022-05-03T07:09:43Z</time>
      </trkpt>
      <trkpt lat="47.25783" lon="-1.53964">
        <ele>62</ele>
        <time>2022-05-03T07:09:44Z</time>
      </trkpt>
      <trkpt lat="47.25782" lon="-1.53965">
        <ele>62</ele>
        <time>2022-05-03T07:09:45Z</time>
      </trkpt>
      <trkpt lat="47.2578" lon="-1.53965">
        <ele>62</ele>
        <time>2022-05-03T07:09:46Z</time>
      </trkpt>
      <trkpt lat="47.25779" lon="-1.53965">
        <ele>63</ele>
        <time>2022-05-03T07:09:47Z</time>
      </trkpt>
      <trkpt lat="47.25777" lon="-1.53966">
        <ele>63</ele>
        <time>2022-05-03T07:09:48Z</time>
      </trkpt>
      <trkpt lat="47.25776" lon="-1.53966">
        <ele>63</ele>
        <time>2022-05-03T07:09:49Z</time>
      </trkpt>
      <trkpt lat="47.25775" lon="-1.53967">
        <ele>63</ele>
        <time>2022-05-03T07:09:50Z</time>
      </trkpt>
      <trkpt lat="47.25774" lon="-1.53967">
        <ele>63</ele>
        <time>2022-05-03T07:09:51Z</time>
      </trkpt>
      <trkpt lat="47.25773" lon="-1.53967">
        <ele>63</ele>
        <time>2022-05-03T07:09:52Z</time>
      </trkpt>
      <trkpt lat="47.25772" lon="-1.53967">
        <ele>63</ele>
        <time>2022-05-03T07:09:53Z</time>
      </trkpt>
      <trkpt lat="47.25771" lon="-1.53967">
        <ele>63</ele>
        <time>2022-05-03T07:09:54Z</time>
      </trkpt>
      <trkpt lat="47.25769" lon="-1.53967">
        <ele>63</ele>
        <time>2022-05-03T07:09:55Z</time>
      </trkpt>
      <trkpt lat="47.25768" lon="-1.53966">
        <ele>63</ele>
        <time>2022-05-03T07:09:56Z</time>
      </trkpt>
      <trkpt lat="47.25767" lon="-1.53966">
        <ele>63</ele>
        <time>2022-05-03T07:09:57Z</time>
      </trkpt>
      <trkpt lat="47.25766" lon="-1.53965">
        <ele>63</ele>
        <time>2022-05-03T07:09:58Z</time>
      </trkpt>
      <trkpt lat="47.25765" lon="-1.53964">
        <ele>63</ele>
        <time>2022-05-03T07:09:59Z</time>
      </trkpt>
      <trkpt lat="47.25764" lon="-1.53964">
        <ele>63</ele>
        <time>2022-05-03T07:10:00Z</time>
      </trkpt>
      <trkpt lat="47.25763" lon="-1.53963">
        <ele>64</ele>
        <time>2022-05-03T07:10:01Z</time>
      </trkpt>
      <trkpt lat="47.25761" lon="-1.53962">
        <ele>64</ele>
        <time>2022-05-03T07:10:02Z</time>
      </trkpt>
      <trkpt lat="47.2576" lon="-1.53961">
        <ele>64</ele>
        <time>2022-05-03T07:10:03Z</time>
      </trkpt>
      <trkpt lat="47.25758" lon="-1.53959">
        <ele>64</ele>
        <time>2022-05-03T07:10:04Z</time>
      </trkpt>
      <trkpt lat="47.25757" lon="-1.53958">
        <ele>65</ele>
        <time>2022-05-03T07:10:05Z</time>
      </trkpt>
      <trkpt lat="47.25755" lon="-1.53957">
        <ele>65</ele>
        <time>2022-05-03T07:10:06Z</time>
      </trkpt>
      <trkpt lat="47.25754" lon="-1.53955">
        <ele>65</ele>
        <time>2022-05-03T07:10:07Z</time>
      </trkpt>
      <trkpt lat="47.25753" lon="-1.53954">
        <ele>65</ele>
        <time>2022-05-03T07:10:08Z</time>
      </trkpt>
      <trkpt lat="47.25752" lon="-1.53952">
        <ele>65</ele>
        <time>2022-05-03T07:10:09Z</time>
      </trkpt>
      <trkpt lat="47.2575" lon="-1.53951">
        <ele>65</ele>
        <time>2022-05-03T07:10:10Z</time>
      </trkpt>
      <trkpt lat="47.25748" lon="-1.5395">
        <ele>65</ele>
        <time>2022-05-03T07:10:11Z</time>
      </trkpt>
      <trkpt lat="47.25747" lon="-1.53949">
        <ele>65</ele>
        <time>2022-05-03T07:10:12Z</time>
      </trkpt>
      <trkpt lat="47.25746" lon="-1.53947">
        <ele>65</ele>
        <time>2022-05-03T07:10:13Z</time>
      </trkpt>
      <trkpt lat="47.25745" lon="-1.53946">
        <ele>65</ele>
        <time>2022-05-03T07:10:14Z</time>
      </trkpt>
      <trkpt lat="47.25744" lon="-1.53944">
        <ele>65</ele>
        <time>2022-05-03T07:10:15Z</time>
      </trkpt>
      <trkpt lat="47.25742" lon="-1.53943">
        <ele>65</ele>
        <time>2022-05-03T07:10:16Z</time>
      </trkpt>
      <trkpt lat="47.25741" lon="-1.53942">
        <ele>66</ele>
        <time>2022-05-03T07:10:17Z</time>
      </trkpt>
      <trkpt lat="47.2574" lon="-1.5394">
        <ele>66</ele>
        <time>2022-05-03T07:10:18Z</time>
      </trkpt>
      <trkpt lat="47.2574" lon="-1.53939">
        <ele>66</ele>
        <time>2022-05-03T07:10:19Z</time>
      </trkpt>
      <trkpt lat="47.25739" lon="-1.53938">
        <ele>66</ele>
        <time>2022-05-03T07:10:20Z</time>
      </trkpt>
      <trkpt lat="47.25738" lon="-1.53937">
        <ele>66</ele>
        <time>2022-05-03T07:10:21Z</time>
      </trkpt>
      <trkpt lat="47.25737" lon="-1.53935">
        <ele>66</ele>
        <time>2022-05-03T07:10:22Z</time>
      </trkpt>
      <trkpt lat="47.25736" lon="-1.53934">
        <ele>66</ele>
        <time>2022-05-03T07:10:23Z</time>
      </trkpt>
      <trkpt lat="47.25736" lon="-1.53933">
        <ele>66</ele>
        <time>2022-05-03T07:10:24Z</time>
      </trkpt>
      <trkpt lat="47.25735" lon="-1.53931">
        <ele>66</ele>
        <time>2022-05-03T07:10:25Z</time>
      </trkpt>
      <trkpt lat="47.25734" lon="-1.53929">
        <ele>66</ele>
        <time>2022-05-03T07:10:26Z</time>
      </trkpt>
      <trkpt lat="47.25734" lon="-1.53928">
        <ele>66</ele>
        <time>2022-05-03T07:10:27Z</time>
      </trkpt>
      <trkpt lat="47.25733" lon="-1.53926">
        <ele>66</ele>
        <time>2022-05-03T07:10:28Z</time>
      </trkpt>
      <trkpt lat="47.25732" lon="-1.53924">
        <ele>66</ele>
        <time>2022-05-03T07:10:29Z</time>
      </trkpt>
      <trkpt lat="47.25731" lon="-1.53922">
        <ele>66</ele>
        <time>2022-05-03T07:10:30Z</time>
      </trkpt>
      <trkpt lat="47.2573" lon="-1.53921">
        <ele>66</ele>
        <time>2022-05-03T07:10:31Z</time>
      </trkpt>
      <trkpt lat="47.25729" lon="-1.5392">
        <ele>66</ele>
        <time>2022-05-03T07:10:32Z</time>
      </trkpt>
      <trkpt lat="47.25728" lon="-1.53919">
        <ele>66</ele>
        <time>2022-05-03T07:10:33Z</time>
      </trkpt>
      <trkpt lat="47.25727" lon="-1.53918">
        <ele>65</ele>
        <time>2022-05-03T07:10:34Z</time>
      </trkpt>
      <trkpt lat="47.25726" lon="-1.53917">
        <ele>65</ele>
        <time>2022-05-03T07:10:35Z</time>
      </trkpt>
      <trkpt lat="47.25724" lon="-1.53916">
        <ele>65</ele>
        <time>2022-05-03T07:10:36Z</time>
      </trkpt>
      <trkpt lat="47.25723" lon="-1.53915">
        <ele>65</ele>
        <time>2022-05-03T07:10:37Z</time>
      </trkpt>
      <trkpt lat="47.25721" lon="-1.53915">
        <ele>64</ele>
        <time>2022-05-03T07:10:38Z</time>
      </trkpt>
      <trkpt lat="47.2572" lon="-1.53914">
        <ele>64</ele>
        <time>2022-05-03T07:10:39Z</time>
      </trkpt>
      <trkpt lat="47.25718" lon="-1.53915">
        <ele>64</ele>
        <time>2022-05-03T07:10:40Z</time>
      </trkpt>
      <trkpt lat="47.25716" lon="-1.53915">
        <ele>64</ele>
        <time>2022-05-03T07:10:41Z</time>
      </trkpt>
      <trkpt lat="47.25715" lon="-1.53915">
        <ele>64</ele>
        <time>2022-05-03T07:10:42Z</time>
      </trkpt>
      <trkpt lat="47.25714" lon="-1.53915">
        <ele>63</ele>
        <time>2022-05-03T07:10:43Z</time>
      </trkpt>
      <trkpt lat="47.25713" lon="-1.53915">
        <ele>62</ele>
        <time>2022-05-03T07:10:44Z</time>
      </trkpt>
      <trkpt lat="47.25711" lon="-1.53916">
        <ele>62</ele>
        <time>2022-05-03T07:10:45Z</time>
      </trkpt>
      <trkpt lat="47.25709" lon="-1.53915">
        <ele>62</ele>
        <time>2022-05-03T07:10:46Z</time>
      </trkpt>
      <trkpt lat="47.25707" lon="-1.53916">
        <ele>61</ele>
        <time>2022-05-03T07:10:47Z</time>
      </trkpt>
      <trkpt lat="47.25705" lon="-1.53916">
        <ele>60</ele>
        <time>2022-05-03T07:10:48Z</time>
      </trkpt>
      <trkpt lat="47.25704" lon="-1.53916">
        <ele>60</ele>
        <time>2022-05-03T07:10:49Z</time>
      </trkpt>
      <trkpt lat="47.25702" lon="-1.53917">
        <ele>60</ele>
        <time>2022-05-03T07:10:50Z</time>
      </trkpt>
      <trkpt lat="47.25702" lon="-1.53917">
        <ele>60</ele>
        <time>2022-05-03T07:10:51Z</time>
      </trkpt>
      <trkpt lat="47.257" lon="-1.53918">
        <ele>60</ele>
        <time>2022-05-03T07:10:52Z</time>
      </trkpt>
      <trkpt lat="47.25699" lon="-1.53918">
        <ele>60</ele>
        <time>2022-05-03T07:10:53Z</time>
      </trkpt>
      <trkpt lat="47.25697" lon="-1.53918">
        <ele>60</ele>
        <time>2022-05-03T07:10:54Z</time>
      </trkpt>
      <trkpt lat="47.25696" lon="-1.53919">
        <ele>60</ele>
        <time>2022-05-03T07:10:55Z</time>
      </trkpt>
      <trkpt lat="47.25695" lon="-1.5392">
        <ele>60</ele>
        <time>2022-05-03T07:10:56Z</time>
      </trkpt>
      <trkpt lat="47.25694" lon="-1.5392">
        <ele>60</ele>
        <time>2022-05-03T07:10:57Z</time>
      </trkpt>
      <trkpt lat="47.25693" lon="-1.53921">
        <ele>60</ele>
        <time>2022-05-03T07:10:58Z</time>
      </trkpt>
      <trkpt lat="47.25692" lon="-1.53922">
        <ele>60</ele>
        <time>2022-05-03T07:10:59Z</time>
      </trkpt>
      <trkpt lat="47.25691" lon="-1.53923">
        <ele>60</ele>
        <time>2022-05-03T07:11:00Z</time>
      </trkpt>
      <trkpt lat="47.2569" lon="-1.53924">
        <ele>60</ele>
        <time>2022-05-03T07:11:01Z</time>
      </trkpt>
      <trkpt lat="47.25689" lon="-1.53924">
        <ele>59</ele>
        <time>2022-05-03T07:11:02Z</time>
      </trkpt>
      <trkpt lat="47.25688" lon="-1.53925">
        <ele>59</ele>
        <time>2022-05-03T07:11:03Z</time>
      </trkpt>
      <trkpt lat="47.25687" lon="-1.53925">
        <ele>59</ele>
        <time>2022-05-03T07:11:04Z</time>
      </trkpt>
      <trkpt lat="47.25686" lon="-1.53926">
        <ele>59</ele>
        <time>2022-05-03T07:11:05Z</time>
      </trkpt>
      <trkpt lat="47.25686" lon="-1.53926">
        <ele>60</ele>
        <time>2022-05-03T07:11:06Z</time>
      </trkpt>
      <trkpt lat="47.25684" lon="-1.53926">
        <ele>60</ele>
        <time>2022-05-03T07:11:07Z</time>
      </trkpt>
      <trkpt lat="47.25684" lon="-1.53927">
        <ele>60</ele>
        <time>2022-05-03T07:11:08Z</time>
      </trkpt>
      <trkpt lat="47.25682" lon="-1.53927">
        <ele>61</ele>
        <time>2022-05-03T07:11:09Z</time>
      </trkpt>
      <trkpt lat="47.25681" lon="-1.53928">
        <ele>61</ele>
        <time>2022-05-03T07:11:10Z</time>
      </trkpt>
      <trkpt lat="47.2568" lon="-1.53928">
        <ele>60</ele>
        <time>2022-05-03T07:11:11Z</time>
      </trkpt>
      <trkpt lat="47.25679" lon="-1.53929">
        <ele>61</ele>
        <time>2022-05-03T07:11:12Z</time>
      </trkpt>
      <trkpt lat="47.25678" lon="-1.5393">
        <ele>61</ele>
        <time>2022-05-03T07:11:13Z</time>
      </trkpt>
      <trkpt lat="47.25676" lon="-1.5393">
        <ele>61</ele>
        <time>2022-05-03T07:11:14Z</time>
      </trkpt>
      <trkpt lat="47.25675" lon="-1.53931">
        <ele>61</ele>
        <time>2022-05-03T07:11:15Z</time>
      </trkpt>
      <trkpt lat="47.25674" lon="-1.53931">
        <ele>61</ele>
        <time>2022-05-03T07:11:16Z</time>
      </trkpt>
      <trkpt lat="47.25673" lon="-1.53932">
        <ele>61</ele>
        <time>2022-05-03T07:11:17Z</time>
      </trkpt>
      <trkpt lat="47.25671" lon="-1.53933">
        <ele>61</ele>
        <time>2022-05-03T07:11:18Z</time>
      </trkpt>
      <trkpt lat="47.2567" lon="-1.53933">
        <ele>61</ele>
        <time>2022-05-03T07:11:19Z</time>
      </trkpt>
      <trkpt lat="47.25668" lon="-1.53934">
        <ele>61</ele>
        <time>2022-05-03T07:11:20Z</time>
      </trkpt>
      <trkpt lat="47.25667" lon="-1.53934">
        <ele>60</ele>
        <time>2022-05-03T07:11:21Z</time>
      </trkpt>
      <trkpt lat="47.25666" lon="-1.53935">
        <ele>60</ele>
        <time>2022-05-03T07:11:22Z</time>
      </trkpt>
      <trkpt lat="47.25665" lon="-1.53936">
        <ele>61</ele>
        <time>2022-05-03T07:11:23Z</time>
      </trkpt>
      <trkpt lat="47.25663" lon="-1.53936">
        <ele>60</ele>
        <time>2022-05-03T07:11:24Z</time>
      </trkpt>
      <trkpt lat="47.25662" lon="-1.53937">
        <ele>60</ele>
        <time>2022-05-03T07:11:25Z</time>
      </trkpt>
      <trkpt lat="47.2566" lon="-1.53938">
        <ele>61</ele>
        <time>2022-05-03T07:11:26Z</time>
      </trkpt>
      <trkpt lat="47.25659" lon="-1.53939">
        <ele>61</ele>
        <time>2022-05-03T07:11:27Z</time>
      </trkpt>
      <trkpt lat="47.25658" lon="-1.5394">
        <ele>60</ele>
        <time>2022-05-03T07:11:28Z</time>
      </trkpt>
      <trkpt lat="47.25657" lon="-1.5394">
        <ele>60</ele>
        <time>2022-05-03T07:11:29Z</time>
      </trkpt>
      <trkpt lat="47.25655" lon="-1.53941">
        <ele>59</ele>
        <time>2022-05-03T07:11:30Z</time>
      </trkpt>
      <trkpt lat="47.25654" lon="-1.53942">
        <ele>59</ele>
        <time>2022-05-03T07:11:31Z</time>
      </trkpt>
      <trkpt lat="47.25652" lon="-1.53942">
        <ele>59</ele>
        <time>2022-05-03T07:11:32Z</time>
      </trkpt>
      <trkpt lat="47.2565" lon="-1.53943">
        <ele>58</ele>
        <time>2022-05-03T07:11:33Z</time>
      </trkpt>
      <trkpt lat="47.25649" lon="-1.53943">
        <ele>58</ele>
        <time>2022-05-03T07:11:34Z</time>
      </trkpt>
      <trkpt lat="47.25648" lon="-1.53944">
        <ele>58</ele>
        <time>2022-05-03T07:11:35Z</time>
      </trkpt>
      <trkpt lat="47.25647" lon="-1.53944">
        <ele>59</ele>
        <time>2022-05-03T07:11:36Z</time>
      </trkpt>
      <trkpt lat="47.25645" lon="-1.53943">
        <ele>59</ele>
        <time>2022-05-03T07:11:37Z</time>
      </trkpt>
      <trkpt lat="47.25644" lon="-1.53942">
        <ele>60</ele>
        <time>2022-05-03T07:11:38Z</time>
      </trkpt>
      <trkpt lat="47.25643" lon="-1.53941">
        <ele>60</ele>
        <time>2022-05-03T07:11:39Z</time>
      </trkpt>
      <trkpt lat="47.25642" lon="-1.53941">
        <ele>61</ele>
        <time>2022-05-03T07:11:40Z</time>
      </trkpt>
      <trkpt lat="47.25642" lon="-1.5394">
        <ele>61</ele>
        <time>2022-05-03T07:11:41Z</time>
      </trkpt>
      <trkpt lat="47.25641" lon="-1.5394">
        <ele>61</ele>
        <time>2022-05-03T07:11:42Z</time>
      </trkpt>
      <trkpt lat="47.2564" lon="-1.5394">
        <ele>61</ele>
        <time>2022-05-03T07:11:43Z</time>
      </trkpt>
      <trkpt lat="47.25639" lon="-1.5394">
        <ele>61</ele>
        <time>2022-05-03T07:11:44Z</time>
      </trkpt>
      <trkpt lat="47.25638" lon="-1.5394">
        <ele>61</ele>
        <time>2022-05-03T07:11:45Z</time>
      </trkpt>
      <trkpt lat="47.25637" lon="-1.53939">
        <ele>60</ele>
        <time>2022-05-03T07:11:46Z</time>
      </trkpt>
      <trkpt lat="47.25636" lon="-1.5394">
        <ele>60</ele>
        <time>2022-05-03T07:11:47Z</time>
      </trkpt>
      <trkpt lat="47.25634" lon="-1.53941">
        <ele>60</ele>
        <time>2022-05-03T07:11:48Z</time>
      </trkpt>
      <trkpt lat="47.25633" lon="-1.53941">
        <ele>60</ele>
        <time>2022-05-03T07:11:49Z</time>
      </trkpt>
      <trkpt lat="47.25631" lon="-1.53941">
        <ele>60</ele>
        <time>2022-05-03T07:11:50Z</time>
      </trkpt>
      <trkpt lat="47.2563" lon="-1.53943">
        <ele>60</ele>
        <time>2022-05-03T07:11:51Z</time>
      </trkpt>
      <trkpt lat="47.25628" lon="-1.53945">
        <ele>61</ele>
        <time>2022-05-03T07:11:52Z</time>
      </trkpt>
      <trkpt lat="47.25626" lon="-1.53947">
        <ele>62</ele>
        <time>2022-05-03T07:11:53Z</time>
      </trkpt>
      <trkpt lat="47.25625" lon="-1.53948">
        <ele>61</ele>
        <time>2022-05-03T07:11:54Z</time>
      </trkpt>
      <trkpt lat="47.25623" lon="-1.53949">
        <ele>62</ele>
        <time>2022-05-03T07:11:55Z</time>
      </trkpt>
      <trkpt lat="47.25622" lon="-1.53949">
        <ele>61</ele>
        <time>2022-05-03T07:11:56Z</time>
      </trkpt>
      <trkpt lat="47.25621" lon="-1.5395">
        <ele>61</ele>
        <time>2022-05-03T07:11:57Z</time>
      </trkpt>
      <trkpt lat="47.2562" lon="-1.53951">
        <ele>61</ele>
        <time>2022-05-03T07:11:58Z</time>
      </trkpt>
      <trkpt lat="47.25618" lon="-1.53952">
        <ele>60</ele>
        <time>2022-05-03T07:11:59Z</time>
      </trkpt>
      <trkpt lat="47.25617" lon="-1.53952">
        <ele>60</ele>
        <time>2022-05-03T07:12:00Z</time>
      </trkpt>
      <trkpt lat="47.25615" lon="-1.53953">
        <ele>60</ele>
        <time>2022-05-03T07:12:01Z</time>
      </trkpt>
      <trkpt lat="47.25614" lon="-1.53954">
        <ele>60</ele>
        <time>2022-05-03T07:12:02Z</time>
      </trkpt>
      <trkpt lat="47.25612" lon="-1.53954">
        <ele>61</ele>
        <time>2022-05-03T07:12:03Z</time>
      </trkpt>
      <trkpt lat="47.25611" lon="-1.53955">
        <ele>61</ele>
        <time>2022-05-03T07:12:04Z</time>
      </trkpt>
      <trkpt lat="47.2561" lon="-1.53954">
        <ele>61</ele>
        <time>2022-05-03T07:12:05Z</time>
      </trkpt>
      <trkpt lat="47.25608" lon="-1.53954">
        <ele>62</ele>
        <time>2022-05-03T07:12:06Z</time>
      </trkpt>
      <trkpt lat="47.25608" lon="-1.53954">
        <ele>62</ele>
        <time>2022-05-03T07:12:07Z</time>
      </trkpt>
      <trkpt lat="47.25607" lon="-1.53954">
        <ele>62</ele>
        <time>2022-05-03T07:12:08Z</time>
      </trkpt>
      <trkpt lat="47.25607" lon="-1.53954">
        <ele>62</ele>
        <time>2022-05-03T07:12:09Z</time>
      </trkpt>
      <trkpt lat="47.25605" lon="-1.53955">
        <ele>61</ele>
        <time>2022-05-03T07:12:10Z</time>
      </trkpt>
      <trkpt lat="47.25605" lon="-1.53955">
        <ele>61</ele>
        <time>2022-05-03T07:12:11Z</time>
      </trkpt>
      <trkpt lat="47.25605" lon="-1.53955">
        <ele>61</ele>
        <time>2022-05-03T07:12:12Z</time>
      </trkpt>
      <trkpt lat="47.25605" lon="-1.53955">
        <ele>61</ele>
        <time>2022-05-03T07:12:13Z</time>
      </trkpt>
      <trkpt lat="47.25603" lon="-1.53955">
        <ele>60</ele>
        <time>2022-05-03T07:12:14Z</time>
      </trkpt>
      <trkpt lat="47.25601" lon="-1.53956">
        <ele>60</ele>
        <time>2022-05-03T07:12:15Z</time>
      </trkpt>
      <trkpt lat="47.25599" lon="-1.53958">
        <ele>60</ele>
        <time>2022-05-03T07:12:16Z</time>
      </trkpt>
      <trkpt lat="47.25597" lon="-1.53959">
        <ele>60</ele>
        <time>2022-05-03T07:12:17Z</time>
      </trkpt>
      <trkpt lat="47.25597" lon="-1.5396">
        <ele>60</ele>
        <time>2022-05-03T07:12:18Z</time>
      </trkpt>
      <trkpt lat="47.25595" lon="-1.5396">
        <ele>60</ele>
        <time>2022-05-03T07:12:19Z</time>
      </trkpt>
      <trkpt lat="47.25593" lon="-1.5396">
        <ele>60</ele>
        <time>2022-05-03T07:12:20Z</time>
      </trkpt>
      <trkpt lat="47.25592" lon="-1.5396">
        <ele>60</ele>
        <time>2022-05-03T07:12:21Z</time>
      </trkpt>
      <trkpt lat="47.2559" lon="-1.5396">
        <ele>60</ele>
        <time>2022-05-03T07:12:22Z</time>
      </trkpt>
      <trkpt lat="47.25589" lon="-1.5396">
        <ele>59</ele>
        <time>2022-05-03T07:12:23Z</time>
      </trkpt>
      <trkpt lat="47.25587" lon="-1.53961">
        <ele>59</ele>
        <time>2022-05-03T07:12:24Z</time>
      </trkpt>
      <trkpt lat="47.25586" lon="-1.53961">
        <ele>59</ele>
        <time>2022-05-03T07:12:25Z</time>
      </trkpt>
      <trkpt lat="47.25585" lon="-1.53962">
        <ele>59</ele>
        <time>2022-05-03T07:12:26Z</time>
      </trkpt>
      <trkpt lat="47.25583" lon="-1.53964">
        <ele>59</ele>
        <time>2022-05-03T07:12:27Z</time>
      </trkpt>
      <trkpt lat="47.25582" lon="-1.53965">
        <ele>59</ele>
        <time>2022-05-03T07:12:28Z</time>
      </trkpt>
      <trkpt lat="47.25581" lon="-1.53966">
        <ele>59</ele>
        <time>2022-05-03T07:12:29Z</time>
      </trkpt>
      <trkpt lat="47.2558" lon="-1.53968">
        <ele>60</ele>
        <time>2022-05-03T07:12:30Z</time>
      </trkpt>
      <trkpt lat="47.25578" lon="-1.53969">
        <ele>60</ele>
        <time>2022-05-03T07:12:31Z</time>
      </trkpt>
      <trkpt lat="47.25576" lon="-1.53971">
        <ele>59</ele>
        <time>2022-05-03T07:12:32Z</time>
      </trkpt>
      <trkpt lat="47.25575" lon="-1.53972">
        <ele>59</ele>
        <time>2022-05-03T07:12:33Z</time>
      </trkpt>
      <trkpt lat="47.25573" lon="-1.53974">
        <ele>59</ele>
        <time>2022-05-03T07:12:34Z</time>
      </trkpt>
      <trkpt lat="47.25571" lon="-1.53975">
        <ele>59</ele>
        <time>2022-05-03T07:12:35Z</time>
      </trkpt>
      <trkpt lat="47.25569" lon="-1.53977">
        <ele>59</ele>
        <time>2022-05-03T07:12:36Z</time>
      </trkpt>
      <trkpt lat="47.25568" lon="-1.53978">
        <ele>59</ele>
        <time>2022-05-03T07:12:37Z</time>
      </trkpt>
      <trkpt lat="47.25567" lon="-1.53978">
        <ele>59</ele>
        <time>2022-05-03T07:12:38Z</time>
      </trkpt>
      <trkpt lat="47.25565" lon="-1.53979">
        <ele>59</ele>
        <time>2022-05-03T07:12:39Z</time>
      </trkpt>
      <trkpt lat="47.25563" lon="-1.5398">
        <ele>59</ele>
        <time>2022-05-03T07:12:40Z</time>
      </trkpt>
      <trkpt lat="47.25562" lon="-1.53981">
        <ele>59</ele>
        <time>2022-05-03T07:12:41Z</time>
      </trkpt>
      <trkpt lat="47.25561" lon="-1.53982">
        <ele>59</ele>
        <time>2022-05-03T07:12:42Z</time>
      </trkpt>
      <trkpt lat="47.2556" lon="-1.53983">
        <ele>59</ele>
        <time>2022-05-03T07:12:43Z</time>
      </trkpt>
      <trkpt lat="47.2556" lon="-1.53983">
        <ele>59</ele>
        <time>2022-05-03T07:12:44Z</time>
      </trkpt>
      <trkpt lat="47.25558" lon="-1.53984">
        <ele>59</ele>
        <time>2022-05-03T07:12:45Z</time>
      </trkpt>
      <trkpt lat="47.25557" lon="-1.53984">
        <ele>59</ele>
        <time>2022-05-03T07:12:46Z</time>
      </trkpt>
      <trkpt lat="47.25556" lon="-1.53985">
        <ele>59</ele>
        <time>2022-05-03T07:12:47Z</time>
      </trkpt>
      <trkpt lat="47.25554" lon="-1.53986">
        <ele>59</ele>
        <time>2022-05-03T07:12:48Z</time>
      </trkpt>
      <trkpt lat="47.25553" lon="-1.53986">
        <ele>58</ele>
        <time>2022-05-03T07:12:49Z</time>
      </trkpt>
      <trkpt lat="47.25552" lon="-1.53987">
        <ele>59</ele>
        <time>2022-05-03T07:12:50Z</time>
      </trkpt>
      <trkpt lat="47.25551" lon="-1.53987">
        <ele>58</ele>
        <time>2022-05-03T07:12:51Z</time>
      </trkpt>
      <trkpt lat="47.2555" lon="-1.53988">
        <ele>58</ele>
        <time>2022-05-03T07:12:52Z</time>
      </trkpt>
      <trkpt lat="47.25548" lon="-1.53988">
        <ele>58</ele>
        <time>2022-05-03T07:12:53Z</time>
      </trkpt>
      <trkpt lat="47.25547" lon="-1.53989">
        <ele>58</ele>
        <time>2022-05-03T07:12:54Z</time>
      </trkpt>
      <trkpt lat="47.25546" lon="-1.53989">
        <ele>58</ele>
        <time>2022-05-03T07:12:55Z</time>
      </trkpt>
      <trkpt lat="47.25544" lon="-1.5399">
        <ele>58</ele>
        <time>2022-05-03T07:12:56Z</time>
      </trkpt>
      <trkpt lat="47.25543" lon="-1.5399">
        <ele>58</ele>
        <time>2022-05-03T07:12:57Z</time>
      </trkpt>
      <trkpt lat="47.25542" lon="-1.53991">
        <ele>58</ele>
        <time>2022-05-03T07:12:58Z</time>
      </trkpt>
      <trkpt lat="47.25541" lon="-1.53992">
        <ele>58</ele>
        <time>2022-05-03T07:12:59Z</time>
      </trkpt>
      <trkpt lat="47.2554" lon="-1.53992">
        <ele>58</ele>
        <time>2022-05-03T07:13:00Z</time>
      </trkpt>
      <trkpt lat="47.25539" lon="-1.53993">
        <ele>58</ele>
        <time>2022-05-03T07:13:01Z</time>
      </trkpt>
      <trkpt lat="47.25538" lon="-1.53993">
        <ele>58</ele>
        <time>2022-05-03T07:13:02Z</time>
      </trkpt>
      <trkpt lat="47.25537" lon="-1.53993">
        <ele>59</ele>
        <time>2022-05-03T07:13:03Z</time>
      </trkpt>
      <trkpt lat="47.25536" lon="-1.53994">
        <ele>59</ele>
        <time>2022-05-03T07:13:04Z</time>
      </trkpt>
      <trkpt lat="47.25536" lon="-1.53994">
        <ele>60</ele>
        <time>2022-05-03T07:13:05Z</time>
      </trkpt>
      <trkpt lat="47.25534" lon="-1.53995">
        <ele>60</ele>
        <time>2022-05-03T07:13:06Z</time>
      </trkpt>
      <trkpt lat="47.25533" lon="-1.53996">
        <ele>59</ele>
        <time>2022-05-03T07:13:07Z</time>
      </trkpt>
      <trkpt lat="47.25531" lon="-1.53996">
        <ele>60</ele>
        <time>2022-05-03T07:13:08Z</time>
      </trkpt>
      <trkpt lat="47.25531" lon="-1.53997">
        <ele>60</ele>
        <time>2022-05-03T07:13:09Z</time>
      </trkpt>
      <trkpt lat="47.2553" lon="-1.53999">
        <ele>60</ele>
        <time>2022-05-03T07:13:10Z</time>
      </trkpt>
      <trkpt lat="47.2553" lon="-1.54">
        <ele>60</ele>
        <time>2022-05-03T07:13:11Z</time>
      </trkpt>
      <trkpt lat="47.25528" lon="-1.54002">
        <ele>60</ele>
        <time>2022-05-03T07:13:12Z</time>
      </trkpt>
      <trkpt lat="47.25528" lon="-1.54002">
        <ele>60</ele>
        <time>2022-05-03T07:13:13Z</time>
      </trkpt>
      <trkpt lat="47.25527" lon="-1.54003">
        <ele>60</ele>
        <time>2022-05-03T07:13:14Z</time>
      </trkpt>
      <trkpt lat="47.25525" lon="-1.54004">
        <ele>59</ele>
        <time>2022-05-03T07:13:15Z</time>
      </trkpt>
      <trkpt lat="47.25524" lon="-1.54004">
        <ele>60</ele>
        <time>2022-05-03T07:13:16Z</time>
      </trkpt>
      <trkpt lat="47.25523" lon="-1.54005">
        <ele>59</ele>
        <time>2022-05-03T07:13:17Z</time>
      </trkpt>
      <trkpt lat="47.25522" lon="-1.54005">
        <ele>59</ele>
        <time>2022-05-03T07:13:18Z</time>
      </trkpt>
      <trkpt lat="47.2552" lon="-1.54005">
        <ele>59</ele>
        <time>2022-05-03T07:13:19Z</time>
      </trkpt>
      <trkpt lat="47.2552" lon="-1.54005">
        <ele>59</ele>
        <time>2022-05-03T07:13:20Z</time>
      </trkpt>
      <trkpt lat="47.25519" lon="-1.54004">
        <ele>59</ele>
        <time>2022-05-03T07:13:21Z</time>
      </trkpt>
      <trkpt lat="47.25518" lon="-1.54005">
        <ele>60</ele>
        <time>2022-05-03T07:13:22Z</time>
      </trkpt>
      <trkpt lat="47.25516" lon="-1.54006">
        <ele>59</ele>
        <time>2022-05-03T07:13:23Z</time>
      </trkpt>
      <trkpt lat="47.25515" lon="-1.54007">
        <ele>60</ele>
        <time>2022-05-03T07:13:24Z</time>
      </trkpt>
      <trkpt lat="47.25514" lon="-1.54007">
        <ele>60</ele>
        <time>2022-05-03T07:13:25Z</time>
      </trkpt>
      <trkpt lat="47.25513" lon="-1.54007">
        <ele>60</ele>
        <time>2022-05-03T07:13:26Z</time>
      </trkpt>
      <trkpt lat="47.25512" lon="-1.54006">
        <ele>60</ele>
        <time>2022-05-03T07:13:27Z</time>
      </trkpt>
      <trkpt lat="47.25511" lon="-1.54006">
        <ele>60</ele>
        <time>2022-05-03T07:13:28Z</time>
      </trkpt>
      <trkpt lat="47.2551" lon="-1.54005">
        <ele>60</ele>
        <time>2022-05-03T07:13:29Z</time>
      </trkpt>
      <trkpt lat="47.25509" lon="-1.54005">
        <ele>59</ele>
        <time>2022-05-03T07:13:30Z</time>
      </trkpt>
      <trkpt lat="47.25507" lon="-1.54005">
        <ele>60</ele>
        <time>2022-05-03T07:13:31Z</time>
      </trkpt>
      <trkpt lat="47.25506" lon="-1.54005">
        <ele>60</ele>
        <time>2022-05-03T07:13:32Z</time>
      </trkpt>
      <trkpt lat="47.25505" lon="-1.54004">
        <ele>60</ele>
        <time>2022-05-03T07:13:33Z</time>
      </trkpt>
      <trkpt lat="47.25504" lon="-1.54004">
        <ele>60</ele>
        <time>2022-05-03T07:13:34Z</time>
      </trkpt>
      <trkpt lat="47.25502" lon="-1.54003">
        <ele>61</ele>
        <time>2022-05-03T07:13:35Z</time>
      </trkpt>
      <trkpt lat="47.25501" lon="-1.54003">
        <ele>61</ele>
        <time>2022-05-03T07:13:36Z</time>
      </trkpt>
      <trkpt lat="47.25499" lon="-1.54002">
        <ele>60</ele>
        <time>2022-05-03T07:13:37Z</time>
      </trkpt>
      <trkpt lat="47.25498" lon="-1.54001">
        <ele>60</ele>
        <time>2022-05-03T07:13:38Z</time>
      </trkpt>
      <trkpt lat="47.25497" lon="-1.54001">
        <ele>60</ele>
        <time>2022-05-03T07:13:39Z</time>
      </trkpt>
      <trkpt lat="47.25495" lon="-1.54001">
        <ele>60</ele>
        <time>2022-05-03T07:13:40Z</time>
      </trkpt>
      <trkpt lat="47.25494" lon="-1.54001">
        <ele>60</ele>
        <time>2022-05-03T07:13:41Z</time>
      </trkpt>
      <trkpt lat="47.25493" lon="-1.54002">
        <ele>60</ele>
        <time>2022-05-03T07:13:42Z</time>
      </trkpt>
      <trkpt lat="47.25491" lon="-1.54002">
        <ele>60</ele>
        <time>2022-05-03T07:13:43Z</time>
      </trkpt>
      <trkpt lat="47.2549" lon="-1.54002">
        <ele>60</ele>
        <time>2022-05-03T07:13:44Z</time>
      </trkpt>
      <trkpt lat="47.25488" lon="-1.54003">
        <ele>59</ele>
        <time>2022-05-03T07:13:45Z</time>
      </trkpt>
      <trkpt lat="47.25487" lon="-1.54003">
        <ele>59</ele>
        <time>2022-05-03T07:13:46Z</time>
      </trkpt>
      <trkpt lat="47.25485" lon="-1.54003">
        <ele>59</ele>
        <time>2022-05-03T07:13:47Z</time>
      </trkpt>
      <trkpt lat="47.25483" lon="-1.54004">
        <ele>59</ele>
        <time>2022-05-03T07:13:48Z</time>
      </trkpt>
      <trkpt lat="47.25481" lon="-1.54004">
        <ele>59</ele>
        <time>2022-05-03T07:13:49Z</time>
      </trkpt>
      <trkpt lat="47.2548" lon="-1.54004">
        <ele>59</ele>
        <time>2022-05-03T07:13:50Z</time>
      </trkpt>
      <trkpt lat="47.25478" lon="-1.54005">
        <ele>59</ele>
        <time>2022-05-03T07:13:51Z</time>
      </trkpt>
      <trkpt lat="47.25477" lon="-1.54005">
        <ele>59</ele>
        <time>2022-05-03T07:13:52Z</time>
      </trkpt>
      <trkpt lat="47.25476" lon="-1.54005">
        <ele>59</ele>
        <time>2022-05-03T07:13:53Z</time>
      </trkpt>
      <trkpt lat="47.25475" lon="-1.54006">
        <ele>59</ele>
        <time>2022-05-03T07:13:54Z</time>
      </trkpt>
      <trkpt lat="47.25473" lon="-1.54006">
        <ele>59</ele>
        <time>2022-05-03T07:13:55Z</time>
      </trkpt>
      <trkpt lat="47.25472" lon="-1.54006">
        <ele>59</ele>
        <time>2022-05-03T07:13:56Z</time>
      </trkpt>
      <trkpt lat="47.2547" lon="-1.54006">
        <ele>59</ele>
        <time>2022-05-03T07:13:57Z</time>
      </trkpt>
      <trkpt lat="47.25469" lon="-1.54006">
        <ele>59</ele>
        <time>2022-05-03T07:13:58Z</time>
      </trkpt>
      <trkpt lat="47.25468" lon="-1.54006">
        <ele>59</ele>
        <time>2022-05-03T07:13:59Z</time>
      </trkpt>
      <trkpt lat="47.25466" lon="-1.54007">
        <ele>59</ele>
        <time>2022-05-03T07:14:00Z</time>
      </trkpt>
      <trkpt lat="47.25465" lon="-1.54007">
        <ele>59</ele>
        <time>2022-05-03T07:14:01Z</time>
      </trkpt>
      <trkpt lat="47.25465" lon="-1.54008">
        <ele>59</ele>
        <time>2022-05-03T07:14:02Z</time>
      </trkpt>
      <trkpt lat="47.25465" lon="-1.54008">
        <ele>59</ele>
        <time>2022-05-03T07:14:03Z</time>
      </trkpt>
      <trkpt lat="47.25465" lon="-1.54008">
        <ele>59</ele>
        <time>2022-05-03T07:14:04Z</time>
      </trkpt>
      <trkpt lat="47.25462" lon="-1.54008">
        <ele>60</ele>
        <time>2022-05-03T07:14:05Z</time>
      </trkpt>
      <trkpt lat="47.2546" lon="-1.54008">
        <ele>60</ele>
        <time>2022-05-03T07:14:06Z</time>
      </trkpt>
      <trkpt lat="47.25459" lon="-1.54008">
        <ele>60</ele>
        <time>2022-05-03T07:14:07Z</time>
      </trkpt>
      <trkpt lat="47.25457" lon="-1.54008">
        <ele>60</ele>
        <time>2022-05-03T07:14:08Z</time>
      </trkpt>
      <trkpt lat="47.25455" lon="-1.54008">
        <ele>61</ele>
        <time>2022-05-03T07:14:09Z</time>
      </trkpt>
      <trkpt lat="47.25454" lon="-1.54009">
        <ele>61</ele>
        <time>2022-05-03T07:14:10Z</time>
      </trkpt>
      <trkpt lat="47.25452" lon="-1.54009">
        <ele>61</ele>
        <time>2022-05-03T07:14:11Z</time>
      </trkpt>
      <trkpt lat="47.25451" lon="-1.5401">
        <ele>61</ele>
        <time>2022-05-03T07:14:12Z</time>
      </trkpt>
      <trkpt lat="47.25449" lon="-1.5401">
        <ele>61</ele>
        <time>2022-05-03T07:14:13Z</time>
      </trkpt>
      <trkpt lat="47.25448" lon="-1.5401">
        <ele>61</ele>
        <time>2022-05-03T07:14:14Z</time>
      </trkpt>
      <trkpt lat="47.25446" lon="-1.54011">
        <ele>61</ele>
        <time>2022-05-03T07:14:15Z</time>
      </trkpt>
      <trkpt lat="47.25446" lon="-1.54012">
        <ele>61</ele>
        <time>2022-05-03T07:14:16Z</time>
      </trkpt>
      <trkpt lat="47.25444" lon="-1.54012">
        <ele>61</ele>
        <time>2022-05-03T07:14:17Z</time>
      </trkpt>
      <trkpt lat="47.25443" lon="-1.54012">
        <ele>61</ele>
        <time>2022-05-03T07:14:18Z</time>
      </trkpt>
      <trkpt lat="47.25441" lon="-1.54012">
        <ele>61</ele>
        <time>2022-05-03T07:14:19Z</time>
      </trkpt>
      <trkpt lat="47.2544" lon="-1.54012">
        <ele>61</ele>
        <time>2022-05-03T07:14:20Z</time>
      </trkpt>
      <trkpt lat="47.25438" lon="-1.54013">
        <ele>62</ele>
        <time>2022-05-03T07:14:21Z</time>
      </trkpt>
      <trkpt lat="47.25437" lon="-1.54013">
        <ele>61</ele>
        <time>2022-05-03T07:14:22Z</time>
      </trkpt>
      <trkpt lat="47.25436" lon="-1.54014">
        <ele>61</ele>
        <time>2022-05-03T07:14:23Z</time>
      </trkpt>
      <trkpt lat="47.25435" lon="-1.54014">
        <ele>61</ele>
        <time>2022-05-03T07:14:24Z</time>
      </trkpt>
      <trkpt lat="47.25433" lon="-1.54014">
        <ele>60</ele>
        <time>2022-05-03T07:14:25Z</time>
      </trkpt>
      <trkpt lat="47.25431" lon="-1.54015">
        <ele>61</ele>
        <time>2022-05-03T07:14:26Z</time>
      </trkpt>
      <trkpt lat="47.2543" lon="-1.54015">
        <ele>61</ele>
        <time>2022-05-03T07:14:27Z</time>
      </trkpt>
      <trkpt lat="47.25428" lon="-1.54016">
        <ele>61</ele>
        <time>2022-05-03T07:14:28Z</time>
      </trkpt>
      <trkpt lat="47.25427" lon="-1.54016">
        <ele>61</ele>
        <time>2022-05-03T07:14:29Z</time>
      </trkpt>
      <trkpt lat="47.25426" lon="-1.54016">
        <ele>61</ele>
        <time>2022-05-03T07:14:30Z</time>
      </trkpt>
      <trkpt lat="47.25424" lon="-1.54017">
        <ele>61</ele>
        <time>2022-05-03T07:14:31Z</time>
      </trkpt>
      <trkpt lat="47.25422" lon="-1.54018">
        <ele>61</ele>
        <time>2022-05-03T07:14:32Z</time>
      </trkpt>
      <trkpt lat="47.2542" lon="-1.54019">
        <ele>61</ele>
        <time>2022-05-03T07:14:33Z</time>
      </trkpt>
      <trkpt lat="47.25419" lon="-1.54019">
        <ele>61</ele>
        <time>2022-05-03T07:14:34Z</time>
      </trkpt>
      <trkpt lat="47.25418" lon="-1.5402">
        <ele>62</ele>
        <time>2022-05-03T07:14:35Z</time>
      </trkpt>
      <trkpt lat="47.25417" lon="-1.5402">
        <ele>62</ele>
        <time>2022-05-03T07:14:36Z</time>
      </trkpt>
      <trkpt lat="47.25416" lon="-1.54021">
        <ele>62</ele>
        <time>2022-05-03T07:14:37Z</time>
      </trkpt>
      <trkpt lat="47.25414" lon="-1.54022">
        <ele>62</ele>
        <time>2022-05-03T07:14:38Z</time>
      </trkpt>
      <trkpt lat="47.25412" lon="-1.54022">
        <ele>63</ele>
        <time>2022-05-03T07:14:39Z</time>
      </trkpt>
      <trkpt lat="47.25411" lon="-1.54023">
        <ele>63</ele>
        <time>2022-05-03T07:14:40Z</time>
      </trkpt>
      <trkpt lat="47.25409" lon="-1.54023">
        <ele>63</ele>
        <time>2022-05-03T07:14:41Z</time>
      </trkpt>
      <trkpt lat="47.25407" lon="-1.54024">
        <ele>63</ele>
        <time>2022-05-03T07:14:42Z</time>
      </trkpt>
      <trkpt lat="47.25406" lon="-1.54024">
        <ele>62</ele>
        <time>2022-05-03T07:14:43Z</time>
      </trkpt>
      <trkpt lat="47.25405" lon="-1.54024">
        <ele>62</ele>
        <time>2022-05-03T07:14:44Z</time>
      </trkpt>
      <trkpt lat="47.25404" lon="-1.54025">
        <ele>61</ele>
        <time>2022-05-03T07:14:45Z</time>
      </trkpt>
      <trkpt lat="47.25403" lon="-1.54025">
        <ele>61</ele>
        <time>2022-05-03T07:14:46Z</time>
      </trkpt>
      <trkpt lat="47.25401" lon="-1.54026">
        <ele>61</ele>
        <time>2022-05-03T07:14:47Z</time>
      </trkpt>
      <trkpt lat="47.25399" lon="-1.54027">
        <ele>61</ele>
        <time>2022-05-03T07:14:48Z</time>
      </trkpt>
      <trkpt lat="47.25398" lon="-1.54027">
        <ele>61</ele>
        <time>2022-05-03T07:14:49Z</time>
      </trkpt>
      <trkpt lat="47.25397" lon="-1.54028">
        <ele>61</ele>
        <time>2022-05-03T07:14:50Z</time>
      </trkpt>
      <trkpt lat="47.25395" lon="-1.54029">
        <ele>61</ele>
        <time>2022-05-03T07:14:51Z</time>
      </trkpt>
      <trkpt lat="47.25393" lon="-1.54029">
        <ele>61</ele>
        <time>2022-05-03T07:14:52Z</time>
      </trkpt>
      <trkpt lat="47.25392" lon="-1.5403">
        <ele>61</ele>
        <time>2022-05-03T07:14:53Z</time>
      </trkpt>
      <trkpt lat="47.2539" lon="-1.5403">
        <ele>61</ele>
        <time>2022-05-03T07:14:54Z</time>
      </trkpt>
      <trkpt lat="47.25389" lon="-1.5403">
        <ele>61</ele>
        <time>2022-05-03T07:14:55Z</time>
      </trkpt>
      <trkpt lat="47.25387" lon="-1.5403">
        <ele>61</ele>
        <time>2022-05-03T07:14:56Z</time>
      </trkpt>
      <trkpt lat="47.25386" lon="-1.5403">
        <ele>61</ele>
        <time>2022-05-03T07:14:57Z</time>
      </trkpt>
      <trkpt lat="47.25384" lon="-1.54031">
        <ele>60</ele>
        <time>2022-05-03T07:14:58Z</time>
      </trkpt>
      <trkpt lat="47.25383" lon="-1.54031">
        <ele>60</ele>
        <time>2022-05-03T07:14:59Z</time>
      </trkpt>
      <trkpt lat="47.25381" lon="-1.54032">
        <ele>60</ele>
        <time>2022-05-03T07:15:00Z</time>
      </trkpt>
      <trkpt lat="47.25379" lon="-1.54032">
        <ele>59</ele>
        <time>2022-05-03T07:15:01Z</time>
      </trkpt>
      <trkpt lat="47.25378" lon="-1.54032">
        <ele>59</ele>
        <time>2022-05-03T07:15:02Z</time>
      </trkpt>
      <trkpt lat="47.25377" lon="-1.54032">
        <ele>59</ele>
        <time>2022-05-03T07:15:03Z</time>
      </trkpt>
      <trkpt lat="47.25375" lon="-1.54033">
        <ele>59</ele>
        <time>2022-05-03T07:15:04Z</time>
      </trkpt>
      <trkpt lat="47.25374" lon="-1.54034">
        <ele>59</ele>
        <time>2022-05-03T07:15:05Z</time>
      </trkpt>
      <trkpt lat="47.25372" lon="-1.54034">
        <ele>59</ele>
        <time>2022-05-03T07:15:06Z</time>
      </trkpt>
      <trkpt lat="47.25371" lon="-1.54034">
        <ele>59</ele>
        <time>2022-05-03T07:15:07Z</time>
      </trkpt>
      <trkpt lat="47.25369" lon="-1.54034">
        <ele>58</ele>
        <time>2022-05-03T07:15:08Z</time>
      </trkpt>
      <trkpt lat="47.25368" lon="-1.54034">
        <ele>58</ele>
        <time>2022-05-03T07:15:09Z</time>
      </trkpt>
      <trkpt lat="47.25367" lon="-1.54034">
        <ele>58</ele>
        <time>2022-05-03T07:15:10Z</time>
      </trkpt>
      <trkpt lat="47.25365" lon="-1.54034">
        <ele>58</ele>
        <time>2022-05-03T07:15:11Z</time>
      </trkpt>
      <trkpt lat="47.25363" lon="-1.54035">
        <ele>58</ele>
        <time>2022-05-03T07:15:12Z</time>
      </trkpt>
      <trkpt lat="47.25362" lon="-1.54035">
        <ele>58</ele>
        <time>2022-05-03T07:15:13Z</time>
      </trkpt>
      <trkpt lat="47.2536" lon="-1.54035">
        <ele>58</ele>
        <time>2022-05-03T07:15:14Z</time>
      </trkpt>
      <trkpt lat="47.25359" lon="-1.54035">
        <ele>58</ele>
        <time>2022-05-03T07:15:15Z</time>
      </trkpt>
      <trkpt lat="47.25357" lon="-1.54035">
        <ele>58</ele>
        <time>2022-05-03T07:15:16Z</time>
      </trkpt>
      <trkpt lat="47.25356" lon="-1.54035">
        <ele>58</ele>
        <time>2022-05-03T07:15:17Z</time>
      </trkpt>
      <trkpt lat="47.25355" lon="-1.54035">
        <ele>59</ele>
        <time>2022-05-03T07:15:18Z</time>
      </trkpt>
      <trkpt lat="47.25353" lon="-1.54036">
        <ele>59</ele>
        <time>2022-05-03T07:15:19Z</time>
      </trkpt>
      <trkpt lat="47.25351" lon="-1.54036">
        <ele>59</ele>
        <time>2022-05-03T07:15:20Z</time>
      </trkpt>
      <trkpt lat="47.25349" lon="-1.54036">
        <ele>58</ele>
        <time>2022-05-03T07:15:21Z</time>
      </trkpt>
      <trkpt lat="47.25348" lon="-1.54037">
        <ele>58</ele>
        <time>2022-05-03T07:15:22Z</time>
      </trkpt>
      <trkpt lat="47.25346" lon="-1.54037">
        <ele>58</ele>
        <time>2022-05-03T07:15:23Z</time>
      </trkpt>
      <trkpt lat="47.25345" lon="-1.54037">
        <ele>58</ele>
        <time>2022-05-03T07:15:24Z</time>
      </trkpt>
      <trkpt lat="47.25344" lon="-1.54037">
        <ele>58</ele>
        <time>2022-05-03T07:15:25Z</time>
      </trkpt>
      <trkpt lat="47.25343" lon="-1.54037">
        <ele>57</ele>
        <time>2022-05-03T07:15:26Z</time>
      </trkpt>
      <trkpt lat="47.25341" lon="-1.54037">
        <ele>57</ele>
        <time>2022-05-03T07:15:27Z</time>
      </trkpt>
      <trkpt lat="47.25341" lon="-1.54037">
        <ele>58</ele>
        <time>2022-05-03T07:15:28Z</time>
      </trkpt>
      <trkpt lat="47.2534" lon="-1.54036">
        <ele>58</ele>
        <time>2022-05-03T07:15:29Z</time>
      </trkpt>
      <trkpt lat="47.25338" lon="-1.54036">
        <ele>58</ele>
        <time>2022-05-03T07:15:30Z</time>
      </trkpt>
      <trkpt lat="47.25337" lon="-1.54035">
        <ele>58</ele>
        <time>2022-05-03T07:15:31Z</time>
      </trkpt>
      <trkpt lat="47.25336" lon="-1.54035">
        <ele>59</ele>
        <time>2022-05-03T07:15:32Z</time>
      </trkpt>
      <trkpt lat="47.25335" lon="-1.54034">
        <ele>58</ele>
        <time>2022-05-03T07:15:33Z</time>
      </trkpt>
      <trkpt lat="47.25333" lon="-1.54034">
        <ele>58</ele>
        <time>2022-05-03T07:15:34Z</time>
      </trkpt>
      <trkpt lat="47.25332" lon="-1.54033">
        <ele>58</ele>
        <time>2022-05-03T07:15:35Z</time>
      </trkpt>
      <trkpt lat="47.25331" lon="-1.54033">
        <ele>58</ele>
        <time>2022-05-03T07:15:36Z</time>
      </trkpt>
      <trkpt lat="47.25329" lon="-1.54032">
        <ele>58</ele>
        <time>2022-05-03T07:15:37Z</time>
      </trkpt>
      <trkpt lat="47.25328" lon="-1.54033">
        <ele>58</ele>
        <time>2022-05-03T07:15:38Z</time>
      </trkpt>
      <trkpt lat="47.25327" lon="-1.54033">
        <ele>58</ele>
        <time>2022-05-03T07:15:39Z</time>
      </trkpt>
      <trkpt lat="47.25325" lon="-1.54033">
        <ele>58</ele>
        <time>2022-05-03T07:15:40Z</time>
      </trkpt>
      <trkpt lat="47.25324" lon="-1.54033">
        <ele>58</ele>
        <time>2022-05-03T07:15:41Z</time>
      </trkpt>
      <trkpt lat="47.25323" lon="-1.54033">
        <ele>58</ele>
        <time>2022-05-03T07:15:42Z</time>
      </trkpt>
      <trkpt lat="47.25322" lon="-1.54033">
        <ele>58</ele>
        <time>2022-05-03T07:15:43Z</time>
      </trkpt>
      <trkpt lat="47.2532" lon="-1.54033">
        <ele>57</ele>
        <time>2022-05-03T07:15:44Z</time>
      </trkpt>
      <trkpt lat="47.25319" lon="-1.54033">
        <ele>57</ele>
        <time>2022-05-03T07:15:45Z</time>
      </trkpt>
      <trkpt lat="47.25318" lon="-1.54033">
        <ele>58</ele>
        <time>2022-05-03T07:15:46Z</time>
      </trkpt>
      <trkpt lat="47.25317" lon="-1.54034">
        <ele>57</ele>
        <time>2022-05-03T07:15:47Z</time>
      </trkpt>
      <trkpt lat="47.25316" lon="-1.54034">
        <ele>58</ele>
        <time>2022-05-03T07:15:48Z</time>
      </trkpt>
      <trkpt lat="47.25314" lon="-1.54034">
        <ele>58</ele>
        <time>2022-05-03T07:15:49Z</time>
      </trkpt>
      <trkpt lat="47.25313" lon="-1.54034">
        <ele>58</ele>
        <time>2022-05-03T07:15:50Z</time>
      </trkpt>
      <trkpt lat="47.25311" lon="-1.54035">
        <ele>58</ele>
        <time>2022-05-03T07:15:51Z</time>
      </trkpt>
      <trkpt lat="47.2531" lon="-1.54035">
        <ele>58</ele>
        <time>2022-05-03T07:15:52Z</time>
      </trkpt>
      <trkpt lat="47.25308" lon="-1.54035">
        <ele>58</ele>
        <time>2022-05-03T07:15:53Z</time>
      </trkpt>
      <trkpt lat="47.25307" lon="-1.54036">
        <ele>59</ele>
        <time>2022-05-03T07:15:54Z</time>
      </trkpt>
      <trkpt lat="47.25305" lon="-1.54036">
        <ele>59</ele>
        <time>2022-05-03T07:15:55Z</time>
      </trkpt>
      <trkpt lat="47.25303" lon="-1.54036">
        <ele>59</ele>
        <time>2022-05-03T07:15:56Z</time>
      </trkpt>
      <trkpt lat="47.25302" lon="-1.54037">
        <ele>58</ele>
        <time>2022-05-03T07:15:57Z</time>
      </trkpt>
      <trkpt lat="47.25301" lon="-1.54038">
        <ele>58</ele>
        <time>2022-05-03T07:15:58Z</time>
      </trkpt>
      <trkpt lat="47.25299" lon="-1.54038">
        <ele>59</ele>
        <time>2022-05-03T07:15:59Z</time>
      </trkpt>
      <trkpt lat="47.25298" lon="-1.54038">
        <ele>59</ele>
        <time>2022-05-03T07:16:00Z</time>
      </trkpt>
      <trkpt lat="47.25296" lon="-1.54039">
        <ele>59</ele>
        <time>2022-05-03T07:16:01Z</time>
      </trkpt>
      <trkpt lat="47.25295" lon="-1.54039">
        <ele>59</ele>
        <time>2022-05-03T07:16:02Z</time>
      </trkpt>
      <trkpt lat="47.25293" lon="-1.54039">
        <ele>59</ele>
        <time>2022-05-03T07:16:03Z</time>
      </trkpt>
      <trkpt lat="47.25291" lon="-1.54039">
        <ele>59</ele>
        <time>2022-05-03T07:16:04Z</time>
      </trkpt>
      <trkpt lat="47.2529" lon="-1.5404">
        <ele>59</ele>
        <time>2022-05-03T07:16:05Z</time>
      </trkpt>
      <trkpt lat="47.25289" lon="-1.5404">
        <ele>59</ele>
        <time>2022-05-03T07:16:06Z</time>
      </trkpt>
      <trkpt lat="47.25288" lon="-1.5404">
        <ele>59</ele>
        <time>2022-05-03T07:16:07Z</time>
      </trkpt>
      <trkpt lat="47.25288" lon="-1.5404">
        <ele>59</ele>
        <time>2022-05-03T07:16:08Z</time>
      </trkpt>
      <trkpt lat="47.25287" lon="-1.54041">
        <ele>59</ele>
        <time>2022-05-03T07:16:09Z</time>
      </trkpt>
      <trkpt lat="47.25285" lon="-1.54041">
        <ele>59</ele>
        <time>2022-05-03T07:16:10Z</time>
      </trkpt>
      <trkpt lat="47.25284" lon="-1.54041">
        <ele>59</ele>
        <time>2022-05-03T07:16:11Z</time>
      </trkpt>
      <trkpt lat="47.25282" lon="-1.54042">
        <ele>58</ele>
        <time>2022-05-03T07:16:12Z</time>
      </trkpt>
      <trkpt lat="47.25281" lon="-1.54042">
        <ele>58</ele>
        <time>2022-05-03T07:16:13Z</time>
      </trkpt>
      <trkpt lat="47.25279" lon="-1.54042">
        <ele>58</ele>
        <time>2022-05-03T07:16:14Z</time>
      </trkpt>
      <trkpt lat="47.25278" lon="-1.54042">
        <ele>58</ele>
        <time>2022-05-03T07:16:15Z</time>
      </trkpt>
      <trkpt lat="47.25277" lon="-1.54042">
        <ele>57</ele>
        <time>2022-05-03T07:16:16Z</time>
      </trkpt>
      <trkpt lat="47.25275" lon="-1.54043">
        <ele>57</ele>
        <time>2022-05-03T07:16:17Z</time>
      </trkpt>
      <trkpt lat="47.25274" lon="-1.54043">
        <ele>57</ele>
        <time>2022-05-03T07:16:18Z</time>
      </trkpt>
      <trkpt lat="47.25272" lon="-1.54044">
        <ele>57</ele>
        <time>2022-05-03T07:16:19Z</time>
      </trkpt>
      <trkpt lat="47.25271" lon="-1.54044">
        <ele>57</ele>
        <time>2022-05-03T07:16:20Z</time>
      </trkpt>
      <trkpt lat="47.25269" lon="-1.54045">
        <ele>57</ele>
        <time>2022-05-03T07:16:21Z</time>
      </trkpt>
      <trkpt lat="47.25267" lon="-1.54045">
        <ele>57</ele>
        <time>2022-05-03T07:16:22Z</time>
      </trkpt>
      <trkpt lat="47.25266" lon="-1.54046">
        <ele>57</ele>
        <time>2022-05-03T07:16:23Z</time>
      </trkpt>
      <trkpt lat="47.25265" lon="-1.54046">
        <ele>56</ele>
        <time>2022-05-03T07:16:24Z</time>
      </trkpt>
      <trkpt lat="47.25264" lon="-1.54046">
        <ele>56</ele>
        <time>2022-05-03T07:16:25Z</time>
      </trkpt>
      <trkpt lat="47.25263" lon="-1.54047">
        <ele>56</ele>
        <time>2022-05-03T07:16:26Z</time>
      </trkpt>
      <trkpt lat="47.25262" lon="-1.54046">
        <ele>56</ele>
        <time>2022-05-03T07:16:27Z</time>
      </trkpt>
      <trkpt lat="47.2526" lon="-1.54046">
        <ele>56</ele>
        <time>2022-05-03T07:16:28Z</time>
      </trkpt>
      <trkpt lat="47.25259" lon="-1.54046">
        <ele>56</ele>
        <time>2022-05-03T07:16:29Z</time>
      </trkpt>
      <trkpt lat="47.25257" lon="-1.54046">
        <ele>56</ele>
        <time>2022-05-03T07:16:30Z</time>
      </trkpt>
      <trkpt lat="47.25256" lon="-1.54046">
        <ele>56</ele>
        <time>2022-05-03T07:16:31Z</time>
      </trkpt>
      <trkpt lat="47.25254" lon="-1.54046">
        <ele>56</ele>
        <time>2022-05-03T07:16:32Z</time>
      </trkpt>
      <trkpt lat="47.25253" lon="-1.54046">
        <ele>57</ele>
        <time>2022-05-03T07:16:33Z</time>
      </trkpt>
      <trkpt lat="47.25251" lon="-1.54046">
        <ele>57</ele>
        <time>2022-05-03T07:16:34Z</time>
      </trkpt>
      <trkpt lat="47.2525" lon="-1.54047">
        <ele>56</ele>
        <time>2022-05-03T07:16:35Z</time>
      </trkpt>
      <trkpt lat="47.25248" lon="-1.54047">
        <ele>56</ele>
        <time>2022-05-03T07:16:36Z</time>
      </trkpt>
      <trkpt lat="47.25247" lon="-1.54047">
        <ele>56</ele>
        <time>2022-05-03T07:16:37Z</time>
      </trkpt>
      <trkpt lat="47.25245" lon="-1.54047">
        <ele>56</ele>
        <time>2022-05-03T07:16:38Z</time>
      </trkpt>
      <trkpt lat="47.25244" lon="-1.54047">
        <ele>56</ele>
        <time>2022-05-03T07:16:39Z</time>
      </trkpt>
      <trkpt lat="47.25242" lon="-1.54048">
        <ele>55</ele>
        <time>2022-05-03T07:16:40Z</time>
      </trkpt>
      <trkpt lat="47.2524" lon="-1.54048">
        <ele>55</ele>
        <time>2022-05-03T07:16:41Z</time>
      </trkpt>
      <trkpt lat="47.25238" lon="-1.54049">
        <ele>55</ele>
        <time>2022-05-03T07:16:42Z</time>
      </trkpt>
      <trkpt lat="47.25237" lon="-1.54049">
        <ele>55</ele>
        <time>2022-05-03T07:16:43Z</time>
      </trkpt>
      <trkpt lat="47.25236" lon="-1.5405">
        <ele>56</ele>
        <time>2022-05-03T07:16:44Z</time>
      </trkpt>
      <trkpt lat="47.25235" lon="-1.5405">
        <ele>56</ele>
        <time>2022-05-03T07:16:45Z</time>
      </trkpt>
      <trkpt lat="47.25234" lon="-1.54051">
        <ele>56</ele>
        <time>2022-05-03T07:16:46Z</time>
      </trkpt>
      <trkpt lat="47.25232" lon="-1.54052">
        <ele>56</ele>
        <time>2022-05-03T07:16:47Z</time>
      </trkpt>
      <trkpt lat="47.2523" lon="-1.54053">
        <ele>57</ele>
        <time>2022-05-03T07:16:48Z</time>
      </trkpt>
      <trkpt lat="47.25229" lon="-1.54053">
        <ele>57</ele>
        <time>2022-05-03T07:16:49Z</time>
      </trkpt>
      <trkpt lat="47.25227" lon="-1.54053">
        <ele>57</ele>
        <time>2022-05-03T07:16:50Z</time>
      </trkpt>
      <trkpt lat="47.25226" lon="-1.54053">
        <ele>57</ele>
        <time>2022-05-03T07:16:51Z</time>
      </trkpt>
      <trkpt lat="47.25225" lon="-1.54053">
        <ele>58</ele>
        <time>2022-05-03T07:16:52Z</time>
      </trkpt>
      <trkpt lat="47.25223" lon="-1.54053">
        <ele>57</ele>
        <time>2022-05-03T07:16:53Z</time>
      </trkpt>
      <trkpt lat="47.25222" lon="-1.54053">
        <ele>57</ele>
        <time>2022-05-03T07:16:54Z</time>
      </trkpt>
      <trkpt lat="47.25221" lon="-1.54054">
        <ele>57</ele>
        <time>2022-05-03T07:16:55Z</time>
      </trkpt>
      <trkpt lat="47.2522" lon="-1.54054">
        <ele>57</ele>
        <time>2022-05-03T07:16:56Z</time>
      </trkpt>
      <trkpt lat="47.25219" lon="-1.54054">
        <ele>57</ele>
        <time>2022-05-03T07:16:57Z</time>
      </trkpt>
      <trkpt lat="47.25217" lon="-1.54054">
        <ele>57</ele>
        <time>2022-05-03T07:16:58Z</time>
      </trkpt>
      <trkpt lat="47.25216" lon="-1.54054">
        <ele>57</ele>
        <time>2022-05-03T07:16:59Z</time>
      </trkpt>
      <trkpt lat="47.25215" lon="-1.54054">
        <ele>56</ele>
        <time>2022-05-03T07:17:00Z</time>
      </trkpt>
      <trkpt lat="47.25214" lon="-1.54055">
        <ele>56</ele>
        <time>2022-05-03T07:17:01Z</time>
      </trkpt>
      <trkpt lat="47.25213" lon="-1.54055">
        <ele>56</ele>
        <time>2022-05-03T07:17:02Z</time>
      </trkpt>
      <trkpt lat="47.25211" lon="-1.54056">
        <ele>56</ele>
        <time>2022-05-03T07:17:03Z</time>
      </trkpt>
      <trkpt lat="47.25209" lon="-1.54056">
        <ele>56</ele>
        <time>2022-05-03T07:17:04Z</time>
      </trkpt>
      <trkpt lat="47.25208" lon="-1.54056">
        <ele>55</ele>
        <time>2022-05-03T07:17:05Z</time>
      </trkpt>
      <trkpt lat="47.25207" lon="-1.54056">
        <ele>56</ele>
        <time>2022-05-03T07:17:06Z</time>
      </trkpt>
      <trkpt lat="47.25206" lon="-1.54057">
        <ele>56</ele>
        <time>2022-05-03T07:17:07Z</time>
      </trkpt>
      <trkpt lat="47.25205" lon="-1.54057">
        <ele>57</ele>
        <time>2022-05-03T07:17:08Z</time>
      </trkpt>
      <trkpt lat="47.25203" lon="-1.54057">
        <ele>56</ele>
        <time>2022-05-03T07:17:09Z</time>
      </trkpt>
      <trkpt lat="47.25202" lon="-1.54058">
        <ele>56</ele>
        <time>2022-05-03T07:17:10Z</time>
      </trkpt>
      <trkpt lat="47.252" lon="-1.54058">
        <ele>56</ele>
        <time>2022-05-03T07:17:11Z</time>
      </trkpt>
      <trkpt lat="47.25199" lon="-1.54059">
        <ele>56</ele>
        <time>2022-05-03T07:17:12Z</time>
      </trkpt>
      <trkpt lat="47.25197" lon="-1.54059">
        <ele>56</ele>
        <time>2022-05-03T07:17:13Z</time>
      </trkpt>
      <trkpt lat="47.25196" lon="-1.54059">
        <ele>56</ele>
        <time>2022-05-03T07:17:14Z</time>
      </trkpt>
      <trkpt lat="47.25194" lon="-1.5406">
        <ele>56</ele>
        <time>2022-05-03T07:17:15Z</time>
      </trkpt>
      <trkpt lat="47.25193" lon="-1.5406">
        <ele>56</ele>
        <time>2022-05-03T07:17:16Z</time>
      </trkpt>
      <trkpt lat="47.25192" lon="-1.5406">
        <ele>56</ele>
        <time>2022-05-03T07:17:17Z</time>
      </trkpt>
      <trkpt lat="47.2519" lon="-1.54061">
        <ele>56</ele>
        <time>2022-05-03T07:17:18Z</time>
      </trkpt>
      <trkpt lat="47.25189" lon="-1.54061">
        <ele>56</ele>
        <time>2022-05-03T07:17:19Z</time>
      </trkpt>
      <trkpt lat="47.25188" lon="-1.54062">
        <ele>56</ele>
        <time>2022-05-03T07:17:20Z</time>
      </trkpt>
      <trkpt lat="47.25187" lon="-1.54062">
        <ele>56</ele>
        <time>2022-05-03T07:17:21Z</time>
      </trkpt>
      <trkpt lat="47.25185" lon="-1.54062">
        <ele>55</ele>
        <time>2022-05-03T07:17:22Z</time>
      </trkpt>
      <trkpt lat="47.25184" lon="-1.54063">
        <ele>56</ele>
        <time>2022-05-03T07:17:23Z</time>
      </trkpt>
      <trkpt lat="47.25183" lon="-1.54063">
        <ele>56</ele>
        <time>2022-05-03T07:17:24Z</time>
      </trkpt>
      <trkpt lat="47.25182" lon="-1.54063">
        <ele>56</ele>
        <time>2022-05-03T07:17:25Z</time>
      </trkpt>
      <trkpt lat="47.2518" lon="-1.54063">
        <ele>56</ele>
        <time>2022-05-03T07:17:26Z</time>
      </trkpt>
      <trkpt lat="47.25179" lon="-1.54063">
        <ele>56</ele>
        <time>2022-05-03T07:17:27Z</time>
      </trkpt>
      <trkpt lat="47.25178" lon="-1.54063">
        <ele>56</ele>
        <time>2022-05-03T07:17:28Z</time>
      </trkpt>
      <trkpt lat="47.25176" lon="-1.54064">
        <ele>56</ele>
        <time>2022-05-03T07:17:29Z</time>
      </trkpt>
      <trkpt lat="47.25175" lon="-1.54064">
        <ele>57</ele>
        <time>2022-05-03T07:17:30Z</time>
      </trkpt>
      <trkpt lat="47.25174" lon="-1.54064">
        <ele>57</ele>
        <time>2022-05-03T07:17:31Z</time>
      </trkpt>
      <trkpt lat="47.25172" lon="-1.54064">
        <ele>57</ele>
        <time>2022-05-03T07:17:32Z</time>
      </trkpt>
      <trkpt lat="47.25171" lon="-1.54064">
        <ele>57</ele>
        <time>2022-05-03T07:17:33Z</time>
      </trkpt>
      <trkpt lat="47.2517" lon="-1.54065">
        <ele>56</ele>
        <time>2022-05-03T07:17:34Z</time>
      </trkpt>
      <trkpt lat="47.25169" lon="-1.54065">
        <ele>56</ele>
        <time>2022-05-03T07:17:35Z</time>
      </trkpt>
      <trkpt lat="47.25167" lon="-1.54066">
        <ele>56</ele>
        <time>2022-05-03T07:17:36Z</time>
      </trkpt>
      <trkpt lat="47.25165" lon="-1.54066">
        <ele>56</ele>
        <time>2022-05-03T07:17:37Z</time>
      </trkpt>
      <trkpt lat="47.25164" lon="-1.54066">
        <ele>57</ele>
        <time>2022-05-03T07:17:38Z</time>
      </trkpt>
      <trkpt lat="47.25162" lon="-1.54066">
        <ele>57</ele>
        <time>2022-05-03T07:17:39Z</time>
      </trkpt>
      <trkpt lat="47.25161" lon="-1.54067">
        <ele>57</ele>
        <time>2022-05-03T07:17:40Z</time>
      </trkpt>
      <trkpt lat="47.25159" lon="-1.54068">
        <ele>57</ele>
        <time>2022-05-03T07:17:41Z</time>
      </trkpt>
      <trkpt lat="47.25158" lon="-1.54069">
        <ele>57</ele>
        <time>2022-05-03T07:17:42Z</time>
      </trkpt>
      <trkpt lat="47.25156" lon="-1.5407">
        <ele>57</ele>
        <time>2022-05-03T07:17:43Z</time>
      </trkpt>
      <trkpt lat="47.25156" lon="-1.54071">
        <ele>57</ele>
        <time>2022-05-03T07:17:44Z</time>
      </trkpt>
      <trkpt lat="47.25154" lon="-1.54072">
        <ele>57</ele>
        <time>2022-05-03T07:17:45Z</time>
      </trkpt>
      <trkpt lat="47.25153" lon="-1.54074">
        <ele>56</ele>
        <time>2022-05-03T07:17:46Z</time>
      </trkpt>
      <trkpt lat="47.25151" lon="-1.54075">
        <ele>57</ele>
        <time>2022-05-03T07:17:47Z</time>
      </trkpt>
      <trkpt lat="47.2515" lon="-1.54077">
        <ele>57</ele>
        <time>2022-05-03T07:17:48Z</time>
      </trkpt>
      <trkpt lat="47.25148" lon="-1.54078">
        <ele>57</ele>
        <time>2022-05-03T07:17:49Z</time>
      </trkpt>
      <trkpt lat="47.25147" lon="-1.54079">
        <ele>56</ele>
        <time>2022-05-03T07:17:50Z</time>
      </trkpt>
      <trkpt lat="47.25146" lon="-1.5408">
        <ele>56</ele>
        <time>2022-05-03T07:17:51Z</time>
      </trkpt>
      <trkpt lat="47.25144" lon="-1.54081">
        <ele>56</ele>
        <time>2022-05-03T07:17:52Z</time>
      </trkpt>
      <trkpt lat="47.25143" lon="-1.54082">
        <ele>56</ele>
        <time>2022-05-03T07:17:53Z</time>
      </trkpt>
      <trkpt lat="47.25142" lon="-1.54083">
        <ele>56</ele>
        <time>2022-05-03T07:17:54Z</time>
      </trkpt>
      <trkpt lat="47.2514" lon="-1.54084">
        <ele>56</ele>
        <time>2022-05-03T07:17:55Z</time>
      </trkpt>
      <trkpt lat="47.25139" lon="-1.54085">
        <ele>56</ele>
        <time>2022-05-03T07:17:56Z</time>
      </trkpt>
      <trkpt lat="47.25137" lon="-1.54087">
        <ele>56</ele>
        <time>2022-05-03T07:17:57Z</time>
      </trkpt>
      <trkpt lat="47.25136" lon="-1.54087">
        <ele>55</ele>
        <time>2022-05-03T07:17:58Z</time>
      </trkpt>
      <trkpt lat="47.25135" lon="-1.54089">
        <ele>55</ele>
        <time>2022-05-03T07:17:59Z</time>
      </trkpt>
      <trkpt lat="47.25134" lon="-1.54091">
        <ele>56</ele>
        <time>2022-05-03T07:18:00Z</time>
      </trkpt>
      <trkpt lat="47.25134" lon="-1.54092">
        <ele>56</ele>
        <time>2022-05-03T07:18:01Z</time>
      </trkpt>
      <trkpt lat="47.25133" lon="-1.54094">
        <ele>56</ele>
        <time>2022-05-03T07:18:02Z</time>
      </trkpt>
      <trkpt lat="47.25132" lon="-1.54096">
        <ele>57</ele>
        <time>2022-05-03T07:18:03Z</time>
      </trkpt>
      <trkpt lat="47.25131" lon="-1.54097">
        <ele>57</ele>
        <time>2022-05-03T07:18:04Z</time>
      </trkpt>
      <trkpt lat="47.2513" lon="-1.54098">
        <ele>57</ele>
        <time>2022-05-03T07:18:05Z</time>
      </trkpt>
      <trkpt lat="47.25129" lon="-1.541">
        <ele>56</ele>
        <time>2022-05-03T07:18:06Z</time>
      </trkpt>
      <trkpt lat="47.25129" lon="-1.54101">
        <ele>56</ele>
        <time>2022-05-03T07:18:07Z</time>
      </trkpt>
      <trkpt lat="47.25128" lon="-1.54102">
        <ele>57</ele>
        <time>2022-05-03T07:18:08Z</time>
      </trkpt>
      <trkpt lat="47.25127" lon="-1.54104">
        <ele>56</ele>
        <time>2022-05-03T07:18:09Z</time>
      </trkpt>
      <trkpt lat="47.25126" lon="-1.54105">
        <ele>56</ele>
        <time>2022-05-03T07:18:10Z</time>
      </trkpt>
      <trkpt lat="47.25124" lon="-1.54106">
        <ele>55</ele>
        <time>2022-05-03T07:18:11Z</time>
      </trkpt>
      <trkpt lat="47.25123" lon="-1.54108">
        <ele>55</ele>
        <time>2022-05-03T07:18:12Z</time>
      </trkpt>
      <trkpt lat="47.25122" lon="-1.54109">
        <ele>55</ele>
        <time>2022-05-03T07:18:13Z</time>
      </trkpt>
      <trkpt lat="47.25121" lon="-1.5411">
        <ele>55</ele>
        <time>2022-05-03T07:18:14Z</time>
      </trkpt>
      <trkpt lat="47.25119" lon="-1.54111">
        <ele>54</ele>
        <time>2022-05-03T07:18:15Z</time>
      </trkpt>
      <trkpt lat="47.25118" lon="-1.54112">
        <ele>54</ele>
        <time>2022-05-03T07:18:16Z</time>
      </trkpt>
      <trkpt lat="47.25117" lon="-1.54113">
        <ele>54</ele>
        <time>2022-05-03T07:18:17Z</time>
      </trkpt>
      <trkpt lat="47.25116" lon="-1.54114">
        <ele>54</ele>
        <time>2022-05-03T07:18:18Z</time>
      </trkpt>
      <trkpt lat="47.25114" lon="-1.54115">
        <ele>54</ele>
        <time>2022-05-03T07:18:19Z</time>
      </trkpt>
      <trkpt lat="47.25113" lon="-1.54116">
        <ele>54</ele>
        <time>2022-05-03T07:18:20Z</time>
      </trkpt>
      <trkpt lat="47.25112" lon="-1.54117">
        <ele>54</ele>
        <time>2022-05-03T07:18:21Z</time>
      </trkpt>
      <trkpt lat="47.25111" lon="-1.54118">
        <ele>54</ele>
        <time>2022-05-03T07:18:22Z</time>
      </trkpt>
      <trkpt lat="47.25109" lon="-1.54119">
        <ele>54</ele>
        <time>2022-05-03T07:18:23Z</time>
      </trkpt>
      <trkpt lat="47.25108" lon="-1.5412">
        <ele>53</ele>
        <time>2022-05-03T07:18:24Z</time>
      </trkpt>
      <trkpt lat="47.25106" lon="-1.54121">
        <ele>54</ele>
        <time>2022-05-03T07:18:25Z</time>
      </trkpt>
      <trkpt lat="47.25105" lon="-1.54122">
        <ele>54</ele>
        <time>2022-05-03T07:18:26Z</time>
      </trkpt>
      <trkpt lat="47.25103" lon="-1.54123">
        <ele>54</ele>
        <time>2022-05-03T07:18:27Z</time>
      </trkpt>
      <trkpt lat="47.25102" lon="-1.54123">
        <ele>54</ele>
        <time>2022-05-03T07:18:28Z</time>
      </trkpt>
      <trkpt lat="47.251" lon="-1.54124">
        <ele>54</ele>
        <time>2022-05-03T07:18:29Z</time>
      </trkpt>
      <trkpt lat="47.25099" lon="-1.54125">
        <ele>54</ele>
        <time>2022-05-03T07:18:30Z</time>
      </trkpt>
      <trkpt lat="47.25097" lon="-1.54126">
        <ele>54</ele>
        <time>2022-05-03T07:18:31Z</time>
      </trkpt>
      <trkpt lat="47.25096" lon="-1.54127">
        <ele>54</ele>
        <time>2022-05-03T07:18:32Z</time>
      </trkpt>
      <trkpt lat="47.25095" lon="-1.54128">
        <ele>54</ele>
        <time>2022-05-03T07:18:33Z</time>
      </trkpt>
      <trkpt lat="47.25093" lon="-1.54129">
        <ele>54</ele>
        <time>2022-05-03T07:18:34Z</time>
      </trkpt>
      <trkpt lat="47.25092" lon="-1.5413">
        <ele>54</ele>
        <time>2022-05-03T07:18:35Z</time>
      </trkpt>
      <trkpt lat="47.2509" lon="-1.54131">
        <ele>54</ele>
        <time>2022-05-03T07:18:36Z</time>
      </trkpt>
      <trkpt lat="47.25089" lon="-1.54132">
        <ele>54</ele>
        <time>2022-05-03T07:18:37Z</time>
      </trkpt>
      <trkpt lat="47.25088" lon="-1.54133">
        <ele>53</ele>
        <time>2022-05-03T07:18:38Z</time>
      </trkpt>
      <trkpt lat="47.25086" lon="-1.54133">
        <ele>53</ele>
        <time>2022-05-03T07:18:39Z</time>
      </trkpt>
      <trkpt lat="47.25085" lon="-1.54134">
        <ele>53</ele>
        <time>2022-05-03T07:18:40Z</time>
      </trkpt>
      <trkpt lat="47.25084" lon="-1.54135">
        <ele>53</ele>
        <time>2022-05-03T07:18:41Z</time>
      </trkpt>
      <trkpt lat="47.25082" lon="-1.54136">
        <ele>53</ele>
        <time>2022-05-03T07:18:42Z</time>
      </trkpt>
      <trkpt lat="47.25081" lon="-1.54138">
        <ele>53</ele>
        <time>2022-05-03T07:18:43Z</time>
      </trkpt>
      <trkpt lat="47.25079" lon="-1.54139">
        <ele>53</ele>
        <time>2022-05-03T07:18:44Z</time>
      </trkpt>
      <trkpt lat="47.25078" lon="-1.5414">
        <ele>53</ele>
        <time>2022-05-03T07:18:45Z</time>
      </trkpt>
      <trkpt lat="47.25077" lon="-1.54141">
        <ele>53</ele>
        <time>2022-05-03T07:18:46Z</time>
      </trkpt>
      <trkpt lat="47.25075" lon="-1.54142">
        <ele>53</ele>
        <time>2022-05-03T07:18:47Z</time>
      </trkpt>
      <trkpt lat="47.25074" lon="-1.54144">
        <ele>53</ele>
        <time>2022-05-03T07:18:48Z</time>
      </trkpt>
      <trkpt lat="47.25073" lon="-1.54145">
        <ele>52</ele>
        <time>2022-05-03T07:18:49Z</time>
      </trkpt>
      <trkpt lat="47.25072" lon="-1.54146">
        <ele>52</ele>
        <time>2022-05-03T07:18:50Z</time>
      </trkpt>
      <trkpt lat="47.25071" lon="-1.54147">
        <ele>52</ele>
        <time>2022-05-03T07:18:51Z</time>
      </trkpt>
      <trkpt lat="47.25069" lon="-1.54149">
        <ele>52</ele>
        <time>2022-05-03T07:18:52Z</time>
      </trkpt>
      <trkpt lat="47.25068" lon="-1.5415">
        <ele>52</ele>
        <time>2022-05-03T07:18:53Z</time>
      </trkpt>
      <trkpt lat="47.25067" lon="-1.54151">
        <ele>52</ele>
        <time>2022-05-03T07:18:54Z</time>
      </trkpt>
      <trkpt lat="47.25066" lon="-1.54152">
        <ele>52</ele>
        <time>2022-05-03T07:18:55Z</time>
      </trkpt>
      <trkpt lat="47.25065" lon="-1.54153">
        <ele>52</ele>
        <time>2022-05-03T07:18:56Z</time>
      </trkpt>
      <trkpt lat="47.25063" lon="-1.54154">
        <ele>52</ele>
        <time>2022-05-03T07:18:57Z</time>
      </trkpt>
      <trkpt lat="47.25062" lon="-1.54156">
        <ele>52</ele>
        <time>2022-05-03T07:18:58Z</time>
      </trkpt>
      <trkpt lat="47.25061" lon="-1.54157">
        <ele>52</ele>
        <time>2022-05-03T07:18:59Z</time>
      </trkpt>
      <trkpt lat="47.2506" lon="-1.54158">
        <ele>52</ele>
        <time>2022-05-03T07:19:00Z</time>
      </trkpt>
      <trkpt lat="47.2506" lon="-1.5416">
        <ele>52</ele>
        <time>2022-05-03T07:19:01Z</time>
      </trkpt>
      <trkpt lat="47.25059" lon="-1.54161">
        <ele>52</ele>
        <time>2022-05-03T07:19:02Z</time>
      </trkpt>
      <trkpt lat="47.25058" lon="-1.54162">
        <ele>52</ele>
        <time>2022-05-03T07:19:03Z</time>
      </trkpt>
      <trkpt lat="47.25057" lon="-1.54163">
        <ele>52</ele>
        <time>2022-05-03T07:19:04Z</time>
      </trkpt>
      <trkpt lat="47.25055" lon="-1.54164">
        <ele>52</ele>
        <time>2022-05-03T07:19:05Z</time>
      </trkpt>
      <trkpt lat="47.25055" lon="-1.54166">
        <ele>52</ele>
        <time>2022-05-03T07:19:06Z</time>
      </trkpt>
      <trkpt lat="47.25054" lon="-1.54167">
        <ele>52</ele>
        <time>2022-05-03T07:19:07Z</time>
      </trkpt>
      <trkpt lat="47.25053" lon="-1.54169">
        <ele>52</ele>
        <time>2022-05-03T07:19:08Z</time>
      </trkpt>
      <trkpt lat="47.25052" lon="-1.5417">
        <ele>52</ele>
        <time>2022-05-03T07:19:09Z</time>
      </trkpt>
      <trkpt lat="47.25051" lon="-1.54171">
        <ele>52</ele>
        <time>2022-05-03T07:19:10Z</time>
      </trkpt>
      <trkpt lat="47.2505" lon="-1.54173">
        <ele>52</ele>
        <time>2022-05-03T07:19:11Z</time>
      </trkpt>
      <trkpt lat="47.25049" lon="-1.54175">
        <ele>52</ele>
        <time>2022-05-03T07:19:12Z</time>
      </trkpt>
      <trkpt lat="47.25048" lon="-1.54176">
        <ele>52</ele>
        <time>2022-05-03T07:19:13Z</time>
      </trkpt>
      <trkpt lat="47.25047" lon="-1.54177">
        <ele>52</ele>
        <time>2022-05-03T07:19:14Z</time>
      </trkpt>
      <trkpt lat="47.25046" lon="-1.54179">
        <ele>52</ele>
        <time>2022-05-03T07:19:15Z</time>
      </trkpt>
      <trkpt lat="47.25045" lon="-1.5418">
        <ele>52</ele>
        <time>2022-05-03T07:19:16Z</time>
      </trkpt>
      <trkpt lat="47.25044" lon="-1.54181">
        <ele>52</ele>
        <time>2022-05-03T07:19:17Z</time>
      </trkpt>
      <trkpt lat="47.25042" lon="-1.54183">
        <ele>52</ele>
        <time>2022-05-03T07:19:18Z</time>
      </trkpt>
      <trkpt lat="47.25041" lon="-1.54184">
        <ele>52</ele>
        <time>2022-05-03T07:19:19Z</time>
      </trkpt>
      <trkpt lat="47.2504" lon="-1.54185">
        <ele>51</ele>
        <time>2022-05-03T07:19:20Z</time>
      </trkpt>
      <trkpt lat="47.25039" lon="-1.54186">
        <ele>52</ele>
        <time>2022-05-03T07:19:21Z</time>
      </trkpt>
      <trkpt lat="47.25038" lon="-1.54188">
        <ele>52</ele>
        <time>2022-05-03T07:19:22Z</time>
      </trkpt>
      <trkpt lat="47.25037" lon="-1.54189">
        <ele>51</ele>
        <time>2022-05-03T07:19:23Z</time>
      </trkpt>
      <trkpt lat="47.25036" lon="-1.5419">
        <ele>52</ele>
        <time>2022-05-03T07:19:24Z</time>
      </trkpt>
      <trkpt lat="47.25035" lon="-1.54192">
        <ele>51</ele>
        <time>2022-05-03T07:19:25Z</time>
      </trkpt>
      <trkpt lat="47.25034" lon="-1.54193">
        <ele>51</ele>
        <time>2022-05-03T07:19:26Z</time>
      </trkpt>
      <trkpt lat="47.25032" lon="-1.54195">
        <ele>51</ele>
        <time>2022-05-03T07:19:27Z</time>
      </trkpt>
      <trkpt lat="47.25031" lon="-1.54196">
        <ele>51</ele>
        <time>2022-05-03T07:19:28Z</time>
      </trkpt>
      <trkpt lat="47.2503" lon="-1.54198">
        <ele>51</ele>
        <time>2022-05-03T07:19:29Z</time>
      </trkpt>
      <trkpt lat="47.25028" lon="-1.54199">
        <ele>51</ele>
        <time>2022-05-03T07:19:30Z</time>
      </trkpt>
      <trkpt lat="47.25027" lon="-1.542">
        <ele>51</ele>
        <time>2022-05-03T07:19:31Z</time>
      </trkpt>
      <trkpt lat="47.25026" lon="-1.54201">
        <ele>51</ele>
        <time>2022-05-03T07:19:32Z</time>
      </trkpt>
      <trkpt lat="47.25025" lon="-1.54202">
        <ele>51</ele>
        <time>2022-05-03T07:19:33Z</time>
      </trkpt>
      <trkpt lat="47.25024" lon="-1.54203">
        <ele>51</ele>
        <time>2022-05-03T07:19:34Z</time>
      </trkpt>
      <trkpt lat="47.25023" lon="-1.54205">
        <ele>51</ele>
        <time>2022-05-03T07:19:35Z</time>
      </trkpt>
      <trkpt lat="47.25022" lon="-1.54206">
        <ele>51</ele>
        <time>2022-05-03T07:19:36Z</time>
      </trkpt>
      <trkpt lat="47.25021" lon="-1.54207">
        <ele>51</ele>
        <time>2022-05-03T07:19:37Z</time>
      </trkpt>
      <trkpt lat="47.2502" lon="-1.54208">
        <ele>51</ele>
        <time>2022-05-03T07:19:38Z</time>
      </trkpt>
      <trkpt lat="47.25018" lon="-1.54209">
        <ele>51</ele>
        <time>2022-05-03T07:19:39Z</time>
      </trkpt>
      <trkpt lat="47.25018" lon="-1.54211">
        <ele>52</ele>
        <time>2022-05-03T07:19:40Z</time>
      </trkpt>
      <trkpt lat="47.25017" lon="-1.54212">
        <ele>52</ele>
        <time>2022-05-03T07:19:41Z</time>
      </trkpt>
      <trkpt lat="47.25016" lon="-1.54213">
        <ele>52</ele>
        <time>2022-05-03T07:19:42Z</time>
      </trkpt>
      <trkpt lat="47.25015" lon="-1.54214">
        <ele>52</ele>
        <time>2022-05-03T07:19:43Z</time>
      </trkpt>
      <trkpt lat="47.25014" lon="-1.54215">
        <ele>52</ele>
        <time>2022-05-03T07:19:44Z</time>
      </trkpt>
      <trkpt lat="47.25013" lon="-1.54217">
        <ele>52</ele>
        <time>2022-05-03T07:19:45Z</time>
      </trkpt>
      <trkpt lat="47.25011" lon="-1.54218">
        <ele>52</ele>
        <time>2022-05-03T07:19:46Z</time>
      </trkpt>
      <trkpt lat="47.2501" lon="-1.54219">
        <ele>52</ele>
        <time>2022-05-03T07:19:47Z</time>
      </trkpt>
      <trkpt lat="47.25008" lon="-1.5422">
        <ele>52</ele>
        <time>2022-05-03T07:19:48Z</time>
      </trkpt>
      <trkpt lat="47.25007" lon="-1.54222">
        <ele>52</ele>
        <time>2022-05-03T07:19:49Z</time>
      </trkpt>
      <trkpt lat="47.25006" lon="-1.54223">
        <ele>52</ele>
        <time>2022-05-03T07:19:50Z</time>
      </trkpt>
      <trkpt lat="47.25005" lon="-1.54225">
        <ele>52</ele>
        <time>2022-05-03T07:19:51Z</time>
      </trkpt>
      <trkpt lat="47.25004" lon="-1.54226">
        <ele>51</ele>
        <time>2022-05-03T07:19:52Z</time>
      </trkpt>
      <trkpt lat="47.25003" lon="-1.54227">
        <ele>51</ele>
        <time>2022-05-03T07:19:53Z</time>
      </trkpt>
      <trkpt lat="47.25002" lon="-1.54228">
        <ele>52</ele>
        <time>2022-05-03T07:19:54Z</time>
      </trkpt>
      <trkpt lat="47.25001" lon="-1.54229">
        <ele>52</ele>
        <time>2022-05-03T07:19:55Z</time>
      </trkpt>
      <trkpt lat="47.25" lon="-1.5423">
        <ele>52</ele>
        <time>2022-05-03T07:19:56Z</time>
      </trkpt>
      <trkpt lat="47.24999" lon="-1.54232">
        <ele>52</ele>
        <time>2022-05-03T07:19:57Z</time>
      </trkpt>
      <trkpt lat="47.24997" lon="-1.54233">
        <ele>52</ele>
        <time>2022-05-03T07:19:58Z</time>
      </trkpt>
      <trkpt lat="47.24996" lon="-1.54234">
        <ele>52</ele>
        <time>2022-05-03T07:19:59Z</time>
      </trkpt>
      <trkpt lat="47.24995" lon="-1.54236">
        <ele>52</ele>
        <time>2022-05-03T07:20:00Z</time>
      </trkpt>
      <trkpt lat="47.24994" lon="-1.54237">
        <ele>52</ele>
        <time>2022-05-03T07:20:01Z</time>
      </trkpt>
      <trkpt lat="47.24993" lon="-1.54238">
        <ele>52</ele>
        <time>2022-05-03T07:20:02Z</time>
      </trkpt>
      <trkpt lat="47.24991" lon="-1.54239">
        <ele>52</ele>
        <time>2022-05-03T07:20:03Z</time>
      </trkpt>
      <trkpt lat="47.2499" lon="-1.5424">
        <ele>51</ele>
        <time>2022-05-03T07:20:04Z</time>
      </trkpt>
      <trkpt lat="47.24989" lon="-1.54241">
        <ele>51</ele>
        <time>2022-05-03T07:20:05Z</time>
      </trkpt>
      <trkpt lat="47.24988" lon="-1.54243">
        <ele>51</ele>
        <time>2022-05-03T07:20:06Z</time>
      </trkpt>
      <trkpt lat="47.24987" lon="-1.54244">
        <ele>51</ele>
        <time>2022-05-03T07:20:07Z</time>
      </trkpt>
      <trkpt lat="47.24986" lon="-1.54245">
        <ele>51</ele>
        <time>2022-05-03T07:20:08Z</time>
      </trkpt>
      <trkpt lat="47.24985" lon="-1.54246">
        <ele>51</ele>
        <time>2022-05-03T07:20:09Z</time>
      </trkpt>
      <trkpt lat="47.24984" lon="-1.54247">
        <ele>51</ele>
        <time>2022-05-03T07:20:10Z</time>
      </trkpt>
      <trkpt lat="47.24984" lon="-1.54249">
        <ele>51</ele>
        <time>2022-05-03T07:20:11Z</time>
      </trkpt>
      <trkpt lat="47.24983" lon="-1.5425">
        <ele>52</ele>
        <time>2022-05-03T07:20:12Z</time>
      </trkpt>
      <trkpt lat="47.24983" lon="-1.54251">
        <ele>52</ele>
        <time>2022-05-03T07:20:13Z</time>
      </trkpt>
      <trkpt lat="47.24982" lon="-1.54252">
        <ele>52</ele>
        <time>2022-05-03T07:20:14Z</time>
      </trkpt>
      <trkpt lat="47.24981" lon="-1.54254">
        <ele>52</ele>
        <time>2022-05-03T07:20:15Z</time>
      </trkpt>
      <trkpt lat="47.2498" lon="-1.54255">
        <ele>53</ele>
        <time>2022-05-03T07:20:16Z</time>
      </trkpt>
      <trkpt lat="47.24979" lon="-1.54256">
        <ele>53</ele>
        <time>2022-05-03T07:20:17Z</time>
      </trkpt>
      <trkpt lat="47.24978" lon="-1.54258">
        <ele>53</ele>
        <time>2022-05-03T07:20:18Z</time>
      </trkpt>
      <trkpt lat="47.24977" lon="-1.54259">
        <ele>53</ele>
        <time>2022-05-03T07:20:19Z</time>
      </trkpt>
      <trkpt lat="47.24976" lon="-1.5426">
        <ele>53</ele>
        <time>2022-05-03T07:20:20Z</time>
      </trkpt>
      <trkpt lat="47.24975" lon="-1.54261">
        <ele>53</ele>
        <time>2022-05-03T07:20:21Z</time>
      </trkpt>
      <trkpt lat="47.24974" lon="-1.54263">
        <ele>54</ele>
        <time>2022-05-03T07:20:22Z</time>
      </trkpt>
      <trkpt lat="47.24973" lon="-1.54264">
        <ele>54</ele>
        <time>2022-05-03T07:20:23Z</time>
      </trkpt>
      <trkpt lat="47.24972" lon="-1.54266">
        <ele>54</ele>
        <time>2022-05-03T07:20:24Z</time>
      </trkpt>
      <trkpt lat="47.24971" lon="-1.54267">
        <ele>54</ele>
        <time>2022-05-03T07:20:25Z</time>
      </trkpt>
      <trkpt lat="47.2497" lon="-1.54269">
        <ele>54</ele>
        <time>2022-05-03T07:20:26Z</time>
      </trkpt>
      <trkpt lat="47.24969" lon="-1.5427">
        <ele>54</ele>
        <time>2022-05-03T07:20:27Z</time>
      </trkpt>
      <trkpt lat="47.24968" lon="-1.54271">
        <ele>54</ele>
        <time>2022-05-03T07:20:28Z</time>
      </trkpt>
      <trkpt lat="47.24968" lon="-1.54273">
        <ele>54</ele>
        <time>2022-05-03T07:20:29Z</time>
      </trkpt>
      <trkpt lat="47.24968" lon="-1.54274">
        <ele>55</ele>
        <time>2022-05-03T07:20:30Z</time>
      </trkpt>
      <trkpt lat="47.24967" lon="-1.54276">
        <ele>55</ele>
        <time>2022-05-03T07:20:31Z</time>
      </trkpt>
      <trkpt lat="47.24966" lon="-1.54277">
        <ele>56</ele>
        <time>2022-05-03T07:20:32Z</time>
      </trkpt>
      <trkpt lat="47.24965" lon="-1.54278">
        <ele>57</ele>
        <time>2022-05-03T07:20:33Z</time>
      </trkpt>
      <trkpt lat="47.24964" lon="-1.54278">
        <ele>57</ele>
        <time>2022-05-03T07:20:34Z</time>
      </trkpt>
      <trkpt lat="47.24963" lon="-1.54279">
        <ele>57</ele>
        <time>2022-05-03T07:20:35Z</time>
      </trkpt>
      <trkpt lat="47.24962" lon="-1.5428">
        <ele>57</ele>
        <time>2022-05-03T07:20:36Z</time>
      </trkpt>
      <trkpt lat="47.24961" lon="-1.54281">
        <ele>57</ele>
        <time>2022-05-03T07:20:37Z</time>
      </trkpt>
      <trkpt lat="47.2496" lon="-1.54282">
        <ele>57</ele>
        <time>2022-05-03T07:20:38Z</time>
      </trkpt>
      <trkpt lat="47.24959" lon="-1.54283">
        <ele>57</ele>
        <time>2022-05-03T07:20:39Z</time>
      </trkpt>
      <trkpt lat="47.24958" lon="-1.54285">
        <ele>57</ele>
        <time>2022-05-03T07:20:40Z</time>
      </trkpt>
      <trkpt lat="47.24957" lon="-1.54286">
        <ele>58</ele>
        <time>2022-05-03T07:20:41Z</time>
      </trkpt>
      <trkpt lat="47.24955" lon="-1.54288">
        <ele>58</ele>
        <time>2022-05-03T07:20:42Z</time>
      </trkpt>
      <trkpt lat="47.24954" lon="-1.54289">
        <ele>58</ele>
        <time>2022-05-03T07:20:43Z</time>
      </trkpt>
      <trkpt lat="47.24953" lon="-1.54291">
        <ele>58</ele>
        <time>2022-05-03T07:20:44Z</time>
      </trkpt>
      <trkpt lat="47.24952" lon="-1.54292">
        <ele>58</ele>
        <time>2022-05-03T07:20:45Z</time>
      </trkpt>
      <trkpt lat="47.24951" lon="-1.54294">
        <ele>59</ele>
        <time>2022-05-03T07:20:46Z</time>
      </trkpt>
      <trkpt lat="47.2495" lon="-1.54295">
        <ele>59</ele>
        <time>2022-05-03T07:20:47Z</time>
      </trkpt>
      <trkpt lat="47.24949" lon="-1.54296">
        <ele>59</ele>
        <time>2022-05-03T07:20:48Z</time>
      </trkpt>
      <trkpt lat="47.24949" lon="-1.54297">
        <ele>59</ele>
        <time>2022-05-03T07:20:49Z</time>
      </trkpt>
      <trkpt lat="47.24948" lon="-1.54298">
        <ele>59</ele>
        <time>2022-05-03T07:20:50Z</time>
      </trkpt>
      <trkpt lat="47.24947" lon="-1.54299">
        <ele>59</ele>
        <time>2022-05-03T07:20:51Z</time>
      </trkpt>
      <trkpt lat="47.24947" lon="-1.543">
        <ele>59</ele>
        <time>2022-05-03T07:20:52Z</time>
      </trkpt>
      <trkpt lat="47.24945" lon="-1.54301">
        <ele>59</ele>
        <time>2022-05-03T07:20:53Z</time>
      </trkpt>
      <trkpt lat="47.24944" lon="-1.54302">
        <ele>59</ele>
        <time>2022-05-03T07:20:54Z</time>
      </trkpt>
      <trkpt lat="47.24944" lon="-1.54303">
        <ele>59</ele>
        <time>2022-05-03T07:20:55Z</time>
      </trkpt>
      <trkpt lat="47.24943" lon="-1.54305">
        <ele>59</ele>
        <time>2022-05-03T07:20:56Z</time>
      </trkpt>
      <trkpt lat="47.24941" lon="-1.54306">
        <ele>58</ele>
        <time>2022-05-03T07:20:57Z</time>
      </trkpt>
      <trkpt lat="47.2494" lon="-1.54307">
        <ele>58</ele>
        <time>2022-05-03T07:20:58Z</time>
      </trkpt>
      <trkpt lat="47.24939" lon="-1.54308">
        <ele>58</ele>
        <time>2022-05-03T07:20:59Z</time>
      </trkpt>
      <trkpt lat="47.24938" lon="-1.54309">
        <ele>58</ele>
        <time>2022-05-03T07:21:00Z</time>
      </trkpt>
      <trkpt lat="47.24937" lon="-1.54309">
        <ele>59</ele>
        <time>2022-05-03T07:21:01Z</time>
      </trkpt>
      <trkpt lat="47.24937" lon="-1.5431">
        <ele>59</ele>
        <time>2022-05-03T07:21:02Z</time>
      </trkpt>
      <trkpt lat="47.24936" lon="-1.54311">
        <ele>59</ele>
        <time>2022-05-03T07:21:03Z</time>
      </trkpt>
      <trkpt lat="47.24935" lon="-1.54312">
        <ele>60</ele>
        <time>2022-05-03T07:21:04Z</time>
      </trkpt>
      <trkpt lat="47.24934" lon="-1.54313">
        <ele>60</ele>
        <time>2022-05-03T07:21:05Z</time>
      </trkpt>
      <trkpt lat="47.24933" lon="-1.54314">
        <ele>60</ele>
        <time>2022-05-03T07:21:06Z</time>
      </trkpt>
      <trkpt lat="47.24933" lon="-1.54315">
        <ele>60</ele>
        <time>2022-05-03T07:21:07Z</time>
      </trkpt>
      <trkpt lat="47.24932" lon="-1.54316">
        <ele>60</ele>
        <time>2022-05-03T07:21:08Z</time>
      </trkpt>
      <trkpt lat="47.24931" lon="-1.54318">
        <ele>60</ele>
        <time>2022-05-03T07:21:09Z</time>
      </trkpt>
      <trkpt lat="47.2493" lon="-1.54318">
        <ele>59</ele>
        <time>2022-05-03T07:21:10Z</time>
      </trkpt>
      <trkpt lat="47.24929" lon="-1.5432">
        <ele>59</ele>
        <time>2022-05-03T07:21:11Z</time>
      </trkpt>
      <trkpt lat="47.24928" lon="-1.54321">
        <ele>59</ele>
        <time>2022-05-03T07:21:12Z</time>
      </trkpt>
      <trkpt lat="47.24928" lon="-1.54323">
        <ele>60</ele>
        <time>2022-05-03T07:21:13Z</time>
      </trkpt>
      <trkpt lat="47.24927" lon="-1.54325">
        <ele>60</ele>
        <time>2022-05-03T07:21:14Z</time>
      </trkpt>
      <trkpt lat="47.24926" lon="-1.54327">
        <ele>60</ele>
        <time>2022-05-03T07:21:15Z</time>
      </trkpt>
      <trkpt lat="47.24925" lon="-1.54329">
        <ele>61</ele>
        <time>2022-05-03T07:21:16Z</time>
      </trkpt>
      <trkpt lat="47.24924" lon="-1.5433">
        <ele>62</ele>
        <time>2022-05-03T07:21:17Z</time>
      </trkpt>
      <trkpt lat="47.24923" lon="-1.5433">
        <ele>62</ele>
        <time>2022-05-03T07:21:18Z</time>
      </trkpt>
      <trkpt lat="47.24922" lon="-1.54332">
        <ele>63</ele>
        <time>2022-05-03T07:21:19Z</time>
      </trkpt>
      <trkpt lat="47.24921" lon="-1.54333">
        <ele>63</ele>
        <time>2022-05-03T07:21:20Z</time>
      </trkpt>
      <trkpt lat="47.2492" lon="-1.54334">
        <ele>64</ele>
        <time>2022-05-03T07:21:21Z</time>
      </trkpt>
      <trkpt lat="47.24919" lon="-1.54336">
        <ele>63</ele>
        <time>2022-05-03T07:21:22Z</time>
      </trkpt>
      <trkpt lat="47.24918" lon="-1.54338">
        <ele>63</ele>
        <time>2022-05-03T07:21:23Z</time>
      </trkpt>
      <trkpt lat="47.24916" lon="-1.5434">
        <ele>63</ele>
        <time>2022-05-03T07:21:24Z</time>
      </trkpt>
      <trkpt lat="47.24915" lon="-1.54341">
        <ele>63</ele>
        <time>2022-05-03T07:21:25Z</time>
      </trkpt>
      <trkpt lat="47.24913" lon="-1.54341">
        <ele>63</ele>
        <time>2022-05-03T07:21:26Z</time>
      </trkpt>
      <trkpt lat="47.24912" lon="-1.54342">
        <ele>64</ele>
        <time>2022-05-03T07:21:27Z</time>
      </trkpt>
      <trkpt lat="47.24911" lon="-1.54343">
        <ele>65</ele>
        <time>2022-05-03T07:21:28Z</time>
      </trkpt>
      <trkpt lat="47.2491" lon="-1.54344">
        <ele>65</ele>
        <time>2022-05-03T07:21:29Z</time>
      </trkpt>
      <trkpt lat="47.24909" lon="-1.54346">
        <ele>65</ele>
        <time>2022-05-03T07:21:30Z</time>
      </trkpt>
      <trkpt lat="47.24908" lon="-1.54347">
        <ele>66</ele>
        <time>2022-05-03T07:21:31Z</time>
      </trkpt>
      <trkpt lat="47.24906" lon="-1.54348">
        <ele>65</ele>
        <time>2022-05-03T07:21:32Z</time>
      </trkpt>
      <trkpt lat="47.24905" lon="-1.54348">
        <ele>65</ele>
        <time>2022-05-03T07:21:33Z</time>
      </trkpt>
      <trkpt lat="47.24903" lon="-1.5435">
        <ele>65</ele>
        <time>2022-05-03T07:21:34Z</time>
      </trkpt>
      <trkpt lat="47.24902" lon="-1.54351">
        <ele>65</ele>
        <time>2022-05-03T07:21:35Z</time>
      </trkpt>
      <trkpt lat="47.24901" lon="-1.54352">
        <ele>65</ele>
        <time>2022-05-03T07:21:36Z</time>
      </trkpt>
      <trkpt lat="47.249" lon="-1.54354">
        <ele>65</ele>
        <time>2022-05-03T07:21:37Z</time>
      </trkpt>
      <trkpt lat="47.24899" lon="-1.54356">
        <ele>65</ele>
        <time>2022-05-03T07:21:38Z</time>
      </trkpt>
      <trkpt lat="47.24899" lon="-1.54357">
        <ele>65</ele>
        <time>2022-05-03T07:21:39Z</time>
      </trkpt>
      <trkpt lat="47.24897" lon="-1.54358">
        <ele>65</ele>
        <time>2022-05-03T07:21:40Z</time>
      </trkpt>
      <trkpt lat="47.24896" lon="-1.54359">
        <ele>65</ele>
        <time>2022-05-03T07:21:41Z</time>
      </trkpt>
      <trkpt lat="47.24894" lon="-1.5436">
        <ele>66</ele>
        <time>2022-05-03T07:21:42Z</time>
      </trkpt>
      <trkpt lat="47.24893" lon="-1.54361">
        <ele>66</ele>
        <time>2022-05-03T07:21:43Z</time>
      </trkpt>
      <trkpt lat="47.24892" lon="-1.54362">
        <ele>67</ele>
        <time>2022-05-03T07:21:44Z</time>
      </trkpt>
      <trkpt lat="47.24891" lon="-1.54364">
        <ele>67</ele>
        <time>2022-05-03T07:21:45Z</time>
      </trkpt>
      <trkpt lat="47.2489" lon="-1.54365">
        <ele>67</ele>
        <time>2022-05-03T07:21:46Z</time>
      </trkpt>
      <trkpt lat="47.24889" lon="-1.54366">
        <ele>66</ele>
        <time>2022-05-03T07:21:47Z</time>
      </trkpt>
      <trkpt lat="47.24888" lon="-1.54368">
        <ele>66</ele>
        <time>2022-05-03T07:21:48Z</time>
      </trkpt>
      <trkpt lat="47.24887" lon="-1.54369">
        <ele>66</ele>
        <time>2022-05-03T07:21:49Z</time>
      </trkpt>
      <trkpt lat="47.24886" lon="-1.5437">
        <ele>65</ele>
        <time>2022-05-03T07:21:50Z</time>
      </trkpt>
      <trkpt lat="47.24885" lon="-1.54372">
        <ele>65</ele>
        <time>2022-05-03T07:21:51Z</time>
      </trkpt>
      <trkpt lat="47.24884" lon="-1.54373">
        <ele>65</ele>
        <time>2022-05-03T07:21:52Z</time>
      </trkpt>
      <trkpt lat="47.24884" lon="-1.54374">
        <ele>65</ele>
        <time>2022-05-03T07:21:53Z</time>
      </trkpt>
      <trkpt lat="47.24883" lon="-1.54376">
        <ele>64</ele>
        <time>2022-05-03T07:21:54Z</time>
      </trkpt>
      <trkpt lat="47.24882" lon="-1.54377">
        <ele>65</ele>
        <time>2022-05-03T07:21:55Z</time>
      </trkpt>
      <trkpt lat="47.24881" lon="-1.54379">
        <ele>64</ele>
        <time>2022-05-03T07:21:56Z</time>
      </trkpt>
      <trkpt lat="47.2488" lon="-1.5438">
        <ele>64</ele>
        <time>2022-05-03T07:21:57Z</time>
      </trkpt>
      <trkpt lat="47.24879" lon="-1.5438">
        <ele>65</ele>
        <time>2022-05-03T07:21:58Z</time>
      </trkpt>
      <trkpt lat="47.24878" lon="-1.54381">
        <ele>64</ele>
        <time>2022-05-03T07:21:59Z</time>
      </trkpt>
      <trkpt lat="47.24878" lon="-1.54383">
        <ele>64</ele>
        <time>2022-05-03T07:22:00Z</time>
      </trkpt>
      <trkpt lat="47.24877" lon="-1.54384">
        <ele>64</ele>
        <time>2022-05-03T07:22:01Z</time>
      </trkpt>
      <trkpt lat="47.24876" lon="-1.54385">
        <ele>65</ele>
        <time>2022-05-03T07:22:02Z</time>
      </trkpt>
      <trkpt lat="47.24875" lon="-1.54386">
        <ele>64</ele>
        <time>2022-05-03T07:22:03Z</time>
      </trkpt>
      <trkpt lat="47.24873" lon="-1.54387">
        <ele>64</ele>
        <time>2022-05-03T07:22:04Z</time>
      </trkpt>
      <trkpt lat="47.24872" lon="-1.54388">
        <ele>65</ele>
        <time>2022-05-03T07:22:05Z</time>
      </trkpt>
      <trkpt lat="47.2487" lon="-1.5439">
        <ele>65</ele>
        <time>2022-05-03T07:22:06Z</time>
      </trkpt>
      <trkpt lat="47.24869" lon="-1.54391">
        <ele>64</ele>
        <time>2022-05-03T07:22:07Z</time>
      </trkpt>
      <trkpt lat="47.24868" lon="-1.54393">
        <ele>64</ele>
        <time>2022-05-03T07:22:08Z</time>
      </trkpt>
      <trkpt lat="47.24867" lon="-1.54395">
        <ele>63</ele>
        <time>2022-05-03T07:22:09Z</time>
      </trkpt>
      <trkpt lat="47.24865" lon="-1.54397">
        <ele>63</ele>
        <time>2022-05-03T07:22:10Z</time>
      </trkpt>
      <trkpt lat="47.24865" lon="-1.54399">
        <ele>63</ele>
        <time>2022-05-03T07:22:11Z</time>
      </trkpt>
      <trkpt lat="47.24864" lon="-1.544">
        <ele>63</ele>
        <time>2022-05-03T07:22:12Z</time>
      </trkpt>
      <trkpt lat="47.24863" lon="-1.54402">
        <ele>64</ele>
        <time>2022-05-03T07:22:13Z</time>
      </trkpt>
      <trkpt lat="47.24862" lon="-1.54403">
        <ele>64</ele>
        <time>2022-05-03T07:22:14Z</time>
      </trkpt>
      <trkpt lat="47.24861" lon="-1.54404">
        <ele>63</ele>
        <time>2022-05-03T07:22:15Z</time>
      </trkpt>
      <trkpt lat="47.2486" lon="-1.54406">
        <ele>63</ele>
        <time>2022-05-03T07:22:16Z</time>
      </trkpt>
      <trkpt lat="47.24859" lon="-1.54407">
        <ele>63</ele>
        <time>2022-05-03T07:22:17Z</time>
      </trkpt>
      <trkpt lat="47.24859" lon="-1.54409">
        <ele>62</ele>
        <time>2022-05-03T07:22:18Z</time>
      </trkpt>
      <trkpt lat="47.24857" lon="-1.5441">
        <ele>62</ele>
        <time>2022-05-03T07:22:19Z</time>
      </trkpt>
      <trkpt lat="47.24856" lon="-1.5441">
        <ele>62</ele>
        <time>2022-05-03T07:22:20Z</time>
      </trkpt>
      <trkpt lat="47.24854" lon="-1.54411">
        <ele>62</ele>
        <time>2022-05-03T07:22:21Z</time>
      </trkpt>
      <trkpt lat="47.24853" lon="-1.54411">
        <ele>62</ele>
        <time>2022-05-03T07:22:22Z</time>
      </trkpt>
      <trkpt lat="47.24852" lon="-1.54413">
        <ele>62</ele>
        <time>2022-05-03T07:22:23Z</time>
      </trkpt>
      <trkpt lat="47.24851" lon="-1.54414">
        <ele>62</ele>
        <time>2022-05-03T07:22:24Z</time>
      </trkpt>
      <trkpt lat="47.2485" lon="-1.54416">
        <ele>62</ele>
        <time>2022-05-03T07:22:25Z</time>
      </trkpt>
      <trkpt lat="47.24848" lon="-1.54416">
        <ele>61</ele>
        <time>2022-05-03T07:22:26Z</time>
      </trkpt>
      <trkpt lat="47.24847" lon="-1.54417">
        <ele>62</ele>
        <time>2022-05-03T07:22:27Z</time>
      </trkpt>
      <trkpt lat="47.24846" lon="-1.54417">
        <ele>62</ele>
        <time>2022-05-03T07:22:28Z</time>
      </trkpt>
      <trkpt lat="47.24846" lon="-1.54417">
        <ele>62</ele>
        <time>2022-05-03T07:22:29Z</time>
      </trkpt>
      <trkpt lat="47.24845" lon="-1.54419">
        <ele>62</ele>
        <time>2022-05-03T07:22:30Z</time>
      </trkpt>
      <trkpt lat="47.24843" lon="-1.5442">
        <ele>62</ele>
        <time>2022-05-03T07:22:31Z</time>
      </trkpt>
      <trkpt lat="47.24842" lon="-1.54421">
        <ele>62</ele>
        <time>2022-05-03T07:22:32Z</time>
      </trkpt>
      <trkpt lat="47.24841" lon="-1.54422">
        <ele>62</ele>
        <time>2022-05-03T07:22:33Z</time>
      </trkpt>
      <trkpt lat="47.2484" lon="-1.54423">
        <ele>62</ele>
        <time>2022-05-03T07:22:34Z</time>
      </trkpt>
      <trkpt lat="47.24839" lon="-1.54424">
        <ele>63</ele>
        <time>2022-05-03T07:22:35Z</time>
      </trkpt>
      <trkpt lat="47.24838" lon="-1.54425">
        <ele>62</ele>
        <time>2022-05-03T07:22:36Z</time>
      </trkpt>
      <trkpt lat="47.24837" lon="-1.54426">
        <ele>62</ele>
        <time>2022-05-03T07:22:37Z</time>
      </trkpt>
      <trkpt lat="47.24836" lon="-1.54428">
        <ele>62</ele>
        <time>2022-05-03T07:22:38Z</time>
      </trkpt>
      <trkpt lat="47.24835" lon="-1.54429">
        <ele>62</ele>
        <time>2022-05-03T07:22:39Z</time>
      </trkpt>
      <trkpt lat="47.24834" lon="-1.54431">
        <ele>62</ele>
        <time>2022-05-03T07:22:40Z</time>
      </trkpt>
      <trkpt lat="47.24833" lon="-1.54433">
        <ele>62</ele>
        <time>2022-05-03T07:22:41Z</time>
      </trkpt>
      <trkpt lat="47.24832" lon="-1.54435">
        <ele>62</ele>
        <time>2022-05-03T07:22:42Z</time>
      </trkpt>
      <trkpt lat="47.24831" lon="-1.54437">
        <ele>61</ele>
        <time>2022-05-03T07:22:43Z</time>
      </trkpt>
      <trkpt lat="47.2483" lon="-1.54438">
        <ele>61</ele>
        <time>2022-05-03T07:22:44Z</time>
      </trkpt>
      <trkpt lat="47.24828" lon="-1.54439">
        <ele>61</ele>
        <time>2022-05-03T07:22:45Z</time>
      </trkpt>
      <trkpt lat="47.24827" lon="-1.5444">
        <ele>61</ele>
        <time>2022-05-03T07:22:46Z</time>
      </trkpt>
      <trkpt lat="47.24826" lon="-1.54442">
        <ele>61</ele>
        <time>2022-05-03T07:22:47Z</time>
      </trkpt>
      <trkpt lat="47.24826" lon="-1.54444">
        <ele>60</ele>
        <time>2022-05-03T07:22:48Z</time>
      </trkpt>
      <trkpt lat="47.24825" lon="-1.54445">
        <ele>60</ele>
        <time>2022-05-03T07:22:49Z</time>
      </trkpt>
      <trkpt lat="47.24825" lon="-1.54447">
        <ele>59</ele>
        <time>2022-05-03T07:22:50Z</time>
      </trkpt>
      <trkpt lat="47.24824" lon="-1.54448">
        <ele>59</ele>
        <time>2022-05-03T07:22:51Z</time>
      </trkpt>
      <trkpt lat="47.24823" lon="-1.54449">
        <ele>59</ele>
        <time>2022-05-03T07:22:52Z</time>
      </trkpt>
      <trkpt lat="47.24822" lon="-1.5445">
        <ele>59</ele>
        <time>2022-05-03T07:22:53Z</time>
      </trkpt>
      <trkpt lat="47.24822" lon="-1.54452">
        <ele>59</ele>
        <time>2022-05-03T07:22:54Z</time>
      </trkpt>
      <trkpt lat="47.24822" lon="-1.54452">
        <ele>59</ele>
        <time>2022-05-03T07:22:55Z</time>
      </trkpt>
      <trkpt lat="47.2482" lon="-1.54454">
        <ele>59</ele>
        <time>2022-05-03T07:22:56Z</time>
      </trkpt>
      <trkpt lat="47.24819" lon="-1.54455">
        <ele>60</ele>
        <time>2022-05-03T07:22:57Z</time>
      </trkpt>
      <trkpt lat="47.24817" lon="-1.54456">
        <ele>60</ele>
        <time>2022-05-03T07:22:58Z</time>
      </trkpt>
      <trkpt lat="47.24817" lon="-1.54457">
        <ele>59</ele>
        <time>2022-05-03T07:22:59Z</time>
      </trkpt>
      <trkpt lat="47.24815" lon="-1.54458">
        <ele>59</ele>
        <time>2022-05-03T07:23:00Z</time>
      </trkpt>
      <trkpt lat="47.24814" lon="-1.54459">
        <ele>59</ele>
        <time>2022-05-03T07:23:01Z</time>
      </trkpt>
      <trkpt lat="47.24814" lon="-1.5446">
        <ele>60</ele>
        <time>2022-05-03T07:23:02Z</time>
      </trkpt>
      <trkpt lat="47.24813" lon="-1.54461">
        <ele>60</ele>
        <time>2022-05-03T07:23:03Z</time>
      </trkpt>
      <trkpt lat="47.24813" lon="-1.54463">
        <ele>60</ele>
        <time>2022-05-03T07:23:04Z</time>
      </trkpt>
      <trkpt lat="47.24812" lon="-1.54464">
        <ele>60</ele>
        <time>2022-05-03T07:23:05Z</time>
      </trkpt>
      <trkpt lat="47.2481" lon="-1.54465">
        <ele>60</ele>
        <time>2022-05-03T07:23:06Z</time>
      </trkpt>
      <trkpt lat="47.24809" lon="-1.54466">
        <ele>59</ele>
        <time>2022-05-03T07:23:07Z</time>
      </trkpt>
      <trkpt lat="47.24807" lon="-1.54468">
        <ele>59</ele>
        <time>2022-05-03T07:23:08Z</time>
      </trkpt>
      <trkpt lat="47.24806" lon="-1.54469">
        <ele>59</ele>
        <time>2022-05-03T07:23:09Z</time>
      </trkpt>
      <trkpt lat="47.24805" lon="-1.54471">
        <ele>59</ele>
        <time>2022-05-03T07:23:10Z</time>
      </trkpt>
      <trkpt lat="47.24804" lon="-1.54472">
        <ele>59</ele>
        <time>2022-05-03T07:23:11Z</time>
      </trkpt>
      <trkpt lat="47.24803" lon="-1.54473">
        <ele>58</ele>
        <time>2022-05-03T07:23:12Z</time>
      </trkpt>
      <trkpt lat="47.24802" lon="-1.54474">
        <ele>58</ele>
        <time>2022-05-03T07:23:13Z</time>
      </trkpt>
      <trkpt lat="47.24801" lon="-1.54475">
        <ele>58</ele>
        <time>2022-05-03T07:23:14Z</time>
      </trkpt>
      <trkpt lat="47.24799" lon="-1.54475">
        <ele>58</ele>
        <time>2022-05-03T07:23:15Z</time>
      </trkpt>
      <trkpt lat="47.24798" lon="-1.54476">
        <ele>58</ele>
        <time>2022-05-03T07:23:16Z</time>
      </trkpt>
      <trkpt lat="47.24797" lon="-1.54477">
        <ele>58</ele>
        <time>2022-05-03T07:23:17Z</time>
      </trkpt>
      <trkpt lat="47.24796" lon="-1.54479">
        <ele>57</ele>
        <time>2022-05-03T07:23:18Z</time>
      </trkpt>
      <trkpt lat="47.24794" lon="-1.5448">
        <ele>57</ele>
        <time>2022-05-03T07:23:19Z</time>
      </trkpt>
      <trkpt lat="47.24794" lon="-1.54481">
        <ele>57</ele>
        <time>2022-05-03T07:23:20Z</time>
      </trkpt>
      <trkpt lat="47.24794" lon="-1.54481">
        <ele>57</ele>
        <time>2022-05-03T07:23:21Z</time>
      </trkpt>
      <trkpt lat="47.24794" lon="-1.54481">
        <ele>57</ele>
        <time>2022-05-03T07:23:22Z</time>
      </trkpt>
      <trkpt lat="47.24791" lon="-1.54483">
        <ele>57</ele>
        <time>2022-05-03T07:23:23Z</time>
      </trkpt>
      <trkpt lat="47.24791" lon="-1.54484">
        <ele>57</ele>
        <time>2022-05-03T07:23:24Z</time>
      </trkpt>
      <trkpt lat="47.24789" lon="-1.54486">
        <ele>57</ele>
        <time>2022-05-03T07:23:25Z</time>
      </trkpt>
      <trkpt lat="47.24788" lon="-1.54487">
        <ele>57</ele>
        <time>2022-05-03T07:23:26Z</time>
      </trkpt>
      <trkpt lat="47.24788" lon="-1.54488">
        <ele>57</ele>
        <time>2022-05-03T07:23:27Z</time>
      </trkpt>
      <trkpt lat="47.24787" lon="-1.54489">
        <ele>57</ele>
        <time>2022-05-03T07:23:28Z</time>
      </trkpt>
      <trkpt lat="47.24786" lon="-1.54489">
        <ele>57</ele>
        <time>2022-05-03T07:23:29Z</time>
      </trkpt>
      <trkpt lat="47.24785" lon="-1.54491">
        <ele>57</ele>
        <time>2022-05-03T07:23:30Z</time>
      </trkpt>
      <trkpt lat="47.24783" lon="-1.54491">
        <ele>57</ele>
        <time>2022-05-03T07:23:31Z</time>
      </trkpt>
      <trkpt lat="47.24782" lon="-1.54492">
        <ele>57</ele>
        <time>2022-05-03T07:23:32Z</time>
      </trkpt>
      <trkpt lat="47.24781" lon="-1.54494">
        <ele>57</ele>
        <time>2022-05-03T07:23:33Z</time>
      </trkpt>
      <trkpt lat="47.2478" lon="-1.54495">
        <ele>57</ele>
        <time>2022-05-03T07:23:34Z</time>
      </trkpt>
      <trkpt lat="47.24778" lon="-1.54496">
        <ele>57</ele>
        <time>2022-05-03T07:23:35Z</time>
      </trkpt>
      <trkpt lat="47.24778" lon="-1.54497">
        <ele>57</ele>
        <time>2022-05-03T07:23:36Z</time>
      </trkpt>
      <trkpt lat="47.24777" lon="-1.54498">
        <ele>56</ele>
        <time>2022-05-03T07:23:37Z</time>
      </trkpt>
      <trkpt lat="47.24777" lon="-1.54499">
        <ele>56</ele>
        <time>2022-05-03T07:23:38Z</time>
      </trkpt>
      <trkpt lat="47.24776" lon="-1.545">
        <ele>55</ele>
        <time>2022-05-03T07:23:39Z</time>
      </trkpt>
      <trkpt lat="47.24776" lon="-1.545">
        <ele>55</ele>
        <time>2022-05-03T07:23:40Z</time>
      </trkpt>
      <trkpt lat="47.24775" lon="-1.54501">
        <ele>55</ele>
        <time>2022-05-03T07:23:41Z</time>
      </trkpt>
      <trkpt lat="47.24774" lon="-1.54502">
        <ele>54</ele>
        <time>2022-05-03T07:23:42Z</time>
      </trkpt>
      <trkpt lat="47.24773" lon="-1.54503">
        <ele>54</ele>
        <time>2022-05-03T07:23:43Z</time>
      </trkpt>
      <trkpt lat="47.24772" lon="-1.54504">
        <ele>54</ele>
        <time>2022-05-03T07:23:44Z</time>
      </trkpt>
      <trkpt lat="47.24771" lon="-1.54505">
        <ele>54</ele>
        <time>2022-05-03T07:23:45Z</time>
      </trkpt>
      <trkpt lat="47.2477" lon="-1.54507">
        <ele>54</ele>
        <time>2022-05-03T07:23:46Z</time>
      </trkpt>
      <trkpt lat="47.24768" lon="-1.54507">
        <ele>54</ele>
        <time>2022-05-03T07:23:47Z</time>
      </trkpt>
      <trkpt lat="47.24768" lon="-1.54508">
        <ele>54</ele>
        <time>2022-05-03T07:23:48Z</time>
      </trkpt>
      <trkpt lat="47.24768" lon="-1.54509">
        <ele>55</ele>
        <time>2022-05-03T07:23:49Z</time>
      </trkpt>
      <trkpt lat="47.24767" lon="-1.54509">
        <ele>55</ele>
        <time>2022-05-03T07:23:50Z</time>
      </trkpt>
      <trkpt lat="47.24767" lon="-1.5451">
        <ele>55</ele>
        <time>2022-05-03T07:23:51Z</time>
      </trkpt>
      <trkpt lat="47.24767" lon="-1.5451">
        <ele>55</ele>
        <time>2022-05-03T07:23:52Z</time>
      </trkpt>
      <trkpt lat="47.24767" lon="-1.5451">
        <ele>55</ele>
        <time>2022-05-03T07:23:53Z</time>
      </trkpt>
      <trkpt lat="47.24764" lon="-1.54513">
        <ele>55</ele>
        <time>2022-05-03T07:23:54Z</time>
      </trkpt>
      <trkpt lat="47.24764" lon="-1.54515">
        <ele>54</ele>
        <time>2022-05-03T07:23:55Z</time>
      </trkpt>
      <trkpt lat="47.24763" lon="-1.54516">
        <ele>54</ele>
        <time>2022-05-03T07:23:56Z</time>
      </trkpt>
      <trkpt lat="47.24761" lon="-1.54517">
        <ele>54</ele>
        <time>2022-05-03T07:23:57Z</time>
      </trkpt>
      <trkpt lat="47.2476" lon="-1.54518">
        <ele>53</ele>
        <time>2022-05-03T07:23:58Z</time>
      </trkpt>
      <trkpt lat="47.24759" lon="-1.54519">
        <ele>53</ele>
        <time>2022-05-03T07:23:59Z</time>
      </trkpt>
      <trkpt lat="47.24757" lon="-1.54521">
        <ele>53</ele>
        <time>2022-05-03T07:24:00Z</time>
      </trkpt>
      <trkpt lat="47.24756" lon="-1.54522">
        <ele>53</ele>
        <time>2022-05-03T07:24:01Z</time>
      </trkpt>
      <trkpt lat="47.24755" lon="-1.54524">
        <ele>53</ele>
        <time>2022-05-03T07:24:02Z</time>
      </trkpt>
      <trkpt lat="47.24754" lon="-1.54525">
        <ele>52</ele>
        <time>2022-05-03T07:24:03Z</time>
      </trkpt>
      <trkpt lat="47.24752" lon="-1.54527">
        <ele>52</ele>
        <time>2022-05-03T07:24:04Z</time>
      </trkpt>
      <trkpt lat="47.24751" lon="-1.54528">
        <ele>53</ele>
        <time>2022-05-03T07:24:05Z</time>
      </trkpt>
      <trkpt lat="47.24749" lon="-1.5453">
        <ele>53</ele>
        <time>2022-05-03T07:24:06Z</time>
      </trkpt>
      <trkpt lat="47.24749" lon="-1.54531">
        <ele>54</ele>
        <time>2022-05-03T07:24:07Z</time>
      </trkpt>
      <trkpt lat="47.24748" lon="-1.54533">
        <ele>54</ele>
        <time>2022-05-03T07:24:08Z</time>
      </trkpt>
      <trkpt lat="47.24747" lon="-1.54534">
        <ele>54</ele>
        <time>2022-05-03T07:24:09Z</time>
      </trkpt>
      <trkpt lat="47.24747" lon="-1.54534">
        <ele>54</ele>
        <time>2022-05-03T07:24:10Z</time>
      </trkpt>
      <trkpt lat="47.24747" lon="-1.54534">
        <ele>54</ele>
        <time>2022-05-03T07:24:11Z</time>
      </trkpt>
      <trkpt lat="47.24745" lon="-1.54536">
        <ele>55</ele>
        <time>2022-05-03T07:24:12Z</time>
      </trkpt>
      <trkpt lat="47.24743" lon="-1.54537">
        <ele>54</ele>
        <time>2022-05-03T07:24:13Z</time>
      </trkpt>
      <trkpt lat="47.24742" lon="-1.54538">
        <ele>54</ele>
        <time>2022-05-03T07:24:14Z</time>
      </trkpt>
      <trkpt lat="47.2474" lon="-1.54539">
        <ele>54</ele>
        <time>2022-05-03T07:24:15Z</time>
      </trkpt>
      <trkpt lat="47.24739" lon="-1.5454">
        <ele>54</ele>
        <time>2022-05-03T07:24:16Z</time>
      </trkpt>
      <trkpt lat="47.24738" lon="-1.5454">
        <ele>54</ele>
        <time>2022-05-03T07:24:17Z</time>
      </trkpt>
      <trkpt lat="47.24736" lon="-1.54541">
        <ele>55</ele>
        <time>2022-05-03T07:24:18Z</time>
      </trkpt>
      <trkpt lat="47.24735" lon="-1.54541">
        <ele>55</ele>
        <time>2022-05-03T07:24:19Z</time>
      </trkpt>
      <trkpt lat="47.24733" lon="-1.54542">
        <ele>55</ele>
        <time>2022-05-03T07:24:20Z</time>
      </trkpt>
      <trkpt lat="47.24731" lon="-1.54543">
        <ele>55</ele>
        <time>2022-05-03T07:24:21Z</time>
      </trkpt>
      <trkpt lat="47.2473" lon="-1.54544">
        <ele>56</ele>
        <time>2022-05-03T07:24:22Z</time>
      </trkpt>
      <trkpt lat="47.24729" lon="-1.54545">
        <ele>56</ele>
        <time>2022-05-03T07:24:23Z</time>
      </trkpt>
      <trkpt lat="47.24728" lon="-1.54547">
        <ele>56</ele>
        <time>2022-05-03T07:24:24Z</time>
      </trkpt>
      <trkpt lat="47.24727" lon="-1.54548">
        <ele>56</ele>
        <time>2022-05-03T07:24:25Z</time>
      </trkpt>
      <trkpt lat="47.24726" lon="-1.54549">
        <ele>55</ele>
        <time>2022-05-03T07:24:26Z</time>
      </trkpt>
      <trkpt lat="47.24725" lon="-1.5455">
        <ele>55</ele>
        <time>2022-05-03T07:24:27Z</time>
      </trkpt>
      <trkpt lat="47.24724" lon="-1.54551">
        <ele>55</ele>
        <time>2022-05-03T07:24:28Z</time>
      </trkpt>
      <trkpt lat="47.24723" lon="-1.54552">
        <ele>55</ele>
        <time>2022-05-03T07:24:29Z</time>
      </trkpt>
      <trkpt lat="47.24721" lon="-1.54553">
        <ele>56</ele>
        <time>2022-05-03T07:24:30Z</time>
      </trkpt>
      <trkpt lat="47.24719" lon="-1.54554">
        <ele>56</ele>
        <time>2022-05-03T07:24:31Z</time>
      </trkpt>
      <trkpt lat="47.24717" lon="-1.54554">
        <ele>57</ele>
        <time>2022-05-03T07:24:32Z</time>
      </trkpt>
      <trkpt lat="47.24716" lon="-1.54555">
        <ele>57</ele>
        <time>2022-05-03T07:24:33Z</time>
      </trkpt>
      <trkpt lat="47.24714" lon="-1.54555">
        <ele>58</ele>
        <time>2022-05-03T07:24:34Z</time>
      </trkpt>
      <trkpt lat="47.24713" lon="-1.54556">
        <ele>57</ele>
        <time>2022-05-03T07:24:35Z</time>
      </trkpt>
      <trkpt lat="47.24712" lon="-1.54557">
        <ele>58</ele>
        <time>2022-05-03T07:24:36Z</time>
      </trkpt>
      <trkpt lat="47.24712" lon="-1.54558">
        <ele>58</ele>
        <time>2022-05-03T07:24:37Z</time>
      </trkpt>
      <trkpt lat="47.2471" lon="-1.54558">
        <ele>58</ele>
        <time>2022-05-03T07:24:38Z</time>
      </trkpt>
      <trkpt lat="47.24709" lon="-1.54559">
        <ele>59</ele>
        <time>2022-05-03T07:24:39Z</time>
      </trkpt>
      <trkpt lat="47.24707" lon="-1.5456">
        <ele>59</ele>
        <time>2022-05-03T07:24:40Z</time>
      </trkpt>
      <trkpt lat="47.24705" lon="-1.54561">
        <ele>59</ele>
        <time>2022-05-03T07:24:41Z</time>
      </trkpt>
      <trkpt lat="47.24703" lon="-1.54562">
        <ele>59</ele>
        <time>2022-05-03T07:24:42Z</time>
      </trkpt>
      <trkpt lat="47.24702" lon="-1.54563">
        <ele>59</ele>
        <time>2022-05-03T07:24:43Z</time>
      </trkpt>
      <trkpt lat="47.24701" lon="-1.54564">
        <ele>58</ele>
        <time>2022-05-03T07:24:44Z</time>
      </trkpt>
      <trkpt lat="47.247" lon="-1.54565">
        <ele>58</ele>
        <time>2022-05-03T07:24:45Z</time>
      </trkpt>
      <trkpt lat="47.24698" lon="-1.54566">
        <ele>59</ele>
        <time>2022-05-03T07:24:46Z</time>
      </trkpt>
      <trkpt lat="47.24698" lon="-1.54567">
        <ele>59</ele>
        <time>2022-05-03T07:24:47Z</time>
      </trkpt>
      <trkpt lat="47.24697" lon="-1.54568">
        <ele>59</ele>
        <time>2022-05-03T07:24:48Z</time>
      </trkpt>
      <trkpt lat="47.24695" lon="-1.54569">
        <ele>59</ele>
        <time>2022-05-03T07:24:49Z</time>
      </trkpt>
      <trkpt lat="47.24694" lon="-1.54569">
        <ele>59</ele>
        <time>2022-05-03T07:24:50Z</time>
      </trkpt>
      <trkpt lat="47.24693" lon="-1.54569">
        <ele>58</ele>
        <time>2022-05-03T07:24:51Z</time>
      </trkpt>
      <trkpt lat="47.24691" lon="-1.54569">
        <ele>59</ele>
        <time>2022-05-03T07:24:52Z</time>
      </trkpt>
      <trkpt lat="47.2469" lon="-1.54569">
        <ele>59</ele>
        <time>2022-05-03T07:24:53Z</time>
      </trkpt>
      <trkpt lat="47.24688" lon="-1.5457">
        <ele>58</ele>
        <time>2022-05-03T07:24:54Z</time>
      </trkpt>
      <trkpt lat="47.24687" lon="-1.54571">
        <ele>58</ele>
        <time>2022-05-03T07:24:55Z</time>
      </trkpt>
      <trkpt lat="47.24686" lon="-1.54572">
        <ele>58</ele>
        <time>2022-05-03T07:24:56Z</time>
      </trkpt>
      <trkpt lat="47.24685" lon="-1.54573">
        <ele>58</ele>
        <time>2022-05-03T07:24:57Z</time>
      </trkpt>
      <trkpt lat="47.24683" lon="-1.54574">
        <ele>57</ele>
        <time>2022-05-03T07:24:58Z</time>
      </trkpt>
      <trkpt lat="47.24682" lon="-1.54575">
        <ele>57</ele>
        <time>2022-05-03T07:24:59Z</time>
      </trkpt>
      <trkpt lat="47.2468" lon="-1.54575">
        <ele>57</ele>
        <time>2022-05-03T07:25:00Z</time>
      </trkpt>
      <trkpt lat="47.24679" lon="-1.54576">
        <ele>56</ele>
        <time>2022-05-03T07:25:01Z</time>
      </trkpt>
      <trkpt lat="47.24677" lon="-1.54577">
        <ele>56</ele>
        <time>2022-05-03T07:25:02Z</time>
      </trkpt>
      <trkpt lat="47.24676" lon="-1.54577">
        <ele>56</ele>
        <time>2022-05-03T07:25:03Z</time>
      </trkpt>
      <trkpt lat="47.24675" lon="-1.54579">
        <ele>56</ele>
        <time>2022-05-03T07:25:04Z</time>
      </trkpt>
      <trkpt lat="47.24673" lon="-1.54579">
        <ele>56</ele>
        <time>2022-05-03T07:25:05Z</time>
      </trkpt>
      <trkpt lat="47.24671" lon="-1.54579">
        <ele>56</ele>
        <time>2022-05-03T07:25:06Z</time>
      </trkpt>
      <trkpt lat="47.24669" lon="-1.54579">
        <ele>56</ele>
        <time>2022-05-03T07:25:07Z</time>
      </trkpt>
      <trkpt lat="47.24667" lon="-1.5458">
        <ele>56</ele>
        <time>2022-05-03T07:25:08Z</time>
      </trkpt>
      <trkpt lat="47.24666" lon="-1.5458">
        <ele>56</ele>
        <time>2022-05-03T07:25:09Z</time>
      </trkpt>
      <trkpt lat="47.24665" lon="-1.5458">
        <ele>56</ele>
        <time>2022-05-03T07:25:10Z</time>
      </trkpt>
      <trkpt lat="47.24664" lon="-1.54581">
        <ele>57</ele>
        <time>2022-05-03T07:25:11Z</time>
      </trkpt>
      <trkpt lat="47.24662" lon="-1.54581">
        <ele>57</ele>
        <time>2022-05-03T07:25:12Z</time>
      </trkpt>
      <trkpt lat="47.24661" lon="-1.54581">
        <ele>57</ele>
        <time>2022-05-03T07:25:13Z</time>
      </trkpt>
      <trkpt lat="47.24659" lon="-1.54582">
        <ele>58</ele>
        <time>2022-05-03T07:25:14Z</time>
      </trkpt>
      <trkpt lat="47.24657" lon="-1.54582">
        <ele>58</ele>
        <time>2022-05-03T07:25:15Z</time>
      </trkpt>
      <trkpt lat="47.24656" lon="-1.54583">
        <ele>58</ele>
        <time>2022-05-03T07:25:16Z</time>
      </trkpt>
      <trkpt lat="47.24655" lon="-1.54585">
        <ele>57</ele>
        <time>2022-05-03T07:25:17Z</time>
      </trkpt>
      <trkpt lat="47.24654" lon="-1.54585">
        <ele>58</ele>
        <time>2022-05-03T07:25:18Z</time>
      </trkpt>
      <trkpt lat="47.24653" lon="-1.54587">
        <ele>57</ele>
        <time>2022-05-03T07:25:19Z</time>
      </trkpt>
      <trkpt lat="47.24652" lon="-1.54588">
        <ele>58</ele>
        <time>2022-05-03T07:25:20Z</time>
      </trkpt>
      <trkpt lat="47.24651" lon="-1.54589">
        <ele>58</ele>
        <time>2022-05-03T07:25:21Z</time>
      </trkpt>
      <trkpt lat="47.24649" lon="-1.54591">
        <ele>58</ele>
        <time>2022-05-03T07:25:22Z</time>
      </trkpt>
      <trkpt lat="47.24648" lon="-1.54592">
        <ele>58</ele>
        <time>2022-05-03T07:25:23Z</time>
      </trkpt>
      <trkpt lat="47.24646" lon="-1.54592">
        <ele>58</ele>
        <time>2022-05-03T07:25:24Z</time>
      </trkpt>
      <trkpt lat="47.24646" lon="-1.54593">
        <ele>58</ele>
        <time>2022-05-03T07:25:25Z</time>
      </trkpt>
      <trkpt lat="47.24645" lon="-1.54594">
        <ele>58</ele>
        <time>2022-05-03T07:25:26Z</time>
      </trkpt>
      <trkpt lat="47.24644" lon="-1.54595">
        <ele>58</ele>
        <time>2022-05-03T07:25:27Z</time>
      </trkpt>
      <trkpt lat="47.24643" lon="-1.54596">
        <ele>58</ele>
        <time>2022-05-03T07:25:28Z</time>
      </trkpt>
      <trkpt lat="47.24642" lon="-1.54597">
        <ele>59</ele>
        <time>2022-05-03T07:25:29Z</time>
      </trkpt>
      <trkpt lat="47.24641" lon="-1.54598">
        <ele>60</ele>
        <time>2022-05-03T07:25:30Z</time>
      </trkpt>
      <trkpt lat="47.24641" lon="-1.54599">
        <ele>60</ele>
        <time>2022-05-03T07:25:31Z</time>
      </trkpt>
      <trkpt lat="47.2464" lon="-1.546">
        <ele>60</ele>
        <time>2022-05-03T07:25:32Z</time>
      </trkpt>
      <trkpt lat="47.24639" lon="-1.54601">
        <ele>59</ele>
        <time>2022-05-03T07:25:33Z</time>
      </trkpt>
      <trkpt lat="47.24638" lon="-1.54601">
        <ele>59</ele>
        <time>2022-05-03T07:25:34Z</time>
      </trkpt>
      <trkpt lat="47.24637" lon="-1.54601">
        <ele>59</ele>
        <time>2022-05-03T07:25:35Z</time>
      </trkpt>
      <trkpt lat="47.24635" lon="-1.54602">
        <ele>59</ele>
        <time>2022-05-03T07:25:36Z</time>
      </trkpt>
      <trkpt lat="47.24634" lon="-1.54603">
        <ele>58</ele>
        <time>2022-05-03T07:25:37Z</time>
      </trkpt>
      <trkpt lat="47.24633" lon="-1.54604">
        <ele>58</ele>
        <time>2022-05-03T07:25:38Z</time>
      </trkpt>
      <trkpt lat="47.24631" lon="-1.54604">
        <ele>58</ele>
        <time>2022-05-03T07:25:39Z</time>
      </trkpt>
      <trkpt lat="47.2463" lon="-1.54605">
        <ele>57</ele>
        <time>2022-05-03T07:25:40Z</time>
      </trkpt>
      <trkpt lat="47.24628" lon="-1.54605">
        <ele>57</ele>
        <time>2022-05-03T07:25:41Z</time>
      </trkpt>
      <trkpt lat="47.24628" lon="-1.54605">
        <ele>58</ele>
        <time>2022-05-03T07:25:42Z</time>
      </trkpt>
      <trkpt lat="47.24627" lon="-1.54605">
        <ele>58</ele>
        <time>2022-05-03T07:25:43Z</time>
      </trkpt>
      <trkpt lat="47.24626" lon="-1.54605">
        <ele>58</ele>
        <time>2022-05-03T07:25:44Z</time>
      </trkpt>
      <trkpt lat="47.24625" lon="-1.54605">
        <ele>58</ele>
        <time>2022-05-03T07:25:45Z</time>
      </trkpt>
      <trkpt lat="47.24624" lon="-1.54605">
        <ele>59</ele>
        <time>2022-05-03T07:25:46Z</time>
      </trkpt>
      <trkpt lat="47.24622" lon="-1.54605">
        <ele>59</ele>
        <time>2022-05-03T07:25:47Z</time>
      </trkpt>
      <trkpt lat="47.2462" lon="-1.54606">
        <ele>58</ele>
        <time>2022-05-03T07:25:48Z</time>
      </trkpt>
      <trkpt lat="47.2462" lon="-1.54606">
        <ele>58</ele>
        <time>2022-05-03T07:25:49Z</time>
      </trkpt>
      <trkpt lat="47.24618" lon="-1.54606">
        <ele>58</ele>
        <time>2022-05-03T07:25:50Z</time>
      </trkpt>
      <trkpt lat="47.24617" lon="-1.54606">
        <ele>58</ele>
        <time>2022-05-03T07:25:51Z</time>
      </trkpt>
      <trkpt lat="47.24616" lon="-1.54607">
        <ele>58</ele>
        <time>2022-05-03T07:25:52Z</time>
      </trkpt>
      <trkpt lat="47.24614" lon="-1.54607">
        <ele>58</ele>
        <time>2022-05-03T07:25:53Z</time>
      </trkpt>
      <trkpt lat="47.24612" lon="-1.54607">
        <ele>58</ele>
        <time>2022-05-03T07:25:54Z</time>
      </trkpt>
      <trkpt lat="47.24611" lon="-1.54608">
        <ele>58</ele>
        <time>2022-05-03T07:25:55Z</time>
      </trkpt>
      <trkpt lat="47.24609" lon="-1.54608">
        <ele>58</ele>
        <time>2022-05-03T07:25:56Z</time>
      </trkpt>
      <trkpt lat="47.24608" lon="-1.54608">
        <ele>58</ele>
        <time>2022-05-03T07:25:57Z</time>
      </trkpt>
      <trkpt lat="47.24607" lon="-1.54608">
        <ele>58</ele>
        <time>2022-05-03T07:25:58Z</time>
      </trkpt>
      <trkpt lat="47.24606" lon="-1.54608">
        <ele>58</ele>
        <time>2022-05-03T07:25:59Z</time>
      </trkpt>
      <trkpt lat="47.24604" lon="-1.54608">
        <ele>58</ele>
        <time>2022-05-03T07:26:00Z</time>
      </trkpt>
      <trkpt lat="47.24603" lon="-1.54608">
        <ele>58</ele>
        <time>2022-05-03T07:26:01Z</time>
      </trkpt>
      <trkpt lat="47.24602" lon="-1.54608">
        <ele>58</ele>
        <time>2022-05-03T07:26:02Z</time>
      </trkpt>
      <trkpt lat="47.24601" lon="-1.54607">
        <ele>58</ele>
        <time>2022-05-03T07:26:03Z</time>
      </trkpt>
      <trkpt lat="47.246" lon="-1.54607">
        <ele>58</ele>
        <time>2022-05-03T07:26:04Z</time>
      </trkpt>
      <trkpt lat="47.24599" lon="-1.54607">
        <ele>58</ele>
        <time>2022-05-03T07:26:05Z</time>
      </trkpt>
      <trkpt lat="47.24598" lon="-1.54608">
        <ele>58</ele>
        <time>2022-05-03T07:26:06Z</time>
      </trkpt>
      <trkpt lat="47.24597" lon="-1.54608">
        <ele>57</ele>
        <time>2022-05-03T07:26:07Z</time>
      </trkpt>
      <trkpt lat="47.24596" lon="-1.54608">
        <ele>58</ele>
        <time>2022-05-03T07:26:08Z</time>
      </trkpt>
      <trkpt lat="47.24594" lon="-1.54608">
        <ele>58</ele>
        <time>2022-05-03T07:26:09Z</time>
      </trkpt>
      <trkpt lat="47.24593" lon="-1.54608">
        <ele>58</ele>
        <time>2022-05-03T07:26:10Z</time>
      </trkpt>
      <trkpt lat="47.24592" lon="-1.54608">
        <ele>58</ele>
        <time>2022-05-03T07:26:11Z</time>
      </trkpt>
      <trkpt lat="47.24591" lon="-1.54608">
        <ele>58</ele>
        <time>2022-05-03T07:26:12Z</time>
      </trkpt>
      <trkpt lat="47.2459" lon="-1.54609">
        <ele>58</ele>
        <time>2022-05-03T07:26:13Z</time>
      </trkpt>
      <trkpt lat="47.24589" lon="-1.54609">
        <ele>58</ele>
        <time>2022-05-03T07:26:14Z</time>
      </trkpt>
      <trkpt lat="47.24588" lon="-1.54609">
        <ele>59</ele>
        <time>2022-05-03T07:26:15Z</time>
      </trkpt>
      <trkpt lat="47.24587" lon="-1.5461">
        <ele>59</ele>
        <time>2022-05-03T07:26:16Z</time>
      </trkpt>
      <trkpt lat="47.24586" lon="-1.5461">
        <ele>59</ele>
        <time>2022-05-03T07:26:17Z</time>
      </trkpt>
      <trkpt lat="47.24584" lon="-1.5461">
        <ele>60</ele>
        <time>2022-05-03T07:26:18Z</time>
      </trkpt>
      <trkpt lat="47.24583" lon="-1.5461">
        <ele>60</ele>
        <time>2022-05-03T07:26:19Z</time>
      </trkpt>
      <trkpt lat="47.24582" lon="-1.54611">
        <ele>60</ele>
        <time>2022-05-03T07:26:20Z</time>
      </trkpt>
      <trkpt lat="47.2458" lon="-1.54611">
        <ele>60</ele>
        <time>2022-05-03T07:26:21Z</time>
      </trkpt>
      <trkpt lat="47.2458" lon="-1.54611">
        <ele>60</ele>
        <time>2022-05-03T07:26:22Z</time>
      </trkpt>
      <trkpt lat="47.24579" lon="-1.54612">
        <ele>60</ele>
        <time>2022-05-03T07:26:23Z</time>
      </trkpt>
      <trkpt lat="47.24577" lon="-1.54612">
        <ele>60</ele>
        <time>2022-05-03T07:26:24Z</time>
      </trkpt>
      <trkpt lat="47.24575" lon="-1.54613">
        <ele>60</ele>
        <time>2022-05-03T07:26:25Z</time>
      </trkpt>
      <trkpt lat="47.24574" lon="-1.54614">
        <ele>60</ele>
        <time>2022-05-03T07:26:26Z</time>
      </trkpt>
      <trkpt lat="47.24572" lon="-1.54615">
        <ele>60</ele>
        <time>2022-05-03T07:26:27Z</time>
      </trkpt>
      <trkpt lat="47.24572" lon="-1.54616">
        <ele>60</ele>
        <time>2022-05-03T07:26:28Z</time>
      </trkpt>
      <trkpt lat="47.24571" lon="-1.54617">
        <ele>60</ele>
        <time>2022-05-03T07:26:29Z</time>
      </trkpt>
      <trkpt lat="47.24569" lon="-1.54617">
        <ele>60</ele>
        <time>2022-05-03T07:26:30Z</time>
      </trkpt>
      <trkpt lat="47.24568" lon="-1.54618">
        <ele>59</ele>
        <time>2022-05-03T07:26:31Z</time>
      </trkpt>
      <trkpt lat="47.24567" lon="-1.54619">
        <ele>60</ele>
        <time>2022-05-03T07:26:32Z</time>
      </trkpt>
      <trkpt lat="47.24566" lon="-1.54619">
        <ele>59</ele>
        <time>2022-05-03T07:26:33Z</time>
      </trkpt>
      <trkpt lat="47.24564" lon="-1.5462">
        <ele>59</ele>
        <time>2022-05-03T07:26:34Z</time>
      </trkpt>
      <trkpt lat="47.24563" lon="-1.54621">
        <ele>59</ele>
        <time>2022-05-03T07:26:35Z</time>
      </trkpt>
      <trkpt lat="47.24562" lon="-1.54622">
        <ele>59</ele>
        <time>2022-05-03T07:26:36Z</time>
      </trkpt>
      <trkpt lat="47.24561" lon="-1.54623">
        <ele>59</ele>
        <time>2022-05-03T07:26:37Z</time>
      </trkpt>
      <trkpt lat="47.2456" lon="-1.54623">
        <ele>59</ele>
        <time>2022-05-03T07:26:38Z</time>
      </trkpt>
      <trkpt lat="47.24558" lon="-1.54623">
        <ele>59</ele>
        <time>2022-05-03T07:26:39Z</time>
      </trkpt>
      <trkpt lat="47.24557" lon="-1.54624">
        <ele>59</ele>
        <time>2022-05-03T07:26:40Z</time>
      </trkpt>
      <trkpt lat="47.24555" lon="-1.54625">
        <ele>59</ele>
        <time>2022-05-03T07:26:41Z</time>
      </trkpt>
      <trkpt lat="47.24553" lon="-1.54626">
        <ele>59</ele>
        <time>2022-05-03T07:26:42Z</time>
      </trkpt>
      <trkpt lat="47.24552" lon="-1.54627">
        <ele>58</ele>
        <time>2022-05-03T07:26:43Z</time>
      </trkpt>
      <trkpt lat="47.24551" lon="-1.54628">
        <ele>59</ele>
        <time>2022-05-03T07:26:44Z</time>
      </trkpt>
      <trkpt lat="47.2455" lon="-1.54629">
        <ele>59</ele>
        <time>2022-05-03T07:26:45Z</time>
      </trkpt>
      <trkpt lat="47.24548" lon="-1.54629">
        <ele>59</ele>
        <time>2022-05-03T07:26:46Z</time>
      </trkpt>
      <trkpt lat="47.24546" lon="-1.54631">
        <ele>59</ele>
        <time>2022-05-03T07:26:47Z</time>
      </trkpt>
      <trkpt lat="47.24545" lon="-1.54632">
        <ele>58</ele>
        <time>2022-05-03T07:26:48Z</time>
      </trkpt>
      <trkpt lat="47.24543" lon="-1.54632">
        <ele>58</ele>
        <time>2022-05-03T07:26:49Z</time>
      </trkpt>
      <trkpt lat="47.2454" lon="-1.54632">
        <ele>58</ele>
        <time>2022-05-03T07:26:50Z</time>
      </trkpt>
      <trkpt lat="47.24538" lon="-1.54632">
        <ele>57</ele>
        <time>2022-05-03T07:26:51Z</time>
      </trkpt>
      <trkpt lat="47.24537" lon="-1.54633">
        <ele>57</ele>
        <time>2022-05-03T07:26:52Z</time>
      </trkpt>
      <trkpt lat="47.24535" lon="-1.54633">
        <ele>57</ele>
        <time>2022-05-03T07:26:53Z</time>
      </trkpt>
      <trkpt lat="47.24533" lon="-1.54634">
        <ele>57</ele>
        <time>2022-05-03T07:26:54Z</time>
      </trkpt>
      <trkpt lat="47.24531" lon="-1.54634">
        <ele>58</ele>
        <time>2022-05-03T07:26:55Z</time>
      </trkpt>
      <trkpt lat="47.24529" lon="-1.54635">
        <ele>58</ele>
        <time>2022-05-03T07:26:56Z</time>
      </trkpt>
      <trkpt lat="47.24528" lon="-1.54635">
        <ele>58</ele>
        <time>2022-05-03T07:26:57Z</time>
      </trkpt>
      <trkpt lat="47.24526" lon="-1.54636">
        <ele>58</ele>
        <time>2022-05-03T07:26:58Z</time>
      </trkpt>
      <trkpt lat="47.24524" lon="-1.54637">
        <ele>58</ele>
        <time>2022-05-03T07:26:59Z</time>
      </trkpt>
      <trkpt lat="47.24523" lon="-1.54638">
        <ele>58</ele>
        <time>2022-05-03T07:27:00Z</time>
      </trkpt>
      <trkpt lat="47.24521" lon="-1.54638">
        <ele>58</ele>
        <time>2022-05-03T07:27:01Z</time>
      </trkpt>
      <trkpt lat="47.24519" lon="-1.54639">
        <ele>58</ele>
        <time>2022-05-03T07:27:02Z</time>
      </trkpt>
      <trkpt lat="47.24517" lon="-1.54639">
        <ele>57</ele>
        <time>2022-05-03T07:27:03Z</time>
      </trkpt>
      <trkpt lat="47.24516" lon="-1.54641">
        <ele>57</ele>
        <time>2022-05-03T07:27:04Z</time>
      </trkpt>
      <trkpt lat="47.24514" lon="-1.54642">
        <ele>57</ele>
        <time>2022-05-03T07:27:05Z</time>
      </trkpt>
      <trkpt lat="47.24512" lon="-1.54643">
        <ele>56</ele>
        <time>2022-05-03T07:27:06Z</time>
      </trkpt>
      <trkpt lat="47.24511" lon="-1.54644">
        <ele>56</ele>
        <time>2022-05-03T07:27:07Z</time>
      </trkpt>
      <trkpt lat="47.24508" lon="-1.54644">
        <ele>56</ele>
        <time>2022-05-03T07:27:08Z</time>
      </trkpt>
      <trkpt lat="47.24506" lon="-1.54645">
        <ele>56</ele>
        <time>2022-05-03T07:27:09Z</time>
      </trkpt>
      <trkpt lat="47.24505" lon="-1.54646">
        <ele>56</ele>
        <time>2022-05-03T07:27:10Z</time>
      </trkpt>
      <trkpt lat="47.24504" lon="-1.54647">
        <ele>56</ele>
        <time>2022-05-03T07:27:11Z</time>
      </trkpt>
      <trkpt lat="47.24502" lon="-1.54648">
        <ele>56</ele>
        <time>2022-05-03T07:27:12Z</time>
      </trkpt>
      <trkpt lat="47.245" lon="-1.5465">
        <ele>55</ele>
        <time>2022-05-03T07:27:13Z</time>
      </trkpt>
      <trkpt lat="47.24498" lon="-1.54651">
        <ele>55</ele>
        <time>2022-05-03T07:27:14Z</time>
      </trkpt>
      <trkpt lat="47.24497" lon="-1.54651">
        <ele>55</ele>
        <time>2022-05-03T07:27:15Z</time>
      </trkpt>
      <trkpt lat="47.24495" lon="-1.54652">
        <ele>55</ele>
        <time>2022-05-03T07:27:16Z</time>
      </trkpt>
      <trkpt lat="47.24494" lon="-1.54652">
        <ele>55</ele>
        <time>2022-05-03T07:27:17Z</time>
      </trkpt>
      <trkpt lat="47.24493" lon="-1.54653">
        <ele>55</ele>
        <time>2022-05-03T07:27:18Z</time>
      </trkpt>
      <trkpt lat="47.24491" lon="-1.54654">
        <ele>54</ele>
        <time>2022-05-03T07:27:19Z</time>
      </trkpt>
      <trkpt lat="47.2449" lon="-1.54654">
        <ele>54</ele>
        <time>2022-05-03T07:27:20Z</time>
      </trkpt>
      <trkpt lat="47.24488" lon="-1.54655">
        <ele>54</ele>
        <time>2022-05-03T07:27:21Z</time>
      </trkpt>
      <trkpt lat="47.24487" lon="-1.54656">
        <ele>54</ele>
        <time>2022-05-03T07:27:22Z</time>
      </trkpt>
      <trkpt lat="47.24486" lon="-1.54657">
        <ele>54</ele>
        <time>2022-05-03T07:27:23Z</time>
      </trkpt>
      <trkpt lat="47.24485" lon="-1.54658">
        <ele>53</ele>
        <time>2022-05-03T07:27:24Z</time>
      </trkpt>
      <trkpt lat="47.24483" lon="-1.54659">
        <ele>53</ele>
        <time>2022-05-03T07:27:25Z</time>
      </trkpt>
      <trkpt lat="47.24482" lon="-1.54659">
        <ele>53</ele>
        <time>2022-05-03T07:27:26Z</time>
      </trkpt>
      <trkpt lat="47.2448" lon="-1.5466">
        <ele>53</ele>
        <time>2022-05-03T07:27:27Z</time>
      </trkpt>
      <trkpt lat="47.24479" lon="-1.54661">
        <ele>53</ele>
        <time>2022-05-03T07:27:28Z</time>
      </trkpt>
      <trkpt lat="47.24477" lon="-1.54662">
        <ele>53</ele>
        <time>2022-05-03T07:27:29Z</time>
      </trkpt>
      <trkpt lat="47.24476" lon="-1.54662">
        <ele>54</ele>
        <time>2022-05-03T07:27:30Z</time>
      </trkpt>
      <trkpt lat="47.24475" lon="-1.54663">
        <ele>54</ele>
        <time>2022-05-03T07:27:31Z</time>
      </trkpt>
      <trkpt lat="47.24474" lon="-1.54664">
        <ele>54</ele>
        <time>2022-05-03T07:27:32Z</time>
      </trkpt>
      <trkpt lat="47.24473" lon="-1.54665">
        <ele>54</ele>
        <time>2022-05-03T07:27:33Z</time>
      </trkpt>
      <trkpt lat="47.24472" lon="-1.54665">
        <ele>54</ele>
        <time>2022-05-03T07:27:34Z</time>
      </trkpt>
      <trkpt lat="47.24472" lon="-1.54665">
        <ele>54</ele>
        <time>2022-05-03T07:27:35Z</time>
      </trkpt>
      <trkpt lat="47.24471" lon="-1.54666">
        <ele>54</ele>
        <time>2022-05-03T07:27:36Z</time>
      </trkpt>
      <trkpt lat="47.2447" lon="-1.54667">
        <ele>54</ele>
        <time>2022-05-03T07:27:37Z</time>
      </trkpt>
      <trkpt lat="47.24469" lon="-1.54668">
        <ele>54</ele>
        <time>2022-05-03T07:27:38Z</time>
      </trkpt>
      <trkpt lat="47.24469" lon="-1.54669">
        <ele>54</ele>
        <time>2022-05-03T07:27:39Z</time>
      </trkpt>
      <trkpt lat="47.24468" lon="-1.5467">
        <ele>54</ele>
        <time>2022-05-03T07:27:40Z</time>
      </trkpt>
      <trkpt lat="47.24468" lon="-1.5467">
        <ele>54</ele>
        <time>2022-05-03T07:27:41Z</time>
      </trkpt>
      <trkpt lat="47.24468" lon="-1.5467">
        <ele>54</ele>
        <time>2022-05-03T07:27:42Z</time>
      </trkpt>
      <trkpt lat="47.24468" lon="-1.54672">
        <ele>54</ele>
        <time>2022-05-03T07:27:43Z</time>
      </trkpt>
      <trkpt lat="47.24467" lon="-1.54672">
        <ele>55</ele>
        <time>2022-05-03T07:27:44Z</time>
      </trkpt>
      <trkpt lat="47.24466" lon="-1.54673">
        <ele>55</ele>
        <time>2022-05-03T07:27:45Z</time>
      </trkpt>
      <trkpt lat="47.24465" lon="-1.54673">
        <ele>55</ele>
        <time>2022-05-03T07:27:46Z</time>
      </trkpt>
      <trkpt lat="47.24464" lon="-1.54673">
        <ele>56</ele>
        <time>2022-05-03T07:27:47Z</time>
      </trkpt>
      <trkpt lat="47.24463" lon="-1.54674">
        <ele>55</ele>
        <time>2022-05-03T07:27:48Z</time>
      </trkpt>
      <trkpt lat="47.24462" lon="-1.54676">
        <ele>56</ele>
        <time>2022-05-03T07:27:49Z</time>
      </trkpt>
      <trkpt lat="47.24461" lon="-1.54677">
        <ele>56</ele>
        <time>2022-05-03T07:27:50Z</time>
      </trkpt>
      <trkpt lat="47.2446" lon="-1.54678">
        <ele>56</ele>
        <time>2022-05-03T07:27:51Z</time>
      </trkpt>
      <trkpt lat="47.24459" lon="-1.54678">
        <ele>56</ele>
        <time>2022-05-03T07:27:52Z</time>
      </trkpt>
      <trkpt lat="47.24458" lon="-1.54678">
        <ele>57</ele>
        <time>2022-05-03T07:27:53Z</time>
      </trkpt>
      <trkpt lat="47.24457" lon="-1.54679">
        <ele>57</ele>
        <time>2022-05-03T07:27:54Z</time>
      </trkpt>
      <trkpt lat="47.24456" lon="-1.5468">
        <ele>56</ele>
        <time>2022-05-03T07:27:55Z</time>
      </trkpt>
      <trkpt lat="47.24455" lon="-1.54681">
        <ele>57</ele>
        <time>2022-05-03T07:27:56Z</time>
      </trkpt>
      <trkpt lat="47.24454" lon="-1.54681">
        <ele>56</ele>
        <time>2022-05-03T07:27:57Z</time>
      </trkpt>
      <trkpt lat="47.24453" lon="-1.54682">
        <ele>56</ele>
        <time>2022-05-03T07:27:58Z</time>
      </trkpt>
      <trkpt lat="47.24452" lon="-1.54682">
        <ele>56</ele>
        <time>2022-05-03T07:27:59Z</time>
      </trkpt>
      <trkpt lat="47.24451" lon="-1.54683">
        <ele>56</ele>
        <time>2022-05-03T07:28:00Z</time>
      </trkpt>
      <trkpt lat="47.2445" lon="-1.54684">
        <ele>56</ele>
        <time>2022-05-03T07:28:01Z</time>
      </trkpt>
      <trkpt lat="47.24449" lon="-1.54685">
        <ele>56</ele>
        <time>2022-05-03T07:28:02Z</time>
      </trkpt>
      <trkpt lat="47.24448" lon="-1.54685">
        <ele>56</ele>
        <time>2022-05-03T07:28:03Z</time>
      </trkpt>
      <trkpt lat="47.24447" lon="-1.54686">
        <ele>56</ele>
        <time>2022-05-03T07:28:04Z</time>
      </trkpt>
      <trkpt lat="47.24446" lon="-1.54687">
        <ele>55</ele>
        <time>2022-05-03T07:28:05Z</time>
      </trkpt>
      <trkpt lat="47.24444" lon="-1.54688">
        <ele>55</ele>
        <time>2022-05-03T07:28:06Z</time>
      </trkpt>
      <trkpt lat="47.24442" lon="-1.5469">
        <ele>56</ele>
        <time>2022-05-03T07:28:07Z</time>
      </trkpt>
      <trkpt lat="47.24441" lon="-1.54691">
        <ele>56</ele>
        <time>2022-05-03T07:28:08Z</time>
      </trkpt>
      <trkpt lat="47.2444" lon="-1.54691">
        <ele>56</ele>
        <time>2022-05-03T07:28:09Z</time>
      </trkpt>
      <trkpt lat="47.24439" lon="-1.54693">
        <ele>56</ele>
        <time>2022-05-03T07:28:10Z</time>
      </trkpt>
      <trkpt lat="47.24438" lon="-1.54693">
        <ele>57</ele>
        <time>2022-05-03T07:28:11Z</time>
      </trkpt>
      <trkpt lat="47.24436" lon="-1.54694">
        <ele>57</ele>
        <time>2022-05-03T07:28:12Z</time>
      </trkpt>
      <trkpt lat="47.24434" lon="-1.54695">
        <ele>57</ele>
        <time>2022-05-03T07:28:13Z</time>
      </trkpt>
      <trkpt lat="47.24433" lon="-1.54696">
        <ele>58</ele>
        <time>2022-05-03T07:28:14Z</time>
      </trkpt>
      <trkpt lat="47.24432" lon="-1.54697">
        <ele>58</ele>
        <time>2022-05-03T07:28:15Z</time>
      </trkpt>
      <trkpt lat="47.24431" lon="-1.54697">
        <ele>58</ele>
        <time>2022-05-03T07:28:16Z</time>
      </trkpt>
      <trkpt lat="47.2443" lon="-1.54698">
        <ele>58</ele>
        <time>2022-05-03T07:28:17Z</time>
      </trkpt>
      <trkpt lat="47.24429" lon="-1.54699">
        <ele>59</ele>
        <time>2022-05-03T07:28:18Z</time>
      </trkpt>
      <trkpt lat="47.24428" lon="-1.54699">
        <ele>58</ele>
        <time>2022-05-03T07:28:19Z</time>
      </trkpt>
      <trkpt lat="47.24427" lon="-1.547">
        <ele>59</ele>
        <time>2022-05-03T07:28:20Z</time>
      </trkpt>
      <trkpt lat="47.24426" lon="-1.54701">
        <ele>58</ele>
        <time>2022-05-03T07:28:21Z</time>
      </trkpt>
      <trkpt lat="47.24424" lon="-1.54703">
        <ele>57</ele>
        <time>2022-05-03T07:28:22Z</time>
      </trkpt>
      <trkpt lat="47.24424" lon="-1.54703">
        <ele>57</ele>
        <time>2022-05-03T07:28:23Z</time>
      </trkpt>
      <trkpt lat="47.24422" lon="-1.54704">
        <ele>57</ele>
        <time>2022-05-03T07:28:24Z</time>
      </trkpt>
      <trkpt lat="47.24421" lon="-1.54705">
        <ele>57</ele>
        <time>2022-05-03T07:28:25Z</time>
      </trkpt>
      <trkpt lat="47.2442" lon="-1.54705">
        <ele>57</ele>
        <time>2022-05-03T07:28:26Z</time>
      </trkpt>
      <trkpt lat="47.24419" lon="-1.54706">
        <ele>57</ele>
        <time>2022-05-03T07:28:27Z</time>
      </trkpt>
      <trkpt lat="47.24418" lon="-1.54706">
        <ele>58</ele>
        <time>2022-05-03T07:28:28Z</time>
      </trkpt>
      <trkpt lat="47.24416" lon="-1.54707">
        <ele>58</ele>
        <time>2022-05-03T07:28:29Z</time>
      </trkpt>
      <trkpt lat="47.24415" lon="-1.54707">
        <ele>58</ele>
        <time>2022-05-03T07:28:30Z</time>
      </trkpt>
      <trkpt lat="47.24414" lon="-1.54709">
        <ele>58</ele>
        <time>2022-05-03T07:28:31Z</time>
      </trkpt>
      <trkpt lat="47.24413" lon="-1.5471">
        <ele>58</ele>
        <time>2022-05-03T07:28:32Z</time>
      </trkpt>
      <trkpt lat="47.24412" lon="-1.54711">
        <ele>59</ele>
        <time>2022-05-03T07:28:33Z</time>
      </trkpt>
      <trkpt lat="47.24411" lon="-1.54712">
        <ele>59</ele>
        <time>2022-05-03T07:28:34Z</time>
      </trkpt>
      <trkpt lat="47.2441" lon="-1.54713">
        <ele>59</ele>
        <time>2022-05-03T07:28:35Z</time>
      </trkpt>
      <trkpt lat="47.24409" lon="-1.54714">
        <ele>59</ele>
        <time>2022-05-03T07:28:36Z</time>
      </trkpt>
      <trkpt lat="47.24408" lon="-1.54714">
        <ele>59</ele>
        <time>2022-05-03T07:28:37Z</time>
      </trkpt>
      <trkpt lat="47.24407" lon="-1.54715">
        <ele>59</ele>
        <time>2022-05-03T07:28:38Z</time>
      </trkpt>
      <trkpt lat="47.24406" lon="-1.54716">
        <ele>59</ele>
        <time>2022-05-03T07:28:40Z</time>
      </trkpt>
      <trkpt lat="47.24405" lon="-1.54716">
        <ele>59</ele>
        <time>2022-05-03T07:28:41Z</time>
      </trkpt>
      <trkpt lat="47.24403" lon="-1.54717">
        <ele>59</ele>
        <time>2022-05-03T07:28:42Z</time>
      </trkpt>
      <trkpt lat="47.24402" lon="-1.54719">
        <ele>59</ele>
        <time>2022-05-03T07:28:43Z</time>
      </trkpt>
      <trkpt lat="47.24401" lon="-1.5472">
        <ele>58</ele>
        <time>2022-05-03T07:28:44Z</time>
      </trkpt>
      <trkpt lat="47.244" lon="-1.54721">
        <ele>58</ele>
        <time>2022-05-03T07:28:45Z</time>
      </trkpt>
      <trkpt lat="47.24399" lon="-1.54722">
        <ele>58</ele>
        <time>2022-05-03T07:28:46Z</time>
      </trkpt>
      <trkpt lat="47.24398" lon="-1.54723">
        <ele>58</ele>
        <time>2022-05-03T07:28:47Z</time>
      </trkpt>
      <trkpt lat="47.24397" lon="-1.54724">
        <ele>58</ele>
        <time>2022-05-03T07:28:48Z</time>
      </trkpt>
      <trkpt lat="47.24395" lon="-1.54725">
        <ele>57</ele>
        <time>2022-05-03T07:28:49Z</time>
      </trkpt>
      <trkpt lat="47.24395" lon="-1.54726">
        <ele>57</ele>
        <time>2022-05-03T07:28:50Z</time>
      </trkpt>
      <trkpt lat="47.24394" lon="-1.54727">
        <ele>56</ele>
        <time>2022-05-03T07:28:51Z</time>
      </trkpt>
      <trkpt lat="47.24392" lon="-1.54727">
        <ele>56</ele>
        <time>2022-05-03T07:28:52Z</time>
      </trkpt>
      <trkpt lat="47.24392" lon="-1.54728">
        <ele>56</ele>
        <time>2022-05-03T07:28:53Z</time>
      </trkpt>
      <trkpt lat="47.2439" lon="-1.54729">
        <ele>56</ele>
        <time>2022-05-03T07:28:54Z</time>
      </trkpt>
      <trkpt lat="47.24389" lon="-1.5473">
        <ele>55</ele>
        <time>2022-05-03T07:28:55Z</time>
      </trkpt>
      <trkpt lat="47.24388" lon="-1.54731">
        <ele>55</ele>
        <time>2022-05-03T07:28:56Z</time>
      </trkpt>
      <trkpt lat="47.24387" lon="-1.54732">
        <ele>56</ele>
        <time>2022-05-03T07:28:57Z</time>
      </trkpt>
      <trkpt lat="47.24386" lon="-1.54733">
        <ele>56</ele>
        <time>2022-05-03T07:28:58Z</time>
      </trkpt>
      <trkpt lat="47.24385" lon="-1.54734">
        <ele>57</ele>
        <time>2022-05-03T07:28:59Z</time>
      </trkpt>
      <trkpt lat="47.24383" lon="-1.54734">
        <ele>58</ele>
        <time>2022-05-03T07:29:00Z</time>
      </trkpt>
      <trkpt lat="47.24382" lon="-1.54735">
        <ele>58</ele>
        <time>2022-05-03T07:29:01Z</time>
      </trkpt>
      <trkpt lat="47.24381" lon="-1.54735">
        <ele>57</ele>
        <time>2022-05-03T07:29:02Z</time>
      </trkpt>
      <trkpt lat="47.2438" lon="-1.54736">
        <ele>57</ele>
        <time>2022-05-03T07:29:03Z</time>
      </trkpt>
      <trkpt lat="47.2438" lon="-1.54736">
        <ele>57</ele>
        <time>2022-05-03T07:29:04Z</time>
      </trkpt>
      <trkpt lat="47.24378" lon="-1.54737">
        <ele>58</ele>
        <time>2022-05-03T07:29:05Z</time>
      </trkpt>
      <trkpt lat="47.24377" lon="-1.54738">
        <ele>58</ele>
        <time>2022-05-03T07:29:06Z</time>
      </trkpt>
      <trkpt lat="47.24377" lon="-1.54738">
        <ele>58</ele>
        <time>2022-05-03T07:29:07Z</time>
      </trkpt>
      <trkpt lat="47.24376" lon="-1.54739">
        <ele>58</ele>
        <time>2022-05-03T07:29:08Z</time>
      </trkpt>
      <trkpt lat="47.24375" lon="-1.5474">
        <ele>57</ele>
        <time>2022-05-03T07:29:09Z</time>
      </trkpt>
      <trkpt lat="47.24374" lon="-1.54741">
        <ele>56</ele>
        <time>2022-05-03T07:29:10Z</time>
      </trkpt>
      <trkpt lat="47.24373" lon="-1.54742">
        <ele>56</ele>
        <time>2022-05-03T07:29:11Z</time>
      </trkpt>
      <trkpt lat="47.24373" lon="-1.54743">
        <ele>56</ele>
        <time>2022-05-03T07:29:12Z</time>
      </trkpt>
      <trkpt lat="47.24372" lon="-1.54744">
        <ele>56</ele>
        <time>2022-05-03T07:29:13Z</time>
      </trkpt>
      <trkpt lat="47.24371" lon="-1.54746">
        <ele>56</ele>
        <time>2022-05-03T07:29:14Z</time>
      </trkpt>
      <trkpt lat="47.24369" lon="-1.54747">
        <ele>56</ele>
        <time>2022-05-03T07:29:15Z</time>
      </trkpt>
      <trkpt lat="47.24368" lon="-1.54748">
        <ele>57</ele>
        <time>2022-05-03T07:29:16Z</time>
      </trkpt>
      <trkpt lat="47.24366" lon="-1.54749">
        <ele>57</ele>
        <time>2022-05-03T07:29:17Z</time>
      </trkpt>
      <trkpt lat="47.24365" lon="-1.5475">
        <ele>57</ele>
        <time>2022-05-03T07:29:18Z</time>
      </trkpt>
      <trkpt lat="47.24363" lon="-1.54751">
        <ele>57</ele>
        <time>2022-05-03T07:29:19Z</time>
      </trkpt>
      <trkpt lat="47.24362" lon="-1.54752">
        <ele>57</ele>
        <time>2022-05-03T07:29:20Z</time>
      </trkpt>
      <trkpt lat="47.24361" lon="-1.54753">
        <ele>57</ele>
        <time>2022-05-03T07:29:21Z</time>
      </trkpt>
      <trkpt lat="47.2436" lon="-1.54754">
        <ele>57</ele>
        <time>2022-05-03T07:29:22Z</time>
      </trkpt>
      <trkpt lat="47.24358" lon="-1.54756">
        <ele>58</ele>
        <time>2022-05-03T07:29:23Z</time>
      </trkpt>
      <trkpt lat="47.24357" lon="-1.54758">
        <ele>58</ele>
        <time>2022-05-03T07:29:24Z</time>
      </trkpt>
      <trkpt lat="47.24356" lon="-1.54759">
        <ele>58</ele>
        <time>2022-05-03T07:29:25Z</time>
      </trkpt>
      <trkpt lat="47.24355" lon="-1.5476">
        <ele>59</ele>
        <time>2022-05-03T07:29:26Z</time>
      </trkpt>
      <trkpt lat="47.24354" lon="-1.54762">
        <ele>59</ele>
        <time>2022-05-03T07:29:27Z</time>
      </trkpt>
      <trkpt lat="47.24353" lon="-1.54763">
        <ele>59</ele>
        <time>2022-05-03T07:29:28Z</time>
      </trkpt>
      <trkpt lat="47.24352" lon="-1.54765">
        <ele>58</ele>
        <time>2022-05-03T07:29:29Z</time>
      </trkpt>
      <trkpt lat="47.2435" lon="-1.54766">
        <ele>58</ele>
        <time>2022-05-03T07:29:30Z</time>
      </trkpt>
      <trkpt lat="47.2435" lon="-1.54766">
        <ele>58</ele>
        <time>2022-05-03T07:29:31Z</time>
      </trkpt>
      <trkpt lat="47.2435" lon="-1.54766">
        <ele>58</ele>
        <time>2022-05-03T07:29:32Z</time>
      </trkpt>
      <trkpt lat="47.24348" lon="-1.54767">
        <ele>57</ele>
        <time>2022-05-03T07:29:33Z</time>
      </trkpt>
      <trkpt lat="47.24347" lon="-1.54769">
        <ele>57</ele>
        <time>2022-05-03T07:29:34Z</time>
      </trkpt>
      <trkpt lat="47.24346" lon="-1.5477">
        <ele>58</ele>
        <time>2022-05-03T07:29:35Z</time>
      </trkpt>
      <trkpt lat="47.24345" lon="-1.54772">
        <ele>57</ele>
        <time>2022-05-03T07:29:36Z</time>
      </trkpt>
      <trkpt lat="47.24344" lon="-1.54773">
        <ele>58</ele>
        <time>2022-05-03T07:29:37Z</time>
      </trkpt>
      <trkpt lat="47.24343" lon="-1.54775">
        <ele>58</ele>
        <time>2022-05-03T07:29:38Z</time>
      </trkpt>
      <trkpt lat="47.24342" lon="-1.54777">
        <ele>58</ele>
        <time>2022-05-03T07:29:39Z</time>
      </trkpt>
      <trkpt lat="47.24341" lon="-1.54779">
        <ele>58</ele>
        <time>2022-05-03T07:29:40Z</time>
      </trkpt>
      <trkpt lat="47.2434" lon="-1.54781">
        <ele>57</ele>
        <time>2022-05-03T07:29:41Z</time>
      </trkpt>
      <trkpt lat="47.24339" lon="-1.54781">
        <ele>57</ele>
        <time>2022-05-03T07:29:42Z</time>
      </trkpt>
      <trkpt lat="47.24338" lon="-1.54782">
        <ele>56</ele>
        <time>2022-05-03T07:29:43Z</time>
      </trkpt>
      <trkpt lat="47.24337" lon="-1.54785">
        <ele>55</ele>
        <time>2022-05-03T07:29:44Z</time>
      </trkpt>
      <trkpt lat="47.24336" lon="-1.54786">
        <ele>55</ele>
        <time>2022-05-03T07:29:45Z</time>
      </trkpt>
      <trkpt lat="47.24336" lon="-1.54787">
        <ele>55</ele>
        <time>2022-05-03T07:29:46Z</time>
      </trkpt>
      <trkpt lat="47.24334" lon="-1.54788">
        <ele>54</ele>
        <time>2022-05-03T07:29:47Z</time>
      </trkpt>
      <trkpt lat="47.24334" lon="-1.54789">
        <ele>54</ele>
        <time>2022-05-03T07:29:48Z</time>
      </trkpt>
      <trkpt lat="47.24332" lon="-1.5479">
        <ele>53</ele>
        <time>2022-05-03T07:29:49Z</time>
      </trkpt>
      <trkpt lat="47.24331" lon="-1.54792">
        <ele>53</ele>
        <time>2022-05-03T07:29:50Z</time>
      </trkpt>
      <trkpt lat="47.2433" lon="-1.54793">
        <ele>53</ele>
        <time>2022-05-03T07:29:51Z</time>
      </trkpt>
      <trkpt lat="47.24329" lon="-1.54794">
        <ele>54</ele>
        <time>2022-05-03T07:29:52Z</time>
      </trkpt>
      <trkpt lat="47.24328" lon="-1.54794">
        <ele>54</ele>
        <time>2022-05-03T07:29:53Z</time>
      </trkpt>
      <trkpt lat="47.24326" lon="-1.54794">
        <ele>55</ele>
        <time>2022-05-03T07:29:54Z</time>
      </trkpt>
      <trkpt lat="47.24325" lon="-1.54795">
        <ele>54</ele>
        <time>2022-05-03T07:29:55Z</time>
      </trkpt>
      <trkpt lat="47.24324" lon="-1.54796">
        <ele>54</ele>
        <time>2022-05-03T07:29:56Z</time>
      </trkpt>
      <trkpt lat="47.24323" lon="-1.54797">
        <ele>54</ele>
        <time>2022-05-03T07:29:57Z</time>
      </trkpt>
      <trkpt lat="47.24321" lon="-1.54798">
        <ele>54</ele>
        <time>2022-05-03T07:29:58Z</time>
      </trkpt>
      <trkpt lat="47.2432" lon="-1.54799">
        <ele>54</ele>
        <time>2022-05-03T07:29:59Z</time>
      </trkpt>
      <trkpt lat="47.24318" lon="-1.548">
        <ele>55</ele>
        <time>2022-05-03T07:30:00Z</time>
      </trkpt>
      <trkpt lat="47.24316" lon="-1.54801">
        <ele>55</ele>
        <time>2022-05-03T07:30:01Z</time>
      </trkpt>
      <trkpt lat="47.24315" lon="-1.54802">
        <ele>56</ele>
        <time>2022-05-03T07:30:02Z</time>
      </trkpt>
      <trkpt lat="47.24315" lon="-1.54802">
        <ele>56</ele>
        <time>2022-05-03T07:30:03Z</time>
      </trkpt>
      <trkpt lat="47.24313" lon="-1.54803">
        <ele>56</ele>
        <time>2022-05-03T07:30:04Z</time>
      </trkpt>
      <trkpt lat="47.24312" lon="-1.54804">
        <ele>56</ele>
        <time>2022-05-03T07:30:05Z</time>
      </trkpt>
      <trkpt lat="47.24311" lon="-1.54804">
        <ele>57</ele>
        <time>2022-05-03T07:30:06Z</time>
      </trkpt>
      <trkpt lat="47.2431" lon="-1.54804">
        <ele>57</ele>
        <time>2022-05-03T07:30:07Z</time>
      </trkpt>
      <trkpt lat="47.24308" lon="-1.54804">
        <ele>57</ele>
        <time>2022-05-03T07:30:08Z</time>
      </trkpt>
      <trkpt lat="47.24307" lon="-1.54805">
        <ele>57</ele>
        <time>2022-05-03T07:30:09Z</time>
      </trkpt>
      <trkpt lat="47.24306" lon="-1.54805">
        <ele>58</ele>
        <time>2022-05-03T07:30:10Z</time>
      </trkpt>
      <trkpt lat="47.24305" lon="-1.54805">
        <ele>58</ele>
        <time>2022-05-03T07:30:11Z</time>
      </trkpt>
      <trkpt lat="47.24303" lon="-1.54806">
        <ele>58</ele>
        <time>2022-05-03T07:30:12Z</time>
      </trkpt>
      <trkpt lat="47.24302" lon="-1.54807">
        <ele>58</ele>
        <time>2022-05-03T07:30:13Z</time>
      </trkpt>
      <trkpt lat="47.24302" lon="-1.54807">
        <ele>58</ele>
        <time>2022-05-03T07:30:14Z</time>
      </trkpt>
      <trkpt lat="47.24302" lon="-1.54807">
        <ele>58</ele>
        <time>2022-05-03T07:30:15Z</time>
      </trkpt>
      <trkpt lat="47.24299" lon="-1.54809">
        <ele>60</ele>
        <time>2022-05-03T07:30:16Z</time>
      </trkpt>
      <trkpt lat="47.24298" lon="-1.5481">
        <ele>59</ele>
        <time>2022-05-03T07:30:17Z</time>
      </trkpt>
      <trkpt lat="47.24296" lon="-1.54811">
        <ele>59</ele>
        <time>2022-05-03T07:30:18Z</time>
      </trkpt>
      <trkpt lat="47.24294" lon="-1.54811">
        <ele>60</ele>
        <time>2022-05-03T07:30:19Z</time>
      </trkpt>
      <trkpt lat="47.24292" lon="-1.54812">
        <ele>59</ele>
        <time>2022-05-03T07:30:20Z</time>
      </trkpt>
      <trkpt lat="47.24291" lon="-1.54812">
        <ele>59</ele>
        <time>2022-05-03T07:30:21Z</time>
      </trkpt>
      <trkpt lat="47.2429" lon="-1.54812">
        <ele>59</ele>
        <time>2022-05-03T07:30:22Z</time>
      </trkpt>
      <trkpt lat="47.24288" lon="-1.54812">
        <ele>58</ele>
        <time>2022-05-03T07:30:23Z</time>
      </trkpt>
      <trkpt lat="47.24288" lon="-1.54812">
        <ele>58</ele>
        <time>2022-05-03T07:30:24Z</time>
      </trkpt>
      <trkpt lat="47.24288" lon="-1.54812">
        <ele>58</ele>
        <time>2022-05-03T07:30:25Z</time>
      </trkpt>
      <trkpt lat="47.24286" lon="-1.54813">
        <ele>57</ele>
        <time>2022-05-03T07:30:26Z</time>
      </trkpt>
      <trkpt lat="47.24284" lon="-1.54813">
        <ele>57</ele>
        <time>2022-05-03T07:30:27Z</time>
      </trkpt>
      <trkpt lat="47.24283" lon="-1.54813">
        <ele>57</ele>
        <time>2022-05-03T07:30:28Z</time>
      </trkpt>
      <trkpt lat="47.24283" lon="-1.54813">
        <ele>57</ele>
        <time>2022-05-03T07:30:28Z</time>
      </trkpt>
      <trkpt lat="47.24273" lon="-1.54806">
        <ele>54</ele>
        <time>2022-05-03T07:30:43Z</time>
      </trkpt>
      <trkpt lat="47.24273" lon="-1.54806">
        <ele>54</ele>
        <time>2022-05-03T07:30:44Z</time>
      </trkpt>
      <trkpt lat="47.24273" lon="-1.54805">
        <ele>54</ele>
        <time>2022-05-03T07:30:45Z</time>
      </trkpt>
      <trkpt lat="47.24272" lon="-1.54805">
        <ele>53</ele>
        <time>2022-05-03T07:30:46Z</time>
      </trkpt>
      <trkpt lat="47.24271" lon="-1.54805">
        <ele>54</ele>
        <time>2022-05-03T07:30:47Z</time>
      </trkpt>
      <trkpt lat="47.2427" lon="-1.54805">
        <ele>54</ele>
        <time>2022-05-03T07:30:48Z</time>
      </trkpt>
      <trkpt lat="47.2427" lon="-1.54804">
        <ele>54</ele>
        <time>2022-05-03T07:30:49Z</time>
      </trkpt>
      <trkpt lat="47.24269" lon="-1.54802">
        <ele>55</ele>
        <time>2022-05-03T07:30:50Z</time>
      </trkpt>
      <trkpt lat="47.24268" lon="-1.54802">
        <ele>55</ele>
        <time>2022-05-03T07:30:51Z</time>
      </trkpt>
      <trkpt lat="47.24268" lon="-1.548">
        <ele>55</ele>
        <time>2022-05-03T07:30:52Z</time>
      </trkpt>
      <trkpt lat="47.24268" lon="-1.54799">
        <ele>55</ele>
        <time>2022-05-03T07:30:53Z</time>
      </trkpt>
      <trkpt lat="47.24268" lon="-1.54798">
        <ele>55</ele>
        <time>2022-05-03T07:30:54Z</time>
      </trkpt>
      <trkpt lat="47.24268" lon="-1.54797">
        <ele>55</ele>
        <time>2022-05-03T07:30:55Z</time>
      </trkpt>
      <trkpt lat="47.24267" lon="-1.54798">
        <ele>55</ele>
        <time>2022-05-03T07:30:56Z</time>
      </trkpt>
      <trkpt lat="47.24266" lon="-1.54798">
        <ele>55</ele>
        <time>2022-05-03T07:30:57Z</time>
      </trkpt>
      <trkpt lat="47.24265" lon="-1.54797">
        <ele>55</ele>
        <time>2022-05-03T07:30:58Z</time>
      </trkpt>
      <trkpt lat="47.24265" lon="-1.54796">
        <ele>55</ele>
        <time>2022-05-03T07:30:59Z</time>
      </trkpt>
      <trkpt lat="47.24264" lon="-1.54795">
        <ele>55</ele>
        <time>2022-05-03T07:31:00Z</time>
      </trkpt>
      <trkpt lat="47.24264" lon="-1.54794">
        <ele>55</ele>
        <time>2022-05-03T07:31:01Z</time>
      </trkpt>
      <trkpt lat="47.24263" lon="-1.54793">
        <ele>55</ele>
        <time>2022-05-03T07:31:02Z</time>
      </trkpt>
      <trkpt lat="47.24263" lon="-1.54792">
        <ele>55</ele>
        <time>2022-05-03T07:31:03Z</time>
      </trkpt>
      <trkpt lat="47.24263" lon="-1.5479">
        <ele>55</ele>
        <time>2022-05-03T07:31:04Z</time>
      </trkpt>
      <trkpt lat="47.24262" lon="-1.54789">
        <ele>55</ele>
        <time>2022-05-03T07:31:05Z</time>
      </trkpt>
      <trkpt lat="47.24262" lon="-1.54788">
        <ele>55</ele>
        <time>2022-05-03T07:31:06Z</time>
      </trkpt>
      <trkpt lat="47.24262" lon="-1.54787">
        <ele>55</ele>
        <time>2022-05-03T07:31:07Z</time>
      </trkpt>
      <trkpt lat="47.24261" lon="-1.54786">
        <ele>55</ele>
        <time>2022-05-03T07:31:08Z</time>
      </trkpt>
      <trkpt lat="47.24261" lon="-1.54785">
        <ele>56</ele>
        <time>2022-05-03T07:31:09Z</time>
      </trkpt>
      <trkpt lat="47.24261" lon="-1.54783">
        <ele>56</ele>
        <time>2022-05-03T07:31:10Z</time>
      </trkpt>
      <trkpt lat="47.24261" lon="-1.54781">
        <ele>56</ele>
        <time>2022-05-03T07:31:11Z</time>
      </trkpt>
      <trkpt lat="47.2426" lon="-1.5478">
        <ele>56</ele>
        <time>2022-05-03T07:31:12Z</time>
      </trkpt>
      <trkpt lat="47.2426" lon="-1.54779">
        <ele>57</ele>
        <time>2022-05-03T07:31:13Z</time>
      </trkpt>
      <trkpt lat="47.2426" lon="-1.54778">
        <ele>57</ele>
        <time>2022-05-03T07:31:14Z</time>
      </trkpt>
      <trkpt lat="47.2426" lon="-1.54776">
        <ele>56</ele>
        <time>2022-05-03T07:31:15Z</time>
      </trkpt>
      <trkpt lat="47.24259" lon="-1.54774">
        <ele>56</ele>
        <time>2022-05-03T07:31:16Z</time>
      </trkpt>
      <trkpt lat="47.24259" lon="-1.54773">
        <ele>56</ele>
        <time>2022-05-03T07:31:17Z</time>
      </trkpt>
      <trkpt lat="47.24258" lon="-1.54771">
        <ele>55</ele>
        <time>2022-05-03T07:31:18Z</time>
      </trkpt>
      <trkpt lat="47.24257" lon="-1.54769">
        <ele>55</ele>
        <time>2022-05-03T07:31:19Z</time>
      </trkpt>
      <trkpt lat="47.24257" lon="-1.54768">
        <ele>54</ele>
        <time>2022-05-03T07:31:20Z</time>
      </trkpt>
      <trkpt lat="47.24257" lon="-1.54766">
        <ele>54</ele>
        <time>2022-05-03T07:31:21Z</time>
      </trkpt>
      <trkpt lat="47.24256" lon="-1.54764">
        <ele>55</ele>
        <time>2022-05-03T07:31:22Z</time>
      </trkpt>
      <trkpt lat="47.24256" lon="-1.54762">
        <ele>55</ele>
        <time>2022-05-03T07:31:23Z</time>
      </trkpt>
      <trkpt lat="47.24255" lon="-1.54761">
        <ele>55</ele>
        <time>2022-05-03T07:31:24Z</time>
      </trkpt>
      <trkpt lat="47.24255" lon="-1.54761">
        <ele>55</ele>
        <time>2022-05-03T07:31:25Z</time>
      </trkpt>
      <trkpt lat="47.24254" lon="-1.54759">
        <ele>54</ele>
        <time>2022-05-03T07:31:26Z</time>
      </trkpt>
      <trkpt lat="47.24254" lon="-1.54759">
        <ele>54</ele>
        <time>2022-05-03T07:31:27Z</time>
      </trkpt>
      <trkpt lat="47.24253" lon="-1.54759">
        <ele>54</ele>
        <time>2022-05-03T07:31:28Z</time>
      </trkpt>
      <trkpt lat="47.24253" lon="-1.54759">
        <ele>54</ele>
        <time>2022-05-03T07:31:28Z</time>
      </trkpt>
      <trkpt lat="47.24252" lon="-1.54761">
        <ele>52</ele>
        <time>2022-05-03T07:33:21Z</time>
      </trkpt>
      <trkpt lat="47.24253" lon="-1.54762">
        <ele>52</ele>
        <time>2022-05-03T07:33:22Z</time>
      </trkpt>
      <trkpt lat="47.24253" lon="-1.54763">
        <ele>52</ele>
        <time>2022-05-03T07:33:23Z</time>
      </trkpt>
      <trkpt lat="47.24254" lon="-1.54764">
        <ele>52</ele>
        <time>2022-05-03T07:33:24Z</time>
      </trkpt>
      <trkpt lat="47.24254" lon="-1.54765">
        <ele>52</ele>
        <time>2022-05-03T07:33:25Z</time>
      </trkpt>
      <trkpt lat="47.24254" lon="-1.54767">
        <ele>53</ele>
        <time>2022-05-03T07:33:26Z</time>
      </trkpt>
      <trkpt lat="47.24254" lon="-1.54767">
        <ele>54</ele>
        <time>2022-05-03T07:33:27Z</time>
      </trkpt>
      <trkpt lat="47.24254" lon="-1.54767">
        <ele>55</ele>
        <time>2022-05-03T07:33:28Z</time>
      </trkpt>
      <trkpt lat="47.24254" lon="-1.54767">
        <ele>55</ele>
        <time>2022-05-03T07:33:29Z</time>
      </trkpt>
      <trkpt lat="47.24254" lon="-1.54767">
        <ele>55</ele>
        <time>2022-05-03T07:33:29Z</time>
      </trkpt>
      <trkpt lat="47.24254" lon="-1.54767">
        <ele>55</ele>
        <time>2022-05-03T07:33:29Z</time>
      </trkpt>
      <trkpt lat="47.24255" lon="-1.54772">
        <ele>57</ele>
        <time>2022-05-03T07:33:37Z</time>
      </trkpt>
      <trkpt lat="47.24255" lon="-1.54773">
        <ele>57</ele>
        <time>2022-05-03T07:33:38Z</time>
      </trkpt>
      <trkpt lat="47.24256" lon="-1.54774">
        <ele>57</ele>
        <time>2022-05-03T07:33:39Z</time>
      </trkpt>
      <trkpt lat="47.24256" lon="-1.54775">
        <ele>57</ele>
        <time>2022-05-03T07:33:40Z</time>
      </trkpt>
      <trkpt lat="47.24257" lon="-1.54776">
        <ele>57</ele>
        <time>2022-05-03T07:33:41Z</time>
      </trkpt>
      <trkpt lat="47.24257" lon="-1.54777">
        <ele>57</ele>
        <time>2022-05-03T07:33:42Z</time>
      </trkpt>
      <trkpt lat="47.24258" lon="-1.54778">
        <ele>57</ele>
        <time>2022-05-03T07:33:43Z</time>
      </trkpt>
      <trkpt lat="47.24258" lon="-1.54779">
        <ele>57</ele>
        <time>2022-05-03T07:33:44Z</time>
      </trkpt>
      <trkpt lat="47.24258" lon="-1.54781">
        <ele>57</ele>
        <time>2022-05-03T07:33:45Z</time>
      </trkpt>
      <trkpt lat="47.24258" lon="-1.54782">
        <ele>57</ele>
        <time>2022-05-03T07:33:46Z</time>
      </trkpt>
      <trkpt lat="47.24259" lon="-1.54784">
        <ele>57</ele>
        <time>2022-05-03T07:33:47Z</time>
      </trkpt>
      <trkpt lat="47.24259" lon="-1.54785">
        <ele>56</ele>
        <time>2022-05-03T07:33:48Z</time>
      </trkpt>
      <trkpt lat="47.24259" lon="-1.54786">
        <ele>56</ele>
        <time>2022-05-03T07:33:49Z</time>
      </trkpt>
      <trkpt lat="47.2426" lon="-1.54787">
        <ele>56</ele>
        <time>2022-05-03T07:33:50Z</time>
      </trkpt>
      <trkpt lat="47.2426" lon="-1.54788">
        <ele>57</ele>
        <time>2022-05-03T07:33:51Z</time>
      </trkpt>
      <trkpt lat="47.2426" lon="-1.54788">
        <ele>57</ele>
        <time>2022-05-03T07:33:52Z</time>
      </trkpt>
      <trkpt lat="47.24261" lon="-1.5479">
        <ele>57</ele>
        <time>2022-05-03T07:33:53Z</time>
      </trkpt>
      <trkpt lat="47.24261" lon="-1.54792">
        <ele>57</ele>
        <time>2022-05-03T07:33:54Z</time>
      </trkpt>
      <trkpt lat="47.24262" lon="-1.54793">
        <ele>57</ele>
        <time>2022-05-03T07:33:55Z</time>
      </trkpt>
      <trkpt lat="47.24262" lon="-1.54795">
        <ele>56</ele>
        <time>2022-05-03T07:33:56Z</time>
      </trkpt>
      <trkpt lat="47.24263" lon="-1.54796">
        <ele>56</ele>
        <time>2022-05-03T07:33:57Z</time>
      </trkpt>
      <trkpt lat="47.24263" lon="-1.54796">
        <ele>56</ele>
        <time>2022-05-03T07:33:58Z</time>
      </trkpt>
      <trkpt lat="47.24263" lon="-1.54796">
        <ele>56</ele>
        <time>2022-05-03T07:33:59Z</time>
      </trkpt>
      <trkpt lat="47.24263" lon="-1.54796">
        <ele>56</ele>
        <time>2022-05-03T07:34:00Z</time>
      </trkpt>
      <trkpt lat="47.24263" lon="-1.54796">
        <ele>56</ele>
        <time>2022-05-03T07:34:00Z</time>
      </trkpt>
      <trkpt lat="47.24263" lon="-1.54796">
        <ele>56</ele>
        <time>2022-05-03T07:34:00Z</time>
      </trkpt>
      <trkpt lat="47.24265" lon="-1.54801">
        <ele>53</ele>
        <time>2022-05-03T07:34:45Z</time>
      </trkpt>
      <trkpt lat="47.24265" lon="-1.54801">
        <ele>53</ele>
        <time>2022-05-03T07:34:46Z</time>
      </trkpt>
      <trkpt lat="47.24265" lon="-1.54801">
        <ele>53</ele>
        <time>2022-05-03T07:34:47Z</time>
      </trkpt>
      <trkpt lat="47.24265" lon="-1.54801">
        <ele>53</ele>
        <time>2022-05-03T07:34:48Z</time>
      </trkpt>
      <trkpt lat="47.24265" lon="-1.54801">
        <ele>53</ele>
        <time>2022-05-03T07:34:49Z</time>
      </trkpt>
      <trkpt lat="47.24265" lon="-1.54801">
        <ele>53</ele>
        <time>2022-05-03T07:34:50Z</time>
      </trkpt>
      <trkpt lat="47.24265" lon="-1.54801">
        <ele>53</ele>
        <time>2022-05-03T07:34:51Z</time>
      </trkpt>
      <trkpt lat="47.24265" lon="-1.54801">
        <ele>53</ele>
        <time>2022-05-03T07:34:52Z</time>
      </trkpt>
      <trkpt lat="47.24265" lon="-1.54801">
        <ele>53</ele>
        <time>2022-05-03T07:34:52Z</time>
      </trkpt>
      <trkpt lat="47.24264" lon="-1.54801">
        <ele>55</ele>
        <time>2022-05-03T07:35:17Z</time>
      </trkpt>
      <trkpt lat="47.24265" lon="-1.54802">
        <ele>56</ele>
        <time>2022-05-03T07:35:18Z</time>
      </trkpt>
      <trkpt lat="47.24265" lon="-1.54802">
        <ele>55</ele>
        <time>2022-05-03T07:35:19Z</time>
      </trkpt>
      <trkpt lat="47.24265" lon="-1.54803">
        <ele>55</ele>
        <time>2022-05-03T07:35:20Z</time>
      </trkpt>
      <trkpt lat="47.24265" lon="-1.54804">
        <ele>55</ele>
        <time>2022-05-03T07:35:21Z</time>
      </trkpt>
      <trkpt lat="47.24265" lon="-1.54804">
        <ele>55</ele>
        <time>2022-05-03T07:35:21Z</time>
      </trkpt>
      <trkpt lat="47.24267" lon="-1.54808">
        <ele>57</ele>
        <time>2022-05-03T07:35:41Z</time>
      </trkpt>
      <trkpt lat="47.24267" lon="-1.54809">
        <ele>57</ele>
        <time>2022-05-03T07:35:42Z</time>
      </trkpt>
      <trkpt lat="47.24267" lon="-1.54809">
        <ele>57</ele>
        <time>2022-05-03T07:35:43Z</time>
      </trkpt>
      <trkpt lat="47.24268" lon="-1.54812">
        <ele>58</ele>
        <time>2022-05-03T07:35:44Z</time>
      </trkpt>
      <trkpt lat="47.24268" lon="-1.54814">
        <ele>58</ele>
        <time>2022-05-03T07:35:45Z</time>
      </trkpt>
      <trkpt lat="47.24268" lon="-1.54815">
        <ele>58</ele>
        <time>2022-05-03T07:35:46Z</time>
      </trkpt>
      <trkpt lat="47.24269" lon="-1.54817">
        <ele>58</ele>
        <time>2022-05-03T07:35:47Z</time>
      </trkpt>
      <trkpt lat="47.24269" lon="-1.54818">
        <ele>58</ele>
        <time>2022-05-03T07:35:48Z</time>
      </trkpt>
      <trkpt lat="47.2427" lon="-1.5482">
        <ele>58</ele>
        <time>2022-05-03T07:35:49Z</time>
      </trkpt>
      <trkpt lat="47.2427" lon="-1.54822">
        <ele>58</ele>
        <time>2022-05-03T07:35:50Z</time>
      </trkpt>
      <trkpt lat="47.2427" lon="-1.54823">
        <ele>59</ele>
        <time>2022-05-03T07:35:51Z</time>
      </trkpt>
      <trkpt lat="47.24271" lon="-1.54824">
        <ele>59</ele>
        <time>2022-05-03T07:35:52Z</time>
      </trkpt>
      <trkpt lat="47.24271" lon="-1.54825">
        <ele>59</ele>
        <time>2022-05-03T07:35:53Z</time>
      </trkpt>
      <trkpt lat="47.24271" lon="-1.54826">
        <ele>59</ele>
        <time>2022-05-03T07:35:54Z</time>
      </trkpt>
      <trkpt lat="47.24271" lon="-1.54828">
        <ele>59</ele>
        <time>2022-05-03T07:35:55Z</time>
      </trkpt>
      <trkpt lat="47.24271" lon="-1.54829">
        <ele>59</ele>
        <time>2022-05-03T07:35:56Z</time>
      </trkpt>
      <trkpt lat="47.24272" lon="-1.5483">
        <ele>58</ele>
        <time>2022-05-03T07:35:57Z</time>
      </trkpt>
      <trkpt lat="47.24272" lon="-1.54832">
        <ele>58</ele>
        <time>2022-05-03T07:35:58Z</time>
      </trkpt>
      <trkpt lat="47.24272" lon="-1.54835">
        <ele>57</ele>
        <time>2022-05-03T07:35:59Z</time>
      </trkpt>
      <trkpt lat="47.24273" lon="-1.54836">
        <ele>57</ele>
        <time>2022-05-03T07:36:00Z</time>
      </trkpt>
      <trkpt lat="47.24273" lon="-1.54838">
        <ele>57</ele>
        <time>2022-05-03T07:36:01Z</time>
      </trkpt>
      <trkpt lat="47.24273" lon="-1.5484">
        <ele>57</ele>
        <time>2022-05-03T07:36:02Z</time>
      </trkpt>
      <trkpt lat="47.24273" lon="-1.54842">
        <ele>57</ele>
        <time>2022-05-03T07:36:03Z</time>
      </trkpt>
      <trkpt lat="47.24274" lon="-1.54843">
        <ele>58</ele>
        <time>2022-05-03T07:36:04Z</time>
      </trkpt>
      <trkpt lat="47.24274" lon="-1.54844">
        <ele>58</ele>
        <time>2022-05-03T07:36:05Z</time>
      </trkpt>
      <trkpt lat="47.24274" lon="-1.54846">
        <ele>58</ele>
        <time>2022-05-03T07:36:06Z</time>
      </trkpt>
      <trkpt lat="47.24274" lon="-1.54848">
        <ele>58</ele>
        <time>2022-05-03T07:36:07Z</time>
      </trkpt>
      <trkpt lat="47.24274" lon="-1.5485">
        <ele>58</ele>
        <time>2022-05-03T07:36:08Z</time>
      </trkpt>
      <trkpt lat="47.24274" lon="-1.54852">
        <ele>58</ele>
        <time>2022-05-03T07:36:09Z</time>
      </trkpt>
      <trkpt lat="47.24274" lon="-1.54854">
        <ele>57</ele>
        <time>2022-05-03T07:36:10Z</time>
      </trkpt>
      <trkpt lat="47.24274" lon="-1.54857">
        <ele>57</ele>
        <time>2022-05-03T07:36:11Z</time>
      </trkpt>
      <trkpt lat="47.24274" lon="-1.54858">
        <ele>57</ele>
        <time>2022-05-03T07:36:12Z</time>
      </trkpt>
      <trkpt lat="47.24274" lon="-1.54861">
        <ele>56</ele>
        <time>2022-05-03T07:36:13Z</time>
      </trkpt>
      <trkpt lat="47.24275" lon="-1.54863">
        <ele>55</ele>
        <time>2022-05-03T07:36:14Z</time>
      </trkpt>
      <trkpt lat="47.24274" lon="-1.54864">
        <ele>55</ele>
        <time>2022-05-03T07:36:15Z</time>
      </trkpt>
      <trkpt lat="47.24274" lon="-1.54866">
        <ele>54</ele>
        <time>2022-05-03T07:36:16Z</time>
      </trkpt>
      <trkpt lat="47.24274" lon="-1.54866">
        <ele>54</ele>
        <time>2022-05-03T07:36:17Z</time>
      </trkpt>
      <trkpt lat="47.24275" lon="-1.54868">
        <ele>54</ele>
        <time>2022-05-03T07:36:18Z</time>
      </trkpt>
      <trkpt lat="47.24274" lon="-1.54869">
        <ele>54</ele>
        <time>2022-05-03T07:36:19Z</time>
      </trkpt>
      <trkpt lat="47.24274" lon="-1.5487">
        <ele>54</ele>
        <time>2022-05-03T07:36:20Z</time>
      </trkpt>
      <trkpt lat="47.24274" lon="-1.54871">
        <ele>54</ele>
        <time>2022-05-03T07:36:21Z</time>
      </trkpt>
      <trkpt lat="47.24274" lon="-1.54872">
        <ele>54</ele>
        <time>2022-05-03T07:36:22Z</time>
      </trkpt>
      <trkpt lat="47.24274" lon="-1.54874">
        <ele>55</ele>
        <time>2022-05-03T07:36:23Z</time>
      </trkpt>
      <trkpt lat="47.24274" lon="-1.54876">
        <ele>55</ele>
        <time>2022-05-03T07:36:24Z</time>
      </trkpt>
      <trkpt lat="47.24274" lon="-1.54878">
        <ele>56</ele>
        <time>2022-05-03T07:36:25Z</time>
      </trkpt>
      <trkpt lat="47.24275" lon="-1.54879">
        <ele>55</ele>
        <time>2022-05-03T07:36:26Z</time>
      </trkpt>
      <trkpt lat="47.24275" lon="-1.54881">
        <ele>56</ele>
        <time>2022-05-03T07:36:27Z</time>
      </trkpt>
      <trkpt lat="47.24275" lon="-1.54882">
        <ele>56</ele>
        <time>2022-05-03T07:36:28Z</time>
      </trkpt>
      <trkpt lat="47.24276" lon="-1.54883">
        <ele>56</ele>
        <time>2022-05-03T07:36:29Z</time>
      </trkpt>
      <trkpt lat="47.24277" lon="-1.54885">
        <ele>57</ele>
        <time>2022-05-03T07:36:30Z</time>
      </trkpt>
      <trkpt lat="47.24277" lon="-1.54886">
        <ele>58</ele>
        <time>2022-05-03T07:36:31Z</time>
      </trkpt>
      <trkpt lat="47.24278" lon="-1.54888">
        <ele>59</ele>
        <time>2022-05-03T07:36:32Z</time>
      </trkpt>
      <trkpt lat="47.24278" lon="-1.5489">
        <ele>59</ele>
        <time>2022-05-03T07:36:33Z</time>
      </trkpt>
      <trkpt lat="47.24278" lon="-1.54891">
        <ele>60</ele>
        <time>2022-05-03T07:36:34Z</time>
      </trkpt>
      <trkpt lat="47.24279" lon="-1.54893">
        <ele>60</ele>
        <time>2022-05-03T07:36:35Z</time>
      </trkpt>
      <trkpt lat="47.24279" lon="-1.54895">
        <ele>61</ele>
        <time>2022-05-03T07:36:36Z</time>
      </trkpt>
      <trkpt lat="47.2428" lon="-1.54897">
        <ele>60</ele>
        <time>2022-05-03T07:36:37Z</time>
      </trkpt>
      <trkpt lat="47.2428" lon="-1.54899">
        <ele>60</ele>
        <time>2022-05-03T07:36:38Z</time>
      </trkpt>
      <trkpt lat="47.24281" lon="-1.54901">
        <ele>60</ele>
        <time>2022-05-03T07:36:39Z</time>
      </trkpt>
      <trkpt lat="47.24281" lon="-1.54903">
        <ele>61</ele>
        <time>2022-05-03T07:36:40Z</time>
      </trkpt>
      <trkpt lat="47.24282" lon="-1.54904">
        <ele>61</ele>
        <time>2022-05-03T07:36:41Z</time>
      </trkpt>
      <trkpt lat="47.24282" lon="-1.54905">
        <ele>61</ele>
        <time>2022-05-03T07:36:42Z</time>
      </trkpt>
      <trkpt lat="47.24283" lon="-1.54906">
        <ele>62</ele>
        <time>2022-05-03T07:36:43Z</time>
      </trkpt>
      <trkpt lat="47.24284" lon="-1.54906">
        <ele>62</ele>
        <time>2022-05-03T07:36:44Z</time>
      </trkpt>
      <trkpt lat="47.24284" lon="-1.54907">
        <ele>62</ele>
        <time>2022-05-03T07:36:45Z</time>
      </trkpt>
      <trkpt lat="47.24284" lon="-1.54908">
        <ele>62</ele>
        <time>2022-05-03T07:36:46Z</time>
      </trkpt>
      <trkpt lat="47.24285" lon="-1.5491">
        <ele>62</ele>
        <time>2022-05-03T07:36:47Z</time>
      </trkpt>
      <trkpt lat="47.24286" lon="-1.54912">
        <ele>61</ele>
        <time>2022-05-03T07:36:48Z</time>
      </trkpt>
      <trkpt lat="47.24286" lon="-1.54913">
        <ele>61</ele>
        <time>2022-05-03T07:36:49Z</time>
      </trkpt>
      <trkpt lat="47.24286" lon="-1.54915">
        <ele>62</ele>
        <time>2022-05-03T07:36:50Z</time>
      </trkpt>
      <trkpt lat="47.24287" lon="-1.54916">
        <ele>62</ele>
        <time>2022-05-03T07:36:51Z</time>
      </trkpt>
      <trkpt lat="47.24287" lon="-1.54918">
        <ele>61</ele>
        <time>2022-05-03T07:36:52Z</time>
      </trkpt>
      <trkpt lat="47.24287" lon="-1.54919">
        <ele>61</ele>
        <time>2022-05-03T07:36:53Z</time>
      </trkpt>
      <trkpt lat="47.24288" lon="-1.5492">
        <ele>61</ele>
        <time>2022-05-03T07:36:54Z</time>
      </trkpt>
      <trkpt lat="47.24289" lon="-1.54921">
        <ele>61</ele>
        <time>2022-05-03T07:36:55Z</time>
      </trkpt>
      <trkpt lat="47.2429" lon="-1.54922">
        <ele>61</ele>
        <time>2022-05-03T07:36:56Z</time>
      </trkpt>
      <trkpt lat="47.24291" lon="-1.54923">
        <ele>61</ele>
        <time>2022-05-03T07:36:57Z</time>
      </trkpt>
      <trkpt lat="47.24292" lon="-1.54924">
        <ele>62</ele>
        <time>2022-05-03T07:36:58Z</time>
      </trkpt>
      <trkpt lat="47.24293" lon="-1.54926">
        <ele>62</ele>
        <time>2022-05-03T07:36:59Z</time>
      </trkpt>
      <trkpt lat="47.24294" lon="-1.54928">
        <ele>62</ele>
        <time>2022-05-03T07:37:00Z</time>
      </trkpt>
      <trkpt lat="47.24295" lon="-1.5493">
        <ele>62</ele>
        <time>2022-05-03T07:37:01Z</time>
      </trkpt>
      <trkpt lat="47.24295" lon="-1.54931">
        <ele>62</ele>
        <time>2022-05-03T07:37:02Z</time>
      </trkpt>
      <trkpt lat="47.24296" lon="-1.54933">
        <ele>62</ele>
        <time>2022-05-03T07:37:03Z</time>
      </trkpt>
      <trkpt lat="47.24297" lon="-1.54934">
        <ele>62</ele>
        <time>2022-05-03T07:37:04Z</time>
      </trkpt>
      <trkpt lat="47.24297" lon="-1.54937">
        <ele>62</ele>
        <time>2022-05-03T07:37:05Z</time>
      </trkpt>
      <trkpt lat="47.24298" lon="-1.54939">
        <ele>63</ele>
        <time>2022-05-03T07:37:06Z</time>
      </trkpt>
      <trkpt lat="47.24299" lon="-1.54941">
        <ele>62</ele>
        <time>2022-05-03T07:37:07Z</time>
      </trkpt>
      <trkpt lat="47.243" lon="-1.54942">
        <ele>62</ele>
        <time>2022-05-03T07:37:08Z</time>
      </trkpt>
      <trkpt lat="47.243" lon="-1.54944">
        <ele>63</ele>
        <time>2022-05-03T07:37:09Z</time>
      </trkpt>
      <trkpt lat="47.24301" lon="-1.54946">
        <ele>63</ele>
        <time>2022-05-03T07:37:10Z</time>
      </trkpt>
      <trkpt lat="47.24301" lon="-1.54948">
        <ele>62</ele>
        <time>2022-05-03T07:37:11Z</time>
      </trkpt>
      <trkpt lat="47.24302" lon="-1.5495">
        <ele>62</ele>
        <time>2022-05-03T07:37:12Z</time>
      </trkpt>
      <trkpt lat="47.24302" lon="-1.54952">
        <ele>62</ele>
        <time>2022-05-03T07:37:13Z</time>
      </trkpt>
      <trkpt lat="47.24303" lon="-1.54954">
        <ele>62</ele>
        <time>2022-05-03T07:37:14Z</time>
      </trkpt>
      <trkpt lat="47.24303" lon="-1.54956">
        <ele>62</ele>
        <time>2022-05-03T07:37:15Z</time>
      </trkpt>
      <trkpt lat="47.24303" lon="-1.54958">
        <ele>61</ele>
        <time>2022-05-03T07:37:16Z</time>
      </trkpt>
      <trkpt lat="47.24304" lon="-1.5496">
        <ele>61</ele>
        <time>2022-05-03T07:37:17Z</time>
      </trkpt>
      <trkpt lat="47.24304" lon="-1.54962">
        <ele>62</ele>
        <time>2022-05-03T07:37:18Z</time>
      </trkpt>
      <trkpt lat="47.24305" lon="-1.54964">
        <ele>62</ele>
        <time>2022-05-03T07:37:19Z</time>
      </trkpt>
      <trkpt lat="47.24304" lon="-1.54967">
        <ele>61</ele>
        <time>2022-05-03T07:37:20Z</time>
      </trkpt>
      <trkpt lat="47.24304" lon="-1.5497">
        <ele>61</ele>
        <time>2022-05-03T07:37:21Z</time>
      </trkpt>
      <trkpt lat="47.24304" lon="-1.54972">
        <ele>61</ele>
        <time>2022-05-03T07:37:22Z</time>
      </trkpt>
      <trkpt lat="47.24305" lon="-1.54974">
        <ele>61</ele>
        <time>2022-05-03T07:37:23Z</time>
      </trkpt>
      <trkpt lat="47.24305" lon="-1.54977">
        <ele>61</ele>
        <time>2022-05-03T07:37:24Z</time>
      </trkpt>
      <trkpt lat="47.24305" lon="-1.54979">
        <ele>62</ele>
        <time>2022-05-03T07:37:25Z</time>
      </trkpt>
      <trkpt lat="47.24305" lon="-1.54981">
        <ele>62</ele>
        <time>2022-05-03T07:37:26Z</time>
      </trkpt>
      <trkpt lat="47.24306" lon="-1.54983">
        <ele>61</ele>
        <time>2022-05-03T07:37:27Z</time>
      </trkpt>
      <trkpt lat="47.24306" lon="-1.54985">
        <ele>61</ele>
        <time>2022-05-03T07:37:28Z</time>
      </trkpt>
      <trkpt lat="47.24306" lon="-1.54987">
        <ele>61</ele>
        <time>2022-05-03T07:37:29Z</time>
      </trkpt>
      <trkpt lat="47.24306" lon="-1.54989">
        <ele>61</ele>
        <time>2022-05-03T07:37:30Z</time>
      </trkpt>
      <trkpt lat="47.24306" lon="-1.5499">
        <ele>61</ele>
        <time>2022-05-03T07:37:31Z</time>
      </trkpt>
      <trkpt lat="47.24306" lon="-1.54991">
        <ele>61</ele>
        <time>2022-05-03T07:37:32Z</time>
      </trkpt>
      <trkpt lat="47.24306" lon="-1.54993">
        <ele>61</ele>
        <time>2022-05-03T07:37:33Z</time>
      </trkpt>
      <trkpt lat="47.24306" lon="-1.54994">
        <ele>61</ele>
        <time>2022-05-03T07:37:34Z</time>
      </trkpt>
      <trkpt lat="47.24306" lon="-1.54996">
        <ele>61</ele>
        <time>2022-05-03T07:37:35Z</time>
      </trkpt>
      <trkpt lat="47.24307" lon="-1.54998">
        <ele>61</ele>
        <time>2022-05-03T07:37:36Z</time>
      </trkpt>
      <trkpt lat="47.24307" lon="-1.55001">
        <ele>61</ele>
        <time>2022-05-03T07:37:37Z</time>
      </trkpt>
      <trkpt lat="47.24307" lon="-1.55003">
        <ele>61</ele>
        <time>2022-05-03T07:37:38Z</time>
      </trkpt>
      <trkpt lat="47.24306" lon="-1.55005">
        <ele>61</ele>
        <time>2022-05-03T07:37:39Z</time>
      </trkpt>
      <trkpt lat="47.24306" lon="-1.55007">
        <ele>61</ele>
        <time>2022-05-03T07:37:40Z</time>
      </trkpt>
      <trkpt lat="47.24305" lon="-1.5501">
        <ele>61</ele>
        <time>2022-05-03T07:37:41Z</time>
      </trkpt>
      <trkpt lat="47.24305" lon="-1.55012">
        <ele>61</ele>
        <time>2022-05-03T07:37:42Z</time>
      </trkpt>
      <trkpt lat="47.24305" lon="-1.55013">
        <ele>61</ele>
        <time>2022-05-03T07:37:43Z</time>
      </trkpt>
      <trkpt lat="47.24304" lon="-1.55015">
        <ele>61</ele>
        <time>2022-05-03T07:37:44Z</time>
      </trkpt>
      <trkpt lat="47.24304" lon="-1.55016">
        <ele>61</ele>
        <time>2022-05-03T07:37:45Z</time>
      </trkpt>
      <trkpt lat="47.24304" lon="-1.55018">
        <ele>61</ele>
        <time>2022-05-03T07:37:46Z</time>
      </trkpt>
      <trkpt lat="47.24304" lon="-1.55021">
        <ele>60</ele>
        <time>2022-05-03T07:37:47Z</time>
      </trkpt>
      <trkpt lat="47.24304" lon="-1.55024">
        <ele>60</ele>
        <time>2022-05-03T07:37:48Z</time>
      </trkpt>
      <trkpt lat="47.24304" lon="-1.55027">
        <ele>60</ele>
        <time>2022-05-03T07:37:49Z</time>
      </trkpt>
      <trkpt lat="47.24304" lon="-1.5503">
        <ele>60</ele>
        <time>2022-05-03T07:37:50Z</time>
      </trkpt>
      <trkpt lat="47.24304" lon="-1.55032">
        <ele>59</ele>
        <time>2022-05-03T07:37:51Z</time>
      </trkpt>
      <trkpt lat="47.24304" lon="-1.55034">
        <ele>59</ele>
        <time>2022-05-03T07:37:52Z</time>
      </trkpt>
      <trkpt lat="47.24304" lon="-1.55036">
        <ele>59</ele>
        <time>2022-05-03T07:37:53Z</time>
      </trkpt>
      <trkpt lat="47.24304" lon="-1.55038">
        <ele>58</ele>
        <time>2022-05-03T07:37:54Z</time>
      </trkpt>
      <trkpt lat="47.24304" lon="-1.5504">
        <ele>58</ele>
        <time>2022-05-03T07:37:55Z</time>
      </trkpt>
      <trkpt lat="47.24304" lon="-1.55042">
        <ele>58</ele>
        <time>2022-05-03T07:37:56Z</time>
      </trkpt>
      <trkpt lat="47.24305" lon="-1.55044">
        <ele>57</ele>
        <time>2022-05-03T07:37:57Z</time>
      </trkpt>
      <trkpt lat="47.24305" lon="-1.55046">
        <ele>57</ele>
        <time>2022-05-03T07:37:58Z</time>
      </trkpt>
      <trkpt lat="47.24305" lon="-1.55049">
        <ele>57</ele>
        <time>2022-05-03T07:37:59Z</time>
      </trkpt>
      <trkpt lat="47.24305" lon="-1.55051">
        <ele>57</ele>
        <time>2022-05-03T07:38:00Z</time>
      </trkpt>
      <trkpt lat="47.24305" lon="-1.55054">
        <ele>57</ele>
        <time>2022-05-03T07:38:01Z</time>
      </trkpt>
      <trkpt lat="47.24305" lon="-1.55056">
        <ele>57</ele>
        <time>2022-05-03T07:38:02Z</time>
      </trkpt>
      <trkpt lat="47.24305" lon="-1.55058">
        <ele>56</ele>
        <time>2022-05-03T07:38:03Z</time>
      </trkpt>
      <trkpt lat="47.24306" lon="-1.5506">
        <ele>56</ele>
        <time>2022-05-03T07:38:04Z</time>
      </trkpt>
      <trkpt lat="47.24306" lon="-1.55062">
        <ele>56</ele>
        <time>2022-05-03T07:38:05Z</time>
      </trkpt>
      <trkpt lat="47.24307" lon="-1.55064">
        <ele>55</ele>
        <time>2022-05-03T07:38:06Z</time>
      </trkpt>
      <trkpt lat="47.24306" lon="-1.55066">
        <ele>55</ele>
        <time>2022-05-03T07:38:07Z</time>
      </trkpt>
      <trkpt lat="47.24305" lon="-1.55068">
        <ele>55</ele>
        <time>2022-05-03T07:38:08Z</time>
      </trkpt>
      <trkpt lat="47.24305" lon="-1.5507">
        <ele>55</ele>
        <time>2022-05-03T07:38:09Z</time>
      </trkpt>
      <trkpt lat="47.24305" lon="-1.55072">
        <ele>55</ele>
        <time>2022-05-03T07:38:10Z</time>
      </trkpt>
      <trkpt lat="47.24305" lon="-1.55074">
        <ele>56</ele>
        <time>2022-05-03T07:38:11Z</time>
      </trkpt>
      <trkpt lat="47.24305" lon="-1.55075">
        <ele>55</ele>
        <time>2022-05-03T07:38:12Z</time>
      </trkpt>
      <trkpt lat="47.24305" lon="-1.55076">
        <ele>55</ele>
        <time>2022-05-03T07:38:13Z</time>
      </trkpt>
      <trkpt lat="47.24305" lon="-1.55078">
        <ele>54</ele>
        <time>2022-05-03T07:38:14Z</time>
      </trkpt>
      <trkpt lat="47.24305" lon="-1.5508">
        <ele>55</ele>
        <time>2022-05-03T07:38:15Z</time>
      </trkpt>
      <trkpt lat="47.24305" lon="-1.55081">
        <ele>56</ele>
        <time>2022-05-03T07:38:16Z</time>
      </trkpt>
      <trkpt lat="47.24305" lon="-1.55083">
        <ele>56</ele>
        <time>2022-05-03T07:38:17Z</time>
      </trkpt>
      <trkpt lat="47.24305" lon="-1.55085">
        <ele>56</ele>
        <time>2022-05-03T07:38:18Z</time>
      </trkpt>
      <trkpt lat="47.24305" lon="-1.55087">
        <ele>56</ele>
        <time>2022-05-03T07:38:19Z</time>
      </trkpt>
      <trkpt lat="47.24305" lon="-1.5509">
        <ele>56</ele>
        <time>2022-05-03T07:38:20Z</time>
      </trkpt>
      <trkpt lat="47.24305" lon="-1.55092">
        <ele>56</ele>
        <time>2022-05-03T07:38:21Z</time>
      </trkpt>
      <trkpt lat="47.24305" lon="-1.55094">
        <ele>57</ele>
        <time>2022-05-03T07:38:22Z</time>
      </trkpt>
      <trkpt lat="47.24305" lon="-1.55097">
        <ele>57</ele>
        <time>2022-05-03T07:38:23Z</time>
      </trkpt>
      <trkpt lat="47.24305" lon="-1.55098">
        <ele>56</ele>
        <time>2022-05-03T07:38:24Z</time>
      </trkpt>
      <trkpt lat="47.24305" lon="-1.551">
        <ele>56</ele>
        <time>2022-05-03T07:38:25Z</time>
      </trkpt>
      <trkpt lat="47.24306" lon="-1.55102">
        <ele>56</ele>
        <time>2022-05-03T07:38:26Z</time>
      </trkpt>
      <trkpt lat="47.24306" lon="-1.55104">
        <ele>56</ele>
        <time>2022-05-03T07:38:27Z</time>
      </trkpt>
      <trkpt lat="47.24305" lon="-1.55106">
        <ele>57</ele>
        <time>2022-05-03T07:38:28Z</time>
      </trkpt>
      <trkpt lat="47.24306" lon="-1.55108">
        <ele>57</ele>
        <time>2022-05-03T07:38:29Z</time>
      </trkpt>
      <trkpt lat="47.24306" lon="-1.5511">
        <ele>56</ele>
        <time>2022-05-03T07:38:30Z</time>
      </trkpt>
      <trkpt lat="47.24306" lon="-1.55112">
        <ele>56</ele>
        <time>2022-05-03T07:38:31Z</time>
      </trkpt>
      <trkpt lat="47.24306" lon="-1.55114">
        <ele>56</ele>
        <time>2022-05-03T07:38:32Z</time>
      </trkpt>
      <trkpt lat="47.24306" lon="-1.55117">
        <ele>56</ele>
        <time>2022-05-03T07:38:33Z</time>
      </trkpt>
      <trkpt lat="47.24306" lon="-1.55119">
        <ele>56</ele>
        <time>2022-05-03T07:38:34Z</time>
      </trkpt>
      <trkpt lat="47.24307" lon="-1.55122">
        <ele>56</ele>
        <time>2022-05-03T07:38:35Z</time>
      </trkpt>
      <trkpt lat="47.24307" lon="-1.55124">
        <ele>56</ele>
        <time>2022-05-03T07:38:36Z</time>
      </trkpt>
      <trkpt lat="47.24307" lon="-1.55127">
        <ele>55</ele>
        <time>2022-05-03T07:38:37Z</time>
      </trkpt>
      <trkpt lat="47.24308" lon="-1.55129">
        <ele>56</ele>
        <time>2022-05-03T07:38:38Z</time>
      </trkpt>
      <trkpt lat="47.24308" lon="-1.55131">
        <ele>56</ele>
        <time>2022-05-03T07:38:39Z</time>
      </trkpt>
      <trkpt lat="47.24308" lon="-1.55134">
        <ele>55</ele>
        <time>2022-05-03T07:38:40Z</time>
      </trkpt>
      <trkpt lat="47.24308" lon="-1.55136">
        <ele>54</ele>
        <time>2022-05-03T07:38:41Z</time>
      </trkpt>
      <trkpt lat="47.24308" lon="-1.55138">
        <ele>53</ele>
        <time>2022-05-03T07:38:42Z</time>
      </trkpt>
      <trkpt lat="47.24308" lon="-1.55139">
        <ele>53</ele>
        <time>2022-05-03T07:38:43Z</time>
      </trkpt>
      <trkpt lat="47.24308" lon="-1.55141">
        <ele>53</ele>
        <time>2022-05-03T07:38:44Z</time>
      </trkpt>
      <trkpt lat="47.24308" lon="-1.55143">
        <ele>52</ele>
        <time>2022-05-03T07:38:45Z</time>
      </trkpt>
      <trkpt lat="47.24308" lon="-1.55145">
        <ele>52</ele>
        <time>2022-05-03T07:38:46Z</time>
      </trkpt>
      <trkpt lat="47.24308" lon="-1.55147">
        <ele>52</ele>
        <time>2022-05-03T07:38:47Z</time>
      </trkpt>
      <trkpt lat="47.24308" lon="-1.55148">
        <ele>52</ele>
        <time>2022-05-03T07:38:48Z</time>
      </trkpt>
      <trkpt lat="47.24307" lon="-1.5515">
        <ele>53</ele>
        <time>2022-05-03T07:38:49Z</time>
      </trkpt>
      <trkpt lat="47.24307" lon="-1.55152">
        <ele>52</ele>
        <time>2022-05-03T07:38:50Z</time>
      </trkpt>
      <trkpt lat="47.24307" lon="-1.55154">
        <ele>52</ele>
        <time>2022-05-03T07:38:51Z</time>
      </trkpt>
      <trkpt lat="47.24307" lon="-1.55157">
        <ele>52</ele>
        <time>2022-05-03T07:38:52Z</time>
      </trkpt>
      <trkpt lat="47.24308" lon="-1.5516">
        <ele>52</ele>
        <time>2022-05-03T07:38:53Z</time>
      </trkpt>
      <trkpt lat="47.24308" lon="-1.55162">
        <ele>52</ele>
        <time>2022-05-03T07:38:54Z</time>
      </trkpt>
      <trkpt lat="47.24308" lon="-1.55164">
        <ele>51</ele>
        <time>2022-05-03T07:38:55Z</time>
      </trkpt>
      <trkpt lat="47.24308" lon="-1.55166">
        <ele>51</ele>
        <time>2022-05-03T07:38:56Z</time>
      </trkpt>
      <trkpt lat="47.24308" lon="-1.55167">
        <ele>52</ele>
        <time>2022-05-03T07:38:57Z</time>
      </trkpt>
      <trkpt lat="47.24308" lon="-1.55169">
        <ele>53</ele>
        <time>2022-05-03T07:38:58Z</time>
      </trkpt>
      <trkpt lat="47.24307" lon="-1.55171">
        <ele>53</ele>
        <time>2022-05-03T07:38:59Z</time>
      </trkpt>
      <trkpt lat="47.24308" lon="-1.55174">
        <ele>54</ele>
        <time>2022-05-03T07:39:00Z</time>
      </trkpt>
      <trkpt lat="47.24307" lon="-1.55175">
        <ele>54</ele>
        <time>2022-05-03T07:39:01Z</time>
      </trkpt>
      <trkpt lat="47.24307" lon="-1.55178">
        <ele>54</ele>
        <time>2022-05-03T07:39:02Z</time>
      </trkpt>
      <trkpt lat="47.24306" lon="-1.55179">
        <ele>54</ele>
        <time>2022-05-03T07:39:03Z</time>
      </trkpt>
      <trkpt lat="47.24306" lon="-1.55181">
        <ele>54</ele>
        <time>2022-05-03T07:39:04Z</time>
      </trkpt>
      <trkpt lat="47.24306" lon="-1.55182">
        <ele>54</ele>
        <time>2022-05-03T07:39:05Z</time>
      </trkpt>
      <trkpt lat="47.24305" lon="-1.55183">
        <ele>55</ele>
        <time>2022-05-03T07:39:06Z</time>
      </trkpt>
      <trkpt lat="47.24305" lon="-1.55184">
        <ele>55</ele>
        <time>2022-05-03T07:39:07Z</time>
      </trkpt>
      <trkpt lat="47.24305" lon="-1.55185">
        <ele>56</ele>
        <time>2022-05-03T07:39:08Z</time>
      </trkpt>
      <trkpt lat="47.24305" lon="-1.55186">
        <ele>56</ele>
        <time>2022-05-03T07:39:09Z</time>
      </trkpt>
      <trkpt lat="47.24305" lon="-1.55187">
        <ele>57</ele>
        <time>2022-05-03T07:39:10Z</time>
      </trkpt>
      <trkpt lat="47.24305" lon="-1.55189">
        <ele>57</ele>
        <time>2022-05-03T07:39:11Z</time>
      </trkpt>
      <trkpt lat="47.24304" lon="-1.55191">
        <ele>57</ele>
        <time>2022-05-03T07:39:12Z</time>
      </trkpt>
      <trkpt lat="47.24304" lon="-1.55192">
        <ele>57</ele>
        <time>2022-05-03T07:39:13Z</time>
      </trkpt>
      <trkpt lat="47.24303" lon="-1.55194">
        <ele>57</ele>
        <time>2022-05-03T07:39:14Z</time>
      </trkpt>
      <trkpt lat="47.24303" lon="-1.55195">
        <ele>57</ele>
        <time>2022-05-03T07:39:15Z</time>
      </trkpt>
      <trkpt lat="47.24303" lon="-1.55197">
        <ele>56</ele>
        <time>2022-05-03T07:39:16Z</time>
      </trkpt>
      <trkpt lat="47.24302" lon="-1.55199">
        <ele>56</ele>
        <time>2022-05-03T07:39:17Z</time>
      </trkpt>
      <trkpt lat="47.24302" lon="-1.552">
        <ele>56</ele>
        <time>2022-05-03T07:39:18Z</time>
      </trkpt>
      <trkpt lat="47.24302" lon="-1.55203">
        <ele>55</ele>
        <time>2022-05-03T07:39:19Z</time>
      </trkpt>
      <trkpt lat="47.24302" lon="-1.55205">
        <ele>54</ele>
        <time>2022-05-03T07:39:20Z</time>
      </trkpt>
      <trkpt lat="47.24302" lon="-1.55206">
        <ele>54</ele>
        <time>2022-05-03T07:39:21Z</time>
      </trkpt>
      <trkpt lat="47.24302" lon="-1.55208">
        <ele>54</ele>
        <time>2022-05-03T07:39:22Z</time>
      </trkpt>
      <trkpt lat="47.24301" lon="-1.5521">
        <ele>54</ele>
        <time>2022-05-03T07:39:23Z</time>
      </trkpt>
      <trkpt lat="47.24302" lon="-1.55211">
        <ele>54</ele>
        <time>2022-05-03T07:39:24Z</time>
      </trkpt>
      <trkpt lat="47.24302" lon="-1.55214">
        <ele>54</ele>
        <time>2022-05-03T07:39:25Z</time>
      </trkpt>
      <trkpt lat="47.24302" lon="-1.55216">
        <ele>54</ele>
        <time>2022-05-03T07:39:26Z</time>
      </trkpt>
      <trkpt lat="47.24302" lon="-1.55216">
        <ele>54</ele>
        <time>2022-05-03T07:39:27Z</time>
      </trkpt>
      <trkpt lat="47.24302" lon="-1.55216">
        <ele>54</ele>
        <time>2022-05-03T07:39:28Z</time>
      </trkpt>
      <trkpt lat="47.243" lon="-1.55222">
        <ele>53</ele>
        <time>2022-05-03T07:39:29Z</time>
      </trkpt>
      <trkpt lat="47.243" lon="-1.55224">
        <ele>53</ele>
        <time>2022-05-03T07:39:30Z</time>
      </trkpt>
      <trkpt lat="47.243" lon="-1.55227">
        <ele>53</ele>
        <time>2022-05-03T07:39:31Z</time>
      </trkpt>
      <trkpt lat="47.243" lon="-1.5523">
        <ele>53</ele>
        <time>2022-05-03T07:39:32Z</time>
      </trkpt>
      <trkpt lat="47.243" lon="-1.55233">
        <ele>53</ele>
        <time>2022-05-03T07:39:33Z</time>
      </trkpt>
      <trkpt lat="47.243" lon="-1.55236">
        <ele>52</ele>
        <time>2022-05-03T07:39:34Z</time>
      </trkpt>
      <trkpt lat="47.24299" lon="-1.55238">
        <ele>52</ele>
        <time>2022-05-03T07:39:35Z</time>
      </trkpt>
      <trkpt lat="47.24299" lon="-1.55241">
        <ele>51</ele>
        <time>2022-05-03T07:39:36Z</time>
      </trkpt>
      <trkpt lat="47.24299" lon="-1.55244">
        <ele>51</ele>
        <time>2022-05-03T07:39:37Z</time>
      </trkpt>
      <trkpt lat="47.24299" lon="-1.55247">
        <ele>51</ele>
        <time>2022-05-03T07:39:38Z</time>
      </trkpt>
      <trkpt lat="47.24298" lon="-1.55248">
        <ele>51</ele>
        <time>2022-05-03T07:39:39Z</time>
      </trkpt>
      <trkpt lat="47.24298" lon="-1.55251">
        <ele>50</ele>
        <time>2022-05-03T07:39:40Z</time>
      </trkpt>
      <trkpt lat="47.24298" lon="-1.55253">
        <ele>51</ele>
        <time>2022-05-03T07:39:41Z</time>
      </trkpt>
      <trkpt lat="47.24297" lon="-1.55255">
        <ele>51</ele>
        <time>2022-05-03T07:39:42Z</time>
      </trkpt>
      <trkpt lat="47.24297" lon="-1.55257">
        <ele>51</ele>
        <time>2022-05-03T07:39:43Z</time>
      </trkpt>
      <trkpt lat="47.24297" lon="-1.55259">
        <ele>51</ele>
        <time>2022-05-03T07:39:44Z</time>
      </trkpt>
      <trkpt lat="47.24297" lon="-1.55262">
        <ele>51</ele>
        <time>2022-05-03T07:39:45Z</time>
      </trkpt>
      <trkpt lat="47.24297" lon="-1.55264">
        <ele>51</ele>
        <time>2022-05-03T07:39:46Z</time>
      </trkpt>
      <trkpt lat="47.24297" lon="-1.55266">
        <ele>51</ele>
        <time>2022-05-03T07:39:47Z</time>
      </trkpt>
      <trkpt lat="47.24296" lon="-1.55269">
        <ele>51</ele>
        <time>2022-05-03T07:39:48Z</time>
      </trkpt>
      <trkpt lat="47.24296" lon="-1.55272">
        <ele>51</ele>
        <time>2022-05-03T07:39:49Z</time>
      </trkpt>
      <trkpt lat="47.24296" lon="-1.55274">
        <ele>51</ele>
        <time>2022-05-03T07:39:50Z</time>
      </trkpt>
      <trkpt lat="47.24295" lon="-1.55276">
        <ele>51</ele>
        <time>2022-05-03T07:39:51Z</time>
      </trkpt>
      <trkpt lat="47.24295" lon="-1.55278">
        <ele>51</ele>
        <time>2022-05-03T07:39:52Z</time>
      </trkpt>
      <trkpt lat="47.24295" lon="-1.5528">
        <ele>50</ele>
        <time>2022-05-03T07:39:53Z</time>
      </trkpt>
      <trkpt lat="47.24295" lon="-1.55282">
        <ele>50</ele>
        <time>2022-05-03T07:39:54Z</time>
      </trkpt>
      <trkpt lat="47.24294" lon="-1.55284">
        <ele>51</ele>
        <time>2022-05-03T07:39:55Z</time>
      </trkpt>
      <trkpt lat="47.24294" lon="-1.55286">
        <ele>50</ele>
        <time>2022-05-03T07:39:56Z</time>
      </trkpt>
      <trkpt lat="47.24293" lon="-1.55288">
        <ele>50</ele>
        <time>2022-05-03T07:39:57Z</time>
      </trkpt>
      <trkpt lat="47.24293" lon="-1.55289">
        <ele>50</ele>
        <time>2022-05-03T07:39:58Z</time>
      </trkpt>
      <trkpt lat="47.24292" lon="-1.55291">
        <ele>50</ele>
        <time>2022-05-03T07:39:59Z</time>
      </trkpt>
      <trkpt lat="47.24292" lon="-1.55293">
        <ele>50</ele>
        <time>2022-05-03T07:40:00Z</time>
      </trkpt>
      <trkpt lat="47.24292" lon="-1.55295">
        <ele>50</ele>
        <time>2022-05-03T07:40:01Z</time>
      </trkpt>
      <trkpt lat="47.24292" lon="-1.55297">
        <ele>50</ele>
        <time>2022-05-03T07:40:02Z</time>
      </trkpt>
      <trkpt lat="47.24292" lon="-1.55299">
        <ele>50</ele>
        <time>2022-05-03T07:40:03Z</time>
      </trkpt>
      <trkpt lat="47.24292" lon="-1.55301">
        <ele>49</ele>
        <time>2022-05-03T07:40:04Z</time>
      </trkpt>
      <trkpt lat="47.24292" lon="-1.55303">
        <ele>49</ele>
        <time>2022-05-03T07:40:05Z</time>
      </trkpt>
      <trkpt lat="47.24291" lon="-1.55305">
        <ele>49</ele>
        <time>2022-05-03T07:40:06Z</time>
      </trkpt>
      <trkpt lat="47.24291" lon="-1.55307">
        <ele>50</ele>
        <time>2022-05-03T07:40:07Z</time>
      </trkpt>
      <trkpt lat="47.24291" lon="-1.55309">
        <ele>50</ele>
        <time>2022-05-03T07:40:08Z</time>
      </trkpt>
      <trkpt lat="47.24291" lon="-1.55311">
        <ele>50</ele>
        <time>2022-05-03T07:40:09Z</time>
      </trkpt>
      <trkpt lat="47.24291" lon="-1.55313">
        <ele>49</ele>
        <time>2022-05-03T07:40:10Z</time>
      </trkpt>
      <trkpt lat="47.24291" lon="-1.55315">
        <ele>50</ele>
        <time>2022-05-03T07:40:11Z</time>
      </trkpt>
      <trkpt lat="47.2429" lon="-1.55317">
        <ele>50</ele>
        <time>2022-05-03T07:40:12Z</time>
      </trkpt>
      <trkpt lat="47.24291" lon="-1.55319">
        <ele>50</ele>
        <time>2022-05-03T07:40:13Z</time>
      </trkpt>
      <trkpt lat="47.2429" lon="-1.55321">
        <ele>50</ele>
        <time>2022-05-03T07:40:14Z</time>
      </trkpt>
      <trkpt lat="47.24291" lon="-1.55323">
        <ele>50</ele>
        <time>2022-05-03T07:40:15Z</time>
      </trkpt>
      <trkpt lat="47.24291" lon="-1.55325">
        <ele>50</ele>
        <time>2022-05-03T07:40:16Z</time>
      </trkpt>
      <trkpt lat="47.24292" lon="-1.55327">
        <ele>50</ele>
        <time>2022-05-03T07:40:17Z</time>
      </trkpt>
      <trkpt lat="47.24292" lon="-1.5533">
        <ele>50</ele>
        <time>2022-05-03T07:40:18Z</time>
      </trkpt>
      <trkpt lat="47.24293" lon="-1.55332">
        <ele>50</ele>
        <time>2022-05-03T07:40:19Z</time>
      </trkpt>
      <trkpt lat="47.24293" lon="-1.55334">
        <ele>50</ele>
        <time>2022-05-03T07:40:20Z</time>
      </trkpt>
      <trkpt lat="47.24294" lon="-1.55336">
        <ele>51</ele>
        <time>2022-05-03T07:40:21Z</time>
      </trkpt>
      <trkpt lat="47.24294" lon="-1.55338">
        <ele>51</ele>
        <time>2022-05-03T07:40:22Z</time>
      </trkpt>
      <trkpt lat="47.24295" lon="-1.5534">
        <ele>51</ele>
        <time>2022-05-03T07:40:23Z</time>
      </trkpt>
      <trkpt lat="47.24295" lon="-1.55342">
        <ele>52</ele>
        <time>2022-05-03T07:40:24Z</time>
      </trkpt>
      <trkpt lat="47.24295" lon="-1.55345">
        <ele>52</ele>
        <time>2022-05-03T07:40:25Z</time>
      </trkpt>
      <trkpt lat="47.24295" lon="-1.55347">
        <ele>52</ele>
        <time>2022-05-03T07:40:26Z</time>
      </trkpt>
      <trkpt lat="47.24295" lon="-1.55349">
        <ele>52</ele>
        <time>2022-05-03T07:40:27Z</time>
      </trkpt>
      <trkpt lat="47.24295" lon="-1.55351">
        <ele>52</ele>
        <time>2022-05-03T07:40:28Z</time>
      </trkpt>
      <trkpt lat="47.24295" lon="-1.55352">
        <ele>52</ele>
        <time>2022-05-03T07:40:29Z</time>
      </trkpt>
      <trkpt lat="47.24295" lon="-1.55354">
        <ele>52</ele>
        <time>2022-05-03T07:40:30Z</time>
      </trkpt>
      <trkpt lat="47.24295" lon="-1.55356">
        <ele>53</ele>
        <time>2022-05-03T07:40:31Z</time>
      </trkpt>
      <trkpt lat="47.24295" lon="-1.55358">
        <ele>53</ele>
        <time>2022-05-03T07:40:32Z</time>
      </trkpt>
      <trkpt lat="47.24295" lon="-1.5536">
        <ele>53</ele>
        <time>2022-05-03T07:40:33Z</time>
      </trkpt>
      <trkpt lat="47.24295" lon="-1.55362">
        <ele>53</ele>
        <time>2022-05-03T07:40:34Z</time>
      </trkpt>
      <trkpt lat="47.24294" lon="-1.55363">
        <ele>54</ele>
        <time>2022-05-03T07:40:35Z</time>
      </trkpt>
      <trkpt lat="47.24294" lon="-1.55365">
        <ele>54</ele>
        <time>2022-05-03T07:40:36Z</time>
      </trkpt>
      <trkpt lat="47.24293" lon="-1.55365">
        <ele>54</ele>
        <time>2022-05-03T07:40:37Z</time>
      </trkpt>
      <trkpt lat="47.24292" lon="-1.55366">
        <ele>54</ele>
        <time>2022-05-03T07:40:38Z</time>
      </trkpt>
      <trkpt lat="47.24291" lon="-1.55367">
        <ele>54</ele>
        <time>2022-05-03T07:40:39Z</time>
      </trkpt>
      <trkpt lat="47.24291" lon="-1.55367">
        <ele>55</ele>
        <time>2022-05-03T07:40:40Z</time>
      </trkpt>
      <trkpt lat="47.24289" lon="-1.55367">
        <ele>54</ele>
        <time>2022-05-03T07:40:41Z</time>
      </trkpt>
      <trkpt lat="47.24289" lon="-1.55368">
        <ele>54</ele>
        <time>2022-05-03T07:40:42Z</time>
      </trkpt>
      <trkpt lat="47.24287" lon="-1.55367">
        <ele>54</ele>
        <time>2022-05-03T07:40:43Z</time>
      </trkpt>
      <trkpt lat="47.24286" lon="-1.55367">
        <ele>55</ele>
        <time>2022-05-03T07:40:44Z</time>
      </trkpt>
      <trkpt lat="47.24285" lon="-1.55367">
        <ele>55</ele>
        <time>2022-05-03T07:40:45Z</time>
      </trkpt>
      <trkpt lat="47.24284" lon="-1.55368">
        <ele>55</ele>
        <time>2022-05-03T07:40:46Z</time>
      </trkpt>
      <trkpt lat="47.24283" lon="-1.55368">
        <ele>55</ele>
        <time>2022-05-03T07:40:47Z</time>
      </trkpt>
      <trkpt lat="47.24283" lon="-1.55368">
        <ele>55</ele>
        <time>2022-05-03T07:40:48Z</time>
      </trkpt>
      <trkpt lat="47.24281" lon="-1.55368">
        <ele>55</ele>
        <time>2022-05-03T07:40:49Z</time>
      </trkpt>
      <trkpt lat="47.24281" lon="-1.55368">
        <ele>55</ele>
        <time>2022-05-03T07:40:50Z</time>
      </trkpt>
      <trkpt lat="47.24279" lon="-1.55368">
        <ele>56</ele>
        <time>2022-05-03T07:40:51Z</time>
      </trkpt>
      <trkpt lat="47.24279" lon="-1.55368">
        <ele>56</ele>
        <time>2022-05-03T07:40:52Z</time>
      </trkpt>
      <trkpt lat="47.24278" lon="-1.55368">
        <ele>56</ele>
        <time>2022-05-03T07:40:53Z</time>
      </trkpt>
      <trkpt lat="47.24277" lon="-1.55369">
        <ele>56</ele>
        <time>2022-05-03T07:40:54Z</time>
      </trkpt>
      <trkpt lat="47.24276" lon="-1.55369">
        <ele>56</ele>
        <time>2022-05-03T07:40:55Z</time>
      </trkpt>
      <trkpt lat="47.24274" lon="-1.5537">
        <ele>56</ele>
        <time>2022-05-03T07:40:56Z</time>
      </trkpt>
      <trkpt lat="47.24274" lon="-1.5537">
        <ele>57</ele>
        <time>2022-05-03T07:40:57Z</time>
      </trkpt>
      <trkpt lat="47.24273" lon="-1.55371">
        <ele>57</ele>
        <time>2022-05-03T07:40:58Z</time>
      </trkpt>
      <trkpt lat="47.24271" lon="-1.55371">
        <ele>56</ele>
        <time>2022-05-03T07:40:59Z</time>
      </trkpt>
      <trkpt lat="47.2427" lon="-1.55372">
        <ele>56</ele>
        <time>2022-05-03T07:41:00Z</time>
      </trkpt>
      <trkpt lat="47.24268" lon="-1.55372">
        <ele>56</ele>
        <time>2022-05-03T07:41:01Z</time>
      </trkpt>
      <trkpt lat="47.24267" lon="-1.55373">
        <ele>55</ele>
        <time>2022-05-03T07:41:02Z</time>
      </trkpt>
      <trkpt lat="47.24266" lon="-1.55374">
        <ele>55</ele>
        <time>2022-05-03T07:41:03Z</time>
      </trkpt>
      <trkpt lat="47.24265" lon="-1.55374">
        <ele>55</ele>
        <time>2022-05-03T07:41:04Z</time>
      </trkpt>
      <trkpt lat="47.24264" lon="-1.55374">
        <ele>55</ele>
        <time>2022-05-03T07:41:05Z</time>
      </trkpt>
      <trkpt lat="47.24263" lon="-1.55376">
        <ele>55</ele>
        <time>2022-05-03T07:41:06Z</time>
      </trkpt>
      <trkpt lat="47.24263" lon="-1.55377">
        <ele>55</ele>
        <time>2022-05-03T07:41:07Z</time>
      </trkpt>
      <trkpt lat="47.24262" lon="-1.55378">
        <ele>54</ele>
        <time>2022-05-03T07:41:08Z</time>
      </trkpt>
      <trkpt lat="47.2426" lon="-1.5538">
        <ele>54</ele>
        <time>2022-05-03T07:41:09Z</time>
      </trkpt>
      <trkpt lat="47.24259" lon="-1.55381">
        <ele>53</ele>
        <time>2022-05-03T07:41:10Z</time>
      </trkpt>
      <trkpt lat="47.24258" lon="-1.55383">
        <ele>53</ele>
        <time>2022-05-03T07:41:11Z</time>
      </trkpt>
      <trkpt lat="47.24258" lon="-1.55385">
        <ele>53</ele>
        <time>2022-05-03T07:41:12Z</time>
      </trkpt>
      <trkpt lat="47.24257" lon="-1.55386">
        <ele>53</ele>
        <time>2022-05-03T07:41:13Z</time>
      </trkpt>
      <trkpt lat="47.24256" lon="-1.55388">
        <ele>53</ele>
        <time>2022-05-03T07:41:14Z</time>
      </trkpt>
      <trkpt lat="47.24255" lon="-1.5539">
        <ele>53</ele>
        <time>2022-05-03T07:41:15Z</time>
      </trkpt>
      <trkpt lat="47.24254" lon="-1.55392">
        <ele>52</ele>
        <time>2022-05-03T07:41:16Z</time>
      </trkpt>
      <trkpt lat="47.24254" lon="-1.55393">
        <ele>52</ele>
        <time>2022-05-03T07:41:17Z</time>
      </trkpt>
      <trkpt lat="47.24253" lon="-1.55395">
        <ele>52</ele>
        <time>2022-05-03T07:41:18Z</time>
      </trkpt>
      <trkpt lat="47.24252" lon="-1.55399">
        <ele>52</ele>
        <time>2022-05-03T07:41:19Z</time>
      </trkpt>
      <trkpt lat="47.24252" lon="-1.55399">
        <ele>52</ele>
        <time>2022-05-03T07:41:19Z</time>
      </trkpt>
      <trkpt lat="47.24252" lon="-1.55401">
        <ele>52</ele>
        <time>2022-05-03T07:41:21Z</time>
      </trkpt>
      <trkpt lat="47.24251" lon="-1.55402">
        <ele>52</ele>
        <time>2022-05-03T07:41:22Z</time>
      </trkpt>
      <trkpt lat="47.24251" lon="-1.55404">
        <ele>52</ele>
        <time>2022-05-03T07:41:23Z</time>
      </trkpt>
      <trkpt lat="47.2425" lon="-1.55406">
        <ele>52</ele>
        <time>2022-05-03T07:41:24Z</time>
      </trkpt>
      <trkpt lat="47.2425" lon="-1.55407">
        <ele>52</ele>
        <time>2022-05-03T07:41:25Z</time>
      </trkpt>
      <trkpt lat="47.2425" lon="-1.55409">
        <ele>52</ele>
        <time>2022-05-03T07:41:26Z</time>
      </trkpt>
      <trkpt lat="47.24249" lon="-1.55411">
        <ele>52</ele>
        <time>2022-05-03T07:41:27Z</time>
      </trkpt>
      <trkpt lat="47.24249" lon="-1.55412">
        <ele>52</ele>
        <time>2022-05-03T07:41:28Z</time>
      </trkpt>
      <trkpt lat="47.24249" lon="-1.55414">
        <ele>52</ele>
        <time>2022-05-03T07:41:29Z</time>
      </trkpt>
      <trkpt lat="47.24248" lon="-1.55416">
        <ele>52</ele>
        <time>2022-05-03T07:41:30Z</time>
      </trkpt>
      <trkpt lat="47.24248" lon="-1.55417">
        <ele>53</ele>
        <time>2022-05-03T07:41:31Z</time>
      </trkpt>
      <trkpt lat="47.24247" lon="-1.55418">
        <ele>53</ele>
        <time>2022-05-03T07:41:32Z</time>
      </trkpt>
      <trkpt lat="47.24247" lon="-1.5542">
        <ele>53</ele>
        <time>2022-05-03T07:41:33Z</time>
      </trkpt>
      <trkpt lat="47.24247" lon="-1.55422">
        <ele>53</ele>
        <time>2022-05-03T07:41:34Z</time>
      </trkpt>
      <trkpt lat="47.24246" lon="-1.55424">
        <ele>53</ele>
        <time>2022-05-03T07:41:35Z</time>
      </trkpt>
      <trkpt lat="47.24246" lon="-1.55426">
        <ele>53</ele>
        <time>2022-05-03T07:41:36Z</time>
      </trkpt>
      <trkpt lat="47.24245" lon="-1.55428">
        <ele>53</ele>
        <time>2022-05-03T07:41:37Z</time>
      </trkpt>
      <trkpt lat="47.24244" lon="-1.55429">
        <ele>53</ele>
        <time>2022-05-03T07:41:38Z</time>
      </trkpt>
      <trkpt lat="47.24244" lon="-1.55431">
        <ele>53</ele>
        <time>2022-05-03T07:41:39Z</time>
      </trkpt>
      <trkpt lat="47.24244" lon="-1.55434">
        <ele>54</ele>
        <time>2022-05-03T07:41:40Z</time>
      </trkpt>
      <trkpt lat="47.24243" lon="-1.55435">
        <ele>54</ele>
        <time>2022-05-03T07:41:41Z</time>
      </trkpt>
      <trkpt lat="47.24243" lon="-1.55437">
        <ele>54</ele>
        <time>2022-05-03T07:41:42Z</time>
      </trkpt>
      <trkpt lat="47.24242" lon="-1.5544">
        <ele>55</ele>
        <time>2022-05-03T07:41:43Z</time>
      </trkpt>
      <trkpt lat="47.24242" lon="-1.5544">
        <ele>55</ele>
        <time>2022-05-03T07:41:43Z</time>
      </trkpt>
      <trkpt lat="47.24241" lon="-1.55444">
        <ele>55</ele>
        <time>2022-05-03T07:41:45Z</time>
      </trkpt>
      <trkpt lat="47.24241" lon="-1.55444">
        <ele>55</ele>
        <time>2022-05-03T07:41:45Z</time>
      </trkpt>
      <trkpt lat="47.24241" lon="-1.55445">
        <ele>55</ele>
        <time>2022-05-03T07:41:47Z</time>
      </trkpt>
      <trkpt lat="47.2424" lon="-1.55447">
        <ele>55</ele>
        <time>2022-05-03T07:41:48Z</time>
      </trkpt>
      <trkpt lat="47.2424" lon="-1.55451">
        <ele>56</ele>
        <time>2022-05-03T07:41:49Z</time>
      </trkpt>
      <trkpt lat="47.2424" lon="-1.55451">
        <ele>56</ele>
        <time>2022-05-03T07:41:49Z</time>
      </trkpt>
      <trkpt lat="47.2424" lon="-1.55453">
        <ele>56</ele>
        <time>2022-05-03T07:41:51Z</time>
      </trkpt>
      <trkpt lat="47.2424" lon="-1.55454">
        <ele>56</ele>
        <time>2022-05-03T07:41:52Z</time>
      </trkpt>
      <trkpt lat="47.2424" lon="-1.55458">
        <ele>57</ele>
        <time>2022-05-03T07:41:53Z</time>
      </trkpt>
      <trkpt lat="47.2424" lon="-1.55458">
        <ele>57</ele>
        <time>2022-05-03T07:41:53Z</time>
      </trkpt>
      <trkpt lat="47.2424" lon="-1.55462">
        <ele>57</ele>
        <time>2022-05-03T07:41:55Z</time>
      </trkpt>
      <trkpt lat="47.24239" lon="-1.55463">
        <ele>57</ele>
        <time>2022-05-03T07:41:56Z</time>
      </trkpt>
      <trkpt lat="47.24239" lon="-1.55466">
        <ele>57</ele>
        <time>2022-05-03T07:41:57Z</time>
      </trkpt>
      <trkpt lat="47.24239" lon="-1.55467">
        <ele>57</ele>
        <time>2022-05-03T07:41:58Z</time>
      </trkpt>
      <trkpt lat="47.2424" lon="-1.5547">
        <ele>57</ele>
        <time>2022-05-03T07:41:59Z</time>
      </trkpt>
      <trkpt lat="47.2424" lon="-1.55472">
        <ele>57</ele>
        <time>2022-05-03T07:42:00Z</time>
      </trkpt>
      <trkpt lat="47.2424" lon="-1.55472">
        <ele>57</ele>
        <time>2022-05-03T07:42:00Z</time>
      </trkpt>
      <trkpt lat="47.2424" lon="-1.55475">
        <ele>57</ele>
        <time>2022-05-03T07:42:02Z</time>
      </trkpt>
      <trkpt lat="47.2424" lon="-1.55475">
        <ele>57</ele>
        <time>2022-05-03T07:42:02Z</time>
      </trkpt>
      <trkpt lat="47.24241" lon="-1.55479">
        <ele>57</ele>
        <time>2022-05-03T07:42:04Z</time>
      </trkpt>
      <trkpt lat="47.24241" lon="-1.55481">
        <ele>57</ele>
        <time>2022-05-03T07:42:05Z</time>
      </trkpt>
      <trkpt lat="47.24241" lon="-1.55483">
        <ele>57</ele>
        <time>2022-05-03T07:42:06Z</time>
      </trkpt>
      <trkpt lat="47.24241" lon="-1.55485">
        <ele>56</ele>
        <time>2022-05-03T07:42:07Z</time>
      </trkpt>
      <trkpt lat="47.24241" lon="-1.55486">
        <ele>56</ele>
        <time>2022-05-03T07:42:08Z</time>
      </trkpt>
      <trkpt lat="47.24241" lon="-1.55489">
        <ele>56</ele>
        <time>2022-05-03T07:42:09Z</time>
      </trkpt>
      <trkpt lat="47.24241" lon="-1.5549">
        <ele>56</ele>
        <time>2022-05-03T07:42:10Z</time>
      </trkpt>
      <trkpt lat="47.2424" lon="-1.55493">
        <ele>55</ele>
        <time>2022-05-03T07:42:11Z</time>
      </trkpt>
      <trkpt lat="47.2424" lon="-1.55493">
        <ele>55</ele>
        <time>2022-05-03T07:42:11Z</time>
      </trkpt>
      <trkpt lat="47.24239" lon="-1.55497">
        <ele>55</ele>
        <time>2022-05-03T07:42:13Z</time>
      </trkpt>
      <trkpt lat="47.24239" lon="-1.55499">
        <ele>55</ele>
        <time>2022-05-03T07:42:14Z</time>
      </trkpt>
      <trkpt lat="47.24239" lon="-1.55499">
        <ele>55</ele>
        <time>2022-05-03T07:42:14Z</time>
      </trkpt>
      <trkpt lat="47.24238" lon="-1.55501">
        <ele>55</ele>
        <time>2022-05-03T07:42:16Z</time>
      </trkpt>
      <trkpt lat="47.24237" lon="-1.55505">
        <ele>55</ele>
        <time>2022-05-03T07:42:17Z</time>
      </trkpt>
      <trkpt lat="47.24237" lon="-1.55506">
        <ele>55</ele>
        <time>2022-05-03T07:42:18Z</time>
      </trkpt>
      <trkpt lat="47.24236" lon="-1.55508">
        <ele>55</ele>
        <time>2022-05-03T07:42:19Z</time>
      </trkpt>
      <trkpt lat="47.24235" lon="-1.55509">
        <ele>56</ele>
        <time>2022-05-03T07:42:20Z</time>
      </trkpt>
      <trkpt lat="47.24234" lon="-1.55511">
        <ele>56</ele>
        <time>2022-05-03T07:42:21Z</time>
      </trkpt>
      <trkpt lat="47.24234" lon="-1.55513">
        <ele>56</ele>
        <time>2022-05-03T07:42:22Z</time>
      </trkpt>
      <trkpt lat="47.24233" lon="-1.55515">
        <ele>57</ele>
        <time>2022-05-03T07:42:23Z</time>
      </trkpt>
      <trkpt lat="47.24233" lon="-1.55517">
        <ele>57</ele>
        <time>2022-05-03T07:42:24Z</time>
      </trkpt>
      <trkpt lat="47.24232" lon="-1.5552">
        <ele>57</ele>
        <time>2022-05-03T07:42:25Z</time>
      </trkpt>
      <trkpt lat="47.24232" lon="-1.55522">
        <ele>57</ele>
        <time>2022-05-03T07:42:26Z</time>
      </trkpt>
      <trkpt lat="47.24232" lon="-1.55524">
        <ele>57</ele>
        <time>2022-05-03T07:42:27Z</time>
      </trkpt>
      <trkpt lat="47.24232" lon="-1.55527">
        <ele>57</ele>
        <time>2022-05-03T07:42:28Z</time>
      </trkpt>
      <trkpt lat="47.24231" lon="-1.55529">
        <ele>58</ele>
        <time>2022-05-03T07:42:29Z</time>
      </trkpt>
      <trkpt lat="47.24231" lon="-1.55531">
        <ele>58</ele>
        <time>2022-05-03T07:42:30Z</time>
      </trkpt>
      <trkpt lat="47.24231" lon="-1.55532">
        <ele>58</ele>
        <time>2022-05-03T07:42:31Z</time>
      </trkpt>
      <trkpt lat="47.24229" lon="-1.55534">
        <ele>58</ele>
        <time>2022-05-03T07:42:32Z</time>
      </trkpt>
      <trkpt lat="47.24229" lon="-1.55536">
        <ele>58</ele>
        <time>2022-05-03T07:42:33Z</time>
      </trkpt>
      <trkpt lat="47.24229" lon="-1.55538">
        <ele>58</ele>
        <time>2022-05-03T07:42:34Z</time>
      </trkpt>
      <trkpt lat="47.24228" lon="-1.5554">
        <ele>58</ele>
        <time>2022-05-03T07:42:35Z</time>
      </trkpt>
      <trkpt lat="47.24228" lon="-1.55542">
        <ele>57</ele>
        <time>2022-05-03T07:42:36Z</time>
      </trkpt>
      <trkpt lat="47.24228" lon="-1.55543">
        <ele>57</ele>
        <time>2022-05-03T07:42:37Z</time>
      </trkpt>
      <trkpt lat="47.24227" lon="-1.55545">
        <ele>57</ele>
        <time>2022-05-03T07:42:38Z</time>
      </trkpt>
      <trkpt lat="47.24227" lon="-1.55547">
        <ele>57</ele>
        <time>2022-05-03T07:42:39Z</time>
      </trkpt>
      <trkpt lat="47.24227" lon="-1.55548">
        <ele>57</ele>
        <time>2022-05-03T07:42:40Z</time>
      </trkpt>
      <trkpt lat="47.24227" lon="-1.5555">
        <ele>57</ele>
        <time>2022-05-03T07:42:41Z</time>
      </trkpt>
      <trkpt lat="47.24226" lon="-1.55552">
        <ele>57</ele>
        <time>2022-05-03T07:42:42Z</time>
      </trkpt>
      <trkpt lat="47.24226" lon="-1.55554">
        <ele>57</ele>
        <time>2022-05-03T07:42:43Z</time>
      </trkpt>
      <trkpt lat="47.24225" lon="-1.55555">
        <ele>58</ele>
        <time>2022-05-03T07:42:44Z</time>
      </trkpt>
      <trkpt lat="47.24225" lon="-1.55557">
        <ele>58</ele>
        <time>2022-05-03T07:42:45Z</time>
      </trkpt>
      <trkpt lat="47.24225" lon="-1.55558">
        <ele>58</ele>
        <time>2022-05-03T07:42:46Z</time>
      </trkpt>
      <trkpt lat="47.24224" lon="-1.5556">
        <ele>58</ele>
        <time>2022-05-03T07:42:47Z</time>
      </trkpt>
      <trkpt lat="47.24224" lon="-1.55562">
        <ele>58</ele>
        <time>2022-05-03T07:42:48Z</time>
      </trkpt>
      <trkpt lat="47.24223" lon="-1.55564">
        <ele>58</ele>
        <time>2022-05-03T07:42:49Z</time>
      </trkpt>
      <trkpt lat="47.24223" lon="-1.55566">
        <ele>58</ele>
        <time>2022-05-03T07:42:50Z</time>
      </trkpt>
      <trkpt lat="47.24223" lon="-1.55568">
        <ele>58</ele>
        <time>2022-05-03T07:42:51Z</time>
      </trkpt>
      <trkpt lat="47.24224" lon="-1.5557">
        <ele>58</ele>
        <time>2022-05-03T07:42:52Z</time>
      </trkpt>
      <trkpt lat="47.24223" lon="-1.55572">
        <ele>58</ele>
        <time>2022-05-03T07:42:53Z</time>
      </trkpt>
      <trkpt lat="47.24223" lon="-1.55573">
        <ele>58</ele>
        <time>2022-05-03T07:42:54Z</time>
      </trkpt>
      <trkpt lat="47.24223" lon="-1.55574">
        <ele>59</ele>
        <time>2022-05-03T07:42:55Z</time>
      </trkpt>
      <trkpt lat="47.24222" lon="-1.55576">
        <ele>59</ele>
        <time>2022-05-03T07:42:56Z</time>
      </trkpt>
      <trkpt lat="47.24221" lon="-1.55578">
        <ele>59</ele>
        <time>2022-05-03T07:42:57Z</time>
      </trkpt>
      <trkpt lat="47.24221" lon="-1.5558">
        <ele>59</ele>
        <time>2022-05-03T07:42:58Z</time>
      </trkpt>
      <trkpt lat="47.24221" lon="-1.55582">
        <ele>59</ele>
        <time>2022-05-03T07:42:59Z</time>
      </trkpt>
      <trkpt lat="47.2422" lon="-1.55584">
        <ele>59</ele>
        <time>2022-05-03T07:43:00Z</time>
      </trkpt>
      <trkpt lat="47.24221" lon="-1.55586">
        <ele>59</ele>
        <time>2022-05-03T07:43:01Z</time>
      </trkpt>
      <trkpt lat="47.24221" lon="-1.55587">
        <ele>59</ele>
        <time>2022-05-03T07:43:02Z</time>
      </trkpt>
      <trkpt lat="47.24221" lon="-1.55589">
        <ele>60</ele>
        <time>2022-05-03T07:43:03Z</time>
      </trkpt>
      <trkpt lat="47.24221" lon="-1.5559">
        <ele>60</ele>
        <time>2022-05-03T07:43:04Z</time>
      </trkpt>
      <trkpt lat="47.24221" lon="-1.55592">
        <ele>60</ele>
        <time>2022-05-03T07:43:05Z</time>
      </trkpt>
      <trkpt lat="47.24221" lon="-1.55593">
        <ele>60</ele>
        <time>2022-05-03T07:43:06Z</time>
      </trkpt>
      <trkpt lat="47.24221" lon="-1.55595">
        <ele>60</ele>
        <time>2022-05-03T07:43:07Z</time>
      </trkpt>
      <trkpt lat="47.24221" lon="-1.55596">
        <ele>60</ele>
        <time>2022-05-03T07:43:08Z</time>
      </trkpt>
      <trkpt lat="47.24221" lon="-1.55597">
        <ele>60</ele>
        <time>2022-05-03T07:43:09Z</time>
      </trkpt>
      <trkpt lat="47.24221" lon="-1.55597">
        <ele>60</ele>
        <time>2022-05-03T07:43:10Z</time>
      </trkpt>
      <trkpt lat="47.24221" lon="-1.55597">
        <ele>60</ele>
        <time>2022-05-03T07:43:11Z</time>
      </trkpt>
      <trkpt lat="47.24219" lon="-1.556">
        <ele>60</ele>
        <time>2022-05-03T07:43:12Z</time>
      </trkpt>
      <trkpt lat="47.24218" lon="-1.55601">
        <ele>60</ele>
        <time>2022-05-03T07:43:13Z</time>
      </trkpt>
      <trkpt lat="47.24218" lon="-1.55602">
        <ele>60</ele>
        <time>2022-05-03T07:43:14Z</time>
      </trkpt>
      <trkpt lat="47.24217" lon="-1.55603">
        <ele>60</ele>
        <time>2022-05-03T07:43:15Z</time>
      </trkpt>
      <trkpt lat="47.24217" lon="-1.55603">
        <ele>60</ele>
        <time>2022-05-03T07:43:16Z</time>
      </trkpt>
      <trkpt lat="47.24217" lon="-1.55603">
        <ele>60</ele>
        <time>2022-05-03T07:43:17Z</time>
      </trkpt>
      <trkpt lat="47.24214" lon="-1.55606">
        <ele>58</ele>
        <time>2022-05-03T07:43:18Z</time>
      </trkpt>
      <trkpt lat="47.24213" lon="-1.55608">
        <ele>58</ele>
        <time>2022-05-03T07:43:19Z</time>
      </trkpt>
      <trkpt lat="47.24213" lon="-1.55609">
        <ele>58</ele>
        <time>2022-05-03T07:43:20Z</time>
      </trkpt>
      <trkpt lat="47.24212" lon="-1.55611">
        <ele>58</ele>
        <time>2022-05-03T07:43:21Z</time>
      </trkpt>
      <trkpt lat="47.24212" lon="-1.55612">
        <ele>57</ele>
        <time>2022-05-03T07:43:22Z</time>
      </trkpt>
      <trkpt lat="47.24212" lon="-1.55614">
        <ele>57</ele>
        <time>2022-05-03T07:43:23Z</time>
      </trkpt>
      <trkpt lat="47.24212" lon="-1.55615">
        <ele>57</ele>
        <time>2022-05-03T07:43:24Z</time>
      </trkpt>
      <trkpt lat="47.24212" lon="-1.55617">
        <ele>57</ele>
        <time>2022-05-03T07:43:25Z</time>
      </trkpt>
      <trkpt lat="47.24213" lon="-1.55618">
        <ele>56</ele>
        <time>2022-05-03T07:43:26Z</time>
      </trkpt>
      <trkpt lat="47.24213" lon="-1.55619">
        <ele>56</ele>
        <time>2022-05-03T07:43:27Z</time>
      </trkpt>
      <trkpt lat="47.24213" lon="-1.5562">
        <ele>56</ele>
        <time>2022-05-03T07:43:28Z</time>
      </trkpt>
      <trkpt lat="47.24214" lon="-1.55621">
        <ele>55</ele>
        <time>2022-05-03T07:43:29Z</time>
      </trkpt>
      <trkpt lat="47.24215" lon="-1.55623">
        <ele>55</ele>
        <time>2022-05-03T07:43:30Z</time>
      </trkpt>
      <trkpt lat="47.24215" lon="-1.55623">
        <ele>55</ele>
        <time>2022-05-03T07:43:31Z</time>
      </trkpt>
      <trkpt lat="47.24215" lon="-1.55624">
        <ele>55</ele>
        <time>2022-05-03T07:43:32Z</time>
      </trkpt>
      <trkpt lat="47.24216" lon="-1.55626">
        <ele>55</ele>
        <time>2022-05-03T07:43:33Z</time>
      </trkpt>
      <trkpt lat="47.24217" lon="-1.55626">
        <ele>55</ele>
        <time>2022-05-03T07:43:34Z</time>
      </trkpt>
      <trkpt lat="47.24218" lon="-1.55627">
        <ele>54</ele>
        <time>2022-05-03T07:43:35Z</time>
      </trkpt>
      <trkpt lat="47.24218" lon="-1.55627">
        <ele>54</ele>
        <time>2022-05-03T07:43:36Z</time>
      </trkpt>
      <trkpt lat="47.2422" lon="-1.55628">
        <ele>53</ele>
        <time>2022-05-03T07:43:37Z</time>
      </trkpt>
      <trkpt lat="47.2422" lon="-1.55628">
        <ele>53</ele>
        <time>2022-05-03T07:43:38Z</time>
      </trkpt>
      <trkpt lat="47.24221" lon="-1.55629">
        <ele>53</ele>
        <time>2022-05-03T07:43:39Z</time>
      </trkpt>
      <trkpt lat="47.24222" lon="-1.55628">
        <ele>53</ele>
        <time>2022-05-03T07:43:40Z</time>
      </trkpt>
      <trkpt lat="47.24223" lon="-1.55629">
        <ele>53</ele>
        <time>2022-05-03T07:43:41Z</time>
      </trkpt>
      <trkpt lat="47.24224" lon="-1.5563">
        <ele>54</ele>
        <time>2022-05-03T07:43:42Z</time>
      </trkpt>
      <trkpt lat="47.24225" lon="-1.55631">
        <ele>54</ele>
        <time>2022-05-03T07:43:43Z</time>
      </trkpt>
      <trkpt lat="47.24225" lon="-1.55633">
        <ele>54</ele>
        <time>2022-05-03T07:43:44Z</time>
      </trkpt>
      <trkpt lat="47.24225" lon="-1.55634">
        <ele>54</ele>
        <time>2022-05-03T07:43:45Z</time>
      </trkpt>
      <trkpt lat="47.24226" lon="-1.55635">
        <ele>55</ele>
        <time>2022-05-03T07:43:46Z</time>
      </trkpt>
      <trkpt lat="47.24226" lon="-1.55635">
        <ele>55</ele>
        <time>2022-05-03T07:43:47Z</time>
      </trkpt>
      <trkpt lat="47.24226" lon="-1.55636">
        <ele>55</ele>
        <time>2022-05-03T07:43:48Z</time>
      </trkpt>
      <trkpt lat="47.24226" lon="-1.55637">
        <ele>55</ele>
        <time>2022-05-03T07:43:49Z</time>
      </trkpt>
      <trkpt lat="47.24226" lon="-1.55637">
        <ele>55</ele>
        <time>2022-05-03T07:43:50Z</time>
      </trkpt>
      <trkpt lat="47.24226" lon="-1.55637">
        <ele>55</ele>
        <time>2022-05-03T07:43:51Z</time>
      </trkpt>
      <trkpt lat="47.24227" lon="-1.5564">
        <ele>55</ele>
        <time>2022-05-03T07:43:52Z</time>
      </trkpt>
      <trkpt lat="47.24228" lon="-1.55641">
        <ele>56</ele>
        <time>2022-05-03T07:43:53Z</time>
      </trkpt>
      <trkpt lat="47.24228" lon="-1.55642">
        <ele>56</ele>
        <time>2022-05-03T07:43:54Z</time>
      </trkpt>
      <trkpt lat="47.24228" lon="-1.55644">
        <ele>56</ele>
        <time>2022-05-03T07:43:55Z</time>
      </trkpt>
      <trkpt lat="47.24228" lon="-1.55646">
        <ele>56</ele>
        <time>2022-05-03T07:43:56Z</time>
      </trkpt>
      <trkpt lat="47.24228" lon="-1.55648">
        <ele>56</ele>
        <time>2022-05-03T07:43:57Z</time>
      </trkpt>
      <trkpt lat="47.24229" lon="-1.55649">
        <ele>56</ele>
        <time>2022-05-03T07:43:58Z</time>
      </trkpt>
      <trkpt lat="47.24229" lon="-1.55651">
        <ele>57</ele>
        <time>2022-05-03T07:43:59Z</time>
      </trkpt>
      <trkpt lat="47.24229" lon="-1.55653">
        <ele>56</ele>
        <time>2022-05-03T07:44:00Z</time>
      </trkpt>
      <trkpt lat="47.24229" lon="-1.55655">
        <ele>57</ele>
        <time>2022-05-03T07:44:01Z</time>
      </trkpt>
      <trkpt lat="47.24229" lon="-1.55657">
        <ele>57</ele>
        <time>2022-05-03T07:44:02Z</time>
      </trkpt>
      <trkpt lat="47.24229" lon="-1.55658">
        <ele>56</ele>
        <time>2022-05-03T07:44:03Z</time>
      </trkpt>
      <trkpt lat="47.2423" lon="-1.55659">
        <ele>57</ele>
        <time>2022-05-03T07:44:04Z</time>
      </trkpt>
      <trkpt lat="47.24231" lon="-1.5566">
        <ele>57</ele>
        <time>2022-05-03T07:44:05Z</time>
      </trkpt>
      <trkpt lat="47.24231" lon="-1.55661">
        <ele>57</ele>
        <time>2022-05-03T07:44:06Z</time>
      </trkpt>
      <trkpt lat="47.24232" lon="-1.55663">
        <ele>57</ele>
        <time>2022-05-03T07:44:07Z</time>
      </trkpt>
      <trkpt lat="47.24232" lon="-1.55664">
        <ele>57</ele>
        <time>2022-05-03T07:44:08Z</time>
      </trkpt>
      <trkpt lat="47.24233" lon="-1.55667">
        <ele>57</ele>
        <time>2022-05-03T07:44:09Z</time>
      </trkpt>
      <trkpt lat="47.24233" lon="-1.55669">
        <ele>57</ele>
        <time>2022-05-03T07:44:10Z</time>
      </trkpt>
      <trkpt lat="47.24233" lon="-1.55671">
        <ele>57</ele>
        <time>2022-05-03T07:44:11Z</time>
      </trkpt>
      <trkpt lat="47.24233" lon="-1.55671">
        <ele>57</ele>
        <time>2022-05-03T07:44:12Z</time>
      </trkpt>
      <trkpt lat="47.24234" lon="-1.55673">
        <ele>57</ele>
        <time>2022-05-03T07:44:13Z</time>
      </trkpt>
      <trkpt lat="47.24236" lon="-1.55676">
        <ele>58</ele>
        <time>2022-05-03T07:44:14Z</time>
      </trkpt>
      <trkpt lat="47.24236" lon="-1.55677">
        <ele>58</ele>
        <time>2022-05-03T07:44:15Z</time>
      </trkpt>
      <trkpt lat="47.24237" lon="-1.5568">
        <ele>58</ele>
        <time>2022-05-03T07:44:16Z</time>
      </trkpt>
      <trkpt lat="47.24237" lon="-1.55683">
        <ele>59</ele>
        <time>2022-05-03T07:44:17Z</time>
      </trkpt>
      <trkpt lat="47.24237" lon="-1.55685">
        <ele>59</ele>
        <time>2022-05-03T07:44:18Z</time>
      </trkpt>
      <trkpt lat="47.24237" lon="-1.55687">
        <ele>59</ele>
        <time>2022-05-03T07:44:19Z</time>
      </trkpt>
      <trkpt lat="47.24237" lon="-1.55689">
        <ele>59</ele>
        <time>2022-05-03T07:44:20Z</time>
      </trkpt>
      <trkpt lat="47.24238" lon="-1.55689">
        <ele>59</ele>
        <time>2022-05-03T07:44:21Z</time>
      </trkpt>
      <trkpt lat="47.24239" lon="-1.5569">
        <ele>60</ele>
        <time>2022-05-03T07:44:22Z</time>
      </trkpt>
      <trkpt lat="47.24239" lon="-1.55691">
        <ele>59</ele>
        <time>2022-05-03T07:44:23Z</time>
      </trkpt>
      <trkpt lat="47.24239" lon="-1.55693">
        <ele>58</ele>
        <time>2022-05-03T07:44:24Z</time>
      </trkpt>
      <trkpt lat="47.24239" lon="-1.55694">
        <ele>58</ele>
        <time>2022-05-03T07:44:25Z</time>
      </trkpt>
      <trkpt lat="47.24238" lon="-1.55695">
        <ele>58</ele>
        <time>2022-05-03T07:44:26Z</time>
      </trkpt>
      <trkpt lat="47.24238" lon="-1.55696">
        <ele>58</ele>
        <time>2022-05-03T07:44:27Z</time>
      </trkpt>
      <trkpt lat="47.24238" lon="-1.55697">
        <ele>58</ele>
        <time>2022-05-03T07:44:28Z</time>
      </trkpt>
      <trkpt lat="47.24238" lon="-1.55699">
        <ele>58</ele>
        <time>2022-05-03T07:44:29Z</time>
      </trkpt>
      <trkpt lat="47.24237" lon="-1.557">
        <ele>58</ele>
        <time>2022-05-03T07:44:30Z</time>
      </trkpt>
      <trkpt lat="47.24237" lon="-1.55702">
        <ele>58</ele>
        <time>2022-05-03T07:44:31Z</time>
      </trkpt>
      <trkpt lat="47.24237" lon="-1.55704">
        <ele>58</ele>
        <time>2022-05-03T07:44:32Z</time>
      </trkpt>
      <trkpt lat="47.24237" lon="-1.55707">
        <ele>58</ele>
        <time>2022-05-03T07:44:33Z</time>
      </trkpt>
      <trkpt lat="47.24237" lon="-1.55709">
        <ele>57</ele>
        <time>2022-05-03T07:44:34Z</time>
      </trkpt>
      <trkpt lat="47.24237" lon="-1.55711">
        <ele>57</ele>
        <time>2022-05-03T07:44:35Z</time>
      </trkpt>
      <trkpt lat="47.24236" lon="-1.55713">
        <ele>56</ele>
        <time>2022-05-03T07:44:36Z</time>
      </trkpt>
      <trkpt lat="47.24236" lon="-1.55715">
        <ele>56</ele>
        <time>2022-05-03T07:44:37Z</time>
      </trkpt>
      <trkpt lat="47.24235" lon="-1.55717">
        <ele>55</ele>
        <time>2022-05-03T07:44:38Z</time>
      </trkpt>
      <trkpt lat="47.24235" lon="-1.5572">
        <ele>54</ele>
        <time>2022-05-03T07:44:39Z</time>
      </trkpt>
      <trkpt lat="47.24235" lon="-1.55722">
        <ele>54</ele>
        <time>2022-05-03T07:44:40Z</time>
      </trkpt>
      <trkpt lat="47.24235" lon="-1.55724">
        <ele>54</ele>
        <time>2022-05-03T07:44:41Z</time>
      </trkpt>
      <trkpt lat="47.24235" lon="-1.55727">
        <ele>53</ele>
        <time>2022-05-03T07:44:42Z</time>
      </trkpt>
      <trkpt lat="47.24236" lon="-1.55729">
        <ele>54</ele>
        <time>2022-05-03T07:44:43Z</time>
      </trkpt>
      <trkpt lat="47.24236" lon="-1.55731">
        <ele>53</ele>
        <time>2022-05-03T07:44:44Z</time>
      </trkpt>
      <trkpt lat="47.24237" lon="-1.55733">
        <ele>53</ele>
        <time>2022-05-03T07:44:45Z</time>
      </trkpt>
      <trkpt lat="47.24237" lon="-1.55735">
        <ele>53</ele>
        <time>2022-05-03T07:44:46Z</time>
      </trkpt>
      <trkpt lat="47.24237" lon="-1.55737">
        <ele>53</ele>
        <time>2022-05-03T07:44:47Z</time>
      </trkpt>
      <trkpt lat="47.24237" lon="-1.55739">
        <ele>53</ele>
        <time>2022-05-03T07:44:48Z</time>
      </trkpt>
      <trkpt lat="47.24237" lon="-1.5574">
        <ele>54</ele>
        <time>2022-05-03T07:44:49Z</time>
      </trkpt>
      <trkpt lat="47.24237" lon="-1.55742">
        <ele>54</ele>
        <time>2022-05-03T07:44:50Z</time>
      </trkpt>
      <trkpt lat="47.24237" lon="-1.55743">
        <ele>55</ele>
        <time>2022-05-03T07:44:51Z</time>
      </trkpt>
      <trkpt lat="47.24238" lon="-1.55745">
        <ele>55</ele>
        <time>2022-05-03T07:44:52Z</time>
      </trkpt>
      <trkpt lat="47.24238" lon="-1.55746">
        <ele>55</ele>
        <time>2022-05-03T07:44:53Z</time>
      </trkpt>
      <trkpt lat="47.24238" lon="-1.55748">
        <ele>55</ele>
        <time>2022-05-03T07:44:54Z</time>
      </trkpt>
      <trkpt lat="47.24239" lon="-1.5575">
        <ele>55</ele>
        <time>2022-05-03T07:44:55Z</time>
      </trkpt>
      <trkpt lat="47.24239" lon="-1.55752">
        <ele>55</ele>
        <time>2022-05-03T07:44:56Z</time>
      </trkpt>
      <trkpt lat="47.24239" lon="-1.55755">
        <ele>55</ele>
        <time>2022-05-03T07:44:57Z</time>
      </trkpt>
      <trkpt lat="47.24239" lon="-1.55757">
        <ele>55</ele>
        <time>2022-05-03T07:44:58Z</time>
      </trkpt>
      <trkpt lat="47.24239" lon="-1.55759">
        <ele>55</ele>
        <time>2022-05-03T07:44:59Z</time>
      </trkpt>
      <trkpt lat="47.2424" lon="-1.55761">
        <ele>55</ele>
        <time>2022-05-03T07:45:00Z</time>
      </trkpt>
      <trkpt lat="47.2424" lon="-1.55763">
        <ele>55</ele>
        <time>2022-05-03T07:45:01Z</time>
      </trkpt>
      <trkpt lat="47.2424" lon="-1.55765">
        <ele>55</ele>
        <time>2022-05-03T07:45:02Z</time>
      </trkpt>
      <trkpt lat="47.2424" lon="-1.55766">
        <ele>56</ele>
        <time>2022-05-03T07:45:03Z</time>
      </trkpt>
      <trkpt lat="47.24241" lon="-1.55768">
        <ele>56</ele>
        <time>2022-05-03T07:45:04Z</time>
      </trkpt>
      <trkpt lat="47.24241" lon="-1.55768">
        <ele>56</ele>
        <time>2022-05-03T07:45:05Z</time>
      </trkpt>
      <trkpt lat="47.24241" lon="-1.55768">
        <ele>56</ele>
        <time>2022-05-03T07:45:06Z</time>
      </trkpt>
      <trkpt lat="47.24241" lon="-1.55774">
        <ele>56</ele>
        <time>2022-05-03T07:45:07Z</time>
      </trkpt>
      <trkpt lat="47.24241" lon="-1.55776">
        <ele>55</ele>
        <time>2022-05-03T07:45:08Z</time>
      </trkpt>
      <trkpt lat="47.24241" lon="-1.55779">
        <ele>56</ele>
        <time>2022-05-03T07:45:09Z</time>
      </trkpt>
      <trkpt lat="47.24241" lon="-1.55781">
        <ele>56</ele>
        <time>2022-05-03T07:45:10Z</time>
      </trkpt>
      <trkpt lat="47.24241" lon="-1.55783">
        <ele>55</ele>
        <time>2022-05-03T07:45:11Z</time>
      </trkpt>
      <trkpt lat="47.24242" lon="-1.55785">
        <ele>54</ele>
        <time>2022-05-03T07:45:12Z</time>
      </trkpt>
      <trkpt lat="47.24242" lon="-1.55787">
        <ele>54</ele>
        <time>2022-05-03T07:45:13Z</time>
      </trkpt>
      <trkpt lat="47.24242" lon="-1.5579">
        <ele>54</ele>
        <time>2022-05-03T07:45:14Z</time>
      </trkpt>
      <trkpt lat="47.24242" lon="-1.55792">
        <ele>54</ele>
        <time>2022-05-03T07:45:15Z</time>
      </trkpt>
      <trkpt lat="47.24242" lon="-1.55795">
        <ele>55</ele>
        <time>2022-05-03T07:45:16Z</time>
      </trkpt>
      <trkpt lat="47.24242" lon="-1.55797">
        <ele>55</ele>
        <time>2022-05-03T07:45:17Z</time>
      </trkpt>
      <trkpt lat="47.24242" lon="-1.55799">
        <ele>55</ele>
        <time>2022-05-03T07:45:18Z</time>
      </trkpt>
      <trkpt lat="47.24243" lon="-1.55802">
        <ele>55</ele>
        <time>2022-05-03T07:45:19Z</time>
      </trkpt>
      <trkpt lat="47.24243" lon="-1.55804">
        <ele>55</ele>
        <time>2022-05-03T07:45:20Z</time>
      </trkpt>
      <trkpt lat="47.24243" lon="-1.55807">
        <ele>55</ele>
        <time>2022-05-03T07:45:21Z</time>
      </trkpt>
      <trkpt lat="47.24244" lon="-1.5581">
        <ele>56</ele>
        <time>2022-05-03T07:45:22Z</time>
      </trkpt>
      <trkpt lat="47.24244" lon="-1.55812">
        <ele>55</ele>
        <time>2022-05-03T07:45:23Z</time>
      </trkpt>
      <trkpt lat="47.24244" lon="-1.55815">
        <ele>55</ele>
        <time>2022-05-03T07:45:24Z</time>
      </trkpt>
      <trkpt lat="47.24244" lon="-1.55816">
        <ele>55</ele>
        <time>2022-05-03T07:45:25Z</time>
      </trkpt>
      <trkpt lat="47.24244" lon="-1.55818">
        <ele>55</ele>
        <time>2022-05-03T07:45:26Z</time>
      </trkpt>
      <trkpt lat="47.24245" lon="-1.5582">
        <ele>55</ele>
        <time>2022-05-03T07:45:27Z</time>
      </trkpt>
      <trkpt lat="47.24245" lon="-1.55821">
        <ele>54</ele>
        <time>2022-05-03T07:45:28Z</time>
      </trkpt>
      <trkpt lat="47.24245" lon="-1.55823">
        <ele>54</ele>
        <time>2022-05-03T07:45:29Z</time>
      </trkpt>
      <trkpt lat="47.24245" lon="-1.55825">
        <ele>54</ele>
        <time>2022-05-03T07:45:30Z</time>
      </trkpt>
      <trkpt lat="47.24245" lon="-1.55826">
        <ele>54</ele>
        <time>2022-05-03T07:45:31Z</time>
      </trkpt>
      <trkpt lat="47.24245" lon="-1.55827">
        <ele>54</ele>
        <time>2022-05-03T07:45:32Z</time>
      </trkpt>
      <trkpt lat="47.24244" lon="-1.55829">
        <ele>54</ele>
        <time>2022-05-03T07:45:33Z</time>
      </trkpt>
      <trkpt lat="47.24244" lon="-1.55831">
        <ele>54</ele>
        <time>2022-05-03T07:45:34Z</time>
      </trkpt>
      <trkpt lat="47.24244" lon="-1.55833">
        <ele>54</ele>
        <time>2022-05-03T07:45:35Z</time>
      </trkpt>
      <trkpt lat="47.24244" lon="-1.55835">
        <ele>54</ele>
        <time>2022-05-03T07:45:36Z</time>
      </trkpt>
      <trkpt lat="47.24245" lon="-1.55837">
        <ele>54</ele>
        <time>2022-05-03T07:45:37Z</time>
      </trkpt>
      <trkpt lat="47.24245" lon="-1.55839">
        <ele>54</ele>
        <time>2022-05-03T07:45:38Z</time>
      </trkpt>
      <trkpt lat="47.24245" lon="-1.55841">
        <ele>55</ele>
        <time>2022-05-03T07:45:39Z</time>
      </trkpt>
      <trkpt lat="47.24245" lon="-1.55842">
        <ele>55</ele>
        <time>2022-05-03T07:45:40Z</time>
      </trkpt>
      <trkpt lat="47.24246" lon="-1.55844">
        <ele>55</ele>
        <time>2022-05-03T07:45:41Z</time>
      </trkpt>
      <trkpt lat="47.24246" lon="-1.55845">
        <ele>55</ele>
        <time>2022-05-03T07:45:42Z</time>
      </trkpt>
      <trkpt lat="47.24247" lon="-1.55848">
        <ele>56</ele>
        <time>2022-05-03T07:45:43Z</time>
      </trkpt>
      <trkpt lat="47.24247" lon="-1.5585">
        <ele>56</ele>
        <time>2022-05-03T07:45:44Z</time>
      </trkpt>
      <trkpt lat="47.24247" lon="-1.55852">
        <ele>56</ele>
        <time>2022-05-03T07:45:45Z</time>
      </trkpt>
      <trkpt lat="47.24248" lon="-1.55855">
        <ele>56</ele>
        <time>2022-05-03T07:45:46Z</time>
      </trkpt>
      <trkpt lat="47.24249" lon="-1.55857">
        <ele>56</ele>
        <time>2022-05-03T07:45:47Z</time>
      </trkpt>
      <trkpt lat="47.24249" lon="-1.55858">
        <ele>56</ele>
        <time>2022-05-03T07:45:48Z</time>
      </trkpt>
      <trkpt lat="47.24249" lon="-1.5586">
        <ele>56</ele>
        <time>2022-05-03T07:45:49Z</time>
      </trkpt>
      <trkpt lat="47.2425" lon="-1.55862">
        <ele>55</ele>
        <time>2022-05-03T07:45:50Z</time>
      </trkpt>
      <trkpt lat="47.24251" lon="-1.55864">
        <ele>55</ele>
        <time>2022-05-03T07:45:51Z</time>
      </trkpt>
      <trkpt lat="47.24251" lon="-1.55867">
        <ele>55</ele>
        <time>2022-05-03T07:45:52Z</time>
      </trkpt>
      <trkpt lat="47.24252" lon="-1.55869">
        <ele>55</ele>
        <time>2022-05-03T07:45:53Z</time>
      </trkpt>
      <trkpt lat="47.24252" lon="-1.5587">
        <ele>55</ele>
        <time>2022-05-03T07:45:54Z</time>
      </trkpt>
      <trkpt lat="47.24252" lon="-1.55872">
        <ele>54</ele>
        <time>2022-05-03T07:45:55Z</time>
      </trkpt>
      <trkpt lat="47.24252" lon="-1.55874">
        <ele>54</ele>
        <time>2022-05-03T07:45:56Z</time>
      </trkpt>
      <trkpt lat="47.24253" lon="-1.55876">
        <ele>53</ele>
        <time>2022-05-03T07:45:57Z</time>
      </trkpt>
      <trkpt lat="47.24253" lon="-1.55878">
        <ele>53</ele>
        <time>2022-05-03T07:45:58Z</time>
      </trkpt>
      <trkpt lat="47.24254" lon="-1.5588">
        <ele>53</ele>
        <time>2022-05-03T07:45:59Z</time>
      </trkpt>
      <trkpt lat="47.24255" lon="-1.55882">
        <ele>53</ele>
        <time>2022-05-03T07:46:00Z</time>
      </trkpt>
      <trkpt lat="47.24255" lon="-1.55883">
        <ele>53</ele>
        <time>2022-05-03T07:46:01Z</time>
      </trkpt>
      <trkpt lat="47.24255" lon="-1.55886">
        <ele>53</ele>
        <time>2022-05-03T07:46:02Z</time>
      </trkpt>
      <trkpt lat="47.24255" lon="-1.55888">
        <ele>52</ele>
        <time>2022-05-03T07:46:03Z</time>
      </trkpt>
      <trkpt lat="47.24255" lon="-1.55891">
        <ele>52</ele>
        <time>2022-05-03T07:46:04Z</time>
      </trkpt>
      <trkpt lat="47.24254" lon="-1.55893">
        <ele>52</ele>
        <time>2022-05-03T07:46:05Z</time>
      </trkpt>
      <trkpt lat="47.24254" lon="-1.55896">
        <ele>52</ele>
        <time>2022-05-03T07:46:06Z</time>
      </trkpt>
      <trkpt lat="47.24255" lon="-1.55898">
        <ele>52</ele>
        <time>2022-05-03T07:46:07Z</time>
      </trkpt>
      <trkpt lat="47.24255" lon="-1.559">
        <ele>53</ele>
        <time>2022-05-03T07:46:08Z</time>
      </trkpt>
      <trkpt lat="47.24255" lon="-1.55902">
        <ele>53</ele>
        <time>2022-05-03T07:46:09Z</time>
      </trkpt>
      <trkpt lat="47.24255" lon="-1.55904">
        <ele>53</ele>
        <time>2022-05-03T07:46:10Z</time>
      </trkpt>
      <trkpt lat="47.24255" lon="-1.55906">
        <ele>53</ele>
        <time>2022-05-03T07:46:11Z</time>
      </trkpt>
      <trkpt lat="47.24254" lon="-1.55908">
        <ele>52</ele>
        <time>2022-05-03T07:46:12Z</time>
      </trkpt>
      <trkpt lat="47.24254" lon="-1.5591">
        <ele>52</ele>
        <time>2022-05-03T07:46:13Z</time>
      </trkpt>
      <trkpt lat="47.24254" lon="-1.55912">
        <ele>52</ele>
        <time>2022-05-03T07:46:14Z</time>
      </trkpt>
      <trkpt lat="47.24254" lon="-1.55914">
        <ele>52</ele>
        <time>2022-05-03T07:46:15Z</time>
      </trkpt>
      <trkpt lat="47.24255" lon="-1.55917">
        <ele>52</ele>
        <time>2022-05-03T07:46:16Z</time>
      </trkpt>
      <trkpt lat="47.24255" lon="-1.55919">
        <ele>52</ele>
        <time>2022-05-03T07:46:17Z</time>
      </trkpt>
      <trkpt lat="47.24255" lon="-1.55921">
        <ele>52</ele>
        <time>2022-05-03T07:46:18Z</time>
      </trkpt>
      <trkpt lat="47.24256" lon="-1.55923">
        <ele>52</ele>
        <time>2022-05-03T07:46:19Z</time>
      </trkpt>
      <trkpt lat="47.24256" lon="-1.55925">
        <ele>52</ele>
        <time>2022-05-03T07:46:20Z</time>
      </trkpt>
      <trkpt lat="47.24257" lon="-1.55927">
        <ele>53</ele>
        <time>2022-05-03T07:46:21Z</time>
      </trkpt>
      <trkpt lat="47.24257" lon="-1.55929">
        <ele>53</ele>
        <time>2022-05-03T07:46:22Z</time>
      </trkpt>
      <trkpt lat="47.24258" lon="-1.55931">
        <ele>53</ele>
        <time>2022-05-03T07:46:23Z</time>
      </trkpt>
      <trkpt lat="47.24258" lon="-1.55933">
        <ele>53</ele>
        <time>2022-05-03T07:46:24Z</time>
      </trkpt>
      <trkpt lat="47.24258" lon="-1.55934">
        <ele>52</ele>
        <time>2022-05-03T07:46:25Z</time>
      </trkpt>
      <trkpt lat="47.24258" lon="-1.55936">
        <ele>52</ele>
        <time>2022-05-03T07:46:26Z</time>
      </trkpt>
      <trkpt lat="47.24258" lon="-1.55938">
        <ele>51</ele>
        <time>2022-05-03T07:46:27Z</time>
      </trkpt>
      <trkpt lat="47.24258" lon="-1.55939">
        <ele>52</ele>
        <time>2022-05-03T07:46:28Z</time>
      </trkpt>
      <trkpt lat="47.24258" lon="-1.55941">
        <ele>51</ele>
        <time>2022-05-03T07:46:29Z</time>
      </trkpt>
      <trkpt lat="47.24258" lon="-1.55942">
        <ele>52</ele>
        <time>2022-05-03T07:46:30Z</time>
      </trkpt>
      <trkpt lat="47.24258" lon="-1.55942">
        <ele>52</ele>
        <time>2022-05-03T07:46:31Z</time>
      </trkpt>
      <trkpt lat="47.24258" lon="-1.55942">
        <ele>52</ele>
        <time>2022-05-03T07:46:32Z</time>
      </trkpt>
      <trkpt lat="47.24259" lon="-1.55946">
        <ele>51</ele>
        <time>2022-05-03T07:46:33Z</time>
      </trkpt>
      <trkpt lat="47.24259" lon="-1.55949">
        <ele>51</ele>
        <time>2022-05-03T07:46:34Z</time>
      </trkpt>
      <trkpt lat="47.24259" lon="-1.5595">
        <ele>51</ele>
        <time>2022-05-03T07:46:35Z</time>
      </trkpt>
      <trkpt lat="47.24259" lon="-1.55952">
        <ele>50</ele>
        <time>2022-05-03T07:46:36Z</time>
      </trkpt>
      <trkpt lat="47.24259" lon="-1.55954">
        <ele>50</ele>
        <time>2022-05-03T07:46:37Z</time>
      </trkpt>
      <trkpt lat="47.24259" lon="-1.55956">
        <ele>50</ele>
        <time>2022-05-03T07:46:38Z</time>
      </trkpt>
      <trkpt lat="47.2426" lon="-1.55958">
        <ele>51</ele>
        <time>2022-05-03T07:46:39Z</time>
      </trkpt>
      <trkpt lat="47.2426" lon="-1.5596">
        <ele>51</ele>
        <time>2022-05-03T07:46:40Z</time>
      </trkpt>
      <trkpt lat="47.24261" lon="-1.55962">
        <ele>52</ele>
        <time>2022-05-03T07:46:41Z</time>
      </trkpt>
      <trkpt lat="47.24261" lon="-1.55962">
        <ele>52</ele>
        <time>2022-05-03T07:46:42Z</time>
      </trkpt>
      <trkpt lat="47.24261" lon="-1.55962">
        <ele>52</ele>
        <time>2022-05-03T07:46:43Z</time>
      </trkpt>
      <trkpt lat="47.24262" lon="-1.55967">
        <ele>52</ele>
        <time>2022-05-03T07:46:44Z</time>
      </trkpt>
      <trkpt lat="47.24262" lon="-1.55969">
        <ele>52</ele>
        <time>2022-05-03T07:46:45Z</time>
      </trkpt>
      <trkpt lat="47.24262" lon="-1.55972">
        <ele>52</ele>
        <time>2022-05-03T07:46:46Z</time>
      </trkpt>
      <trkpt lat="47.24262" lon="-1.55974">
        <ele>52</ele>
        <time>2022-05-03T07:46:47Z</time>
      </trkpt>
      <trkpt lat="47.24262" lon="-1.55976">
        <ele>51</ele>
        <time>2022-05-03T07:46:48Z</time>
      </trkpt>
      <trkpt lat="47.24262" lon="-1.55976">
        <ele>51</ele>
        <time>2022-05-03T07:46:49Z</time>
      </trkpt>
      <trkpt lat="47.24262" lon="-1.55976">
        <ele>51</ele>
        <time>2022-05-03T07:46:50Z</time>
      </trkpt>
      <trkpt lat="47.24263" lon="-1.5598">
        <ele>52</ele>
        <time>2022-05-03T07:46:51Z</time>
      </trkpt>
      <trkpt lat="47.24263" lon="-1.55982">
        <ele>51</ele>
        <time>2022-05-03T07:46:52Z</time>
      </trkpt>
      <trkpt lat="47.24263" lon="-1.55984">
        <ele>51</ele>
        <time>2022-05-03T07:46:53Z</time>
      </trkpt>
      <trkpt lat="47.24263" lon="-1.55986">
        <ele>52</ele>
        <time>2022-05-03T07:46:54Z</time>
      </trkpt>
      <trkpt lat="47.24263" lon="-1.55986">
        <ele>52</ele>
        <time>2022-05-03T07:46:55Z</time>
      </trkpt>
      <trkpt lat="47.24263" lon="-1.55986">
        <ele>52</ele>
        <time>2022-05-03T07:46:56Z</time>
      </trkpt>
      <trkpt lat="47.24264" lon="-1.55989">
        <ele>53</ele>
        <time>2022-05-03T07:46:57Z</time>
      </trkpt>
      <trkpt lat="47.24264" lon="-1.55991">
        <ele>53</ele>
        <time>2022-05-03T07:46:58Z</time>
      </trkpt>
      <trkpt lat="47.24265" lon="-1.55993">
        <ele>53</ele>
        <time>2022-05-03T07:46:59Z</time>
      </trkpt>
      <trkpt lat="47.24265" lon="-1.55994">
        <ele>53</ele>
        <time>2022-05-03T07:47:00Z</time>
      </trkpt>
      <trkpt lat="47.24265" lon="-1.55994">
        <ele>53</ele>
        <time>2022-05-03T07:47:01Z</time>
      </trkpt>
      <trkpt lat="47.24265" lon="-1.55994">
        <ele>53</ele>
        <time>2022-05-03T07:47:02Z</time>
      </trkpt>
      <trkpt lat="47.24266" lon="-1.55998">
        <ele>54</ele>
        <time>2022-05-03T07:47:03Z</time>
      </trkpt>
      <trkpt lat="47.24266" lon="-1.56">
        <ele>54</ele>
        <time>2022-05-03T07:47:04Z</time>
      </trkpt>
      <trkpt lat="47.24267" lon="-1.56002">
        <ele>54</ele>
        <time>2022-05-03T07:47:05Z</time>
      </trkpt>
      <trkpt lat="47.24268" lon="-1.56003">
        <ele>55</ele>
        <time>2022-05-03T07:47:06Z</time>
      </trkpt>
      <trkpt lat="47.24268" lon="-1.56005">
        <ele>54</ele>
        <time>2022-05-03T07:47:07Z</time>
      </trkpt>
      <trkpt lat="47.24268" lon="-1.56007">
        <ele>54</ele>
        <time>2022-05-03T07:47:08Z</time>
      </trkpt>
      <trkpt lat="47.2427" lon="-1.56009">
        <ele>54</ele>
        <time>2022-05-03T07:47:09Z</time>
      </trkpt>
      <trkpt lat="47.2427" lon="-1.56011">
        <ele>54</ele>
        <time>2022-05-03T07:47:10Z</time>
      </trkpt>
      <trkpt lat="47.24271" lon="-1.56012">
        <ele>54</ele>
        <time>2022-05-03T07:47:11Z</time>
      </trkpt>
      <trkpt lat="47.24271" lon="-1.56014">
        <ele>55</ele>
        <time>2022-05-03T07:47:12Z</time>
      </trkpt>
      <trkpt lat="47.24272" lon="-1.56016">
        <ele>56</ele>
        <time>2022-05-03T07:47:13Z</time>
      </trkpt>
      <trkpt lat="47.24272" lon="-1.56018">
        <ele>56</ele>
        <time>2022-05-03T07:47:14Z</time>
      </trkpt>
      <trkpt lat="47.24272" lon="-1.56019">
        <ele>57</ele>
        <time>2022-05-03T07:47:15Z</time>
      </trkpt>
      <trkpt lat="47.24272" lon="-1.56021">
        <ele>57</ele>
        <time>2022-05-03T07:47:16Z</time>
      </trkpt>
      <trkpt lat="47.24272" lon="-1.56024">
        <ele>56</ele>
        <time>2022-05-03T07:47:17Z</time>
      </trkpt>
      <trkpt lat="47.24271" lon="-1.56026">
        <ele>56</ele>
        <time>2022-05-03T07:47:18Z</time>
      </trkpt>
      <trkpt lat="47.2427" lon="-1.56028">
        <ele>56</ele>
        <time>2022-05-03T07:47:19Z</time>
      </trkpt>
      <trkpt lat="47.24269" lon="-1.5603">
        <ele>56</ele>
        <time>2022-05-03T07:47:20Z</time>
      </trkpt>
      <trkpt lat="47.24268" lon="-1.56032">
        <ele>56</ele>
        <time>2022-05-03T07:47:21Z</time>
      </trkpt>
      <trkpt lat="47.24268" lon="-1.56033">
        <ele>56</ele>
        <time>2022-05-03T07:47:22Z</time>
      </trkpt>
      <trkpt lat="47.24268" lon="-1.56034">
        <ele>57</ele>
        <time>2022-05-03T07:47:23Z</time>
      </trkpt>
      <trkpt lat="47.24267" lon="-1.56035">
        <ele>57</ele>
        <time>2022-05-03T07:47:24Z</time>
      </trkpt>
      <trkpt lat="47.24267" lon="-1.56036">
        <ele>58</ele>
        <time>2022-05-03T07:47:25Z</time>
      </trkpt>
      <trkpt lat="47.24268" lon="-1.56038">
        <ele>58</ele>
        <time>2022-05-03T07:47:26Z</time>
      </trkpt>
      <trkpt lat="47.24268" lon="-1.56039">
        <ele>58</ele>
        <time>2022-05-03T07:47:27Z</time>
      </trkpt>
      <trkpt lat="47.24268" lon="-1.5604">
        <ele>58</ele>
        <time>2022-05-03T07:47:28Z</time>
      </trkpt>
      <trkpt lat="47.24268" lon="-1.56042">
        <ele>58</ele>
        <time>2022-05-03T07:47:29Z</time>
      </trkpt>
      <trkpt lat="47.24268" lon="-1.56043">
        <ele>59</ele>
        <time>2022-05-03T07:47:30Z</time>
      </trkpt>
      <trkpt lat="47.24269" lon="-1.56044">
        <ele>59</ele>
        <time>2022-05-03T07:47:31Z</time>
      </trkpt>
      <trkpt lat="47.24269" lon="-1.56045">
        <ele>59</ele>
        <time>2022-05-03T07:47:32Z</time>
      </trkpt>
      <trkpt lat="47.2427" lon="-1.56046">
        <ele>60</ele>
        <time>2022-05-03T07:47:33Z</time>
      </trkpt>
      <trkpt lat="47.2427" lon="-1.56048">
        <ele>60</ele>
        <time>2022-05-03T07:47:34Z</time>
      </trkpt>
      <trkpt lat="47.24271" lon="-1.5605">
        <ele>60</ele>
        <time>2022-05-03T07:47:35Z</time>
      </trkpt>
      <trkpt lat="47.24271" lon="-1.56051">
        <ele>60</ele>
        <time>2022-05-03T07:47:36Z</time>
      </trkpt>
      <trkpt lat="47.24272" lon="-1.56052">
        <ele>60</ele>
        <time>2022-05-03T07:47:37Z</time>
      </trkpt>
      <trkpt lat="47.24272" lon="-1.56054">
        <ele>60</ele>
        <time>2022-05-03T07:47:38Z</time>
      </trkpt>
      <trkpt lat="47.24273" lon="-1.56056">
        <ele>60</ele>
        <time>2022-05-03T07:47:39Z</time>
      </trkpt>
      <trkpt lat="47.24273" lon="-1.56057">
        <ele>60</ele>
        <time>2022-05-03T07:47:40Z</time>
      </trkpt>
      <trkpt lat="47.24274" lon="-1.56059">
        <ele>61</ele>
        <time>2022-05-03T07:47:41Z</time>
      </trkpt>
      <trkpt lat="47.24274" lon="-1.56061">
        <ele>61</ele>
        <time>2022-05-03T07:47:42Z</time>
      </trkpt>
      <trkpt lat="47.24274" lon="-1.56062">
        <ele>61</ele>
        <time>2022-05-03T07:47:43Z</time>
      </trkpt>
      <trkpt lat="47.24274" lon="-1.56064">
        <ele>61</ele>
        <time>2022-05-03T07:47:44Z</time>
      </trkpt>
      <trkpt lat="47.24275" lon="-1.56066">
        <ele>61</ele>
        <time>2022-05-03T07:47:45Z</time>
      </trkpt>
      <trkpt lat="47.24276" lon="-1.56067">
        <ele>61</ele>
        <time>2022-05-03T07:47:46Z</time>
      </trkpt>
      <trkpt lat="47.24276" lon="-1.56069">
        <ele>62</ele>
        <time>2022-05-03T07:47:47Z</time>
      </trkpt>
      <trkpt lat="47.24277" lon="-1.5607">
        <ele>62</ele>
        <time>2022-05-03T07:47:48Z</time>
      </trkpt>
      <trkpt lat="47.24277" lon="-1.56072">
        <ele>62</ele>
        <time>2022-05-03T07:47:49Z</time>
      </trkpt>
      <trkpt lat="47.24278" lon="-1.56073">
        <ele>62</ele>
        <time>2022-05-03T07:47:50Z</time>
      </trkpt>
      <trkpt lat="47.24279" lon="-1.56075">
        <ele>61</ele>
        <time>2022-05-03T07:47:51Z</time>
      </trkpt>
      <trkpt lat="47.24279" lon="-1.56076">
        <ele>62</ele>
        <time>2022-05-03T07:47:52Z</time>
      </trkpt>
      <trkpt lat="47.2428" lon="-1.56077">
        <ele>62</ele>
        <time>2022-05-03T07:47:53Z</time>
      </trkpt>
      <trkpt lat="47.24281" lon="-1.56078">
        <ele>63</ele>
        <time>2022-05-03T07:47:54Z</time>
      </trkpt>
      <trkpt lat="47.24281" lon="-1.5608">
        <ele>63</ele>
        <time>2022-05-03T07:47:55Z</time>
      </trkpt>
      <trkpt lat="47.24282" lon="-1.56081">
        <ele>63</ele>
        <time>2022-05-03T07:47:56Z</time>
      </trkpt>
      <trkpt lat="47.24283" lon="-1.56083">
        <ele>64</ele>
        <time>2022-05-03T07:47:57Z</time>
      </trkpt>
      <trkpt lat="47.24284" lon="-1.56085">
        <ele>64</ele>
        <time>2022-05-03T07:47:58Z</time>
      </trkpt>
      <trkpt lat="47.24284" lon="-1.56086">
        <ele>64</ele>
        <time>2022-05-03T07:47:59Z</time>
      </trkpt>
      <trkpt lat="47.24285" lon="-1.56087">
        <ele>64</ele>
        <time>2022-05-03T07:48:00Z</time>
      </trkpt>
      <trkpt lat="47.24286" lon="-1.56089">
        <ele>64</ele>
        <time>2022-05-03T07:48:01Z</time>
      </trkpt>
      <trkpt lat="47.24287" lon="-1.5609">
        <ele>63</ele>
        <time>2022-05-03T07:48:02Z</time>
      </trkpt>
      <trkpt lat="47.24288" lon="-1.56091">
        <ele>63</ele>
        <time>2022-05-03T07:48:03Z</time>
      </trkpt>
      <trkpt lat="47.24289" lon="-1.56092">
        <ele>63</ele>
        <time>2022-05-03T07:48:04Z</time>
      </trkpt>
      <trkpt lat="47.2429" lon="-1.56094">
        <ele>63</ele>
        <time>2022-05-03T07:48:05Z</time>
      </trkpt>
      <trkpt lat="47.24291" lon="-1.56095">
        <ele>64</ele>
        <time>2022-05-03T07:48:06Z</time>
      </trkpt>
      <trkpt lat="47.24292" lon="-1.56097">
        <ele>64</ele>
        <time>2022-05-03T07:48:07Z</time>
      </trkpt>
      <trkpt lat="47.24293" lon="-1.56098">
        <ele>64</ele>
        <time>2022-05-03T07:48:08Z</time>
      </trkpt>
      <trkpt lat="47.24294" lon="-1.561">
        <ele>64</ele>
        <time>2022-05-03T07:48:09Z</time>
      </trkpt>
      <trkpt lat="47.24295" lon="-1.56101">
        <ele>64</ele>
        <time>2022-05-03T07:48:10Z</time>
      </trkpt>
      <trkpt lat="47.24297" lon="-1.56103">
        <ele>64</ele>
        <time>2022-05-03T07:48:11Z</time>
      </trkpt>
      <trkpt lat="47.24297" lon="-1.56105">
        <ele>64</ele>
        <time>2022-05-03T07:48:12Z</time>
      </trkpt>
      <trkpt lat="47.24299" lon="-1.56106">
        <ele>63</ele>
        <time>2022-05-03T07:48:13Z</time>
      </trkpt>
      <trkpt lat="47.24299" lon="-1.56108">
        <ele>63</ele>
        <time>2022-05-03T07:48:14Z</time>
      </trkpt>
      <trkpt lat="47.243" lon="-1.56109">
        <ele>63</ele>
        <time>2022-05-03T07:48:15Z</time>
      </trkpt>
      <trkpt lat="47.243" lon="-1.5611">
        <ele>64</ele>
        <time>2022-05-03T07:48:16Z</time>
      </trkpt>
      <trkpt lat="47.24301" lon="-1.56112">
        <ele>63</ele>
        <time>2022-05-03T07:48:17Z</time>
      </trkpt>
      <trkpt lat="47.24302" lon="-1.56113">
        <ele>63</ele>
        <time>2022-05-03T07:48:18Z</time>
      </trkpt>
      <trkpt lat="47.24303" lon="-1.56115">
        <ele>63</ele>
        <time>2022-05-03T07:48:19Z</time>
      </trkpt>
      <trkpt lat="47.24304" lon="-1.56116">
        <ele>62</ele>
        <time>2022-05-03T07:48:20Z</time>
      </trkpt>
      <trkpt lat="47.24305" lon="-1.56117">
        <ele>63</ele>
        <time>2022-05-03T07:48:21Z</time>
      </trkpt>
      <trkpt lat="47.24307" lon="-1.56119">
        <ele>62</ele>
        <time>2022-05-03T07:48:22Z</time>
      </trkpt>
      <trkpt lat="47.24307" lon="-1.5612">
        <ele>62</ele>
        <time>2022-05-03T07:48:23Z</time>
      </trkpt>
      <trkpt lat="47.24308" lon="-1.56122">
        <ele>61</ele>
        <time>2022-05-03T07:48:24Z</time>
      </trkpt>
      <trkpt lat="47.24309" lon="-1.56123">
        <ele>60</ele>
        <time>2022-05-03T07:48:25Z</time>
      </trkpt>
      <trkpt lat="47.2431" lon="-1.56123">
        <ele>61</ele>
        <time>2022-05-03T07:48:26Z</time>
      </trkpt>
      <trkpt lat="47.24311" lon="-1.56124">
        <ele>61</ele>
        <time>2022-05-03T07:48:27Z</time>
      </trkpt>
      <trkpt lat="47.24311" lon="-1.56125">
        <ele>60</ele>
        <time>2022-05-03T07:48:28Z</time>
      </trkpt>
      <trkpt lat="47.24313" lon="-1.56126">
        <ele>60</ele>
        <time>2022-05-03T07:48:29Z</time>
      </trkpt>
      <trkpt lat="47.24313" lon="-1.56128">
        <ele>60</ele>
        <time>2022-05-03T07:48:30Z</time>
      </trkpt>
      <trkpt lat="47.24314" lon="-1.56129">
        <ele>60</ele>
        <time>2022-05-03T07:48:31Z</time>
      </trkpt>
      <trkpt lat="47.24315" lon="-1.5613">
        <ele>60</ele>
        <time>2022-05-03T07:48:32Z</time>
      </trkpt>
      <trkpt lat="47.24316" lon="-1.56131">
        <ele>59</ele>
        <time>2022-05-03T07:48:33Z</time>
      </trkpt>
      <trkpt lat="47.24318" lon="-1.56133">
        <ele>59</ele>
        <time>2022-05-03T07:48:34Z</time>
      </trkpt>
      <trkpt lat="47.24319" lon="-1.56134">
        <ele>59</ele>
        <time>2022-05-03T07:48:35Z</time>
      </trkpt>
      <trkpt lat="47.2432" lon="-1.56136">
        <ele>59</ele>
        <time>2022-05-03T07:48:36Z</time>
      </trkpt>
      <trkpt lat="47.24321" lon="-1.56137">
        <ele>59</ele>
        <time>2022-05-03T07:48:37Z</time>
      </trkpt>
      <trkpt lat="47.24323" lon="-1.56138">
        <ele>59</ele>
        <time>2022-05-03T07:48:38Z</time>
      </trkpt>
      <trkpt lat="47.24323" lon="-1.56139">
        <ele>59</ele>
        <time>2022-05-03T07:48:39Z</time>
      </trkpt>
      <trkpt lat="47.24324" lon="-1.56141">
        <ele>59</ele>
        <time>2022-05-03T07:48:40Z</time>
      </trkpt>
      <trkpt lat="47.24326" lon="-1.56142">
        <ele>59</ele>
        <time>2022-05-03T07:48:41Z</time>
      </trkpt>
      <trkpt lat="47.24327" lon="-1.56144">
        <ele>59</ele>
        <time>2022-05-03T07:48:42Z</time>
      </trkpt>
      <trkpt lat="47.24328" lon="-1.56146">
        <ele>58</ele>
        <time>2022-05-03T07:48:43Z</time>
      </trkpt>
      <trkpt lat="47.24329" lon="-1.56147">
        <ele>59</ele>
        <time>2022-05-03T07:48:44Z</time>
      </trkpt>
      <trkpt lat="47.2433" lon="-1.56149">
        <ele>59</ele>
        <time>2022-05-03T07:48:45Z</time>
      </trkpt>
      <trkpt lat="47.24331" lon="-1.5615">
        <ele>59</ele>
        <time>2022-05-03T07:48:46Z</time>
      </trkpt>
      <trkpt lat="47.24332" lon="-1.5615">
        <ele>59</ele>
        <time>2022-05-03T07:48:47Z</time>
      </trkpt>
      <trkpt lat="47.24332" lon="-1.56151">
        <ele>59</ele>
        <time>2022-05-03T07:48:48Z</time>
      </trkpt>
      <trkpt lat="47.24333" lon="-1.56152">
        <ele>59</ele>
        <time>2022-05-03T07:48:49Z</time>
      </trkpt>
      <trkpt lat="47.24334" lon="-1.56153">
        <ele>58</ele>
        <time>2022-05-03T07:48:50Z</time>
      </trkpt>
      <trkpt lat="47.24335" lon="-1.56155">
        <ele>58</ele>
        <time>2022-05-03T07:48:51Z</time>
      </trkpt>
      <trkpt lat="47.24336" lon="-1.56156">
        <ele>59</ele>
        <time>2022-05-03T07:48:52Z</time>
      </trkpt>
      <trkpt lat="47.24337" lon="-1.56158">
        <ele>58</ele>
        <time>2022-05-03T07:48:53Z</time>
      </trkpt>
      <trkpt lat="47.24337" lon="-1.56159">
        <ele>59</ele>
        <time>2022-05-03T07:48:54Z</time>
      </trkpt>
      <trkpt lat="47.24339" lon="-1.5616">
        <ele>59</ele>
        <time>2022-05-03T07:48:55Z</time>
      </trkpt>
      <trkpt lat="47.2434" lon="-1.56161">
        <ele>58</ele>
        <time>2022-05-03T07:48:56Z</time>
      </trkpt>
      <trkpt lat="47.24341" lon="-1.56162">
        <ele>58</ele>
        <time>2022-05-03T07:48:57Z</time>
      </trkpt>
      <trkpt lat="47.24342" lon="-1.56164">
        <ele>57</ele>
        <time>2022-05-03T07:48:58Z</time>
      </trkpt>
      <trkpt lat="47.24342" lon="-1.56165">
        <ele>57</ele>
        <time>2022-05-03T07:48:59Z</time>
      </trkpt>
      <trkpt lat="47.24344" lon="-1.56167">
        <ele>57</ele>
        <time>2022-05-03T07:49:00Z</time>
      </trkpt>
      <trkpt lat="47.24345" lon="-1.56168">
        <ele>57</ele>
        <time>2022-05-03T07:49:01Z</time>
      </trkpt>
      <trkpt lat="47.24346" lon="-1.5617">
        <ele>57</ele>
        <time>2022-05-03T07:49:02Z</time>
      </trkpt>
      <trkpt lat="47.24347" lon="-1.56171">
        <ele>58</ele>
        <time>2022-05-03T07:49:03Z</time>
      </trkpt>
      <trkpt lat="47.24348" lon="-1.56172">
        <ele>58</ele>
        <time>2022-05-03T07:49:04Z</time>
      </trkpt>
      <trkpt lat="47.24349" lon="-1.56173">
        <ele>59</ele>
        <time>2022-05-03T07:49:05Z</time>
      </trkpt>
      <trkpt lat="47.2435" lon="-1.56175">
        <ele>59</ele>
        <time>2022-05-03T07:49:06Z</time>
      </trkpt>
      <trkpt lat="47.24352" lon="-1.56176">
        <ele>60</ele>
        <time>2022-05-03T07:49:07Z</time>
      </trkpt>
      <trkpt lat="47.24353" lon="-1.56177">
        <ele>60</ele>
        <time>2022-05-03T07:49:08Z</time>
      </trkpt>
      <trkpt lat="47.24355" lon="-1.56179">
        <ele>60</ele>
        <time>2022-05-03T07:49:09Z</time>
      </trkpt>
      <trkpt lat="47.24355" lon="-1.5618">
        <ele>60</ele>
        <time>2022-05-03T07:49:10Z</time>
      </trkpt>
      <trkpt lat="47.24356" lon="-1.56183">
        <ele>60</ele>
        <time>2022-05-03T07:49:11Z</time>
      </trkpt>
      <trkpt lat="47.24357" lon="-1.56185">
        <ele>59</ele>
        <time>2022-05-03T07:49:12Z</time>
      </trkpt>
      <trkpt lat="47.24358" lon="-1.56187">
        <ele>59</ele>
        <time>2022-05-03T07:49:13Z</time>
      </trkpt>
      <trkpt lat="47.24359" lon="-1.56188">
        <ele>59</ele>
        <time>2022-05-03T07:49:14Z</time>
      </trkpt>
      <trkpt lat="47.2436" lon="-1.5619">
        <ele>58</ele>
        <time>2022-05-03T07:49:15Z</time>
      </trkpt>
      <trkpt lat="47.2436" lon="-1.56192">
        <ele>58</ele>
        <time>2022-05-03T07:49:16Z</time>
      </trkpt>
      <trkpt lat="47.24361" lon="-1.56193">
        <ele>58</ele>
        <time>2022-05-03T07:49:17Z</time>
      </trkpt>
      <trkpt lat="47.24361" lon="-1.56195">
        <ele>58</ele>
        <time>2022-05-03T07:49:18Z</time>
      </trkpt>
      <trkpt lat="47.24362" lon="-1.56196">
        <ele>58</ele>
        <time>2022-05-03T07:49:19Z</time>
      </trkpt>
      <trkpt lat="47.24363" lon="-1.56198">
        <ele>59</ele>
        <time>2022-05-03T07:49:20Z</time>
      </trkpt>
      <trkpt lat="47.24365" lon="-1.562">
        <ele>59</ele>
        <time>2022-05-03T07:49:21Z</time>
      </trkpt>
      <trkpt lat="47.24366" lon="-1.56201">
        <ele>59</ele>
        <time>2022-05-03T07:49:22Z</time>
      </trkpt>
      <trkpt lat="47.24367" lon="-1.56203">
        <ele>59</ele>
        <time>2022-05-03T07:49:23Z</time>
      </trkpt>
      <trkpt lat="47.24368" lon="-1.56205">
        <ele>59</ele>
        <time>2022-05-03T07:49:24Z</time>
      </trkpt>
      <trkpt lat="47.24369" lon="-1.56206">
        <ele>58</ele>
        <time>2022-05-03T07:49:25Z</time>
      </trkpt>
      <trkpt lat="47.24369" lon="-1.56208">
        <ele>58</ele>
        <time>2022-05-03T07:49:26Z</time>
      </trkpt>
      <trkpt lat="47.2437" lon="-1.5621">
        <ele>58</ele>
        <time>2022-05-03T07:49:27Z</time>
      </trkpt>
      <trkpt lat="47.24371" lon="-1.56212">
        <ele>58</ele>
        <time>2022-05-03T07:49:28Z</time>
      </trkpt>
      <trkpt lat="47.24373" lon="-1.56214">
        <ele>58</ele>
        <time>2022-05-03T07:49:29Z</time>
      </trkpt>
      <trkpt lat="47.24374" lon="-1.56216">
        <ele>59</ele>
        <time>2022-05-03T07:49:30Z</time>
      </trkpt>
      <trkpt lat="47.24374" lon="-1.56218">
        <ele>59</ele>
        <time>2022-05-03T07:49:31Z</time>
      </trkpt>
      <trkpt lat="47.24375" lon="-1.56219">
        <ele>58</ele>
        <time>2022-05-03T07:49:32Z</time>
      </trkpt>
      <trkpt lat="47.24376" lon="-1.56221">
        <ele>59</ele>
        <time>2022-05-03T07:49:33Z</time>
      </trkpt>
      <trkpt lat="47.24376" lon="-1.56222">
        <ele>59</ele>
        <time>2022-05-03T07:49:34Z</time>
      </trkpt>
      <trkpt lat="47.24377" lon="-1.56223">
        <ele>58</ele>
        <time>2022-05-03T07:49:35Z</time>
      </trkpt>
      <trkpt lat="47.24378" lon="-1.56224">
        <ele>58</ele>
        <time>2022-05-03T07:49:36Z</time>
      </trkpt>
      <trkpt lat="47.24379" lon="-1.56225">
        <ele>59</ele>
        <time>2022-05-03T07:49:37Z</time>
      </trkpt>
      <trkpt lat="47.24379" lon="-1.56226">
        <ele>59</ele>
        <time>2022-05-03T07:49:38Z</time>
      </trkpt>
      <trkpt lat="47.24379" lon="-1.56228">
        <ele>59</ele>
        <time>2022-05-03T07:49:39Z</time>
      </trkpt>
      <trkpt lat="47.2438" lon="-1.5623">
        <ele>59</ele>
        <time>2022-05-03T07:49:40Z</time>
      </trkpt>
      <trkpt lat="47.2438" lon="-1.5623">
        <ele>59</ele>
        <time>2022-05-03T07:49:41Z</time>
      </trkpt>
      <trkpt lat="47.2438" lon="-1.5623">
        <ele>59</ele>
        <time>2022-05-03T07:49:42Z</time>
      </trkpt>
      <trkpt lat="47.24381" lon="-1.56235">
        <ele>58</ele>
        <time>2022-05-03T07:49:43Z</time>
      </trkpt>
      <trkpt lat="47.24381" lon="-1.56237">
        <ele>58</ele>
        <time>2022-05-03T07:49:44Z</time>
      </trkpt>
      <trkpt lat="47.24381" lon="-1.56239">
        <ele>58</ele>
        <time>2022-05-03T07:49:45Z</time>
      </trkpt>
      <trkpt lat="47.24382" lon="-1.56242">
        <ele>57</ele>
        <time>2022-05-03T07:49:46Z</time>
      </trkpt>
      <trkpt lat="47.24382" lon="-1.56242">
        <ele>57</ele>
        <time>2022-05-03T07:49:47Z</time>
      </trkpt>
      <trkpt lat="47.24382" lon="-1.56245">
        <ele>57</ele>
        <time>2022-05-03T07:49:48Z</time>
      </trkpt>
      <trkpt lat="47.24382" lon="-1.56247">
        <ele>57</ele>
        <time>2022-05-03T07:49:49Z</time>
      </trkpt>
      <trkpt lat="47.24382" lon="-1.5625">
        <ele>56</ele>
        <time>2022-05-03T07:49:50Z</time>
      </trkpt>
      <trkpt lat="47.24382" lon="-1.56252">
        <ele>56</ele>
        <time>2022-05-03T07:49:51Z</time>
      </trkpt>
      <trkpt lat="47.24382" lon="-1.56254">
        <ele>56</ele>
        <time>2022-05-03T07:49:52Z</time>
      </trkpt>
      <trkpt lat="47.24382" lon="-1.56257">
        <ele>56</ele>
        <time>2022-05-03T07:49:53Z</time>
      </trkpt>
      <trkpt lat="47.24382" lon="-1.56259">
        <ele>56</ele>
        <time>2022-05-03T07:49:54Z</time>
      </trkpt>
      <trkpt lat="47.24382" lon="-1.56261">
        <ele>56</ele>
        <time>2022-05-03T07:49:55Z</time>
      </trkpt>
      <trkpt lat="47.24382" lon="-1.56264">
        <ele>55</ele>
        <time>2022-05-03T07:49:56Z</time>
      </trkpt>
      <trkpt lat="47.24382" lon="-1.56266">
        <ele>56</ele>
        <time>2022-05-03T07:49:57Z</time>
      </trkpt>
      <trkpt lat="47.24383" lon="-1.56268">
        <ele>55</ele>
        <time>2022-05-03T07:49:58Z</time>
      </trkpt>
      <trkpt lat="47.24383" lon="-1.56271">
        <ele>55</ele>
        <time>2022-05-03T07:49:59Z</time>
      </trkpt>
      <trkpt lat="47.24383" lon="-1.56274">
        <ele>54</ele>
        <time>2022-05-03T07:50:00Z</time>
      </trkpt>
      <trkpt lat="47.24383" lon="-1.56277">
        <ele>54</ele>
        <time>2022-05-03T07:50:01Z</time>
      </trkpt>
      <trkpt lat="47.24382" lon="-1.56279">
        <ele>54</ele>
        <time>2022-05-03T07:50:02Z</time>
      </trkpt>
      <trkpt lat="47.24382" lon="-1.56282">
        <ele>54</ele>
        <time>2022-05-03T07:50:03Z</time>
      </trkpt>
      <trkpt lat="47.24383" lon="-1.56284">
        <ele>54</ele>
        <time>2022-05-03T07:50:04Z</time>
      </trkpt>
      <trkpt lat="47.24383" lon="-1.56285">
        <ele>54</ele>
        <time>2022-05-03T07:50:05Z</time>
      </trkpt>
      <trkpt lat="47.24383" lon="-1.56286">
        <ele>55</ele>
        <time>2022-05-03T07:50:06Z</time>
      </trkpt>
      <trkpt lat="47.24383" lon="-1.56288">
        <ele>55</ele>
        <time>2022-05-03T07:50:07Z</time>
      </trkpt>
      <trkpt lat="47.24383" lon="-1.5629">
        <ele>55</ele>
        <time>2022-05-03T07:50:08Z</time>
      </trkpt>
      <trkpt lat="47.24382" lon="-1.56291">
        <ele>55</ele>
        <time>2022-05-03T07:50:09Z</time>
      </trkpt>
      <trkpt lat="47.24382" lon="-1.56292">
        <ele>55</ele>
        <time>2022-05-03T07:50:10Z</time>
      </trkpt>
      <trkpt lat="47.24382" lon="-1.56294">
        <ele>55</ele>
        <time>2022-05-03T07:50:11Z</time>
      </trkpt>
      <trkpt lat="47.24382" lon="-1.56296">
        <ele>56</ele>
        <time>2022-05-03T07:50:12Z</time>
      </trkpt>
      <trkpt lat="47.24381" lon="-1.56298">
        <ele>56</ele>
        <time>2022-05-03T07:50:13Z</time>
      </trkpt>
      <trkpt lat="47.24381" lon="-1.563">
        <ele>55</ele>
        <time>2022-05-03T07:50:14Z</time>
      </trkpt>
      <trkpt lat="47.24381" lon="-1.56302">
        <ele>55</ele>
        <time>2022-05-03T07:50:15Z</time>
      </trkpt>
      <trkpt lat="47.24381" lon="-1.56304">
        <ele>55</ele>
        <time>2022-05-03T07:50:16Z</time>
      </trkpt>
      <trkpt lat="47.24381" lon="-1.56306">
        <ele>55</ele>
        <time>2022-05-03T07:50:17Z</time>
      </trkpt>
      <trkpt lat="47.2438" lon="-1.56307">
        <ele>55</ele>
        <time>2022-05-03T07:50:18Z</time>
      </trkpt>
      <trkpt lat="47.24379" lon="-1.56309">
        <ele>55</ele>
        <time>2022-05-03T07:50:19Z</time>
      </trkpt>
      <trkpt lat="47.24379" lon="-1.56311">
        <ele>55</ele>
        <time>2022-05-03T07:50:20Z</time>
      </trkpt>
      <trkpt lat="47.24378" lon="-1.56313">
        <ele>55</ele>
        <time>2022-05-03T07:50:21Z</time>
      </trkpt>
      <trkpt lat="47.24378" lon="-1.56314">
        <ele>55</ele>
        <time>2022-05-03T07:50:22Z</time>
      </trkpt>
      <trkpt lat="47.24377" lon="-1.56315">
        <ele>55</ele>
        <time>2022-05-03T07:50:23Z</time>
      </trkpt>
      <trkpt lat="47.24376" lon="-1.56317">
        <ele>55</ele>
        <time>2022-05-03T07:50:24Z</time>
      </trkpt>
      <trkpt lat="47.24376" lon="-1.56318">
        <ele>54</ele>
        <time>2022-05-03T07:50:25Z</time>
      </trkpt>
      <trkpt lat="47.24376" lon="-1.5632">
        <ele>54</ele>
        <time>2022-05-03T07:50:26Z</time>
      </trkpt>
      <trkpt lat="47.24375" lon="-1.56322">
        <ele>54</ele>
        <time>2022-05-03T07:50:27Z</time>
      </trkpt>
      <trkpt lat="47.24375" lon="-1.56324">
        <ele>54</ele>
        <time>2022-05-03T07:50:28Z</time>
      </trkpt>
      <trkpt lat="47.24374" lon="-1.56326">
        <ele>55</ele>
        <time>2022-05-03T07:50:29Z</time>
      </trkpt>
      <trkpt lat="47.24374" lon="-1.56328">
        <ele>56</ele>
        <time>2022-05-03T07:50:30Z</time>
      </trkpt>
      <trkpt lat="47.24374" lon="-1.56329">
        <ele>56</ele>
        <time>2022-05-03T07:50:31Z</time>
      </trkpt>
      <trkpt lat="47.24374" lon="-1.56331">
        <ele>56</ele>
        <time>2022-05-03T07:50:32Z</time>
      </trkpt>
      <trkpt lat="47.24375" lon="-1.56333">
        <ele>57</ele>
        <time>2022-05-03T07:50:33Z</time>
      </trkpt>
      <trkpt lat="47.24374" lon="-1.56335">
        <ele>57</ele>
        <time>2022-05-03T07:50:34Z</time>
      </trkpt>
      <trkpt lat="47.24374" lon="-1.56337">
        <ele>57</ele>
        <time>2022-05-03T07:50:35Z</time>
      </trkpt>
      <trkpt lat="47.24374" lon="-1.56339">
        <ele>57</ele>
        <time>2022-05-03T07:50:36Z</time>
      </trkpt>
      <trkpt lat="47.24374" lon="-1.5634">
        <ele>58</ele>
        <time>2022-05-03T07:50:37Z</time>
      </trkpt>
      <trkpt lat="47.24373" lon="-1.56342">
        <ele>57</ele>
        <time>2022-05-03T07:50:38Z</time>
      </trkpt>
      <trkpt lat="47.24372" lon="-1.56344">
        <ele>58</ele>
        <time>2022-05-03T07:50:39Z</time>
      </trkpt>
      <trkpt lat="47.24371" lon="-1.56345">
        <ele>57</ele>
        <time>2022-05-03T07:50:40Z</time>
      </trkpt>
      <trkpt lat="47.24371" lon="-1.56347">
        <ele>57</ele>
        <time>2022-05-03T07:50:41Z</time>
      </trkpt>
      <trkpt lat="47.24371" lon="-1.56349">
        <ele>57</ele>
        <time>2022-05-03T07:50:42Z</time>
      </trkpt>
      <trkpt lat="47.2437" lon="-1.56351">
        <ele>57</ele>
        <time>2022-05-03T07:50:43Z</time>
      </trkpt>
      <trkpt lat="47.2437" lon="-1.56353">
        <ele>57</ele>
        <time>2022-05-03T07:50:44Z</time>
      </trkpt>
      <trkpt lat="47.24371" lon="-1.56354">
        <ele>57</ele>
        <time>2022-05-03T07:50:45Z</time>
      </trkpt>
      <trkpt lat="47.24371" lon="-1.56355">
        <ele>57</ele>
        <time>2022-05-03T07:50:46Z</time>
      </trkpt>
      <trkpt lat="47.24372" lon="-1.56357">
        <ele>57</ele>
        <time>2022-05-03T07:50:47Z</time>
      </trkpt>
      <trkpt lat="47.24372" lon="-1.56358">
        <ele>57</ele>
        <time>2022-05-03T07:50:48Z</time>
      </trkpt>
      <trkpt lat="47.24372" lon="-1.5636">
        <ele>58</ele>
        <time>2022-05-03T07:50:49Z</time>
      </trkpt>
      <trkpt lat="47.24372" lon="-1.56362">
        <ele>58</ele>
        <time>2022-05-03T07:50:50Z</time>
      </trkpt>
      <trkpt lat="47.24372" lon="-1.56364">
        <ele>58</ele>
        <time>2022-05-03T07:50:51Z</time>
      </trkpt>
      <trkpt lat="47.24372" lon="-1.56366">
        <ele>57</ele>
        <time>2022-05-03T07:50:52Z</time>
      </trkpt>
      <trkpt lat="47.24372" lon="-1.56368">
        <ele>58</ele>
        <time>2022-05-03T07:50:53Z</time>
      </trkpt>
      <trkpt lat="47.24372" lon="-1.5637">
        <ele>58</ele>
        <time>2022-05-03T07:50:54Z</time>
      </trkpt>
      <trkpt lat="47.24372" lon="-1.56372">
        <ele>58</ele>
        <time>2022-05-03T07:50:55Z</time>
      </trkpt>
      <trkpt lat="47.24372" lon="-1.56374">
        <ele>59</ele>
        <time>2022-05-03T07:50:56Z</time>
      </trkpt>
      <trkpt lat="47.24372" lon="-1.56376">
        <ele>59</ele>
        <time>2022-05-03T07:50:57Z</time>
      </trkpt>
      <trkpt lat="47.24373" lon="-1.56379">
        <ele>58</ele>
        <time>2022-05-03T07:50:58Z</time>
      </trkpt>
      <trkpt lat="47.24373" lon="-1.56381">
        <ele>59</ele>
        <time>2022-05-03T07:50:59Z</time>
      </trkpt>
      <trkpt lat="47.24373" lon="-1.56383">
        <ele>59</ele>
        <time>2022-05-03T07:51:00Z</time>
      </trkpt>
      <trkpt lat="47.24373" lon="-1.56384">
        <ele>59</ele>
        <time>2022-05-03T07:51:01Z</time>
      </trkpt>
      <trkpt lat="47.24373" lon="-1.56384">
        <ele>59</ele>
        <time>2022-05-03T07:51:02Z</time>
      </trkpt>
      <trkpt lat="47.24373" lon="-1.56384">
        <ele>59</ele>
        <time>2022-05-03T07:51:03Z</time>
      </trkpt>
      <trkpt lat="47.24371" lon="-1.5639">
        <ele>59</ele>
        <time>2022-05-03T07:51:04Z</time>
      </trkpt>
      <trkpt lat="47.24371" lon="-1.56392">
        <ele>58</ele>
        <time>2022-05-03T07:51:05Z</time>
      </trkpt>
      <trkpt lat="47.2437" lon="-1.56394">
        <ele>58</ele>
        <time>2022-05-03T07:51:06Z</time>
      </trkpt>
      <trkpt lat="47.2437" lon="-1.56396">
        <ele>57</ele>
        <time>2022-05-03T07:51:07Z</time>
      </trkpt>
      <trkpt lat="47.2437" lon="-1.56397">
        <ele>58</ele>
        <time>2022-05-03T07:51:08Z</time>
      </trkpt>
      <trkpt lat="47.2437" lon="-1.56399">
        <ele>58</ele>
        <time>2022-05-03T07:51:09Z</time>
      </trkpt>
      <trkpt lat="47.2437" lon="-1.564">
        <ele>59</ele>
        <time>2022-05-03T07:51:10Z</time>
      </trkpt>
      <trkpt lat="47.2437" lon="-1.56402">
        <ele>59</ele>
        <time>2022-05-03T07:51:11Z</time>
      </trkpt>
      <trkpt lat="47.2437" lon="-1.56403">
        <ele>59</ele>
        <time>2022-05-03T07:51:12Z</time>
      </trkpt>
      <trkpt lat="47.2437" lon="-1.56403">
        <ele>59</ele>
        <time>2022-05-03T07:51:13Z</time>
      </trkpt>
      <trkpt lat="47.2437" lon="-1.56403">
        <ele>59</ele>
        <time>2022-05-03T07:51:14Z</time>
      </trkpt>
      <trkpt lat="47.24369" lon="-1.56409">
        <ele>58</ele>
        <time>2022-05-03T07:51:15Z</time>
      </trkpt>
      <trkpt lat="47.24369" lon="-1.56411">
        <ele>58</ele>
        <time>2022-05-03T07:51:16Z</time>
      </trkpt>
      <trkpt lat="47.24369" lon="-1.56412">
        <ele>58</ele>
        <time>2022-05-03T07:51:17Z</time>
      </trkpt>
      <trkpt lat="47.24368" lon="-1.56414">
        <ele>58</ele>
        <time>2022-05-03T07:51:18Z</time>
      </trkpt>
      <trkpt lat="47.24368" lon="-1.56416">
        <ele>58</ele>
        <time>2022-05-03T07:51:19Z</time>
      </trkpt>
      <trkpt lat="47.24368" lon="-1.56418">
        <ele>58</ele>
        <time>2022-05-03T07:51:20Z</time>
      </trkpt>
      <trkpt lat="47.24367" lon="-1.56419">
        <ele>58</ele>
        <time>2022-05-03T07:51:21Z</time>
      </trkpt>
      <trkpt lat="47.24367" lon="-1.5642">
        <ele>58</ele>
        <time>2022-05-03T07:51:22Z</time>
      </trkpt>
      <trkpt lat="47.24366" lon="-1.56422">
        <ele>58</ele>
        <time>2022-05-03T07:51:23Z</time>
      </trkpt>
      <trkpt lat="47.24366" lon="-1.56424">
        <ele>58</ele>
        <time>2022-05-03T07:51:24Z</time>
      </trkpt>
      <trkpt lat="47.24366" lon="-1.56425">
        <ele>58</ele>
        <time>2022-05-03T07:51:25Z</time>
      </trkpt>
      <trkpt lat="47.24366" lon="-1.56426">
        <ele>58</ele>
        <time>2022-05-03T07:51:26Z</time>
      </trkpt>
      <trkpt lat="47.24365" lon="-1.56428">
        <ele>58</ele>
        <time>2022-05-03T07:51:27Z</time>
      </trkpt>
      <trkpt lat="47.24364" lon="-1.5643">
        <ele>58</ele>
        <time>2022-05-03T07:51:28Z</time>
      </trkpt>
      <trkpt lat="47.24364" lon="-1.56432">
        <ele>59</ele>
        <time>2022-05-03T07:51:29Z</time>
      </trkpt>
      <trkpt lat="47.24364" lon="-1.56433">
        <ele>58</ele>
        <time>2022-05-03T07:51:30Z</time>
      </trkpt>
      <trkpt lat="47.24363" lon="-1.56435">
        <ele>58</ele>
        <time>2022-05-03T07:51:31Z</time>
      </trkpt>
      <trkpt lat="47.24363" lon="-1.56436">
        <ele>58</ele>
        <time>2022-05-03T07:51:32Z</time>
      </trkpt>
      <trkpt lat="47.24363" lon="-1.56438">
        <ele>58</ele>
        <time>2022-05-03T07:51:33Z</time>
      </trkpt>
      <trkpt lat="47.24362" lon="-1.56439">
        <ele>58</ele>
        <time>2022-05-03T07:51:34Z</time>
      </trkpt>
      <trkpt lat="47.24361" lon="-1.5644">
        <ele>58</ele>
        <time>2022-05-03T07:51:35Z</time>
      </trkpt>
      <trkpt lat="47.24361" lon="-1.56441">
        <ele>58</ele>
        <time>2022-05-03T07:51:36Z</time>
      </trkpt>
      <trkpt lat="47.24361" lon="-1.56442">
        <ele>58</ele>
        <time>2022-05-03T07:51:37Z</time>
      </trkpt>
      <trkpt lat="47.24361" lon="-1.56442">
        <ele>58</ele>
        <time>2022-05-03T07:51:38Z</time>
      </trkpt>
      <trkpt lat="47.24361" lon="-1.56442">
        <ele>58</ele>
        <time>2022-05-03T07:51:39Z</time>
      </trkpt>
      <trkpt lat="47.2436" lon="-1.56447">
        <ele>58</ele>
        <time>2022-05-03T07:51:40Z</time>
      </trkpt>
      <trkpt lat="47.2436" lon="-1.56448">
        <ele>59</ele>
        <time>2022-05-03T07:51:41Z</time>
      </trkpt>
      <trkpt lat="47.2436" lon="-1.56449">
        <ele>59</ele>
        <time>2022-05-03T07:51:42Z</time>
      </trkpt>
      <trkpt lat="47.2436" lon="-1.5645">
        <ele>60</ele>
        <time>2022-05-03T07:51:43Z</time>
      </trkpt>
      <trkpt lat="47.2436" lon="-1.5645">
        <ele>60</ele>
        <time>2022-05-03T07:51:44Z</time>
      </trkpt>
      <trkpt lat="47.2436" lon="-1.5645">
        <ele>60</ele>
        <time>2022-05-03T07:51:45Z</time>
      </trkpt>
      <trkpt lat="47.24359" lon="-1.56455">
        <ele>59</ele>
        <time>2022-05-03T07:51:46Z</time>
      </trkpt>
      <trkpt lat="47.24359" lon="-1.56455">
        <ele>59</ele>
        <time>2022-05-03T07:51:47Z</time>
      </trkpt>
      <trkpt lat="47.24358" lon="-1.56457">
        <ele>59</ele>
        <time>2022-05-03T07:51:48Z</time>
      </trkpt>
      <trkpt lat="47.24358" lon="-1.56458">
        <ele>58</ele>
        <time>2022-05-03T07:51:49Z</time>
      </trkpt>
      <trkpt lat="47.24358" lon="-1.56459">
        <ele>57</ele>
        <time>2022-05-03T07:51:50Z</time>
      </trkpt>
      <trkpt lat="47.24357" lon="-1.56461">
        <ele>58</ele>
        <time>2022-05-03T07:51:51Z</time>
      </trkpt>
      <trkpt lat="47.24358" lon="-1.56463">
        <ele>58</ele>
        <time>2022-05-03T07:51:52Z</time>
      </trkpt>
      <trkpt lat="47.24358" lon="-1.56463">
        <ele>58</ele>
        <time>2022-05-03T07:51:53Z</time>
      </trkpt>
      <trkpt lat="47.24358" lon="-1.56463">
        <ele>58</ele>
        <time>2022-05-03T07:51:54Z</time>
      </trkpt>
      <trkpt lat="47.24359" lon="-1.56467">
        <ele>58</ele>
        <time>2022-05-03T07:51:55Z</time>
      </trkpt>
      <trkpt lat="47.24359" lon="-1.5647">
        <ele>58</ele>
        <time>2022-05-03T07:51:56Z</time>
      </trkpt>
      <trkpt lat="47.24359" lon="-1.56472">
        <ele>58</ele>
        <time>2022-05-03T07:51:57Z</time>
      </trkpt>
      <trkpt lat="47.2436" lon="-1.56474">
        <ele>58</ele>
        <time>2022-05-03T07:51:58Z</time>
      </trkpt>
      <trkpt lat="47.2436" lon="-1.56474">
        <ele>58</ele>
        <time>2022-05-03T07:51:59Z</time>
      </trkpt>
      <trkpt lat="47.2436" lon="-1.56474">
        <ele>58</ele>
        <time>2022-05-03T07:52:00Z</time>
      </trkpt>
      <trkpt lat="47.24359" lon="-1.56479">
        <ele>58</ele>
        <time>2022-05-03T07:52:01Z</time>
      </trkpt>
      <trkpt lat="47.24358" lon="-1.56481">
        <ele>58</ele>
        <time>2022-05-03T07:52:02Z</time>
      </trkpt>
      <trkpt lat="47.24358" lon="-1.56483">
        <ele>57</ele>
        <time>2022-05-03T07:52:03Z</time>
      </trkpt>
      <trkpt lat="47.24357" lon="-1.56485">
        <ele>57</ele>
        <time>2022-05-03T07:52:04Z</time>
      </trkpt>
      <trkpt lat="47.24357" lon="-1.56487">
        <ele>56</ele>
        <time>2022-05-03T07:52:05Z</time>
      </trkpt>
      <trkpt lat="47.24356" lon="-1.56489">
        <ele>56</ele>
        <time>2022-05-03T07:52:06Z</time>
      </trkpt>
      <trkpt lat="47.24356" lon="-1.56491">
        <ele>56</ele>
        <time>2022-05-03T07:52:07Z</time>
      </trkpt>
      <trkpt lat="47.24355" lon="-1.56493">
        <ele>56</ele>
        <time>2022-05-03T07:52:08Z</time>
      </trkpt>
      <trkpt lat="47.24354" lon="-1.56495">
        <ele>56</ele>
        <time>2022-05-03T07:52:09Z</time>
      </trkpt>
      <trkpt lat="47.24354" lon="-1.56497">
        <ele>56</ele>
        <time>2022-05-03T07:52:10Z</time>
      </trkpt>
      <trkpt lat="47.24353" lon="-1.56499">
        <ele>55</ele>
        <time>2022-05-03T07:52:11Z</time>
      </trkpt>
      <trkpt lat="47.24353" lon="-1.56502">
        <ele>55</ele>
        <time>2022-05-03T07:52:12Z</time>
      </trkpt>
      <trkpt lat="47.24352" lon="-1.56504">
        <ele>55</ele>
        <time>2022-05-03T07:52:13Z</time>
      </trkpt>
      <trkpt lat="47.24352" lon="-1.56506">
        <ele>55</ele>
        <time>2022-05-03T07:52:14Z</time>
      </trkpt>
      <trkpt lat="47.24352" lon="-1.56509">
        <ele>55</ele>
        <time>2022-05-03T07:52:15Z</time>
      </trkpt>
      <trkpt lat="47.2435" lon="-1.56511">
        <ele>55</ele>
        <time>2022-05-03T07:52:16Z</time>
      </trkpt>
      <trkpt lat="47.2435" lon="-1.56514">
        <ele>56</ele>
        <time>2022-05-03T07:52:17Z</time>
      </trkpt>
      <trkpt lat="47.24348" lon="-1.56517">
        <ele>57</ele>
        <time>2022-05-03T07:52:18Z</time>
      </trkpt>
      <trkpt lat="47.24348" lon="-1.56518">
        <ele>57</ele>
        <time>2022-05-03T07:52:19Z</time>
      </trkpt>
      <trkpt lat="47.24347" lon="-1.5652">
        <ele>57</ele>
        <time>2022-05-03T07:52:20Z</time>
      </trkpt>
      <trkpt lat="47.24347" lon="-1.56521">
        <ele>57</ele>
        <time>2022-05-03T07:52:21Z</time>
      </trkpt>
      <trkpt lat="47.24346" lon="-1.56522">
        <ele>56</ele>
        <time>2022-05-03T07:52:22Z</time>
      </trkpt>
      <trkpt lat="47.24346" lon="-1.56523">
        <ele>56</ele>
        <time>2022-05-03T07:52:23Z</time>
      </trkpt>
      <trkpt lat="47.24346" lon="-1.56523">
        <ele>56</ele>
        <time>2022-05-03T07:52:24Z</time>
      </trkpt>
      <trkpt lat="47.24345" lon="-1.56524">
        <ele>55</ele>
        <time>2022-05-03T07:52:25Z</time>
      </trkpt>
      <trkpt lat="47.24345" lon="-1.56525">
        <ele>55</ele>
        <time>2022-05-03T07:52:26Z</time>
      </trkpt>
      <trkpt lat="47.24345" lon="-1.56525">
        <ele>55</ele>
        <time>2022-05-03T07:52:27Z</time>
      </trkpt>
      <trkpt lat="47.24344" lon="-1.56526">
        <ele>55</ele>
        <time>2022-05-03T07:52:28Z</time>
      </trkpt>
      <trkpt lat="47.24344" lon="-1.56528">
        <ele>55</ele>
        <time>2022-05-03T07:52:29Z</time>
      </trkpt>
      <trkpt lat="47.24344" lon="-1.56529">
        <ele>55</ele>
        <time>2022-05-03T07:52:30Z</time>
      </trkpt>
      <trkpt lat="47.24344" lon="-1.56531">
        <ele>55</ele>
        <time>2022-05-03T07:52:31Z</time>
      </trkpt>
      <trkpt lat="47.24344" lon="-1.56532">
        <ele>55</ele>
        <time>2022-05-03T07:52:32Z</time>
      </trkpt>
      <trkpt lat="47.24343" lon="-1.56534">
        <ele>54</ele>
        <time>2022-05-03T07:52:33Z</time>
      </trkpt>
      <trkpt lat="47.24343" lon="-1.56535">
        <ele>55</ele>
        <time>2022-05-03T07:52:34Z</time>
      </trkpt>
      <trkpt lat="47.24343" lon="-1.56536">
        <ele>55</ele>
        <time>2022-05-03T07:52:35Z</time>
      </trkpt>
      <trkpt lat="47.24342" lon="-1.56538">
        <ele>55</ele>
        <time>2022-05-03T07:52:36Z</time>
      </trkpt>
      <trkpt lat="47.24342" lon="-1.5654">
        <ele>55</ele>
        <time>2022-05-03T07:52:37Z</time>
      </trkpt>
      <trkpt lat="47.24342" lon="-1.56541">
        <ele>55</ele>
        <time>2022-05-03T07:52:38Z</time>
      </trkpt>
      <trkpt lat="47.24342" lon="-1.56543">
        <ele>55</ele>
        <time>2022-05-03T07:52:39Z</time>
      </trkpt>
      <trkpt lat="47.24342" lon="-1.56544">
        <ele>56</ele>
        <time>2022-05-03T07:52:40Z</time>
      </trkpt>
      <trkpt lat="47.24342" lon="-1.56546">
        <ele>57</ele>
        <time>2022-05-03T07:52:41Z</time>
      </trkpt>
      <trkpt lat="47.24342" lon="-1.56548">
        <ele>57</ele>
        <time>2022-05-03T07:52:42Z</time>
      </trkpt>
      <trkpt lat="47.24342" lon="-1.5655">
        <ele>58</ele>
        <time>2022-05-03T07:52:43Z</time>
      </trkpt>
      <trkpt lat="47.24342" lon="-1.56552">
        <ele>59</ele>
        <time>2022-05-03T07:52:44Z</time>
      </trkpt>
      <trkpt lat="47.24342" lon="-1.56554">
        <ele>59</ele>
        <time>2022-05-03T07:52:45Z</time>
      </trkpt>
      <trkpt lat="47.24342" lon="-1.56556">
        <ele>60</ele>
        <time>2022-05-03T07:52:46Z</time>
      </trkpt>
      <trkpt lat="47.24342" lon="-1.56558">
        <ele>60</ele>
        <time>2022-05-03T07:52:47Z</time>
      </trkpt>
      <trkpt lat="47.24342" lon="-1.56561">
        <ele>60</ele>
        <time>2022-05-03T07:52:48Z</time>
      </trkpt>
      <trkpt lat="47.24342" lon="-1.56563">
        <ele>61</ele>
        <time>2022-05-03T07:52:49Z</time>
      </trkpt>
      <trkpt lat="47.24342" lon="-1.56565">
        <ele>61</ele>
        <time>2022-05-03T07:52:50Z</time>
      </trkpt>
      <trkpt lat="47.24342" lon="-1.56567">
        <ele>61</ele>
        <time>2022-05-03T07:52:51Z</time>
      </trkpt>
      <trkpt lat="47.24342" lon="-1.56569">
        <ele>60</ele>
        <time>2022-05-03T07:52:52Z</time>
      </trkpt>
      <trkpt lat="47.24342" lon="-1.56571">
        <ele>60</ele>
        <time>2022-05-03T07:52:53Z</time>
      </trkpt>
      <trkpt lat="47.24342" lon="-1.56573">
        <ele>59</ele>
        <time>2022-05-03T07:52:54Z</time>
      </trkpt>
      <trkpt lat="47.24342" lon="-1.56575">
        <ele>59</ele>
        <time>2022-05-03T07:52:55Z</time>
      </trkpt>
      <trkpt lat="47.24341" lon="-1.56577">
        <ele>59</ele>
        <time>2022-05-03T07:52:56Z</time>
      </trkpt>
      <trkpt lat="47.24341" lon="-1.56579">
        <ele>58</ele>
        <time>2022-05-03T07:52:57Z</time>
      </trkpt>
      <trkpt lat="47.24341" lon="-1.56581">
        <ele>58</ele>
        <time>2022-05-03T07:52:58Z</time>
      </trkpt>
      <trkpt lat="47.24341" lon="-1.56581">
        <ele>58</ele>
        <time>2022-05-03T07:52:59Z</time>
      </trkpt>
      <trkpt lat="47.24342" lon="-1.56584">
        <ele>58</ele>
        <time>2022-05-03T07:53:00Z</time>
      </trkpt>
      <trkpt lat="47.24342" lon="-1.56586">
        <ele>58</ele>
        <time>2022-05-03T07:53:01Z</time>
      </trkpt>
      <trkpt lat="47.24342" lon="-1.56587">
        <ele>59</ele>
        <time>2022-05-03T07:53:02Z</time>
      </trkpt>
      <trkpt lat="47.24342" lon="-1.56589">
        <ele>59</ele>
        <time>2022-05-03T07:53:03Z</time>
      </trkpt>
      <trkpt lat="47.24342" lon="-1.56591">
        <ele>59</ele>
        <time>2022-05-03T07:53:04Z</time>
      </trkpt>
      <trkpt lat="47.24342" lon="-1.56592">
        <ele>59</ele>
        <time>2022-05-03T07:53:05Z</time>
      </trkpt>
      <trkpt lat="47.24342" lon="-1.56594">
        <ele>59</ele>
        <time>2022-05-03T07:53:06Z</time>
      </trkpt>
      <trkpt lat="47.24343" lon="-1.56596">
        <ele>59</ele>
        <time>2022-05-03T07:53:07Z</time>
      </trkpt>
      <trkpt lat="47.24343" lon="-1.56598">
        <ele>59</ele>
        <time>2022-05-03T07:53:08Z</time>
      </trkpt>
      <trkpt lat="47.24344" lon="-1.56599">
        <ele>59</ele>
        <time>2022-05-03T07:53:09Z</time>
      </trkpt>
      <trkpt lat="47.24344" lon="-1.56601">
        <ele>59</ele>
        <time>2022-05-03T07:53:10Z</time>
      </trkpt>
      <trkpt lat="47.24344" lon="-1.56603">
        <ele>58</ele>
        <time>2022-05-03T07:53:11Z</time>
      </trkpt>
      <trkpt lat="47.24344" lon="-1.56604">
        <ele>59</ele>
        <time>2022-05-03T07:53:12Z</time>
      </trkpt>
      <trkpt lat="47.24345" lon="-1.56606">
        <ele>60</ele>
        <time>2022-05-03T07:53:13Z</time>
      </trkpt>
      <trkpt lat="47.24345" lon="-1.56609">
        <ele>60</ele>
        <time>2022-05-03T07:53:14Z</time>
      </trkpt>
      <trkpt lat="47.24345" lon="-1.56611">
        <ele>60</ele>
        <time>2022-05-03T07:53:15Z</time>
      </trkpt>
      <trkpt lat="47.24345" lon="-1.56613">
        <ele>60</ele>
        <time>2022-05-03T07:53:16Z</time>
      </trkpt>
      <trkpt lat="47.24345" lon="-1.56615">
        <ele>60</ele>
        <time>2022-05-03T07:53:17Z</time>
      </trkpt>
      <trkpt lat="47.24346" lon="-1.56618">
        <ele>60</ele>
        <time>2022-05-03T07:53:18Z</time>
      </trkpt>
      <trkpt lat="47.24346" lon="-1.5662">
        <ele>60</ele>
        <time>2022-05-03T07:53:19Z</time>
      </trkpt>
      <trkpt lat="47.24346" lon="-1.56622">
        <ele>60</ele>
        <time>2022-05-03T07:53:20Z</time>
      </trkpt>
      <trkpt lat="47.24346" lon="-1.56624">
        <ele>60</ele>
        <time>2022-05-03T07:53:21Z</time>
      </trkpt>
      <trkpt lat="47.24346" lon="-1.56626">
        <ele>60</ele>
        <time>2022-05-03T07:53:22Z</time>
      </trkpt>
      <trkpt lat="47.24346" lon="-1.56628">
        <ele>59</ele>
        <time>2022-05-03T07:53:23Z</time>
      </trkpt>
      <trkpt lat="47.24346" lon="-1.5663">
        <ele>59</ele>
        <time>2022-05-03T07:53:24Z</time>
      </trkpt>
      <trkpt lat="47.24346" lon="-1.5663">
        <ele>59</ele>
        <time>2022-05-03T07:53:25Z</time>
      </trkpt>
      <trkpt lat="47.24346" lon="-1.5663">
        <ele>59</ele>
        <time>2022-05-03T07:53:26Z</time>
      </trkpt>
      <trkpt lat="47.24346" lon="-1.56634">
        <ele>59</ele>
        <time>2022-05-03T07:53:27Z</time>
      </trkpt>
      <trkpt lat="47.24346" lon="-1.56636">
        <ele>60</ele>
        <time>2022-05-03T07:53:28Z</time>
      </trkpt>
      <trkpt lat="47.24347" lon="-1.56639">
        <ele>59</ele>
        <time>2022-05-03T07:53:29Z</time>
      </trkpt>
      <trkpt lat="47.24347" lon="-1.56641">
        <ele>59</ele>
        <time>2022-05-03T07:53:30Z</time>
      </trkpt>
      <trkpt lat="47.24347" lon="-1.56643">
        <ele>60</ele>
        <time>2022-05-03T07:53:31Z</time>
      </trkpt>
      <trkpt lat="47.24347" lon="-1.56645">
        <ele>60</ele>
        <time>2022-05-03T07:53:32Z</time>
      </trkpt>
      <trkpt lat="47.24347" lon="-1.56647">
        <ele>60</ele>
        <time>2022-05-03T07:53:33Z</time>
      </trkpt>
      <trkpt lat="47.24347" lon="-1.56647">
        <ele>60</ele>
        <time>2022-05-03T07:53:34Z</time>
      </trkpt>
      <trkpt lat="47.24347" lon="-1.56647">
        <ele>60</ele>
        <time>2022-05-03T07:53:35Z</time>
      </trkpt>
      <trkpt lat="47.24348" lon="-1.56651">
        <ele>62</ele>
        <time>2022-05-03T07:53:36Z</time>
      </trkpt>
      <trkpt lat="47.24348" lon="-1.56653">
        <ele>62</ele>
        <time>2022-05-03T07:53:37Z</time>
      </trkpt>
      <trkpt lat="47.24348" lon="-1.56655">
        <ele>63</ele>
        <time>2022-05-03T07:53:38Z</time>
      </trkpt>
      <trkpt lat="47.24348" lon="-1.56656">
        <ele>64</ele>
        <time>2022-05-03T07:53:39Z</time>
      </trkpt>
      <trkpt lat="47.24348" lon="-1.56658">
        <ele>64</ele>
        <time>2022-05-03T07:53:40Z</time>
      </trkpt>
      <trkpt lat="47.24348" lon="-1.5666">
        <ele>64</ele>
        <time>2022-05-03T07:53:41Z</time>
      </trkpt>
      <trkpt lat="47.24347" lon="-1.56662">
        <ele>63</ele>
        <time>2022-05-03T07:53:42Z</time>
      </trkpt>
      <trkpt lat="47.24347" lon="-1.56664">
        <ele>63</ele>
        <time>2022-05-03T07:53:43Z</time>
      </trkpt>
      <trkpt lat="47.24347" lon="-1.56665">
        <ele>64</ele>
        <time>2022-05-03T07:53:44Z</time>
      </trkpt>
      <trkpt lat="47.24347" lon="-1.56667">
        <ele>64</ele>
        <time>2022-05-03T07:53:45Z</time>
      </trkpt>
      <trkpt lat="47.24347" lon="-1.56669">
        <ele>64</ele>
        <time>2022-05-03T07:53:46Z</time>
      </trkpt>
      <trkpt lat="47.24347" lon="-1.5667">
        <ele>64</ele>
        <time>2022-05-03T07:53:47Z</time>
      </trkpt>
      <trkpt lat="47.24347" lon="-1.56671">
        <ele>64</ele>
        <time>2022-05-03T07:53:48Z</time>
      </trkpt>
      <trkpt lat="47.24347" lon="-1.56671">
        <ele>64</ele>
        <time>2022-05-03T07:53:49Z</time>
      </trkpt>
      <trkpt lat="47.24347" lon="-1.56671">
        <ele>64</ele>
        <time>2022-05-03T07:53:50Z</time>
      </trkpt>
      <trkpt lat="47.24347" lon="-1.56676">
        <ele>65</ele>
        <time>2022-05-03T07:53:51Z</time>
      </trkpt>
      <trkpt lat="47.24348" lon="-1.56678">
        <ele>66</ele>
        <time>2022-05-03T07:53:52Z</time>
      </trkpt>
      <trkpt lat="47.24348" lon="-1.56681">
        <ele>66</ele>
        <time>2022-05-03T07:53:53Z</time>
      </trkpt>
      <trkpt lat="47.24348" lon="-1.56683">
        <ele>65</ele>
        <time>2022-05-03T07:53:54Z</time>
      </trkpt>
      <trkpt lat="47.24348" lon="-1.56685">
        <ele>65</ele>
        <time>2022-05-03T07:53:55Z</time>
      </trkpt>
      <trkpt lat="47.24349" lon="-1.56688">
        <ele>65</ele>
        <time>2022-05-03T07:53:56Z</time>
      </trkpt>
      <trkpt lat="47.24349" lon="-1.56691">
        <ele>65</ele>
        <time>2022-05-03T07:53:57Z</time>
      </trkpt>
      <trkpt lat="47.2435" lon="-1.56693">
        <ele>66</ele>
        <time>2022-05-03T07:53:58Z</time>
      </trkpt>
      <trkpt lat="47.2435" lon="-1.56696">
        <ele>66</ele>
        <time>2022-05-03T07:53:59Z</time>
      </trkpt>
      <trkpt lat="47.2435" lon="-1.56698">
        <ele>66</ele>
        <time>2022-05-03T07:54:00Z</time>
      </trkpt>
      <trkpt lat="47.2435" lon="-1.567">
        <ele>66</ele>
        <time>2022-05-03T07:54:01Z</time>
      </trkpt>
      <trkpt lat="47.2435" lon="-1.56702">
        <ele>66</ele>
        <time>2022-05-03T07:54:02Z</time>
      </trkpt>
      <trkpt lat="47.2435" lon="-1.56704">
        <ele>66</ele>
        <time>2022-05-03T07:54:03Z</time>
      </trkpt>
      <trkpt lat="47.24351" lon="-1.56706">
        <ele>66</ele>
        <time>2022-05-03T07:54:04Z</time>
      </trkpt>
      <trkpt lat="47.24351" lon="-1.56709">
        <ele>66</ele>
        <time>2022-05-03T07:54:05Z</time>
      </trkpt>
      <trkpt lat="47.24352" lon="-1.56711">
        <ele>66</ele>
        <time>2022-05-03T07:54:06Z</time>
      </trkpt>
      <trkpt lat="47.24352" lon="-1.56714">
        <ele>66</ele>
        <time>2022-05-03T07:54:07Z</time>
      </trkpt>
      <trkpt lat="47.24352" lon="-1.56716">
        <ele>66</ele>
        <time>2022-05-03T07:54:08Z</time>
      </trkpt>
      <trkpt lat="47.24352" lon="-1.56719">
        <ele>66</ele>
        <time>2022-05-03T07:54:09Z</time>
      </trkpt>
      <trkpt lat="47.24353" lon="-1.5672">
        <ele>66</ele>
        <time>2022-05-03T07:54:10Z</time>
      </trkpt>
      <trkpt lat="47.24353" lon="-1.56721">
        <ele>66</ele>
        <time>2022-05-03T07:54:11Z</time>
      </trkpt>
      <trkpt lat="47.24353" lon="-1.56723">
        <ele>66</ele>
        <time>2022-05-03T07:54:12Z</time>
      </trkpt>
      <trkpt lat="47.24353" lon="-1.56724">
        <ele>67</ele>
        <time>2022-05-03T07:54:13Z</time>
      </trkpt>
      <trkpt lat="47.24353" lon="-1.56726">
        <ele>67</ele>
        <time>2022-05-03T07:54:14Z</time>
      </trkpt>
      <trkpt lat="47.24353" lon="-1.56726">
        <ele>67</ele>
        <time>2022-05-03T07:54:15Z</time>
      </trkpt>
      <trkpt lat="47.24353" lon="-1.56726">
        <ele>67</ele>
        <time>2022-05-03T07:54:16Z</time>
      </trkpt>
      <trkpt lat="47.24354" lon="-1.5673">
        <ele>68</ele>
        <time>2022-05-03T07:54:17Z</time>
      </trkpt>
      <trkpt lat="47.24354" lon="-1.56732">
        <ele>68</ele>
        <time>2022-05-03T07:54:18Z</time>
      </trkpt>
      <trkpt lat="47.24355" lon="-1.56734">
        <ele>69</ele>
        <time>2022-05-03T07:54:19Z</time>
      </trkpt>
      <trkpt lat="47.24355" lon="-1.56737">
        <ele>68</ele>
        <time>2022-05-03T07:54:20Z</time>
      </trkpt>
      <trkpt lat="47.24355" lon="-1.5674">
        <ele>68</ele>
        <time>2022-05-03T07:54:21Z</time>
      </trkpt>
      <trkpt lat="47.24356" lon="-1.56743">
        <ele>68</ele>
        <time>2022-05-03T07:54:22Z</time>
      </trkpt>
      <trkpt lat="47.24356" lon="-1.56746">
        <ele>68</ele>
        <time>2022-05-03T07:54:23Z</time>
      </trkpt>
      <trkpt lat="47.24357" lon="-1.56748">
        <ele>68</ele>
        <time>2022-05-03T07:54:24Z</time>
      </trkpt>
      <trkpt lat="47.24357" lon="-1.56751">
        <ele>68</ele>
        <time>2022-05-03T07:54:25Z</time>
      </trkpt>
      <trkpt lat="47.24357" lon="-1.56753">
        <ele>68</ele>
        <time>2022-05-03T07:54:26Z</time>
      </trkpt>
      <trkpt lat="47.24357" lon="-1.56755">
        <ele>68</ele>
        <time>2022-05-03T07:54:27Z</time>
      </trkpt>
      <trkpt lat="47.24357" lon="-1.56757">
        <ele>68</ele>
        <time>2022-05-03T07:54:28Z</time>
      </trkpt>
      <trkpt lat="47.24358" lon="-1.5676">
        <ele>68</ele>
        <time>2022-05-03T07:54:29Z</time>
      </trkpt>
      <trkpt lat="47.24358" lon="-1.56762">
        <ele>68</ele>
        <time>2022-05-03T07:54:30Z</time>
      </trkpt>
      <trkpt lat="47.24358" lon="-1.56764">
        <ele>68</ele>
        <time>2022-05-03T07:54:31Z</time>
      </trkpt>
      <trkpt lat="47.24358" lon="-1.56767">
        <ele>68</ele>
        <time>2022-05-03T07:54:32Z</time>
      </trkpt>
      <trkpt lat="47.24358" lon="-1.56769">
        <ele>68</ele>
        <time>2022-05-03T07:54:33Z</time>
      </trkpt>
      <trkpt lat="47.24359" lon="-1.56772">
        <ele>67</ele>
        <time>2022-05-03T07:54:34Z</time>
      </trkpt>
      <trkpt lat="47.24359" lon="-1.56774">
        <ele>67</ele>
        <time>2022-05-03T07:54:35Z</time>
      </trkpt>
      <trkpt lat="47.2436" lon="-1.56776">
        <ele>67</ele>
        <time>2022-05-03T07:54:36Z</time>
      </trkpt>
      <trkpt lat="47.2436" lon="-1.56778">
        <ele>67</ele>
        <time>2022-05-03T07:54:37Z</time>
      </trkpt>
      <trkpt lat="47.24361" lon="-1.5678">
        <ele>67</ele>
        <time>2022-05-03T07:54:38Z</time>
      </trkpt>
      <trkpt lat="47.24361" lon="-1.56783">
        <ele>67</ele>
        <time>2022-05-03T07:54:39Z</time>
      </trkpt>
      <trkpt lat="47.24361" lon="-1.56785">
        <ele>67</ele>
        <time>2022-05-03T07:54:40Z</time>
      </trkpt>
      <trkpt lat="47.24362" lon="-1.56786">
        <ele>66</ele>
        <time>2022-05-03T07:54:41Z</time>
      </trkpt>
      <trkpt lat="47.24363" lon="-1.56789">
        <ele>66</ele>
        <time>2022-05-03T07:54:42Z</time>
      </trkpt>
      <trkpt lat="47.24363" lon="-1.56791">
        <ele>66</ele>
        <time>2022-05-03T07:54:43Z</time>
      </trkpt>
      <trkpt lat="47.24363" lon="-1.56792">
        <ele>66</ele>
        <time>2022-05-03T07:54:44Z</time>
      </trkpt>
      <trkpt lat="47.24364" lon="-1.56794">
        <ele>66</ele>
        <time>2022-05-03T07:54:45Z</time>
      </trkpt>
      <trkpt lat="47.24365" lon="-1.56796">
        <ele>66</ele>
        <time>2022-05-03T07:54:46Z</time>
      </trkpt>
      <trkpt lat="47.24365" lon="-1.56797">
        <ele>66</ele>
        <time>2022-05-03T07:54:47Z</time>
      </trkpt>
      <trkpt lat="47.24365" lon="-1.56799">
        <ele>66</ele>
        <time>2022-05-03T07:54:48Z</time>
      </trkpt>
      <trkpt lat="47.24366" lon="-1.568">
        <ele>66</ele>
        <time>2022-05-03T07:54:49Z</time>
      </trkpt>
      <trkpt lat="47.24366" lon="-1.56801">
        <ele>66</ele>
        <time>2022-05-03T07:54:50Z</time>
      </trkpt>
      <trkpt lat="47.24367" lon="-1.56803">
        <ele>66</ele>
        <time>2022-05-03T07:54:51Z</time>
      </trkpt>
      <trkpt lat="47.24367" lon="-1.56804">
        <ele>66</ele>
        <time>2022-05-03T07:54:52Z</time>
      </trkpt>
      <trkpt lat="47.24368" lon="-1.56806">
        <ele>66</ele>
        <time>2022-05-03T07:54:53Z</time>
      </trkpt>
      <trkpt lat="47.24368" lon="-1.56808">
        <ele>67</ele>
        <time>2022-05-03T07:54:54Z</time>
      </trkpt>
      <trkpt lat="47.24368" lon="-1.5681">
        <ele>67</ele>
        <time>2022-05-03T07:54:55Z</time>
      </trkpt>
      <trkpt lat="47.24369" lon="-1.56812">
        <ele>67</ele>
        <time>2022-05-03T07:54:56Z</time>
      </trkpt>
      <trkpt lat="47.24369" lon="-1.56813">
        <ele>67</ele>
        <time>2022-05-03T07:54:57Z</time>
      </trkpt>
      <trkpt lat="47.24369" lon="-1.56815">
        <ele>68</ele>
        <time>2022-05-03T07:54:58Z</time>
      </trkpt>
      <trkpt lat="47.2437" lon="-1.56817">
        <ele>68</ele>
        <time>2022-05-03T07:54:59Z</time>
      </trkpt>
      <trkpt lat="47.24371" lon="-1.56818">
        <ele>69</ele>
        <time>2022-05-03T07:55:00Z</time>
      </trkpt>
      <trkpt lat="47.24371" lon="-1.5682">
        <ele>68</ele>
        <time>2022-05-03T07:55:01Z</time>
      </trkpt>
      <trkpt lat="47.24372" lon="-1.56822">
        <ele>68</ele>
        <time>2022-05-03T07:55:02Z</time>
      </trkpt>
      <trkpt lat="47.24372" lon="-1.56825">
        <ele>67</ele>
        <time>2022-05-03T07:55:03Z</time>
      </trkpt>
      <trkpt lat="47.24373" lon="-1.56826">
        <ele>67</ele>
        <time>2022-05-03T07:55:04Z</time>
      </trkpt>
      <trkpt lat="47.24373" lon="-1.56828">
        <ele>68</ele>
        <time>2022-05-03T07:55:05Z</time>
      </trkpt>
      <trkpt lat="47.24373" lon="-1.5683">
        <ele>67</ele>
        <time>2022-05-03T07:55:06Z</time>
      </trkpt>
      <trkpt lat="47.24373" lon="-1.56831">
        <ele>67</ele>
        <time>2022-05-03T07:55:07Z</time>
      </trkpt>
      <trkpt lat="47.24373" lon="-1.56834">
        <ele>66</ele>
        <time>2022-05-03T07:55:08Z</time>
      </trkpt>
      <trkpt lat="47.24373" lon="-1.56836">
        <ele>66</ele>
        <time>2022-05-03T07:55:09Z</time>
      </trkpt>
      <trkpt lat="47.24372" lon="-1.56838">
        <ele>66</ele>
        <time>2022-05-03T07:55:10Z</time>
      </trkpt>
      <trkpt lat="47.24373" lon="-1.56841">
        <ele>66</ele>
        <time>2022-05-03T07:55:11Z</time>
      </trkpt>
      <trkpt lat="47.24373" lon="-1.56843">
        <ele>66</ele>
        <time>2022-05-03T07:55:12Z</time>
      </trkpt>
      <trkpt lat="47.24373" lon="-1.56845">
        <ele>66</ele>
        <time>2022-05-03T07:55:13Z</time>
      </trkpt>
      <trkpt lat="47.24374" lon="-1.56847">
        <ele>67</ele>
        <time>2022-05-03T07:55:14Z</time>
      </trkpt>
      <trkpt lat="47.24374" lon="-1.56849">
        <ele>67</ele>
        <time>2022-05-03T07:55:15Z</time>
      </trkpt>
      <trkpt lat="47.24375" lon="-1.56851">
        <ele>67</ele>
        <time>2022-05-03T07:55:16Z</time>
      </trkpt>
      <trkpt lat="47.24376" lon="-1.56853">
        <ele>67</ele>
        <time>2022-05-03T07:55:17Z</time>
      </trkpt>
      <trkpt lat="47.24376" lon="-1.56855">
        <ele>67</ele>
        <time>2022-05-03T07:55:18Z</time>
      </trkpt>
      <trkpt lat="47.24377" lon="-1.56857">
        <ele>66</ele>
        <time>2022-05-03T07:55:19Z</time>
      </trkpt>
      <trkpt lat="47.24377" lon="-1.56859">
        <ele>66</ele>
        <time>2022-05-03T07:55:20Z</time>
      </trkpt>
      <trkpt lat="47.24378" lon="-1.56861">
        <ele>65</ele>
        <time>2022-05-03T07:55:21Z</time>
      </trkpt>
      <trkpt lat="47.24378" lon="-1.56862">
        <ele>66</ele>
        <time>2022-05-03T07:55:22Z</time>
      </trkpt>
      <trkpt lat="47.24379" lon="-1.56865">
        <ele>65</ele>
        <time>2022-05-03T07:55:23Z</time>
      </trkpt>
      <trkpt lat="47.2438" lon="-1.56867">
        <ele>65</ele>
        <time>2022-05-03T07:55:24Z</time>
      </trkpt>
      <trkpt lat="47.24381" lon="-1.56869">
        <ele>65</ele>
        <time>2022-05-03T07:55:25Z</time>
      </trkpt>
      <trkpt lat="47.24382" lon="-1.56872">
        <ele>64</ele>
        <time>2022-05-03T07:55:26Z</time>
      </trkpt>
      <trkpt lat="47.24383" lon="-1.56874">
        <ele>64</ele>
        <time>2022-05-03T07:55:27Z</time>
      </trkpt>
      <trkpt lat="47.24384" lon="-1.56876">
        <ele>65</ele>
        <time>2022-05-03T07:55:28Z</time>
      </trkpt>
      <trkpt lat="47.24386" lon="-1.56878">
        <ele>64</ele>
        <time>2022-05-03T07:55:29Z</time>
      </trkpt>
      <trkpt lat="47.24386" lon="-1.56881">
        <ele>64</ele>
        <time>2022-05-03T07:55:30Z</time>
      </trkpt>
      <trkpt lat="47.24387" lon="-1.56883">
        <ele>64</ele>
        <time>2022-05-03T07:55:31Z</time>
      </trkpt>
      <trkpt lat="47.24388" lon="-1.56886">
        <ele>64</ele>
        <time>2022-05-03T07:55:32Z</time>
      </trkpt>
      <trkpt lat="47.24388" lon="-1.56888">
        <ele>63</ele>
        <time>2022-05-03T07:55:33Z</time>
      </trkpt>
      <trkpt lat="47.24389" lon="-1.56891">
        <ele>63</ele>
        <time>2022-05-03T07:55:34Z</time>
      </trkpt>
      <trkpt lat="47.24389" lon="-1.56893">
        <ele>62</ele>
        <time>2022-05-03T07:55:35Z</time>
      </trkpt>
      <trkpt lat="47.24389" lon="-1.56895">
        <ele>62</ele>
        <time>2022-05-03T07:55:36Z</time>
      </trkpt>
      <trkpt lat="47.2439" lon="-1.56897">
        <ele>62</ele>
        <time>2022-05-03T07:55:37Z</time>
      </trkpt>
      <trkpt lat="47.24391" lon="-1.569">
        <ele>61</ele>
        <time>2022-05-03T07:55:38Z</time>
      </trkpt>
      <trkpt lat="47.24392" lon="-1.56902">
        <ele>61</ele>
        <time>2022-05-03T07:55:39Z</time>
      </trkpt>
      <trkpt lat="47.24393" lon="-1.56903">
        <ele>61</ele>
        <time>2022-05-03T07:55:40Z</time>
      </trkpt>
      <trkpt lat="47.24394" lon="-1.56905">
        <ele>61</ele>
        <time>2022-05-03T07:55:41Z</time>
      </trkpt>
      <trkpt lat="47.24395" lon="-1.56907">
        <ele>62</ele>
        <time>2022-05-03T07:55:42Z</time>
      </trkpt>
      <trkpt lat="47.24395" lon="-1.56909">
        <ele>61</ele>
        <time>2022-05-03T07:55:43Z</time>
      </trkpt>
      <trkpt lat="47.24396" lon="-1.56911">
        <ele>61</ele>
        <time>2022-05-03T07:55:44Z</time>
      </trkpt>
      <trkpt lat="47.24397" lon="-1.56913">
        <ele>60</ele>
        <time>2022-05-03T07:55:45Z</time>
      </trkpt>
      <trkpt lat="47.24397" lon="-1.56915">
        <ele>60</ele>
        <time>2022-05-03T07:55:46Z</time>
      </trkpt>
      <trkpt lat="47.24397" lon="-1.56917">
        <ele>60</ele>
        <time>2022-05-03T07:55:47Z</time>
      </trkpt>
      <trkpt lat="47.24398" lon="-1.56919">
        <ele>59</ele>
        <time>2022-05-03T07:55:48Z</time>
      </trkpt>
      <trkpt lat="47.24398" lon="-1.56921">
        <ele>59</ele>
        <time>2022-05-03T07:55:49Z</time>
      </trkpt>
      <trkpt lat="47.24399" lon="-1.56922">
        <ele>58</ele>
        <time>2022-05-03T07:55:50Z</time>
      </trkpt>
      <trkpt lat="47.244" lon="-1.56924">
        <ele>58</ele>
        <time>2022-05-03T07:55:51Z</time>
      </trkpt>
      <trkpt lat="47.244" lon="-1.56925">
        <ele>58</ele>
        <time>2022-05-03T07:55:52Z</time>
      </trkpt>
      <trkpt lat="47.24401" lon="-1.56926">
        <ele>57</ele>
        <time>2022-05-03T07:55:53Z</time>
      </trkpt>
      <trkpt lat="47.24402" lon="-1.56927">
        <ele>57</ele>
        <time>2022-05-03T07:55:54Z</time>
      </trkpt>
      <trkpt lat="47.24402" lon="-1.56928">
        <ele>56</ele>
        <time>2022-05-03T07:55:55Z</time>
      </trkpt>
      <trkpt lat="47.24403" lon="-1.56929">
        <ele>56</ele>
        <time>2022-05-03T07:55:56Z</time>
      </trkpt>
      <trkpt lat="47.24404" lon="-1.5693">
        <ele>56</ele>
        <time>2022-05-03T07:55:57Z</time>
      </trkpt>
      <trkpt lat="47.24405" lon="-1.56931">
        <ele>56</ele>
        <time>2022-05-03T07:55:58Z</time>
      </trkpt>
      <trkpt lat="47.24405" lon="-1.56932">
        <ele>57</ele>
        <time>2022-05-03T07:55:59Z</time>
      </trkpt>
      <trkpt lat="47.24406" lon="-1.56934">
        <ele>57</ele>
        <time>2022-05-03T07:56:00Z</time>
      </trkpt>
      <trkpt lat="47.24407" lon="-1.56935">
        <ele>57</ele>
        <time>2022-05-03T07:56:01Z</time>
      </trkpt>
      <trkpt lat="47.24408" lon="-1.56936">
        <ele>58</ele>
        <time>2022-05-03T07:56:02Z</time>
      </trkpt>
      <trkpt lat="47.2441" lon="-1.56937">
        <ele>58</ele>
        <time>2022-05-03T07:56:03Z</time>
      </trkpt>
      <trkpt lat="47.2441" lon="-1.56939">
        <ele>58</ele>
        <time>2022-05-03T07:56:04Z</time>
      </trkpt>
      <trkpt lat="47.24411" lon="-1.56941">
        <ele>58</ele>
        <time>2022-05-03T07:56:05Z</time>
      </trkpt>
      <trkpt lat="47.24412" lon="-1.56943">
        <ele>58</ele>
        <time>2022-05-03T07:56:06Z</time>
      </trkpt>
      <trkpt lat="47.24413" lon="-1.56944">
        <ele>58</ele>
        <time>2022-05-03T07:56:07Z</time>
      </trkpt>
      <trkpt lat="47.24413" lon="-1.56946">
        <ele>58</ele>
        <time>2022-05-03T07:56:08Z</time>
      </trkpt>
      <trkpt lat="47.24414" lon="-1.56948">
        <ele>58</ele>
        <time>2022-05-03T07:56:09Z</time>
      </trkpt>
      <trkpt lat="47.24415" lon="-1.5695">
        <ele>58</ele>
        <time>2022-05-03T07:56:10Z</time>
      </trkpt>
      <trkpt lat="47.24416" lon="-1.56952">
        <ele>58</ele>
        <time>2022-05-03T07:56:11Z</time>
      </trkpt>
      <trkpt lat="47.24417" lon="-1.56954">
        <ele>58</ele>
        <time>2022-05-03T07:56:12Z</time>
      </trkpt>
      <trkpt lat="47.24418" lon="-1.56956">
        <ele>58</ele>
        <time>2022-05-03T07:56:13Z</time>
      </trkpt>
      <trkpt lat="47.24419" lon="-1.56958">
        <ele>57</ele>
        <time>2022-05-03T07:56:14Z</time>
      </trkpt>
      <trkpt lat="47.24421" lon="-1.5696">
        <ele>57</ele>
        <time>2022-05-03T07:56:15Z</time>
      </trkpt>
      <trkpt lat="47.24421" lon="-1.56962">
        <ele>57</ele>
        <time>2022-05-03T07:56:16Z</time>
      </trkpt>
      <trkpt lat="47.24423" lon="-1.56964">
        <ele>57</ele>
        <time>2022-05-03T07:56:17Z</time>
      </trkpt>
      <trkpt lat="47.24424" lon="-1.56965">
        <ele>56</ele>
        <time>2022-05-03T07:56:18Z</time>
      </trkpt>
      <trkpt lat="47.24425" lon="-1.56967">
        <ele>56</ele>
        <time>2022-05-03T07:56:19Z</time>
      </trkpt>
      <trkpt lat="47.24426" lon="-1.56968">
        <ele>56</ele>
        <time>2022-05-03T07:56:20Z</time>
      </trkpt>
      <trkpt lat="47.24427" lon="-1.56969">
        <ele>56</ele>
        <time>2022-05-03T07:56:21Z</time>
      </trkpt>
      <trkpt lat="47.24427" lon="-1.56971">
        <ele>56</ele>
        <time>2022-05-03T07:56:22Z</time>
      </trkpt>
      <trkpt lat="47.24428" lon="-1.56972">
        <ele>55</ele>
        <time>2022-05-03T07:56:23Z</time>
      </trkpt>
      <trkpt lat="47.24429" lon="-1.56974">
        <ele>55</ele>
        <time>2022-05-03T07:56:24Z</time>
      </trkpt>
      <trkpt lat="47.2443" lon="-1.56975">
        <ele>55</ele>
        <time>2022-05-03T07:56:25Z</time>
      </trkpt>
      <trkpt lat="47.24431" lon="-1.56977">
        <ele>55</ele>
        <time>2022-05-03T07:56:26Z</time>
      </trkpt>
      <trkpt lat="47.24432" lon="-1.56978">
        <ele>55</ele>
        <time>2022-05-03T07:56:27Z</time>
      </trkpt>
      <trkpt lat="47.24432" lon="-1.5698">
        <ele>56</ele>
        <time>2022-05-03T07:56:28Z</time>
      </trkpt>
      <trkpt lat="47.24434" lon="-1.56981">
        <ele>56</ele>
        <time>2022-05-03T07:56:29Z</time>
      </trkpt>
      <trkpt lat="47.24435" lon="-1.56983">
        <ele>56</ele>
        <time>2022-05-03T07:56:30Z</time>
      </trkpt>
      <trkpt lat="47.24435" lon="-1.56985">
        <ele>56</ele>
        <time>2022-05-03T07:56:31Z</time>
      </trkpt>
      <trkpt lat="47.24437" lon="-1.56986">
        <ele>56</ele>
        <time>2022-05-03T07:56:32Z</time>
      </trkpt>
      <trkpt lat="47.24437" lon="-1.56988">
        <ele>56</ele>
        <time>2022-05-03T07:56:33Z</time>
      </trkpt>
      <trkpt lat="47.24438" lon="-1.5699">
        <ele>56</ele>
        <time>2022-05-03T07:56:34Z</time>
      </trkpt>
      <trkpt lat="47.24439" lon="-1.56992">
        <ele>56</ele>
        <time>2022-05-03T07:56:35Z</time>
      </trkpt>
      <trkpt lat="47.2444" lon="-1.56993">
        <ele>56</ele>
        <time>2022-05-03T07:56:36Z</time>
      </trkpt>
      <trkpt lat="47.24441" lon="-1.56995">
        <ele>57</ele>
        <time>2022-05-03T07:56:37Z</time>
      </trkpt>
      <trkpt lat="47.24442" lon="-1.56996">
        <ele>57</ele>
        <time>2022-05-03T07:56:38Z</time>
      </trkpt>
      <trkpt lat="47.24442" lon="-1.56998">
        <ele>56</ele>
        <time>2022-05-03T07:56:39Z</time>
      </trkpt>
      <trkpt lat="47.24443" lon="-1.56999">
        <ele>56</ele>
        <time>2022-05-03T07:56:40Z</time>
      </trkpt>
      <trkpt lat="47.24444" lon="-1.57001">
        <ele>57</ele>
        <time>2022-05-03T07:56:41Z</time>
      </trkpt>
      <trkpt lat="47.24445" lon="-1.57002">
        <ele>57</ele>
        <time>2022-05-03T07:56:42Z</time>
      </trkpt>
      <trkpt lat="47.24446" lon="-1.57004">
        <ele>57</ele>
        <time>2022-05-03T07:56:43Z</time>
      </trkpt>
      <trkpt lat="47.24447" lon="-1.57005">
        <ele>56</ele>
        <time>2022-05-03T07:56:44Z</time>
      </trkpt>
      <trkpt lat="47.24448" lon="-1.57006">
        <ele>56</ele>
        <time>2022-05-03T07:56:45Z</time>
      </trkpt>
      <trkpt lat="47.24449" lon="-1.57008">
        <ele>56</ele>
        <time>2022-05-03T07:56:46Z</time>
      </trkpt>
      <trkpt lat="47.2445" lon="-1.57009">
        <ele>56</ele>
        <time>2022-05-03T07:56:47Z</time>
      </trkpt>
      <trkpt lat="47.2445" lon="-1.57011">
        <ele>56</ele>
        <time>2022-05-03T07:56:48Z</time>
      </trkpt>
      <trkpt lat="47.24451" lon="-1.57012">
        <ele>56</ele>
        <time>2022-05-03T07:56:49Z</time>
      </trkpt>
      <trkpt lat="47.24452" lon="-1.57013">
        <ele>55</ele>
        <time>2022-05-03T07:56:50Z</time>
      </trkpt>
      <trkpt lat="47.24453" lon="-1.57015">
        <ele>56</ele>
        <time>2022-05-03T07:56:51Z</time>
      </trkpt>
      <trkpt lat="47.24454" lon="-1.57016">
        <ele>56</ele>
        <time>2022-05-03T07:56:52Z</time>
      </trkpt>
      <trkpt lat="47.24455" lon="-1.57018">
        <ele>56</ele>
        <time>2022-05-03T07:56:53Z</time>
      </trkpt>
      <trkpt lat="47.24456" lon="-1.57019">
        <ele>56</ele>
        <time>2022-05-03T07:56:54Z</time>
      </trkpt>
      <trkpt lat="47.24457" lon="-1.5702">
        <ele>56</ele>
        <time>2022-05-03T07:56:55Z</time>
      </trkpt>
      <trkpt lat="47.24458" lon="-1.57021">
        <ele>55</ele>
        <time>2022-05-03T07:56:56Z</time>
      </trkpt>
      <trkpt lat="47.24459" lon="-1.57022">
        <ele>54</ele>
        <time>2022-05-03T07:56:57Z</time>
      </trkpt>
      <trkpt lat="47.2446" lon="-1.57023">
        <ele>54</ele>
        <time>2022-05-03T07:56:58Z</time>
      </trkpt>
      <trkpt lat="47.24461" lon="-1.57025">
        <ele>54</ele>
        <time>2022-05-03T07:56:59Z</time>
      </trkpt>
      <trkpt lat="47.24462" lon="-1.57027">
        <ele>54</ele>
        <time>2022-05-03T07:57:00Z</time>
      </trkpt>
      <trkpt lat="47.24463" lon="-1.57028">
        <ele>54</ele>
        <time>2022-05-03T07:57:01Z</time>
      </trkpt>
      <trkpt lat="47.24464" lon="-1.5703">
        <ele>55</ele>
        <time>2022-05-03T07:57:02Z</time>
      </trkpt>
      <trkpt lat="47.24465" lon="-1.57031">
        <ele>54</ele>
        <time>2022-05-03T07:57:03Z</time>
      </trkpt>
      <trkpt lat="47.24466" lon="-1.57033">
        <ele>54</ele>
        <time>2022-05-03T07:57:04Z</time>
      </trkpt>
      <trkpt lat="47.24467" lon="-1.57035">
        <ele>54</ele>
        <time>2022-05-03T07:57:05Z</time>
      </trkpt>
      <trkpt lat="47.24468" lon="-1.57037">
        <ele>54</ele>
        <time>2022-05-03T07:57:06Z</time>
      </trkpt>
      <trkpt lat="47.24469" lon="-1.57038">
        <ele>54</ele>
        <time>2022-05-03T07:57:07Z</time>
      </trkpt>
      <trkpt lat="47.24469" lon="-1.5704">
        <ele>54</ele>
        <time>2022-05-03T07:57:08Z</time>
      </trkpt>
      <trkpt lat="47.2447" lon="-1.57041">
        <ele>54</ele>
        <time>2022-05-03T07:57:09Z</time>
      </trkpt>
      <trkpt lat="47.24471" lon="-1.57043">
        <ele>54</ele>
        <time>2022-05-03T07:57:10Z</time>
      </trkpt>
      <trkpt lat="47.24472" lon="-1.57044">
        <ele>54</ele>
        <time>2022-05-03T07:57:11Z</time>
      </trkpt>
      <trkpt lat="47.24472" lon="-1.57046">
        <ele>54</ele>
        <time>2022-05-03T07:57:12Z</time>
      </trkpt>
      <trkpt lat="47.24474" lon="-1.57048">
        <ele>54</ele>
        <time>2022-05-03T07:57:13Z</time>
      </trkpt>
      <trkpt lat="47.24474" lon="-1.5705">
        <ele>54</ele>
        <time>2022-05-03T07:57:14Z</time>
      </trkpt>
      <trkpt lat="47.24475" lon="-1.57051">
        <ele>54</ele>
        <time>2022-05-03T07:57:15Z</time>
      </trkpt>
      <trkpt lat="47.24476" lon="-1.57053">
        <ele>54</ele>
        <time>2022-05-03T07:57:16Z</time>
      </trkpt>
      <trkpt lat="47.24477" lon="-1.57054">
        <ele>54</ele>
        <time>2022-05-03T07:57:17Z</time>
      </trkpt>
      <trkpt lat="47.24478" lon="-1.57055">
        <ele>54</ele>
        <time>2022-05-03T07:57:18Z</time>
      </trkpt>
      <trkpt lat="47.24479" lon="-1.57057">
        <ele>55</ele>
        <time>2022-05-03T07:57:19Z</time>
      </trkpt>
      <trkpt lat="47.2448" lon="-1.57058">
        <ele>55</ele>
        <time>2022-05-03T07:57:20Z</time>
      </trkpt>
      <trkpt lat="47.2448" lon="-1.5706">
        <ele>55</ele>
        <time>2022-05-03T07:57:21Z</time>
      </trkpt>
      <trkpt lat="47.24481" lon="-1.57061">
        <ele>55</ele>
        <time>2022-05-03T07:57:22Z</time>
      </trkpt>
      <trkpt lat="47.24482" lon="-1.57062">
        <ele>55</ele>
        <time>2022-05-03T07:57:23Z</time>
      </trkpt>
      <trkpt lat="47.24483" lon="-1.57064">
        <ele>55</ele>
        <time>2022-05-03T07:57:24Z</time>
      </trkpt>
      <trkpt lat="47.24484" lon="-1.57065">
        <ele>55</ele>
        <time>2022-05-03T07:57:25Z</time>
      </trkpt>
      <trkpt lat="47.24484" lon="-1.57067">
        <ele>55</ele>
        <time>2022-05-03T07:57:26Z</time>
      </trkpt>
      <trkpt lat="47.24485" lon="-1.57069">
        <ele>55</ele>
        <time>2022-05-03T07:57:27Z</time>
      </trkpt>
      <trkpt lat="47.24485" lon="-1.5707">
        <ele>55</ele>
        <time>2022-05-03T07:57:28Z</time>
      </trkpt>
      <trkpt lat="47.24485" lon="-1.57071">
        <ele>55</ele>
        <time>2022-05-03T07:57:29Z</time>
      </trkpt>
      <trkpt lat="47.24486" lon="-1.57072">
        <ele>56</ele>
        <time>2022-05-03T07:57:30Z</time>
      </trkpt>
      <trkpt lat="47.24487" lon="-1.57073">
        <ele>57</ele>
        <time>2022-05-03T07:57:31Z</time>
      </trkpt>
      <trkpt lat="47.24487" lon="-1.57074">
        <ele>57</ele>
        <time>2022-05-03T07:57:32Z</time>
      </trkpt>
      <trkpt lat="47.24488" lon="-1.57075">
        <ele>57</ele>
        <time>2022-05-03T07:57:33Z</time>
      </trkpt>
      <trkpt lat="47.24488" lon="-1.57076">
        <ele>58</ele>
        <time>2022-05-03T07:57:34Z</time>
      </trkpt>
      <trkpt lat="47.24489" lon="-1.57077">
        <ele>58</ele>
        <time>2022-05-03T07:57:35Z</time>
      </trkpt>
      <trkpt lat="47.24489" lon="-1.57078">
        <ele>59</ele>
        <time>2022-05-03T07:57:36Z</time>
      </trkpt>
      <trkpt lat="47.2449" lon="-1.57079">
        <ele>59</ele>
        <time>2022-05-03T07:57:37Z</time>
      </trkpt>
      <trkpt lat="47.2449" lon="-1.57081">
        <ele>59</ele>
        <time>2022-05-03T07:57:38Z</time>
      </trkpt>
      <trkpt lat="47.24491" lon="-1.57083">
        <ele>59</ele>
        <time>2022-05-03T07:57:39Z</time>
      </trkpt>
      <trkpt lat="47.24492" lon="-1.57085">
        <ele>58</ele>
        <time>2022-05-03T07:57:40Z</time>
      </trkpt>
      <trkpt lat="47.24492" lon="-1.57086">
        <ele>58</ele>
        <time>2022-05-03T07:57:41Z</time>
      </trkpt>
      <trkpt lat="47.24493" lon="-1.57088">
        <ele>58</ele>
        <time>2022-05-03T07:57:42Z</time>
      </trkpt>
      <trkpt lat="47.24493" lon="-1.57091">
        <ele>58</ele>
        <time>2022-05-03T07:57:43Z</time>
      </trkpt>
      <trkpt lat="47.24493" lon="-1.57094">
        <ele>58</ele>
        <time>2022-05-03T07:57:44Z</time>
      </trkpt>
      <trkpt lat="47.24494" lon="-1.57096">
        <ele>58</ele>
        <time>2022-05-03T07:57:45Z</time>
      </trkpt>
      <trkpt lat="47.24494" lon="-1.57098">
        <ele>58</ele>
        <time>2022-05-03T07:57:46Z</time>
      </trkpt>
      <trkpt lat="47.24495" lon="-1.571">
        <ele>58</ele>
        <time>2022-05-03T07:57:47Z</time>
      </trkpt>
      <trkpt lat="47.24495" lon="-1.57102">
        <ele>58</ele>
        <time>2022-05-03T07:57:48Z</time>
      </trkpt>
      <trkpt lat="47.24495" lon="-1.57103">
        <ele>58</ele>
        <time>2022-05-03T07:57:49Z</time>
      </trkpt>
      <trkpt lat="47.24496" lon="-1.57105">
        <ele>57</ele>
        <time>2022-05-03T07:57:50Z</time>
      </trkpt>
      <trkpt lat="47.24497" lon="-1.57107">
        <ele>57</ele>
        <time>2022-05-03T07:57:51Z</time>
      </trkpt>
      <trkpt lat="47.24497" lon="-1.57109">
        <ele>56</ele>
        <time>2022-05-03T07:57:52Z</time>
      </trkpt>
      <trkpt lat="47.24497" lon="-1.57112">
        <ele>56</ele>
        <time>2022-05-03T07:57:53Z</time>
      </trkpt>
      <trkpt lat="47.24497" lon="-1.57113">
        <ele>56</ele>
        <time>2022-05-03T07:57:54Z</time>
      </trkpt>
      <trkpt lat="47.24497" lon="-1.57115">
        <ele>56</ele>
        <time>2022-05-03T07:57:55Z</time>
      </trkpt>
      <trkpt lat="47.24497" lon="-1.57117">
        <ele>56</ele>
        <time>2022-05-03T07:57:56Z</time>
      </trkpt>
      <trkpt lat="47.24497" lon="-1.57118">
        <ele>56</ele>
        <time>2022-05-03T07:57:57Z</time>
      </trkpt>
      <trkpt lat="47.24497" lon="-1.57121">
        <ele>56</ele>
        <time>2022-05-03T07:57:58Z</time>
      </trkpt>
      <trkpt lat="47.24497" lon="-1.57122">
        <ele>56</ele>
        <time>2022-05-03T07:57:59Z</time>
      </trkpt>
      <trkpt lat="47.24497" lon="-1.57124">
        <ele>56</ele>
        <time>2022-05-03T07:58:00Z</time>
      </trkpt>
      <trkpt lat="47.24497" lon="-1.57127">
        <ele>56</ele>
        <time>2022-05-03T07:58:01Z</time>
      </trkpt>
      <trkpt lat="47.24496" lon="-1.57129">
        <ele>56</ele>
        <time>2022-05-03T07:58:02Z</time>
      </trkpt>
      <trkpt lat="47.24496" lon="-1.57131">
        <ele>56</ele>
        <time>2022-05-03T07:58:03Z</time>
      </trkpt>
      <trkpt lat="47.24496" lon="-1.57133">
        <ele>56</ele>
        <time>2022-05-03T07:58:04Z</time>
      </trkpt>
      <trkpt lat="47.24495" lon="-1.57135">
        <ele>56</ele>
        <time>2022-05-03T07:58:05Z</time>
      </trkpt>
      <trkpt lat="47.24495" lon="-1.57137">
        <ele>56</ele>
        <time>2022-05-03T07:58:06Z</time>
      </trkpt>
      <trkpt lat="47.24495" lon="-1.57138">
        <ele>56</ele>
        <time>2022-05-03T07:58:07Z</time>
      </trkpt>
      <trkpt lat="47.24494" lon="-1.5714">
        <ele>57</ele>
        <time>2022-05-03T07:58:08Z</time>
      </trkpt>
      <trkpt lat="47.24494" lon="-1.57142">
        <ele>57</ele>
        <time>2022-05-03T07:58:09Z</time>
      </trkpt>
      <trkpt lat="47.24494" lon="-1.57144">
        <ele>56</ele>
        <time>2022-05-03T07:58:10Z</time>
      </trkpt>
      <trkpt lat="47.24494" lon="-1.57146">
        <ele>57</ele>
        <time>2022-05-03T07:58:11Z</time>
      </trkpt>
      <trkpt lat="47.24494" lon="-1.57149">
        <ele>58</ele>
        <time>2022-05-03T07:58:12Z</time>
      </trkpt>
      <trkpt lat="47.24494" lon="-1.5715">
        <ele>58</ele>
        <time>2022-05-03T07:58:13Z</time>
      </trkpt>
      <trkpt lat="47.24493" lon="-1.57152">
        <ele>59</ele>
        <time>2022-05-03T07:58:14Z</time>
      </trkpt>
      <trkpt lat="47.24493" lon="-1.57154">
        <ele>59</ele>
        <time>2022-05-03T07:58:15Z</time>
      </trkpt>
      <trkpt lat="47.24493" lon="-1.57156">
        <ele>59</ele>
        <time>2022-05-03T07:58:16Z</time>
      </trkpt>
      <trkpt lat="47.24493" lon="-1.57159">
        <ele>60</ele>
        <time>2022-05-03T07:58:17Z</time>
      </trkpt>
      <trkpt lat="47.24493" lon="-1.57161">
        <ele>59</ele>
        <time>2022-05-03T07:58:18Z</time>
      </trkpt>
      <trkpt lat="47.24492" lon="-1.57162">
        <ele>59</ele>
        <time>2022-05-03T07:58:19Z</time>
      </trkpt>
      <trkpt lat="47.24492" lon="-1.57164">
        <ele>60</ele>
        <time>2022-05-03T07:58:20Z</time>
      </trkpt>
      <trkpt lat="47.24492" lon="-1.57166">
        <ele>60</ele>
        <time>2022-05-03T07:58:21Z</time>
      </trkpt>
      <trkpt lat="47.24492" lon="-1.57168">
        <ele>60</ele>
        <time>2022-05-03T07:58:22Z</time>
      </trkpt>
      <trkpt lat="47.24492" lon="-1.5717">
        <ele>60</ele>
        <time>2022-05-03T07:58:23Z</time>
      </trkpt>
      <trkpt lat="47.24492" lon="-1.57171">
        <ele>60</ele>
        <time>2022-05-03T07:58:24Z</time>
      </trkpt>
      <trkpt lat="47.24491" lon="-1.57173">
        <ele>60</ele>
        <time>2022-05-03T07:58:25Z</time>
      </trkpt>
      <trkpt lat="47.24491" lon="-1.57175">
        <ele>59</ele>
        <time>2022-05-03T07:58:26Z</time>
      </trkpt>
      <trkpt lat="47.2449" lon="-1.57178">
        <ele>59</ele>
        <time>2022-05-03T07:58:27Z</time>
      </trkpt>
      <trkpt lat="47.2449" lon="-1.57179">
        <ele>58</ele>
        <time>2022-05-03T07:58:28Z</time>
      </trkpt>
      <trkpt lat="47.2449" lon="-1.57182">
        <ele>58</ele>
        <time>2022-05-03T07:58:29Z</time>
      </trkpt>
      <trkpt lat="47.2449" lon="-1.57184">
        <ele>58</ele>
        <time>2022-05-03T07:58:30Z</time>
      </trkpt>
      <trkpt lat="47.2449" lon="-1.57187">
        <ele>58</ele>
        <time>2022-05-03T07:58:31Z</time>
      </trkpt>
      <trkpt lat="47.24489" lon="-1.57188">
        <ele>58</ele>
        <time>2022-05-03T07:58:32Z</time>
      </trkpt>
      <trkpt lat="47.24489" lon="-1.57191">
        <ele>58</ele>
        <time>2022-05-03T07:58:33Z</time>
      </trkpt>
      <trkpt lat="47.24489" lon="-1.57192">
        <ele>58</ele>
        <time>2022-05-03T07:58:34Z</time>
      </trkpt>
      <trkpt lat="47.24488" lon="-1.57194">
        <ele>58</ele>
        <time>2022-05-03T07:58:35Z</time>
      </trkpt>
      <trkpt lat="47.24489" lon="-1.57196">
        <ele>58</ele>
        <time>2022-05-03T07:58:36Z</time>
      </trkpt>
      <trkpt lat="47.24488" lon="-1.57197">
        <ele>57</ele>
        <time>2022-05-03T07:58:37Z</time>
      </trkpt>
      <trkpt lat="47.24488" lon="-1.57199">
        <ele>57</ele>
        <time>2022-05-03T07:58:38Z</time>
      </trkpt>
      <trkpt lat="47.24488" lon="-1.57201">
        <ele>57</ele>
        <time>2022-05-03T07:58:39Z</time>
      </trkpt>
      <trkpt lat="47.24488" lon="-1.57203">
        <ele>57</ele>
        <time>2022-05-03T07:58:40Z</time>
      </trkpt>
      <trkpt lat="47.24488" lon="-1.57205">
        <ele>56</ele>
        <time>2022-05-03T07:58:41Z</time>
      </trkpt>
      <trkpt lat="47.24488" lon="-1.57207">
        <ele>57</ele>
        <time>2022-05-03T07:58:42Z</time>
      </trkpt>
      <trkpt lat="47.24488" lon="-1.57209">
        <ele>57</ele>
        <time>2022-05-03T07:58:43Z</time>
      </trkpt>
      <trkpt lat="47.24488" lon="-1.5721">
        <ele>57</ele>
        <time>2022-05-03T07:58:44Z</time>
      </trkpt>
      <trkpt lat="47.24488" lon="-1.57212">
        <ele>57</ele>
        <time>2022-05-03T07:58:45Z</time>
      </trkpt>
      <trkpt lat="47.24488" lon="-1.57214">
        <ele>57</ele>
        <time>2022-05-03T07:58:46Z</time>
      </trkpt>
      <trkpt lat="47.24488" lon="-1.57217">
        <ele>58</ele>
        <time>2022-05-03T07:58:47Z</time>
      </trkpt>
      <trkpt lat="47.24488" lon="-1.57219">
        <ele>57</ele>
        <time>2022-05-03T07:58:48Z</time>
      </trkpt>
      <trkpt lat="47.24487" lon="-1.57221">
        <ele>57</ele>
        <time>2022-05-03T07:58:49Z</time>
      </trkpt>
      <trkpt lat="47.24487" lon="-1.57224">
        <ele>57</ele>
        <time>2022-05-03T07:58:50Z</time>
      </trkpt>
      <trkpt lat="47.24487" lon="-1.57226">
        <ele>58</ele>
        <time>2022-05-03T07:58:51Z</time>
      </trkpt>
      <trkpt lat="47.24487" lon="-1.57228">
        <ele>58</ele>
        <time>2022-05-03T07:58:52Z</time>
      </trkpt>
      <trkpt lat="47.24487" lon="-1.5723">
        <ele>58</ele>
        <time>2022-05-03T07:58:53Z</time>
      </trkpt>
      <trkpt lat="47.24486" lon="-1.57232">
        <ele>58</ele>
        <time>2022-05-03T07:58:54Z</time>
      </trkpt>
      <trkpt lat="47.24486" lon="-1.57233">
        <ele>59</ele>
        <time>2022-05-03T07:58:55Z</time>
      </trkpt>
      <trkpt lat="47.24486" lon="-1.57235">
        <ele>59</ele>
        <time>2022-05-03T07:58:56Z</time>
      </trkpt>
      <trkpt lat="47.24486" lon="-1.57238">
        <ele>59</ele>
        <time>2022-05-03T07:58:57Z</time>
      </trkpt>
      <trkpt lat="47.24486" lon="-1.57239">
        <ele>59</ele>
        <time>2022-05-03T07:58:58Z</time>
      </trkpt>
      <trkpt lat="47.24486" lon="-1.57241">
        <ele>59</ele>
        <time>2022-05-03T07:58:59Z</time>
      </trkpt>
      <trkpt lat="47.24485" lon="-1.57243">
        <ele>59</ele>
        <time>2022-05-03T07:59:00Z</time>
      </trkpt>
      <trkpt lat="47.24485" lon="-1.57244">
        <ele>60</ele>
        <time>2022-05-03T07:59:01Z</time>
      </trkpt>
      <trkpt lat="47.24485" lon="-1.57246">
        <ele>60</ele>
        <time>2022-05-03T07:59:02Z</time>
      </trkpt>
      <trkpt lat="47.24485" lon="-1.57247">
        <ele>60</ele>
        <time>2022-05-03T07:59:03Z</time>
      </trkpt>
      <trkpt lat="47.24485" lon="-1.57249">
        <ele>60</ele>
        <time>2022-05-03T07:59:04Z</time>
      </trkpt>
      <trkpt lat="47.24485" lon="-1.5725">
        <ele>60</ele>
        <time>2022-05-03T07:59:05Z</time>
      </trkpt>
      <trkpt lat="47.24485" lon="-1.57252">
        <ele>60</ele>
        <time>2022-05-03T07:59:06Z</time>
      </trkpt>
      <trkpt lat="47.24485" lon="-1.57254">
        <ele>60</ele>
        <time>2022-05-03T07:59:07Z</time>
      </trkpt>
      <trkpt lat="47.24485" lon="-1.57256">
        <ele>59</ele>
        <time>2022-05-03T07:59:08Z</time>
      </trkpt>
      <trkpt lat="47.24486" lon="-1.57258">
        <ele>60</ele>
        <time>2022-05-03T07:59:09Z</time>
      </trkpt>
      <trkpt lat="47.24487" lon="-1.57259">
        <ele>60</ele>
        <time>2022-05-03T07:59:10Z</time>
      </trkpt>
      <trkpt lat="47.24487" lon="-1.5726">
        <ele>60</ele>
        <time>2022-05-03T07:59:11Z</time>
      </trkpt>
      <trkpt lat="47.24487" lon="-1.57262">
        <ele>61</ele>
        <time>2022-05-03T07:59:12Z</time>
      </trkpt>
      <trkpt lat="47.24487" lon="-1.57264">
        <ele>61</ele>
        <time>2022-05-03T07:59:13Z</time>
      </trkpt>
      <trkpt lat="47.24487" lon="-1.57266">
        <ele>60</ele>
        <time>2022-05-03T07:59:14Z</time>
      </trkpt>
      <trkpt lat="47.24488" lon="-1.57269">
        <ele>60</ele>
        <time>2022-05-03T07:59:15Z</time>
      </trkpt>
      <trkpt lat="47.24488" lon="-1.5727">
        <ele>61</ele>
        <time>2022-05-03T07:59:16Z</time>
      </trkpt>
      <trkpt lat="47.24489" lon="-1.57272">
        <ele>61</ele>
        <time>2022-05-03T07:59:17Z</time>
      </trkpt>
      <trkpt lat="47.2449" lon="-1.57273">
        <ele>61</ele>
        <time>2022-05-03T07:59:18Z</time>
      </trkpt>
      <trkpt lat="47.2449" lon="-1.57274">
        <ele>62</ele>
        <time>2022-05-03T07:59:19Z</time>
      </trkpt>
      <trkpt lat="47.24491" lon="-1.57276">
        <ele>62</ele>
        <time>2022-05-03T07:59:20Z</time>
      </trkpt>
      <trkpt lat="47.24492" lon="-1.57278">
        <ele>62</ele>
        <time>2022-05-03T07:59:21Z</time>
      </trkpt>
      <trkpt lat="47.24492" lon="-1.57279">
        <ele>61</ele>
        <time>2022-05-03T07:59:22Z</time>
      </trkpt>
      <trkpt lat="47.24493" lon="-1.57281">
        <ele>61</ele>
        <time>2022-05-03T07:59:23Z</time>
      </trkpt>
      <trkpt lat="47.24493" lon="-1.57283">
        <ele>61</ele>
        <time>2022-05-03T07:59:24Z</time>
      </trkpt>
      <trkpt lat="47.24493" lon="-1.57285">
        <ele>60</ele>
        <time>2022-05-03T07:59:25Z</time>
      </trkpt>
      <trkpt lat="47.24494" lon="-1.57287">
        <ele>61</ele>
        <time>2022-05-03T07:59:26Z</time>
      </trkpt>
      <trkpt lat="47.24495" lon="-1.57289">
        <ele>60</ele>
        <time>2022-05-03T07:59:27Z</time>
      </trkpt>
      <trkpt lat="47.24495" lon="-1.57291">
        <ele>60</ele>
        <time>2022-05-03T07:59:28Z</time>
      </trkpt>
      <trkpt lat="47.24495" lon="-1.57293">
        <ele>60</ele>
        <time>2022-05-03T07:59:29Z</time>
      </trkpt>
      <trkpt lat="47.24496" lon="-1.57294">
        <ele>60</ele>
        <time>2022-05-03T07:59:30Z</time>
      </trkpt>
      <trkpt lat="47.24497" lon="-1.57296">
        <ele>60</ele>
        <time>2022-05-03T07:59:31Z</time>
      </trkpt>
      <trkpt lat="47.24497" lon="-1.57297">
        <ele>60</ele>
        <time>2022-05-03T07:59:32Z</time>
      </trkpt>
      <trkpt lat="47.24498" lon="-1.57299">
        <ele>60</ele>
        <time>2022-05-03T07:59:33Z</time>
      </trkpt>
      <trkpt lat="47.24498" lon="-1.573">
        <ele>60</ele>
        <time>2022-05-03T07:59:34Z</time>
      </trkpt>
      <trkpt lat="47.245" lon="-1.57302">
        <ele>60</ele>
        <time>2022-05-03T07:59:35Z</time>
      </trkpt>
      <trkpt lat="47.245" lon="-1.57303">
        <ele>60</ele>
        <time>2022-05-03T07:59:36Z</time>
      </trkpt>
      <trkpt lat="47.24501" lon="-1.57305">
        <ele>60</ele>
        <time>2022-05-03T07:59:37Z</time>
      </trkpt>
      <trkpt lat="47.24502" lon="-1.57307">
        <ele>60</ele>
        <time>2022-05-03T07:59:38Z</time>
      </trkpt>
      <trkpt lat="47.24502" lon="-1.57308">
        <ele>60</ele>
        <time>2022-05-03T07:59:39Z</time>
      </trkpt>
      <trkpt lat="47.24502" lon="-1.5731">
        <ele>60</ele>
        <time>2022-05-03T07:59:40Z</time>
      </trkpt>
      <trkpt lat="47.24503" lon="-1.57311">
        <ele>60</ele>
        <time>2022-05-03T07:59:41Z</time>
      </trkpt>
      <trkpt lat="47.24503" lon="-1.57313">
        <ele>59</ele>
        <time>2022-05-03T07:59:42Z</time>
      </trkpt>
      <trkpt lat="47.24504" lon="-1.57314">
        <ele>59</ele>
        <time>2022-05-03T07:59:43Z</time>
      </trkpt>
      <trkpt lat="47.24504" lon="-1.57315">
        <ele>58</ele>
        <time>2022-05-03T07:59:44Z</time>
      </trkpt>
      <trkpt lat="47.24505" lon="-1.57317">
        <ele>57</ele>
        <time>2022-05-03T07:59:45Z</time>
      </trkpt>
      <trkpt lat="47.24505" lon="-1.57318">
        <ele>57</ele>
        <time>2022-05-03T07:59:46Z</time>
      </trkpt>
      <trkpt lat="47.24506" lon="-1.5732">
        <ele>57</ele>
        <time>2022-05-03T07:59:47Z</time>
      </trkpt>
      <trkpt lat="47.24506" lon="-1.57322">
        <ele>57</ele>
        <time>2022-05-03T07:59:48Z</time>
      </trkpt>
      <trkpt lat="47.24507" lon="-1.57324">
        <ele>57</ele>
        <time>2022-05-03T07:59:49Z</time>
      </trkpt>
      <trkpt lat="47.24507" lon="-1.57325">
        <ele>57</ele>
        <time>2022-05-03T07:59:50Z</time>
      </trkpt>
      <trkpt lat="47.24508" lon="-1.57327">
        <ele>58</ele>
        <time>2022-05-03T07:59:51Z</time>
      </trkpt>
      <trkpt lat="47.24509" lon="-1.57329">
        <ele>58</ele>
        <time>2022-05-03T07:59:52Z</time>
      </trkpt>
      <trkpt lat="47.24509" lon="-1.57331">
        <ele>58</ele>
        <time>2022-05-03T07:59:53Z</time>
      </trkpt>
      <trkpt lat="47.2451" lon="-1.57332">
        <ele>58</ele>
        <time>2022-05-03T07:59:54Z</time>
      </trkpt>
      <trkpt lat="47.2451" lon="-1.57334">
        <ele>58</ele>
        <time>2022-05-03T07:59:55Z</time>
      </trkpt>
      <trkpt lat="47.24511" lon="-1.57337">
        <ele>58</ele>
        <time>2022-05-03T07:59:56Z</time>
      </trkpt>
      <trkpt lat="47.24511" lon="-1.57339">
        <ele>58</ele>
        <time>2022-05-03T07:59:57Z</time>
      </trkpt>
      <trkpt lat="47.24512" lon="-1.57341">
        <ele>58</ele>
        <time>2022-05-03T07:59:58Z</time>
      </trkpt>
      <trkpt lat="47.24513" lon="-1.57343">
        <ele>58</ele>
        <time>2022-05-03T07:59:59Z</time>
      </trkpt>
      <trkpt lat="47.24513" lon="-1.57344">
        <ele>58</ele>
        <time>2022-05-03T08:00:00Z</time>
      </trkpt>
      <trkpt lat="47.24513" lon="-1.57347">
        <ele>57</ele>
        <time>2022-05-03T08:00:01Z</time>
      </trkpt>
      <trkpt lat="47.24514" lon="-1.57349">
        <ele>57</ele>
        <time>2022-05-03T08:00:02Z</time>
      </trkpt>
      <trkpt lat="47.24514" lon="-1.57352">
        <ele>56</ele>
        <time>2022-05-03T08:00:03Z</time>
      </trkpt>
      <trkpt lat="47.24514" lon="-1.57354">
        <ele>56</ele>
        <time>2022-05-03T08:00:04Z</time>
      </trkpt>
      <trkpt lat="47.24514" lon="-1.57356">
        <ele>56</ele>
        <time>2022-05-03T08:00:05Z</time>
      </trkpt>
      <trkpt lat="47.24514" lon="-1.57358">
        <ele>56</ele>
        <time>2022-05-03T08:00:06Z</time>
      </trkpt>
      <trkpt lat="47.24514" lon="-1.57359">
        <ele>57</ele>
        <time>2022-05-03T08:00:07Z</time>
      </trkpt>
      <trkpt lat="47.24514" lon="-1.57361">
        <ele>57</ele>
        <time>2022-05-03T08:00:08Z</time>
      </trkpt>
      <trkpt lat="47.24514" lon="-1.57362">
        <ele>56</ele>
        <time>2022-05-03T08:00:09Z</time>
      </trkpt>
      <trkpt lat="47.24514" lon="-1.57364">
        <ele>57</ele>
        <time>2022-05-03T08:00:10Z</time>
      </trkpt>
      <trkpt lat="47.24514" lon="-1.57366">
        <ele>58</ele>
        <time>2022-05-03T08:00:11Z</time>
      </trkpt>
      <trkpt lat="47.24514" lon="-1.57367">
        <ele>58</ele>
        <time>2022-05-03T08:00:12Z</time>
      </trkpt>
      <trkpt lat="47.24514" lon="-1.5737">
        <ele>58</ele>
        <time>2022-05-03T08:00:13Z</time>
      </trkpt>
      <trkpt lat="47.24515" lon="-1.57373">
        <ele>57</ele>
        <time>2022-05-03T08:00:14Z</time>
      </trkpt>
      <trkpt lat="47.24515" lon="-1.57375">
        <ele>58</ele>
        <time>2022-05-03T08:00:15Z</time>
      </trkpt>
      <trkpt lat="47.24515" lon="-1.57377">
        <ele>58</ele>
        <time>2022-05-03T08:00:16Z</time>
      </trkpt>
      <trkpt lat="47.24515" lon="-1.57379">
        <ele>58</ele>
        <time>2022-05-03T08:00:17Z</time>
      </trkpt>
      <trkpt lat="47.24515" lon="-1.5738">
        <ele>59</ele>
        <time>2022-05-03T08:00:18Z</time>
      </trkpt>
      <trkpt lat="47.24515" lon="-1.57382">
        <ele>58</ele>
        <time>2022-05-03T08:00:19Z</time>
      </trkpt>
      <trkpt lat="47.24514" lon="-1.57384">
        <ele>58</ele>
        <time>2022-05-03T08:00:20Z</time>
      </trkpt>
      <trkpt lat="47.24515" lon="-1.57386">
        <ele>58</ele>
        <time>2022-05-03T08:00:21Z</time>
      </trkpt>
      <trkpt lat="47.24515" lon="-1.57388">
        <ele>58</ele>
        <time>2022-05-03T08:00:22Z</time>
      </trkpt>
      <trkpt lat="47.24515" lon="-1.5739">
        <ele>58</ele>
        <time>2022-05-03T08:00:23Z</time>
      </trkpt>
      <trkpt lat="47.24515" lon="-1.57392">
        <ele>58</ele>
        <time>2022-05-03T08:00:24Z</time>
      </trkpt>
      <trkpt lat="47.24514" lon="-1.57395">
        <ele>59</ele>
        <time>2022-05-03T08:00:25Z</time>
      </trkpt>
      <trkpt lat="47.24514" lon="-1.57397">
        <ele>59</ele>
        <time>2022-05-03T08:00:26Z</time>
      </trkpt>
      <trkpt lat="47.24514" lon="-1.57399">
        <ele>60</ele>
        <time>2022-05-03T08:00:27Z</time>
      </trkpt>
      <trkpt lat="47.24514" lon="-1.57401">
        <ele>60</ele>
        <time>2022-05-03T08:00:28Z</time>
      </trkpt>
      <trkpt lat="47.24514" lon="-1.57403">
        <ele>60</ele>
        <time>2022-05-03T08:00:29Z</time>
      </trkpt>
      <trkpt lat="47.24514" lon="-1.57405">
        <ele>60</ele>
        <time>2022-05-03T08:00:30Z</time>
      </trkpt>
      <trkpt lat="47.24515" lon="-1.57407">
        <ele>60</ele>
        <time>2022-05-03T08:00:31Z</time>
      </trkpt>
      <trkpt lat="47.24515" lon="-1.57409">
        <ele>60</ele>
        <time>2022-05-03T08:00:32Z</time>
      </trkpt>
      <trkpt lat="47.24515" lon="-1.57411">
        <ele>61</ele>
        <time>2022-05-03T08:00:33Z</time>
      </trkpt>
      <trkpt lat="47.24516" lon="-1.57412">
        <ele>61</ele>
        <time>2022-05-03T08:00:34Z</time>
      </trkpt>
      <trkpt lat="47.24516" lon="-1.57414">
        <ele>61</ele>
        <time>2022-05-03T08:00:35Z</time>
      </trkpt>
      <trkpt lat="47.24516" lon="-1.57416">
        <ele>62</ele>
        <time>2022-05-03T08:00:36Z</time>
      </trkpt>
      <trkpt lat="47.24517" lon="-1.57418">
        <ele>62</ele>
        <time>2022-05-03T08:00:37Z</time>
      </trkpt>
      <trkpt lat="47.24517" lon="-1.5742">
        <ele>62</ele>
        <time>2022-05-03T08:00:38Z</time>
      </trkpt>
      <trkpt lat="47.24517" lon="-1.57422">
        <ele>62</ele>
        <time>2022-05-03T08:00:39Z</time>
      </trkpt>
      <trkpt lat="47.24517" lon="-1.57424">
        <ele>62</ele>
        <time>2022-05-03T08:00:40Z</time>
      </trkpt>
      <trkpt lat="47.24518" lon="-1.57425">
        <ele>62</ele>
        <time>2022-05-03T08:00:41Z</time>
      </trkpt>
      <trkpt lat="47.24518" lon="-1.57427">
        <ele>63</ele>
        <time>2022-05-03T08:00:42Z</time>
      </trkpt>
      <trkpt lat="47.24518" lon="-1.57429">
        <ele>63</ele>
        <time>2022-05-03T08:00:43Z</time>
      </trkpt>
      <trkpt lat="47.24519" lon="-1.5743">
        <ele>63</ele>
        <time>2022-05-03T08:00:44Z</time>
      </trkpt>
      <trkpt lat="47.24519" lon="-1.57432">
        <ele>63</ele>
        <time>2022-05-03T08:00:45Z</time>
      </trkpt>
      <trkpt lat="47.24519" lon="-1.57433">
        <ele>63</ele>
        <time>2022-05-03T08:00:46Z</time>
      </trkpt>
      <trkpt lat="47.2452" lon="-1.57435">
        <ele>64</ele>
        <time>2022-05-03T08:00:47Z</time>
      </trkpt>
      <trkpt lat="47.24521" lon="-1.57436">
        <ele>64</ele>
        <time>2022-05-03T08:00:48Z</time>
      </trkpt>
      <trkpt lat="47.24522" lon="-1.57437">
        <ele>64</ele>
        <time>2022-05-03T08:00:49Z</time>
      </trkpt>
      <trkpt lat="47.24523" lon="-1.57438">
        <ele>65</ele>
        <time>2022-05-03T08:00:50Z</time>
      </trkpt>
      <trkpt lat="47.24524" lon="-1.57439">
        <ele>65</ele>
        <time>2022-05-03T08:00:51Z</time>
      </trkpt>
      <trkpt lat="47.24525" lon="-1.57439">
        <ele>65</ele>
        <time>2022-05-03T08:00:52Z</time>
      </trkpt>
      <trkpt lat="47.24526" lon="-1.5744">
        <ele>66</ele>
        <time>2022-05-03T08:00:53Z</time>
      </trkpt>
      <trkpt lat="47.24526" lon="-1.5744">
        <ele>67</ele>
        <time>2022-05-03T08:00:54Z</time>
      </trkpt>
      <trkpt lat="47.24527" lon="-1.57441">
        <ele>68</ele>
        <time>2022-05-03T08:00:55Z</time>
      </trkpt>
      <trkpt lat="47.24527" lon="-1.57442">
        <ele>68</ele>
        <time>2022-05-03T08:00:56Z</time>
      </trkpt>
      <trkpt lat="47.24528" lon="-1.57443">
        <ele>69</ele>
        <time>2022-05-03T08:00:57Z</time>
      </trkpt>
      <trkpt lat="47.24529" lon="-1.57444">
        <ele>69</ele>
        <time>2022-05-03T08:00:58Z</time>
      </trkpt>
      <trkpt lat="47.2453" lon="-1.57445">
        <ele>70</ele>
        <time>2022-05-03T08:00:59Z</time>
      </trkpt>
      <trkpt lat="47.24531" lon="-1.57447">
        <ele>70</ele>
        <time>2022-05-03T08:01:00Z</time>
      </trkpt>
      <trkpt lat="47.24531" lon="-1.57449">
        <ele>70</ele>
        <time>2022-05-03T08:01:01Z</time>
      </trkpt>
      <trkpt lat="47.24532" lon="-1.57451">
        <ele>70</ele>
        <time>2022-05-03T08:01:02Z</time>
      </trkpt>
      <trkpt lat="47.24532" lon="-1.57453">
        <ele>70</ele>
        <time>2022-05-03T08:01:03Z</time>
      </trkpt>
      <trkpt lat="47.24532" lon="-1.57455">
        <ele>71</ele>
        <time>2022-05-03T08:01:04Z</time>
      </trkpt>
      <trkpt lat="47.24532" lon="-1.57457">
        <ele>71</ele>
        <time>2022-05-03T08:01:05Z</time>
      </trkpt>
      <trkpt lat="47.24533" lon="-1.57459">
        <ele>70</ele>
        <time>2022-05-03T08:01:06Z</time>
      </trkpt>
      <trkpt lat="47.24533" lon="-1.57461">
        <ele>70</ele>
        <time>2022-05-03T08:01:07Z</time>
      </trkpt>
      <trkpt lat="47.24534" lon="-1.57463">
        <ele>69</ele>
        <time>2022-05-03T08:01:08Z</time>
      </trkpt>
      <trkpt lat="47.24535" lon="-1.57465">
        <ele>69</ele>
        <time>2022-05-03T08:01:09Z</time>
      </trkpt>
      <trkpt lat="47.24535" lon="-1.57465">
        <ele>70</ele>
        <time>2022-05-03T08:01:10Z</time>
      </trkpt>
      <trkpt lat="47.24536" lon="-1.57467">
        <ele>70</ele>
        <time>2022-05-03T08:01:11Z</time>
      </trkpt>
      <trkpt lat="47.24537" lon="-1.57468">
        <ele>70</ele>
        <time>2022-05-03T08:01:12Z</time>
      </trkpt>
      <trkpt lat="47.24537" lon="-1.5747">
        <ele>70</ele>
        <time>2022-05-03T08:01:13Z</time>
      </trkpt>
      <trkpt lat="47.24538" lon="-1.57472">
        <ele>70</ele>
        <time>2022-05-03T08:01:14Z</time>
      </trkpt>
      <trkpt lat="47.24538" lon="-1.57474">
        <ele>70</ele>
        <time>2022-05-03T08:01:15Z</time>
      </trkpt>
      <trkpt lat="47.24539" lon="-1.57476">
        <ele>71</ele>
        <time>2022-05-03T08:01:16Z</time>
      </trkpt>
      <trkpt lat="47.24539" lon="-1.57478">
        <ele>71</ele>
        <time>2022-05-03T08:01:17Z</time>
      </trkpt>
      <trkpt lat="47.24539" lon="-1.57479">
        <ele>70</ele>
        <time>2022-05-03T08:01:18Z</time>
      </trkpt>
      <trkpt lat="47.2454" lon="-1.57481">
        <ele>70</ele>
        <time>2022-05-03T08:01:19Z</time>
      </trkpt>
      <trkpt lat="47.2454" lon="-1.57482">
        <ele>70</ele>
        <time>2022-05-03T08:01:20Z</time>
      </trkpt>
      <trkpt lat="47.2454" lon="-1.57484">
        <ele>69</ele>
        <time>2022-05-03T08:01:21Z</time>
      </trkpt>
      <trkpt lat="47.2454" lon="-1.57486">
        <ele>69</ele>
        <time>2022-05-03T08:01:22Z</time>
      </trkpt>
      <trkpt lat="47.24541" lon="-1.57488">
        <ele>69</ele>
        <time>2022-05-03T08:01:23Z</time>
      </trkpt>
      <trkpt lat="47.24542" lon="-1.57489">
        <ele>69</ele>
        <time>2022-05-03T08:01:24Z</time>
      </trkpt>
      <trkpt lat="47.24543" lon="-1.57489">
        <ele>69</ele>
        <time>2022-05-03T08:01:25Z</time>
      </trkpt>
      <trkpt lat="47.24543" lon="-1.57491">
        <ele>69</ele>
        <time>2022-05-03T08:01:26Z</time>
      </trkpt>
      <trkpt lat="47.24544" lon="-1.57492">
        <ele>69</ele>
        <time>2022-05-03T08:01:27Z</time>
      </trkpt>
      <trkpt lat="47.24545" lon="-1.57494">
        <ele>69</ele>
        <time>2022-05-03T08:01:28Z</time>
      </trkpt>
      <trkpt lat="47.24546" lon="-1.57495">
        <ele>70</ele>
        <time>2022-05-03T08:01:29Z</time>
      </trkpt>
      <trkpt lat="47.24547" lon="-1.57497">
        <ele>69</ele>
        <time>2022-05-03T08:01:30Z</time>
      </trkpt>
      <trkpt lat="47.24548" lon="-1.57498">
        <ele>69</ele>
        <time>2022-05-03T08:01:31Z</time>
      </trkpt>
      <trkpt lat="47.24549" lon="-1.57499">
        <ele>70</ele>
        <time>2022-05-03T08:01:32Z</time>
      </trkpt>
      <trkpt lat="47.2455" lon="-1.575">
        <ele>70</ele>
        <time>2022-05-03T08:01:33Z</time>
      </trkpt>
      <trkpt lat="47.24551" lon="-1.57501">
        <ele>71</ele>
        <time>2022-05-03T08:01:34Z</time>
      </trkpt>
      <trkpt lat="47.24552" lon="-1.57502">
        <ele>71</ele>
        <time>2022-05-03T08:01:35Z</time>
      </trkpt>
      <trkpt lat="47.24553" lon="-1.57503">
        <ele>71</ele>
        <time>2022-05-03T08:01:36Z</time>
      </trkpt>
      <trkpt lat="47.24554" lon="-1.57504">
        <ele>72</ele>
        <time>2022-05-03T08:01:37Z</time>
      </trkpt>
      <trkpt lat="47.24556" lon="-1.57505">
        <ele>72</ele>
        <time>2022-05-03T08:01:38Z</time>
      </trkpt>
      <trkpt lat="47.24557" lon="-1.57505">
        <ele>72</ele>
        <time>2022-05-03T08:01:39Z</time>
      </trkpt>
      <trkpt lat="47.24558" lon="-1.57506">
        <ele>72</ele>
        <time>2022-05-03T08:01:40Z</time>
      </trkpt>
      <trkpt lat="47.24559" lon="-1.57507">
        <ele>71</ele>
        <time>2022-05-03T08:01:41Z</time>
      </trkpt>
      <trkpt lat="47.24561" lon="-1.57508">
        <ele>71</ele>
        <time>2022-05-03T08:01:42Z</time>
      </trkpt>
      <trkpt lat="47.24562" lon="-1.57509">
        <ele>71</ele>
        <time>2022-05-03T08:01:43Z</time>
      </trkpt>
      <trkpt lat="47.24563" lon="-1.57511">
        <ele>71</ele>
        <time>2022-05-03T08:01:44Z</time>
      </trkpt>
      <trkpt lat="47.24564" lon="-1.57512">
        <ele>72</ele>
        <time>2022-05-03T08:01:45Z</time>
      </trkpt>
      <trkpt lat="47.24566" lon="-1.57513">
        <ele>72</ele>
        <time>2022-05-03T08:01:46Z</time>
      </trkpt>
      <trkpt lat="47.24566" lon="-1.57514">
        <ele>71</ele>
        <time>2022-05-03T08:01:47Z</time>
      </trkpt>
      <trkpt lat="47.24567" lon="-1.57514">
        <ele>71</ele>
        <time>2022-05-03T08:01:48Z</time>
      </trkpt>
      <trkpt lat="47.24569" lon="-1.57516">
        <ele>71</ele>
        <time>2022-05-03T08:01:49Z</time>
      </trkpt>
      <trkpt lat="47.24571" lon="-1.57517">
        <ele>71</ele>
        <time>2022-05-03T08:01:50Z</time>
      </trkpt>
      <trkpt lat="47.24572" lon="-1.57518">
        <ele>71</ele>
        <time>2022-05-03T08:01:51Z</time>
      </trkpt>
      <trkpt lat="47.24573" lon="-1.57519">
        <ele>72</ele>
        <time>2022-05-03T08:01:52Z</time>
      </trkpt>
      <trkpt lat="47.24574" lon="-1.5752">
        <ele>72</ele>
        <time>2022-05-03T08:01:53Z</time>
      </trkpt>
      <trkpt lat="47.24575" lon="-1.57521">
        <ele>71</ele>
        <time>2022-05-03T08:01:54Z</time>
      </trkpt>
      <trkpt lat="47.24576" lon="-1.57522">
        <ele>71</ele>
        <time>2022-05-03T08:01:55Z</time>
      </trkpt>
      <trkpt lat="47.24577" lon="-1.57524">
        <ele>71</ele>
        <time>2022-05-03T08:01:56Z</time>
      </trkpt>
      <trkpt lat="47.24578" lon="-1.57525">
        <ele>71</ele>
        <time>2022-05-03T08:01:57Z</time>
      </trkpt>
      <trkpt lat="47.24579" lon="-1.57527">
        <ele>71</ele>
        <time>2022-05-03T08:01:58Z</time>
      </trkpt>
      <trkpt lat="47.2458" lon="-1.57529">
        <ele>71</ele>
        <time>2022-05-03T08:01:59Z</time>
      </trkpt>
      <trkpt lat="47.24581" lon="-1.57531">
        <ele>71</ele>
        <time>2022-05-03T08:02:00Z</time>
      </trkpt>
      <trkpt lat="47.24582" lon="-1.57532">
        <ele>71</ele>
        <time>2022-05-03T08:02:01Z</time>
      </trkpt>
      <trkpt lat="47.24583" lon="-1.57533">
        <ele>71</ele>
        <time>2022-05-03T08:02:02Z</time>
      </trkpt>
      <trkpt lat="47.24584" lon="-1.57535">
        <ele>71</ele>
        <time>2022-05-03T08:02:03Z</time>
      </trkpt>
      <trkpt lat="47.24585" lon="-1.57536">
        <ele>71</ele>
        <time>2022-05-03T08:02:04Z</time>
      </trkpt>
      <trkpt lat="47.24586" lon="-1.57537">
        <ele>72</ele>
        <time>2022-05-03T08:02:05Z</time>
      </trkpt>
      <trkpt lat="47.24587" lon="-1.57538">
        <ele>72</ele>
        <time>2022-05-03T08:02:06Z</time>
      </trkpt>
      <trkpt lat="47.24589" lon="-1.5754">
        <ele>72</ele>
        <time>2022-05-03T08:02:07Z</time>
      </trkpt>
      <trkpt lat="47.2459" lon="-1.57542">
        <ele>72</ele>
        <time>2022-05-03T08:02:08Z</time>
      </trkpt>
      <trkpt lat="47.24591" lon="-1.57543">
        <ele>72</ele>
        <time>2022-05-03T08:02:09Z</time>
      </trkpt>
      <trkpt lat="47.24593" lon="-1.57544">
        <ele>72</ele>
        <time>2022-05-03T08:02:10Z</time>
      </trkpt>
      <trkpt lat="47.24594" lon="-1.57545">
        <ele>72</ele>
        <time>2022-05-03T08:02:11Z</time>
      </trkpt>
      <trkpt lat="47.24595" lon="-1.57546">
        <ele>71</ele>
        <time>2022-05-03T08:02:12Z</time>
      </trkpt>
      <trkpt lat="47.24596" lon="-1.57547">
        <ele>71</ele>
        <time>2022-05-03T08:02:13Z</time>
      </trkpt>
      <trkpt lat="47.24597" lon="-1.57548">
        <ele>71</ele>
        <time>2022-05-03T08:02:14Z</time>
      </trkpt>
      <trkpt lat="47.24598" lon="-1.5755">
        <ele>71</ele>
        <time>2022-05-03T08:02:15Z</time>
      </trkpt>
      <trkpt lat="47.24598" lon="-1.57552">
        <ele>71</ele>
        <time>2022-05-03T08:02:16Z</time>
      </trkpt>
      <trkpt lat="47.246" lon="-1.57554">
        <ele>70</ele>
        <time>2022-05-03T08:02:17Z</time>
      </trkpt>
      <trkpt lat="47.24601" lon="-1.57555">
        <ele>70</ele>
        <time>2022-05-03T08:02:18Z</time>
      </trkpt>
      <trkpt lat="47.24601" lon="-1.57556">
        <ele>69</ele>
        <time>2022-05-03T08:02:19Z</time>
      </trkpt>
      <trkpt lat="47.24602" lon="-1.57558">
        <ele>69</ele>
        <time>2022-05-03T08:02:20Z</time>
      </trkpt>
      <trkpt lat="47.24603" lon="-1.5756">
        <ele>68</ele>
        <time>2022-05-03T08:02:21Z</time>
      </trkpt>
      <trkpt lat="47.24604" lon="-1.57561">
        <ele>68</ele>
        <time>2022-05-03T08:02:22Z</time>
      </trkpt>
      <trkpt lat="47.24606" lon="-1.57562">
        <ele>68</ele>
        <time>2022-05-03T08:02:23Z</time>
      </trkpt>
      <trkpt lat="47.24607" lon="-1.57564">
        <ele>67</ele>
        <time>2022-05-03T08:02:24Z</time>
      </trkpt>
      <trkpt lat="47.24608" lon="-1.57565">
        <ele>67</ele>
        <time>2022-05-03T08:02:25Z</time>
      </trkpt>
      <trkpt lat="47.24609" lon="-1.57566">
        <ele>67</ele>
        <time>2022-05-03T08:02:26Z</time>
      </trkpt>
      <trkpt lat="47.24609" lon="-1.57568">
        <ele>67</ele>
        <time>2022-05-03T08:02:27Z</time>
      </trkpt>
      <trkpt lat="47.24611" lon="-1.57569">
        <ele>67</ele>
        <time>2022-05-03T08:02:28Z</time>
      </trkpt>
      <trkpt lat="47.24612" lon="-1.5757">
        <ele>67</ele>
        <time>2022-05-03T08:02:29Z</time>
      </trkpt>
      <trkpt lat="47.24613" lon="-1.5757">
        <ele>66</ele>
        <time>2022-05-03T08:02:30Z</time>
      </trkpt>
      <trkpt lat="47.24614" lon="-1.57572">
        <ele>66</ele>
        <time>2022-05-03T08:02:31Z</time>
      </trkpt>
      <trkpt lat="47.24614" lon="-1.57573">
        <ele>66</ele>
        <time>2022-05-03T08:02:32Z</time>
      </trkpt>
      <trkpt lat="47.24616" lon="-1.57574">
        <ele>65</ele>
        <time>2022-05-03T08:02:33Z</time>
      </trkpt>
      <trkpt lat="47.24616" lon="-1.57575">
        <ele>65</ele>
        <time>2022-05-03T08:02:34Z</time>
      </trkpt>
      <trkpt lat="47.24617" lon="-1.57576">
        <ele>66</ele>
        <time>2022-05-03T08:02:35Z</time>
      </trkpt>
      <trkpt lat="47.24618" lon="-1.57578">
        <ele>66</ele>
        <time>2022-05-03T08:02:36Z</time>
      </trkpt>
      <trkpt lat="47.24619" lon="-1.57579">
        <ele>66</ele>
        <time>2022-05-03T08:02:37Z</time>
      </trkpt>
      <trkpt lat="47.2462" lon="-1.5758">
        <ele>66</ele>
        <time>2022-05-03T08:02:38Z</time>
      </trkpt>
      <trkpt lat="47.24621" lon="-1.57581">
        <ele>66</ele>
        <time>2022-05-03T08:02:39Z</time>
      </trkpt>
      <trkpt lat="47.24622" lon="-1.57582">
        <ele>66</ele>
        <time>2022-05-03T08:02:40Z</time>
      </trkpt>
      <trkpt lat="47.24624" lon="-1.57583">
        <ele>65</ele>
        <time>2022-05-03T08:02:41Z</time>
      </trkpt>
      <trkpt lat="47.24624" lon="-1.57584">
        <ele>65</ele>
        <time>2022-05-03T08:02:42Z</time>
      </trkpt>
      <trkpt lat="47.24626" lon="-1.57585">
        <ele>65</ele>
        <time>2022-05-03T08:02:43Z</time>
      </trkpt>
      <trkpt lat="47.24627" lon="-1.57586">
        <ele>66</ele>
        <time>2022-05-03T08:02:44Z</time>
      </trkpt>
      <trkpt lat="47.24628" lon="-1.57588">
        <ele>66</ele>
        <time>2022-05-03T08:02:45Z</time>
      </trkpt>
      <trkpt lat="47.24629" lon="-1.5759">
        <ele>65</ele>
        <time>2022-05-03T08:02:46Z</time>
      </trkpt>
      <trkpt lat="47.2463" lon="-1.57591">
        <ele>65</ele>
        <time>2022-05-03T08:02:47Z</time>
      </trkpt>
      <trkpt lat="47.2463" lon="-1.57593">
        <ele>65</ele>
        <time>2022-05-03T08:02:48Z</time>
      </trkpt>
      <trkpt lat="47.24632" lon="-1.57594">
        <ele>65</ele>
        <time>2022-05-03T08:02:49Z</time>
      </trkpt>
      <trkpt lat="47.24633" lon="-1.57596">
        <ele>65</ele>
        <time>2022-05-03T08:02:50Z</time>
      </trkpt>
      <trkpt lat="47.24635" lon="-1.57597">
        <ele>65</ele>
        <time>2022-05-03T08:02:51Z</time>
      </trkpt>
      <trkpt lat="47.24636" lon="-1.57598">
        <ele>65</ele>
        <time>2022-05-03T08:02:52Z</time>
      </trkpt>
      <trkpt lat="47.24636" lon="-1.57598">
        <ele>65</ele>
        <time>2022-05-03T08:02:53Z</time>
      </trkpt>
      <trkpt lat="47.24637" lon="-1.576">
        <ele>65</ele>
        <time>2022-05-03T08:02:54Z</time>
      </trkpt>
      <trkpt lat="47.24638" lon="-1.57601">
        <ele>65</ele>
        <time>2022-05-03T08:02:55Z</time>
      </trkpt>
      <trkpt lat="47.24639" lon="-1.57603">
        <ele>65</ele>
        <time>2022-05-03T08:02:56Z</time>
      </trkpt>
      <trkpt lat="47.2464" lon="-1.57604">
        <ele>66</ele>
        <time>2022-05-03T08:02:57Z</time>
      </trkpt>
      <trkpt lat="47.24641" lon="-1.57605">
        <ele>66</ele>
        <time>2022-05-03T08:02:58Z</time>
      </trkpt>
      <trkpt lat="47.24643" lon="-1.57606">
        <ele>66</ele>
        <time>2022-05-03T08:02:59Z</time>
      </trkpt>
      <trkpt lat="47.24644" lon="-1.57608">
        <ele>67</ele>
        <time>2022-05-03T08:03:00Z</time>
      </trkpt>
      <trkpt lat="47.24645" lon="-1.57609">
        <ele>67</ele>
        <time>2022-05-03T08:03:01Z</time>
      </trkpt>
      <trkpt lat="47.24646" lon="-1.5761">
        <ele>68</ele>
        <time>2022-05-03T08:03:02Z</time>
      </trkpt>
      <trkpt lat="47.24646" lon="-1.57612">
        <ele>68</ele>
        <time>2022-05-03T08:03:03Z</time>
      </trkpt>
      <trkpt lat="47.24647" lon="-1.57613">
        <ele>67</ele>
        <time>2022-05-03T08:03:04Z</time>
      </trkpt>
      <trkpt lat="47.24648" lon="-1.57614">
        <ele>67</ele>
        <time>2022-05-03T08:03:05Z</time>
      </trkpt>
      <trkpt lat="47.24649" lon="-1.57615">
        <ele>66</ele>
        <time>2022-05-03T08:03:06Z</time>
      </trkpt>
      <trkpt lat="47.2465" lon="-1.57617">
        <ele>67</ele>
        <time>2022-05-03T08:03:07Z</time>
      </trkpt>
      <trkpt lat="47.24651" lon="-1.57618">
        <ele>66</ele>
        <time>2022-05-03T08:03:08Z</time>
      </trkpt>
      <trkpt lat="47.24653" lon="-1.5762">
        <ele>66</ele>
        <time>2022-05-03T08:03:09Z</time>
      </trkpt>
      <trkpt lat="47.24654" lon="-1.57621">
        <ele>66</ele>
        <time>2022-05-03T08:03:10Z</time>
      </trkpt>
      <trkpt lat="47.24656" lon="-1.57621">
        <ele>66</ele>
        <time>2022-05-03T08:03:11Z</time>
      </trkpt>
      <trkpt lat="47.24657" lon="-1.57622">
        <ele>66</ele>
        <time>2022-05-03T08:03:12Z</time>
      </trkpt>
      <trkpt lat="47.24657" lon="-1.57623">
        <ele>66</ele>
        <time>2022-05-03T08:03:13Z</time>
      </trkpt>
      <trkpt lat="47.24659" lon="-1.57624">
        <ele>65</ele>
        <time>2022-05-03T08:03:14Z</time>
      </trkpt>
      <trkpt lat="47.2466" lon="-1.57625">
        <ele>65</ele>
        <time>2022-05-03T08:03:15Z</time>
      </trkpt>
      <trkpt lat="47.24661" lon="-1.57626">
        <ele>66</ele>
        <time>2022-05-03T08:03:16Z</time>
      </trkpt>
      <trkpt lat="47.24662" lon="-1.57626">
        <ele>67</ele>
        <time>2022-05-03T08:03:17Z</time>
      </trkpt>
      <trkpt lat="47.24664" lon="-1.57627">
        <ele>67</ele>
        <time>2022-05-03T08:03:18Z</time>
      </trkpt>
      <trkpt lat="47.24665" lon="-1.57629">
        <ele>66</ele>
        <time>2022-05-03T08:03:19Z</time>
      </trkpt>
      <trkpt lat="47.24666" lon="-1.5763">
        <ele>66</ele>
        <time>2022-05-03T08:03:20Z</time>
      </trkpt>
      <trkpt lat="47.24667" lon="-1.5763">
        <ele>67</ele>
        <time>2022-05-03T08:03:21Z</time>
      </trkpt>
      <trkpt lat="47.24668" lon="-1.57629">
        <ele>66</ele>
        <time>2022-05-03T08:03:22Z</time>
      </trkpt>
      <trkpt lat="47.24669" lon="-1.57629">
        <ele>66</ele>
        <time>2022-05-03T08:03:23Z</time>
      </trkpt>
      <trkpt lat="47.2467" lon="-1.57629">
        <ele>66</ele>
        <time>2022-05-03T08:03:24Z</time>
      </trkpt>
      <trkpt lat="47.24672" lon="-1.57629">
        <ele>67</ele>
        <time>2022-05-03T08:03:25Z</time>
      </trkpt>
      <trkpt lat="47.24673" lon="-1.5763">
        <ele>67</ele>
        <time>2022-05-03T08:03:26Z</time>
      </trkpt>
      <trkpt lat="47.24675" lon="-1.57629">
        <ele>67</ele>
        <time>2022-05-03T08:03:27Z</time>
      </trkpt>
      <trkpt lat="47.24676" lon="-1.5763">
        <ele>66</ele>
        <time>2022-05-03T08:03:28Z</time>
      </trkpt>
      <trkpt lat="47.24678" lon="-1.5763">
        <ele>66</ele>
        <time>2022-05-03T08:03:29Z</time>
      </trkpt>
      <trkpt lat="47.24679" lon="-1.57631">
        <ele>65</ele>
        <time>2022-05-03T08:03:30Z</time>
      </trkpt>
      <trkpt lat="47.2468" lon="-1.57631">
        <ele>65</ele>
        <time>2022-05-03T08:03:31Z</time>
      </trkpt>
      <trkpt lat="47.24681" lon="-1.57632">
        <ele>65</ele>
        <time>2022-05-03T08:03:32Z</time>
      </trkpt>
      <trkpt lat="47.24682" lon="-1.57632">
        <ele>65</ele>
        <time>2022-05-03T08:03:33Z</time>
      </trkpt>
      <trkpt lat="47.24683" lon="-1.57633">
        <ele>65</ele>
        <time>2022-05-03T08:03:34Z</time>
      </trkpt>
      <trkpt lat="47.24684" lon="-1.57634">
        <ele>65</ele>
        <time>2022-05-03T08:03:35Z</time>
      </trkpt>
      <trkpt lat="47.24686" lon="-1.57635">
        <ele>66</ele>
        <time>2022-05-03T08:03:36Z</time>
      </trkpt>
      <trkpt lat="47.24686" lon="-1.57636">
        <ele>66</ele>
        <time>2022-05-03T08:03:37Z</time>
      </trkpt>
      <trkpt lat="47.24687" lon="-1.57637">
        <ele>66</ele>
        <time>2022-05-03T08:03:38Z</time>
      </trkpt>
      <trkpt lat="47.24688" lon="-1.57639">
        <ele>66</ele>
        <time>2022-05-03T08:03:39Z</time>
      </trkpt>
      <trkpt lat="47.24689" lon="-1.57641">
        <ele>66</ele>
        <time>2022-05-03T08:03:40Z</time>
      </trkpt>
      <trkpt lat="47.2469" lon="-1.57643">
        <ele>66</ele>
        <time>2022-05-03T08:03:41Z</time>
      </trkpt>
      <trkpt lat="47.24691" lon="-1.57644">
        <ele>66</ele>
        <time>2022-05-03T08:03:42Z</time>
      </trkpt>
      <trkpt lat="47.24692" lon="-1.57646">
        <ele>66</ele>
        <time>2022-05-03T08:03:43Z</time>
      </trkpt>
      <trkpt lat="47.24693" lon="-1.57648">
        <ele>66</ele>
        <time>2022-05-03T08:03:44Z</time>
      </trkpt>
      <trkpt lat="47.24694" lon="-1.57649">
        <ele>66</ele>
        <time>2022-05-03T08:03:45Z</time>
      </trkpt>
      <trkpt lat="47.24696" lon="-1.57651">
        <ele>66</ele>
        <time>2022-05-03T08:03:46Z</time>
      </trkpt>
      <trkpt lat="47.24697" lon="-1.57652">
        <ele>66</ele>
        <time>2022-05-03T08:03:47Z</time>
      </trkpt>
      <trkpt lat="47.24698" lon="-1.57653">
        <ele>66</ele>
        <time>2022-05-03T08:03:48Z</time>
      </trkpt>
      <trkpt lat="47.24699" lon="-1.57654">
        <ele>66</ele>
        <time>2022-05-03T08:03:49Z</time>
      </trkpt>
      <trkpt lat="47.24699" lon="-1.57656">
        <ele>66</ele>
        <time>2022-05-03T08:03:50Z</time>
      </trkpt>
      <trkpt lat="47.247" lon="-1.57658">
        <ele>65</ele>
        <time>2022-05-03T08:03:51Z</time>
      </trkpt>
      <trkpt lat="47.24701" lon="-1.5766">
        <ele>65</ele>
        <time>2022-05-03T08:03:52Z</time>
      </trkpt>
      <trkpt lat="47.24702" lon="-1.57661">
        <ele>65</ele>
        <time>2022-05-03T08:03:53Z</time>
      </trkpt>
      <trkpt lat="47.24703" lon="-1.57664">
        <ele>65</ele>
        <time>2022-05-03T08:03:54Z</time>
      </trkpt>
      <trkpt lat="47.24703" lon="-1.57665">
        <ele>65</ele>
        <time>2022-05-03T08:03:55Z</time>
      </trkpt>
      <trkpt lat="47.24704" lon="-1.57667">
        <ele>64</ele>
        <time>2022-05-03T08:03:56Z</time>
      </trkpt>
      <trkpt lat="47.24704" lon="-1.57669">
        <ele>65</ele>
        <time>2022-05-03T08:03:57Z</time>
      </trkpt>
      <trkpt lat="47.24705" lon="-1.57671">
        <ele>65</ele>
        <time>2022-05-03T08:03:58Z</time>
      </trkpt>
      <trkpt lat="47.24706" lon="-1.57673">
        <ele>65</ele>
        <time>2022-05-03T08:03:59Z</time>
      </trkpt>
      <trkpt lat="47.24706" lon="-1.57674">
        <ele>65</ele>
        <time>2022-05-03T08:04:00Z</time>
      </trkpt>
      <trkpt lat="47.24706" lon="-1.57676">
        <ele>64</ele>
        <time>2022-05-03T08:04:01Z</time>
      </trkpt>
      <trkpt lat="47.24706" lon="-1.57677">
        <ele>64</ele>
        <time>2022-05-03T08:04:02Z</time>
      </trkpt>
      <trkpt lat="47.24707" lon="-1.57678">
        <ele>64</ele>
        <time>2022-05-03T08:04:03Z</time>
      </trkpt>
      <trkpt lat="47.24707" lon="-1.5768">
        <ele>64</ele>
        <time>2022-05-03T08:04:04Z</time>
      </trkpt>
      <trkpt lat="47.24707" lon="-1.5768">
        <ele>64</ele>
        <time>2022-05-03T08:04:05Z</time>
      </trkpt>
      <trkpt lat="47.24707" lon="-1.5768">
        <ele>64</ele>
        <time>2022-05-03T08:04:06Z</time>
      </trkpt>
      <trkpt lat="47.24708" lon="-1.57683">
        <ele>64</ele>
        <time>2022-05-03T08:04:07Z</time>
      </trkpt>
      <trkpt lat="47.24709" lon="-1.57684">
        <ele>65</ele>
        <time>2022-05-03T08:04:08Z</time>
      </trkpt>
      <trkpt lat="47.24709" lon="-1.57685">
        <ele>64</ele>
        <time>2022-05-03T08:04:09Z</time>
      </trkpt>
      <trkpt lat="47.2471" lon="-1.57687">
        <ele>64</ele>
        <time>2022-05-03T08:04:10Z</time>
      </trkpt>
      <trkpt lat="47.24711" lon="-1.57688">
        <ele>65</ele>
        <time>2022-05-03T08:04:11Z</time>
      </trkpt>
      <trkpt lat="47.24712" lon="-1.57689">
        <ele>65</ele>
        <time>2022-05-03T08:04:12Z</time>
      </trkpt>
      <trkpt lat="47.24712" lon="-1.57689">
        <ele>65</ele>
        <time>2022-05-03T08:04:13Z</time>
      </trkpt>
      <trkpt lat="47.24714" lon="-1.57689">
        <ele>65</ele>
        <time>2022-05-03T08:04:14Z</time>
      </trkpt>
      <trkpt lat="47.24714" lon="-1.5769">
        <ele>65</ele>
        <time>2022-05-03T08:04:15Z</time>
      </trkpt>
      <trkpt lat="47.24715" lon="-1.57691">
        <ele>65</ele>
        <time>2022-05-03T08:04:16Z</time>
      </trkpt>
      <trkpt lat="47.24716" lon="-1.57692">
        <ele>65</ele>
        <time>2022-05-03T08:04:17Z</time>
      </trkpt>
      <trkpt lat="47.24717" lon="-1.57693">
        <ele>64</ele>
        <time>2022-05-03T08:04:18Z</time>
      </trkpt>
      <trkpt lat="47.24719" lon="-1.57694">
        <ele>63</ele>
        <time>2022-05-03T08:04:19Z</time>
      </trkpt>
      <trkpt lat="47.2472" lon="-1.57695">
        <ele>63</ele>
        <time>2022-05-03T08:04:20Z</time>
      </trkpt>
      <trkpt lat="47.24722" lon="-1.57697">
        <ele>63</ele>
        <time>2022-05-03T08:04:21Z</time>
      </trkpt>
      <trkpt lat="47.24722" lon="-1.57697">
        <ele>63</ele>
        <time>2022-05-03T08:04:22Z</time>
      </trkpt>
      <trkpt lat="47.24725" lon="-1.577">
        <ele>62</ele>
        <time>2022-05-03T08:04:23Z</time>
      </trkpt>
      <trkpt lat="47.24726" lon="-1.57702">
        <ele>61</ele>
        <time>2022-05-03T08:04:24Z</time>
      </trkpt>
      <trkpt lat="47.24727" lon="-1.57704">
        <ele>60</ele>
        <time>2022-05-03T08:04:25Z</time>
      </trkpt>
      <trkpt lat="47.24728" lon="-1.57706">
        <ele>59</ele>
        <time>2022-05-03T08:04:26Z</time>
      </trkpt>
      <trkpt lat="47.24728" lon="-1.57707">
        <ele>59</ele>
        <time>2022-05-03T08:04:27Z</time>
      </trkpt>
      <trkpt lat="47.24728" lon="-1.57709">
        <ele>59</ele>
        <time>2022-05-03T08:04:28Z</time>
      </trkpt>
      <trkpt lat="47.24728" lon="-1.57709">
        <ele>59</ele>
        <time>2022-05-03T08:04:29Z</time>
      </trkpt>
      <trkpt lat="47.24728" lon="-1.57709">
        <ele>59</ele>
        <time>2022-05-03T08:04:30Z</time>
      </trkpt>
      <trkpt lat="47.2473" lon="-1.57712">
        <ele>58</ele>
        <time>2022-05-03T08:04:31Z</time>
      </trkpt>
      <trkpt lat="47.24731" lon="-1.57714">
        <ele>57</ele>
        <time>2022-05-03T08:04:32Z</time>
      </trkpt>
      <trkpt lat="47.24731" lon="-1.57716">
        <ele>57</ele>
        <time>2022-05-03T08:04:33Z</time>
      </trkpt>
      <trkpt lat="47.24731" lon="-1.57717">
        <ele>57</ele>
        <time>2022-05-03T08:04:34Z</time>
      </trkpt>
      <trkpt lat="47.24732" lon="-1.57718">
        <ele>56</ele>
        <time>2022-05-03T08:04:35Z</time>
      </trkpt>
      <trkpt lat="47.24732" lon="-1.57719">
        <ele>56</ele>
        <time>2022-05-03T08:04:36Z</time>
      </trkpt>
      <trkpt lat="47.24732" lon="-1.57719">
        <ele>56</ele>
        <time>2022-05-03T08:04:37Z</time>
      </trkpt>
      <trkpt lat="47.24732" lon="-1.57719">
        <ele>56</ele>
        <time>2022-05-03T08:04:38Z</time>
      </trkpt>
      <trkpt lat="47.24733" lon="-1.57723">
        <ele>56</ele>
        <time>2022-05-03T08:04:39Z</time>
      </trkpt>
      <trkpt lat="47.24733" lon="-1.57725">
        <ele>56</ele>
        <time>2022-05-03T08:04:40Z</time>
      </trkpt>
      <trkpt lat="47.24733" lon="-1.57727">
        <ele>56</ele>
        <time>2022-05-03T08:04:41Z</time>
      </trkpt>
      <trkpt lat="47.24732" lon="-1.57728">
        <ele>56</ele>
        <time>2022-05-03T08:04:42Z</time>
      </trkpt>
      <trkpt lat="47.24731" lon="-1.57729">
        <ele>56</ele>
        <time>2022-05-03T08:04:43Z</time>
      </trkpt>
      <trkpt lat="47.2473" lon="-1.5773">
        <ele>57</ele>
        <time>2022-05-03T08:04:44Z</time>
      </trkpt>
      <trkpt lat="47.24729" lon="-1.57731">
        <ele>57</ele>
        <time>2022-05-03T08:04:45Z</time>
      </trkpt>
      <trkpt lat="47.24728" lon="-1.57731">
        <ele>57</ele>
        <time>2022-05-03T08:04:46Z</time>
      </trkpt>
      <trkpt lat="47.24727" lon="-1.57731">
        <ele>57</ele>
        <time>2022-05-03T08:04:47Z</time>
      </trkpt>
      <trkpt lat="47.24726" lon="-1.57732">
        <ele>57</ele>
        <time>2022-05-03T08:04:48Z</time>
      </trkpt>
      <trkpt lat="47.24724" lon="-1.57732">
        <ele>57</ele>
        <time>2022-05-03T08:04:49Z</time>
      </trkpt>
      <trkpt lat="47.24723" lon="-1.57732">
        <ele>58</ele>
        <time>2022-05-03T08:04:50Z</time>
      </trkpt>
      <trkpt lat="47.24722" lon="-1.57732">
        <ele>58</ele>
        <time>2022-05-03T08:04:51Z</time>
      </trkpt>
      <trkpt lat="47.24721" lon="-1.57732">
        <ele>58</ele>
        <time>2022-05-03T08:04:52Z</time>
      </trkpt>
      <trkpt lat="47.2472" lon="-1.57732">
        <ele>58</ele>
        <time>2022-05-03T08:04:53Z</time>
      </trkpt>
      <trkpt lat="47.24719" lon="-1.57732">
        <ele>59</ele>
        <time>2022-05-03T08:04:54Z</time>
      </trkpt>
      <trkpt lat="47.24718" lon="-1.57733">
        <ele>59</ele>
        <time>2022-05-03T08:04:55Z</time>
      </trkpt>
      <trkpt lat="47.24717" lon="-1.57733">
        <ele>59</ele>
        <time>2022-05-03T08:04:56Z</time>
      </trkpt>
      <trkpt lat="47.24717" lon="-1.57733">
        <ele>60</ele>
        <time>2022-05-03T08:04:57Z</time>
      </trkpt>
      <trkpt lat="47.24716" lon="-1.57733">
        <ele>60</ele>
        <time>2022-05-03T08:04:58Z</time>
      </trkpt>
      <trkpt lat="47.24715" lon="-1.57733">
        <ele>60</ele>
        <time>2022-05-03T08:04:59Z</time>
      </trkpt>
      <trkpt lat="47.24714" lon="-1.57732">
        <ele>60</ele>
        <time>2022-05-03T08:05:00Z</time>
      </trkpt>
      <trkpt lat="47.24713" lon="-1.57732">
        <ele>60</ele>
        <time>2022-05-03T08:05:01Z</time>
      </trkpt>
      <trkpt lat="47.24712" lon="-1.57732">
        <ele>60</ele>
        <time>2022-05-03T08:05:02Z</time>
      </trkpt>
      <trkpt lat="47.24711" lon="-1.57732">
        <ele>60</ele>
        <time>2022-05-03T08:05:03Z</time>
      </trkpt>
      <trkpt lat="47.2471" lon="-1.57731">
        <ele>60</ele>
        <time>2022-05-03T08:05:04Z</time>
      </trkpt>
      <trkpt lat="47.24709" lon="-1.5773">
        <ele>60</ele>
        <time>2022-05-03T08:05:05Z</time>
      </trkpt>
      <trkpt lat="47.24708" lon="-1.5773">
        <ele>60</ele>
        <time>2022-05-03T08:05:06Z</time>
      </trkpt>
      <trkpt lat="47.24707" lon="-1.5773">
        <ele>60</ele>
        <time>2022-05-03T08:05:07Z</time>
      </trkpt>
      <trkpt lat="47.24706" lon="-1.57729">
        <ele>60</ele>
        <time>2022-05-03T08:05:08Z</time>
      </trkpt>
      <trkpt lat="47.24704" lon="-1.57729">
        <ele>60</ele>
        <time>2022-05-03T08:05:09Z</time>
      </trkpt>
      <trkpt lat="47.24703" lon="-1.57728">
        <ele>61</ele>
        <time>2022-05-03T08:05:10Z</time>
      </trkpt>
      <trkpt lat="47.24702" lon="-1.57728">
        <ele>61</ele>
        <time>2022-05-03T08:05:11Z</time>
      </trkpt>
      <trkpt lat="47.24701" lon="-1.57728">
        <ele>61</ele>
        <time>2022-05-03T08:05:12Z</time>
      </trkpt>
      <trkpt lat="47.247" lon="-1.57728">
        <ele>62</ele>
        <time>2022-05-03T08:05:13Z</time>
      </trkpt>
      <trkpt lat="47.24699" lon="-1.57728">
        <ele>62</ele>
        <time>2022-05-03T08:05:14Z</time>
      </trkpt>
      <trkpt lat="47.24698" lon="-1.57728">
        <ele>62</ele>
        <time>2022-05-03T08:05:15Z</time>
      </trkpt>
      <trkpt lat="47.24698" lon="-1.57727">
        <ele>62</ele>
        <time>2022-05-03T08:05:16Z</time>
      </trkpt>
      <trkpt lat="47.24697" lon="-1.57727">
        <ele>63</ele>
        <time>2022-05-03T08:05:17Z</time>
      </trkpt>
      <trkpt lat="47.24696" lon="-1.57727">
        <ele>62</ele>
        <time>2022-05-03T08:05:18Z</time>
      </trkpt>
      <trkpt lat="47.24696" lon="-1.57726">
        <ele>62</ele>
        <time>2022-05-03T08:05:19Z</time>
      </trkpt>
      <trkpt lat="47.24696" lon="-1.57727">
        <ele>62</ele>
        <time>2022-05-03T08:05:20Z</time>
      </trkpt>
      <trkpt lat="47.24695" lon="-1.57727">
        <ele>61</ele>
        <time>2022-05-03T08:05:21Z</time>
      </trkpt>
      <trkpt lat="47.24694" lon="-1.57728">
        <ele>61</ele>
        <time>2022-05-03T08:05:22Z</time>
      </trkpt>
      <trkpt lat="47.24694" lon="-1.57729">
        <ele>61</ele>
        <time>2022-05-03T08:05:23Z</time>
      </trkpt>
      <trkpt lat="47.24693" lon="-1.5773">
        <ele>61</ele>
        <time>2022-05-03T08:05:24Z</time>
      </trkpt>
      <trkpt lat="47.24693" lon="-1.57732">
        <ele>61</ele>
        <time>2022-05-03T08:05:25Z</time>
      </trkpt>
      <trkpt lat="47.24692" lon="-1.57734">
        <ele>61</ele>
        <time>2022-05-03T08:05:26Z</time>
      </trkpt>
      <trkpt lat="47.24691" lon="-1.57736">
        <ele>61</ele>
        <time>2022-05-03T08:05:27Z</time>
      </trkpt>
      <trkpt lat="47.24691" lon="-1.57737">
        <ele>61</ele>
        <time>2022-05-03T08:05:28Z</time>
      </trkpt>
      <trkpt lat="47.2469" lon="-1.57739">
        <ele>61</ele>
        <time>2022-05-03T08:05:30Z</time>
      </trkpt>
      <trkpt lat="47.24689" lon="-1.5774">
        <ele>61</ele>
        <time>2022-05-03T08:05:31Z</time>
      </trkpt>
      <trkpt lat="47.24688" lon="-1.57741">
        <ele>60</ele>
        <time>2022-05-03T08:05:32Z</time>
      </trkpt>
      <trkpt lat="47.24688" lon="-1.57742">
        <ele>60</ele>
        <time>2022-05-03T08:05:33Z</time>
      </trkpt>
      <trkpt lat="47.24688" lon="-1.57743">
        <ele>60</ele>
        <time>2022-05-03T08:05:34Z</time>
      </trkpt>
      <trkpt lat="47.24687" lon="-1.57744">
        <ele>60</ele>
        <time>2022-05-03T08:05:35Z</time>
      </trkpt>
      <trkpt lat="47.24687" lon="-1.57746">
        <ele>60</ele>
        <time>2022-05-03T08:05:36Z</time>
      </trkpt>
      <trkpt lat="47.24687" lon="-1.57747">
        <ele>60</ele>
        <time>2022-05-03T08:05:37Z</time>
      </trkpt>
      <trkpt lat="47.24687" lon="-1.57748">
        <ele>60</ele>
        <time>2022-05-03T08:05:38Z</time>
      </trkpt>
      <trkpt lat="47.24686" lon="-1.57749">
        <ele>59</ele>
        <time>2022-05-03T08:05:39Z</time>
      </trkpt>
      <trkpt lat="47.24686" lon="-1.5775">
        <ele>59</ele>
        <time>2022-05-03T08:05:40Z</time>
      </trkpt>
      <trkpt lat="47.24686" lon="-1.5775">
        <ele>59</ele>
        <time>2022-05-03T08:05:41Z</time>
      </trkpt>
      <trkpt lat="47.24686" lon="-1.57752">
        <ele>59</ele>
        <time>2022-05-03T08:05:42Z</time>
      </trkpt>
      <trkpt lat="47.24685" lon="-1.57753">
        <ele>58</ele>
        <time>2022-05-03T08:05:43Z</time>
      </trkpt>
      <trkpt lat="47.24685" lon="-1.57754">
        <ele>58</ele>
        <time>2022-05-03T08:05:44Z</time>
      </trkpt>
      <trkpt lat="47.24685" lon="-1.57755">
        <ele>58</ele>
        <time>2022-05-03T08:05:45Z</time>
      </trkpt>
      <trkpt lat="47.24685" lon="-1.57756">
        <ele>58</ele>
        <time>2022-05-03T08:05:46Z</time>
      </trkpt>
      <trkpt lat="47.24685" lon="-1.57758">
        <ele>58</ele>
        <time>2022-05-03T08:05:47Z</time>
      </trkpt>
      <trkpt lat="47.24684" lon="-1.5776">
        <ele>57</ele>
        <time>2022-05-03T08:05:48Z</time>
      </trkpt>
      <trkpt lat="47.24684" lon="-1.57762">
        <ele>57</ele>
        <time>2022-05-03T08:05:49Z</time>
      </trkpt>
      <trkpt lat="47.24684" lon="-1.57763">
        <ele>57</ele>
        <time>2022-05-03T08:05:50Z</time>
      </trkpt>
      <trkpt lat="47.24684" lon="-1.57765">
        <ele>57</ele>
        <time>2022-05-03T08:05:51Z</time>
      </trkpt>
      <trkpt lat="47.24683" lon="-1.57766">
        <ele>57</ele>
        <time>2022-05-03T08:05:52Z</time>
      </trkpt>
      <trkpt lat="47.24683" lon="-1.57769">
        <ele>57</ele>
        <time>2022-05-03T08:05:53Z</time>
      </trkpt>
      <trkpt lat="47.24682" lon="-1.57771">
        <ele>57</ele>
        <time>2022-05-03T08:05:54Z</time>
      </trkpt>
      <trkpt lat="47.24682" lon="-1.57773">
        <ele>57</ele>
        <time>2022-05-03T08:05:55Z</time>
      </trkpt>
      <trkpt lat="47.24681" lon="-1.57776">
        <ele>57</ele>
        <time>2022-05-03T08:05:56Z</time>
      </trkpt>
      <trkpt lat="47.2468" lon="-1.57777">
        <ele>57</ele>
        <time>2022-05-03T08:05:57Z</time>
      </trkpt>
      <trkpt lat="47.24679" lon="-1.57778">
        <ele>57</ele>
        <time>2022-05-03T08:05:58Z</time>
      </trkpt>
      <trkpt lat="47.24678" lon="-1.57779">
        <ele>57</ele>
        <time>2022-05-03T08:05:59Z</time>
      </trkpt>
      <trkpt lat="47.24678" lon="-1.57779">
        <ele>56</ele>
        <time>2022-05-03T08:06:00Z</time>
      </trkpt>
      <trkpt lat="47.24677" lon="-1.57781">
        <ele>56</ele>
        <time>2022-05-03T08:06:01Z</time>
      </trkpt>
      <trkpt lat="47.24677" lon="-1.57783">
        <ele>56</ele>
        <time>2022-05-03T08:06:02Z</time>
      </trkpt>
      <trkpt lat="47.24677" lon="-1.57784">
        <ele>56</ele>
        <time>2022-05-03T08:06:03Z</time>
      </trkpt>
      <trkpt lat="47.24676" lon="-1.57785">
        <ele>56</ele>
        <time>2022-05-03T08:06:04Z</time>
      </trkpt>
      <trkpt lat="47.24676" lon="-1.57785">
        <ele>56</ele>
        <time>2022-05-03T08:06:05Z</time>
      </trkpt>
      <trkpt lat="47.24676" lon="-1.57786">
        <ele>56</ele>
        <time>2022-05-03T08:06:06Z</time>
      </trkpt>
      <trkpt lat="47.24676" lon="-1.57786">
        <ele>56</ele>
        <time>2022-05-03T08:06:07Z</time>
      </trkpt>
      <trkpt lat="47.24676" lon="-1.57787">
        <ele>56</ele>
        <time>2022-05-03T08:06:08Z</time>
      </trkpt>
      <trkpt lat="47.24675" lon="-1.57787">
        <ele>55</ele>
        <time>2022-05-03T08:06:09Z</time>
      </trkpt>
      <trkpt lat="47.24674" lon="-1.57788">
        <ele>56</ele>
        <time>2022-05-03T08:06:10Z</time>
      </trkpt>
      <trkpt lat="47.24674" lon="-1.57788">
        <ele>56</ele>
        <time>2022-05-03T08:06:11Z</time>
      </trkpt>
      <trkpt lat="47.24675" lon="-1.57789">
        <ele>56</ele>
        <time>2022-05-03T08:06:12Z</time>
      </trkpt>
      <trkpt lat="47.24675" lon="-1.57791">
        <ele>57</ele>
        <time>2022-05-03T08:06:13Z</time>
      </trkpt>
      <trkpt lat="47.24676" lon="-1.57793">
        <ele>57</ele>
        <time>2022-05-03T08:06:14Z</time>
      </trkpt>
      <trkpt lat="47.24676" lon="-1.57794">
        <ele>58</ele>
        <time>2022-05-03T08:06:15Z</time>
      </trkpt>
      <trkpt lat="47.24676" lon="-1.57794">
        <ele>58</ele>
        <time>2022-05-03T08:06:16Z</time>
      </trkpt>
      <trkpt lat="47.24676" lon="-1.57794">
        <ele>58</ele>
        <time>2022-05-03T08:06:17Z</time>
      </trkpt>
      <trkpt lat="47.24676" lon="-1.57794">
        <ele>58</ele>
        <time>2022-05-03T08:06:18Z</time>
      </trkpt>
      <trkpt lat="47.24675" lon="-1.57795">
        <ele>58</ele>
        <time>2022-05-03T08:06:19Z</time>
      </trkpt>
      <trkpt lat="47.24675" lon="-1.57795">
        <ele>57</ele>
        <time>2022-05-03T08:06:20Z</time>
      </trkpt>
      <trkpt lat="47.24674" lon="-1.57795">
        <ele>56</ele>
        <time>2022-05-03T08:06:21Z</time>
      </trkpt>
      <trkpt lat="47.24674" lon="-1.57796">
        <ele>56</ele>
        <time>2022-05-03T08:06:22Z</time>
      </trkpt>
      <trkpt lat="47.24673" lon="-1.57796">
        <ele>56</ele>
        <time>2022-05-03T08:06:23Z</time>
      </trkpt>
      <trkpt lat="47.24672" lon="-1.57796">
        <ele>55</ele>
        <time>2022-05-03T08:06:24Z</time>
      </trkpt>
      <trkpt lat="47.24671" lon="-1.57795">
        <ele>55</ele>
        <time>2022-05-03T08:06:25Z</time>
      </trkpt>
      <trkpt lat="47.2467" lon="-1.57795">
        <ele>55</ele>
        <time>2022-05-03T08:06:26Z</time>
      </trkpt>
      <trkpt lat="47.2467" lon="-1.57795">
        <ele>55</ele>
        <time>2022-05-03T08:06:27Z</time>
      </trkpt>
      <trkpt lat="47.24669" lon="-1.57795">
        <ele>55</ele>
        <time>2022-05-03T08:06:28Z</time>
      </trkpt>
      <trkpt lat="47.24668" lon="-1.57795">
        <ele>55</ele>
        <time>2022-05-03T08:06:29Z</time>
      </trkpt>
      <trkpt lat="47.24667" lon="-1.57795">
        <ele>55</ele>
        <time>2022-05-03T08:06:30Z</time>
      </trkpt>
      <trkpt lat="47.24666" lon="-1.57795">
        <ele>55</ele>
        <time>2022-05-03T08:06:31Z</time>
      </trkpt>
      <trkpt lat="47.24666" lon="-1.57795">
        <ele>55</ele>
        <time>2022-05-03T08:06:32Z</time>
      </trkpt>
      <trkpt lat="47.24665" lon="-1.57795">
        <ele>55</ele>
        <time>2022-05-03T08:06:33Z</time>
      </trkpt>
      <trkpt lat="47.24664" lon="-1.57795">
        <ele>55</ele>
        <time>2022-05-03T08:06:34Z</time>
      </trkpt>
      <trkpt lat="47.24663" lon="-1.57796">
        <ele>54</ele>
        <time>2022-05-03T08:06:35Z</time>
      </trkpt>
      <trkpt lat="47.24662" lon="-1.57797">
        <ele>54</ele>
        <time>2022-05-03T08:06:36Z</time>
      </trkpt>
      <trkpt lat="47.24661" lon="-1.57797">
        <ele>54</ele>
        <time>2022-05-03T08:06:37Z</time>
      </trkpt>
      <trkpt lat="47.24659" lon="-1.57797">
        <ele>53</ele>
        <time>2022-05-03T08:06:38Z</time>
      </trkpt>
      <trkpt lat="47.24658" lon="-1.57796">
        <ele>53</ele>
        <time>2022-05-03T08:06:39Z</time>
      </trkpt>
      <trkpt lat="47.24658" lon="-1.57796">
        <ele>53</ele>
        <time>2022-05-03T08:06:40Z</time>
      </trkpt>
      <trkpt lat="47.24658" lon="-1.57796">
        <ele>53</ele>
        <time>2022-05-03T08:06:41Z</time>
      </trkpt>
      <trkpt lat="47.24656" lon="-1.57797">
        <ele>54</ele>
        <time>2022-05-03T08:06:42Z</time>
      </trkpt>
      <trkpt lat="47.24655" lon="-1.57797">
        <ele>54</ele>
        <time>2022-05-03T08:06:43Z</time>
      </trkpt>
      <trkpt lat="47.24654" lon="-1.57798">
        <ele>53</ele>
        <time>2022-05-03T08:06:44Z</time>
      </trkpt>
      <trkpt lat="47.24653" lon="-1.57798">
        <ele>54</ele>
        <time>2022-05-03T08:06:45Z</time>
      </trkpt>
      <trkpt lat="47.24652" lon="-1.57799">
        <ele>54</ele>
        <time>2022-05-03T08:06:46Z</time>
      </trkpt>
      <trkpt lat="47.24651" lon="-1.578">
        <ele>54</ele>
        <time>2022-05-03T08:06:47Z</time>
      </trkpt>
      <trkpt lat="47.2465" lon="-1.57802">
        <ele>54</ele>
        <time>2022-05-03T08:06:48Z</time>
      </trkpt>
      <trkpt lat="47.24649" lon="-1.57803">
        <ele>54</ele>
        <time>2022-05-03T08:06:49Z</time>
      </trkpt>
      <trkpt lat="47.24648" lon="-1.57804">
        <ele>54</ele>
        <time>2022-05-03T08:06:50Z</time>
      </trkpt>
      <trkpt lat="47.24646" lon="-1.57805">
        <ele>54</ele>
        <time>2022-05-03T08:06:51Z</time>
      </trkpt>
      <trkpt lat="47.24645" lon="-1.57805">
        <ele>54</ele>
        <time>2022-05-03T08:06:52Z</time>
      </trkpt>
      <trkpt lat="47.24644" lon="-1.57806">
        <ele>54</ele>
        <time>2022-05-03T08:06:53Z</time>
      </trkpt>
      <trkpt lat="47.24643" lon="-1.57807">
        <ele>55</ele>
        <time>2022-05-03T08:06:54Z</time>
      </trkpt>
      <trkpt lat="47.24642" lon="-1.57808">
        <ele>55</ele>
        <time>2022-05-03T08:06:55Z</time>
      </trkpt>
      <trkpt lat="47.24641" lon="-1.57809">
        <ele>55</ele>
        <time>2022-05-03T08:06:56Z</time>
      </trkpt>
      <trkpt lat="47.2464" lon="-1.5781">
        <ele>55</ele>
        <time>2022-05-03T08:06:57Z</time>
      </trkpt>
      <trkpt lat="47.24639" lon="-1.57811">
        <ele>56</ele>
        <time>2022-05-03T08:06:58Z</time>
      </trkpt>
      <trkpt lat="47.24638" lon="-1.57812">
        <ele>55</ele>
        <time>2022-05-03T08:06:59Z</time>
      </trkpt>
      <trkpt lat="47.24637" lon="-1.57813">
        <ele>55</ele>
        <time>2022-05-03T08:07:00Z</time>
      </trkpt>
      <trkpt lat="47.24637" lon="-1.57814">
        <ele>55</ele>
        <time>2022-05-03T08:07:01Z</time>
      </trkpt>
      <trkpt lat="47.24636" lon="-1.57815">
        <ele>55</ele>
        <time>2022-05-03T08:07:02Z</time>
      </trkpt>
      <trkpt lat="47.24635" lon="-1.57817">
        <ele>55</ele>
        <time>2022-05-03T08:07:03Z</time>
      </trkpt>
      <trkpt lat="47.24634" lon="-1.57818">
        <ele>55</ele>
        <time>2022-05-03T08:07:04Z</time>
      </trkpt>
      <trkpt lat="47.24634" lon="-1.5782">
        <ele>55</ele>
        <time>2022-05-03T08:07:05Z</time>
      </trkpt>
      <trkpt lat="47.24633" lon="-1.57821">
        <ele>55</ele>
        <time>2022-05-03T08:07:06Z</time>
      </trkpt>
      <trkpt lat="47.24632" lon="-1.57822">
        <ele>55</ele>
        <time>2022-05-03T08:07:07Z</time>
      </trkpt>
      <trkpt lat="47.24631" lon="-1.57823">
        <ele>55</ele>
        <time>2022-05-03T08:07:08Z</time>
      </trkpt>
      <trkpt lat="47.2463" lon="-1.57823">
        <ele>56</ele>
        <time>2022-05-03T08:07:09Z</time>
      </trkpt>
      <trkpt lat="47.2463" lon="-1.57824">
        <ele>56</ele>
        <time>2022-05-03T08:07:10Z</time>
      </trkpt>
      <trkpt lat="47.24629" lon="-1.57825">
        <ele>56</ele>
        <time>2022-05-03T08:07:11Z</time>
      </trkpt>
      <trkpt lat="47.24629" lon="-1.57825">
        <ele>56</ele>
        <time>2022-05-03T08:07:12Z</time>
      </trkpt>
      <trkpt lat="47.24629" lon="-1.57825">
        <ele>56</ele>
        <time>2022-05-03T08:07:13Z</time>
      </trkpt>
      <trkpt lat="47.24627" lon="-1.57827">
        <ele>56</ele>
        <time>2022-05-03T08:07:14Z</time>
      </trkpt>
      <trkpt lat="47.24627" lon="-1.57828">
        <ele>56</ele>
        <time>2022-05-03T08:07:15Z</time>
      </trkpt>
      <trkpt lat="47.24625" lon="-1.57829">
        <ele>56</ele>
        <time>2022-05-03T08:07:16Z</time>
      </trkpt>
      <trkpt lat="47.24625" lon="-1.5783">
        <ele>56</ele>
        <time>2022-05-03T08:07:17Z</time>
      </trkpt>
      <trkpt lat="47.24624" lon="-1.5783">
        <ele>56</ele>
        <time>2022-05-03T08:07:18Z</time>
      </trkpt>
      <trkpt lat="47.24623" lon="-1.57831">
        <ele>56</ele>
        <time>2022-05-03T08:07:19Z</time>
      </trkpt>
      <trkpt lat="47.24622" lon="-1.57832">
        <ele>56</ele>
        <time>2022-05-03T08:07:20Z</time>
      </trkpt>
      <trkpt lat="47.24622" lon="-1.57833">
        <ele>56</ele>
        <time>2022-05-03T08:07:21Z</time>
      </trkpt>
      <trkpt lat="47.24622" lon="-1.57833">
        <ele>56</ele>
        <time>2022-05-03T08:07:22Z</time>
      </trkpt>
      <trkpt lat="47.24622" lon="-1.57833">
        <ele>56</ele>
        <time>2022-05-03T08:07:23Z</time>
      </trkpt>
      <trkpt lat="47.2462" lon="-1.57835">
        <ele>58</ele>
        <time>2022-05-03T08:07:24Z</time>
      </trkpt>
      <trkpt lat="47.2462" lon="-1.57836">
        <ele>58</ele>
        <time>2022-05-03T08:07:25Z</time>
      </trkpt>
      <trkpt lat="47.24619" lon="-1.57836">
        <ele>58</ele>
        <time>2022-05-03T08:07:26Z</time>
      </trkpt>
      <trkpt lat="47.24617" lon="-1.57837">
        <ele>58</ele>
        <time>2022-05-03T08:07:27Z</time>
      </trkpt>
      <trkpt lat="47.24616" lon="-1.57838">
        <ele>58</ele>
        <time>2022-05-03T08:07:28Z</time>
      </trkpt>
      <trkpt lat="47.24614" lon="-1.57839">
        <ele>58</ele>
        <time>2022-05-03T08:07:29Z</time>
      </trkpt>
      <trkpt lat="47.24613" lon="-1.5784">
        <ele>58</ele>
        <time>2022-05-03T08:07:30Z</time>
      </trkpt>
      <trkpt lat="47.24612" lon="-1.57841">
        <ele>58</ele>
        <time>2022-05-03T08:07:31Z</time>
      </trkpt>
      <trkpt lat="47.24611" lon="-1.57841">
        <ele>58</ele>
        <time>2022-05-03T08:07:32Z</time>
      </trkpt>
      <trkpt lat="47.2461" lon="-1.57842">
        <ele>59</ele>
        <time>2022-05-03T08:07:33Z</time>
      </trkpt>
      <trkpt lat="47.24609" lon="-1.57843">
        <ele>59</ele>
        <time>2022-05-03T08:07:34Z</time>
      </trkpt>
      <trkpt lat="47.24608" lon="-1.57844">
        <ele>60</ele>
        <time>2022-05-03T08:07:35Z</time>
      </trkpt>
      <trkpt lat="47.24607" lon="-1.57845">
        <ele>60</ele>
        <time>2022-05-03T08:07:36Z</time>
      </trkpt>
      <trkpt lat="47.24606" lon="-1.57846">
        <ele>60</ele>
        <time>2022-05-03T08:07:37Z</time>
      </trkpt>
      <trkpt lat="47.24604" lon="-1.57848">
        <ele>60</ele>
        <time>2022-05-03T08:07:38Z</time>
      </trkpt>
      <trkpt lat="47.24603" lon="-1.57851">
        <ele>60</ele>
        <time>2022-05-03T08:07:39Z</time>
      </trkpt>
      <trkpt lat="47.24601" lon="-1.57852">
        <ele>60</ele>
        <time>2022-05-03T08:07:40Z</time>
      </trkpt>
      <trkpt lat="47.246" lon="-1.57854">
        <ele>60</ele>
        <time>2022-05-03T08:07:41Z</time>
      </trkpt>
      <trkpt lat="47.246" lon="-1.57855">
        <ele>60</ele>
        <time>2022-05-03T08:07:42Z</time>
      </trkpt>
      <trkpt lat="47.24598" lon="-1.57857">
        <ele>60</ele>
        <time>2022-05-03T08:07:43Z</time>
      </trkpt>
      <trkpt lat="47.24598" lon="-1.57858">
        <ele>60</ele>
        <time>2022-05-03T08:07:44Z</time>
      </trkpt>
      <trkpt lat="47.24596" lon="-1.5786">
        <ele>61</ele>
        <time>2022-05-03T08:07:45Z</time>
      </trkpt>
      <trkpt lat="47.24595" lon="-1.57861">
        <ele>61</ele>
        <time>2022-05-03T08:07:46Z</time>
      </trkpt>
      <trkpt lat="47.24594" lon="-1.57862">
        <ele>61</ele>
        <time>2022-05-03T08:07:47Z</time>
      </trkpt>
      <trkpt lat="47.24593" lon="-1.57862">
        <ele>61</ele>
        <time>2022-05-03T08:07:48Z</time>
      </trkpt>
      <trkpt lat="47.24592" lon="-1.57862">
        <ele>62</ele>
        <time>2022-05-03T08:07:49Z</time>
      </trkpt>
      <trkpt lat="47.24591" lon="-1.57862">
        <ele>62</ele>
        <time>2022-05-03T08:07:50Z</time>
      </trkpt>
      <trkpt lat="47.2459" lon="-1.57863">
        <ele>62</ele>
        <time>2022-05-03T08:07:51Z</time>
      </trkpt>
      <trkpt lat="47.24589" lon="-1.57864">
        <ele>62</ele>
        <time>2022-05-03T08:07:52Z</time>
      </trkpt>
      <trkpt lat="47.24588" lon="-1.57865">
        <ele>62</ele>
        <time>2022-05-03T08:07:53Z</time>
      </trkpt>
      <trkpt lat="47.24587" lon="-1.57866">
        <ele>62</ele>
        <time>2022-05-03T08:07:54Z</time>
      </trkpt>
      <trkpt lat="47.24586" lon="-1.57868">
        <ele>63</ele>
        <time>2022-05-03T08:07:55Z</time>
      </trkpt>
      <trkpt lat="47.24585" lon="-1.57869">
        <ele>63</ele>
        <time>2022-05-03T08:07:56Z</time>
      </trkpt>
      <trkpt lat="47.24584" lon="-1.5787">
        <ele>63</ele>
        <time>2022-05-03T08:07:57Z</time>
      </trkpt>
      <trkpt lat="47.24583" lon="-1.57871">
        <ele>63</ele>
        <time>2022-05-03T08:07:58Z</time>
      </trkpt>
      <trkpt lat="47.24582" lon="-1.57871">
        <ele>64</ele>
        <time>2022-05-03T08:07:59Z</time>
      </trkpt>
      <trkpt lat="47.24581" lon="-1.57872">
        <ele>64</ele>
        <time>2022-05-03T08:08:00Z</time>
      </trkpt>
      <trkpt lat="47.2458" lon="-1.57872">
        <ele>64</ele>
        <time>2022-05-03T08:08:01Z</time>
      </trkpt>
      <trkpt lat="47.24579" lon="-1.57873">
        <ele>65</ele>
        <time>2022-05-03T08:08:02Z</time>
      </trkpt>
      <trkpt lat="47.24579" lon="-1.57874">
        <ele>65</ele>
        <time>2022-05-03T08:08:03Z</time>
      </trkpt>
      <trkpt lat="47.24577" lon="-1.57874">
        <ele>65</ele>
        <time>2022-05-03T08:08:04Z</time>
      </trkpt>
      <trkpt lat="47.24576" lon="-1.57874">
        <ele>65</ele>
        <time>2022-05-03T08:08:05Z</time>
      </trkpt>
      <trkpt lat="47.24575" lon="-1.57874">
        <ele>66</ele>
        <time>2022-05-03T08:08:06Z</time>
      </trkpt>
      <trkpt lat="47.24574" lon="-1.57874">
        <ele>66</ele>
        <time>2022-05-03T08:08:07Z</time>
      </trkpt>
      <trkpt lat="47.24573" lon="-1.57875">
        <ele>67</ele>
        <time>2022-05-03T08:08:08Z</time>
      </trkpt>
      <trkpt lat="47.24572" lon="-1.57876">
        <ele>67</ele>
        <time>2022-05-03T08:08:09Z</time>
      </trkpt>
      <trkpt lat="47.24571" lon="-1.57876">
        <ele>67</ele>
        <time>2022-05-03T08:08:10Z</time>
      </trkpt>
      <trkpt lat="47.2457" lon="-1.57877">
        <ele>67</ele>
        <time>2022-05-03T08:08:11Z</time>
      </trkpt>
      <trkpt lat="47.24569" lon="-1.57878">
        <ele>68</ele>
        <time>2022-05-03T08:08:12Z</time>
      </trkpt>
      <trkpt lat="47.24568" lon="-1.57879">
        <ele>68</ele>
        <time>2022-05-03T08:08:13Z</time>
      </trkpt>
      <trkpt lat="47.24567" lon="-1.5788">
        <ele>68</ele>
        <time>2022-05-03T08:08:14Z</time>
      </trkpt>
      <trkpt lat="47.24566" lon="-1.5788">
        <ele>69</ele>
        <time>2022-05-03T08:08:15Z</time>
      </trkpt>
      <trkpt lat="47.24566" lon="-1.57881">
        <ele>69</ele>
        <time>2022-05-03T08:08:16Z</time>
      </trkpt>
      <trkpt lat="47.24564" lon="-1.57882">
        <ele>69</ele>
        <time>2022-05-03T08:08:17Z</time>
      </trkpt>
      <trkpt lat="47.24564" lon="-1.57884">
        <ele>69</ele>
        <time>2022-05-03T08:08:18Z</time>
      </trkpt>
      <trkpt lat="47.24563" lon="-1.57885">
        <ele>69</ele>
        <time>2022-05-03T08:08:19Z</time>
      </trkpt>
      <trkpt lat="47.24563" lon="-1.57886">
        <ele>69</ele>
        <time>2022-05-03T08:08:20Z</time>
      </trkpt>
      <trkpt lat="47.24563" lon="-1.57888">
        <ele>68</ele>
        <time>2022-05-03T08:08:21Z</time>
      </trkpt>
      <trkpt lat="47.24563" lon="-1.5789">
        <ele>68</ele>
        <time>2022-05-03T08:08:22Z</time>
      </trkpt>
      <trkpt lat="47.24563" lon="-1.5789">
        <ele>68</ele>
        <time>2022-05-03T08:08:23Z</time>
      </trkpt>
      <trkpt lat="47.24563" lon="-1.5789">
        <ele>68</ele>
        <time>2022-05-03T08:08:24Z</time>
      </trkpt>
      <trkpt lat="47.24561" lon="-1.57893">
        <ele>68</ele>
        <time>2022-05-03T08:08:25Z</time>
      </trkpt>
      <trkpt lat="47.24561" lon="-1.57894">
        <ele>68</ele>
        <time>2022-05-03T08:08:26Z</time>
      </trkpt>
      <trkpt lat="47.2456" lon="-1.57895">
        <ele>68</ele>
        <time>2022-05-03T08:08:27Z</time>
      </trkpt>
      <trkpt lat="47.2456" lon="-1.57896">
        <ele>68</ele>
        <time>2022-05-03T08:08:28Z</time>
      </trkpt>
      <trkpt lat="47.2456" lon="-1.57896">
        <ele>68</ele>
        <time>2022-05-03T08:08:29Z</time>
      </trkpt>
      <trkpt lat="47.2456" lon="-1.57896">
        <ele>68</ele>
        <time>2022-05-03T08:08:30Z</time>
      </trkpt>
      <trkpt lat="47.24559" lon="-1.57897">
        <ele>68</ele>
        <time>2022-05-03T08:08:31Z</time>
      </trkpt>
      <trkpt lat="47.24558" lon="-1.57898">
        <ele>68</ele>
        <time>2022-05-03T08:08:32Z</time>
      </trkpt>
      <trkpt lat="47.24558" lon="-1.57899">
        <ele>67</ele>
        <time>2022-05-03T08:08:33Z</time>
      </trkpt>
      <trkpt lat="47.24558" lon="-1.57899">
        <ele>67</ele>
        <time>2022-05-03T08:08:34Z</time>
      </trkpt>
      <trkpt lat="47.24558" lon="-1.57899">
        <ele>67</ele>
        <time>2022-05-03T08:08:35Z</time>
      </trkpt>
      <trkpt lat="47.24558" lon="-1.57899">
        <ele>67</ele>
        <time>2022-05-03T08:08:36Z</time>
      </trkpt>
      <trkpt lat="47.24558" lon="-1.57899">
        <ele>67</ele>
        <time>2022-05-03T08:08:37Z</time>
      </trkpt>
      <trkpt lat="47.24558" lon="-1.57899">
        <ele>67</ele>
        <time>2022-05-03T08:08:38Z</time>
      </trkpt>
      <trkpt lat="47.24557" lon="-1.57898">
        <ele>68</ele>
        <time>2022-05-03T08:08:39Z</time>
      </trkpt>
      <trkpt lat="47.24556" lon="-1.57897">
        <ele>69</ele>
        <time>2022-05-03T08:08:40Z</time>
      </trkpt>
      <trkpt lat="47.24556" lon="-1.57897">
        <ele>69</ele>
        <time>2022-05-03T08:08:41Z</time>
      </trkpt>
      <trkpt lat="47.24555" lon="-1.57898">
        <ele>70</ele>
        <time>2022-05-03T08:08:42Z</time>
      </trkpt>
      <trkpt lat="47.24555" lon="-1.57898">
        <ele>70</ele>
        <time>2022-05-03T08:08:43Z</time>
      </trkpt>
      <trkpt lat="47.24555" lon="-1.57898">
        <ele>70</ele>
        <time>2022-05-03T08:08:44Z</time>
      </trkpt>
      <trkpt lat="47.24553" lon="-1.57899">
        <ele>69</ele>
        <time>2022-05-03T08:08:45Z</time>
      </trkpt>
      <trkpt lat="47.24552" lon="-1.57899">
        <ele>69</ele>
        <time>2022-05-03T08:08:46Z</time>
      </trkpt>
      <trkpt lat="47.24551" lon="-1.579">
        <ele>69</ele>
        <time>2022-05-03T08:08:47Z</time>
      </trkpt>
      <trkpt lat="47.2455" lon="-1.579">
        <ele>70</ele>
        <time>2022-05-03T08:08:48Z</time>
      </trkpt>
      <trkpt lat="47.24549" lon="-1.57901">
        <ele>70</ele>
        <time>2022-05-03T08:08:49Z</time>
      </trkpt>
      <trkpt lat="47.24548" lon="-1.57902">
        <ele>70</ele>
        <time>2022-05-03T08:08:50Z</time>
      </trkpt>
      <trkpt lat="47.24546" lon="-1.57902">
        <ele>70</ele>
        <time>2022-05-03T08:08:51Z</time>
      </trkpt>
      <trkpt lat="47.24545" lon="-1.57902">
        <ele>70</ele>
        <time>2022-05-03T08:08:52Z</time>
      </trkpt>
      <trkpt lat="47.24543" lon="-1.57902">
        <ele>70</ele>
        <time>2022-05-03T08:08:53Z</time>
      </trkpt>
      <trkpt lat="47.24543" lon="-1.57902">
        <ele>70</ele>
        <time>2022-05-03T08:08:54Z</time>
      </trkpt>
      <trkpt lat="47.24542" lon="-1.57902">
        <ele>70</ele>
        <time>2022-05-03T08:08:55Z</time>
      </trkpt>
      <trkpt lat="47.2454" lon="-1.57902">
        <ele>70</ele>
        <time>2022-05-03T08:08:56Z</time>
      </trkpt>
      <trkpt lat="47.24539" lon="-1.57902">
        <ele>70</ele>
        <time>2022-05-03T08:08:57Z</time>
      </trkpt>
      <trkpt lat="47.24539" lon="-1.57903">
        <ele>70</ele>
        <time>2022-05-03T08:08:58Z</time>
      </trkpt>
      <trkpt lat="47.24538" lon="-1.57903">
        <ele>69</ele>
        <time>2022-05-03T08:08:59Z</time>
      </trkpt>
      <trkpt lat="47.24537" lon="-1.57905">
        <ele>69</ele>
        <time>2022-05-03T08:09:00Z</time>
      </trkpt>
      <trkpt lat="47.24536" lon="-1.57906">
        <ele>68</ele>
        <time>2022-05-03T08:09:01Z</time>
      </trkpt>
      <trkpt lat="47.24535" lon="-1.57907">
        <ele>68</ele>
        <time>2022-05-03T08:09:02Z</time>
      </trkpt>
      <trkpt lat="47.24534" lon="-1.57908">
        <ele>67</ele>
        <time>2022-05-03T08:09:03Z</time>
      </trkpt>
      <trkpt lat="47.24534" lon="-1.57909">
        <ele>67</ele>
        <time>2022-05-03T08:09:04Z</time>
      </trkpt>
      <trkpt lat="47.24532" lon="-1.5791">
        <ele>66</ele>
        <time>2022-05-03T08:09:05Z</time>
      </trkpt>
      <trkpt lat="47.24532" lon="-1.57911">
        <ele>66</ele>
        <time>2022-05-03T08:09:06Z</time>
      </trkpt>
      <trkpt lat="47.24531" lon="-1.57913">
        <ele>65</ele>
        <time>2022-05-03T08:09:07Z</time>
      </trkpt>
      <trkpt lat="47.2453" lon="-1.57914">
        <ele>64</ele>
        <time>2022-05-03T08:09:08Z</time>
      </trkpt>
      <trkpt lat="47.24529" lon="-1.57915">
        <ele>64</ele>
        <time>2022-05-03T08:09:09Z</time>
      </trkpt>
      <trkpt lat="47.24527" lon="-1.57916">
        <ele>64</ele>
        <time>2022-05-03T08:09:10Z</time>
      </trkpt>
      <trkpt lat="47.24527" lon="-1.57916">
        <ele>64</ele>
        <time>2022-05-03T08:09:11Z</time>
      </trkpt>
      <trkpt lat="47.24525" lon="-1.57917">
        <ele>64</ele>
        <time>2022-05-03T08:09:12Z</time>
      </trkpt>
      <trkpt lat="47.24524" lon="-1.57918">
        <ele>64</ele>
        <time>2022-05-03T08:09:13Z</time>
      </trkpt>
      <trkpt lat="47.24523" lon="-1.57918">
        <ele>65</ele>
        <time>2022-05-03T08:09:14Z</time>
      </trkpt>
      <trkpt lat="47.24521" lon="-1.57918">
        <ele>65</ele>
        <time>2022-05-03T08:09:15Z</time>
      </trkpt>
      <trkpt lat="47.2452" lon="-1.57918">
        <ele>65</ele>
        <time>2022-05-03T08:09:16Z</time>
      </trkpt>
      <trkpt lat="47.24519" lon="-1.57918">
        <ele>66</ele>
        <time>2022-05-03T08:09:17Z</time>
      </trkpt>
      <trkpt lat="47.24518" lon="-1.57918">
        <ele>66</ele>
        <time>2022-05-03T08:09:18Z</time>
      </trkpt>
      <trkpt lat="47.24517" lon="-1.57918">
        <ele>66</ele>
        <time>2022-05-03T08:09:19Z</time>
      </trkpt>
      <trkpt lat="47.24516" lon="-1.57919">
        <ele>67</ele>
        <time>2022-05-03T08:09:20Z</time>
      </trkpt>
      <trkpt lat="47.24516" lon="-1.57919">
        <ele>67</ele>
        <time>2022-05-03T08:09:21Z</time>
      </trkpt>
      <trkpt lat="47.24515" lon="-1.57919">
        <ele>67</ele>
        <time>2022-05-03T08:09:22Z</time>
      </trkpt>
      <trkpt lat="47.24514" lon="-1.5792">
        <ele>67</ele>
        <time>2022-05-03T08:09:23Z</time>
      </trkpt>
      <trkpt lat="47.24513" lon="-1.57921">
        <ele>67</ele>
        <time>2022-05-03T08:09:24Z</time>
      </trkpt>
      <trkpt lat="47.24511" lon="-1.57921">
        <ele>68</ele>
        <time>2022-05-03T08:09:25Z</time>
      </trkpt>
      <trkpt lat="47.2451" lon="-1.57921">
        <ele>68</ele>
        <time>2022-05-03T08:09:26Z</time>
      </trkpt>
      <trkpt lat="47.24509" lon="-1.57922">
        <ele>68</ele>
        <time>2022-05-03T08:09:27Z</time>
      </trkpt>
      <trkpt lat="47.24508" lon="-1.57923">
        <ele>68</ele>
        <time>2022-05-03T08:09:28Z</time>
      </trkpt>
      <trkpt lat="47.24507" lon="-1.57922">
        <ele>68</ele>
        <time>2022-05-03T08:09:29Z</time>
      </trkpt>
      <trkpt lat="47.24505" lon="-1.57922">
        <ele>68</ele>
        <time>2022-05-03T08:09:30Z</time>
      </trkpt>
      <trkpt lat="47.24505" lon="-1.57922">
        <ele>68</ele>
        <time>2022-05-03T08:09:31Z</time>
      </trkpt>
      <trkpt lat="47.24504" lon="-1.57923">
        <ele>68</ele>
        <time>2022-05-03T08:09:32Z</time>
      </trkpt>
      <trkpt lat="47.24503" lon="-1.57923">
        <ele>68</ele>
        <time>2022-05-03T08:09:33Z</time>
      </trkpt>
      <trkpt lat="47.24503" lon="-1.57923">
        <ele>68</ele>
        <time>2022-05-03T08:09:34Z</time>
      </trkpt>
      <trkpt lat="47.24503" lon="-1.57923">
        <ele>68</ele>
        <time>2022-05-03T08:09:35Z</time>
      </trkpt>
      <trkpt lat="47.24501" lon="-1.57923">
        <ele>69</ele>
        <time>2022-05-03T08:09:36Z</time>
      </trkpt>
      <trkpt lat="47.24501" lon="-1.57922">
        <ele>69</ele>
        <time>2022-05-03T08:09:37Z</time>
      </trkpt>
      <trkpt lat="47.245" lon="-1.57922">
        <ele>68</ele>
        <time>2022-05-03T08:09:38Z</time>
      </trkpt>
      <trkpt lat="47.24499" lon="-1.57922">
        <ele>68</ele>
        <time>2022-05-03T08:09:39Z</time>
      </trkpt>
      <trkpt lat="47.24499" lon="-1.57922">
        <ele>68</ele>
        <time>2022-05-03T08:09:40Z</time>
      </trkpt>
      <trkpt lat="47.24499" lon="-1.57922">
        <ele>68</ele>
        <time>2022-05-03T08:09:41Z</time>
      </trkpt>
      <trkpt lat="47.24498" lon="-1.57922">
        <ele>67</ele>
        <time>2022-05-03T08:09:42Z</time>
      </trkpt>
      <trkpt lat="47.24497" lon="-1.57923">
        <ele>66</ele>
        <time>2022-05-03T08:09:43Z</time>
      </trkpt>
      <trkpt lat="47.24496" lon="-1.57923">
        <ele>67</ele>
        <time>2022-05-03T08:09:44Z</time>
      </trkpt>
      <trkpt lat="47.24494" lon="-1.57924">
        <ele>67</ele>
        <time>2022-05-03T08:09:45Z</time>
      </trkpt>
      <trkpt lat="47.24494" lon="-1.57924">
        <ele>67</ele>
        <time>2022-05-03T08:09:46Z</time>
      </trkpt>
      <trkpt lat="47.24493" lon="-1.57924">
        <ele>67</ele>
        <time>2022-05-03T08:09:47Z</time>
      </trkpt>
      <trkpt lat="47.24492" lon="-1.57925">
        <ele>67</ele>
        <time>2022-05-03T08:09:48Z</time>
      </trkpt>
      <trkpt lat="47.24491" lon="-1.57926">
        <ele>67</ele>
        <time>2022-05-03T08:09:49Z</time>
      </trkpt>
      <trkpt lat="47.24489" lon="-1.57926">
        <ele>67</ele>
        <time>2022-05-03T08:09:50Z</time>
      </trkpt>
      <trkpt lat="47.24488" lon="-1.57927">
        <ele>66</ele>
        <time>2022-05-03T08:09:51Z</time>
      </trkpt>
      <trkpt lat="47.24488" lon="-1.57927">
        <ele>66</ele>
        <time>2022-05-03T08:09:52Z</time>
      </trkpt>
      <trkpt lat="47.24487" lon="-1.57927">
        <ele>67</ele>
        <time>2022-05-03T08:09:53Z</time>
      </trkpt>
      <trkpt lat="47.24486" lon="-1.57927">
        <ele>66</ele>
        <time>2022-05-03T08:09:54Z</time>
      </trkpt>
      <trkpt lat="47.24485" lon="-1.57927">
        <ele>66</ele>
        <time>2022-05-03T08:09:55Z</time>
      </trkpt>
      <trkpt lat="47.24485" lon="-1.57928">
        <ele>66</ele>
        <time>2022-05-03T08:09:56Z</time>
      </trkpt>
      <trkpt lat="47.24484" lon="-1.57928">
        <ele>66</ele>
        <time>2022-05-03T08:09:57Z</time>
      </trkpt>
      <trkpt lat="47.24483" lon="-1.57928">
        <ele>66</ele>
        <time>2022-05-03T08:09:58Z</time>
      </trkpt>
      <trkpt lat="47.24482" lon="-1.57928">
        <ele>66</ele>
        <time>2022-05-03T08:09:59Z</time>
      </trkpt>
      <trkpt lat="47.24481" lon="-1.57929">
        <ele>66</ele>
        <time>2022-05-03T08:10:00Z</time>
      </trkpt>
      <trkpt lat="47.24479" lon="-1.5793">
        <ele>66</ele>
        <time>2022-05-03T08:10:01Z</time>
      </trkpt>
      <trkpt lat="47.24478" lon="-1.57931">
        <ele>66</ele>
        <time>2022-05-03T08:10:02Z</time>
      </trkpt>
      <trkpt lat="47.24477" lon="-1.57932">
        <ele>66</ele>
        <time>2022-05-03T08:10:03Z</time>
      </trkpt>
      <trkpt lat="47.24476" lon="-1.57933">
        <ele>65</ele>
        <time>2022-05-03T08:10:04Z</time>
      </trkpt>
      <trkpt lat="47.24476" lon="-1.57933">
        <ele>65</ele>
        <time>2022-05-03T08:10:05Z</time>
      </trkpt>
      <trkpt lat="47.24474" lon="-1.57933">
        <ele>65</ele>
        <time>2022-05-03T08:10:06Z</time>
      </trkpt>
      <trkpt lat="47.24474" lon="-1.57934">
        <ele>65</ele>
        <time>2022-05-03T08:10:07Z</time>
      </trkpt>
      <trkpt lat="47.24474" lon="-1.57934">
        <ele>65</ele>
        <time>2022-05-03T08:10:08Z</time>
      </trkpt>
      <trkpt lat="47.24474" lon="-1.57934">
        <ele>65</ele>
        <time>2022-05-03T08:10:09Z</time>
      </trkpt>
      <trkpt lat="47.24472" lon="-1.57936">
        <ele>66</ele>
        <time>2022-05-03T08:10:10Z</time>
      </trkpt>
      <trkpt lat="47.24471" lon="-1.57937">
        <ele>66</ele>
        <time>2022-05-03T08:10:11Z</time>
      </trkpt>
      <trkpt lat="47.24469" lon="-1.57938">
        <ele>66</ele>
        <time>2022-05-03T08:10:12Z</time>
      </trkpt>
      <trkpt lat="47.24469" lon="-1.57939">
        <ele>67</ele>
        <time>2022-05-03T08:10:13Z</time>
      </trkpt>
      <trkpt lat="47.24468" lon="-1.5794">
        <ele>67</ele>
        <time>2022-05-03T08:10:14Z</time>
      </trkpt>
      <trkpt lat="47.24466" lon="-1.57941">
        <ele>67</ele>
        <time>2022-05-03T08:10:15Z</time>
      </trkpt>
      <trkpt lat="47.24465" lon="-1.57942">
        <ele>67</ele>
        <time>2022-05-03T08:10:16Z</time>
      </trkpt>
      <trkpt lat="47.24464" lon="-1.57944">
        <ele>67</ele>
        <time>2022-05-03T08:10:17Z</time>
      </trkpt>
      <trkpt lat="47.24463" lon="-1.57945">
        <ele>67</ele>
        <time>2022-05-03T08:10:18Z</time>
      </trkpt>
      <trkpt lat="47.24463" lon="-1.57947">
        <ele>67</ele>
        <time>2022-05-03T08:10:19Z</time>
      </trkpt>
      <trkpt lat="47.24462" lon="-1.57948">
        <ele>67</ele>
        <time>2022-05-03T08:10:20Z</time>
      </trkpt>
      <trkpt lat="47.2446" lon="-1.57949">
        <ele>67</ele>
        <time>2022-05-03T08:10:21Z</time>
      </trkpt>
      <trkpt lat="47.24459" lon="-1.5795">
        <ele>66</ele>
        <time>2022-05-03T08:10:22Z</time>
      </trkpt>
      <trkpt lat="47.24458" lon="-1.57951">
        <ele>66</ele>
        <time>2022-05-03T08:10:23Z</time>
      </trkpt>
      <trkpt lat="47.24457" lon="-1.57951">
        <ele>66</ele>
        <time>2022-05-03T08:10:24Z</time>
      </trkpt>
      <trkpt lat="47.24456" lon="-1.57952">
        <ele>66</ele>
        <time>2022-05-03T08:10:25Z</time>
      </trkpt>
      <trkpt lat="47.24456" lon="-1.57952">
        <ele>66</ele>
        <time>2022-05-03T08:10:26Z</time>
      </trkpt>
      <trkpt lat="47.24455" lon="-1.57953">
        <ele>67</ele>
        <time>2022-05-03T08:10:27Z</time>
      </trkpt>
      <trkpt lat="47.24455" lon="-1.57953">
        <ele>67</ele>
        <time>2022-05-03T08:10:28Z</time>
      </trkpt>
      <trkpt lat="47.24453" lon="-1.57954">
        <ele>67</ele>
        <time>2022-05-03T08:10:29Z</time>
      </trkpt>
      <trkpt lat="47.24452" lon="-1.57955">
        <ele>67</ele>
        <time>2022-05-03T08:10:30Z</time>
      </trkpt>
      <trkpt lat="47.24451" lon="-1.57956">
        <ele>67</ele>
        <time>2022-05-03T08:10:31Z</time>
      </trkpt>
      <trkpt lat="47.2445" lon="-1.57958">
        <ele>68</ele>
        <time>2022-05-03T08:10:32Z</time>
      </trkpt>
      <trkpt lat="47.24449" lon="-1.57959">
        <ele>68</ele>
        <time>2022-05-03T08:10:33Z</time>
      </trkpt>
      <trkpt lat="47.24448" lon="-1.57961">
        <ele>68</ele>
        <time>2022-05-03T08:10:34Z</time>
      </trkpt>
      <trkpt lat="47.24447" lon="-1.57963">
        <ele>68</ele>
        <time>2022-05-03T08:10:35Z</time>
      </trkpt>
      <trkpt lat="47.24447" lon="-1.57965">
        <ele>68</ele>
        <time>2022-05-03T08:10:36Z</time>
      </trkpt>
      <trkpt lat="47.24445" lon="-1.57967">
        <ele>68</ele>
        <time>2022-05-03T08:10:37Z</time>
      </trkpt>
      <trkpt lat="47.24445" lon="-1.57967">
        <ele>68</ele>
        <time>2022-05-03T08:10:38Z</time>
      </trkpt>
      <trkpt lat="47.24445" lon="-1.57967">
        <ele>68</ele>
        <time>2022-05-03T08:10:39Z</time>
      </trkpt>
      <trkpt lat="47.24443" lon="-1.5797">
        <ele>67</ele>
        <time>2022-05-03T08:10:40Z</time>
      </trkpt>
      <trkpt lat="47.24443" lon="-1.57972">
        <ele>66</ele>
        <time>2022-05-03T08:10:41Z</time>
      </trkpt>
      <trkpt lat="47.24442" lon="-1.57974">
        <ele>65</ele>
        <time>2022-05-03T08:10:42Z</time>
      </trkpt>
      <trkpt lat="47.24442" lon="-1.57976">
        <ele>64</ele>
        <time>2022-05-03T08:10:43Z</time>
      </trkpt>
      <trkpt lat="47.24441" lon="-1.57978">
        <ele>64</ele>
        <time>2022-05-03T08:10:44Z</time>
      </trkpt>
      <trkpt lat="47.2444" lon="-1.5798">
        <ele>64</ele>
        <time>2022-05-03T08:10:45Z</time>
      </trkpt>
      <trkpt lat="47.24439" lon="-1.57982">
        <ele>65</ele>
        <time>2022-05-03T08:10:46Z</time>
      </trkpt>
      <trkpt lat="47.24439" lon="-1.57984">
        <ele>65</ele>
        <time>2022-05-03T08:10:47Z</time>
      </trkpt>
      <trkpt lat="47.24438" lon="-1.57985">
        <ele>65</ele>
        <time>2022-05-03T08:10:48Z</time>
      </trkpt>
      <trkpt lat="47.24437" lon="-1.57985">
        <ele>65</ele>
        <time>2022-05-03T08:10:49Z</time>
      </trkpt>
      <trkpt lat="47.24436" lon="-1.57986">
        <ele>65</ele>
        <time>2022-05-03T08:10:50Z</time>
      </trkpt>
      <trkpt lat="47.24436" lon="-1.57986">
        <ele>65</ele>
        <time>2022-05-03T08:10:51Z</time>
      </trkpt>
      <trkpt lat="47.24434" lon="-1.57988">
        <ele>66</ele>
        <time>2022-05-03T08:10:52Z</time>
      </trkpt>
      <trkpt lat="47.24433" lon="-1.5799">
        <ele>67</ele>
        <time>2022-05-03T08:10:53Z</time>
      </trkpt>
      <trkpt lat="47.24432" lon="-1.57991">
        <ele>67</ele>
        <time>2022-05-03T08:10:54Z</time>
      </trkpt>
      <trkpt lat="47.24431" lon="-1.57992">
        <ele>67</ele>
        <time>2022-05-03T08:10:55Z</time>
      </trkpt>
      <trkpt lat="47.2443" lon="-1.57993">
        <ele>67</ele>
        <time>2022-05-03T08:10:56Z</time>
      </trkpt>
      <trkpt lat="47.24429" lon="-1.57994">
        <ele>67</ele>
        <time>2022-05-03T08:10:57Z</time>
      </trkpt>
      <trkpt lat="47.24428" lon="-1.57995">
        <ele>68</ele>
        <time>2022-05-03T08:10:58Z</time>
      </trkpt>
      <trkpt lat="47.24427" lon="-1.57996">
        <ele>67</ele>
        <time>2022-05-03T08:10:59Z</time>
      </trkpt>
      <trkpt lat="47.24427" lon="-1.57997">
        <ele>67</ele>
        <time>2022-05-03T08:11:00Z</time>
      </trkpt>
      <trkpt lat="47.24426" lon="-1.57999">
        <ele>67</ele>
        <time>2022-05-03T08:11:01Z</time>
      </trkpt>
      <trkpt lat="47.24426" lon="-1.58001">
        <ele>67</ele>
        <time>2022-05-03T08:11:02Z</time>
      </trkpt>
      <trkpt lat="47.24425" lon="-1.58003">
        <ele>66</ele>
        <time>2022-05-03T08:11:03Z</time>
      </trkpt>
      <trkpt lat="47.24425" lon="-1.58005">
        <ele>66</ele>
        <time>2022-05-03T08:11:04Z</time>
      </trkpt>
      <trkpt lat="47.24424" lon="-1.58007">
        <ele>66</ele>
        <time>2022-05-03T08:11:05Z</time>
      </trkpt>
      <trkpt lat="47.24424" lon="-1.58009">
        <ele>66</ele>
        <time>2022-05-03T08:11:06Z</time>
      </trkpt>
      <trkpt lat="47.24423" lon="-1.58011">
        <ele>66</ele>
        <time>2022-05-03T08:11:07Z</time>
      </trkpt>
      <trkpt lat="47.24422" lon="-1.58012">
        <ele>67</ele>
        <time>2022-05-03T08:11:08Z</time>
      </trkpt>
      <trkpt lat="47.24421" lon="-1.58013">
        <ele>67</ele>
        <time>2022-05-03T08:11:09Z</time>
      </trkpt>
      <trkpt lat="47.2442" lon="-1.58013">
        <ele>68</ele>
        <time>2022-05-03T08:11:10Z</time>
      </trkpt>
      <trkpt lat="47.24419" lon="-1.58013">
        <ele>68</ele>
        <time>2022-05-03T08:11:11Z</time>
      </trkpt>
      <trkpt lat="47.24419" lon="-1.58013">
        <ele>68</ele>
        <time>2022-05-03T08:11:12Z</time>
      </trkpt>
      <trkpt lat="47.24418" lon="-1.58013">
        <ele>68</ele>
        <time>2022-05-03T08:11:13Z</time>
      </trkpt>
      <trkpt lat="47.24417" lon="-1.58012">
        <ele>69</ele>
        <time>2022-05-03T08:11:14Z</time>
      </trkpt>
      <trkpt lat="47.24416" lon="-1.58012">
        <ele>70</ele>
        <time>2022-05-03T08:11:15Z</time>
      </trkpt>
      <trkpt lat="47.24415" lon="-1.58011">
        <ele>70</ele>
        <time>2022-05-03T08:11:16Z</time>
      </trkpt>
      <trkpt lat="47.24414" lon="-1.58011">
        <ele>70</ele>
        <time>2022-05-03T08:11:17Z</time>
      </trkpt>
      <trkpt lat="47.24413" lon="-1.5801">
        <ele>70</ele>
        <time>2022-05-03T08:11:18Z</time>
      </trkpt>
      <trkpt lat="47.24412" lon="-1.58009">
        <ele>71</ele>
        <time>2022-05-03T08:11:19Z</time>
      </trkpt>
      <trkpt lat="47.24411" lon="-1.58009">
        <ele>71</ele>
        <time>2022-05-03T08:11:20Z</time>
      </trkpt>
      <trkpt lat="47.2441" lon="-1.58007">
        <ele>71</ele>
        <time>2022-05-03T08:11:21Z</time>
      </trkpt>
      <trkpt lat="47.24409" lon="-1.58007">
        <ele>72</ele>
        <time>2022-05-03T08:11:22Z</time>
      </trkpt>
      <trkpt lat="47.24408" lon="-1.58006">
        <ele>72</ele>
        <time>2022-05-03T08:11:23Z</time>
      </trkpt>
      <trkpt lat="47.24406" lon="-1.58005">
        <ele>72</ele>
        <time>2022-05-03T08:11:24Z</time>
      </trkpt>
      <trkpt lat="47.24405" lon="-1.58005">
        <ele>73</ele>
        <time>2022-05-03T08:11:25Z</time>
      </trkpt>
      <trkpt lat="47.24404" lon="-1.58005">
        <ele>73</ele>
        <time>2022-05-03T08:11:26Z</time>
      </trkpt>
      <trkpt lat="47.24403" lon="-1.58004">
        <ele>74</ele>
        <time>2022-05-03T08:11:27Z</time>
      </trkpt>
      <trkpt lat="47.24402" lon="-1.58004">
        <ele>74</ele>
        <time>2022-05-03T08:11:28Z</time>
      </trkpt>
      <trkpt lat="47.24401" lon="-1.58003">
        <ele>74</ele>
        <time>2022-05-03T08:11:29Z</time>
      </trkpt>
      <trkpt lat="47.244" lon="-1.58003">
        <ele>75</ele>
        <time>2022-05-03T08:11:30Z</time>
      </trkpt>
      <trkpt lat="47.24398" lon="-1.58003">
        <ele>75</ele>
        <time>2022-05-03T08:11:31Z</time>
      </trkpt>
      <trkpt lat="47.24397" lon="-1.58002">
        <ele>76</ele>
        <time>2022-05-03T08:11:32Z</time>
      </trkpt>
      <trkpt lat="47.24396" lon="-1.58002">
        <ele>76</ele>
        <time>2022-05-03T08:11:33Z</time>
      </trkpt>
      <trkpt lat="47.24395" lon="-1.58">
        <ele>76</ele>
        <time>2022-05-03T08:11:34Z</time>
      </trkpt>
      <trkpt lat="47.24394" lon="-1.57999">
        <ele>77</ele>
        <time>2022-05-03T08:11:35Z</time>
      </trkpt>
      <trkpt lat="47.24394" lon="-1.57998">
        <ele>77</ele>
        <time>2022-05-03T08:11:36Z</time>
      </trkpt>
      <trkpt lat="47.24392" lon="-1.57997">
        <ele>78</ele>
        <time>2022-05-03T08:11:37Z</time>
      </trkpt>
      <trkpt lat="47.24391" lon="-1.57996">
        <ele>78</ele>
        <time>2022-05-03T08:11:38Z</time>
      </trkpt>
      <trkpt lat="47.2439" lon="-1.57995">
        <ele>79</ele>
        <time>2022-05-03T08:11:39Z</time>
      </trkpt>
      <trkpt lat="47.24389" lon="-1.57994">
        <ele>79</ele>
        <time>2022-05-03T08:11:40Z</time>
      </trkpt>
      <trkpt lat="47.24387" lon="-1.57993">
        <ele>79</ele>
        <time>2022-05-03T08:11:41Z</time>
      </trkpt>
      <trkpt lat="47.24386" lon="-1.57991">
        <ele>79</ele>
        <time>2022-05-03T08:11:42Z</time>
      </trkpt>
      <trkpt lat="47.24385" lon="-1.5799">
        <ele>79</ele>
        <time>2022-05-03T08:11:43Z</time>
      </trkpt>
      <trkpt lat="47.24384" lon="-1.57989">
        <ele>79</ele>
        <time>2022-05-03T08:11:44Z</time>
      </trkpt>
      <trkpt lat="47.24383" lon="-1.57987">
        <ele>80</ele>
        <time>2022-05-03T08:11:45Z</time>
      </trkpt>
      <trkpt lat="47.24382" lon="-1.57986">
        <ele>80</ele>
        <time>2022-05-03T08:11:46Z</time>
      </trkpt>
      <trkpt lat="47.24381" lon="-1.57985">
        <ele>80</ele>
        <time>2022-05-03T08:11:47Z</time>
      </trkpt>
      <trkpt lat="47.24379" lon="-1.57983">
        <ele>80</ele>
        <time>2022-05-03T08:11:48Z</time>
      </trkpt>
      <trkpt lat="47.24378" lon="-1.57983">
        <ele>80</ele>
        <time>2022-05-03T08:11:49Z</time>
      </trkpt>
      <trkpt lat="47.24376" lon="-1.57982">
        <ele>80</ele>
        <time>2022-05-03T08:11:50Z</time>
      </trkpt>
      <trkpt lat="47.24375" lon="-1.57981">
        <ele>80</ele>
        <time>2022-05-03T08:11:51Z</time>
      </trkpt>
      <trkpt lat="47.24373" lon="-1.5798">
        <ele>80</ele>
        <time>2022-05-03T08:11:52Z</time>
      </trkpt>
      <trkpt lat="47.24372" lon="-1.57979">
        <ele>81</ele>
        <time>2022-05-03T08:11:53Z</time>
      </trkpt>
      <trkpt lat="47.2437" lon="-1.57978">
        <ele>81</ele>
        <time>2022-05-03T08:11:54Z</time>
      </trkpt>
      <trkpt lat="47.24369" lon="-1.57977">
        <ele>81</ele>
        <time>2022-05-03T08:11:55Z</time>
      </trkpt>
      <trkpt lat="47.24368" lon="-1.57975">
        <ele>81</ele>
        <time>2022-05-03T08:11:56Z</time>
      </trkpt>
      <trkpt lat="47.24366" lon="-1.57973">
        <ele>81</ele>
        <time>2022-05-03T08:11:57Z</time>
      </trkpt>
      <trkpt lat="47.24365" lon="-1.57971">
        <ele>81</ele>
        <time>2022-05-03T08:11:58Z</time>
      </trkpt>
      <trkpt lat="47.24364" lon="-1.5797">
        <ele>81</ele>
        <time>2022-05-03T08:11:59Z</time>
      </trkpt>
      <trkpt lat="47.24362" lon="-1.57969">
        <ele>81</ele>
        <time>2022-05-03T08:12:00Z</time>
      </trkpt>
      <trkpt lat="47.24361" lon="-1.57968">
        <ele>82</ele>
        <time>2022-05-03T08:12:01Z</time>
      </trkpt>
      <trkpt lat="47.2436" lon="-1.57968">
        <ele>82</ele>
        <time>2022-05-03T08:12:02Z</time>
      </trkpt>
      <trkpt lat="47.24359" lon="-1.57968">
        <ele>82</ele>
        <time>2022-05-03T08:12:03Z</time>
      </trkpt>
      <trkpt lat="47.24358" lon="-1.57967">
        <ele>83</ele>
        <time>2022-05-03T08:12:04Z</time>
      </trkpt>
      <trkpt lat="47.24357" lon="-1.57966">
        <ele>83</ele>
        <time>2022-05-03T08:12:05Z</time>
      </trkpt>
      <trkpt lat="47.24355" lon="-1.57964">
        <ele>83</ele>
        <time>2022-05-03T08:12:06Z</time>
      </trkpt>
      <trkpt lat="47.24355" lon="-1.57963">
        <ele>83</ele>
        <time>2022-05-03T08:12:07Z</time>
      </trkpt>
      <trkpt lat="47.24353" lon="-1.57961">
        <ele>82</ele>
        <time>2022-05-03T08:12:08Z</time>
      </trkpt>
      <trkpt lat="47.24353" lon="-1.5796">
        <ele>82</ele>
        <time>2022-05-03T08:12:09Z</time>
      </trkpt>
      <trkpt lat="47.24352" lon="-1.57958">
        <ele>82</ele>
        <time>2022-05-03T08:12:10Z</time>
      </trkpt>
      <trkpt lat="47.24351" lon="-1.57957">
        <ele>82</ele>
        <time>2022-05-03T08:12:11Z</time>
      </trkpt>
      <trkpt lat="47.2435" lon="-1.57955">
        <ele>82</ele>
        <time>2022-05-03T08:12:12Z</time>
      </trkpt>
      <trkpt lat="47.24349" lon="-1.57954">
        <ele>82</ele>
        <time>2022-05-03T08:12:13Z</time>
      </trkpt>
      <trkpt lat="47.24348" lon="-1.57953">
        <ele>82</ele>
        <time>2022-05-03T08:12:14Z</time>
      </trkpt>
      <trkpt lat="47.24347" lon="-1.57953">
        <ele>82</ele>
        <time>2022-05-03T08:12:15Z</time>
      </trkpt>
      <trkpt lat="47.24345" lon="-1.57952">
        <ele>82</ele>
        <time>2022-05-03T08:12:16Z</time>
      </trkpt>
      <trkpt lat="47.24344" lon="-1.57951">
        <ele>82</ele>
        <time>2022-05-03T08:12:17Z</time>
      </trkpt>
      <trkpt lat="47.24342" lon="-1.57949">
        <ele>81</ele>
        <time>2022-05-03T08:12:18Z</time>
      </trkpt>
      <trkpt lat="47.24341" lon="-1.57948">
        <ele>81</ele>
        <time>2022-05-03T08:12:19Z</time>
      </trkpt>
      <trkpt lat="47.2434" lon="-1.57947">
        <ele>81</ele>
        <time>2022-05-03T08:12:20Z</time>
      </trkpt>
      <trkpt lat="47.24339" lon="-1.57946">
        <ele>81</ele>
        <time>2022-05-03T08:12:21Z</time>
      </trkpt>
      <trkpt lat="47.24337" lon="-1.57944">
        <ele>81</ele>
        <time>2022-05-03T08:12:22Z</time>
      </trkpt>
      <trkpt lat="47.24336" lon="-1.57942">
        <ele>81</ele>
        <time>2022-05-03T08:12:23Z</time>
      </trkpt>
      <trkpt lat="47.24336" lon="-1.57941">
        <ele>81</ele>
        <time>2022-05-03T08:12:24Z</time>
      </trkpt>
      <trkpt lat="47.24335" lon="-1.57939">
        <ele>81</ele>
        <time>2022-05-03T08:12:25Z</time>
      </trkpt>
      <trkpt lat="47.24334" lon="-1.57938">
        <ele>81</ele>
        <time>2022-05-03T08:12:26Z</time>
      </trkpt>
      <trkpt lat="47.24333" lon="-1.57936">
        <ele>81</ele>
        <time>2022-05-03T08:12:27Z</time>
      </trkpt>
      <trkpt lat="47.24333" lon="-1.57935">
        <ele>81</ele>
        <time>2022-05-03T08:12:28Z</time>
      </trkpt>
      <trkpt lat="47.24333" lon="-1.57933">
        <ele>82</ele>
        <time>2022-05-03T08:12:29Z</time>
      </trkpt>
      <trkpt lat="47.24333" lon="-1.57932">
        <ele>82</ele>
        <time>2022-05-03T08:12:30Z</time>
      </trkpt>
      <trkpt lat="47.24332" lon="-1.57931">
        <ele>82</ele>
        <time>2022-05-03T08:12:31Z</time>
      </trkpt>
      <trkpt lat="47.24332" lon="-1.57929">
        <ele>83</ele>
        <time>2022-05-03T08:12:32Z</time>
      </trkpt>
      <trkpt lat="47.24332" lon="-1.57928">
        <ele>83</ele>
        <time>2022-05-03T08:12:33Z</time>
      </trkpt>
      <trkpt lat="47.24332" lon="-1.57926">
        <ele>84</ele>
        <time>2022-05-03T08:12:34Z</time>
      </trkpt>
      <trkpt lat="47.24331" lon="-1.57924">
        <ele>84</ele>
        <time>2022-05-03T08:12:35Z</time>
      </trkpt>
      <trkpt lat="47.24331" lon="-1.57922">
        <ele>85</ele>
        <time>2022-05-03T08:12:36Z</time>
      </trkpt>
      <trkpt lat="47.24331" lon="-1.57921">
        <ele>85</ele>
        <time>2022-05-03T08:12:37Z</time>
      </trkpt>
      <trkpt lat="47.24332" lon="-1.57918">
        <ele>85</ele>
        <time>2022-05-03T08:12:38Z</time>
      </trkpt>
      <trkpt lat="47.24332" lon="-1.57916">
        <ele>85</ele>
        <time>2022-05-03T08:12:39Z</time>
      </trkpt>
      <trkpt lat="47.24332" lon="-1.57915">
        <ele>86</ele>
        <time>2022-05-03T08:12:40Z</time>
      </trkpt>
      <trkpt lat="47.24332" lon="-1.57913">
        <ele>86</ele>
        <time>2022-05-03T08:12:41Z</time>
      </trkpt>
      <trkpt lat="47.24332" lon="-1.57911">
        <ele>86</ele>
        <time>2022-05-03T08:12:42Z</time>
      </trkpt>
      <trkpt lat="47.24332" lon="-1.57909">
        <ele>86</ele>
        <time>2022-05-03T08:12:43Z</time>
      </trkpt>
      <trkpt lat="47.24331" lon="-1.57906">
        <ele>86</ele>
        <time>2022-05-03T08:12:44Z</time>
      </trkpt>
      <trkpt lat="47.24331" lon="-1.57906">
        <ele>87</ele>
        <time>2022-05-03T08:12:45Z</time>
      </trkpt>
      <trkpt lat="47.24331" lon="-1.57906">
        <ele>87</ele>
        <time>2022-05-03T08:12:46Z</time>
      </trkpt>
      <trkpt lat="47.2433" lon="-1.57904">
        <ele>87</ele>
        <time>2022-05-03T08:12:47Z</time>
      </trkpt>
      <trkpt lat="47.2433" lon="-1.57902">
        <ele>87</ele>
        <time>2022-05-03T08:12:48Z</time>
      </trkpt>
      <trkpt lat="47.24329" lon="-1.57901">
        <ele>88</ele>
        <time>2022-05-03T08:12:49Z</time>
      </trkpt>
      <trkpt lat="47.24329" lon="-1.57899">
        <ele>88</ele>
        <time>2022-05-03T08:12:50Z</time>
      </trkpt>
      <trkpt lat="47.24328" lon="-1.57898">
        <ele>88</ele>
        <time>2022-05-03T08:12:51Z</time>
      </trkpt>
      <trkpt lat="47.24328" lon="-1.57896">
        <ele>88</ele>
        <time>2022-05-03T08:12:52Z</time>
      </trkpt>
      <trkpt lat="47.24327" lon="-1.57894">
        <ele>88</ele>
        <time>2022-05-03T08:12:53Z</time>
      </trkpt>
      <trkpt lat="47.24327" lon="-1.57892">
        <ele>88</ele>
        <time>2022-05-03T08:12:54Z</time>
      </trkpt>
      <trkpt lat="47.24326" lon="-1.57891">
        <ele>88</ele>
        <time>2022-05-03T08:12:55Z</time>
      </trkpt>
      <trkpt lat="47.24326" lon="-1.57889">
        <ele>88</ele>
        <time>2022-05-03T08:12:56Z</time>
      </trkpt>
      <trkpt lat="47.24326" lon="-1.57887">
        <ele>89</ele>
        <time>2022-05-03T08:12:57Z</time>
      </trkpt>
      <trkpt lat="47.24325" lon="-1.57886">
        <ele>89</ele>
        <time>2022-05-03T08:12:58Z</time>
      </trkpt>
      <trkpt lat="47.24325" lon="-1.57883">
        <ele>89</ele>
        <time>2022-05-03T08:12:59Z</time>
      </trkpt>
      <trkpt lat="47.24324" lon="-1.57881">
        <ele>88</ele>
        <time>2022-05-03T08:13:00Z</time>
      </trkpt>
      <trkpt lat="47.24324" lon="-1.57879">
        <ele>87</ele>
        <time>2022-05-03T08:13:01Z</time>
      </trkpt>
      <trkpt lat="47.24323" lon="-1.57878">
        <ele>87</ele>
        <time>2022-05-03T08:13:02Z</time>
      </trkpt>
      <trkpt lat="47.24322" lon="-1.57878">
        <ele>88</ele>
        <time>2022-05-03T08:13:03Z</time>
      </trkpt>
      <trkpt lat="47.24321" lon="-1.57877">
        <ele>87</ele>
        <time>2022-05-03T08:13:04Z</time>
      </trkpt>
      <trkpt lat="47.24321" lon="-1.57876">
        <ele>87</ele>
        <time>2022-05-03T08:13:05Z</time>
      </trkpt>
      <trkpt lat="47.2432" lon="-1.57876">
        <ele>88</ele>
        <time>2022-05-03T08:13:06Z</time>
      </trkpt>
      <trkpt lat="47.2432" lon="-1.57876">
        <ele>88</ele>
        <time>2022-05-03T08:13:07Z</time>
      </trkpt>
      <trkpt lat="47.24319" lon="-1.57876">
        <ele>88</ele>
        <time>2022-05-03T08:13:08Z</time>
      </trkpt>
      <trkpt lat="47.24318" lon="-1.57876">
        <ele>88</ele>
        <time>2022-05-03T08:13:09Z</time>
      </trkpt>
      <trkpt lat="47.24318" lon="-1.57876">
        <ele>88</ele>
        <time>2022-05-03T08:13:10Z</time>
      </trkpt>
      <trkpt lat="47.24317" lon="-1.57876">
        <ele>87</ele>
        <time>2022-05-03T08:13:11Z</time>
      </trkpt>
      <trkpt lat="47.24316" lon="-1.57877">
        <ele>87</ele>
        <time>2022-05-03T08:13:12Z</time>
      </trkpt>
      <trkpt lat="47.24315" lon="-1.57878">
        <ele>87</ele>
        <time>2022-05-03T08:13:13Z</time>
      </trkpt>
      <trkpt lat="47.24314" lon="-1.57878">
        <ele>88</ele>
        <time>2022-05-03T08:13:14Z</time>
      </trkpt>
      <trkpt lat="47.24313" lon="-1.57879">
        <ele>88</ele>
        <time>2022-05-03T08:13:15Z</time>
      </trkpt>
      <trkpt lat="47.24313" lon="-1.57879">
        <ele>89</ele>
        <time>2022-05-03T08:13:16Z</time>
      </trkpt>
      <trkpt lat="47.24311" lon="-1.5788">
        <ele>88</ele>
        <time>2022-05-03T08:13:17Z</time>
      </trkpt>
      <trkpt lat="47.24311" lon="-1.57882">
        <ele>88</ele>
        <time>2022-05-03T08:13:18Z</time>
      </trkpt>
      <trkpt lat="47.2431" lon="-1.57882">
        <ele>88</ele>
        <time>2022-05-03T08:13:19Z</time>
      </trkpt>
      <trkpt lat="47.24309" lon="-1.57882">
        <ele>87</ele>
        <time>2022-05-03T08:13:20Z</time>
      </trkpt>
      <trkpt lat="47.24308" lon="-1.57882">
        <ele>87</ele>
        <time>2022-05-03T08:13:21Z</time>
      </trkpt>
      <trkpt lat="47.24308" lon="-1.57882">
        <ele>88</ele>
        <time>2022-05-03T08:13:22Z</time>
      </trkpt>
      <trkpt lat="47.24308" lon="-1.57882">
        <ele>87</ele>
        <time>2022-05-03T08:13:23Z</time>
      </trkpt>
      <trkpt lat="47.24307" lon="-1.57882">
        <ele>87</ele>
        <time>2022-05-03T08:13:24Z</time>
      </trkpt>
      <trkpt lat="47.24306" lon="-1.57882">
        <ele>87</ele>
        <time>2022-05-03T08:13:25Z</time>
      </trkpt>
      <trkpt lat="47.24305" lon="-1.57882">
        <ele>87</ele>
        <time>2022-05-03T08:13:26Z</time>
      </trkpt>
      <trkpt lat="47.24303" lon="-1.57883">
        <ele>87</ele>
        <time>2022-05-03T08:13:27Z</time>
      </trkpt>
      <trkpt lat="47.24302" lon="-1.57883">
        <ele>87</ele>
        <time>2022-05-03T08:13:28Z</time>
      </trkpt>
      <trkpt lat="47.243" lon="-1.57884">
        <ele>87</ele>
        <time>2022-05-03T08:13:29Z</time>
      </trkpt>
      <trkpt lat="47.24299" lon="-1.57885">
        <ele>87</ele>
        <time>2022-05-03T08:13:30Z</time>
      </trkpt>
      <trkpt lat="47.24298" lon="-1.57886">
        <ele>87</ele>
        <time>2022-05-03T08:13:31Z</time>
      </trkpt>
      <trkpt lat="47.24297" lon="-1.57886">
        <ele>86</ele>
        <time>2022-05-03T08:13:32Z</time>
      </trkpt>
      <trkpt lat="47.24295" lon="-1.57888">
        <ele>87</ele>
        <time>2022-05-03T08:13:33Z</time>
      </trkpt>
      <trkpt lat="47.24294" lon="-1.57888">
        <ele>87</ele>
        <time>2022-05-03T08:13:34Z</time>
      </trkpt>
      <trkpt lat="47.24294" lon="-1.57889">
        <ele>86</ele>
        <time>2022-05-03T08:13:35Z</time>
      </trkpt>
      <trkpt lat="47.24292" lon="-1.5789">
        <ele>86</ele>
        <time>2022-05-03T08:13:36Z</time>
      </trkpt>
      <trkpt lat="47.24291" lon="-1.5789">
        <ele>86</ele>
        <time>2022-05-03T08:13:37Z</time>
      </trkpt>
      <trkpt lat="47.2429" lon="-1.5789">
        <ele>86</ele>
        <time>2022-05-03T08:13:38Z</time>
      </trkpt>
      <trkpt lat="47.24289" lon="-1.57889">
        <ele>87</ele>
        <time>2022-05-03T08:13:39Z</time>
      </trkpt>
      <trkpt lat="47.24288" lon="-1.57889">
        <ele>86</ele>
        <time>2022-05-03T08:13:40Z</time>
      </trkpt>
      <trkpt lat="47.24287" lon="-1.57889">
        <ele>86</ele>
        <time>2022-05-03T08:13:41Z</time>
      </trkpt>
      <trkpt lat="47.24286" lon="-1.57889">
        <ele>86</ele>
        <time>2022-05-03T08:13:42Z</time>
      </trkpt>
      <trkpt lat="47.24285" lon="-1.5789">
        <ele>86</ele>
        <time>2022-05-03T08:13:43Z</time>
      </trkpt>
      <trkpt lat="47.24283" lon="-1.5789">
        <ele>86</ele>
        <time>2022-05-03T08:13:44Z</time>
      </trkpt>
      <trkpt lat="47.24282" lon="-1.5789">
        <ele>87</ele>
        <time>2022-05-03T08:13:45Z</time>
      </trkpt>
      <trkpt lat="47.24281" lon="-1.5789">
        <ele>87</ele>
        <time>2022-05-03T08:13:46Z</time>
      </trkpt>
      <trkpt lat="47.24279" lon="-1.5789">
        <ele>87</ele>
        <time>2022-05-03T08:13:47Z</time>
      </trkpt>
      <trkpt lat="47.24278" lon="-1.5789">
        <ele>87</ele>
        <time>2022-05-03T08:13:48Z</time>
      </trkpt>
      <trkpt lat="47.24276" lon="-1.5789">
        <ele>88</ele>
        <time>2022-05-03T08:13:49Z</time>
      </trkpt>
      <trkpt lat="47.24274" lon="-1.5789">
        <ele>88</ele>
        <time>2022-05-03T08:13:50Z</time>
      </trkpt>
      <trkpt lat="47.24273" lon="-1.57889">
        <ele>89</ele>
        <time>2022-05-03T08:13:51Z</time>
      </trkpt>
      <trkpt lat="47.24271" lon="-1.57889">
        <ele>89</ele>
        <time>2022-05-03T08:13:52Z</time>
      </trkpt>
      <trkpt lat="47.2427" lon="-1.57889">
        <ele>89</ele>
        <time>2022-05-03T08:13:53Z</time>
      </trkpt>
      <trkpt lat="47.24268" lon="-1.57889">
        <ele>89</ele>
        <time>2022-05-03T08:13:54Z</time>
      </trkpt>
      <trkpt lat="47.24266" lon="-1.57889">
        <ele>89</ele>
        <time>2022-05-03T08:13:55Z</time>
      </trkpt>
      <trkpt lat="47.24265" lon="-1.57888">
        <ele>90</ele>
        <time>2022-05-03T08:13:56Z</time>
      </trkpt>
      <trkpt lat="47.24263" lon="-1.57888">
        <ele>90</ele>
        <time>2022-05-03T08:13:57Z</time>
      </trkpt>
      <trkpt lat="47.24262" lon="-1.57887">
        <ele>90</ele>
        <time>2022-05-03T08:13:58Z</time>
      </trkpt>
      <trkpt lat="47.2426" lon="-1.57886">
        <ele>90</ele>
        <time>2022-05-03T08:13:59Z</time>
      </trkpt>
      <trkpt lat="47.24259" lon="-1.57885">
        <ele>90</ele>
        <time>2022-05-03T08:14:00Z</time>
      </trkpt>
      <trkpt lat="47.24257" lon="-1.57885">
        <ele>90</ele>
        <time>2022-05-03T08:14:01Z</time>
      </trkpt>
      <trkpt lat="47.24256" lon="-1.57884">
        <ele>90</ele>
        <time>2022-05-03T08:14:02Z</time>
      </trkpt>
      <trkpt lat="47.24255" lon="-1.57883">
        <ele>91</ele>
        <time>2022-05-03T08:14:03Z</time>
      </trkpt>
      <trkpt lat="47.24254" lon="-1.57882">
        <ele>91</ele>
        <time>2022-05-03T08:14:04Z</time>
      </trkpt>
      <trkpt lat="47.24252" lon="-1.57882">
        <ele>92</ele>
        <time>2022-05-03T08:14:05Z</time>
      </trkpt>
      <trkpt lat="47.24252" lon="-1.57881">
        <ele>92</ele>
        <time>2022-05-03T08:14:06Z</time>
      </trkpt>
      <trkpt lat="47.2425" lon="-1.5788">
        <ele>92</ele>
        <time>2022-05-03T08:14:07Z</time>
      </trkpt>
      <trkpt lat="47.24249" lon="-1.5788">
        <ele>92</ele>
        <time>2022-05-03T08:14:08Z</time>
      </trkpt>
      <trkpt lat="47.24248" lon="-1.57879">
        <ele>92</ele>
        <time>2022-05-03T08:14:09Z</time>
      </trkpt>
      <trkpt lat="47.24247" lon="-1.57879">
        <ele>92</ele>
        <time>2022-05-03T08:14:10Z</time>
      </trkpt>
      <trkpt lat="47.24246" lon="-1.57878">
        <ele>93</ele>
        <time>2022-05-03T08:14:11Z</time>
      </trkpt>
      <trkpt lat="47.24245" lon="-1.57877">
        <ele>93</ele>
        <time>2022-05-03T08:14:12Z</time>
      </trkpt>
      <trkpt lat="47.24244" lon="-1.57877">
        <ele>93</ele>
        <time>2022-05-03T08:14:13Z</time>
      </trkpt>
      <trkpt lat="47.24243" lon="-1.57877">
        <ele>93</ele>
        <time>2022-05-03T08:14:14Z</time>
      </trkpt>
      <trkpt lat="47.24242" lon="-1.57876">
        <ele>93</ele>
        <time>2022-05-03T08:14:15Z</time>
      </trkpt>
      <trkpt lat="47.24241" lon="-1.57875">
        <ele>92</ele>
        <time>2022-05-03T08:14:16Z</time>
      </trkpt>
      <trkpt lat="47.2424" lon="-1.57874">
        <ele>92</ele>
        <time>2022-05-03T08:14:17Z</time>
      </trkpt>
      <trkpt lat="47.24239" lon="-1.57873">
        <ele>92</ele>
        <time>2022-05-03T08:14:18Z</time>
      </trkpt>
      <trkpt lat="47.24238" lon="-1.57873">
        <ele>92</ele>
        <time>2022-05-03T08:14:19Z</time>
      </trkpt>
      <trkpt lat="47.24237" lon="-1.57871">
        <ele>93</ele>
        <time>2022-05-03T08:14:20Z</time>
      </trkpt>
      <trkpt lat="47.24235" lon="-1.5787">
        <ele>92</ele>
        <time>2022-05-03T08:14:21Z</time>
      </trkpt>
      <trkpt lat="47.24234" lon="-1.57868">
        <ele>92</ele>
        <time>2022-05-03T08:14:22Z</time>
      </trkpt>
      <trkpt lat="47.24232" lon="-1.57867">
        <ele>91</ele>
        <time>2022-05-03T08:14:23Z</time>
      </trkpt>
      <trkpt lat="47.24231" lon="-1.57865">
        <ele>90</ele>
        <time>2022-05-03T08:14:24Z</time>
      </trkpt>
      <trkpt lat="47.2423" lon="-1.57864">
        <ele>91</ele>
        <time>2022-05-03T08:14:25Z</time>
      </trkpt>
      <trkpt lat="47.24228" lon="-1.57863">
        <ele>90</ele>
        <time>2022-05-03T08:14:26Z</time>
      </trkpt>
      <trkpt lat="47.24227" lon="-1.57863">
        <ele>90</ele>
        <time>2022-05-03T08:14:27Z</time>
      </trkpt>
      <trkpt lat="47.24226" lon="-1.57862">
        <ele>90</ele>
        <time>2022-05-03T08:14:28Z</time>
      </trkpt>
      <trkpt lat="47.24225" lon="-1.57861">
        <ele>89</ele>
        <time>2022-05-03T08:14:29Z</time>
      </trkpt>
      <trkpt lat="47.24223" lon="-1.5786">
        <ele>89</ele>
        <time>2022-05-03T08:14:30Z</time>
      </trkpt>
      <trkpt lat="47.24222" lon="-1.5786">
        <ele>89</ele>
        <time>2022-05-03T08:14:31Z</time>
      </trkpt>
      <trkpt lat="47.2422" lon="-1.5786">
        <ele>88</ele>
        <time>2022-05-03T08:14:32Z</time>
      </trkpt>
      <trkpt lat="47.24219" lon="-1.57859">
        <ele>88</ele>
        <time>2022-05-03T08:14:33Z</time>
      </trkpt>
      <trkpt lat="47.24218" lon="-1.57859">
        <ele>87</ele>
        <time>2022-05-03T08:14:34Z</time>
      </trkpt>
      <trkpt lat="47.24217" lon="-1.57859">
        <ele>87</ele>
        <time>2022-05-03T08:14:35Z</time>
      </trkpt>
      <trkpt lat="47.24216" lon="-1.57859">
        <ele>87</ele>
        <time>2022-05-03T08:14:36Z</time>
      </trkpt>
      <trkpt lat="47.24215" lon="-1.57858">
        <ele>86</ele>
        <time>2022-05-03T08:14:37Z</time>
      </trkpt>
      <trkpt lat="47.24213" lon="-1.57859">
        <ele>85</ele>
        <time>2022-05-03T08:14:38Z</time>
      </trkpt>
      <trkpt lat="47.24212" lon="-1.5786">
        <ele>85</ele>
        <time>2022-05-03T08:14:39Z</time>
      </trkpt>
      <trkpt lat="47.2421" lon="-1.5786">
        <ele>84</ele>
        <time>2022-05-03T08:14:40Z</time>
      </trkpt>
      <trkpt lat="47.2421" lon="-1.57861">
        <ele>84</ele>
        <time>2022-05-03T08:14:41Z</time>
      </trkpt>
      <trkpt lat="47.24209" lon="-1.57861">
        <ele>84</ele>
        <time>2022-05-03T08:14:42Z</time>
      </trkpt>
      <trkpt lat="47.24208" lon="-1.57862">
        <ele>84</ele>
        <time>2022-05-03T08:14:43Z</time>
      </trkpt>
      <trkpt lat="47.24208" lon="-1.57863">
        <ele>83</ele>
        <time>2022-05-03T08:14:44Z</time>
      </trkpt>
      <trkpt lat="47.24208" lon="-1.57863">
        <ele>83</ele>
        <time>2022-05-03T08:14:45Z</time>
      </trkpt>
      <trkpt lat="47.24207" lon="-1.57863">
        <ele>83</ele>
        <time>2022-05-03T08:14:46Z</time>
      </trkpt>
      <trkpt lat="47.24207" lon="-1.57863">
        <ele>83</ele>
        <time>2022-05-03T08:14:47Z</time>
      </trkpt>
      <trkpt lat="47.24207" lon="-1.57863">
        <ele>83</ele>
        <time>2022-05-03T08:14:48Z</time>
      </trkpt>
      <trkpt lat="47.24207" lon="-1.57863">
        <ele>83</ele>
        <time>2022-05-03T08:14:48Z</time>
      </trkpt>
      <trkpt lat="47.24206" lon="-1.57864">
        <ele>77</ele>
        <time>2022-05-03T08:15:40Z</time>
      </trkpt>
      <trkpt lat="47.24206" lon="-1.57863">
        <ele>77</ele>
        <time>2022-05-03T08:15:41Z</time>
      </trkpt>
      <trkpt lat="47.24206" lon="-1.57863">
        <ele>77</ele>
        <time>2022-05-03T08:15:42Z</time>
      </trkpt>
      <trkpt lat="47.24207" lon="-1.57862">
        <ele>78</ele>
        <time>2022-05-03T08:15:43Z</time>
      </trkpt>
      <trkpt lat="47.24207" lon="-1.57861">
        <ele>78</ele>
        <time>2022-05-03T08:15:44Z</time>
      </trkpt>
      <trkpt lat="47.24208" lon="-1.57861">
        <ele>78</ele>
        <time>2022-05-03T08:15:45Z</time>
      </trkpt>
      <trkpt lat="47.24209" lon="-1.5786">
        <ele>78</ele>
        <time>2022-05-03T08:15:46Z</time>
      </trkpt>
      <trkpt lat="47.24209" lon="-1.57859">
        <ele>79</ele>
        <time>2022-05-03T08:15:47Z</time>
      </trkpt>
      <trkpt lat="47.24209" lon="-1.57859">
        <ele>79</ele>
        <time>2022-05-03T08:15:48Z</time>
      </trkpt>
      <trkpt lat="47.2421" lon="-1.57857">
        <ele>79</ele>
        <time>2022-05-03T08:15:49Z</time>
      </trkpt>
      <trkpt lat="47.24211" lon="-1.57856">
        <ele>78</ele>
        <time>2022-05-03T08:15:50Z</time>
      </trkpt>
      <trkpt lat="47.24212" lon="-1.57856">
        <ele>78</ele>
        <time>2022-05-03T08:15:51Z</time>
      </trkpt>
      <trkpt lat="47.24212" lon="-1.57856">
        <ele>78</ele>
        <time>2022-05-03T08:15:52Z</time>
      </trkpt>
      <trkpt lat="47.24213" lon="-1.57855">
        <ele>78</ele>
        <time>2022-05-03T08:15:53Z</time>
      </trkpt>
      <trkpt lat="47.24214" lon="-1.57854">
        <ele>78</ele>
        <time>2022-05-03T08:15:54Z</time>
      </trkpt>
      <trkpt lat="47.24215" lon="-1.57853">
        <ele>77</ele>
        <time>2022-05-03T08:15:55Z</time>
      </trkpt>
      <trkpt lat="47.24215" lon="-1.57853">
        <ele>77</ele>
        <time>2022-05-03T08:15:56Z</time>
      </trkpt>
      <trkpt lat="47.24215" lon="-1.57853">
        <ele>77</ele>
        <time>2022-05-03T08:15:57Z</time>
      </trkpt>
      <trkpt lat="47.24215" lon="-1.57853">
        <ele>77</ele>
        <time>2022-05-03T08:15:58Z</time>
      </trkpt>
      <trkpt lat="47.24215" lon="-1.57853">
        <ele>77</ele>
        <time>2022-05-03T08:15:59Z</time>
      </trkpt>
      <trkpt lat="47.24215" lon="-1.57853">
        <ele>77</ele>
        <time>2022-05-03T08:16:00Z</time>
      </trkpt>
      <trkpt lat="47.24215" lon="-1.57853">
        <ele>77</ele>
        <time>2022-05-03T08:16:01Z</time>
      </trkpt>
      <trkpt lat="47.24215" lon="-1.57853">
        <ele>77</ele>
        <time>2022-05-03T08:16:02Z</time>
      </trkpt>
      <trkpt lat="47.24215" lon="-1.57853">
        <ele>77</ele>
        <time>2022-05-03T08:16:03Z</time>
      </trkpt>
      <trkpt lat="47.24215" lon="-1.57853">
        <ele>77</ele>
        <time>2022-05-03T08:16:03Z</time>
      </trkpt>
      <trkpt lat="47.24215" lon="-1.57853">
        <ele>77</ele>
        <time>2022-05-03T08:16:03Z</time>
      </trkpt>
      <trkpt lat="47.24215" lon="-1.57853">
        <ele>77</ele>
        <time>2022-05-03T08:16:17Z</time>
      </trkpt>
      <trkpt lat="47.24215" lon="-1.57853">
        <ele>77</ele>
        <time>2022-05-03T08:16:18Z</time>
      </trkpt>
      <trkpt lat="47.24215" lon="-1.57853">
        <ele>77</ele>
        <time>2022-05-03T08:16:19Z</time>
      </trkpt>
      <trkpt lat="47.24215" lon="-1.57853">
        <ele>77</ele>
        <time>2022-05-03T08:16:20Z</time>
      </trkpt>
      <trkpt lat="47.24215" lon="-1.57853">
        <ele>77</ele>
        <time>2022-05-03T08:16:21Z</time>
      </trkpt>
      <trkpt lat="47.24215" lon="-1.57853">
        <ele>77</ele>
        <time>2022-05-03T08:16:22Z</time>
      </trkpt>
      <trkpt lat="47.24215" lon="-1.57853">
        <ele>77</ele>
        <time>2022-05-03T08:16:23Z</time>
      </trkpt>
      <trkpt lat="47.24215" lon="-1.57853">
        <ele>77</ele>
        <time>2022-05-03T08:16:24Z</time>
      </trkpt>
      <trkpt lat="47.24215" lon="-1.57853">
        <ele>77</ele>
        <time>2022-05-03T08:16:25Z</time>
      </trkpt>
      <trkpt lat="47.24215" lon="-1.57854">
        <ele>78</ele>
        <time>2022-05-03T08:16:26Z</time>
      </trkpt>
      <trkpt lat="47.24215" lon="-1.57854">
        <ele>77</ele>
        <time>2022-05-03T08:16:27Z</time>
      </trkpt>
      <trkpt lat="47.24215" lon="-1.57854">
        <ele>77</ele>
        <time>2022-05-03T08:16:28Z</time>
      </trkpt>
      <trkpt lat="47.24215" lon="-1.57855">
        <ele>78</ele>
        <time>2022-05-03T08:16:29Z</time>
      </trkpt>
      <trkpt lat="47.24215" lon="-1.57855">
        <ele>78</ele>
        <time>2022-05-03T08:16:30Z</time>
      </trkpt>
      <trkpt lat="47.24215" lon="-1.57855">
        <ele>78</ele>
        <time>2022-05-03T08:16:31Z</time>
      </trkpt>
      <trkpt lat="47.24215" lon="-1.57855">
        <ele>78</ele>
        <time>2022-05-03T08:16:32Z</time>
      </trkpt>
      <trkpt lat="47.24215" lon="-1.57855">
        <ele>78</ele>
        <time>2022-05-03T08:16:33Z</time>
      </trkpt>
      <trkpt lat="47.24215" lon="-1.57855">
        <ele>78</ele>
        <time>2022-05-03T08:16:34Z</time>
      </trkpt>
      <trkpt lat="47.24215" lon="-1.57855">
        <ele>78</ele>
        <time>2022-05-03T08:16:35Z</time>
      </trkpt>
      <trkpt lat="47.24215" lon="-1.57855">
        <ele>78</ele>
        <time>2022-05-03T08:16:36Z</time>
      </trkpt>
      <trkpt lat="47.24215" lon="-1.57855">
        <ele>78</ele>
        <time>2022-05-03T08:16:37Z</time>
      </trkpt>
      <trkpt lat="47.24215" lon="-1.57855">
        <ele>78</ele>
        <time>2022-05-03T08:16:38Z</time>
      </trkpt>
      <trkpt lat="47.24215" lon="-1.57855">
        <ele>78</ele>
        <time>2022-05-03T08:16:39Z</time>
      </trkpt>
      <trkpt lat="47.24215" lon="-1.57855">
        <ele>78</ele>
        <time>2022-05-03T08:16:39Z</time>
      </trkpt>
      <trkpt lat="47.24215" lon="-1.57855">
        <ele>78</ele>
        <time>2022-05-03T08:16:39Z</time>
      </trkpt>
      <trkpt lat="47.24216" lon="-1.57856">
        <ele>80</ele>
        <time>2022-05-03T08:17:11Z</time>
      </trkpt>
      <trkpt lat="47.24216" lon="-1.57856">
        <ele>80</ele>
        <time>2022-05-03T08:17:12Z</time>
      </trkpt>
      <trkpt lat="47.24216" lon="-1.57856">
        <ele>80</ele>
        <time>2022-05-03T08:17:13Z</time>
      </trkpt>
      <trkpt lat="47.24216" lon="-1.57856">
        <ele>80</ele>
        <time>2022-05-03T08:17:14Z</time>
      </trkpt>
      <trkpt lat="47.24217" lon="-1.57857">
        <ele>80</ele>
        <time>2022-05-03T08:17:15Z</time>
      </trkpt>
      <trkpt lat="47.24217" lon="-1.57856">
        <ele>80</ele>
        <time>2022-05-03T08:17:16Z</time>
      </trkpt>
      <trkpt lat="47.24217" lon="-1.57856">
        <ele>80</ele>
        <time>2022-05-03T08:17:17Z</time>
      </trkpt>
      <trkpt lat="47.24217" lon="-1.57856">
        <ele>80</ele>
        <time>2022-05-03T08:17:18Z</time>
      </trkpt>
      <trkpt lat="47.24217" lon="-1.57856">
        <ele>80</ele>
        <time>2022-05-03T08:17:18Z</time>
      </trkpt>
      <trkpt lat="47.24217" lon="-1.57856">
        <ele>80</ele>
        <time>2022-05-03T08:17:18Z</time>
      </trkpt>
      <trkpt lat="47.24215" lon="-1.5785">
        <ele>84</ele>
        <time>2022-05-03T08:24:20Z</time>
      </trkpt>
      <trkpt lat="47.24215" lon="-1.57849">
        <ele>84</ele>
        <time>2022-05-03T08:24:21Z</time>
      </trkpt>
      <trkpt lat="47.24214" lon="-1.57847">
        <ele>84</ele>
        <time>2022-05-03T08:24:22Z</time>
      </trkpt>
      <trkpt lat="47.24213" lon="-1.57846">
        <ele>84</ele>
        <time>2022-05-03T08:24:23Z</time>
      </trkpt>
      <trkpt lat="47.24213" lon="-1.57845">
        <ele>84</ele>
        <time>2022-05-03T08:24:24Z</time>
      </trkpt>
      <trkpt lat="47.24212" lon="-1.57843">
        <ele>84</ele>
        <time>2022-05-03T08:24:25Z</time>
      </trkpt>
      <trkpt lat="47.24212" lon="-1.57842">
        <ele>85</ele>
        <time>2022-05-03T08:24:26Z</time>
      </trkpt>
      <trkpt lat="47.24211" lon="-1.5784">
        <ele>85</ele>
        <time>2022-05-03T08:24:27Z</time>
      </trkpt>
      <trkpt lat="47.2421" lon="-1.57839">
        <ele>85</ele>
        <time>2022-05-03T08:24:28Z</time>
      </trkpt>
      <trkpt lat="47.2421" lon="-1.57838">
        <ele>85</ele>
        <time>2022-05-03T08:24:29Z</time>
      </trkpt>
      <trkpt lat="47.24209" lon="-1.57836">
        <ele>86</ele>
        <time>2022-05-03T08:24:30Z</time>
      </trkpt>
      <trkpt lat="47.24209" lon="-1.57834">
        <ele>86</ele>
        <time>2022-05-03T08:24:31Z</time>
      </trkpt>
      <trkpt lat="47.24209" lon="-1.57832">
        <ele>86</ele>
        <time>2022-05-03T08:24:32Z</time>
      </trkpt>
      <trkpt lat="47.24209" lon="-1.57831">
        <ele>86</ele>
        <time>2022-05-03T08:24:33Z</time>
      </trkpt>
      <trkpt lat="47.24209" lon="-1.57829">
        <ele>86</ele>
        <time>2022-05-03T08:24:34Z</time>
      </trkpt>
      <trkpt lat="47.24209" lon="-1.57827">
        <ele>86</ele>
        <time>2022-05-03T08:24:35Z</time>
      </trkpt>
      <trkpt lat="47.24209" lon="-1.57826">
        <ele>86</ele>
        <time>2022-05-03T08:24:36Z</time>
      </trkpt>
      <trkpt lat="47.24209" lon="-1.57824">
        <ele>87</ele>
        <time>2022-05-03T08:24:37Z</time>
      </trkpt>
      <trkpt lat="47.24209" lon="-1.57822">
        <ele>87</ele>
        <time>2022-05-03T08:24:38Z</time>
      </trkpt>
      <trkpt lat="47.24209" lon="-1.5782">
        <ele>87</ele>
        <time>2022-05-03T08:24:39Z</time>
      </trkpt>
      <trkpt lat="47.24209" lon="-1.57818">
        <ele>87</ele>
        <time>2022-05-03T08:24:40Z</time>
      </trkpt>
      <trkpt lat="47.24209" lon="-1.57816">
        <ele>87</ele>
        <time>2022-05-03T08:24:41Z</time>
      </trkpt>
      <trkpt lat="47.24209" lon="-1.57814">
        <ele>87</ele>
        <time>2022-05-03T08:24:42Z</time>
      </trkpt>
      <trkpt lat="47.24209" lon="-1.57812">
        <ele>88</ele>
        <time>2022-05-03T08:24:43Z</time>
      </trkpt>
      <trkpt lat="47.2421" lon="-1.5781">
        <ele>87</ele>
        <time>2022-05-03T08:24:44Z</time>
      </trkpt>
      <trkpt lat="47.2421" lon="-1.57808">
        <ele>87</ele>
        <time>2022-05-03T08:24:45Z</time>
      </trkpt>
      <trkpt lat="47.24211" lon="-1.57807">
        <ele>88</ele>
        <time>2022-05-03T08:24:46Z</time>
      </trkpt>
      <trkpt lat="47.24212" lon="-1.57805">
        <ele>88</ele>
        <time>2022-05-03T08:24:47Z</time>
      </trkpt>
      <trkpt lat="47.24212" lon="-1.57803">
        <ele>87</ele>
        <time>2022-05-03T08:24:48Z</time>
      </trkpt>
      <trkpt lat="47.24213" lon="-1.57802">
        <ele>87</ele>
        <time>2022-05-03T08:24:49Z</time>
      </trkpt>
      <trkpt lat="47.24215" lon="-1.57801">
        <ele>88</ele>
        <time>2022-05-03T08:24:50Z</time>
      </trkpt>
      <trkpt lat="47.24216" lon="-1.57799">
        <ele>88</ele>
        <time>2022-05-03T08:24:51Z</time>
      </trkpt>
      <trkpt lat="47.24217" lon="-1.57797">
        <ele>87</ele>
        <time>2022-05-03T08:24:52Z</time>
      </trkpt>
      <trkpt lat="47.24218" lon="-1.57796">
        <ele>87</ele>
        <time>2022-05-03T08:24:53Z</time>
      </trkpt>
      <trkpt lat="47.2422" lon="-1.57795">
        <ele>87</ele>
        <time>2022-05-03T08:24:54Z</time>
      </trkpt>
      <trkpt lat="47.24221" lon="-1.57794">
        <ele>87</ele>
        <time>2022-05-03T08:24:55Z</time>
      </trkpt>
      <trkpt lat="47.24222" lon="-1.57794">
        <ele>87</ele>
        <time>2022-05-03T08:24:56Z</time>
      </trkpt>
      <trkpt lat="47.24223" lon="-1.57793">
        <ele>87</ele>
        <time>2022-05-03T08:24:57Z</time>
      </trkpt>
      <trkpt lat="47.24225" lon="-1.57792">
        <ele>87</ele>
        <time>2022-05-03T08:24:58Z</time>
      </trkpt>
      <trkpt lat="47.24226" lon="-1.57792">
        <ele>87</ele>
        <time>2022-05-03T08:24:59Z</time>
      </trkpt>
      <trkpt lat="47.24227" lon="-1.57791">
        <ele>87</ele>
        <time>2022-05-03T08:25:00Z</time>
      </trkpt>
      <trkpt lat="47.24228" lon="-1.57791">
        <ele>87</ele>
        <time>2022-05-03T08:25:01Z</time>
      </trkpt>
      <trkpt lat="47.2423" lon="-1.5779">
        <ele>87</ele>
        <time>2022-05-03T08:25:02Z</time>
      </trkpt>
      <trkpt lat="47.24231" lon="-1.57791">
        <ele>88</ele>
        <time>2022-05-03T08:25:03Z</time>
      </trkpt>
      <trkpt lat="47.24233" lon="-1.57791">
        <ele>88</ele>
        <time>2022-05-03T08:25:04Z</time>
      </trkpt>
      <trkpt lat="47.24234" lon="-1.57791">
        <ele>87</ele>
        <time>2022-05-03T08:25:05Z</time>
      </trkpt>
      <trkpt lat="47.24236" lon="-1.5779">
        <ele>87</ele>
        <time>2022-05-03T08:25:06Z</time>
      </trkpt>
      <trkpt lat="47.24237" lon="-1.5779">
        <ele>87</ele>
        <time>2022-05-03T08:25:07Z</time>
      </trkpt>
      <trkpt lat="47.24238" lon="-1.5779">
        <ele>87</ele>
        <time>2022-05-03T08:25:08Z</time>
      </trkpt>
      <trkpt lat="47.24239" lon="-1.5779">
        <ele>87</ele>
        <time>2022-05-03T08:25:09Z</time>
      </trkpt>
      <trkpt lat="47.24241" lon="-1.5779">
        <ele>87</ele>
        <time>2022-05-03T08:25:10Z</time>
      </trkpt>
      <trkpt lat="47.24241" lon="-1.57789">
        <ele>87</ele>
        <time>2022-05-03T08:25:11Z</time>
      </trkpt>
      <trkpt lat="47.24242" lon="-1.57789">
        <ele>86</ele>
        <time>2022-05-03T08:25:12Z</time>
      </trkpt>
      <trkpt lat="47.24244" lon="-1.57789">
        <ele>86</ele>
        <time>2022-05-03T08:25:13Z</time>
      </trkpt>
      <trkpt lat="47.24245" lon="-1.57789">
        <ele>86</ele>
        <time>2022-05-03T08:25:14Z</time>
      </trkpt>
      <trkpt lat="47.24246" lon="-1.57789">
        <ele>87</ele>
        <time>2022-05-03T08:25:15Z</time>
      </trkpt>
      <trkpt lat="47.24247" lon="-1.57788">
        <ele>87</ele>
        <time>2022-05-03T08:25:16Z</time>
      </trkpt>
      <trkpt lat="47.24249" lon="-1.57788">
        <ele>87</ele>
        <time>2022-05-03T08:25:17Z</time>
      </trkpt>
      <trkpt lat="47.2425" lon="-1.57788">
        <ele>87</ele>
        <time>2022-05-03T08:25:18Z</time>
      </trkpt>
      <trkpt lat="47.24252" lon="-1.57787">
        <ele>87</ele>
        <time>2022-05-03T08:25:19Z</time>
      </trkpt>
      <trkpt lat="47.24253" lon="-1.57787">
        <ele>86</ele>
        <time>2022-05-03T08:25:20Z</time>
      </trkpt>
      <trkpt lat="47.24254" lon="-1.57787">
        <ele>87</ele>
        <time>2022-05-03T08:25:21Z</time>
      </trkpt>
      <trkpt lat="47.24255" lon="-1.57788">
        <ele>87</ele>
        <time>2022-05-03T08:25:22Z</time>
      </trkpt>
      <trkpt lat="47.24256" lon="-1.57788">
        <ele>87</ele>
        <time>2022-05-03T08:25:23Z</time>
      </trkpt>
      <trkpt lat="47.24257" lon="-1.57788">
        <ele>87</ele>
        <time>2022-05-03T08:25:24Z</time>
      </trkpt>
      <trkpt lat="47.24259" lon="-1.57788">
        <ele>88</ele>
        <time>2022-05-03T08:25:25Z</time>
      </trkpt>
      <trkpt lat="47.2426" lon="-1.57788">
        <ele>88</ele>
        <time>2022-05-03T08:25:26Z</time>
      </trkpt>
      <trkpt lat="47.24261" lon="-1.57788">
        <ele>88</ele>
        <time>2022-05-03T08:25:27Z</time>
      </trkpt>
      <trkpt lat="47.24263" lon="-1.57788">
        <ele>88</ele>
        <time>2022-05-03T08:25:28Z</time>
      </trkpt>
      <trkpt lat="47.24264" lon="-1.57788">
        <ele>87</ele>
        <time>2022-05-03T08:25:29Z</time>
      </trkpt>
      <trkpt lat="47.24266" lon="-1.57787">
        <ele>87</ele>
        <time>2022-05-03T08:25:30Z</time>
      </trkpt>
      <trkpt lat="47.24267" lon="-1.57787">
        <ele>87</ele>
        <time>2022-05-03T08:25:31Z</time>
      </trkpt>
      <trkpt lat="47.24268" lon="-1.57788">
        <ele>87</ele>
        <time>2022-05-03T08:25:32Z</time>
      </trkpt>
      <trkpt lat="47.2427" lon="-1.57788">
        <ele>86</ele>
        <time>2022-05-03T08:25:33Z</time>
      </trkpt>
      <trkpt lat="47.24271" lon="-1.57788">
        <ele>86</ele>
        <time>2022-05-03T08:25:34Z</time>
      </trkpt>
      <trkpt lat="47.24272" lon="-1.57789">
        <ele>86</ele>
        <time>2022-05-03T08:25:35Z</time>
      </trkpt>
      <trkpt lat="47.24273" lon="-1.57789">
        <ele>86</ele>
        <time>2022-05-03T08:25:36Z</time>
      </trkpt>
      <trkpt lat="47.24274" lon="-1.57788">
        <ele>87</ele>
        <time>2022-05-03T08:25:37Z</time>
      </trkpt>
      <trkpt lat="47.24276" lon="-1.57788">
        <ele>87</ele>
        <time>2022-05-03T08:25:38Z</time>
      </trkpt>
      <trkpt lat="47.24277" lon="-1.57788">
        <ele>88</ele>
        <time>2022-05-03T08:25:39Z</time>
      </trkpt>
      <trkpt lat="47.24278" lon="-1.57788">
        <ele>88</ele>
        <time>2022-05-03T08:25:40Z</time>
      </trkpt>
      <trkpt lat="47.24279" lon="-1.57788">
        <ele>88</ele>
        <time>2022-05-03T08:25:41Z</time>
      </trkpt>
      <trkpt lat="47.2428" lon="-1.57789">
        <ele>87</ele>
        <time>2022-05-03T08:25:42Z</time>
      </trkpt>
      <trkpt lat="47.24282" lon="-1.5779">
        <ele>88</ele>
        <time>2022-05-03T08:25:43Z</time>
      </trkpt>
      <trkpt lat="47.24283" lon="-1.5779">
        <ele>88</ele>
        <time>2022-05-03T08:25:44Z</time>
      </trkpt>
      <trkpt lat="47.24285" lon="-1.57791">
        <ele>87</ele>
        <time>2022-05-03T08:25:45Z</time>
      </trkpt>
      <trkpt lat="47.24286" lon="-1.57791">
        <ele>87</ele>
        <time>2022-05-03T08:25:46Z</time>
      </trkpt>
      <trkpt lat="47.24287" lon="-1.57791">
        <ele>87</ele>
        <time>2022-05-03T08:25:47Z</time>
      </trkpt>
      <trkpt lat="47.24288" lon="-1.57792">
        <ele>87</ele>
        <time>2022-05-03T08:25:48Z</time>
      </trkpt>
      <trkpt lat="47.2429" lon="-1.57792">
        <ele>87</ele>
        <time>2022-05-03T08:25:49Z</time>
      </trkpt>
      <trkpt lat="47.24291" lon="-1.57792">
        <ele>87</ele>
        <time>2022-05-03T08:25:50Z</time>
      </trkpt>
      <trkpt lat="47.24292" lon="-1.57793">
        <ele>87</ele>
        <time>2022-05-03T08:25:51Z</time>
      </trkpt>
      <trkpt lat="47.24294" lon="-1.57794">
        <ele>86</ele>
        <time>2022-05-03T08:25:52Z</time>
      </trkpt>
      <trkpt lat="47.24295" lon="-1.57794">
        <ele>86</ele>
        <time>2022-05-03T08:25:53Z</time>
      </trkpt>
      <trkpt lat="47.24296" lon="-1.57795">
        <ele>86</ele>
        <time>2022-05-03T08:25:54Z</time>
      </trkpt>
      <trkpt lat="47.24297" lon="-1.57795">
        <ele>86</ele>
        <time>2022-05-03T08:25:55Z</time>
      </trkpt>
      <trkpt lat="47.24298" lon="-1.57796">
        <ele>86</ele>
        <time>2022-05-03T08:25:56Z</time>
      </trkpt>
      <trkpt lat="47.243" lon="-1.57797">
        <ele>86</ele>
        <time>2022-05-03T08:25:57Z</time>
      </trkpt>
      <trkpt lat="47.24301" lon="-1.57797">
        <ele>86</ele>
        <time>2022-05-03T08:25:58Z</time>
      </trkpt>
      <trkpt lat="47.24302" lon="-1.57798">
        <ele>85</ele>
        <time>2022-05-03T08:25:59Z</time>
      </trkpt>
      <trkpt lat="47.24303" lon="-1.57798">
        <ele>85</ele>
        <time>2022-05-03T08:26:00Z</time>
      </trkpt>
      <trkpt lat="47.24305" lon="-1.57798">
        <ele>85</ele>
        <time>2022-05-03T08:26:01Z</time>
      </trkpt>
      <trkpt lat="47.24306" lon="-1.57798">
        <ele>85</ele>
        <time>2022-05-03T08:26:02Z</time>
      </trkpt>
      <trkpt lat="47.24307" lon="-1.57798">
        <ele>86</ele>
        <time>2022-05-03T08:26:03Z</time>
      </trkpt>
      <trkpt lat="47.24308" lon="-1.57798">
        <ele>86</ele>
        <time>2022-05-03T08:26:04Z</time>
      </trkpt>
      <trkpt lat="47.2431" lon="-1.57799">
        <ele>86</ele>
        <time>2022-05-03T08:26:05Z</time>
      </trkpt>
      <trkpt lat="47.24311" lon="-1.57799">
        <ele>86</ele>
        <time>2022-05-03T08:26:06Z</time>
      </trkpt>
      <trkpt lat="47.24312" lon="-1.57799">
        <ele>86</ele>
        <time>2022-05-03T08:26:07Z</time>
      </trkpt>
      <trkpt lat="47.24314" lon="-1.57799">
        <ele>86</ele>
        <time>2022-05-03T08:26:08Z</time>
      </trkpt>
      <trkpt lat="47.24315" lon="-1.578">
        <ele>87</ele>
        <time>2022-05-03T08:26:09Z</time>
      </trkpt>
      <trkpt lat="47.24316" lon="-1.578">
        <ele>87</ele>
        <time>2022-05-03T08:26:10Z</time>
      </trkpt>
      <trkpt lat="47.24318" lon="-1.578">
        <ele>86</ele>
        <time>2022-05-03T08:26:11Z</time>
      </trkpt>
      <trkpt lat="47.2432" lon="-1.57801">
        <ele>87</ele>
        <time>2022-05-03T08:26:12Z</time>
      </trkpt>
      <trkpt lat="47.24321" lon="-1.57801">
        <ele>87</ele>
        <time>2022-05-03T08:26:13Z</time>
      </trkpt>
      <trkpt lat="47.24322" lon="-1.578">
        <ele>88</ele>
        <time>2022-05-03T08:26:14Z</time>
      </trkpt>
      <trkpt lat="47.24323" lon="-1.57799">
        <ele>88</ele>
        <time>2022-05-03T08:26:15Z</time>
      </trkpt>
      <trkpt lat="47.24324" lon="-1.57798">
        <ele>88</ele>
        <time>2022-05-03T08:26:16Z</time>
      </trkpt>
      <trkpt lat="47.24325" lon="-1.57797">
        <ele>88</ele>
        <time>2022-05-03T08:26:17Z</time>
      </trkpt>
      <trkpt lat="47.24326" lon="-1.57796">
        <ele>88</ele>
        <time>2022-05-03T08:26:18Z</time>
      </trkpt>
      <trkpt lat="47.24327" lon="-1.57795">
        <ele>88</ele>
        <time>2022-05-03T08:26:19Z</time>
      </trkpt>
      <trkpt lat="47.24328" lon="-1.57793">
        <ele>88</ele>
        <time>2022-05-03T08:26:20Z</time>
      </trkpt>
      <trkpt lat="47.24328" lon="-1.57792">
        <ele>89</ele>
        <time>2022-05-03T08:26:21Z</time>
      </trkpt>
      <trkpt lat="47.24328" lon="-1.57791">
        <ele>90</ele>
        <time>2022-05-03T08:26:22Z</time>
      </trkpt>
      <trkpt lat="47.24329" lon="-1.57789">
        <ele>90</ele>
        <time>2022-05-03T08:26:23Z</time>
      </trkpt>
      <trkpt lat="47.24329" lon="-1.57787">
        <ele>90</ele>
        <time>2022-05-03T08:26:24Z</time>
      </trkpt>
      <trkpt lat="47.24329" lon="-1.57786">
        <ele>90</ele>
        <time>2022-05-03T08:26:25Z</time>
      </trkpt>
      <trkpt lat="47.24329" lon="-1.57784">
        <ele>90</ele>
        <time>2022-05-03T08:26:26Z</time>
      </trkpt>
      <trkpt lat="47.2433" lon="-1.57783">
        <ele>91</ele>
        <time>2022-05-03T08:26:27Z</time>
      </trkpt>
      <trkpt lat="47.24331" lon="-1.57782">
        <ele>91</ele>
        <time>2022-05-03T08:26:28Z</time>
      </trkpt>
      <trkpt lat="47.24332" lon="-1.5778">
        <ele>91</ele>
        <time>2022-05-03T08:26:29Z</time>
      </trkpt>
      <trkpt lat="47.24332" lon="-1.5778">
        <ele>91</ele>
        <time>2022-05-03T08:26:30Z</time>
      </trkpt>
      <trkpt lat="47.24334" lon="-1.57779">
        <ele>91</ele>
        <time>2022-05-03T08:26:31Z</time>
      </trkpt>
      <trkpt lat="47.24334" lon="-1.57778">
        <ele>91</ele>
        <time>2022-05-03T08:26:32Z</time>
      </trkpt>
      <trkpt lat="47.24336" lon="-1.57778">
        <ele>91</ele>
        <time>2022-05-03T08:26:33Z</time>
      </trkpt>
      <trkpt lat="47.24337" lon="-1.57777">
        <ele>91</ele>
        <time>2022-05-03T08:26:34Z</time>
      </trkpt>
      <trkpt lat="47.24338" lon="-1.57777">
        <ele>91</ele>
        <time>2022-05-03T08:26:35Z</time>
      </trkpt>
      <trkpt lat="47.24339" lon="-1.57776">
        <ele>91</ele>
        <time>2022-05-03T08:26:36Z</time>
      </trkpt>
      <trkpt lat="47.2434" lon="-1.57776">
        <ele>91</ele>
        <time>2022-05-03T08:26:37Z</time>
      </trkpt>
      <trkpt lat="47.24341" lon="-1.57776">
        <ele>92</ele>
        <time>2022-05-03T08:26:38Z</time>
      </trkpt>
      <trkpt lat="47.24342" lon="-1.57776">
        <ele>91</ele>
        <time>2022-05-03T08:26:39Z</time>
      </trkpt>
      <trkpt lat="47.24344" lon="-1.57775">
        <ele>91</ele>
        <time>2022-05-03T08:26:40Z</time>
      </trkpt>
      <trkpt lat="47.24345" lon="-1.57775">
        <ele>91</ele>
        <time>2022-05-03T08:26:41Z</time>
      </trkpt>
      <trkpt lat="47.24346" lon="-1.57775">
        <ele>91</ele>
        <time>2022-05-03T08:26:42Z</time>
      </trkpt>
      <trkpt lat="47.24347" lon="-1.57774">
        <ele>91</ele>
        <time>2022-05-03T08:26:43Z</time>
      </trkpt>
      <trkpt lat="47.24348" lon="-1.57774">
        <ele>91</ele>
        <time>2022-05-03T08:26:44Z</time>
      </trkpt>
      <trkpt lat="47.2435" lon="-1.57774">
        <ele>91</ele>
        <time>2022-05-03T08:26:45Z</time>
      </trkpt>
      <trkpt lat="47.24351" lon="-1.57774">
        <ele>91</ele>
        <time>2022-05-03T08:26:46Z</time>
      </trkpt>
      <trkpt lat="47.24352" lon="-1.57774">
        <ele>91</ele>
        <time>2022-05-03T08:26:47Z</time>
      </trkpt>
      <trkpt lat="47.24353" lon="-1.57774">
        <ele>91</ele>
        <time>2022-05-03T08:26:48Z</time>
      </trkpt>
      <trkpt lat="47.24355" lon="-1.57773">
        <ele>90</ele>
        <time>2022-05-03T08:26:49Z</time>
      </trkpt>
      <trkpt lat="47.24356" lon="-1.57773">
        <ele>90</ele>
        <time>2022-05-03T08:26:50Z</time>
      </trkpt>
      <trkpt lat="47.24358" lon="-1.57773">
        <ele>90</ele>
        <time>2022-05-03T08:26:51Z</time>
      </trkpt>
      <trkpt lat="47.24359" lon="-1.57773">
        <ele>90</ele>
        <time>2022-05-03T08:26:52Z</time>
      </trkpt>
      <trkpt lat="47.2436" lon="-1.57772">
        <ele>90</ele>
        <time>2022-05-03T08:26:53Z</time>
      </trkpt>
      <trkpt lat="47.2436" lon="-1.57772">
        <ele>90</ele>
        <time>2022-05-03T08:26:54Z</time>
      </trkpt>
      <trkpt lat="47.24361" lon="-1.57771">
        <ele>90</ele>
        <time>2022-05-03T08:26:55Z</time>
      </trkpt>
      <trkpt lat="47.24363" lon="-1.57771">
        <ele>90</ele>
        <time>2022-05-03T08:26:56Z</time>
      </trkpt>
      <trkpt lat="47.24364" lon="-1.57771">
        <ele>91</ele>
        <time>2022-05-03T08:26:57Z</time>
      </trkpt>
      <trkpt lat="47.24365" lon="-1.57771">
        <ele>91</ele>
        <time>2022-05-03T08:26:58Z</time>
      </trkpt>
      <trkpt lat="47.24366" lon="-1.5777">
        <ele>91</ele>
        <time>2022-05-03T08:26:59Z</time>
      </trkpt>
      <trkpt lat="47.24368" lon="-1.57769">
        <ele>91</ele>
        <time>2022-05-03T08:27:00Z</time>
      </trkpt>
      <trkpt lat="47.24369" lon="-1.57768">
        <ele>91</ele>
        <time>2022-05-03T08:27:01Z</time>
      </trkpt>
      <trkpt lat="47.2437" lon="-1.57768">
        <ele>91</ele>
        <time>2022-05-03T08:27:02Z</time>
      </trkpt>
      <trkpt lat="47.24372" lon="-1.57766">
        <ele>91</ele>
        <time>2022-05-03T08:27:03Z</time>
      </trkpt>
      <trkpt lat="47.24373" lon="-1.57766">
        <ele>91</ele>
        <time>2022-05-03T08:27:04Z</time>
      </trkpt>
      <trkpt lat="47.24374" lon="-1.57765">
        <ele>91</ele>
        <time>2022-05-03T08:27:05Z</time>
      </trkpt>
      <trkpt lat="47.24376" lon="-1.57764">
        <ele>91</ele>
        <time>2022-05-03T08:27:06Z</time>
      </trkpt>
      <trkpt lat="47.24377" lon="-1.57762">
        <ele>91</ele>
        <time>2022-05-03T08:27:07Z</time>
      </trkpt>
      <trkpt lat="47.24379" lon="-1.57762">
        <ele>91</ele>
        <time>2022-05-03T08:27:08Z</time>
      </trkpt>
      <trkpt lat="47.2438" lon="-1.57761">
        <ele>91</ele>
        <time>2022-05-03T08:27:09Z</time>
      </trkpt>
      <trkpt lat="47.24381" lon="-1.57761">
        <ele>91</ele>
        <time>2022-05-03T08:27:10Z</time>
      </trkpt>
      <trkpt lat="47.24382" lon="-1.5776">
        <ele>91</ele>
        <time>2022-05-03T08:27:11Z</time>
      </trkpt>
      <trkpt lat="47.24384" lon="-1.57759">
        <ele>91</ele>
        <time>2022-05-03T08:27:12Z</time>
      </trkpt>
      <trkpt lat="47.24385" lon="-1.57759">
        <ele>90</ele>
        <time>2022-05-03T08:27:13Z</time>
      </trkpt>
      <trkpt lat="47.24386" lon="-1.57758">
        <ele>90</ele>
        <time>2022-05-03T08:27:14Z</time>
      </trkpt>
      <trkpt lat="47.24388" lon="-1.57757">
        <ele>90</ele>
        <time>2022-05-03T08:27:15Z</time>
      </trkpt>
      <trkpt lat="47.24389" lon="-1.57757">
        <ele>90</ele>
        <time>2022-05-03T08:27:16Z</time>
      </trkpt>
      <trkpt lat="47.24391" lon="-1.57756">
        <ele>89</ele>
        <time>2022-05-03T08:27:17Z</time>
      </trkpt>
      <trkpt lat="47.24392" lon="-1.57755">
        <ele>89</ele>
        <time>2022-05-03T08:27:18Z</time>
      </trkpt>
      <trkpt lat="47.24393" lon="-1.57754">
        <ele>89</ele>
        <time>2022-05-03T08:27:19Z</time>
      </trkpt>
      <trkpt lat="47.24395" lon="-1.57754">
        <ele>89</ele>
        <time>2022-05-03T08:27:20Z</time>
      </trkpt>
      <trkpt lat="47.24396" lon="-1.57754">
        <ele>88</ele>
        <time>2022-05-03T08:27:21Z</time>
      </trkpt>
      <trkpt lat="47.24397" lon="-1.57753">
        <ele>88</ele>
        <time>2022-05-03T08:27:22Z</time>
      </trkpt>
      <trkpt lat="47.24398" lon="-1.57753">
        <ele>88</ele>
        <time>2022-05-03T08:27:23Z</time>
      </trkpt>
      <trkpt lat="47.244" lon="-1.57753">
        <ele>87</ele>
        <time>2022-05-03T08:27:24Z</time>
      </trkpt>
      <trkpt lat="47.24401" lon="-1.57753">
        <ele>87</ele>
        <time>2022-05-03T08:27:25Z</time>
      </trkpt>
      <trkpt lat="47.24402" lon="-1.57753">
        <ele>87</ele>
        <time>2022-05-03T08:27:26Z</time>
      </trkpt>
      <trkpt lat="47.24403" lon="-1.57753">
        <ele>86</ele>
        <time>2022-05-03T08:27:27Z</time>
      </trkpt>
      <trkpt lat="47.24405" lon="-1.57753">
        <ele>86</ele>
        <time>2022-05-03T08:27:28Z</time>
      </trkpt>
      <trkpt lat="47.24406" lon="-1.57753">
        <ele>86</ele>
        <time>2022-05-03T08:27:29Z</time>
      </trkpt>
      <trkpt lat="47.24407" lon="-1.57753">
        <ele>86</ele>
        <time>2022-05-03T08:27:30Z</time>
      </trkpt>
      <trkpt lat="47.24408" lon="-1.57753">
        <ele>86</ele>
        <time>2022-05-03T08:27:31Z</time>
      </trkpt>
      <trkpt lat="47.24409" lon="-1.57753">
        <ele>86</ele>
        <time>2022-05-03T08:27:32Z</time>
      </trkpt>
      <trkpt lat="47.2441" lon="-1.57753">
        <ele>86</ele>
        <time>2022-05-03T08:27:33Z</time>
      </trkpt>
      <trkpt lat="47.24411" lon="-1.57752">
        <ele>86</ele>
        <time>2022-05-03T08:27:34Z</time>
      </trkpt>
      <trkpt lat="47.24413" lon="-1.57752">
        <ele>86</ele>
        <time>2022-05-03T08:27:35Z</time>
      </trkpt>
      <trkpt lat="47.24414" lon="-1.57751">
        <ele>85</ele>
        <time>2022-05-03T08:27:36Z</time>
      </trkpt>
      <trkpt lat="47.24415" lon="-1.57751">
        <ele>85</ele>
        <time>2022-05-03T08:27:37Z</time>
      </trkpt>
      <trkpt lat="47.24416" lon="-1.5775">
        <ele>85</ele>
        <time>2022-05-03T08:27:38Z</time>
      </trkpt>
      <trkpt lat="47.24417" lon="-1.5775">
        <ele>85</ele>
        <time>2022-05-03T08:27:39Z</time>
      </trkpt>
      <trkpt lat="47.24418" lon="-1.5775">
        <ele>85</ele>
        <time>2022-05-03T08:27:40Z</time>
      </trkpt>
      <trkpt lat="47.24419" lon="-1.57749">
        <ele>85</ele>
        <time>2022-05-03T08:27:41Z</time>
      </trkpt>
      <trkpt lat="47.24421" lon="-1.57749">
        <ele>86</ele>
        <time>2022-05-03T08:27:42Z</time>
      </trkpt>
      <trkpt lat="47.24423" lon="-1.57749">
        <ele>86</ele>
        <time>2022-05-03T08:27:43Z</time>
      </trkpt>
      <trkpt lat="47.24424" lon="-1.57749">
        <ele>87</ele>
        <time>2022-05-03T08:27:44Z</time>
      </trkpt>
      <trkpt lat="47.24425" lon="-1.57749">
        <ele>87</ele>
        <time>2022-05-03T08:27:45Z</time>
      </trkpt>
      <trkpt lat="47.24427" lon="-1.57749">
        <ele>86</ele>
        <time>2022-05-03T08:27:46Z</time>
      </trkpt>
      <trkpt lat="47.24428" lon="-1.57749">
        <ele>86</ele>
        <time>2022-05-03T08:27:47Z</time>
      </trkpt>
      <trkpt lat="47.2443" lon="-1.57748">
        <ele>87</ele>
        <time>2022-05-03T08:27:48Z</time>
      </trkpt>
      <trkpt lat="47.24431" lon="-1.57748">
        <ele>87</ele>
        <time>2022-05-03T08:27:49Z</time>
      </trkpt>
      <trkpt lat="47.24432" lon="-1.57747">
        <ele>88</ele>
        <time>2022-05-03T08:27:50Z</time>
      </trkpt>
      <trkpt lat="47.24433" lon="-1.57746">
        <ele>89</ele>
        <time>2022-05-03T08:27:51Z</time>
      </trkpt>
      <trkpt lat="47.24434" lon="-1.57745">
        <ele>88</ele>
        <time>2022-05-03T08:27:52Z</time>
      </trkpt>
      <trkpt lat="47.24436" lon="-1.57746">
        <ele>88</ele>
        <time>2022-05-03T08:27:53Z</time>
      </trkpt>
      <trkpt lat="47.24437" lon="-1.57745">
        <ele>88</ele>
        <time>2022-05-03T08:27:54Z</time>
      </trkpt>
      <trkpt lat="47.24439" lon="-1.57744">
        <ele>88</ele>
        <time>2022-05-03T08:27:55Z</time>
      </trkpt>
      <trkpt lat="47.2444" lon="-1.57742">
        <ele>88</ele>
        <time>2022-05-03T08:27:56Z</time>
      </trkpt>
      <trkpt lat="47.2444" lon="-1.57741">
        <ele>88</ele>
        <time>2022-05-03T08:27:57Z</time>
      </trkpt>
      <trkpt lat="47.24442" lon="-1.57741">
        <ele>87</ele>
        <time>2022-05-03T08:27:58Z</time>
      </trkpt>
      <trkpt lat="47.24443" lon="-1.5774">
        <ele>88</ele>
        <time>2022-05-03T08:27:59Z</time>
      </trkpt>
      <trkpt lat="47.24444" lon="-1.5774">
        <ele>87</ele>
        <time>2022-05-03T08:28:00Z</time>
      </trkpt>
      <trkpt lat="47.24445" lon="-1.57739">
        <ele>87</ele>
        <time>2022-05-03T08:28:01Z</time>
      </trkpt>
      <trkpt lat="47.24447" lon="-1.57738">
        <ele>88</ele>
        <time>2022-05-03T08:28:02Z</time>
      </trkpt>
      <trkpt lat="47.24448" lon="-1.57738">
        <ele>87</ele>
        <time>2022-05-03T08:28:03Z</time>
      </trkpt>
      <trkpt lat="47.24449" lon="-1.57737">
        <ele>87</ele>
        <time>2022-05-03T08:28:04Z</time>
      </trkpt>
      <trkpt lat="47.2445" lon="-1.57736">
        <ele>88</ele>
        <time>2022-05-03T08:28:05Z</time>
      </trkpt>
      <trkpt lat="47.24451" lon="-1.57735">
        <ele>88</ele>
        <time>2022-05-03T08:28:06Z</time>
      </trkpt>
      <trkpt lat="47.24452" lon="-1.57734">
        <ele>88</ele>
        <time>2022-05-03T08:28:07Z</time>
      </trkpt>
      <trkpt lat="47.24453" lon="-1.57734">
        <ele>89</ele>
        <time>2022-05-03T08:28:08Z</time>
      </trkpt>
      <trkpt lat="47.24455" lon="-1.57733">
        <ele>89</ele>
        <time>2022-05-03T08:28:09Z</time>
      </trkpt>
      <trkpt lat="47.24456" lon="-1.57733">
        <ele>89</ele>
        <time>2022-05-03T08:28:10Z</time>
      </trkpt>
      <trkpt lat="47.24456" lon="-1.57733">
        <ele>89</ele>
        <time>2022-05-03T08:28:11Z</time>
      </trkpt>
      <trkpt lat="47.24458" lon="-1.57733">
        <ele>90</ele>
        <time>2022-05-03T08:28:12Z</time>
      </trkpt>
      <trkpt lat="47.24459" lon="-1.57733">
        <ele>90</ele>
        <time>2022-05-03T08:28:13Z</time>
      </trkpt>
      <trkpt lat="47.2446" lon="-1.57732">
        <ele>90</ele>
        <time>2022-05-03T08:28:14Z</time>
      </trkpt>
      <trkpt lat="47.24461" lon="-1.57733">
        <ele>90</ele>
        <time>2022-05-03T08:28:15Z</time>
      </trkpt>
      <trkpt lat="47.24461" lon="-1.57733">
        <ele>90</ele>
        <time>2022-05-03T08:28:16Z</time>
      </trkpt>
      <trkpt lat="47.24462" lon="-1.57734">
        <ele>90</ele>
        <time>2022-05-03T08:28:17Z</time>
      </trkpt>
      <trkpt lat="47.24464" lon="-1.57736">
        <ele>89</ele>
        <time>2022-05-03T08:28:18Z</time>
      </trkpt>
      <trkpt lat="47.24465" lon="-1.57736">
        <ele>89</ele>
        <time>2022-05-03T08:28:19Z</time>
      </trkpt>
      <trkpt lat="47.24467" lon="-1.57737">
        <ele>89</ele>
        <time>2022-05-03T08:28:20Z</time>
      </trkpt>
      <trkpt lat="47.24468" lon="-1.57737">
        <ele>89</ele>
        <time>2022-05-03T08:28:21Z</time>
      </trkpt>
      <trkpt lat="47.2447" lon="-1.57738">
        <ele>89</ele>
        <time>2022-05-03T08:28:22Z</time>
      </trkpt>
      <trkpt lat="47.24471" lon="-1.57737">
        <ele>90</ele>
        <time>2022-05-03T08:28:23Z</time>
      </trkpt>
      <trkpt lat="47.24472" lon="-1.57737">
        <ele>90</ele>
        <time>2022-05-03T08:28:24Z</time>
      </trkpt>
      <trkpt lat="47.24472" lon="-1.57736">
        <ele>90</ele>
        <time>2022-05-03T08:28:25Z</time>
      </trkpt>
      <trkpt lat="47.24473" lon="-1.57735">
        <ele>90</ele>
        <time>2022-05-03T08:28:26Z</time>
      </trkpt>
      <trkpt lat="47.24473" lon="-1.57734">
        <ele>90</ele>
        <time>2022-05-03T08:28:27Z</time>
      </trkpt>
      <trkpt lat="47.24474" lon="-1.57732">
        <ele>90</ele>
        <time>2022-05-03T08:28:28Z</time>
      </trkpt>
      <trkpt lat="47.24474" lon="-1.57731">
        <ele>90</ele>
        <time>2022-05-03T08:28:29Z</time>
      </trkpt>
      <trkpt lat="47.24475" lon="-1.5773">
        <ele>90</ele>
        <time>2022-05-03T08:28:30Z</time>
      </trkpt>
      <trkpt lat="47.24475" lon="-1.57729">
        <ele>89</ele>
        <time>2022-05-03T08:28:31Z</time>
      </trkpt>
      <trkpt lat="47.24476" lon="-1.57728">
        <ele>89</ele>
        <time>2022-05-03T08:28:32Z</time>
      </trkpt>
      <trkpt lat="47.24476" lon="-1.57727">
        <ele>89</ele>
        <time>2022-05-03T08:28:33Z</time>
      </trkpt>
      <trkpt lat="47.24476" lon="-1.57725">
        <ele>90</ele>
        <time>2022-05-03T08:28:34Z</time>
      </trkpt>
      <trkpt lat="47.24477" lon="-1.57724">
        <ele>89</ele>
        <time>2022-05-03T08:28:35Z</time>
      </trkpt>
      <trkpt lat="47.24477" lon="-1.57723">
        <ele>89</ele>
        <time>2022-05-03T08:28:36Z</time>
      </trkpt>
      <trkpt lat="47.24478" lon="-1.57722">
        <ele>89</ele>
        <time>2022-05-03T08:28:37Z</time>
      </trkpt>
      <trkpt lat="47.24479" lon="-1.5772">
        <ele>89</ele>
        <time>2022-05-03T08:28:38Z</time>
      </trkpt>
      <trkpt lat="47.2448" lon="-1.57718">
        <ele>90</ele>
        <time>2022-05-03T08:28:39Z</time>
      </trkpt>
      <trkpt lat="47.24481" lon="-1.57717">
        <ele>89</ele>
        <time>2022-05-03T08:28:40Z</time>
      </trkpt>
      <trkpt lat="47.24482" lon="-1.57716">
        <ele>89</ele>
        <time>2022-05-03T08:28:41Z</time>
      </trkpt>
      <trkpt lat="47.24483" lon="-1.57714">
        <ele>89</ele>
        <time>2022-05-03T08:28:42Z</time>
      </trkpt>
      <trkpt lat="47.24484" lon="-1.57713">
        <ele>88</ele>
        <time>2022-05-03T08:28:43Z</time>
      </trkpt>
      <trkpt lat="47.24485" lon="-1.57712">
        <ele>88</ele>
        <time>2022-05-03T08:28:44Z</time>
      </trkpt>
      <trkpt lat="47.24485" lon="-1.57711">
        <ele>88</ele>
        <time>2022-05-03T08:28:45Z</time>
      </trkpt>
      <trkpt lat="47.24487" lon="-1.5771">
        <ele>88</ele>
        <time>2022-05-03T08:28:46Z</time>
      </trkpt>
      <trkpt lat="47.24488" lon="-1.57709">
        <ele>88</ele>
        <time>2022-05-03T08:28:47Z</time>
      </trkpt>
      <trkpt lat="47.24488" lon="-1.57708">
        <ele>87</ele>
        <time>2022-05-03T08:28:48Z</time>
      </trkpt>
      <trkpt lat="47.24489" lon="-1.57707">
        <ele>87</ele>
        <time>2022-05-03T08:28:49Z</time>
      </trkpt>
      <trkpt lat="47.2449" lon="-1.57705">
        <ele>87</ele>
        <time>2022-05-03T08:28:50Z</time>
      </trkpt>
      <trkpt lat="47.24492" lon="-1.57704">
        <ele>87</ele>
        <time>2022-05-03T08:28:51Z</time>
      </trkpt>
      <trkpt lat="47.24493" lon="-1.57703">
        <ele>87</ele>
        <time>2022-05-03T08:28:52Z</time>
      </trkpt>
      <trkpt lat="47.24495" lon="-1.57701">
        <ele>86</ele>
        <time>2022-05-03T08:28:53Z</time>
      </trkpt>
      <trkpt lat="47.24496" lon="-1.577">
        <ele>85</ele>
        <time>2022-05-03T08:28:54Z</time>
      </trkpt>
      <trkpt lat="47.24498" lon="-1.57699">
        <ele>85</ele>
        <time>2022-05-03T08:28:55Z</time>
      </trkpt>
      <trkpt lat="47.24499" lon="-1.57699">
        <ele>84</ele>
        <time>2022-05-03T08:28:56Z</time>
      </trkpt>
      <trkpt lat="47.24501" lon="-1.57699">
        <ele>84</ele>
        <time>2022-05-03T08:28:57Z</time>
      </trkpt>
      <trkpt lat="47.24502" lon="-1.577">
        <ele>84</ele>
        <time>2022-05-03T08:28:58Z</time>
      </trkpt>
      <trkpt lat="47.24504" lon="-1.57699">
        <ele>84</ele>
        <time>2022-05-03T08:28:59Z</time>
      </trkpt>
      <trkpt lat="47.24506" lon="-1.57699">
        <ele>84</ele>
        <time>2022-05-03T08:29:00Z</time>
      </trkpt>
      <trkpt lat="47.24507" lon="-1.577">
        <ele>84</ele>
        <time>2022-05-03T08:29:01Z</time>
      </trkpt>
      <trkpt lat="47.24509" lon="-1.577">
        <ele>83</ele>
        <time>2022-05-03T08:29:02Z</time>
      </trkpt>
      <trkpt lat="47.2451" lon="-1.57701">
        <ele>83</ele>
        <time>2022-05-03T08:29:03Z</time>
      </trkpt>
      <trkpt lat="47.24511" lon="-1.57702">
        <ele>83</ele>
        <time>2022-05-03T08:29:04Z</time>
      </trkpt>
      <trkpt lat="47.24512" lon="-1.57702">
        <ele>84</ele>
        <time>2022-05-03T08:29:05Z</time>
      </trkpt>
      <trkpt lat="47.24513" lon="-1.57702">
        <ele>84</ele>
        <time>2022-05-03T08:29:06Z</time>
      </trkpt>
      <trkpt lat="47.24514" lon="-1.57701">
        <ele>84</ele>
        <time>2022-05-03T08:29:07Z</time>
      </trkpt>
      <trkpt lat="47.24515" lon="-1.577">
        <ele>85</ele>
        <time>2022-05-03T08:29:08Z</time>
      </trkpt>
      <trkpt lat="47.24516" lon="-1.577">
        <ele>84</ele>
        <time>2022-05-03T08:29:09Z</time>
      </trkpt>
      <trkpt lat="47.24517" lon="-1.57699">
        <ele>84</ele>
        <time>2022-05-03T08:29:10Z</time>
      </trkpt>
      <trkpt lat="47.24517" lon="-1.57698">
        <ele>84</ele>
        <time>2022-05-03T08:29:11Z</time>
      </trkpt>
      <trkpt lat="47.24518" lon="-1.57697">
        <ele>83</ele>
        <time>2022-05-03T08:29:12Z</time>
      </trkpt>
      <trkpt lat="47.24519" lon="-1.57696">
        <ele>83</ele>
        <time>2022-05-03T08:29:13Z</time>
      </trkpt>
      <trkpt lat="47.2452" lon="-1.57695">
        <ele>83</ele>
        <time>2022-05-03T08:29:14Z</time>
      </trkpt>
      <trkpt lat="47.24521" lon="-1.57695">
        <ele>83</ele>
        <time>2022-05-03T08:29:15Z</time>
      </trkpt>
      <trkpt lat="47.24522" lon="-1.57694">
        <ele>83</ele>
        <time>2022-05-03T08:29:16Z</time>
      </trkpt>
      <trkpt lat="47.24523" lon="-1.57693">
        <ele>83</ele>
        <time>2022-05-03T08:29:17Z</time>
      </trkpt>
      <trkpt lat="47.24524" lon="-1.57692">
        <ele>83</ele>
        <time>2022-05-03T08:29:18Z</time>
      </trkpt>
      <trkpt lat="47.24524" lon="-1.57691">
        <ele>83</ele>
        <time>2022-05-03T08:29:19Z</time>
      </trkpt>
      <trkpt lat="47.24525" lon="-1.5769">
        <ele>83</ele>
        <time>2022-05-03T08:29:20Z</time>
      </trkpt>
      <trkpt lat="47.24526" lon="-1.57689">
        <ele>83</ele>
        <time>2022-05-03T08:29:21Z</time>
      </trkpt>
      <trkpt lat="47.24527" lon="-1.57688">
        <ele>83</ele>
        <time>2022-05-03T08:29:22Z</time>
      </trkpt>
      <trkpt lat="47.24529" lon="-1.57687">
        <ele>83</ele>
        <time>2022-05-03T08:29:23Z</time>
      </trkpt>
      <trkpt lat="47.2453" lon="-1.57686">
        <ele>82</ele>
        <time>2022-05-03T08:29:24Z</time>
      </trkpt>
      <trkpt lat="47.24531" lon="-1.57685">
        <ele>82</ele>
        <time>2022-05-03T08:29:25Z</time>
      </trkpt>
      <trkpt lat="47.24532" lon="-1.57684">
        <ele>82</ele>
        <time>2022-05-03T08:29:26Z</time>
      </trkpt>
      <trkpt lat="47.24534" lon="-1.57682">
        <ele>81</ele>
        <time>2022-05-03T08:29:27Z</time>
      </trkpt>
      <trkpt lat="47.24535" lon="-1.5768">
        <ele>80</ele>
        <time>2022-05-03T08:29:28Z</time>
      </trkpt>
      <trkpt lat="47.24535" lon="-1.57679">
        <ele>80</ele>
        <time>2022-05-03T08:29:29Z</time>
      </trkpt>
      <trkpt lat="47.24536" lon="-1.57678">
        <ele>80</ele>
        <time>2022-05-03T08:29:30Z</time>
      </trkpt>
      <trkpt lat="47.24537" lon="-1.57677">
        <ele>80</ele>
        <time>2022-05-03T08:29:31Z</time>
      </trkpt>
      <trkpt lat="47.24538" lon="-1.57676">
        <ele>80</ele>
        <time>2022-05-03T08:29:32Z</time>
      </trkpt>
      <trkpt lat="47.24539" lon="-1.57676">
        <ele>80</ele>
        <time>2022-05-03T08:29:33Z</time>
      </trkpt>
      <trkpt lat="47.2454" lon="-1.57675">
        <ele>80</ele>
        <time>2022-05-03T08:29:34Z</time>
      </trkpt>
      <trkpt lat="47.24541" lon="-1.57674">
        <ele>80</ele>
        <time>2022-05-03T08:29:35Z</time>
      </trkpt>
      <trkpt lat="47.24542" lon="-1.57674">
        <ele>80</ele>
        <time>2022-05-03T08:29:36Z</time>
      </trkpt>
      <trkpt lat="47.24543" lon="-1.57673">
        <ele>80</ele>
        <time>2022-05-03T08:29:37Z</time>
      </trkpt>
      <trkpt lat="47.24543" lon="-1.57672">
        <ele>80</ele>
        <time>2022-05-03T08:29:38Z</time>
      </trkpt>
      <trkpt lat="47.24544" lon="-1.57672">
        <ele>79</ele>
        <time>2022-05-03T08:29:39Z</time>
      </trkpt>
      <trkpt lat="47.24545" lon="-1.57671">
        <ele>79</ele>
        <time>2022-05-03T08:29:40Z</time>
      </trkpt>
      <trkpt lat="47.24546" lon="-1.57671">
        <ele>78</ele>
        <time>2022-05-03T08:29:41Z</time>
      </trkpt>
      <trkpt lat="47.24548" lon="-1.5767">
        <ele>77</ele>
        <time>2022-05-03T08:29:42Z</time>
      </trkpt>
      <trkpt lat="47.24549" lon="-1.5767">
        <ele>77</ele>
        <time>2022-05-03T08:29:43Z</time>
      </trkpt>
      <trkpt lat="47.2455" lon="-1.5767">
        <ele>77</ele>
        <time>2022-05-03T08:29:44Z</time>
      </trkpt>
      <trkpt lat="47.24551" lon="-1.57669">
        <ele>77</ele>
        <time>2022-05-03T08:29:45Z</time>
      </trkpt>
      <trkpt lat="47.24553" lon="-1.57669">
        <ele>77</ele>
        <time>2022-05-03T08:29:46Z</time>
      </trkpt>
      <trkpt lat="47.24555" lon="-1.57669">
        <ele>76</ele>
        <time>2022-05-03T08:29:47Z</time>
      </trkpt>
      <trkpt lat="47.24556" lon="-1.57669">
        <ele>75</ele>
        <time>2022-05-03T08:29:48Z</time>
      </trkpt>
      <trkpt lat="47.24558" lon="-1.57669">
        <ele>74</ele>
        <time>2022-05-03T08:29:49Z</time>
      </trkpt>
      <trkpt lat="47.24559" lon="-1.57669">
        <ele>74</ele>
        <time>2022-05-03T08:29:50Z</time>
      </trkpt>
      <trkpt lat="47.2456" lon="-1.57668">
        <ele>73</ele>
        <time>2022-05-03T08:29:51Z</time>
      </trkpt>
      <trkpt lat="47.24561" lon="-1.57668">
        <ele>73</ele>
        <time>2022-05-03T08:29:52Z</time>
      </trkpt>
      <trkpt lat="47.24563" lon="-1.57668">
        <ele>72</ele>
        <time>2022-05-03T08:29:53Z</time>
      </trkpt>
      <trkpt lat="47.24564" lon="-1.57668">
        <ele>71</ele>
        <time>2022-05-03T08:29:54Z</time>
      </trkpt>
      <trkpt lat="47.24566" lon="-1.57667">
        <ele>71</ele>
        <time>2022-05-03T08:29:55Z</time>
      </trkpt>
      <trkpt lat="47.24568" lon="-1.57668">
        <ele>71</ele>
        <time>2022-05-03T08:29:56Z</time>
      </trkpt>
      <trkpt lat="47.2457" lon="-1.57667">
        <ele>70</ele>
        <time>2022-05-03T08:29:57Z</time>
      </trkpt>
      <trkpt lat="47.24571" lon="-1.57669">
        <ele>70</ele>
        <time>2022-05-03T08:29:58Z</time>
      </trkpt>
      <trkpt lat="47.24572" lon="-1.57669">
        <ele>70</ele>
        <time>2022-05-03T08:29:59Z</time>
      </trkpt>
      <trkpt lat="47.24574" lon="-1.57669">
        <ele>70</ele>
        <time>2022-05-03T08:30:00Z</time>
      </trkpt>
      <trkpt lat="47.24575" lon="-1.5767">
        <ele>70</ele>
        <time>2022-05-03T08:30:01Z</time>
      </trkpt>
      <trkpt lat="47.24577" lon="-1.5767">
        <ele>70</ele>
        <time>2022-05-03T08:30:02Z</time>
      </trkpt>
      <trkpt lat="47.24578" lon="-1.57671">
        <ele>70</ele>
        <time>2022-05-03T08:30:03Z</time>
      </trkpt>
      <trkpt lat="47.2458" lon="-1.57672">
        <ele>70</ele>
        <time>2022-05-03T08:30:04Z</time>
      </trkpt>
      <trkpt lat="47.2458" lon="-1.57674">
        <ele>69</ele>
        <time>2022-05-03T08:30:05Z</time>
      </trkpt>
      <trkpt lat="47.24582" lon="-1.57675">
        <ele>68</ele>
        <time>2022-05-03T08:30:06Z</time>
      </trkpt>
      <trkpt lat="47.24582" lon="-1.57676">
        <ele>69</ele>
        <time>2022-05-03T08:30:07Z</time>
      </trkpt>
      <trkpt lat="47.24584" lon="-1.57677">
        <ele>68</ele>
        <time>2022-05-03T08:30:08Z</time>
      </trkpt>
      <trkpt lat="47.24585" lon="-1.57678">
        <ele>68</ele>
        <time>2022-05-03T08:30:09Z</time>
      </trkpt>
      <trkpt lat="47.24586" lon="-1.57678">
        <ele>68</ele>
        <time>2022-05-03T08:30:10Z</time>
      </trkpt>
      <trkpt lat="47.24587" lon="-1.57678">
        <ele>69</ele>
        <time>2022-05-03T08:30:11Z</time>
      </trkpt>
      <trkpt lat="47.24588" lon="-1.5768">
        <ele>69</ele>
        <time>2022-05-03T08:30:12Z</time>
      </trkpt>
      <trkpt lat="47.2459" lon="-1.57681">
        <ele>69</ele>
        <time>2022-05-03T08:30:13Z</time>
      </trkpt>
      <trkpt lat="47.24591" lon="-1.57682">
        <ele>69</ele>
        <time>2022-05-03T08:30:14Z</time>
      </trkpt>
      <trkpt lat="47.24592" lon="-1.57683">
        <ele>68</ele>
        <time>2022-05-03T08:30:15Z</time>
      </trkpt>
      <trkpt lat="47.24594" lon="-1.57685">
        <ele>68</ele>
        <time>2022-05-03T08:30:16Z</time>
      </trkpt>
      <trkpt lat="47.24595" lon="-1.57687">
        <ele>68</ele>
        <time>2022-05-03T08:30:17Z</time>
      </trkpt>
      <trkpt lat="47.24596" lon="-1.57689">
        <ele>67</ele>
        <time>2022-05-03T08:30:18Z</time>
      </trkpt>
      <trkpt lat="47.24597" lon="-1.5769">
        <ele>67</ele>
        <time>2022-05-03T08:30:19Z</time>
      </trkpt>
      <trkpt lat="47.24598" lon="-1.57692">
        <ele>67</ele>
        <time>2022-05-03T08:30:20Z</time>
      </trkpt>
      <trkpt lat="47.24599" lon="-1.57693">
        <ele>67</ele>
        <time>2022-05-03T08:30:21Z</time>
      </trkpt>
      <trkpt lat="47.246" lon="-1.57694">
        <ele>67</ele>
        <time>2022-05-03T08:30:22Z</time>
      </trkpt>
      <trkpt lat="47.24602" lon="-1.57695">
        <ele>67</ele>
        <time>2022-05-03T08:30:23Z</time>
      </trkpt>
      <trkpt lat="47.24603" lon="-1.57696">
        <ele>67</ele>
        <time>2022-05-03T08:30:24Z</time>
      </trkpt>
      <trkpt lat="47.24605" lon="-1.57698">
        <ele>67</ele>
        <time>2022-05-03T08:30:25Z</time>
      </trkpt>
      <trkpt lat="47.24607" lon="-1.57699">
        <ele>69</ele>
        <time>2022-05-03T08:30:26Z</time>
      </trkpt>
      <trkpt lat="47.24609" lon="-1.57701">
        <ele>69</ele>
        <time>2022-05-03T08:30:27Z</time>
      </trkpt>
      <trkpt lat="47.2461" lon="-1.57702">
        <ele>68</ele>
        <time>2022-05-03T08:30:28Z</time>
      </trkpt>
      <trkpt lat="47.24611" lon="-1.57703">
        <ele>67</ele>
        <time>2022-05-03T08:30:29Z</time>
      </trkpt>
      <trkpt lat="47.24612" lon="-1.57704">
        <ele>67</ele>
        <time>2022-05-03T08:30:30Z</time>
      </trkpt>
      <trkpt lat="47.24614" lon="-1.57705">
        <ele>67</ele>
        <time>2022-05-03T08:30:31Z</time>
      </trkpt>
      <trkpt lat="47.24616" lon="-1.57705">
        <ele>67</ele>
        <time>2022-05-03T08:30:32Z</time>
      </trkpt>
      <trkpt lat="47.24617" lon="-1.57706">
        <ele>67</ele>
        <time>2022-05-03T08:30:33Z</time>
      </trkpt>
      <trkpt lat="47.24618" lon="-1.57708">
        <ele>67</ele>
        <time>2022-05-03T08:30:34Z</time>
      </trkpt>
      <trkpt lat="47.24619" lon="-1.57709">
        <ele>67</ele>
        <time>2022-05-03T08:30:35Z</time>
      </trkpt>
      <trkpt lat="47.2462" lon="-1.5771">
        <ele>67</ele>
        <time>2022-05-03T08:30:36Z</time>
      </trkpt>
      <trkpt lat="47.24622" lon="-1.57711">
        <ele>66</ele>
        <time>2022-05-03T08:30:37Z</time>
      </trkpt>
      <trkpt lat="47.24624" lon="-1.57711">
        <ele>66</ele>
        <time>2022-05-03T08:30:38Z</time>
      </trkpt>
      <trkpt lat="47.24625" lon="-1.57712">
        <ele>66</ele>
        <time>2022-05-03T08:30:39Z</time>
      </trkpt>
      <trkpt lat="47.24626" lon="-1.57713">
        <ele>66</ele>
        <time>2022-05-03T08:30:40Z</time>
      </trkpt>
      <trkpt lat="47.24627" lon="-1.57715">
        <ele>66</ele>
        <time>2022-05-03T08:30:41Z</time>
      </trkpt>
      <trkpt lat="47.24628" lon="-1.57716">
        <ele>66</ele>
        <time>2022-05-03T08:30:42Z</time>
      </trkpt>
      <trkpt lat="47.2463" lon="-1.57717">
        <ele>65</ele>
        <time>2022-05-03T08:30:43Z</time>
      </trkpt>
      <trkpt lat="47.24632" lon="-1.57717">
        <ele>65</ele>
        <time>2022-05-03T08:30:44Z</time>
      </trkpt>
      <trkpt lat="47.24633" lon="-1.57718">
        <ele>65</ele>
        <time>2022-05-03T08:30:45Z</time>
      </trkpt>
      <trkpt lat="47.24633" lon="-1.57718">
        <ele>65</ele>
        <time>2022-05-03T08:30:46Z</time>
      </trkpt>
      <trkpt lat="47.24634" lon="-1.57719">
        <ele>64</ele>
        <time>2022-05-03T08:30:47Z</time>
      </trkpt>
      <trkpt lat="47.24635" lon="-1.5772">
        <ele>63</ele>
        <time>2022-05-03T08:30:48Z</time>
      </trkpt>
      <trkpt lat="47.24637" lon="-1.57721">
        <ele>63</ele>
        <time>2022-05-03T08:30:49Z</time>
      </trkpt>
      <trkpt lat="47.24638" lon="-1.57721">
        <ele>63</ele>
        <time>2022-05-03T08:30:50Z</time>
      </trkpt>
      <trkpt lat="47.24639" lon="-1.57722">
        <ele>63</ele>
        <time>2022-05-03T08:30:51Z</time>
      </trkpt>
      <trkpt lat="47.2464" lon="-1.57723">
        <ele>62</ele>
        <time>2022-05-03T08:30:52Z</time>
      </trkpt>
      <trkpt lat="47.24641" lon="-1.57723">
        <ele>62</ele>
        <time>2022-05-03T08:30:53Z</time>
      </trkpt>
      <trkpt lat="47.24642" lon="-1.57724">
        <ele>63</ele>
        <time>2022-05-03T08:30:54Z</time>
      </trkpt>
      <trkpt lat="47.24643" lon="-1.57724">
        <ele>62</ele>
        <time>2022-05-03T08:30:55Z</time>
      </trkpt>
      <trkpt lat="47.24644" lon="-1.57725">
        <ele>63</ele>
        <time>2022-05-03T08:30:56Z</time>
      </trkpt>
      <trkpt lat="47.24645" lon="-1.57726">
        <ele>63</ele>
        <time>2022-05-03T08:30:57Z</time>
      </trkpt>
      <trkpt lat="47.24646" lon="-1.57727">
        <ele>63</ele>
        <time>2022-05-03T08:30:58Z</time>
      </trkpt>
      <trkpt lat="47.24648" lon="-1.57728">
        <ele>63</ele>
        <time>2022-05-03T08:30:59Z</time>
      </trkpt>
      <trkpt lat="47.24649" lon="-1.57729">
        <ele>63</ele>
        <time>2022-05-03T08:31:00Z</time>
      </trkpt>
      <trkpt lat="47.2465" lon="-1.5773">
        <ele>63</ele>
        <time>2022-05-03T08:31:01Z</time>
      </trkpt>
      <trkpt lat="47.24651" lon="-1.57731">
        <ele>63</ele>
        <time>2022-05-03T08:31:02Z</time>
      </trkpt>
      <trkpt lat="47.24653" lon="-1.57732">
        <ele>63</ele>
        <time>2022-05-03T08:31:03Z</time>
      </trkpt>
      <trkpt lat="47.24654" lon="-1.57733">
        <ele>62</ele>
        <time>2022-05-03T08:31:04Z</time>
      </trkpt>
      <trkpt lat="47.24655" lon="-1.57733">
        <ele>62</ele>
        <time>2022-05-03T08:31:05Z</time>
      </trkpt>
      <trkpt lat="47.24656" lon="-1.57734">
        <ele>62</ele>
        <time>2022-05-03T08:31:06Z</time>
      </trkpt>
      <trkpt lat="47.24658" lon="-1.57735">
        <ele>62</ele>
        <time>2022-05-03T08:31:07Z</time>
      </trkpt>
      <trkpt lat="47.24659" lon="-1.57736">
        <ele>62</ele>
        <time>2022-05-03T08:31:08Z</time>
      </trkpt>
      <trkpt lat="47.2466" lon="-1.57737">
        <ele>63</ele>
        <time>2022-05-03T08:31:09Z</time>
      </trkpt>
      <trkpt lat="47.24662" lon="-1.57737">
        <ele>63</ele>
        <time>2022-05-03T08:31:10Z</time>
      </trkpt>
      <trkpt lat="47.24663" lon="-1.57738">
        <ele>63</ele>
        <time>2022-05-03T08:31:11Z</time>
      </trkpt>
      <trkpt lat="47.24665" lon="-1.57739">
        <ele>63</ele>
        <time>2022-05-03T08:31:12Z</time>
      </trkpt>
      <trkpt lat="47.24666" lon="-1.5774">
        <ele>63</ele>
        <time>2022-05-03T08:31:13Z</time>
      </trkpt>
      <trkpt lat="47.24667" lon="-1.5774">
        <ele>62</ele>
        <time>2022-05-03T08:31:14Z</time>
      </trkpt>
      <trkpt lat="47.24669" lon="-1.57741">
        <ele>62</ele>
        <time>2022-05-03T08:31:15Z</time>
      </trkpt>
      <trkpt lat="47.2467" lon="-1.57741">
        <ele>62</ele>
        <time>2022-05-03T08:31:16Z</time>
      </trkpt>
      <trkpt lat="47.24672" lon="-1.57742">
        <ele>62</ele>
        <time>2022-05-03T08:31:17Z</time>
      </trkpt>
      <trkpt lat="47.24673" lon="-1.57742">
        <ele>62</ele>
        <time>2022-05-03T08:31:18Z</time>
      </trkpt>
      <trkpt lat="47.24674" lon="-1.57742">
        <ele>62</ele>
        <time>2022-05-03T08:31:19Z</time>
      </trkpt>
      <trkpt lat="47.24675" lon="-1.57743">
        <ele>62</ele>
        <time>2022-05-03T08:31:20Z</time>
      </trkpt>
      <trkpt lat="47.24677" lon="-1.57744">
        <ele>61</ele>
        <time>2022-05-03T08:31:21Z</time>
      </trkpt>
      <trkpt lat="47.24678" lon="-1.57744">
        <ele>61</ele>
        <time>2022-05-03T08:31:22Z</time>
      </trkpt>
      <trkpt lat="47.24678" lon="-1.57745">
        <ele>61</ele>
        <time>2022-05-03T08:31:23Z</time>
      </trkpt>
      <trkpt lat="47.2468" lon="-1.57746">
        <ele>61</ele>
        <time>2022-05-03T08:31:24Z</time>
      </trkpt>
      <trkpt lat="47.24681" lon="-1.57747">
        <ele>61</ele>
        <time>2022-05-03T08:31:25Z</time>
      </trkpt>
      <trkpt lat="47.24681" lon="-1.57747">
        <ele>61</ele>
        <time>2022-05-03T08:31:26Z</time>
      </trkpt>
      <trkpt lat="47.24681" lon="-1.57747">
        <ele>61</ele>
        <time>2022-05-03T08:31:27Z</time>
      </trkpt>
      <trkpt lat="47.24682" lon="-1.57748">
        <ele>60</ele>
        <time>2022-05-03T08:31:28Z</time>
      </trkpt>
      <trkpt lat="47.24682" lon="-1.57748">
        <ele>60</ele>
        <time>2022-05-03T08:31:29Z</time>
      </trkpt>
      <trkpt lat="47.24682" lon="-1.57748">
        <ele>60</ele>
        <time>2022-05-03T08:31:30Z</time>
      </trkpt>
      <trkpt lat="47.24682" lon="-1.57748">
        <ele>60</ele>
        <time>2022-05-03T08:31:31Z</time>
      </trkpt>
      <trkpt lat="47.24682" lon="-1.57748">
        <ele>60</ele>
        <time>2022-05-03T08:31:32Z</time>
      </trkpt>
      <trkpt lat="47.24682" lon="-1.57748">
        <ele>60</ele>
        <time>2022-05-03T08:31:33Z</time>
      </trkpt>
      <trkpt lat="47.24682" lon="-1.57748">
        <ele>60</ele>
        <time>2022-05-03T08:31:33Z</time>
      </trkpt>
      <trkpt lat="47.24685" lon="-1.57742">
        <ele>63</ele>
        <time>2022-05-03T08:31:53Z</time>
      </trkpt>
      <trkpt lat="47.24686" lon="-1.5774">
        <ele>63</ele>
        <time>2022-05-03T08:31:54Z</time>
      </trkpt>
      <trkpt lat="47.24686" lon="-1.57738">
        <ele>64</ele>
        <time>2022-05-03T08:31:55Z</time>
      </trkpt>
      <trkpt lat="47.24686" lon="-1.57737">
        <ele>64</ele>
        <time>2022-05-03T08:31:56Z</time>
      </trkpt>
      <trkpt lat="47.24686" lon="-1.57735">
        <ele>64</ele>
        <time>2022-05-03T08:31:57Z</time>
      </trkpt>
      <trkpt lat="47.24687" lon="-1.57733">
        <ele>64</ele>
        <time>2022-05-03T08:31:58Z</time>
      </trkpt>
      <trkpt lat="47.24688" lon="-1.57732">
        <ele>64</ele>
        <time>2022-05-03T08:31:59Z</time>
      </trkpt>
      <trkpt lat="47.24689" lon="-1.5773">
        <ele>64</ele>
        <time>2022-05-03T08:32:00Z</time>
      </trkpt>
      <trkpt lat="47.2469" lon="-1.57728">
        <ele>63</ele>
        <time>2022-05-03T08:32:01Z</time>
      </trkpt>
      <trkpt lat="47.24691" lon="-1.57727">
        <ele>63</ele>
        <time>2022-05-03T08:32:02Z</time>
      </trkpt>
      <trkpt lat="47.24692" lon="-1.57726">
        <ele>63</ele>
        <time>2022-05-03T08:32:03Z</time>
      </trkpt>
      <trkpt lat="47.24693" lon="-1.57726">
        <ele>63</ele>
        <time>2022-05-03T08:32:04Z</time>
      </trkpt>
      <trkpt lat="47.24694" lon="-1.57726">
        <ele>64</ele>
        <time>2022-05-03T08:32:05Z</time>
      </trkpt>
      <trkpt lat="47.24696" lon="-1.57726">
        <ele>65</ele>
        <time>2022-05-03T08:32:06Z</time>
      </trkpt>
      <trkpt lat="47.24697" lon="-1.57726">
        <ele>65</ele>
        <time>2022-05-03T08:32:07Z</time>
      </trkpt>
      <trkpt lat="47.24698" lon="-1.57726">
        <ele>64</ele>
        <time>2022-05-03T08:32:08Z</time>
      </trkpt>
      <trkpt lat="47.24699" lon="-1.57726">
        <ele>65</ele>
        <time>2022-05-03T08:32:09Z</time>
      </trkpt>
      <trkpt lat="47.24701" lon="-1.57726">
        <ele>64</ele>
        <time>2022-05-03T08:32:10Z</time>
      </trkpt>
      <trkpt lat="47.24703" lon="-1.57726">
        <ele>64</ele>
        <time>2022-05-03T08:32:11Z</time>
      </trkpt>
      <trkpt lat="47.24704" lon="-1.57726">
        <ele>64</ele>
        <time>2022-05-03T08:32:12Z</time>
      </trkpt>
      <trkpt lat="47.24705" lon="-1.57726">
        <ele>64</ele>
        <time>2022-05-03T08:32:13Z</time>
      </trkpt>
      <trkpt lat="47.24706" lon="-1.57727">
        <ele>64</ele>
        <time>2022-05-03T08:32:14Z</time>
      </trkpt>
      <trkpt lat="47.24707" lon="-1.57727">
        <ele>64</ele>
        <time>2022-05-03T08:32:15Z</time>
      </trkpt>
      <trkpt lat="47.24709" lon="-1.57727">
        <ele>64</ele>
        <time>2022-05-03T08:32:16Z</time>
      </trkpt>
      <trkpt lat="47.2471" lon="-1.57727">
        <ele>64</ele>
        <time>2022-05-03T08:32:17Z</time>
      </trkpt>
      <trkpt lat="47.24711" lon="-1.57727">
        <ele>64</ele>
        <time>2022-05-03T08:32:18Z</time>
      </trkpt>
      <trkpt lat="47.24712" lon="-1.57727">
        <ele>64</ele>
        <time>2022-05-03T08:32:19Z</time>
      </trkpt>
      <trkpt lat="47.24714" lon="-1.57728">
        <ele>64</ele>
        <time>2022-05-03T08:32:20Z</time>
      </trkpt>
      <trkpt lat="47.24715" lon="-1.57728">
        <ele>64</ele>
        <time>2022-05-03T08:32:21Z</time>
      </trkpt>
      <trkpt lat="47.24716" lon="-1.57728">
        <ele>64</ele>
        <time>2022-05-03T08:32:22Z</time>
      </trkpt>
      <trkpt lat="47.24717" lon="-1.57729">
        <ele>64</ele>
        <time>2022-05-03T08:32:23Z</time>
      </trkpt>
      <trkpt lat="47.24719" lon="-1.57729">
        <ele>64</ele>
        <time>2022-05-03T08:32:24Z</time>
      </trkpt>
      <trkpt lat="47.2472" lon="-1.5773">
        <ele>63</ele>
        <time>2022-05-03T08:32:25Z</time>
      </trkpt>
      <trkpt lat="47.24721" lon="-1.5773">
        <ele>63</ele>
        <time>2022-05-03T08:32:26Z</time>
      </trkpt>
      <trkpt lat="47.24722" lon="-1.57731">
        <ele>63</ele>
        <time>2022-05-03T08:32:27Z</time>
      </trkpt>
      <trkpt lat="47.24723" lon="-1.57731">
        <ele>63</ele>
        <time>2022-05-03T08:32:28Z</time>
      </trkpt>
      <trkpt lat="47.24725" lon="-1.57732">
        <ele>63</ele>
        <time>2022-05-03T08:32:29Z</time>
      </trkpt>
      <trkpt lat="47.24726" lon="-1.57732">
        <ele>63</ele>
        <time>2022-05-03T08:32:30Z</time>
      </trkpt>
      <trkpt lat="47.24727" lon="-1.57733">
        <ele>63</ele>
        <time>2022-05-03T08:32:31Z</time>
      </trkpt>
      <trkpt lat="47.24728" lon="-1.57732">
        <ele>63</ele>
        <time>2022-05-03T08:32:32Z</time>
      </trkpt>
      <trkpt lat="47.24729" lon="-1.57733">
        <ele>63</ele>
        <time>2022-05-03T08:32:33Z</time>
      </trkpt>
      <trkpt lat="47.2473" lon="-1.57733">
        <ele>62</ele>
        <time>2022-05-03T08:32:34Z</time>
      </trkpt>
      <trkpt lat="47.24731" lon="-1.57733">
        <ele>62</ele>
        <time>2022-05-03T08:32:35Z</time>
      </trkpt>
      <trkpt lat="47.24732" lon="-1.57733">
        <ele>62</ele>
        <time>2022-05-03T08:32:36Z</time>
      </trkpt>
      <trkpt lat="47.24733" lon="-1.57734">
        <ele>62</ele>
        <time>2022-05-03T08:32:37Z</time>
      </trkpt>
      <trkpt lat="47.24733" lon="-1.57734">
        <ele>62</ele>
        <time>2022-05-03T08:32:38Z</time>
      </trkpt>
      <trkpt lat="47.24733" lon="-1.57733">
        <ele>62</ele>
        <time>2022-05-03T08:32:39Z</time>
      </trkpt>
      <trkpt lat="47.24733" lon="-1.57733">
        <ele>62</ele>
        <time>2022-05-03T08:32:40Z</time>
      </trkpt>
      <trkpt lat="47.24733" lon="-1.57733">
        <ele>62</ele>
        <time>2022-05-03T08:32:41Z</time>
      </trkpt>
      <trkpt lat="47.24733" lon="-1.57733">
        <ele>62</ele>
        <time>2022-05-03T08:32:42Z</time>
      </trkpt>
      <trkpt lat="47.24733" lon="-1.57733">
        <ele>62</ele>
        <time>2022-05-03T08:32:43Z</time>
      </trkpt>
      <trkpt lat="47.24733" lon="-1.57731">
        <ele>61</ele>
        <time>2022-05-03T08:32:44Z</time>
      </trkpt>
      <trkpt lat="47.24733" lon="-1.5773">
        <ele>61</ele>
        <time>2022-05-03T08:32:45Z</time>
      </trkpt>
      <trkpt lat="47.24734" lon="-1.57729">
        <ele>61</ele>
        <time>2022-05-03T08:32:46Z</time>
      </trkpt>
      <trkpt lat="47.24734" lon="-1.57728">
        <ele>61</ele>
        <time>2022-05-03T08:32:47Z</time>
      </trkpt>
      <trkpt lat="47.24734" lon="-1.57727">
        <ele>61</ele>
        <time>2022-05-03T08:32:48Z</time>
      </trkpt>
      <trkpt lat="47.24734" lon="-1.57725">
        <ele>61</ele>
        <time>2022-05-03T08:32:49Z</time>
      </trkpt>
      <trkpt lat="47.24734" lon="-1.57723">
        <ele>61</ele>
        <time>2022-05-03T08:32:50Z</time>
      </trkpt>
      <trkpt lat="47.24733" lon="-1.57721">
        <ele>60</ele>
        <time>2022-05-03T08:32:51Z</time>
      </trkpt>
      <trkpt lat="47.24733" lon="-1.5772">
        <ele>60</ele>
        <time>2022-05-03T08:32:52Z</time>
      </trkpt>
      <trkpt lat="47.24732" lon="-1.57718">
        <ele>60</ele>
        <time>2022-05-03T08:32:53Z</time>
      </trkpt>
      <trkpt lat="47.24731" lon="-1.57716">
        <ele>60</ele>
        <time>2022-05-03T08:32:54Z</time>
      </trkpt>
      <trkpt lat="47.24731" lon="-1.57715">
        <ele>60</ele>
        <time>2022-05-03T08:32:55Z</time>
      </trkpt>
      <trkpt lat="47.2473" lon="-1.57714">
        <ele>60</ele>
        <time>2022-05-03T08:32:56Z</time>
      </trkpt>
      <trkpt lat="47.24729" lon="-1.57713">
        <ele>61</ele>
        <time>2022-05-03T08:32:57Z</time>
      </trkpt>
      <trkpt lat="47.24728" lon="-1.57713">
        <ele>61</ele>
        <time>2022-05-03T08:32:58Z</time>
      </trkpt>
      <trkpt lat="47.24727" lon="-1.57712">
        <ele>61</ele>
        <time>2022-05-03T08:32:59Z</time>
      </trkpt>
      <trkpt lat="47.24727" lon="-1.57711">
        <ele>61</ele>
        <time>2022-05-03T08:33:00Z</time>
      </trkpt>
      <trkpt lat="47.24725" lon="-1.5771">
        <ele>61</ele>
        <time>2022-05-03T08:33:01Z</time>
      </trkpt>
      <trkpt lat="47.24724" lon="-1.57709">
        <ele>61</ele>
        <time>2022-05-03T08:33:02Z</time>
      </trkpt>
      <trkpt lat="47.24723" lon="-1.57709">
        <ele>62</ele>
        <time>2022-05-03T08:33:03Z</time>
      </trkpt>
      <trkpt lat="47.24722" lon="-1.57708">
        <ele>62</ele>
        <time>2022-05-03T08:33:04Z</time>
      </trkpt>
      <trkpt lat="47.24721" lon="-1.57707">
        <ele>62</ele>
        <time>2022-05-03T08:33:05Z</time>
      </trkpt>
      <trkpt lat="47.2472" lon="-1.57706">
        <ele>63</ele>
        <time>2022-05-03T08:33:06Z</time>
      </trkpt>
      <trkpt lat="47.24719" lon="-1.57705">
        <ele>63</ele>
        <time>2022-05-03T08:33:07Z</time>
      </trkpt>
      <trkpt lat="47.24719" lon="-1.57705">
        <ele>63</ele>
        <time>2022-05-03T08:33:08Z</time>
      </trkpt>
      <trkpt lat="47.24717" lon="-1.57704">
        <ele>63</ele>
        <time>2022-05-03T08:33:09Z</time>
      </trkpt>
      <trkpt lat="47.24716" lon="-1.57702">
        <ele>63</ele>
        <time>2022-05-03T08:33:10Z</time>
      </trkpt>
      <trkpt lat="47.24715" lon="-1.57701">
        <ele>64</ele>
        <time>2022-05-03T08:33:11Z</time>
      </trkpt>
      <trkpt lat="47.24714" lon="-1.577">
        <ele>64</ele>
        <time>2022-05-03T08:33:12Z</time>
      </trkpt>
      <trkpt lat="47.24713" lon="-1.57698">
        <ele>64</ele>
        <time>2022-05-03T08:33:13Z</time>
      </trkpt>
      <trkpt lat="47.24712" lon="-1.57697">
        <ele>64</ele>
        <time>2022-05-03T08:33:14Z</time>
      </trkpt>
      <trkpt lat="47.24711" lon="-1.57695">
        <ele>64</ele>
        <time>2022-05-03T08:33:15Z</time>
      </trkpt>
      <trkpt lat="47.2471" lon="-1.57693">
        <ele>65</ele>
        <time>2022-05-03T08:33:16Z</time>
      </trkpt>
      <trkpt lat="47.24709" lon="-1.57691">
        <ele>65</ele>
        <time>2022-05-03T08:33:17Z</time>
      </trkpt>
      <trkpt lat="47.24709" lon="-1.57689">
        <ele>65</ele>
        <time>2022-05-03T08:33:18Z</time>
      </trkpt>
      <trkpt lat="47.24708" lon="-1.57686">
        <ele>65</ele>
        <time>2022-05-03T08:33:19Z</time>
      </trkpt>
      <trkpt lat="47.24707" lon="-1.57685">
        <ele>65</ele>
        <time>2022-05-03T08:33:20Z</time>
      </trkpt>
      <trkpt lat="47.24706" lon="-1.57682">
        <ele>65</ele>
        <time>2022-05-03T08:33:21Z</time>
      </trkpt>
      <trkpt lat="47.24706" lon="-1.5768">
        <ele>65</ele>
        <time>2022-05-03T08:33:22Z</time>
      </trkpt>
      <trkpt lat="47.24705" lon="-1.57677">
        <ele>65</ele>
        <time>2022-05-03T08:33:23Z</time>
      </trkpt>
      <trkpt lat="47.24705" lon="-1.57675">
        <ele>65</ele>
        <time>2022-05-03T08:33:24Z</time>
      </trkpt>
      <trkpt lat="47.24704" lon="-1.57673">
        <ele>65</ele>
        <time>2022-05-03T08:33:25Z</time>
      </trkpt>
      <trkpt lat="47.24703" lon="-1.57671">
        <ele>65</ele>
        <time>2022-05-03T08:33:26Z</time>
      </trkpt>
      <trkpt lat="47.24703" lon="-1.5767">
        <ele>66</ele>
        <time>2022-05-03T08:33:27Z</time>
      </trkpt>
      <trkpt lat="47.24702" lon="-1.57668">
        <ele>66</ele>
        <time>2022-05-03T08:33:28Z</time>
      </trkpt>
      <trkpt lat="47.24701" lon="-1.57666">
        <ele>67</ele>
        <time>2022-05-03T08:33:29Z</time>
      </trkpt>
      <trkpt lat="47.247" lon="-1.57665">
        <ele>67</ele>
        <time>2022-05-03T08:33:30Z</time>
      </trkpt>
      <trkpt lat="47.24699" lon="-1.57663">
        <ele>67</ele>
        <time>2022-05-03T08:33:31Z</time>
      </trkpt>
      <trkpt lat="47.24699" lon="-1.57661">
        <ele>67</ele>
        <time>2022-05-03T08:33:32Z</time>
      </trkpt>
      <trkpt lat="47.24698" lon="-1.57659">
        <ele>67</ele>
        <time>2022-05-03T08:33:33Z</time>
      </trkpt>
      <trkpt lat="47.24698" lon="-1.57657">
        <ele>67</ele>
        <time>2022-05-03T08:33:34Z</time>
      </trkpt>
      <trkpt lat="47.24696" lon="-1.57656">
        <ele>67</ele>
        <time>2022-05-03T08:33:35Z</time>
      </trkpt>
      <trkpt lat="47.24696" lon="-1.57654">
        <ele>67</ele>
        <time>2022-05-03T08:33:36Z</time>
      </trkpt>
      <trkpt lat="47.24695" lon="-1.57652">
        <ele>67</ele>
        <time>2022-05-03T08:33:37Z</time>
      </trkpt>
      <trkpt lat="47.24694" lon="-1.5765">
        <ele>67</ele>
        <time>2022-05-03T08:33:38Z</time>
      </trkpt>
      <trkpt lat="47.24693" lon="-1.57648">
        <ele>67</ele>
        <time>2022-05-03T08:33:39Z</time>
      </trkpt>
      <trkpt lat="47.24693" lon="-1.57646">
        <ele>67</ele>
        <time>2022-05-03T08:33:40Z</time>
      </trkpt>
      <trkpt lat="47.24692" lon="-1.57645">
        <ele>67</ele>
        <time>2022-05-03T08:33:41Z</time>
      </trkpt>
      <trkpt lat="47.24691" lon="-1.57643">
        <ele>67</ele>
        <time>2022-05-03T08:33:42Z</time>
      </trkpt>
      <trkpt lat="47.24691" lon="-1.57642">
        <ele>67</ele>
        <time>2022-05-03T08:33:43Z</time>
      </trkpt>
      <trkpt lat="47.2469" lon="-1.5764">
        <ele>67</ele>
        <time>2022-05-03T08:33:44Z</time>
      </trkpt>
      <trkpt lat="47.2469" lon="-1.57639">
        <ele>67</ele>
        <time>2022-05-03T08:33:45Z</time>
      </trkpt>
      <trkpt lat="47.24689" lon="-1.57638">
        <ele>67</ele>
        <time>2022-05-03T08:33:46Z</time>
      </trkpt>
      <trkpt lat="47.24688" lon="-1.57637">
        <ele>68</ele>
        <time>2022-05-03T08:33:47Z</time>
      </trkpt>
      <trkpt lat="47.24688" lon="-1.57636">
        <ele>68</ele>
        <time>2022-05-03T08:33:48Z</time>
      </trkpt>
      <trkpt lat="47.24686" lon="-1.57635">
        <ele>68</ele>
        <time>2022-05-03T08:33:49Z</time>
      </trkpt>
      <trkpt lat="47.24686" lon="-1.57634">
        <ele>68</ele>
        <time>2022-05-03T08:33:50Z</time>
      </trkpt>
      <trkpt lat="47.24685" lon="-1.57632">
        <ele>68</ele>
        <time>2022-05-03T08:33:51Z</time>
      </trkpt>
      <trkpt lat="47.24685" lon="-1.57631">
        <ele>68</ele>
        <time>2022-05-03T08:33:52Z</time>
      </trkpt>
      <trkpt lat="47.24684" lon="-1.5763">
        <ele>68</ele>
        <time>2022-05-03T08:33:53Z</time>
      </trkpt>
      <trkpt lat="47.24683" lon="-1.57629">
        <ele>68</ele>
        <time>2022-05-03T08:33:54Z</time>
      </trkpt>
      <trkpt lat="47.24683" lon="-1.57628">
        <ele>69</ele>
        <time>2022-05-03T08:33:55Z</time>
      </trkpt>
      <trkpt lat="47.24683" lon="-1.57627">
        <ele>69</ele>
        <time>2022-05-03T08:33:56Z</time>
      </trkpt>
      <trkpt lat="47.24682" lon="-1.57625">
        <ele>69</ele>
        <time>2022-05-03T08:33:57Z</time>
      </trkpt>
      <trkpt lat="47.24682" lon="-1.57623">
        <ele>68</ele>
        <time>2022-05-03T08:33:58Z</time>
      </trkpt>
      <trkpt lat="47.24681" lon="-1.57621">
        <ele>68</ele>
        <time>2022-05-03T08:33:59Z</time>
      </trkpt>
      <trkpt lat="47.2468" lon="-1.5762">
        <ele>68</ele>
        <time>2022-05-03T08:34:00Z</time>
      </trkpt>
      <trkpt lat="47.2468" lon="-1.57618">
        <ele>68</ele>
        <time>2022-05-03T08:34:01Z</time>
      </trkpt>
      <trkpt lat="47.24679" lon="-1.57616">
        <ele>68</ele>
        <time>2022-05-03T08:34:02Z</time>
      </trkpt>
      <trkpt lat="47.24678" lon="-1.57614">
        <ele>68</ele>
        <time>2022-05-03T08:34:03Z</time>
      </trkpt>
      <trkpt lat="47.24678" lon="-1.57612">
        <ele>68</ele>
        <time>2022-05-03T08:34:04Z</time>
      </trkpt>
      <trkpt lat="47.24677" lon="-1.5761">
        <ele>69</ele>
        <time>2022-05-03T08:34:05Z</time>
      </trkpt>
      <trkpt lat="47.24676" lon="-1.57608">
        <ele>69</ele>
        <time>2022-05-03T08:34:06Z</time>
      </trkpt>
      <trkpt lat="47.24675" lon="-1.57606">
        <ele>68</ele>
        <time>2022-05-03T08:34:07Z</time>
      </trkpt>
      <trkpt lat="47.24674" lon="-1.57604">
        <ele>68</ele>
        <time>2022-05-03T08:34:08Z</time>
      </trkpt>
      <trkpt lat="47.24674" lon="-1.57602">
        <ele>68</ele>
        <time>2022-05-03T08:34:09Z</time>
      </trkpt>
      <trkpt lat="47.24673" lon="-1.57601">
        <ele>68</ele>
        <time>2022-05-03T08:34:10Z</time>
      </trkpt>
      <trkpt lat="47.24673" lon="-1.57599">
        <ele>68</ele>
        <time>2022-05-03T08:34:11Z</time>
      </trkpt>
      <trkpt lat="47.24673" lon="-1.57597">
        <ele>68</ele>
        <time>2022-05-03T08:34:12Z</time>
      </trkpt>
      <trkpt lat="47.24673" lon="-1.57595">
        <ele>68</ele>
        <time>2022-05-03T08:34:13Z</time>
      </trkpt>
      <trkpt lat="47.24672" lon="-1.57593">
        <ele>68</ele>
        <time>2022-05-03T08:34:14Z</time>
      </trkpt>
      <trkpt lat="47.24672" lon="-1.5759">
        <ele>67</ele>
        <time>2022-05-03T08:34:15Z</time>
      </trkpt>
      <trkpt lat="47.24671" lon="-1.57588">
        <ele>67</ele>
        <time>2022-05-03T08:34:16Z</time>
      </trkpt>
      <trkpt lat="47.2467" lon="-1.57586">
        <ele>67</ele>
        <time>2022-05-03T08:34:17Z</time>
      </trkpt>
      <trkpt lat="47.24669" lon="-1.57584">
        <ele>67</ele>
        <time>2022-05-03T08:34:18Z</time>
      </trkpt>
      <trkpt lat="47.24668" lon="-1.57582">
        <ele>68</ele>
        <time>2022-05-03T08:34:19Z</time>
      </trkpt>
      <trkpt lat="47.24667" lon="-1.5758">
        <ele>68</ele>
        <time>2022-05-03T08:34:20Z</time>
      </trkpt>
      <trkpt lat="47.24666" lon="-1.57578">
        <ele>68</ele>
        <time>2022-05-03T08:34:21Z</time>
      </trkpt>
      <trkpt lat="47.24665" lon="-1.57576">
        <ele>69</ele>
        <time>2022-05-03T08:34:22Z</time>
      </trkpt>
      <trkpt lat="47.24664" lon="-1.57575">
        <ele>69</ele>
        <time>2022-05-03T08:34:23Z</time>
      </trkpt>
      <trkpt lat="47.24664" lon="-1.57573">
        <ele>69</ele>
        <time>2022-05-03T08:34:24Z</time>
      </trkpt>
      <trkpt lat="47.24663" lon="-1.57571">
        <ele>69</ele>
        <time>2022-05-03T08:34:25Z</time>
      </trkpt>
      <trkpt lat="47.24662" lon="-1.5757">
        <ele>70</ele>
        <time>2022-05-03T08:34:26Z</time>
      </trkpt>
      <trkpt lat="47.24661" lon="-1.57568">
        <ele>70</ele>
        <time>2022-05-03T08:34:27Z</time>
      </trkpt>
      <trkpt lat="47.2466" lon="-1.57567">
        <ele>70</ele>
        <time>2022-05-03T08:34:28Z</time>
      </trkpt>
      <trkpt lat="47.24659" lon="-1.57566">
        <ele>70</ele>
        <time>2022-05-03T08:34:29Z</time>
      </trkpt>
      <trkpt lat="47.24659" lon="-1.57564">
        <ele>71</ele>
        <time>2022-05-03T08:34:30Z</time>
      </trkpt>
      <trkpt lat="47.24658" lon="-1.57563">
        <ele>71</ele>
        <time>2022-05-03T08:34:31Z</time>
      </trkpt>
      <trkpt lat="47.24657" lon="-1.57562">
        <ele>72</ele>
        <time>2022-05-03T08:34:32Z</time>
      </trkpt>
      <trkpt lat="47.24657" lon="-1.57561">
        <ele>72</ele>
        <time>2022-05-03T08:34:33Z</time>
      </trkpt>
      <trkpt lat="47.24656" lon="-1.57559">
        <ele>72</ele>
        <time>2022-05-03T08:34:34Z</time>
      </trkpt>
      <trkpt lat="47.24655" lon="-1.57558">
        <ele>72</ele>
        <time>2022-05-03T08:34:35Z</time>
      </trkpt>
      <trkpt lat="47.24654" lon="-1.57558">
        <ele>72</ele>
        <time>2022-05-03T08:34:36Z</time>
      </trkpt>
      <trkpt lat="47.24653" lon="-1.57557">
        <ele>72</ele>
        <time>2022-05-03T08:34:37Z</time>
      </trkpt>
      <trkpt lat="47.24652" lon="-1.57556">
        <ele>72</ele>
        <time>2022-05-03T08:34:38Z</time>
      </trkpt>
      <trkpt lat="47.24651" lon="-1.57555">
        <ele>72</ele>
        <time>2022-05-03T08:34:39Z</time>
      </trkpt>
      <trkpt lat="47.24649" lon="-1.57554">
        <ele>72</ele>
        <time>2022-05-03T08:34:40Z</time>
      </trkpt>
      <trkpt lat="47.24648" lon="-1.57553">
        <ele>72</ele>
        <time>2022-05-03T08:34:41Z</time>
      </trkpt>
      <trkpt lat="47.24647" lon="-1.57552">
        <ele>72</ele>
        <time>2022-05-03T08:34:42Z</time>
      </trkpt>
      <trkpt lat="47.24646" lon="-1.57551">
        <ele>72</ele>
        <time>2022-05-03T08:34:43Z</time>
      </trkpt>
      <trkpt lat="47.24645" lon="-1.5755">
        <ele>72</ele>
        <time>2022-05-03T08:34:44Z</time>
      </trkpt>
      <trkpt lat="47.24643" lon="-1.57549">
        <ele>72</ele>
        <time>2022-05-03T08:34:45Z</time>
      </trkpt>
      <trkpt lat="47.24642" lon="-1.57549">
        <ele>72</ele>
        <time>2022-05-03T08:34:46Z</time>
      </trkpt>
      <trkpt lat="47.24641" lon="-1.57548">
        <ele>72</ele>
        <time>2022-05-03T08:34:47Z</time>
      </trkpt>
      <trkpt lat="47.2464" lon="-1.57547">
        <ele>73</ele>
        <time>2022-05-03T08:34:48Z</time>
      </trkpt>
      <trkpt lat="47.24638" lon="-1.57546">
        <ele>73</ele>
        <time>2022-05-03T08:34:49Z</time>
      </trkpt>
      <trkpt lat="47.24638" lon="-1.57546">
        <ele>73</ele>
        <time>2022-05-03T08:34:50Z</time>
      </trkpt>
      <trkpt lat="47.24637" lon="-1.57545">
        <ele>73</ele>
        <time>2022-05-03T08:34:51Z</time>
      </trkpt>
      <trkpt lat="47.24636" lon="-1.57544">
        <ele>73</ele>
        <time>2022-05-03T08:34:52Z</time>
      </trkpt>
      <trkpt lat="47.24635" lon="-1.57542">
        <ele>72</ele>
        <time>2022-05-03T08:34:53Z</time>
      </trkpt>
      <trkpt lat="47.24634" lon="-1.57542">
        <ele>72</ele>
        <time>2022-05-03T08:34:54Z</time>
      </trkpt>
      <trkpt lat="47.24633" lon="-1.5754">
        <ele>72</ele>
        <time>2022-05-03T08:34:55Z</time>
      </trkpt>
      <trkpt lat="47.24632" lon="-1.57539">
        <ele>72</ele>
        <time>2022-05-03T08:34:56Z</time>
      </trkpt>
      <trkpt lat="47.24632" lon="-1.57537">
        <ele>73</ele>
        <time>2022-05-03T08:34:57Z</time>
      </trkpt>
      <trkpt lat="47.24631" lon="-1.57535">
        <ele>73</ele>
        <time>2022-05-03T08:34:58Z</time>
      </trkpt>
      <trkpt lat="47.2463" lon="-1.57534">
        <ele>73</ele>
        <time>2022-05-03T08:34:59Z</time>
      </trkpt>
      <trkpt lat="47.2463" lon="-1.57533">
        <ele>72</ele>
        <time>2022-05-03T08:35:00Z</time>
      </trkpt>
      <trkpt lat="47.24629" lon="-1.57532">
        <ele>72</ele>
        <time>2022-05-03T08:35:01Z</time>
      </trkpt>
      <trkpt lat="47.24628" lon="-1.57531">
        <ele>73</ele>
        <time>2022-05-03T08:35:02Z</time>
      </trkpt>
      <trkpt lat="47.24627" lon="-1.57529">
        <ele>73</ele>
        <time>2022-05-03T08:35:03Z</time>
      </trkpt>
      <trkpt lat="47.24626" lon="-1.57527">
        <ele>73</ele>
        <time>2022-05-03T08:35:04Z</time>
      </trkpt>
      <trkpt lat="47.24625" lon="-1.57526">
        <ele>73</ele>
        <time>2022-05-03T08:35:05Z</time>
      </trkpt>
      <trkpt lat="47.24625" lon="-1.57525">
        <ele>73</ele>
        <time>2022-05-03T08:35:06Z</time>
      </trkpt>
      <trkpt lat="47.24623" lon="-1.57523">
        <ele>73</ele>
        <time>2022-05-03T08:35:07Z</time>
      </trkpt>
      <trkpt lat="47.24622" lon="-1.57522">
        <ele>73</ele>
        <time>2022-05-03T08:35:08Z</time>
      </trkpt>
      <trkpt lat="47.24621" lon="-1.57521">
        <ele>73</ele>
        <time>2022-05-03T08:35:09Z</time>
      </trkpt>
      <trkpt lat="47.2462" lon="-1.5752">
        <ele>72</ele>
        <time>2022-05-03T08:35:10Z</time>
      </trkpt>
      <trkpt lat="47.24619" lon="-1.57519">
        <ele>72</ele>
        <time>2022-05-03T08:35:11Z</time>
      </trkpt>
      <trkpt lat="47.24618" lon="-1.57517">
        <ele>71</ele>
        <time>2022-05-03T08:35:12Z</time>
      </trkpt>
      <trkpt lat="47.24618" lon="-1.57516">
        <ele>71</ele>
        <time>2022-05-03T08:35:13Z</time>
      </trkpt>
      <trkpt lat="47.24617" lon="-1.57515">
        <ele>71</ele>
        <time>2022-05-03T08:35:14Z</time>
      </trkpt>
      <trkpt lat="47.24617" lon="-1.57514">
        <ele>70</ele>
        <time>2022-05-03T08:35:15Z</time>
      </trkpt>
      <trkpt lat="47.24617" lon="-1.57513">
        <ele>70</ele>
        <time>2022-05-03T08:35:16Z</time>
      </trkpt>
      <trkpt lat="47.24616" lon="-1.57511">
        <ele>70</ele>
        <time>2022-05-03T08:35:17Z</time>
      </trkpt>
      <trkpt lat="47.24615" lon="-1.5751">
        <ele>70</ele>
        <time>2022-05-03T08:35:18Z</time>
      </trkpt>
      <trkpt lat="47.24614" lon="-1.57509">
        <ele>70</ele>
        <time>2022-05-03T08:35:19Z</time>
      </trkpt>
      <trkpt lat="47.24613" lon="-1.57509">
        <ele>70</ele>
        <time>2022-05-03T08:35:20Z</time>
      </trkpt>
      <trkpt lat="47.24611" lon="-1.57509">
        <ele>69</ele>
        <time>2022-05-03T08:35:21Z</time>
      </trkpt>
      <trkpt lat="47.2461" lon="-1.57508">
        <ele>69</ele>
        <time>2022-05-03T08:35:22Z</time>
      </trkpt>
      <trkpt lat="47.24608" lon="-1.57508">
        <ele>69</ele>
        <time>2022-05-03T08:35:23Z</time>
      </trkpt>
      <trkpt lat="47.24606" lon="-1.57507">
        <ele>69</ele>
        <time>2022-05-03T08:35:24Z</time>
      </trkpt>
      <trkpt lat="47.24605" lon="-1.57505">
        <ele>69</ele>
        <time>2022-05-03T08:35:25Z</time>
      </trkpt>
      <trkpt lat="47.24604" lon="-1.57504">
        <ele>69</ele>
        <time>2022-05-03T08:35:26Z</time>
      </trkpt>
      <trkpt lat="47.24603" lon="-1.57504">
        <ele>69</ele>
        <time>2022-05-03T08:35:27Z</time>
      </trkpt>
      <trkpt lat="47.24601" lon="-1.57503">
        <ele>69</ele>
        <time>2022-05-03T08:35:28Z</time>
      </trkpt>
      <trkpt lat="47.246" lon="-1.57502">
        <ele>69</ele>
        <time>2022-05-03T08:35:29Z</time>
      </trkpt>
      <trkpt lat="47.246" lon="-1.57501">
        <ele>69</ele>
        <time>2022-05-03T08:35:30Z</time>
      </trkpt>
      <trkpt lat="47.24599" lon="-1.575">
        <ele>69</ele>
        <time>2022-05-03T08:35:31Z</time>
      </trkpt>
      <trkpt lat="47.24598" lon="-1.57498">
        <ele>69</ele>
        <time>2022-05-03T08:35:32Z</time>
      </trkpt>
      <trkpt lat="47.24597" lon="-1.57497">
        <ele>69</ele>
        <time>2022-05-03T08:35:33Z</time>
      </trkpt>
      <trkpt lat="47.24596" lon="-1.57496">
        <ele>69</ele>
        <time>2022-05-03T08:35:34Z</time>
      </trkpt>
      <trkpt lat="47.24595" lon="-1.57494">
        <ele>69</ele>
        <time>2022-05-03T08:35:35Z</time>
      </trkpt>
      <trkpt lat="47.24594" lon="-1.57494">
        <ele>69</ele>
        <time>2022-05-03T08:35:36Z</time>
      </trkpt>
      <trkpt lat="47.24593" lon="-1.57492">
        <ele>69</ele>
        <time>2022-05-03T08:35:37Z</time>
      </trkpt>
      <trkpt lat="47.24592" lon="-1.5749">
        <ele>68</ele>
        <time>2022-05-03T08:35:38Z</time>
      </trkpt>
      <trkpt lat="47.24591" lon="-1.57489">
        <ele>68</ele>
        <time>2022-05-03T08:35:39Z</time>
      </trkpt>
      <trkpt lat="47.24589" lon="-1.57487">
        <ele>68</ele>
        <time>2022-05-03T08:35:40Z</time>
      </trkpt>
      <trkpt lat="47.24588" lon="-1.57486">
        <ele>68</ele>
        <time>2022-05-03T08:35:41Z</time>
      </trkpt>
      <trkpt lat="47.24587" lon="-1.57485">
        <ele>68</ele>
        <time>2022-05-03T08:35:42Z</time>
      </trkpt>
      <trkpt lat="47.24587" lon="-1.57483">
        <ele>68</ele>
        <time>2022-05-03T08:35:43Z</time>
      </trkpt>
      <trkpt lat="47.24585" lon="-1.57481">
        <ele>68</ele>
        <time>2022-05-03T08:35:44Z</time>
      </trkpt>
      <trkpt lat="47.24585" lon="-1.5748">
        <ele>68</ele>
        <time>2022-05-03T08:35:45Z</time>
      </trkpt>
      <trkpt lat="47.24583" lon="-1.57478">
        <ele>68</ele>
        <time>2022-05-03T08:35:46Z</time>
      </trkpt>
      <trkpt lat="47.24583" lon="-1.57477">
        <ele>68</ele>
        <time>2022-05-03T08:35:47Z</time>
      </trkpt>
      <trkpt lat="47.24582" lon="-1.57476">
        <ele>68</ele>
        <time>2022-05-03T08:35:48Z</time>
      </trkpt>
      <trkpt lat="47.2458" lon="-1.57474">
        <ele>68</ele>
        <time>2022-05-03T08:35:49Z</time>
      </trkpt>
      <trkpt lat="47.24579" lon="-1.57472">
        <ele>68</ele>
        <time>2022-05-03T08:35:50Z</time>
      </trkpt>
      <trkpt lat="47.24579" lon="-1.5747">
        <ele>68</ele>
        <time>2022-05-03T08:35:51Z</time>
      </trkpt>
      <trkpt lat="47.24577" lon="-1.57468">
        <ele>68</ele>
        <time>2022-05-03T08:35:52Z</time>
      </trkpt>
      <trkpt lat="47.24576" lon="-1.57467">
        <ele>69</ele>
        <time>2022-05-03T08:35:53Z</time>
      </trkpt>
      <trkpt lat="47.24575" lon="-1.57466">
        <ele>69</ele>
        <time>2022-05-03T08:35:54Z</time>
      </trkpt>
      <trkpt lat="47.24574" lon="-1.57464">
        <ele>69</ele>
        <time>2022-05-03T08:35:55Z</time>
      </trkpt>
      <trkpt lat="47.24572" lon="-1.57463">
        <ele>69</ele>
        <time>2022-05-03T08:35:56Z</time>
      </trkpt>
      <trkpt lat="47.24571" lon="-1.57461">
        <ele>69</ele>
        <time>2022-05-03T08:35:57Z</time>
      </trkpt>
      <trkpt lat="47.2457" lon="-1.5746">
        <ele>70</ele>
        <time>2022-05-03T08:35:58Z</time>
      </trkpt>
      <trkpt lat="47.2457" lon="-1.57458">
        <ele>70</ele>
        <time>2022-05-03T08:35:59Z</time>
      </trkpt>
      <trkpt lat="47.24569" lon="-1.57457">
        <ele>69</ele>
        <time>2022-05-03T08:36:00Z</time>
      </trkpt>
      <trkpt lat="47.24567" lon="-1.57455">
        <ele>69</ele>
        <time>2022-05-03T08:36:01Z</time>
      </trkpt>
      <trkpt lat="47.24566" lon="-1.57453">
        <ele>69</ele>
        <time>2022-05-03T08:36:02Z</time>
      </trkpt>
      <trkpt lat="47.24566" lon="-1.57451">
        <ele>69</ele>
        <time>2022-05-03T08:36:03Z</time>
      </trkpt>
      <trkpt lat="47.24565" lon="-1.57449">
        <ele>69</ele>
        <time>2022-05-03T08:36:04Z</time>
      </trkpt>
      <trkpt lat="47.24564" lon="-1.57447">
        <ele>69</ele>
        <time>2022-05-03T08:36:05Z</time>
      </trkpt>
      <trkpt lat="47.24563" lon="-1.57445">
        <ele>69</ele>
        <time>2022-05-03T08:36:06Z</time>
      </trkpt>
      <trkpt lat="47.24562" lon="-1.57444">
        <ele>69</ele>
        <time>2022-05-03T08:36:07Z</time>
      </trkpt>
      <trkpt lat="47.24562" lon="-1.57442">
        <ele>70</ele>
        <time>2022-05-03T08:36:08Z</time>
      </trkpt>
      <trkpt lat="47.24561" lon="-1.5744">
        <ele>70</ele>
        <time>2022-05-03T08:36:09Z</time>
      </trkpt>
      <trkpt lat="47.2456" lon="-1.57438">
        <ele>70</ele>
        <time>2022-05-03T08:36:10Z</time>
      </trkpt>
      <trkpt lat="47.24559" lon="-1.57436">
        <ele>70</ele>
        <time>2022-05-03T08:36:11Z</time>
      </trkpt>
      <trkpt lat="47.24558" lon="-1.57434">
        <ele>70</ele>
        <time>2022-05-03T08:36:12Z</time>
      </trkpt>
      <trkpt lat="47.24558" lon="-1.57432">
        <ele>70</ele>
        <time>2022-05-03T08:36:13Z</time>
      </trkpt>
      <trkpt lat="47.24557" lon="-1.5743">
        <ele>70</ele>
        <time>2022-05-03T08:36:14Z</time>
      </trkpt>
      <trkpt lat="47.24556" lon="-1.57429">
        <ele>70</ele>
        <time>2022-05-03T08:36:15Z</time>
      </trkpt>
      <trkpt lat="47.24556" lon="-1.57427">
        <ele>70</ele>
        <time>2022-05-03T08:36:16Z</time>
      </trkpt>
      <trkpt lat="47.24555" lon="-1.57425">
        <ele>70</ele>
        <time>2022-05-03T08:36:17Z</time>
      </trkpt>
      <trkpt lat="47.24554" lon="-1.57422">
        <ele>70</ele>
        <time>2022-05-03T08:36:18Z</time>
      </trkpt>
      <trkpt lat="47.24554" lon="-1.5742">
        <ele>71</ele>
        <time>2022-05-03T08:36:19Z</time>
      </trkpt>
      <trkpt lat="47.24553" lon="-1.57417">
        <ele>70</ele>
        <time>2022-05-03T08:36:20Z</time>
      </trkpt>
      <trkpt lat="47.24552" lon="-1.57415">
        <ele>70</ele>
        <time>2022-05-03T08:36:21Z</time>
      </trkpt>
      <trkpt lat="47.24551" lon="-1.57413">
        <ele>70</ele>
        <time>2022-05-03T08:36:22Z</time>
      </trkpt>
      <trkpt lat="47.24551" lon="-1.57411">
        <ele>70</ele>
        <time>2022-05-03T08:36:23Z</time>
      </trkpt>
      <trkpt lat="47.24551" lon="-1.57408">
        <ele>70</ele>
        <time>2022-05-03T08:36:24Z</time>
      </trkpt>
      <trkpt lat="47.2455" lon="-1.57406">
        <ele>70</ele>
        <time>2022-05-03T08:36:25Z</time>
      </trkpt>
      <trkpt lat="47.24549" lon="-1.57405">
        <ele>70</ele>
        <time>2022-05-03T08:36:26Z</time>
      </trkpt>
      <trkpt lat="47.24548" lon="-1.57403">
        <ele>70</ele>
        <time>2022-05-03T08:36:27Z</time>
      </trkpt>
      <trkpt lat="47.24548" lon="-1.57401">
        <ele>70</ele>
        <time>2022-05-03T08:36:28Z</time>
      </trkpt>
      <trkpt lat="47.24546" lon="-1.57399">
        <ele>70</ele>
        <time>2022-05-03T08:36:29Z</time>
      </trkpt>
      <trkpt lat="47.24546" lon="-1.57397">
        <ele>71</ele>
        <time>2022-05-03T08:36:30Z</time>
      </trkpt>
      <trkpt lat="47.24545" lon="-1.57395">
        <ele>71</ele>
        <time>2022-05-03T08:36:31Z</time>
      </trkpt>
      <trkpt lat="47.24544" lon="-1.57393">
        <ele>71</ele>
        <time>2022-05-03T08:36:32Z</time>
      </trkpt>
      <trkpt lat="47.24543" lon="-1.57391">
        <ele>71</ele>
        <time>2022-05-03T08:36:33Z</time>
      </trkpt>
      <trkpt lat="47.24543" lon="-1.57388">
        <ele>71</ele>
        <time>2022-05-03T08:36:34Z</time>
      </trkpt>
      <trkpt lat="47.24543" lon="-1.57385">
        <ele>71</ele>
        <time>2022-05-03T08:36:35Z</time>
      </trkpt>
      <trkpt lat="47.24542" lon="-1.57383">
        <ele>71</ele>
        <time>2022-05-03T08:36:36Z</time>
      </trkpt>
      <trkpt lat="47.24542" lon="-1.5738">
        <ele>71</ele>
        <time>2022-05-03T08:36:37Z</time>
      </trkpt>
      <trkpt lat="47.24542" lon="-1.57378">
        <ele>71</ele>
        <time>2022-05-03T08:36:38Z</time>
      </trkpt>
      <trkpt lat="47.24542" lon="-1.57376">
        <ele>71</ele>
        <time>2022-05-03T08:36:39Z</time>
      </trkpt>
      <trkpt lat="47.24541" lon="-1.57374">
        <ele>71</ele>
        <time>2022-05-03T08:36:40Z</time>
      </trkpt>
      <trkpt lat="47.24541" lon="-1.57372">
        <ele>71</ele>
        <time>2022-05-03T08:36:41Z</time>
      </trkpt>
      <trkpt lat="47.24541" lon="-1.57369">
        <ele>71</ele>
        <time>2022-05-03T08:36:42Z</time>
      </trkpt>
      <trkpt lat="47.24541" lon="-1.57367">
        <ele>71</ele>
        <time>2022-05-03T08:36:43Z</time>
      </trkpt>
      <trkpt lat="47.2454" lon="-1.57365">
        <ele>71</ele>
        <time>2022-05-03T08:36:44Z</time>
      </trkpt>
      <trkpt lat="47.2454" lon="-1.57363">
        <ele>71</ele>
        <time>2022-05-03T08:36:45Z</time>
      </trkpt>
      <trkpt lat="47.2454" lon="-1.57361">
        <ele>71</ele>
        <time>2022-05-03T08:36:46Z</time>
      </trkpt>
      <trkpt lat="47.2454" lon="-1.57359">
        <ele>71</ele>
        <time>2022-05-03T08:36:47Z</time>
      </trkpt>
      <trkpt lat="47.2454" lon="-1.57357">
        <ele>72</ele>
        <time>2022-05-03T08:36:48Z</time>
      </trkpt>
      <trkpt lat="47.24539" lon="-1.57354">
        <ele>72</ele>
        <time>2022-05-03T08:36:49Z</time>
      </trkpt>
      <trkpt lat="47.24538" lon="-1.57353">
        <ele>72</ele>
        <time>2022-05-03T08:36:50Z</time>
      </trkpt>
      <trkpt lat="47.24538" lon="-1.57351">
        <ele>72</ele>
        <time>2022-05-03T08:36:51Z</time>
      </trkpt>
      <trkpt lat="47.24538" lon="-1.57349">
        <ele>72</ele>
        <time>2022-05-03T08:36:52Z</time>
      </trkpt>
      <trkpt lat="47.24538" lon="-1.57346">
        <ele>72</ele>
        <time>2022-05-03T08:36:53Z</time>
      </trkpt>
      <trkpt lat="47.24538" lon="-1.57344">
        <ele>72</ele>
        <time>2022-05-03T08:36:54Z</time>
      </trkpt>
      <trkpt lat="47.24537" lon="-1.57343">
        <ele>73</ele>
        <time>2022-05-03T08:36:55Z</time>
      </trkpt>
      <trkpt lat="47.24537" lon="-1.57341">
        <ele>73</ele>
        <time>2022-05-03T08:36:56Z</time>
      </trkpt>
      <trkpt lat="47.24536" lon="-1.5734">
        <ele>73</ele>
        <time>2022-05-03T08:36:57Z</time>
      </trkpt>
      <trkpt lat="47.24536" lon="-1.57339">
        <ele>73</ele>
        <time>2022-05-03T08:36:58Z</time>
      </trkpt>
      <trkpt lat="47.24536" lon="-1.57337">
        <ele>73</ele>
        <time>2022-05-03T08:36:59Z</time>
      </trkpt>
      <trkpt lat="47.24536" lon="-1.57335">
        <ele>73</ele>
        <time>2022-05-03T08:37:00Z</time>
      </trkpt>
      <trkpt lat="47.24536" lon="-1.57333">
        <ele>73</ele>
        <time>2022-05-03T08:37:01Z</time>
      </trkpt>
      <trkpt lat="47.24536" lon="-1.5733">
        <ele>73</ele>
        <time>2022-05-03T08:37:02Z</time>
      </trkpt>
      <trkpt lat="47.24535" lon="-1.57328">
        <ele>73</ele>
        <time>2022-05-03T08:37:03Z</time>
      </trkpt>
      <trkpt lat="47.24535" lon="-1.57326">
        <ele>74</ele>
        <time>2022-05-03T08:37:04Z</time>
      </trkpt>
      <trkpt lat="47.24535" lon="-1.57324">
        <ele>74</ele>
        <time>2022-05-03T08:37:05Z</time>
      </trkpt>
      <trkpt lat="47.24534" lon="-1.57322">
        <ele>73</ele>
        <time>2022-05-03T08:37:06Z</time>
      </trkpt>
      <trkpt lat="47.24534" lon="-1.5732">
        <ele>74</ele>
        <time>2022-05-03T08:37:07Z</time>
      </trkpt>
      <trkpt lat="47.24534" lon="-1.57317">
        <ele>74</ele>
        <time>2022-05-03T08:37:08Z</time>
      </trkpt>
      <trkpt lat="47.24534" lon="-1.57315">
        <ele>74</ele>
        <time>2022-05-03T08:37:09Z</time>
      </trkpt>
      <trkpt lat="47.24533" lon="-1.57314">
        <ele>74</ele>
        <time>2022-05-03T08:37:10Z</time>
      </trkpt>
      <trkpt lat="47.24533" lon="-1.57311">
        <ele>74</ele>
        <time>2022-05-03T08:37:11Z</time>
      </trkpt>
      <trkpt lat="47.24533" lon="-1.57309">
        <ele>74</ele>
        <time>2022-05-03T08:37:12Z</time>
      </trkpt>
      <trkpt lat="47.24533" lon="-1.57307">
        <ele>74</ele>
        <time>2022-05-03T08:37:13Z</time>
      </trkpt>
      <trkpt lat="47.24533" lon="-1.57304">
        <ele>74</ele>
        <time>2022-05-03T08:37:14Z</time>
      </trkpt>
      <trkpt lat="47.24532" lon="-1.57302">
        <ele>75</ele>
        <time>2022-05-03T08:37:15Z</time>
      </trkpt>
      <trkpt lat="47.24532" lon="-1.57301">
        <ele>75</ele>
        <time>2022-05-03T08:37:16Z</time>
      </trkpt>
      <trkpt lat="47.24532" lon="-1.573">
        <ele>75</ele>
        <time>2022-05-03T08:37:17Z</time>
      </trkpt>
      <trkpt lat="47.24531" lon="-1.57298">
        <ele>75</ele>
        <time>2022-05-03T08:37:18Z</time>
      </trkpt>
      <trkpt lat="47.24531" lon="-1.57297">
        <ele>75</ele>
        <time>2022-05-03T08:37:19Z</time>
      </trkpt>
      <trkpt lat="47.2453" lon="-1.57295">
        <ele>75</ele>
        <time>2022-05-03T08:37:20Z</time>
      </trkpt>
      <trkpt lat="47.2453" lon="-1.57293">
        <ele>75</ele>
        <time>2022-05-03T08:37:21Z</time>
      </trkpt>
      <trkpt lat="47.2453" lon="-1.57291">
        <ele>75</ele>
        <time>2022-05-03T08:37:22Z</time>
      </trkpt>
      <trkpt lat="47.2453" lon="-1.57289">
        <ele>75</ele>
        <time>2022-05-03T08:37:23Z</time>
      </trkpt>
      <trkpt lat="47.2453" lon="-1.57287">
        <ele>75</ele>
        <time>2022-05-03T08:37:24Z</time>
      </trkpt>
      <trkpt lat="47.2453" lon="-1.57285">
        <ele>75</ele>
        <time>2022-05-03T08:37:25Z</time>
      </trkpt>
      <trkpt lat="47.2453" lon="-1.57282">
        <ele>76</ele>
        <time>2022-05-03T08:37:26Z</time>
      </trkpt>
      <trkpt lat="47.2453" lon="-1.5728">
        <ele>76</ele>
        <time>2022-05-03T08:37:27Z</time>
      </trkpt>
      <trkpt lat="47.2453" lon="-1.57278">
        <ele>76</ele>
        <time>2022-05-03T08:37:28Z</time>
      </trkpt>
      <trkpt lat="47.2453" lon="-1.57276">
        <ele>75</ele>
        <time>2022-05-03T08:37:29Z</time>
      </trkpt>
      <trkpt lat="47.24531" lon="-1.57275">
        <ele>76</ele>
        <time>2022-05-03T08:37:30Z</time>
      </trkpt>
      <trkpt lat="47.24532" lon="-1.57272">
        <ele>76</ele>
        <time>2022-05-03T08:37:31Z</time>
      </trkpt>
      <trkpt lat="47.24532" lon="-1.5727">
        <ele>76</ele>
        <time>2022-05-03T08:37:32Z</time>
      </trkpt>
      <trkpt lat="47.24532" lon="-1.57269">
        <ele>76</ele>
        <time>2022-05-03T08:37:33Z</time>
      </trkpt>
      <trkpt lat="47.24533" lon="-1.57267">
        <ele>76</ele>
        <time>2022-05-03T08:37:34Z</time>
      </trkpt>
      <trkpt lat="47.24533" lon="-1.57266">
        <ele>76</ele>
        <time>2022-05-03T08:37:35Z</time>
      </trkpt>
      <trkpt lat="47.24534" lon="-1.57264">
        <ele>76</ele>
        <time>2022-05-03T08:37:36Z</time>
      </trkpt>
      <trkpt lat="47.24534" lon="-1.57263">
        <ele>76</ele>
        <time>2022-05-03T08:37:37Z</time>
      </trkpt>
      <trkpt lat="47.24535" lon="-1.57261">
        <ele>77</ele>
        <time>2022-05-03T08:37:38Z</time>
      </trkpt>
      <trkpt lat="47.24535" lon="-1.57259">
        <ele>77</ele>
        <time>2022-05-03T08:37:39Z</time>
      </trkpt>
      <trkpt lat="47.24536" lon="-1.57258">
        <ele>77</ele>
        <time>2022-05-03T08:37:40Z</time>
      </trkpt>
      <trkpt lat="47.24537" lon="-1.57256">
        <ele>77</ele>
        <time>2022-05-03T08:37:41Z</time>
      </trkpt>
      <trkpt lat="47.24537" lon="-1.57254">
        <ele>77</ele>
        <time>2022-05-03T08:37:42Z</time>
      </trkpt>
      <trkpt lat="47.24537" lon="-1.57252">
        <ele>77</ele>
        <time>2022-05-03T08:37:43Z</time>
      </trkpt>
      <trkpt lat="47.24538" lon="-1.5725">
        <ele>77</ele>
        <time>2022-05-03T08:37:44Z</time>
      </trkpt>
      <trkpt lat="47.24538" lon="-1.57248">
        <ele>78</ele>
        <time>2022-05-03T08:37:45Z</time>
      </trkpt>
      <trkpt lat="47.24539" lon="-1.57245">
        <ele>77</ele>
        <time>2022-05-03T08:37:46Z</time>
      </trkpt>
      <trkpt lat="47.24539" lon="-1.57243">
        <ele>77</ele>
        <time>2022-05-03T08:37:47Z</time>
      </trkpt>
      <trkpt lat="47.2454" lon="-1.57241">
        <ele>77</ele>
        <time>2022-05-03T08:37:48Z</time>
      </trkpt>
      <trkpt lat="47.2454" lon="-1.57239">
        <ele>77</ele>
        <time>2022-05-03T08:37:49Z</time>
      </trkpt>
      <trkpt lat="47.24541" lon="-1.57237">
        <ele>77</ele>
        <time>2022-05-03T08:37:50Z</time>
      </trkpt>
      <trkpt lat="47.24541" lon="-1.57235">
        <ele>76</ele>
        <time>2022-05-03T08:37:51Z</time>
      </trkpt>
      <trkpt lat="47.24542" lon="-1.57233">
        <ele>76</ele>
        <time>2022-05-03T08:37:52Z</time>
      </trkpt>
      <trkpt lat="47.24542" lon="-1.57231">
        <ele>76</ele>
        <time>2022-05-03T08:37:53Z</time>
      </trkpt>
      <trkpt lat="47.24542" lon="-1.57229">
        <ele>76</ele>
        <time>2022-05-03T08:37:54Z</time>
      </trkpt>
      <trkpt lat="47.24543" lon="-1.57227">
        <ele>76</ele>
        <time>2022-05-03T08:37:55Z</time>
      </trkpt>
      <trkpt lat="47.24543" lon="-1.57225">
        <ele>77</ele>
        <time>2022-05-03T08:37:56Z</time>
      </trkpt>
      <trkpt lat="47.24544" lon="-1.57223">
        <ele>77</ele>
        <time>2022-05-03T08:37:57Z</time>
      </trkpt>
      <trkpt lat="47.24544" lon="-1.57221">
        <ele>77</ele>
        <time>2022-05-03T08:37:58Z</time>
      </trkpt>
      <trkpt lat="47.24545" lon="-1.5722">
        <ele>78</ele>
        <time>2022-05-03T08:37:59Z</time>
      </trkpt>
      <trkpt lat="47.24545" lon="-1.57218">
        <ele>78</ele>
        <time>2022-05-03T08:38:00Z</time>
      </trkpt>
      <trkpt lat="47.24545" lon="-1.57217">
        <ele>78</ele>
        <time>2022-05-03T08:38:01Z</time>
      </trkpt>
      <trkpt lat="47.24545" lon="-1.57217">
        <ele>78</ele>
        <time>2022-05-03T08:38:02Z</time>
      </trkpt>
      <trkpt lat="47.24545" lon="-1.57217">
        <ele>78</ele>
        <time>2022-05-03T08:38:03Z</time>
      </trkpt>
      <trkpt lat="47.24546" lon="-1.57213">
        <ele>78</ele>
        <time>2022-05-03T08:38:04Z</time>
      </trkpt>
      <trkpt lat="47.24546" lon="-1.57211">
        <ele>78</ele>
        <time>2022-05-03T08:38:05Z</time>
      </trkpt>
      <trkpt lat="47.24547" lon="-1.5721">
        <ele>78</ele>
        <time>2022-05-03T08:38:06Z</time>
      </trkpt>
      <trkpt lat="47.24547" lon="-1.57208">
        <ele>79</ele>
        <time>2022-05-03T08:38:07Z</time>
      </trkpt>
      <trkpt lat="47.24546" lon="-1.57206">
        <ele>79</ele>
        <time>2022-05-03T08:38:08Z</time>
      </trkpt>
      <trkpt lat="47.24546" lon="-1.57203">
        <ele>79</ele>
        <time>2022-05-03T08:38:09Z</time>
      </trkpt>
      <trkpt lat="47.24546" lon="-1.57201">
        <ele>79</ele>
        <time>2022-05-03T08:38:10Z</time>
      </trkpt>
      <trkpt lat="47.24546" lon="-1.57199">
        <ele>79</ele>
        <time>2022-05-03T08:38:11Z</time>
      </trkpt>
      <trkpt lat="47.24546" lon="-1.57197">
        <ele>79</ele>
        <time>2022-05-03T08:38:12Z</time>
      </trkpt>
      <trkpt lat="47.24546" lon="-1.57195">
        <ele>79</ele>
        <time>2022-05-03T08:38:13Z</time>
      </trkpt>
      <trkpt lat="47.24546" lon="-1.57194">
        <ele>79</ele>
        <time>2022-05-03T08:38:14Z</time>
      </trkpt>
      <trkpt lat="47.24546" lon="-1.57192">
        <ele>79</ele>
        <time>2022-05-03T08:38:15Z</time>
      </trkpt>
      <trkpt lat="47.24546" lon="-1.5719">
        <ele>79</ele>
        <time>2022-05-03T08:38:16Z</time>
      </trkpt>
      <trkpt lat="47.24546" lon="-1.57188">
        <ele>79</ele>
        <time>2022-05-03T08:38:17Z</time>
      </trkpt>
      <trkpt lat="47.24546" lon="-1.57186">
        <ele>79</ele>
        <time>2022-05-03T08:38:18Z</time>
      </trkpt>
      <trkpt lat="47.24546" lon="-1.57184">
        <ele>78</ele>
        <time>2022-05-03T08:38:19Z</time>
      </trkpt>
      <trkpt lat="47.24546" lon="-1.57182">
        <ele>78</ele>
        <time>2022-05-03T08:38:20Z</time>
      </trkpt>
      <trkpt lat="47.24546" lon="-1.5718">
        <ele>78</ele>
        <time>2022-05-03T08:38:21Z</time>
      </trkpt>
      <trkpt lat="47.24545" lon="-1.57178">
        <ele>78</ele>
        <time>2022-05-03T08:38:22Z</time>
      </trkpt>
      <trkpt lat="47.24545" lon="-1.57176">
        <ele>78</ele>
        <time>2022-05-03T08:38:23Z</time>
      </trkpt>
      <trkpt lat="47.24545" lon="-1.57174">
        <ele>78</ele>
        <time>2022-05-03T08:38:24Z</time>
      </trkpt>
      <trkpt lat="47.24545" lon="-1.57172">
        <ele>78</ele>
        <time>2022-05-03T08:38:25Z</time>
      </trkpt>
      <trkpt lat="47.24545" lon="-1.5717">
        <ele>78</ele>
        <time>2022-05-03T08:38:26Z</time>
      </trkpt>
      <trkpt lat="47.24545" lon="-1.57167">
        <ele>78</ele>
        <time>2022-05-03T08:38:27Z</time>
      </trkpt>
      <trkpt lat="47.24545" lon="-1.57165">
        <ele>78</ele>
        <time>2022-05-03T08:38:28Z</time>
      </trkpt>
      <trkpt lat="47.24544" lon="-1.57164">
        <ele>79</ele>
        <time>2022-05-03T08:38:29Z</time>
      </trkpt>
      <trkpt lat="47.24543" lon="-1.57162">
        <ele>79</ele>
        <time>2022-05-03T08:38:30Z</time>
      </trkpt>
      <trkpt lat="47.24543" lon="-1.5716">
        <ele>79</ele>
        <time>2022-05-03T08:38:31Z</time>
      </trkpt>
      <trkpt lat="47.24542" lon="-1.57158">
        <ele>79</ele>
        <time>2022-05-03T08:38:32Z</time>
      </trkpt>
      <trkpt lat="47.24542" lon="-1.57155">
        <ele>79</ele>
        <time>2022-05-03T08:38:33Z</time>
      </trkpt>
      <trkpt lat="47.24542" lon="-1.57152">
        <ele>79</ele>
        <time>2022-05-03T08:38:34Z</time>
      </trkpt>
      <trkpt lat="47.24542" lon="-1.5715">
        <ele>79</ele>
        <time>2022-05-03T08:38:35Z</time>
      </trkpt>
      <trkpt lat="47.24542" lon="-1.57148">
        <ele>80</ele>
        <time>2022-05-03T08:38:36Z</time>
      </trkpt>
      <trkpt lat="47.24542" lon="-1.57145">
        <ele>80</ele>
        <time>2022-05-03T08:38:37Z</time>
      </trkpt>
      <trkpt lat="47.24542" lon="-1.57143">
        <ele>79</ele>
        <time>2022-05-03T08:38:38Z</time>
      </trkpt>
      <trkpt lat="47.24542" lon="-1.57141">
        <ele>80</ele>
        <time>2022-05-03T08:38:39Z</time>
      </trkpt>
      <trkpt lat="47.24542" lon="-1.57139">
        <ele>79</ele>
        <time>2022-05-03T08:38:40Z</time>
      </trkpt>
      <trkpt lat="47.24541" lon="-1.57137">
        <ele>79</ele>
        <time>2022-05-03T08:38:41Z</time>
      </trkpt>
      <trkpt lat="47.24541" lon="-1.57135">
        <ele>79</ele>
        <time>2022-05-03T08:38:42Z</time>
      </trkpt>
      <trkpt lat="47.24541" lon="-1.57133">
        <ele>79</ele>
        <time>2022-05-03T08:38:43Z</time>
      </trkpt>
      <trkpt lat="47.24541" lon="-1.5713">
        <ele>79</ele>
        <time>2022-05-03T08:38:44Z</time>
      </trkpt>
      <trkpt lat="47.24542" lon="-1.57128">
        <ele>78</ele>
        <time>2022-05-03T08:38:45Z</time>
      </trkpt>
      <trkpt lat="47.24542" lon="-1.57125">
        <ele>78</ele>
        <time>2022-05-03T08:38:46Z</time>
      </trkpt>
      <trkpt lat="47.24542" lon="-1.57123">
        <ele>78</ele>
        <time>2022-05-03T08:38:47Z</time>
      </trkpt>
      <trkpt lat="47.24542" lon="-1.57121">
        <ele>77</ele>
        <time>2022-05-03T08:38:48Z</time>
      </trkpt>
      <trkpt lat="47.24542" lon="-1.57119">
        <ele>77</ele>
        <time>2022-05-03T08:38:49Z</time>
      </trkpt>
      <trkpt lat="47.24542" lon="-1.57117">
        <ele>76</ele>
        <time>2022-05-03T08:38:50Z</time>
      </trkpt>
      <trkpt lat="47.24543" lon="-1.57115">
        <ele>76</ele>
        <time>2022-05-03T08:38:51Z</time>
      </trkpt>
      <trkpt lat="47.24543" lon="-1.57114">
        <ele>76</ele>
        <time>2022-05-03T08:38:52Z</time>
      </trkpt>
      <trkpt lat="47.24544" lon="-1.57112">
        <ele>76</ele>
        <time>2022-05-03T08:38:53Z</time>
      </trkpt>
      <trkpt lat="47.24544" lon="-1.57112">
        <ele>76</ele>
        <time>2022-05-03T08:38:54Z</time>
      </trkpt>
      <trkpt lat="47.24544" lon="-1.5711">
        <ele>76</ele>
        <time>2022-05-03T08:38:55Z</time>
      </trkpt>
      <trkpt lat="47.24543" lon="-1.57108">
        <ele>76</ele>
        <time>2022-05-03T08:38:56Z</time>
      </trkpt>
      <trkpt lat="47.24543" lon="-1.57106">
        <ele>76</ele>
        <time>2022-05-03T08:38:57Z</time>
      </trkpt>
      <trkpt lat="47.24543" lon="-1.57105">
        <ele>76</ele>
        <time>2022-05-03T08:38:58Z</time>
      </trkpt>
      <trkpt lat="47.24543" lon="-1.57103">
        <ele>76</ele>
        <time>2022-05-03T08:38:59Z</time>
      </trkpt>
      <trkpt lat="47.24542" lon="-1.57101">
        <ele>75</ele>
        <time>2022-05-03T08:39:00Z</time>
      </trkpt>
      <trkpt lat="47.24542" lon="-1.571">
        <ele>75</ele>
        <time>2022-05-03T08:39:01Z</time>
      </trkpt>
      <trkpt lat="47.24541" lon="-1.57098">
        <ele>75</ele>
        <time>2022-05-03T08:39:02Z</time>
      </trkpt>
      <trkpt lat="47.24541" lon="-1.57096">
        <ele>75</ele>
        <time>2022-05-03T08:39:03Z</time>
      </trkpt>
      <trkpt lat="47.24541" lon="-1.57094">
        <ele>75</ele>
        <time>2022-05-03T08:39:04Z</time>
      </trkpt>
      <trkpt lat="47.2454" lon="-1.57092">
        <ele>75</ele>
        <time>2022-05-03T08:39:05Z</time>
      </trkpt>
      <trkpt lat="47.2454" lon="-1.5709">
        <ele>75</ele>
        <time>2022-05-03T08:39:06Z</time>
      </trkpt>
      <trkpt lat="47.2454" lon="-1.57088">
        <ele>75</ele>
        <time>2022-05-03T08:39:07Z</time>
      </trkpt>
      <trkpt lat="47.24539" lon="-1.57086">
        <ele>75</ele>
        <time>2022-05-03T08:39:08Z</time>
      </trkpt>
      <trkpt lat="47.24539" lon="-1.57084">
        <ele>75</ele>
        <time>2022-05-03T08:39:09Z</time>
      </trkpt>
      <trkpt lat="47.2454" lon="-1.57082">
        <ele>74</ele>
        <time>2022-05-03T08:39:10Z</time>
      </trkpt>
      <trkpt lat="47.2454" lon="-1.5708">
        <ele>74</ele>
        <time>2022-05-03T08:39:11Z</time>
      </trkpt>
      <trkpt lat="47.2454" lon="-1.57078">
        <ele>73</ele>
        <time>2022-05-03T08:39:12Z</time>
      </trkpt>
      <trkpt lat="47.2454" lon="-1.57076">
        <ele>73</ele>
        <time>2022-05-03T08:39:13Z</time>
      </trkpt>
      <trkpt lat="47.24539" lon="-1.57074">
        <ele>73</ele>
        <time>2022-05-03T08:39:14Z</time>
      </trkpt>
      <trkpt lat="47.24539" lon="-1.57073">
        <ele>73</ele>
        <time>2022-05-03T08:39:15Z</time>
      </trkpt>
      <trkpt lat="47.24539" lon="-1.57071">
        <ele>73</ele>
        <time>2022-05-03T08:39:16Z</time>
      </trkpt>
      <trkpt lat="47.24539" lon="-1.57069">
        <ele>72</ele>
        <time>2022-05-03T08:39:17Z</time>
      </trkpt>
      <trkpt lat="47.24539" lon="-1.57067">
        <ele>72</ele>
        <time>2022-05-03T08:39:18Z</time>
      </trkpt>
      <trkpt lat="47.24539" lon="-1.57065">
        <ele>72</ele>
        <time>2022-05-03T08:39:19Z</time>
      </trkpt>
      <trkpt lat="47.24539" lon="-1.57063">
        <ele>73</ele>
        <time>2022-05-03T08:39:20Z</time>
      </trkpt>
      <trkpt lat="47.24539" lon="-1.57061">
        <ele>73</ele>
        <time>2022-05-03T08:39:21Z</time>
      </trkpt>
      <trkpt lat="47.24539" lon="-1.57059">
        <ele>73</ele>
        <time>2022-05-03T08:39:22Z</time>
      </trkpt>
      <trkpt lat="47.24539" lon="-1.57057">
        <ele>73</ele>
        <time>2022-05-03T08:39:23Z</time>
      </trkpt>
      <trkpt lat="47.24538" lon="-1.57056">
        <ele>73</ele>
        <time>2022-05-03T08:39:24Z</time>
      </trkpt>
      <trkpt lat="47.24537" lon="-1.57054">
        <ele>73</ele>
        <time>2022-05-03T08:39:25Z</time>
      </trkpt>
      <trkpt lat="47.24537" lon="-1.57053">
        <ele>74</ele>
        <time>2022-05-03T08:39:26Z</time>
      </trkpt>
      <trkpt lat="47.24537" lon="-1.57052">
        <ele>73</ele>
        <time>2022-05-03T08:39:27Z</time>
      </trkpt>
      <trkpt lat="47.24536" lon="-1.5705">
        <ele>74</ele>
        <time>2022-05-03T08:39:28Z</time>
      </trkpt>
      <trkpt lat="47.24535" lon="-1.57048">
        <ele>74</ele>
        <time>2022-05-03T08:39:29Z</time>
      </trkpt>
      <trkpt lat="47.24535" lon="-1.57046">
        <ele>74</ele>
        <time>2022-05-03T08:39:30Z</time>
      </trkpt>
      <trkpt lat="47.24534" lon="-1.57044">
        <ele>74</ele>
        <time>2022-05-03T08:39:31Z</time>
      </trkpt>
      <trkpt lat="47.24534" lon="-1.57042">
        <ele>73</ele>
        <time>2022-05-03T08:39:32Z</time>
      </trkpt>
      <trkpt lat="47.24533" lon="-1.57041">
        <ele>73</ele>
        <time>2022-05-03T08:39:33Z</time>
      </trkpt>
      <trkpt lat="47.24532" lon="-1.5704">
        <ele>72</ele>
        <time>2022-05-03T08:39:34Z</time>
      </trkpt>
      <trkpt lat="47.24532" lon="-1.57039">
        <ele>72</ele>
        <time>2022-05-03T08:39:35Z</time>
      </trkpt>
      <trkpt lat="47.24531" lon="-1.57038">
        <ele>71</ele>
        <time>2022-05-03T08:39:36Z</time>
      </trkpt>
      <trkpt lat="47.2453" lon="-1.57036">
        <ele>71</ele>
        <time>2022-05-03T08:39:37Z</time>
      </trkpt>
      <trkpt lat="47.2453" lon="-1.57035">
        <ele>71</ele>
        <time>2022-05-03T08:39:38Z</time>
      </trkpt>
      <trkpt lat="47.24529" lon="-1.57034">
        <ele>71</ele>
        <time>2022-05-03T08:39:39Z</time>
      </trkpt>
      <trkpt lat="47.24528" lon="-1.57033">
        <ele>71</ele>
        <time>2022-05-03T08:39:40Z</time>
      </trkpt>
      <trkpt lat="47.24527" lon="-1.57032">
        <ele>71</ele>
        <time>2022-05-03T08:39:41Z</time>
      </trkpt>
      <trkpt lat="47.24526" lon="-1.57031">
        <ele>71</ele>
        <time>2022-05-03T08:39:42Z</time>
      </trkpt>
      <trkpt lat="47.24525" lon="-1.57031">
        <ele>71</ele>
        <time>2022-05-03T08:39:43Z</time>
      </trkpt>
      <trkpt lat="47.24524" lon="-1.57029">
        <ele>71</ele>
        <time>2022-05-03T08:39:44Z</time>
      </trkpt>
      <trkpt lat="47.24523" lon="-1.57028">
        <ele>71</ele>
        <time>2022-05-03T08:39:45Z</time>
      </trkpt>
      <trkpt lat="47.24522" lon="-1.57027">
        <ele>71</ele>
        <time>2022-05-03T08:39:46Z</time>
      </trkpt>
      <trkpt lat="47.24521" lon="-1.57026">
        <ele>71</ele>
        <time>2022-05-03T08:39:47Z</time>
      </trkpt>
      <trkpt lat="47.2452" lon="-1.57024">
        <ele>71</ele>
        <time>2022-05-03T08:39:48Z</time>
      </trkpt>
      <trkpt lat="47.24519" lon="-1.57023">
        <ele>71</ele>
        <time>2022-05-03T08:39:49Z</time>
      </trkpt>
      <trkpt lat="47.24519" lon="-1.57021">
        <ele>71</ele>
        <time>2022-05-03T08:39:50Z</time>
      </trkpt>
      <trkpt lat="47.24517" lon="-1.5702">
        <ele>70</ele>
        <time>2022-05-03T08:39:51Z</time>
      </trkpt>
      <trkpt lat="47.24516" lon="-1.57019">
        <ele>70</ele>
        <time>2022-05-03T08:39:52Z</time>
      </trkpt>
      <trkpt lat="47.24516" lon="-1.57018">
        <ele>70</ele>
        <time>2022-05-03T08:39:53Z</time>
      </trkpt>
      <trkpt lat="47.24515" lon="-1.57017">
        <ele>70</ele>
        <time>2022-05-03T08:39:54Z</time>
      </trkpt>
      <trkpt lat="47.24514" lon="-1.57016">
        <ele>70</ele>
        <time>2022-05-03T08:39:55Z</time>
      </trkpt>
      <trkpt lat="47.24513" lon="-1.57016">
        <ele>70</ele>
        <time>2022-05-03T08:39:56Z</time>
      </trkpt>
      <trkpt lat="47.24513" lon="-1.57015">
        <ele>70</ele>
        <time>2022-05-03T08:39:57Z</time>
      </trkpt>
      <trkpt lat="47.24511" lon="-1.57015">
        <ele>70</ele>
        <time>2022-05-03T08:39:58Z</time>
      </trkpt>
      <trkpt lat="47.2451" lon="-1.57014">
        <ele>70</ele>
        <time>2022-05-03T08:39:59Z</time>
      </trkpt>
      <trkpt lat="47.24509" lon="-1.57013">
        <ele>70</ele>
        <time>2022-05-03T08:40:00Z</time>
      </trkpt>
      <trkpt lat="47.24508" lon="-1.57013">
        <ele>69</ele>
        <time>2022-05-03T08:40:01Z</time>
      </trkpt>
      <trkpt lat="47.24508" lon="-1.57012">
        <ele>69</ele>
        <time>2022-05-03T08:40:02Z</time>
      </trkpt>
      <trkpt lat="47.24507" lon="-1.57011">
        <ele>69</ele>
        <time>2022-05-03T08:40:03Z</time>
      </trkpt>
      <trkpt lat="47.24506" lon="-1.57011">
        <ele>69</ele>
        <time>2022-05-03T08:40:04Z</time>
      </trkpt>
      <trkpt lat="47.24505" lon="-1.5701">
        <ele>69</ele>
        <time>2022-05-03T08:40:05Z</time>
      </trkpt>
      <trkpt lat="47.24505" lon="-1.57009">
        <ele>69</ele>
        <time>2022-05-03T08:40:06Z</time>
      </trkpt>
      <trkpt lat="47.24503" lon="-1.57009">
        <ele>69</ele>
        <time>2022-05-03T08:40:07Z</time>
      </trkpt>
      <trkpt lat="47.24503" lon="-1.57009">
        <ele>69</ele>
        <time>2022-05-03T08:40:08Z</time>
      </trkpt>
      <trkpt lat="47.24503" lon="-1.57009">
        <ele>69</ele>
        <time>2022-05-03T08:40:09Z</time>
      </trkpt>
      <trkpt lat="47.24501" lon="-1.57007">
        <ele>70</ele>
        <time>2022-05-03T08:40:10Z</time>
      </trkpt>
      <trkpt lat="47.24499" lon="-1.57007">
        <ele>70</ele>
        <time>2022-05-03T08:40:11Z</time>
      </trkpt>
      <trkpt lat="47.24498" lon="-1.57008">
        <ele>69</ele>
        <time>2022-05-03T08:40:12Z</time>
      </trkpt>
      <trkpt lat="47.24497" lon="-1.57007">
        <ele>70</ele>
        <time>2022-05-03T08:40:13Z</time>
      </trkpt>
      <trkpt lat="47.24497" lon="-1.57007">
        <ele>70</ele>
        <time>2022-05-03T08:40:14Z</time>
      </trkpt>
      <trkpt lat="47.24495" lon="-1.57007">
        <ele>70</ele>
        <time>2022-05-03T08:40:15Z</time>
      </trkpt>
      <trkpt lat="47.24495" lon="-1.57007">
        <ele>70</ele>
        <time>2022-05-03T08:40:16Z</time>
      </trkpt>
      <trkpt lat="47.24495" lon="-1.57007">
        <ele>70</ele>
        <time>2022-05-03T08:40:17Z</time>
      </trkpt>
      <trkpt lat="47.24492" lon="-1.57005">
        <ele>70</ele>
        <time>2022-05-03T08:40:18Z</time>
      </trkpt>
      <trkpt lat="47.2449" lon="-1.57004">
        <ele>70</ele>
        <time>2022-05-03T08:40:19Z</time>
      </trkpt>
      <trkpt lat="47.2449" lon="-1.57001">
        <ele>70</ele>
        <time>2022-05-03T08:40:20Z</time>
      </trkpt>
      <trkpt lat="47.24488" lon="-1.57">
        <ele>70</ele>
        <time>2022-05-03T08:40:21Z</time>
      </trkpt>
      <trkpt lat="47.24487" lon="-1.56998">
        <ele>70</ele>
        <time>2022-05-03T08:40:22Z</time>
      </trkpt>
      <trkpt lat="47.24486" lon="-1.56996">
        <ele>69</ele>
        <time>2022-05-03T08:40:23Z</time>
      </trkpt>
      <trkpt lat="47.24485" lon="-1.56994">
        <ele>70</ele>
        <time>2022-05-03T08:40:24Z</time>
      </trkpt>
      <trkpt lat="47.24484" lon="-1.56993">
        <ele>70</ele>
        <time>2022-05-03T08:40:25Z</time>
      </trkpt>
      <trkpt lat="47.24483" lon="-1.56991">
        <ele>70</ele>
        <time>2022-05-03T08:40:26Z</time>
      </trkpt>
      <trkpt lat="47.24482" lon="-1.5699">
        <ele>69</ele>
        <time>2022-05-03T08:40:27Z</time>
      </trkpt>
      <trkpt lat="47.2448" lon="-1.56989">
        <ele>69</ele>
        <time>2022-05-03T08:40:28Z</time>
      </trkpt>
      <trkpt lat="47.24479" lon="-1.56988">
        <ele>68</ele>
        <time>2022-05-03T08:40:29Z</time>
      </trkpt>
      <trkpt lat="47.24478" lon="-1.56987">
        <ele>68</ele>
        <time>2022-05-03T08:40:30Z</time>
      </trkpt>
      <trkpt lat="47.24477" lon="-1.56985">
        <ele>68</ele>
        <time>2022-05-03T08:40:31Z</time>
      </trkpt>
      <trkpt lat="47.24477" lon="-1.56985">
        <ele>68</ele>
        <time>2022-05-03T08:40:32Z</time>
      </trkpt>
      <trkpt lat="47.24475" lon="-1.56983">
        <ele>68</ele>
        <time>2022-05-03T08:40:33Z</time>
      </trkpt>
      <trkpt lat="47.24474" lon="-1.56982">
        <ele>67</ele>
        <time>2022-05-03T08:40:34Z</time>
      </trkpt>
      <trkpt lat="47.24473" lon="-1.5698">
        <ele>67</ele>
        <time>2022-05-03T08:40:35Z</time>
      </trkpt>
      <trkpt lat="47.24472" lon="-1.56978">
        <ele>67</ele>
        <time>2022-05-03T08:40:36Z</time>
      </trkpt>
      <trkpt lat="47.24471" lon="-1.56977">
        <ele>67</ele>
        <time>2022-05-03T08:40:37Z</time>
      </trkpt>
      <trkpt lat="47.24469" lon="-1.56975">
        <ele>66</ele>
        <time>2022-05-03T08:40:38Z</time>
      </trkpt>
      <trkpt lat="47.24468" lon="-1.56973">
        <ele>66</ele>
        <time>2022-05-03T08:40:39Z</time>
      </trkpt>
      <trkpt lat="47.24467" lon="-1.56972">
        <ele>66</ele>
        <time>2022-05-03T08:40:40Z</time>
      </trkpt>
      <trkpt lat="47.24466" lon="-1.56971">
        <ele>65</ele>
        <time>2022-05-03T08:40:41Z</time>
      </trkpt>
      <trkpt lat="47.24466" lon="-1.56971">
        <ele>65</ele>
        <time>2022-05-03T08:40:42Z</time>
      </trkpt>
      <trkpt lat="47.24466" lon="-1.56971">
        <ele>65</ele>
        <time>2022-05-03T08:40:43Z</time>
      </trkpt>
      <trkpt lat="47.24464" lon="-1.56968">
        <ele>64</ele>
        <time>2022-05-03T08:40:44Z</time>
      </trkpt>
      <trkpt lat="47.24463" lon="-1.56966">
        <ele>64</ele>
        <time>2022-05-03T08:40:45Z</time>
      </trkpt>
      <trkpt lat="47.24462" lon="-1.56964">
        <ele>63</ele>
        <time>2022-05-03T08:40:46Z</time>
      </trkpt>
      <trkpt lat="47.24461" lon="-1.56963">
        <ele>63</ele>
        <time>2022-05-03T08:40:47Z</time>
      </trkpt>
      <trkpt lat="47.24459" lon="-1.56961">
        <ele>62</ele>
        <time>2022-05-03T08:40:48Z</time>
      </trkpt>
      <trkpt lat="47.24457" lon="-1.5696">
        <ele>62</ele>
        <time>2022-05-03T08:40:49Z</time>
      </trkpt>
      <trkpt lat="47.24456" lon="-1.56959">
        <ele>62</ele>
        <time>2022-05-03T08:40:50Z</time>
      </trkpt>
      <trkpt lat="47.24455" lon="-1.56958">
        <ele>62</ele>
        <time>2022-05-03T08:40:51Z</time>
      </trkpt>
      <trkpt lat="47.24454" lon="-1.56957">
        <ele>63</ele>
        <time>2022-05-03T08:40:52Z</time>
      </trkpt>
      <trkpt lat="47.24452" lon="-1.56956">
        <ele>62</ele>
        <time>2022-05-03T08:40:53Z</time>
      </trkpt>
      <trkpt lat="47.24451" lon="-1.56954">
        <ele>62</ele>
        <time>2022-05-03T08:40:54Z</time>
      </trkpt>
      <trkpt lat="47.24449" lon="-1.56953">
        <ele>62</ele>
        <time>2022-05-03T08:40:55Z</time>
      </trkpt>
      <trkpt lat="47.24448" lon="-1.56951">
        <ele>62</ele>
        <time>2022-05-03T08:40:56Z</time>
      </trkpt>
      <trkpt lat="47.24447" lon="-1.5695">
        <ele>62</ele>
        <time>2022-05-03T08:40:57Z</time>
      </trkpt>
      <trkpt lat="47.24446" lon="-1.56948">
        <ele>62</ele>
        <time>2022-05-03T08:40:58Z</time>
      </trkpt>
      <trkpt lat="47.24445" lon="-1.56946">
        <ele>63</ele>
        <time>2022-05-03T08:40:59Z</time>
      </trkpt>
      <trkpt lat="47.24444" lon="-1.56944">
        <ele>62</ele>
        <time>2022-05-03T08:41:00Z</time>
      </trkpt>
      <trkpt lat="47.24443" lon="-1.56942">
        <ele>62</ele>
        <time>2022-05-03T08:41:01Z</time>
      </trkpt>
      <trkpt lat="47.24443" lon="-1.5694">
        <ele>62</ele>
        <time>2022-05-03T08:41:02Z</time>
      </trkpt>
      <trkpt lat="47.24442" lon="-1.56938">
        <ele>63</ele>
        <time>2022-05-03T08:41:03Z</time>
      </trkpt>
      <trkpt lat="47.24441" lon="-1.56936">
        <ele>62</ele>
        <time>2022-05-03T08:41:04Z</time>
      </trkpt>
      <trkpt lat="47.2444" lon="-1.56934">
        <ele>62</ele>
        <time>2022-05-03T08:41:05Z</time>
      </trkpt>
      <trkpt lat="47.24439" lon="-1.56933">
        <ele>63</ele>
        <time>2022-05-03T08:41:06Z</time>
      </trkpt>
      <trkpt lat="47.24438" lon="-1.56932">
        <ele>63</ele>
        <time>2022-05-03T08:41:07Z</time>
      </trkpt>
      <trkpt lat="47.24437" lon="-1.56931">
        <ele>63</ele>
        <time>2022-05-03T08:41:08Z</time>
      </trkpt>
      <trkpt lat="47.24437" lon="-1.56929">
        <ele>62</ele>
        <time>2022-05-03T08:41:09Z</time>
      </trkpt>
      <trkpt lat="47.24436" lon="-1.56927">
        <ele>62</ele>
        <time>2022-05-03T08:41:10Z</time>
      </trkpt>
      <trkpt lat="47.24436" lon="-1.56925">
        <ele>63</ele>
        <time>2022-05-03T08:41:11Z</time>
      </trkpt>
      <trkpt lat="47.24435" lon="-1.56924">
        <ele>62</ele>
        <time>2022-05-03T08:41:12Z</time>
      </trkpt>
      <trkpt lat="47.24434" lon="-1.56923">
        <ele>63</ele>
        <time>2022-05-03T08:41:13Z</time>
      </trkpt>
      <trkpt lat="47.24434" lon="-1.56923">
        <ele>63</ele>
        <time>2022-05-03T08:41:14Z</time>
      </trkpt>
      <trkpt lat="47.24432" lon="-1.56922">
        <ele>63</ele>
        <time>2022-05-03T08:41:15Z</time>
      </trkpt>
      <trkpt lat="47.24431" lon="-1.5692">
        <ele>63</ele>
        <time>2022-05-03T08:41:16Z</time>
      </trkpt>
      <trkpt lat="47.24431" lon="-1.56918">
        <ele>63</ele>
        <time>2022-05-03T08:41:17Z</time>
      </trkpt>
      <trkpt lat="47.24429" lon="-1.56917">
        <ele>63</ele>
        <time>2022-05-03T08:41:18Z</time>
      </trkpt>
      <trkpt lat="47.24429" lon="-1.56915">
        <ele>63</ele>
        <time>2022-05-03T08:41:19Z</time>
      </trkpt>
      <trkpt lat="47.24427" lon="-1.56914">
        <ele>63</ele>
        <time>2022-05-03T08:41:20Z</time>
      </trkpt>
      <trkpt lat="47.24426" lon="-1.56911">
        <ele>64</ele>
        <time>2022-05-03T08:41:21Z</time>
      </trkpt>
      <trkpt lat="47.24424" lon="-1.5691">
        <ele>64</ele>
        <time>2022-05-03T08:41:22Z</time>
      </trkpt>
      <trkpt lat="47.24423" lon="-1.56909">
        <ele>64</ele>
        <time>2022-05-03T08:41:23Z</time>
      </trkpt>
      <trkpt lat="47.24421" lon="-1.56908">
        <ele>65</ele>
        <time>2022-05-03T08:41:24Z</time>
      </trkpt>
      <trkpt lat="47.2442" lon="-1.56907">
        <ele>65</ele>
        <time>2022-05-03T08:41:25Z</time>
      </trkpt>
      <trkpt lat="47.24419" lon="-1.56905">
        <ele>66</ele>
        <time>2022-05-03T08:41:26Z</time>
      </trkpt>
      <trkpt lat="47.24418" lon="-1.56903">
        <ele>65</ele>
        <time>2022-05-03T08:41:27Z</time>
      </trkpt>
      <trkpt lat="47.24417" lon="-1.56901">
        <ele>65</ele>
        <time>2022-05-03T08:41:28Z</time>
      </trkpt>
      <trkpt lat="47.24415" lon="-1.56899">
        <ele>65</ele>
        <time>2022-05-03T08:41:29Z</time>
      </trkpt>
      <trkpt lat="47.24414" lon="-1.56897">
        <ele>66</ele>
        <time>2022-05-03T08:41:30Z</time>
      </trkpt>
      <trkpt lat="47.24414" lon="-1.56895">
        <ele>65</ele>
        <time>2022-05-03T08:41:31Z</time>
      </trkpt>
      <trkpt lat="47.24413" lon="-1.56893">
        <ele>65</ele>
        <time>2022-05-03T08:41:32Z</time>
      </trkpt>
      <trkpt lat="47.24412" lon="-1.56891">
        <ele>65</ele>
        <time>2022-05-03T08:41:33Z</time>
      </trkpt>
      <trkpt lat="47.24411" lon="-1.56889">
        <ele>65</ele>
        <time>2022-05-03T08:41:34Z</time>
      </trkpt>
      <trkpt lat="47.2441" lon="-1.56887">
        <ele>65</ele>
        <time>2022-05-03T08:41:35Z</time>
      </trkpt>
      <trkpt lat="47.2441" lon="-1.56885">
        <ele>66</ele>
        <time>2022-05-03T08:41:36Z</time>
      </trkpt>
      <trkpt lat="47.24408" lon="-1.56883">
        <ele>66</ele>
        <time>2022-05-03T08:41:37Z</time>
      </trkpt>
      <trkpt lat="47.24408" lon="-1.56881">
        <ele>66</ele>
        <time>2022-05-03T08:41:38Z</time>
      </trkpt>
      <trkpt lat="47.24407" lon="-1.56879">
        <ele>66</ele>
        <time>2022-05-03T08:41:39Z</time>
      </trkpt>
      <trkpt lat="47.24406" lon="-1.56878">
        <ele>66</ele>
        <time>2022-05-03T08:41:40Z</time>
      </trkpt>
      <trkpt lat="47.24405" lon="-1.56876">
        <ele>66</ele>
        <time>2022-05-03T08:41:41Z</time>
      </trkpt>
      <trkpt lat="47.24405" lon="-1.56874">
        <ele>66</ele>
        <time>2022-05-03T08:41:43Z</time>
      </trkpt>
      <trkpt lat="47.24404" lon="-1.56873">
        <ele>66</ele>
        <time>2022-05-03T08:41:44Z</time>
      </trkpt>
      <trkpt lat="47.24403" lon="-1.56871">
        <ele>66</ele>
        <time>2022-05-03T08:41:45Z</time>
      </trkpt>
      <trkpt lat="47.24402" lon="-1.56869">
        <ele>66</ele>
        <time>2022-05-03T08:41:46Z</time>
      </trkpt>
      <trkpt lat="47.24402" lon="-1.56867">
        <ele>66</ele>
        <time>2022-05-03T08:41:47Z</time>
      </trkpt>
      <trkpt lat="47.24401" lon="-1.56864">
        <ele>66</ele>
        <time>2022-05-03T08:41:48Z</time>
      </trkpt>
      <trkpt lat="47.24401" lon="-1.56862">
        <ele>66</ele>
        <time>2022-05-03T08:41:49Z</time>
      </trkpt>
      <trkpt lat="47.244" lon="-1.56861">
        <ele>66</ele>
        <time>2022-05-03T08:41:50Z</time>
      </trkpt>
      <trkpt lat="47.244" lon="-1.56859">
        <ele>66</ele>
        <time>2022-05-03T08:41:51Z</time>
      </trkpt>
      <trkpt lat="47.24399" lon="-1.56858">
        <ele>66</ele>
        <time>2022-05-03T08:41:52Z</time>
      </trkpt>
      <trkpt lat="47.24398" lon="-1.56857">
        <ele>67</ele>
        <time>2022-05-03T08:41:53Z</time>
      </trkpt>
      <trkpt lat="47.24398" lon="-1.56855">
        <ele>67</ele>
        <time>2022-05-03T08:41:54Z</time>
      </trkpt>
      <trkpt lat="47.24397" lon="-1.56854">
        <ele>67</ele>
        <time>2022-05-03T08:41:55Z</time>
      </trkpt>
      <trkpt lat="47.24397" lon="-1.56853">
        <ele>67</ele>
        <time>2022-05-03T08:41:56Z</time>
      </trkpt>
      <trkpt lat="47.24396" lon="-1.56851">
        <ele>68</ele>
        <time>2022-05-03T08:41:57Z</time>
      </trkpt>
      <trkpt lat="47.24395" lon="-1.56849">
        <ele>68</ele>
        <time>2022-05-03T08:41:58Z</time>
      </trkpt>
      <trkpt lat="47.24394" lon="-1.56848">
        <ele>69</ele>
        <time>2022-05-03T08:41:59Z</time>
      </trkpt>
      <trkpt lat="47.24394" lon="-1.56846">
        <ele>69</ele>
        <time>2022-05-03T08:42:00Z</time>
      </trkpt>
      <trkpt lat="47.24392" lon="-1.56844">
        <ele>69</ele>
        <time>2022-05-03T08:42:01Z</time>
      </trkpt>
      <trkpt lat="47.24392" lon="-1.56843">
        <ele>69</ele>
        <time>2022-05-03T08:42:02Z</time>
      </trkpt>
      <trkpt lat="47.24392" lon="-1.5684">
        <ele>69</ele>
        <time>2022-05-03T08:42:03Z</time>
      </trkpt>
      <trkpt lat="47.24391" lon="-1.56839">
        <ele>69</ele>
        <time>2022-05-03T08:42:04Z</time>
      </trkpt>
      <trkpt lat="47.2439" lon="-1.56837">
        <ele>69</ele>
        <time>2022-05-03T08:42:05Z</time>
      </trkpt>
      <trkpt lat="47.2439" lon="-1.56836">
        <ele>69</ele>
        <time>2022-05-03T08:42:06Z</time>
      </trkpt>
      <trkpt lat="47.24389" lon="-1.56834">
        <ele>69</ele>
        <time>2022-05-03T08:42:07Z</time>
      </trkpt>
      <trkpt lat="47.24388" lon="-1.56833">
        <ele>69</ele>
        <time>2022-05-03T08:42:08Z</time>
      </trkpt>
      <trkpt lat="47.24387" lon="-1.56832">
        <ele>69</ele>
        <time>2022-05-03T08:42:09Z</time>
      </trkpt>
      <trkpt lat="47.24387" lon="-1.5683">
        <ele>69</ele>
        <time>2022-05-03T08:42:10Z</time>
      </trkpt>
      <trkpt lat="47.24387" lon="-1.56829">
        <ele>69</ele>
        <time>2022-05-03T08:42:11Z</time>
      </trkpt>
      <trkpt lat="47.24386" lon="-1.56827">
        <ele>69</ele>
        <time>2022-05-03T08:42:12Z</time>
      </trkpt>
      <trkpt lat="47.24384" lon="-1.56826">
        <ele>68</ele>
        <time>2022-05-03T08:42:13Z</time>
      </trkpt>
      <trkpt lat="47.24384" lon="-1.56825">
        <ele>68</ele>
        <time>2022-05-03T08:42:14Z</time>
      </trkpt>
      <trkpt lat="47.24383" lon="-1.56823">
        <ele>68</ele>
        <time>2022-05-03T08:42:15Z</time>
      </trkpt>
      <trkpt lat="47.24383" lon="-1.56821">
        <ele>68</ele>
        <time>2022-05-03T08:42:16Z</time>
      </trkpt>
      <trkpt lat="47.24382" lon="-1.5682">
        <ele>68</ele>
        <time>2022-05-03T08:42:17Z</time>
      </trkpt>
      <trkpt lat="47.24382" lon="-1.56818">
        <ele>68</ele>
        <time>2022-05-03T08:42:18Z</time>
      </trkpt>
      <trkpt lat="47.24382" lon="-1.56816">
        <ele>68</ele>
        <time>2022-05-03T08:42:19Z</time>
      </trkpt>
      <trkpt lat="47.24382" lon="-1.56815">
        <ele>68</ele>
        <time>2022-05-03T08:42:20Z</time>
      </trkpt>
      <trkpt lat="47.24382" lon="-1.56813">
        <ele>67</ele>
        <time>2022-05-03T08:42:21Z</time>
      </trkpt>
      <trkpt lat="47.24382" lon="-1.56811">
        <ele>68</ele>
        <time>2022-05-03T08:42:22Z</time>
      </trkpt>
      <trkpt lat="47.24382" lon="-1.56809">
        <ele>68</ele>
        <time>2022-05-03T08:42:23Z</time>
      </trkpt>
      <trkpt lat="47.24382" lon="-1.56807">
        <ele>68</ele>
        <time>2022-05-03T08:42:24Z</time>
      </trkpt>
      <trkpt lat="47.24382" lon="-1.56804">
        <ele>68</ele>
        <time>2022-05-03T08:42:25Z</time>
      </trkpt>
      <trkpt lat="47.24383" lon="-1.56803">
        <ele>68</ele>
        <time>2022-05-03T08:42:26Z</time>
      </trkpt>
      <trkpt lat="47.24383" lon="-1.56801">
        <ele>68</ele>
        <time>2022-05-03T08:42:27Z</time>
      </trkpt>
      <trkpt lat="47.24383" lon="-1.568">
        <ele>68</ele>
        <time>2022-05-03T08:42:28Z</time>
      </trkpt>
      <trkpt lat="47.24383" lon="-1.56798">
        <ele>69</ele>
        <time>2022-05-03T08:42:29Z</time>
      </trkpt>
      <trkpt lat="47.24383" lon="-1.56797">
        <ele>69</ele>
        <time>2022-05-03T08:42:30Z</time>
      </trkpt>
      <trkpt lat="47.24384" lon="-1.56795">
        <ele>70</ele>
        <time>2022-05-03T08:42:31Z</time>
      </trkpt>
      <trkpt lat="47.24385" lon="-1.56793">
        <ele>70</ele>
        <time>2022-05-03T08:42:32Z</time>
      </trkpt>
      <trkpt lat="47.24386" lon="-1.56791">
        <ele>71</ele>
        <time>2022-05-03T08:42:33Z</time>
      </trkpt>
      <trkpt lat="47.24386" lon="-1.56789">
        <ele>71</ele>
        <time>2022-05-03T08:42:34Z</time>
      </trkpt>
      <trkpt lat="47.24387" lon="-1.56787">
        <ele>71</ele>
        <time>2022-05-03T08:42:35Z</time>
      </trkpt>
      <trkpt lat="47.24388" lon="-1.56785">
        <ele>71</ele>
        <time>2022-05-03T08:42:36Z</time>
      </trkpt>
      <trkpt lat="47.24389" lon="-1.56783">
        <ele>71</ele>
        <time>2022-05-03T08:42:37Z</time>
      </trkpt>
      <trkpt lat="47.24389" lon="-1.56782">
        <ele>71</ele>
        <time>2022-05-03T08:42:38Z</time>
      </trkpt>
      <trkpt lat="47.24389" lon="-1.5678">
        <ele>71</ele>
        <time>2022-05-03T08:42:39Z</time>
      </trkpt>
      <trkpt lat="47.24389" lon="-1.56779">
        <ele>71</ele>
        <time>2022-05-03T08:42:40Z</time>
      </trkpt>
      <trkpt lat="47.24389" lon="-1.56777">
        <ele>71</ele>
        <time>2022-05-03T08:42:41Z</time>
      </trkpt>
      <trkpt lat="47.24389" lon="-1.56776">
        <ele>71</ele>
        <time>2022-05-03T08:42:42Z</time>
      </trkpt>
      <trkpt lat="47.24389" lon="-1.56775">
        <ele>71</ele>
        <time>2022-05-03T08:42:43Z</time>
      </trkpt>
      <trkpt lat="47.24389" lon="-1.56774">
        <ele>70</ele>
        <time>2022-05-03T08:42:44Z</time>
      </trkpt>
      <trkpt lat="47.24388" lon="-1.56772">
        <ele>70</ele>
        <time>2022-05-03T08:42:45Z</time>
      </trkpt>
      <trkpt lat="47.24388" lon="-1.5677">
        <ele>71</ele>
        <time>2022-05-03T08:42:46Z</time>
      </trkpt>
      <trkpt lat="47.24387" lon="-1.56768">
        <ele>70</ele>
        <time>2022-05-03T08:42:47Z</time>
      </trkpt>
      <trkpt lat="47.24387" lon="-1.56767">
        <ele>70</ele>
        <time>2022-05-03T08:42:48Z</time>
      </trkpt>
      <trkpt lat="47.24387" lon="-1.56765">
        <ele>70</ele>
        <time>2022-05-03T08:42:49Z</time>
      </trkpt>
      <trkpt lat="47.24386" lon="-1.56764">
        <ele>69</ele>
        <time>2022-05-03T08:42:50Z</time>
      </trkpt>
      <trkpt lat="47.24386" lon="-1.56762">
        <ele>70</ele>
        <time>2022-05-03T08:42:51Z</time>
      </trkpt>
      <trkpt lat="47.24386" lon="-1.56761">
        <ele>70</ele>
        <time>2022-05-03T08:42:52Z</time>
      </trkpt>
      <trkpt lat="47.24386" lon="-1.56759">
        <ele>71</ele>
        <time>2022-05-03T08:42:53Z</time>
      </trkpt>
      <trkpt lat="47.24386" lon="-1.56757">
        <ele>70</ele>
        <time>2022-05-03T08:42:54Z</time>
      </trkpt>
      <trkpt lat="47.24386" lon="-1.56755">
        <ele>70</ele>
        <time>2022-05-03T08:42:55Z</time>
      </trkpt>
      <trkpt lat="47.24386" lon="-1.56753">
        <ele>69</ele>
        <time>2022-05-03T08:42:56Z</time>
      </trkpt>
      <trkpt lat="47.24386" lon="-1.56751">
        <ele>68</ele>
        <time>2022-05-03T08:42:57Z</time>
      </trkpt>
      <trkpt lat="47.24386" lon="-1.56749">
        <ele>68</ele>
        <time>2022-05-03T08:42:58Z</time>
      </trkpt>
      <trkpt lat="47.24387" lon="-1.56746">
        <ele>69</ele>
        <time>2022-05-03T08:42:59Z</time>
      </trkpt>
      <trkpt lat="47.24387" lon="-1.56744">
        <ele>68</ele>
        <time>2022-05-03T08:43:00Z</time>
      </trkpt>
      <trkpt lat="47.24387" lon="-1.56742">
        <ele>68</ele>
        <time>2022-05-03T08:43:01Z</time>
      </trkpt>
      <trkpt lat="47.24387" lon="-1.56741">
        <ele>69</ele>
        <time>2022-05-03T08:43:02Z</time>
      </trkpt>
      <trkpt lat="47.24387" lon="-1.56738">
        <ele>69</ele>
        <time>2022-05-03T08:43:03Z</time>
      </trkpt>
      <trkpt lat="47.24387" lon="-1.56736">
        <ele>70</ele>
        <time>2022-05-03T08:43:04Z</time>
      </trkpt>
      <trkpt lat="47.24387" lon="-1.56734">
        <ele>70</ele>
        <time>2022-05-03T08:43:05Z</time>
      </trkpt>
      <trkpt lat="47.24388" lon="-1.56732">
        <ele>71</ele>
        <time>2022-05-03T08:43:06Z</time>
      </trkpt>
      <trkpt lat="47.24388" lon="-1.5673">
        <ele>71</ele>
        <time>2022-05-03T08:43:07Z</time>
      </trkpt>
      <trkpt lat="47.24387" lon="-1.56729">
        <ele>71</ele>
        <time>2022-05-03T08:43:08Z</time>
      </trkpt>
      <trkpt lat="47.24388" lon="-1.56727">
        <ele>72</ele>
        <time>2022-05-03T08:43:09Z</time>
      </trkpt>
      <trkpt lat="47.24388" lon="-1.56724">
        <ele>72</ele>
        <time>2022-05-03T08:43:10Z</time>
      </trkpt>
      <trkpt lat="47.24388" lon="-1.56722">
        <ele>72</ele>
        <time>2022-05-03T08:43:11Z</time>
      </trkpt>
      <trkpt lat="47.24388" lon="-1.56719">
        <ele>72</ele>
        <time>2022-05-03T08:43:12Z</time>
      </trkpt>
      <trkpt lat="47.24389" lon="-1.56717">
        <ele>72</ele>
        <time>2022-05-03T08:43:13Z</time>
      </trkpt>
      <trkpt lat="47.24389" lon="-1.56714">
        <ele>73</ele>
        <time>2022-05-03T08:43:14Z</time>
      </trkpt>
      <trkpt lat="47.24388" lon="-1.56712">
        <ele>73</ele>
        <time>2022-05-03T08:43:15Z</time>
      </trkpt>
      <trkpt lat="47.24388" lon="-1.5671">
        <ele>73</ele>
        <time>2022-05-03T08:43:16Z</time>
      </trkpt>
      <trkpt lat="47.24388" lon="-1.56707">
        <ele>73</ele>
        <time>2022-05-03T08:43:17Z</time>
      </trkpt>
      <trkpt lat="47.24388" lon="-1.56705">
        <ele>74</ele>
        <time>2022-05-03T08:43:18Z</time>
      </trkpt>
      <trkpt lat="47.24388" lon="-1.56703">
        <ele>74</ele>
        <time>2022-05-03T08:43:19Z</time>
      </trkpt>
      <trkpt lat="47.24388" lon="-1.56702">
        <ele>75</ele>
        <time>2022-05-03T08:43:20Z</time>
      </trkpt>
      <trkpt lat="47.24387" lon="-1.56699">
        <ele>75</ele>
        <time>2022-05-03T08:43:21Z</time>
      </trkpt>
      <trkpt lat="47.24387" lon="-1.56697">
        <ele>75</ele>
        <time>2022-05-03T08:43:22Z</time>
      </trkpt>
      <trkpt lat="47.24386" lon="-1.56696">
        <ele>75</ele>
        <time>2022-05-03T08:43:23Z</time>
      </trkpt>
      <trkpt lat="47.24386" lon="-1.56694">
        <ele>75</ele>
        <time>2022-05-03T08:43:24Z</time>
      </trkpt>
      <trkpt lat="47.24385" lon="-1.56693">
        <ele>75</ele>
        <time>2022-05-03T08:43:25Z</time>
      </trkpt>
      <trkpt lat="47.24385" lon="-1.56691">
        <ele>74</ele>
        <time>2022-05-03T08:43:26Z</time>
      </trkpt>
      <trkpt lat="47.24384" lon="-1.56689">
        <ele>74</ele>
        <time>2022-05-03T08:43:27Z</time>
      </trkpt>
      <trkpt lat="47.24385" lon="-1.56687">
        <ele>74</ele>
        <time>2022-05-03T08:43:28Z</time>
      </trkpt>
      <trkpt lat="47.24385" lon="-1.56684">
        <ele>74</ele>
        <time>2022-05-03T08:43:29Z</time>
      </trkpt>
      <trkpt lat="47.24385" lon="-1.56682">
        <ele>73</ele>
        <time>2022-05-03T08:43:30Z</time>
      </trkpt>
      <trkpt lat="47.24385" lon="-1.56679">
        <ele>74</ele>
        <time>2022-05-03T08:43:31Z</time>
      </trkpt>
      <trkpt lat="47.24386" lon="-1.56677">
        <ele>74</ele>
        <time>2022-05-03T08:43:32Z</time>
      </trkpt>
      <trkpt lat="47.24386" lon="-1.56676">
        <ele>74</ele>
        <time>2022-05-03T08:43:33Z</time>
      </trkpt>
      <trkpt lat="47.24386" lon="-1.56673">
        <ele>74</ele>
        <time>2022-05-03T08:43:34Z</time>
      </trkpt>
      <trkpt lat="47.24386" lon="-1.56671">
        <ele>74</ele>
        <time>2022-05-03T08:43:35Z</time>
      </trkpt>
      <trkpt lat="47.24386" lon="-1.56669">
        <ele>74</ele>
        <time>2022-05-03T08:43:36Z</time>
      </trkpt>
      <trkpt lat="47.24386" lon="-1.56667">
        <ele>74</ele>
        <time>2022-05-03T08:43:37Z</time>
      </trkpt>
      <trkpt lat="47.24386" lon="-1.56665">
        <ele>74</ele>
        <time>2022-05-03T08:43:38Z</time>
      </trkpt>
      <trkpt lat="47.24385" lon="-1.56663">
        <ele>75</ele>
        <time>2022-05-03T08:43:39Z</time>
      </trkpt>
      <trkpt lat="47.24385" lon="-1.56661">
        <ele>75</ele>
        <time>2022-05-03T08:43:40Z</time>
      </trkpt>
      <trkpt lat="47.24384" lon="-1.56659">
        <ele>75</ele>
        <time>2022-05-03T08:43:41Z</time>
      </trkpt>
      <trkpt lat="47.24384" lon="-1.56658">
        <ele>75</ele>
        <time>2022-05-03T08:43:42Z</time>
      </trkpt>
      <trkpt lat="47.24384" lon="-1.56655">
        <ele>75</ele>
        <time>2022-05-03T08:43:43Z</time>
      </trkpt>
      <trkpt lat="47.24384" lon="-1.56652">
        <ele>75</ele>
        <time>2022-05-03T08:43:44Z</time>
      </trkpt>
      <trkpt lat="47.24384" lon="-1.5665">
        <ele>74</ele>
        <time>2022-05-03T08:43:45Z</time>
      </trkpt>
      <trkpt lat="47.24383" lon="-1.56647">
        <ele>74</ele>
        <time>2022-05-03T08:43:46Z</time>
      </trkpt>
      <trkpt lat="47.24383" lon="-1.56645">
        <ele>74</ele>
        <time>2022-05-03T08:43:47Z</time>
      </trkpt>
      <trkpt lat="47.24383" lon="-1.56643">
        <ele>74</ele>
        <time>2022-05-03T08:43:48Z</time>
      </trkpt>
      <trkpt lat="47.24383" lon="-1.56641">
        <ele>74</ele>
        <time>2022-05-03T08:43:49Z</time>
      </trkpt>
      <trkpt lat="47.24383" lon="-1.56638">
        <ele>74</ele>
        <time>2022-05-03T08:43:50Z</time>
      </trkpt>
      <trkpt lat="47.24383" lon="-1.56636">
        <ele>74</ele>
        <time>2022-05-03T08:43:51Z</time>
      </trkpt>
      <trkpt lat="47.24383" lon="-1.56634">
        <ele>74</ele>
        <time>2022-05-03T08:43:52Z</time>
      </trkpt>
      <trkpt lat="47.24383" lon="-1.56632">
        <ele>74</ele>
        <time>2022-05-03T08:43:53Z</time>
      </trkpt>
      <trkpt lat="47.24382" lon="-1.5663">
        <ele>74</ele>
        <time>2022-05-03T08:43:54Z</time>
      </trkpt>
      <trkpt lat="47.24382" lon="-1.56627">
        <ele>74</ele>
        <time>2022-05-03T08:43:55Z</time>
      </trkpt>
      <trkpt lat="47.24382" lon="-1.56626">
        <ele>74</ele>
        <time>2022-05-03T08:43:56Z</time>
      </trkpt>
      <trkpt lat="47.24381" lon="-1.56624">
        <ele>74</ele>
        <time>2022-05-03T08:43:57Z</time>
      </trkpt>
      <trkpt lat="47.24381" lon="-1.56622">
        <ele>74</ele>
        <time>2022-05-03T08:43:58Z</time>
      </trkpt>
      <trkpt lat="47.24381" lon="-1.5662">
        <ele>74</ele>
        <time>2022-05-03T08:43:59Z</time>
      </trkpt>
      <trkpt lat="47.24381" lon="-1.56617">
        <ele>75</ele>
        <time>2022-05-03T08:44:00Z</time>
      </trkpt>
      <trkpt lat="47.24381" lon="-1.56616">
        <ele>75</ele>
        <time>2022-05-03T08:44:01Z</time>
      </trkpt>
      <trkpt lat="47.2438" lon="-1.56613">
        <ele>75</ele>
        <time>2022-05-03T08:44:02Z</time>
      </trkpt>
      <trkpt lat="47.2438" lon="-1.56611">
        <ele>75</ele>
        <time>2022-05-03T08:44:03Z</time>
      </trkpt>
      <trkpt lat="47.2438" lon="-1.56609">
        <ele>75</ele>
        <time>2022-05-03T08:44:04Z</time>
      </trkpt>
      <trkpt lat="47.24379" lon="-1.56607">
        <ele>75</ele>
        <time>2022-05-03T08:44:05Z</time>
      </trkpt>
      <trkpt lat="47.24379" lon="-1.56605">
        <ele>74</ele>
        <time>2022-05-03T08:44:06Z</time>
      </trkpt>
      <trkpt lat="47.24379" lon="-1.56602">
        <ele>74</ele>
        <time>2022-05-03T08:44:07Z</time>
      </trkpt>
      <trkpt lat="47.24379" lon="-1.566">
        <ele>74</ele>
        <time>2022-05-03T08:44:08Z</time>
      </trkpt>
      <trkpt lat="47.24379" lon="-1.56598">
        <ele>74</ele>
        <time>2022-05-03T08:44:09Z</time>
      </trkpt>
      <trkpt lat="47.24379" lon="-1.56596">
        <ele>74</ele>
        <time>2022-05-03T08:44:10Z</time>
      </trkpt>
      <trkpt lat="47.24379" lon="-1.56593">
        <ele>74</ele>
        <time>2022-05-03T08:44:11Z</time>
      </trkpt>
      <trkpt lat="47.24379" lon="-1.56591">
        <ele>73</ele>
        <time>2022-05-03T08:44:12Z</time>
      </trkpt>
      <trkpt lat="47.24379" lon="-1.56589">
        <ele>73</ele>
        <time>2022-05-03T08:44:13Z</time>
      </trkpt>
      <trkpt lat="47.24379" lon="-1.56587">
        <ele>73</ele>
        <time>2022-05-03T08:44:14Z</time>
      </trkpt>
      <trkpt lat="47.2438" lon="-1.56585">
        <ele>72</ele>
        <time>2022-05-03T08:44:15Z</time>
      </trkpt>
      <trkpt lat="47.2438" lon="-1.56583">
        <ele>72</ele>
        <time>2022-05-03T08:44:16Z</time>
      </trkpt>
      <trkpt lat="47.2438" lon="-1.56581">
        <ele>72</ele>
        <time>2022-05-03T08:44:17Z</time>
      </trkpt>
      <trkpt lat="47.2438" lon="-1.5658">
        <ele>72</ele>
        <time>2022-05-03T08:44:18Z</time>
      </trkpt>
      <trkpt lat="47.2438" lon="-1.56578">
        <ele>72</ele>
        <time>2022-05-03T08:44:19Z</time>
      </trkpt>
      <trkpt lat="47.24381" lon="-1.56576">
        <ele>71</ele>
        <time>2022-05-03T08:44:20Z</time>
      </trkpt>
      <trkpt lat="47.24381" lon="-1.56574">
        <ele>72</ele>
        <time>2022-05-03T08:44:21Z</time>
      </trkpt>
      <trkpt lat="47.24381" lon="-1.56572">
        <ele>71</ele>
        <time>2022-05-03T08:44:22Z</time>
      </trkpt>
      <trkpt lat="47.24381" lon="-1.5657">
        <ele>71</ele>
        <time>2022-05-03T08:44:23Z</time>
      </trkpt>
      <trkpt lat="47.24381" lon="-1.56568">
        <ele>71</ele>
        <time>2022-05-03T08:44:24Z</time>
      </trkpt>
      <trkpt lat="47.24382" lon="-1.56565">
        <ele>71</ele>
        <time>2022-05-03T08:44:25Z</time>
      </trkpt>
      <trkpt lat="47.24383" lon="-1.56562">
        <ele>70</ele>
        <time>2022-05-03T08:44:26Z</time>
      </trkpt>
      <trkpt lat="47.24383" lon="-1.5656">
        <ele>70</ele>
        <time>2022-05-03T08:44:27Z</time>
      </trkpt>
      <trkpt lat="47.24384" lon="-1.56558">
        <ele>69</ele>
        <time>2022-05-03T08:44:28Z</time>
      </trkpt>
      <trkpt lat="47.24383" lon="-1.56556">
        <ele>69</ele>
        <time>2022-05-03T08:44:29Z</time>
      </trkpt>
      <trkpt lat="47.24383" lon="-1.56555">
        <ele>69</ele>
        <time>2022-05-03T08:44:30Z</time>
      </trkpt>
      <trkpt lat="47.24384" lon="-1.56553">
        <ele>69</ele>
        <time>2022-05-03T08:44:31Z</time>
      </trkpt>
      <trkpt lat="47.24384" lon="-1.56551">
        <ele>69</ele>
        <time>2022-05-03T08:44:32Z</time>
      </trkpt>
      <trkpt lat="47.24385" lon="-1.5655">
        <ele>70</ele>
        <time>2022-05-03T08:44:33Z</time>
      </trkpt>
      <trkpt lat="47.24386" lon="-1.56548">
        <ele>70</ele>
        <time>2022-05-03T08:44:34Z</time>
      </trkpt>
      <trkpt lat="47.24386" lon="-1.56547">
        <ele>70</ele>
        <time>2022-05-03T08:44:35Z</time>
      </trkpt>
      <trkpt lat="47.24387" lon="-1.56545">
        <ele>69</ele>
        <time>2022-05-03T08:44:36Z</time>
      </trkpt>
      <trkpt lat="47.24387" lon="-1.56543">
        <ele>69</ele>
        <time>2022-05-03T08:44:37Z</time>
      </trkpt>
      <trkpt lat="47.24387" lon="-1.56541">
        <ele>69</ele>
        <time>2022-05-03T08:44:38Z</time>
      </trkpt>
      <trkpt lat="47.24388" lon="-1.5654">
        <ele>69</ele>
        <time>2022-05-03T08:44:39Z</time>
      </trkpt>
      <trkpt lat="47.24388" lon="-1.56539">
        <ele>69</ele>
        <time>2022-05-03T08:44:40Z</time>
      </trkpt>
      <trkpt lat="47.24388" lon="-1.56537">
        <ele>68</ele>
        <time>2022-05-03T08:44:41Z</time>
      </trkpt>
      <trkpt lat="47.24389" lon="-1.56536">
        <ele>68</ele>
        <time>2022-05-03T08:44:42Z</time>
      </trkpt>
      <trkpt lat="47.24389" lon="-1.56534">
        <ele>68</ele>
        <time>2022-05-03T08:44:43Z</time>
      </trkpt>
      <trkpt lat="47.2439" lon="-1.56533">
        <ele>68</ele>
        <time>2022-05-03T08:44:44Z</time>
      </trkpt>
      <trkpt lat="47.2439" lon="-1.56531">
        <ele>68</ele>
        <time>2022-05-03T08:44:45Z</time>
      </trkpt>
      <trkpt lat="47.24391" lon="-1.56529">
        <ele>68</ele>
        <time>2022-05-03T08:44:46Z</time>
      </trkpt>
      <trkpt lat="47.24392" lon="-1.56528">
        <ele>68</ele>
        <time>2022-05-03T08:44:47Z</time>
      </trkpt>
      <trkpt lat="47.24392" lon="-1.56527">
        <ele>68</ele>
        <time>2022-05-03T08:44:48Z</time>
      </trkpt>
      <trkpt lat="47.24393" lon="-1.56525">
        <ele>69</ele>
        <time>2022-05-03T08:44:49Z</time>
      </trkpt>
      <trkpt lat="47.24393" lon="-1.56523">
        <ele>68</ele>
        <time>2022-05-03T08:44:50Z</time>
      </trkpt>
      <trkpt lat="47.24394" lon="-1.56521">
        <ele>68</ele>
        <time>2022-05-03T08:44:51Z</time>
      </trkpt>
      <trkpt lat="47.24395" lon="-1.56519">
        <ele>68</ele>
        <time>2022-05-03T08:44:52Z</time>
      </trkpt>
      <trkpt lat="47.24395" lon="-1.56516">
        <ele>68</ele>
        <time>2022-05-03T08:44:53Z</time>
      </trkpt>
      <trkpt lat="47.24396" lon="-1.56515">
        <ele>69</ele>
        <time>2022-05-03T08:44:54Z</time>
      </trkpt>
      <trkpt lat="47.24397" lon="-1.56514">
        <ele>69</ele>
        <time>2022-05-03T08:44:55Z</time>
      </trkpt>
      <trkpt lat="47.24397" lon="-1.56512">
        <ele>69</ele>
        <time>2022-05-03T08:44:56Z</time>
      </trkpt>
      <trkpt lat="47.24398" lon="-1.56511">
        <ele>69</ele>
        <time>2022-05-03T08:44:57Z</time>
      </trkpt>
      <trkpt lat="47.244" lon="-1.5651">
        <ele>69</ele>
        <time>2022-05-03T08:44:58Z</time>
      </trkpt>
      <trkpt lat="47.244" lon="-1.56509">
        <ele>69</ele>
        <time>2022-05-03T08:44:59Z</time>
      </trkpt>
      <trkpt lat="47.24402" lon="-1.56508">
        <ele>69</ele>
        <time>2022-05-03T08:45:00Z</time>
      </trkpt>
      <trkpt lat="47.24403" lon="-1.56507">
        <ele>69</ele>
        <time>2022-05-03T08:45:01Z</time>
      </trkpt>
      <trkpt lat="47.24403" lon="-1.56505">
        <ele>69</ele>
        <time>2022-05-03T08:45:02Z</time>
      </trkpt>
      <trkpt lat="47.24404" lon="-1.56504">
        <ele>68</ele>
        <time>2022-05-03T08:45:03Z</time>
      </trkpt>
      <trkpt lat="47.24405" lon="-1.56503">
        <ele>68</ele>
        <time>2022-05-03T08:45:04Z</time>
      </trkpt>
      <trkpt lat="47.24407" lon="-1.56502">
        <ele>67</ele>
        <time>2022-05-03T08:45:05Z</time>
      </trkpt>
      <trkpt lat="47.24409" lon="-1.565">
        <ele>67</ele>
        <time>2022-05-03T08:45:06Z</time>
      </trkpt>
      <trkpt lat="47.2441" lon="-1.56498">
        <ele>67</ele>
        <time>2022-05-03T08:45:07Z</time>
      </trkpt>
      <trkpt lat="47.24411" lon="-1.56497">
        <ele>67</ele>
        <time>2022-05-03T08:45:08Z</time>
      </trkpt>
      <trkpt lat="47.24412" lon="-1.56496">
        <ele>67</ele>
        <time>2022-05-03T08:45:09Z</time>
      </trkpt>
      <trkpt lat="47.24413" lon="-1.56495">
        <ele>67</ele>
        <time>2022-05-03T08:45:10Z</time>
      </trkpt>
      <trkpt lat="47.24414" lon="-1.56495">
        <ele>67</ele>
        <time>2022-05-03T08:45:11Z</time>
      </trkpt>
      <trkpt lat="47.24414" lon="-1.56495">
        <ele>66</ele>
        <time>2022-05-03T08:45:12Z</time>
      </trkpt>
      <trkpt lat="47.24415" lon="-1.56494">
        <ele>66</ele>
        <time>2022-05-03T08:45:13Z</time>
      </trkpt>
      <trkpt lat="47.24416" lon="-1.56494">
        <ele>66</ele>
        <time>2022-05-03T08:45:14Z</time>
      </trkpt>
      <trkpt lat="47.24418" lon="-1.56494">
        <ele>66</ele>
        <time>2022-05-03T08:45:15Z</time>
      </trkpt>
      <trkpt lat="47.24419" lon="-1.56493">
        <ele>66</ele>
        <time>2022-05-03T08:45:16Z</time>
      </trkpt>
      <trkpt lat="47.24421" lon="-1.56493">
        <ele>67</ele>
        <time>2022-05-03T08:45:17Z</time>
      </trkpt>
      <trkpt lat="47.24422" lon="-1.56492">
        <ele>67</ele>
        <time>2022-05-03T08:45:18Z</time>
      </trkpt>
      <trkpt lat="47.24424" lon="-1.56491">
        <ele>66</ele>
        <time>2022-05-03T08:45:19Z</time>
      </trkpt>
      <trkpt lat="47.24426" lon="-1.5649">
        <ele>66</ele>
        <time>2022-05-03T08:45:20Z</time>
      </trkpt>
      <trkpt lat="47.24427" lon="-1.56491">
        <ele>66</ele>
        <time>2022-05-03T08:45:21Z</time>
      </trkpt>
      <trkpt lat="47.24429" lon="-1.56491">
        <ele>66</ele>
        <time>2022-05-03T08:45:22Z</time>
      </trkpt>
      <trkpt lat="47.24431" lon="-1.56491">
        <ele>65</ele>
        <time>2022-05-03T08:45:23Z</time>
      </trkpt>
      <trkpt lat="47.24432" lon="-1.56491">
        <ele>65</ele>
        <time>2022-05-03T08:45:24Z</time>
      </trkpt>
      <trkpt lat="47.24433" lon="-1.56491">
        <ele>65</ele>
        <time>2022-05-03T08:45:25Z</time>
      </trkpt>
      <trkpt lat="47.24434" lon="-1.56491">
        <ele>65</ele>
        <time>2022-05-03T08:45:26Z</time>
      </trkpt>
      <trkpt lat="47.24435" lon="-1.56492">
        <ele>64</ele>
        <time>2022-05-03T08:45:27Z</time>
      </trkpt>
      <trkpt lat="47.24437" lon="-1.56492">
        <ele>65</ele>
        <time>2022-05-03T08:45:28Z</time>
      </trkpt>
      <trkpt lat="47.24438" lon="-1.56492">
        <ele>65</ele>
        <time>2022-05-03T08:45:29Z</time>
      </trkpt>
      <trkpt lat="47.24439" lon="-1.56493">
        <ele>65</ele>
        <time>2022-05-03T08:45:30Z</time>
      </trkpt>
      <trkpt lat="47.2444" lon="-1.56494">
        <ele>65</ele>
        <time>2022-05-03T08:45:31Z</time>
      </trkpt>
      <trkpt lat="47.24441" lon="-1.56494">
        <ele>65</ele>
        <time>2022-05-03T08:45:32Z</time>
      </trkpt>
      <trkpt lat="47.24442" lon="-1.56495">
        <ele>65</ele>
        <time>2022-05-03T08:45:33Z</time>
      </trkpt>
      <trkpt lat="47.24443" lon="-1.56496">
        <ele>65</ele>
        <time>2022-05-03T08:45:34Z</time>
      </trkpt>
      <trkpt lat="47.24443" lon="-1.56496">
        <ele>65</ele>
        <time>2022-05-03T08:45:35Z</time>
      </trkpt>
      <trkpt lat="47.24445" lon="-1.56496">
        <ele>66</ele>
        <time>2022-05-03T08:45:36Z</time>
      </trkpt>
      <trkpt lat="47.24446" lon="-1.56496">
        <ele>66</ele>
        <time>2022-05-03T08:45:37Z</time>
      </trkpt>
      <trkpt lat="47.24447" lon="-1.56497">
        <ele>66</ele>
        <time>2022-05-03T08:45:38Z</time>
      </trkpt>
      <trkpt lat="47.24448" lon="-1.56498">
        <ele>66</ele>
        <time>2022-05-03T08:45:39Z</time>
      </trkpt>
      <trkpt lat="47.2445" lon="-1.56498">
        <ele>66</ele>
        <time>2022-05-03T08:45:40Z</time>
      </trkpt>
      <trkpt lat="47.24451" lon="-1.56498">
        <ele>66</ele>
        <time>2022-05-03T08:45:41Z</time>
      </trkpt>
      <trkpt lat="47.24452" lon="-1.56499">
        <ele>66</ele>
        <time>2022-05-03T08:45:42Z</time>
      </trkpt>
      <trkpt lat="47.24453" lon="-1.56499">
        <ele>66</ele>
        <time>2022-05-03T08:45:43Z</time>
      </trkpt>
      <trkpt lat="47.24454" lon="-1.565">
        <ele>66</ele>
        <time>2022-05-03T08:45:44Z</time>
      </trkpt>
      <trkpt lat="47.24455" lon="-1.565">
        <ele>66</ele>
        <time>2022-05-03T08:45:45Z</time>
      </trkpt>
      <trkpt lat="47.24457" lon="-1.56501">
        <ele>66</ele>
        <time>2022-05-03T08:45:46Z</time>
      </trkpt>
      <trkpt lat="47.24458" lon="-1.56501">
        <ele>66</ele>
        <time>2022-05-03T08:45:47Z</time>
      </trkpt>
      <trkpt lat="47.24458" lon="-1.56502">
        <ele>66</ele>
        <time>2022-05-03T08:45:48Z</time>
      </trkpt>
      <trkpt lat="47.24459" lon="-1.56503">
        <ele>66</ele>
        <time>2022-05-03T08:45:49Z</time>
      </trkpt>
      <trkpt lat="47.2446" lon="-1.56503">
        <ele>66</ele>
        <time>2022-05-03T08:45:50Z</time>
      </trkpt>
      <trkpt lat="47.24461" lon="-1.56504">
        <ele>66</ele>
        <time>2022-05-03T08:45:51Z</time>
      </trkpt>
      <trkpt lat="47.24461" lon="-1.56504">
        <ele>67</ele>
        <time>2022-05-03T08:45:52Z</time>
      </trkpt>
      <trkpt lat="47.24461" lon="-1.56504">
        <ele>66</ele>
        <time>2022-05-03T08:45:53Z</time>
      </trkpt>
      <trkpt lat="47.24463" lon="-1.56505">
        <ele>66</ele>
        <time>2022-05-03T08:45:54Z</time>
      </trkpt>
      <trkpt lat="47.24463" lon="-1.56503">
        <ele>66</ele>
        <time>2022-05-03T08:45:55Z</time>
      </trkpt>
      <trkpt lat="47.24464" lon="-1.56503">
        <ele>66</ele>
        <time>2022-05-03T08:45:56Z</time>
      </trkpt>
      <trkpt lat="47.24464" lon="-1.56502">
        <ele>65</ele>
        <time>2022-05-03T08:45:57Z</time>
      </trkpt>
      <trkpt lat="47.24464" lon="-1.56501">
        <ele>66</ele>
        <time>2022-05-03T08:45:58Z</time>
      </trkpt>
      <trkpt lat="47.24464" lon="-1.56501">
        <ele>66</ele>
        <time>2022-05-03T08:45:59Z</time>
      </trkpt>
      <trkpt lat="47.24464" lon="-1.565">
        <ele>65</ele>
        <time>2022-05-03T08:46:00Z</time>
      </trkpt>
      <trkpt lat="47.24464" lon="-1.565">
        <ele>65</ele>
        <time>2022-05-03T08:46:01Z</time>
      </trkpt>
      <trkpt lat="47.24464" lon="-1.565">
        <ele>65</ele>
        <time>2022-05-03T08:46:02Z</time>
      </trkpt>
      <trkpt lat="47.24465" lon="-1.56501">
        <ele>65</ele>
        <time>2022-05-03T08:46:03Z</time>
      </trkpt>
      <trkpt lat="47.24465" lon="-1.565">
        <ele>65</ele>
        <time>2022-05-03T08:46:04Z</time>
      </trkpt>
      <trkpt lat="47.24465" lon="-1.565">
        <ele>65</ele>
        <time>2022-05-03T08:46:05Z</time>
      </trkpt>
      <trkpt lat="47.24465" lon="-1.565">
        <ele>65</ele>
        <time>2022-05-03T08:46:05Z</time>
      </trkpt>
      <trkpt lat="47.24464" lon="-1.56497">
        <ele>66</ele>
        <time>2022-05-03T08:46:11Z</time>
      </trkpt>
      <trkpt lat="47.24464" lon="-1.56497">
        <ele>66</ele>
        <time>2022-05-03T08:46:12Z</time>
      </trkpt>
      <trkpt lat="47.24464" lon="-1.56497">
        <ele>66</ele>
        <time>2022-05-03T08:46:13Z</time>
      </trkpt>
      <trkpt lat="47.24464" lon="-1.56497">
        <ele>66</ele>
        <time>2022-05-03T08:46:14Z</time>
      </trkpt>
      <trkpt lat="47.24464" lon="-1.56497">
        <ele>66</ele>
        <time>2022-05-03T08:46:15Z</time>
      </trkpt>
      <trkpt lat="47.24464" lon="-1.56497">
        <ele>66</ele>
        <time>2022-05-03T08:46:16Z</time>
      </trkpt>
      <trkpt lat="47.24464" lon="-1.56494">
        <ele>65</ele>
        <time>2022-05-03T08:46:17Z</time>
      </trkpt>
      <trkpt lat="47.24464" lon="-1.56494">
        <ele>65</ele>
        <time>2022-05-03T08:46:17Z</time>
      </trkpt>
      <trkpt lat="47.24464" lon="-1.56494">
        <ele>65</ele>
        <time>2022-05-03T08:46:17Z</time>
      </trkpt>
      <trkpt lat="47.24463" lon="-1.56489">
        <ele>66</ele>
        <time>2022-05-03T08:46:23Z</time>
      </trkpt>
      <trkpt lat="47.24463" lon="-1.56489">
        <ele>66</ele>
        <time>2022-05-03T08:46:24Z</time>
      </trkpt>
      <trkpt lat="47.24463" lon="-1.56489">
        <ele>66</ele>
        <time>2022-05-03T08:46:25Z</time>
      </trkpt>
      <trkpt lat="47.24461" lon="-1.56487">
        <ele>65</ele>
        <time>2022-05-03T08:46:26Z</time>
      </trkpt>
      <trkpt lat="47.2446" lon="-1.56486">
        <ele>65</ele>
        <time>2022-05-03T08:46:27Z</time>
      </trkpt>
      <trkpt lat="47.2446" lon="-1.56486">
        <ele>65</ele>
        <time>2022-05-03T08:46:28Z</time>
      </trkpt>
      <trkpt lat="47.24459" lon="-1.56484">
        <ele>65</ele>
        <time>2022-05-03T08:46:29Z</time>
      </trkpt>
      <trkpt lat="47.24459" lon="-1.56483">
        <ele>65</ele>
        <time>2022-05-03T08:46:30Z</time>
      </trkpt>
      <trkpt lat="47.24459" lon="-1.56482">
        <ele>66</ele>
        <time>2022-05-03T08:46:31Z</time>
      </trkpt>
      <trkpt lat="47.24459" lon="-1.5648">
        <ele>66</ele>
        <time>2022-05-03T08:46:32Z</time>
      </trkpt>
      <trkpt lat="47.24459" lon="-1.56479">
        <ele>67</ele>
        <time>2022-05-03T08:46:33Z</time>
      </trkpt>
      <trkpt lat="47.24458" lon="-1.56478">
        <ele>66</ele>
        <time>2022-05-03T08:46:34Z</time>
      </trkpt>
      <trkpt lat="47.24458" lon="-1.56476">
        <ele>66</ele>
        <time>2022-05-03T08:46:35Z</time>
      </trkpt>
      <trkpt lat="47.24458" lon="-1.56475">
        <ele>66</ele>
        <time>2022-05-03T08:46:36Z</time>
      </trkpt>
      <trkpt lat="47.24458" lon="-1.56474">
        <ele>66</ele>
        <time>2022-05-03T08:46:37Z</time>
      </trkpt>
      <trkpt lat="47.24457" lon="-1.56473">
        <ele>66</ele>
        <time>2022-05-03T08:46:38Z</time>
      </trkpt>
      <trkpt lat="47.24456" lon="-1.56472">
        <ele>67</ele>
        <time>2022-05-03T08:46:39Z</time>
      </trkpt>
      <trkpt lat="47.24456" lon="-1.5647">
        <ele>67</ele>
        <time>2022-05-03T08:46:40Z</time>
      </trkpt>
      <trkpt lat="47.24456" lon="-1.5647">
        <ele>67</ele>
        <time>2022-05-03T08:46:41Z</time>
      </trkpt>
      <trkpt lat="47.24456" lon="-1.56467">
        <ele>68</ele>
        <time>2022-05-03T08:46:42Z</time>
      </trkpt>
      <trkpt lat="47.24456" lon="-1.56466">
        <ele>68</ele>
        <time>2022-05-03T08:46:43Z</time>
      </trkpt>
      <trkpt lat="47.24456" lon="-1.56464">
        <ele>68</ele>
        <time>2022-05-03T08:46:44Z</time>
      </trkpt>
      <trkpt lat="47.24456" lon="-1.56462">
        <ele>69</ele>
        <time>2022-05-03T08:46:45Z</time>
      </trkpt>
      <trkpt lat="47.24456" lon="-1.5646">
        <ele>69</ele>
        <time>2022-05-03T08:46:46Z</time>
      </trkpt>
      <trkpt lat="47.24456" lon="-1.56459">
        <ele>69</ele>
        <time>2022-05-03T08:46:47Z</time>
      </trkpt>
      <trkpt lat="47.24455" lon="-1.56457">
        <ele>69</ele>
        <time>2022-05-03T08:46:48Z</time>
      </trkpt>
      <trkpt lat="47.24455" lon="-1.56455">
        <ele>70</ele>
        <time>2022-05-03T08:46:49Z</time>
      </trkpt>
      <trkpt lat="47.24455" lon="-1.56454">
        <ele>70</ele>
        <time>2022-05-03T08:46:50Z</time>
      </trkpt>
      <trkpt lat="47.24455" lon="-1.56452">
        <ele>70</ele>
        <time>2022-05-03T08:46:51Z</time>
      </trkpt>
      <trkpt lat="47.24455" lon="-1.5645">
        <ele>71</ele>
        <time>2022-05-03T08:46:52Z</time>
      </trkpt>
      <trkpt lat="47.24455" lon="-1.56449">
        <ele>71</ele>
        <time>2022-05-03T08:46:53Z</time>
      </trkpt>
      <trkpt lat="47.24455" lon="-1.56447">
        <ele>71</ele>
        <time>2022-05-03T08:46:54Z</time>
      </trkpt>
      <trkpt lat="47.24455" lon="-1.56445">
        <ele>71</ele>
        <time>2022-05-03T08:46:55Z</time>
      </trkpt>
      <trkpt lat="47.24455" lon="-1.56445">
        <ele>71</ele>
        <time>2022-05-03T08:46:56Z</time>
      </trkpt>
      <trkpt lat="47.24455" lon="-1.56445">
        <ele>71</ele>
        <time>2022-05-03T08:46:57Z</time>
      </trkpt>
      <trkpt lat="47.24455" lon="-1.56441">
        <ele>72</ele>
        <time>2022-05-03T08:46:58Z</time>
      </trkpt>
      <trkpt lat="47.24455" lon="-1.5644">
        <ele>73</ele>
        <time>2022-05-03T08:46:59Z</time>
      </trkpt>
      <trkpt lat="47.24455" lon="-1.56438">
        <ele>73</ele>
        <time>2022-05-03T08:47:00Z</time>
      </trkpt>
      <trkpt lat="47.24455" lon="-1.56436">
        <ele>74</ele>
        <time>2022-05-03T08:47:01Z</time>
      </trkpt>
      <trkpt lat="47.24455" lon="-1.56434">
        <ele>74</ele>
        <time>2022-05-03T08:47:02Z</time>
      </trkpt>
      <trkpt lat="47.24455" lon="-1.56432">
        <ele>74</ele>
        <time>2022-05-03T08:47:03Z</time>
      </trkpt>
      <trkpt lat="47.24455" lon="-1.56432">
        <ele>74</ele>
        <time>2022-05-03T08:47:04Z</time>
      </trkpt>
      <trkpt lat="47.24456" lon="-1.5643">
        <ele>75</ele>
        <time>2022-05-03T08:47:05Z</time>
      </trkpt>
      <trkpt lat="47.24456" lon="-1.56428">
        <ele>76</ele>
        <time>2022-05-03T08:47:06Z</time>
      </trkpt>
      <trkpt lat="47.24456" lon="-1.56426">
        <ele>76</ele>
        <time>2022-05-03T08:47:07Z</time>
      </trkpt>
      <trkpt lat="47.24456" lon="-1.56425">
        <ele>75</ele>
        <time>2022-05-03T08:47:08Z</time>
      </trkpt>
      <trkpt lat="47.24456" lon="-1.56423">
        <ele>75</ele>
        <time>2022-05-03T08:47:09Z</time>
      </trkpt>
      <trkpt lat="47.24456" lon="-1.56422">
        <ele>76</ele>
        <time>2022-05-03T08:47:10Z</time>
      </trkpt>
      <trkpt lat="47.24457" lon="-1.56421">
        <ele>76</ele>
        <time>2022-05-03T08:47:11Z</time>
      </trkpt>
      <trkpt lat="47.24457" lon="-1.56419">
        <ele>76</ele>
        <time>2022-05-03T08:47:12Z</time>
      </trkpt>
      <trkpt lat="47.24458" lon="-1.56418">
        <ele>77</ele>
        <time>2022-05-03T08:47:13Z</time>
      </trkpt>
      <trkpt lat="47.24458" lon="-1.56416">
        <ele>77</ele>
        <time>2022-05-03T08:47:14Z</time>
      </trkpt>
      <trkpt lat="47.24459" lon="-1.56414">
        <ele>77</ele>
        <time>2022-05-03T08:47:15Z</time>
      </trkpt>
      <trkpt lat="47.2446" lon="-1.56413">
        <ele>77</ele>
        <time>2022-05-03T08:47:16Z</time>
      </trkpt>
      <trkpt lat="47.2446" lon="-1.56412">
        <ele>77</ele>
        <time>2022-05-03T08:47:17Z</time>
      </trkpt>
      <trkpt lat="47.2446" lon="-1.5641">
        <ele>77</ele>
        <time>2022-05-03T08:47:18Z</time>
      </trkpt>
      <trkpt lat="47.2446" lon="-1.5641">
        <ele>77</ele>
        <time>2022-05-03T08:47:19Z</time>
      </trkpt>
      <trkpt lat="47.2446" lon="-1.5641">
        <ele>77</ele>
        <time>2022-05-03T08:47:20Z</time>
      </trkpt>
      <trkpt lat="47.2446" lon="-1.56407">
        <ele>77</ele>
        <time>2022-05-03T08:47:21Z</time>
      </trkpt>
      <trkpt lat="47.2446" lon="-1.56405">
        <ele>77</ele>
        <time>2022-05-03T08:47:22Z</time>
      </trkpt>
      <trkpt lat="47.2446" lon="-1.56404">
        <ele>77</ele>
        <time>2022-05-03T08:47:23Z</time>
      </trkpt>
      <trkpt lat="47.24461" lon="-1.56402">
        <ele>78</ele>
        <time>2022-05-03T08:47:24Z</time>
      </trkpt>
      <trkpt lat="47.24461" lon="-1.564">
        <ele>79</ele>
        <time>2022-05-03T08:47:25Z</time>
      </trkpt>
      <trkpt lat="47.24461" lon="-1.56399">
        <ele>78</ele>
        <time>2022-05-03T08:47:26Z</time>
      </trkpt>
      <trkpt lat="47.24461" lon="-1.56398">
        <ele>80</ele>
        <time>2022-05-03T08:47:27Z</time>
      </trkpt>
      <trkpt lat="47.24462" lon="-1.56396">
        <ele>80</ele>
        <time>2022-05-03T08:47:28Z</time>
      </trkpt>
      <trkpt lat="47.24462" lon="-1.56394">
        <ele>81</ele>
        <time>2022-05-03T08:47:29Z</time>
      </trkpt>
      <trkpt lat="47.24463" lon="-1.56392">
        <ele>82</ele>
        <time>2022-05-03T08:47:30Z</time>
      </trkpt>
      <trkpt lat="47.24463" lon="-1.56391">
        <ele>82</ele>
        <time>2022-05-03T08:47:31Z</time>
      </trkpt>
      <trkpt lat="47.24463" lon="-1.56389">
        <ele>82</ele>
        <time>2022-05-03T08:47:32Z</time>
      </trkpt>
      <trkpt lat="47.24464" lon="-1.56388">
        <ele>81</ele>
        <time>2022-05-03T08:47:33Z</time>
      </trkpt>
      <trkpt lat="47.24464" lon="-1.56386">
        <ele>81</ele>
        <time>2022-05-03T08:47:34Z</time>
      </trkpt>
      <trkpt lat="47.24464" lon="-1.56386">
        <ele>81</ele>
        <time>2022-05-03T08:47:35Z</time>
      </trkpt>
      <trkpt lat="47.24464" lon="-1.56386">
        <ele>81</ele>
        <time>2022-05-03T08:47:36Z</time>
      </trkpt>
      <trkpt lat="47.24465" lon="-1.56382">
        <ele>82</ele>
        <time>2022-05-03T08:47:37Z</time>
      </trkpt>
      <trkpt lat="47.24465" lon="-1.56381">
        <ele>83</ele>
        <time>2022-05-03T08:47:38Z</time>
      </trkpt>
      <trkpt lat="47.24466" lon="-1.56379">
        <ele>83</ele>
        <time>2022-05-03T08:47:39Z</time>
      </trkpt>
      <trkpt lat="47.24466" lon="-1.56378">
        <ele>83</ele>
        <time>2022-05-03T08:47:40Z</time>
      </trkpt>
      <trkpt lat="47.24466" lon="-1.56378">
        <ele>83</ele>
        <time>2022-05-03T08:47:41Z</time>
      </trkpt>
      <trkpt lat="47.24466" lon="-1.56378">
        <ele>83</ele>
        <time>2022-05-03T08:47:42Z</time>
      </trkpt>
      <trkpt lat="47.24466" lon="-1.56375">
        <ele>83</ele>
        <time>2022-05-03T08:47:43Z</time>
      </trkpt>
      <trkpt lat="47.24467" lon="-1.56374">
        <ele>83</ele>
        <time>2022-05-03T08:47:44Z</time>
      </trkpt>
      <trkpt lat="47.24468" lon="-1.56373">
        <ele>83</ele>
        <time>2022-05-03T08:47:45Z</time>
      </trkpt>
      <trkpt lat="47.24468" lon="-1.56372">
        <ele>83</ele>
        <time>2022-05-03T08:47:46Z</time>
      </trkpt>
      <trkpt lat="47.24469" lon="-1.56371">
        <ele>84</ele>
        <time>2022-05-03T08:47:47Z</time>
      </trkpt>
      <trkpt lat="47.2447" lon="-1.5637">
        <ele>85</ele>
        <time>2022-05-03T08:47:48Z</time>
      </trkpt>
      <trkpt lat="47.24471" lon="-1.56368">
        <ele>85</ele>
        <time>2022-05-03T08:47:49Z</time>
      </trkpt>
      <trkpt lat="47.24471" lon="-1.56367">
        <ele>85</ele>
        <time>2022-05-03T08:47:50Z</time>
      </trkpt>
      <trkpt lat="47.24472" lon="-1.56366">
        <ele>85</ele>
        <time>2022-05-03T08:47:51Z</time>
      </trkpt>
      <trkpt lat="47.24472" lon="-1.56365">
        <ele>85</ele>
        <time>2022-05-03T08:47:52Z</time>
      </trkpt>
      <trkpt lat="47.24473" lon="-1.56363">
        <ele>85</ele>
        <time>2022-05-03T08:47:53Z</time>
      </trkpt>
      <trkpt lat="47.24474" lon="-1.56361">
        <ele>85</ele>
        <time>2022-05-03T08:47:54Z</time>
      </trkpt>
      <trkpt lat="47.24474" lon="-1.5636">
        <ele>85</ele>
        <time>2022-05-03T08:47:55Z</time>
      </trkpt>
      <trkpt lat="47.24475" lon="-1.56358">
        <ele>85</ele>
        <time>2022-05-03T08:47:56Z</time>
      </trkpt>
      <trkpt lat="47.24475" lon="-1.56356">
        <ele>84</ele>
        <time>2022-05-03T08:47:57Z</time>
      </trkpt>
      <trkpt lat="47.24476" lon="-1.56354">
        <ele>83</ele>
        <time>2022-05-03T08:47:58Z</time>
      </trkpt>
      <trkpt lat="47.24476" lon="-1.56353">
        <ele>82</ele>
        <time>2022-05-03T08:47:59Z</time>
      </trkpt>
      <trkpt lat="47.24476" lon="-1.56351">
        <ele>82</ele>
        <time>2022-05-03T08:48:00Z</time>
      </trkpt>
      <trkpt lat="47.24476" lon="-1.5635">
        <ele>82</ele>
        <time>2022-05-03T08:48:01Z</time>
      </trkpt>
      <trkpt lat="47.24477" lon="-1.56347">
        <ele>82</ele>
        <time>2022-05-03T08:48:02Z</time>
      </trkpt>
      <trkpt lat="47.24477" lon="-1.56345">
        <ele>82</ele>
        <time>2022-05-03T08:48:03Z</time>
      </trkpt>
      <trkpt lat="47.24477" lon="-1.56344">
        <ele>82</ele>
        <time>2022-05-03T08:48:04Z</time>
      </trkpt>
      <trkpt lat="47.24478" lon="-1.56342">
        <ele>82</ele>
        <time>2022-05-03T08:48:05Z</time>
      </trkpt>
      <trkpt lat="47.24478" lon="-1.5634">
        <ele>82</ele>
        <time>2022-05-03T08:48:06Z</time>
      </trkpt>
      <trkpt lat="47.24478" lon="-1.56338">
        <ele>83</ele>
        <time>2022-05-03T08:48:07Z</time>
      </trkpt>
      <trkpt lat="47.24478" lon="-1.56336">
        <ele>83</ele>
        <time>2022-05-03T08:48:08Z</time>
      </trkpt>
      <trkpt lat="47.24479" lon="-1.56335">
        <ele>83</ele>
        <time>2022-05-03T08:48:09Z</time>
      </trkpt>
      <trkpt lat="47.24479" lon="-1.56333">
        <ele>83</ele>
        <time>2022-05-03T08:48:10Z</time>
      </trkpt>
      <trkpt lat="47.24479" lon="-1.56331">
        <ele>83</ele>
        <time>2022-05-03T08:48:11Z</time>
      </trkpt>
      <trkpt lat="47.24479" lon="-1.5633">
        <ele>83</ele>
        <time>2022-05-03T08:48:12Z</time>
      </trkpt>
      <trkpt lat="47.24479" lon="-1.56328">
        <ele>83</ele>
        <time>2022-05-03T08:48:13Z</time>
      </trkpt>
      <trkpt lat="47.24479" lon="-1.56326">
        <ele>83</ele>
        <time>2022-05-03T08:48:14Z</time>
      </trkpt>
      <trkpt lat="47.24479" lon="-1.56324">
        <ele>83</ele>
        <time>2022-05-03T08:48:15Z</time>
      </trkpt>
      <trkpt lat="47.24479" lon="-1.56322">
        <ele>83</ele>
        <time>2022-05-03T08:48:16Z</time>
      </trkpt>
      <trkpt lat="47.24479" lon="-1.5632">
        <ele>82</ele>
        <time>2022-05-03T08:48:17Z</time>
      </trkpt>
      <trkpt lat="47.2448" lon="-1.56319">
        <ele>82</ele>
        <time>2022-05-03T08:48:18Z</time>
      </trkpt>
      <trkpt lat="47.2448" lon="-1.56317">
        <ele>82</ele>
        <time>2022-05-03T08:48:19Z</time>
      </trkpt>
      <trkpt lat="47.2448" lon="-1.56315">
        <ele>82</ele>
        <time>2022-05-03T08:48:20Z</time>
      </trkpt>
      <trkpt lat="47.24481" lon="-1.56313">
        <ele>82</ele>
        <time>2022-05-03T08:48:21Z</time>
      </trkpt>
      <trkpt lat="47.24482" lon="-1.56312">
        <ele>82</ele>
        <time>2022-05-03T08:48:22Z</time>
      </trkpt>
      <trkpt lat="47.24482" lon="-1.56311">
        <ele>82</ele>
        <time>2022-05-03T08:48:23Z</time>
      </trkpt>
      <trkpt lat="47.24482" lon="-1.56309">
        <ele>82</ele>
        <time>2022-05-03T08:48:24Z</time>
      </trkpt>
      <trkpt lat="47.24482" lon="-1.56307">
        <ele>83</ele>
        <time>2022-05-03T08:48:25Z</time>
      </trkpt>
      <trkpt lat="47.24483" lon="-1.56305">
        <ele>83</ele>
        <time>2022-05-03T08:48:26Z</time>
      </trkpt>
      <trkpt lat="47.24484" lon="-1.56303">
        <ele>84</ele>
        <time>2022-05-03T08:48:27Z</time>
      </trkpt>
      <trkpt lat="47.24484" lon="-1.56301">
        <ele>84</ele>
        <time>2022-05-03T08:48:28Z</time>
      </trkpt>
      <trkpt lat="47.24485" lon="-1.563">
        <ele>84</ele>
        <time>2022-05-03T08:48:29Z</time>
      </trkpt>
      <trkpt lat="47.24485" lon="-1.56298">
        <ele>84</ele>
        <time>2022-05-03T08:48:30Z</time>
      </trkpt>
      <trkpt lat="47.24485" lon="-1.56296">
        <ele>84</ele>
        <time>2022-05-03T08:48:31Z</time>
      </trkpt>
      <trkpt lat="47.24486" lon="-1.56294">
        <ele>85</ele>
        <time>2022-05-03T08:48:32Z</time>
      </trkpt>
      <trkpt lat="47.24486" lon="-1.56292">
        <ele>85</ele>
        <time>2022-05-03T08:48:33Z</time>
      </trkpt>
      <trkpt lat="47.24487" lon="-1.5629">
        <ele>85</ele>
        <time>2022-05-03T08:48:34Z</time>
      </trkpt>
      <trkpt lat="47.24487" lon="-1.56288">
        <ele>86</ele>
        <time>2022-05-03T08:48:35Z</time>
      </trkpt>
      <trkpt lat="47.24487" lon="-1.56286">
        <ele>86</ele>
        <time>2022-05-03T08:48:36Z</time>
      </trkpt>
      <trkpt lat="47.24487" lon="-1.56284">
        <ele>86</ele>
        <time>2022-05-03T08:48:37Z</time>
      </trkpt>
      <trkpt lat="47.24488" lon="-1.56282">
        <ele>86</ele>
        <time>2022-05-03T08:48:38Z</time>
      </trkpt>
      <trkpt lat="47.24488" lon="-1.5628">
        <ele>86</ele>
        <time>2022-05-03T08:48:39Z</time>
      </trkpt>
      <trkpt lat="47.24488" lon="-1.56279">
        <ele>86</ele>
        <time>2022-05-03T08:48:40Z</time>
      </trkpt>
      <trkpt lat="47.24488" lon="-1.56277">
        <ele>86</ele>
        <time>2022-05-03T08:48:41Z</time>
      </trkpt>
      <trkpt lat="47.24488" lon="-1.56275">
        <ele>86</ele>
        <time>2022-05-03T08:48:42Z</time>
      </trkpt>
      <trkpt lat="47.24489" lon="-1.56273">
        <ele>86</ele>
        <time>2022-05-03T08:48:43Z</time>
      </trkpt>
      <trkpt lat="47.24489" lon="-1.5627">
        <ele>86</ele>
        <time>2022-05-03T08:48:44Z</time>
      </trkpt>
      <trkpt lat="47.24489" lon="-1.56268">
        <ele>86</ele>
        <time>2022-05-03T08:48:45Z</time>
      </trkpt>
      <trkpt lat="47.24488" lon="-1.56266">
        <ele>86</ele>
        <time>2022-05-03T08:48:46Z</time>
      </trkpt>
      <trkpt lat="47.24488" lon="-1.56264">
        <ele>86</ele>
        <time>2022-05-03T08:48:47Z</time>
      </trkpt>
      <trkpt lat="47.24489" lon="-1.56261">
        <ele>86</ele>
        <time>2022-05-03T08:48:48Z</time>
      </trkpt>
      <trkpt lat="47.24489" lon="-1.56259">
        <ele>85</ele>
        <time>2022-05-03T08:48:49Z</time>
      </trkpt>
      <trkpt lat="47.24489" lon="-1.56257">
        <ele>85</ele>
        <time>2022-05-03T08:48:50Z</time>
      </trkpt>
      <trkpt lat="47.24489" lon="-1.56254">
        <ele>85</ele>
        <time>2022-05-03T08:48:51Z</time>
      </trkpt>
      <trkpt lat="47.24489" lon="-1.56251">
        <ele>85</ele>
        <time>2022-05-03T08:48:52Z</time>
      </trkpt>
      <trkpt lat="47.2449" lon="-1.56249">
        <ele>84</ele>
        <time>2022-05-03T08:48:53Z</time>
      </trkpt>
      <trkpt lat="47.2449" lon="-1.56247">
        <ele>84</ele>
        <time>2022-05-03T08:48:54Z</time>
      </trkpt>
      <trkpt lat="47.2449" lon="-1.56244">
        <ele>84</ele>
        <time>2022-05-03T08:48:55Z</time>
      </trkpt>
      <trkpt lat="47.2449" lon="-1.56242">
        <ele>84</ele>
        <time>2022-05-03T08:48:56Z</time>
      </trkpt>
      <trkpt lat="47.2449" lon="-1.56239">
        <ele>84</ele>
        <time>2022-05-03T08:48:57Z</time>
      </trkpt>
      <trkpt lat="47.2449" lon="-1.56236">
        <ele>83</ele>
        <time>2022-05-03T08:48:58Z</time>
      </trkpt>
      <trkpt lat="47.2449" lon="-1.56233">
        <ele>83</ele>
        <time>2022-05-03T08:48:59Z</time>
      </trkpt>
      <trkpt lat="47.2449" lon="-1.56231">
        <ele>83</ele>
        <time>2022-05-03T08:49:00Z</time>
      </trkpt>
      <trkpt lat="47.24489" lon="-1.56229">
        <ele>83</ele>
        <time>2022-05-03T08:49:01Z</time>
      </trkpt>
      <trkpt lat="47.24488" lon="-1.56228">
        <ele>84</ele>
        <time>2022-05-03T08:49:02Z</time>
      </trkpt>
      <trkpt lat="47.24488" lon="-1.56226">
        <ele>84</ele>
        <time>2022-05-03T08:49:03Z</time>
      </trkpt>
      <trkpt lat="47.24488" lon="-1.56225">
        <ele>84</ele>
        <time>2022-05-03T08:49:04Z</time>
      </trkpt>
      <trkpt lat="47.24488" lon="-1.56223">
        <ele>84</ele>
        <time>2022-05-03T08:49:05Z</time>
      </trkpt>
      <trkpt lat="47.24488" lon="-1.56221">
        <ele>83</ele>
        <time>2022-05-03T08:49:06Z</time>
      </trkpt>
      <trkpt lat="47.24488" lon="-1.56219">
        <ele>83</ele>
        <time>2022-05-03T08:49:07Z</time>
      </trkpt>
      <trkpt lat="47.24488" lon="-1.56217">
        <ele>83</ele>
        <time>2022-05-03T08:49:08Z</time>
      </trkpt>
      <trkpt lat="47.24488" lon="-1.56215">
        <ele>83</ele>
        <time>2022-05-03T08:49:09Z</time>
      </trkpt>
      <trkpt lat="47.24488" lon="-1.56213">
        <ele>83</ele>
        <time>2022-05-03T08:49:10Z</time>
      </trkpt>
      <trkpt lat="47.24488" lon="-1.56212">
        <ele>83</ele>
        <time>2022-05-03T08:49:11Z</time>
      </trkpt>
      <trkpt lat="47.24488" lon="-1.5621">
        <ele>83</ele>
        <time>2022-05-03T08:49:12Z</time>
      </trkpt>
      <trkpt lat="47.24488" lon="-1.56208">
        <ele>83</ele>
        <time>2022-05-03T08:49:13Z</time>
      </trkpt>
      <trkpt lat="47.24487" lon="-1.56206">
        <ele>83</ele>
        <time>2022-05-03T08:49:14Z</time>
      </trkpt>
      <trkpt lat="47.24487" lon="-1.56204">
        <ele>83</ele>
        <time>2022-05-03T08:49:15Z</time>
      </trkpt>
      <trkpt lat="47.24487" lon="-1.56202">
        <ele>83</ele>
        <time>2022-05-03T08:49:16Z</time>
      </trkpt>
      <trkpt lat="47.24486" lon="-1.562">
        <ele>83</ele>
        <time>2022-05-03T08:49:17Z</time>
      </trkpt>
      <trkpt lat="47.24485" lon="-1.56198">
        <ele>83</ele>
        <time>2022-05-03T08:49:18Z</time>
      </trkpt>
      <trkpt lat="47.24485" lon="-1.56196">
        <ele>83</ele>
        <time>2022-05-03T08:49:19Z</time>
      </trkpt>
      <trkpt lat="47.24485" lon="-1.56194">
        <ele>83</ele>
        <time>2022-05-03T08:49:20Z</time>
      </trkpt>
      <trkpt lat="47.24485" lon="-1.56192">
        <ele>83</ele>
        <time>2022-05-03T08:49:21Z</time>
      </trkpt>
      <trkpt lat="47.24485" lon="-1.5619">
        <ele>83</ele>
        <time>2022-05-03T08:49:22Z</time>
      </trkpt>
      <trkpt lat="47.24485" lon="-1.56188">
        <ele>83</ele>
        <time>2022-05-03T08:49:23Z</time>
      </trkpt>
      <trkpt lat="47.24484" lon="-1.56185">
        <ele>82</ele>
        <time>2022-05-03T08:49:24Z</time>
      </trkpt>
      <trkpt lat="47.24483" lon="-1.56184">
        <ele>82</ele>
        <time>2022-05-03T08:49:25Z</time>
      </trkpt>
      <trkpt lat="47.24483" lon="-1.56182">
        <ele>82</ele>
        <time>2022-05-03T08:49:26Z</time>
      </trkpt>
      <trkpt lat="47.24482" lon="-1.5618">
        <ele>82</ele>
        <time>2022-05-03T08:49:27Z</time>
      </trkpt>
      <trkpt lat="47.24482" lon="-1.56178">
        <ele>82</ele>
        <time>2022-05-03T08:49:28Z</time>
      </trkpt>
      <trkpt lat="47.24482" lon="-1.56176">
        <ele>82</ele>
        <time>2022-05-03T08:49:29Z</time>
      </trkpt>
      <trkpt lat="47.24481" lon="-1.56174">
        <ele>82</ele>
        <time>2022-05-03T08:49:30Z</time>
      </trkpt>
      <trkpt lat="47.24481" lon="-1.56172">
        <ele>82</ele>
        <time>2022-05-03T08:49:31Z</time>
      </trkpt>
      <trkpt lat="47.2448" lon="-1.5617">
        <ele>82</ele>
        <time>2022-05-03T08:49:32Z</time>
      </trkpt>
      <trkpt lat="47.2448" lon="-1.56168">
        <ele>82</ele>
        <time>2022-05-03T08:49:33Z</time>
      </trkpt>
      <trkpt lat="47.24479" lon="-1.56166">
        <ele>82</ele>
        <time>2022-05-03T08:49:34Z</time>
      </trkpt>
      <trkpt lat="47.24479" lon="-1.56163">
        <ele>82</ele>
        <time>2022-05-03T08:49:35Z</time>
      </trkpt>
      <trkpt lat="47.24479" lon="-1.56161">
        <ele>81</ele>
        <time>2022-05-03T08:49:36Z</time>
      </trkpt>
      <trkpt lat="47.24479" lon="-1.56159">
        <ele>81</ele>
        <time>2022-05-03T08:49:37Z</time>
      </trkpt>
      <trkpt lat="47.24478" lon="-1.56157">
        <ele>81</ele>
        <time>2022-05-03T08:49:38Z</time>
      </trkpt>
      <trkpt lat="47.24478" lon="-1.56156">
        <ele>81</ele>
        <time>2022-05-03T08:49:39Z</time>
      </trkpt>
      <trkpt lat="47.24477" lon="-1.56155">
        <ele>81</ele>
        <time>2022-05-03T08:49:40Z</time>
      </trkpt>
      <trkpt lat="47.24476" lon="-1.56153">
        <ele>81</ele>
        <time>2022-05-03T08:49:41Z</time>
      </trkpt>
      <trkpt lat="47.24475" lon="-1.56152">
        <ele>81</ele>
        <time>2022-05-03T08:49:42Z</time>
      </trkpt>
      <trkpt lat="47.24474" lon="-1.56151">
        <ele>81</ele>
        <time>2022-05-03T08:49:43Z</time>
      </trkpt>
      <trkpt lat="47.24473" lon="-1.5615">
        <ele>81</ele>
        <time>2022-05-03T08:49:44Z</time>
      </trkpt>
      <trkpt lat="47.24472" lon="-1.56148">
        <ele>81</ele>
        <time>2022-05-03T08:49:45Z</time>
      </trkpt>
      <trkpt lat="47.24472" lon="-1.56148">
        <ele>81</ele>
        <time>2022-05-03T08:49:46Z</time>
      </trkpt>
      <trkpt lat="47.24471" lon="-1.56147">
        <ele>79</ele>
        <time>2022-05-03T08:49:47Z</time>
      </trkpt>
      <trkpt lat="47.2447" lon="-1.56147">
        <ele>79</ele>
        <time>2022-05-03T08:49:48Z</time>
      </trkpt>
      <trkpt lat="47.2447" lon="-1.56147">
        <ele>79</ele>
        <time>2022-05-03T08:49:49Z</time>
      </trkpt>
      <trkpt lat="47.2447" lon="-1.56146">
        <ele>79</ele>
        <time>2022-05-03T08:49:50Z</time>
      </trkpt>
      <trkpt lat="47.2447" lon="-1.56145">
        <ele>79</ele>
        <time>2022-05-03T08:49:51Z</time>
      </trkpt>
      <trkpt lat="47.24469" lon="-1.56145">
        <ele>79</ele>
        <time>2022-05-03T08:49:52Z</time>
      </trkpt>
      <trkpt lat="47.24469" lon="-1.56144">
        <ele>79</ele>
        <time>2022-05-03T08:49:53Z</time>
      </trkpt>
      <trkpt lat="47.24469" lon="-1.56143">
        <ele>80</ele>
        <time>2022-05-03T08:49:54Z</time>
      </trkpt>
      <trkpt lat="47.2447" lon="-1.56141">
        <ele>80</ele>
        <time>2022-05-03T08:49:55Z</time>
      </trkpt>
      <trkpt lat="47.2447" lon="-1.5614">
        <ele>79</ele>
        <time>2022-05-03T08:49:56Z</time>
      </trkpt>
      <trkpt lat="47.24471" lon="-1.56139">
        <ele>79</ele>
        <time>2022-05-03T08:49:57Z</time>
      </trkpt>
      <trkpt lat="47.24472" lon="-1.56138">
        <ele>78</ele>
        <time>2022-05-03T08:49:58Z</time>
      </trkpt>
      <trkpt lat="47.24472" lon="-1.56137">
        <ele>78</ele>
        <time>2022-05-03T08:49:59Z</time>
      </trkpt>
      <trkpt lat="47.24473" lon="-1.56135">
        <ele>78</ele>
        <time>2022-05-03T08:50:00Z</time>
      </trkpt>
      <trkpt lat="47.24474" lon="-1.56134">
        <ele>78</ele>
        <time>2022-05-03T08:50:01Z</time>
      </trkpt>
      <trkpt lat="47.24474" lon="-1.56133">
        <ele>77</ele>
        <time>2022-05-03T08:50:02Z</time>
      </trkpt>
      <trkpt lat="47.24475" lon="-1.56132">
        <ele>77</ele>
        <time>2022-05-03T08:50:03Z</time>
      </trkpt>
      <trkpt lat="47.24476" lon="-1.56131">
        <ele>76</ele>
        <time>2022-05-03T08:50:04Z</time>
      </trkpt>
      <trkpt lat="47.24477" lon="-1.56131">
        <ele>77</ele>
        <time>2022-05-03T08:50:05Z</time>
      </trkpt>
      <trkpt lat="47.24479" lon="-1.5613">
        <ele>77</ele>
        <time>2022-05-03T08:50:06Z</time>
      </trkpt>
      <trkpt lat="47.2448" lon="-1.5613">
        <ele>77</ele>
        <time>2022-05-03T08:50:07Z</time>
      </trkpt>
      <trkpt lat="47.2448" lon="-1.5613">
        <ele>77</ele>
        <time>2022-05-03T08:50:08Z</time>
      </trkpt>
      <trkpt lat="47.24482" lon="-1.5613">
        <ele>77</ele>
        <time>2022-05-03T08:50:09Z</time>
      </trkpt>
      <trkpt lat="47.24482" lon="-1.5613">
        <ele>77</ele>
        <time>2022-05-03T08:50:10Z</time>
      </trkpt>
      <trkpt lat="47.24483" lon="-1.56129">
        <ele>78</ele>
        <time>2022-05-03T08:50:11Z</time>
      </trkpt>
      <trkpt lat="47.24484" lon="-1.56128">
        <ele>78</ele>
        <time>2022-05-03T08:50:12Z</time>
      </trkpt>
      <trkpt lat="47.24486" lon="-1.56127">
        <ele>78</ele>
        <time>2022-05-03T08:50:13Z</time>
      </trkpt>
      <trkpt lat="47.24487" lon="-1.56126">
        <ele>78</ele>
        <time>2022-05-03T08:50:14Z</time>
      </trkpt>
      <trkpt lat="47.24488" lon="-1.56125">
        <ele>78</ele>
        <time>2022-05-03T08:50:15Z</time>
      </trkpt>
      <trkpt lat="47.24489" lon="-1.56125">
        <ele>78</ele>
        <time>2022-05-03T08:50:16Z</time>
      </trkpt>
      <trkpt lat="47.24491" lon="-1.56124">
        <ele>77</ele>
        <time>2022-05-03T08:50:17Z</time>
      </trkpt>
      <trkpt lat="47.24492" lon="-1.56124">
        <ele>77</ele>
        <time>2022-05-03T08:50:18Z</time>
      </trkpt>
      <trkpt lat="47.24493" lon="-1.56124">
        <ele>77</ele>
        <time>2022-05-03T08:50:19Z</time>
      </trkpt>
      <trkpt lat="47.24494" lon="-1.56124">
        <ele>77</ele>
        <time>2022-05-03T08:50:20Z</time>
      </trkpt>
      <trkpt lat="47.24495" lon="-1.56124">
        <ele>77</ele>
        <time>2022-05-03T08:50:21Z</time>
      </trkpt>
      <trkpt lat="47.24496" lon="-1.56124">
        <ele>77</ele>
        <time>2022-05-03T08:50:22Z</time>
      </trkpt>
      <trkpt lat="47.24498" lon="-1.56124">
        <ele>77</ele>
        <time>2022-05-03T08:50:23Z</time>
      </trkpt>
      <trkpt lat="47.24499" lon="-1.56124">
        <ele>77</ele>
        <time>2022-05-03T08:50:24Z</time>
      </trkpt>
      <trkpt lat="47.245" lon="-1.56124">
        <ele>77</ele>
        <time>2022-05-03T08:50:25Z</time>
      </trkpt>
      <trkpt lat="47.24502" lon="-1.56124">
        <ele>77</ele>
        <time>2022-05-03T08:50:26Z</time>
      </trkpt>
      <trkpt lat="47.24503" lon="-1.56124">
        <ele>77</ele>
        <time>2022-05-03T08:50:27Z</time>
      </trkpt>
      <trkpt lat="47.24504" lon="-1.56124">
        <ele>77</ele>
        <time>2022-05-03T08:50:28Z</time>
      </trkpt>
      <trkpt lat="47.24506" lon="-1.56124">
        <ele>77</ele>
        <time>2022-05-03T08:50:29Z</time>
      </trkpt>
      <trkpt lat="47.24507" lon="-1.56124">
        <ele>78</ele>
        <time>2022-05-03T08:50:30Z</time>
      </trkpt>
      <trkpt lat="47.24508" lon="-1.56124">
        <ele>78</ele>
        <time>2022-05-03T08:50:31Z</time>
      </trkpt>
      <trkpt lat="47.24509" lon="-1.56124">
        <ele>78</ele>
        <time>2022-05-03T08:50:32Z</time>
      </trkpt>
      <trkpt lat="47.24511" lon="-1.56124">
        <ele>78</ele>
        <time>2022-05-03T08:50:33Z</time>
      </trkpt>
      <trkpt lat="47.24513" lon="-1.56124">
        <ele>78</ele>
        <time>2022-05-03T08:50:34Z</time>
      </trkpt>
      <trkpt lat="47.24514" lon="-1.56123">
        <ele>78</ele>
        <time>2022-05-03T08:50:35Z</time>
      </trkpt>
      <trkpt lat="47.24515" lon="-1.56123">
        <ele>78</ele>
        <time>2022-05-03T08:50:36Z</time>
      </trkpt>
      <trkpt lat="47.24516" lon="-1.56122">
        <ele>78</ele>
        <time>2022-05-03T08:50:37Z</time>
      </trkpt>
      <trkpt lat="47.24517" lon="-1.56122">
        <ele>78</ele>
        <time>2022-05-03T08:50:38Z</time>
      </trkpt>
      <trkpt lat="47.24519" lon="-1.56121">
        <ele>78</ele>
        <time>2022-05-03T08:50:39Z</time>
      </trkpt>
      <trkpt lat="47.2452" lon="-1.56121">
        <ele>78</ele>
        <time>2022-05-03T08:50:40Z</time>
      </trkpt>
      <trkpt lat="47.24522" lon="-1.5612">
        <ele>79</ele>
        <time>2022-05-03T08:50:41Z</time>
      </trkpt>
      <trkpt lat="47.24523" lon="-1.5612">
        <ele>78</ele>
        <time>2022-05-03T08:50:42Z</time>
      </trkpt>
      <trkpt lat="47.24524" lon="-1.56119">
        <ele>78</ele>
        <time>2022-05-03T08:50:43Z</time>
      </trkpt>
      <trkpt lat="47.24526" lon="-1.56119">
        <ele>78</ele>
        <time>2022-05-03T08:50:44Z</time>
      </trkpt>
      <trkpt lat="47.24527" lon="-1.56119">
        <ele>78</ele>
        <time>2022-05-03T08:50:45Z</time>
      </trkpt>
      <trkpt lat="47.24528" lon="-1.56119">
        <ele>79</ele>
        <time>2022-05-03T08:50:46Z</time>
      </trkpt>
      <trkpt lat="47.24529" lon="-1.56119">
        <ele>79</ele>
        <time>2022-05-03T08:50:47Z</time>
      </trkpt>
      <trkpt lat="47.2453" lon="-1.56119">
        <ele>79</ele>
        <time>2022-05-03T08:50:48Z</time>
      </trkpt>
      <trkpt lat="47.24531" lon="-1.56118">
        <ele>80</ele>
        <time>2022-05-03T08:50:49Z</time>
      </trkpt>
      <trkpt lat="47.24532" lon="-1.56118">
        <ele>80</ele>
        <time>2022-05-03T08:50:50Z</time>
      </trkpt>
      <trkpt lat="47.24534" lon="-1.56118">
        <ele>80</ele>
        <time>2022-05-03T08:50:51Z</time>
      </trkpt>
      <trkpt lat="47.24535" lon="-1.56118">
        <ele>81</ele>
        <time>2022-05-03T08:50:52Z</time>
      </trkpt>
      <trkpt lat="47.24536" lon="-1.56118">
        <ele>81</ele>
        <time>2022-05-03T08:50:53Z</time>
      </trkpt>
      <trkpt lat="47.24537" lon="-1.56118">
        <ele>81</ele>
        <time>2022-05-03T08:50:54Z</time>
      </trkpt>
      <trkpt lat="47.24538" lon="-1.56117">
        <ele>81</ele>
        <time>2022-05-03T08:50:55Z</time>
      </trkpt>
      <trkpt lat="47.24539" lon="-1.56117">
        <ele>80</ele>
        <time>2022-05-03T08:50:56Z</time>
      </trkpt>
      <trkpt lat="47.2454" lon="-1.56116">
        <ele>80</ele>
        <time>2022-05-03T08:50:57Z</time>
      </trkpt>
      <trkpt lat="47.24542" lon="-1.56115">
        <ele>79</ele>
        <time>2022-05-03T08:50:58Z</time>
      </trkpt>
      <trkpt lat="47.24543" lon="-1.56115">
        <ele>78</ele>
        <time>2022-05-03T08:50:59Z</time>
      </trkpt>
      <trkpt lat="47.24545" lon="-1.56114">
        <ele>78</ele>
        <time>2022-05-03T08:51:00Z</time>
      </trkpt>
      <trkpt lat="47.24546" lon="-1.56113">
        <ele>77</ele>
        <time>2022-05-03T08:51:01Z</time>
      </trkpt>
      <trkpt lat="47.24548" lon="-1.56113">
        <ele>77</ele>
        <time>2022-05-03T08:51:02Z</time>
      </trkpt>
      <trkpt lat="47.24549" lon="-1.56113">
        <ele>77</ele>
        <time>2022-05-03T08:51:03Z</time>
      </trkpt>
      <trkpt lat="47.24551" lon="-1.56113">
        <ele>77</ele>
        <time>2022-05-03T08:51:04Z</time>
      </trkpt>
      <trkpt lat="47.24552" lon="-1.56112">
        <ele>77</ele>
        <time>2022-05-03T08:51:05Z</time>
      </trkpt>
      <trkpt lat="47.24553" lon="-1.56112">
        <ele>77</ele>
        <time>2022-05-03T08:51:06Z</time>
      </trkpt>
      <trkpt lat="47.24554" lon="-1.56111">
        <ele>76</ele>
        <time>2022-05-03T08:51:07Z</time>
      </trkpt>
      <trkpt lat="47.24556" lon="-1.56111">
        <ele>77</ele>
        <time>2022-05-03T08:51:08Z</time>
      </trkpt>
      <trkpt lat="47.24557" lon="-1.5611">
        <ele>76</ele>
        <time>2022-05-03T08:51:09Z</time>
      </trkpt>
      <trkpt lat="47.24559" lon="-1.56109">
        <ele>75</ele>
        <time>2022-05-03T08:51:10Z</time>
      </trkpt>
      <trkpt lat="47.2456" lon="-1.56109">
        <ele>75</ele>
        <time>2022-05-03T08:51:11Z</time>
      </trkpt>
      <trkpt lat="47.24562" lon="-1.56109">
        <ele>75</ele>
        <time>2022-05-03T08:51:12Z</time>
      </trkpt>
      <trkpt lat="47.24563" lon="-1.56109">
        <ele>75</ele>
        <time>2022-05-03T08:51:13Z</time>
      </trkpt>
      <trkpt lat="47.24565" lon="-1.56108">
        <ele>74</ele>
        <time>2022-05-03T08:51:14Z</time>
      </trkpt>
      <trkpt lat="47.24566" lon="-1.56108">
        <ele>74</ele>
        <time>2022-05-03T08:51:15Z</time>
      </trkpt>
      <trkpt lat="47.24567" lon="-1.56108">
        <ele>74</ele>
        <time>2022-05-03T08:51:16Z</time>
      </trkpt>
      <trkpt lat="47.24569" lon="-1.56108">
        <ele>74</ele>
        <time>2022-05-03T08:51:17Z</time>
      </trkpt>
      <trkpt lat="47.2457" lon="-1.56107">
        <ele>73</ele>
        <time>2022-05-03T08:51:18Z</time>
      </trkpt>
      <trkpt lat="47.24571" lon="-1.56107">
        <ele>73</ele>
        <time>2022-05-03T08:51:19Z</time>
      </trkpt>
      <trkpt lat="47.24572" lon="-1.56107">
        <ele>73</ele>
        <time>2022-05-03T08:51:20Z</time>
      </trkpt>
      <trkpt lat="47.24574" lon="-1.56108">
        <ele>73</ele>
        <time>2022-05-03T08:51:21Z</time>
      </trkpt>
      <trkpt lat="47.24575" lon="-1.56108">
        <ele>73</ele>
        <time>2022-05-03T08:51:22Z</time>
      </trkpt>
      <trkpt lat="47.24576" lon="-1.56108">
        <ele>72</ele>
        <time>2022-05-03T08:51:23Z</time>
      </trkpt>
      <trkpt lat="47.24577" lon="-1.56109">
        <ele>72</ele>
        <time>2022-05-03T08:51:24Z</time>
      </trkpt>
      <trkpt lat="47.24579" lon="-1.56109">
        <ele>72</ele>
        <time>2022-05-03T08:51:25Z</time>
      </trkpt>
      <trkpt lat="47.2458" lon="-1.56109">
        <ele>72</ele>
        <time>2022-05-03T08:51:26Z</time>
      </trkpt>
      <trkpt lat="47.24582" lon="-1.56109">
        <ele>72</ele>
        <time>2022-05-03T08:51:27Z</time>
      </trkpt>
      <trkpt lat="47.24583" lon="-1.56109">
        <ele>72</ele>
        <time>2022-05-03T08:51:28Z</time>
      </trkpt>
      <trkpt lat="47.24584" lon="-1.56109">
        <ele>72</ele>
        <time>2022-05-03T08:51:29Z</time>
      </trkpt>
      <trkpt lat="47.24586" lon="-1.5611">
        <ele>71</ele>
        <time>2022-05-03T08:51:30Z</time>
      </trkpt>
      <trkpt lat="47.24587" lon="-1.5611">
        <ele>70</ele>
        <time>2022-05-03T08:51:31Z</time>
      </trkpt>
      <trkpt lat="47.24588" lon="-1.56111">
        <ele>70</ele>
        <time>2022-05-03T08:51:32Z</time>
      </trkpt>
      <trkpt lat="47.24589" lon="-1.56112">
        <ele>70</ele>
        <time>2022-05-03T08:51:33Z</time>
      </trkpt>
      <trkpt lat="47.2459" lon="-1.56113">
        <ele>70</ele>
        <time>2022-05-03T08:51:34Z</time>
      </trkpt>
      <trkpt lat="47.24592" lon="-1.56113">
        <ele>70</ele>
        <time>2022-05-03T08:51:35Z</time>
      </trkpt>
      <trkpt lat="47.24593" lon="-1.56114">
        <ele>70</ele>
        <time>2022-05-03T08:51:36Z</time>
      </trkpt>
      <trkpt lat="47.24594" lon="-1.56114">
        <ele>70</ele>
        <time>2022-05-03T08:51:37Z</time>
      </trkpt>
      <trkpt lat="47.24596" lon="-1.56115">
        <ele>70</ele>
        <time>2022-05-03T08:51:38Z</time>
      </trkpt>
      <trkpt lat="47.24597" lon="-1.56116">
        <ele>69</ele>
        <time>2022-05-03T08:51:39Z</time>
      </trkpt>
      <trkpt lat="47.24598" lon="-1.56117">
        <ele>69</ele>
        <time>2022-05-03T08:51:40Z</time>
      </trkpt>
      <trkpt lat="47.24599" lon="-1.56118">
        <ele>69</ele>
        <time>2022-05-03T08:51:41Z</time>
      </trkpt>
      <trkpt lat="47.246" lon="-1.56119">
        <ele>69</ele>
        <time>2022-05-03T08:51:42Z</time>
      </trkpt>
      <trkpt lat="47.24601" lon="-1.5612">
        <ele>69</ele>
        <time>2022-05-03T08:51:43Z</time>
      </trkpt>
      <trkpt lat="47.24603" lon="-1.56121">
        <ele>68</ele>
        <time>2022-05-03T08:51:44Z</time>
      </trkpt>
      <trkpt lat="47.24604" lon="-1.56123">
        <ele>68</ele>
        <time>2022-05-03T08:51:45Z</time>
      </trkpt>
      <trkpt lat="47.24605" lon="-1.56124">
        <ele>68</ele>
        <time>2022-05-03T08:51:46Z</time>
      </trkpt>
      <trkpt lat="47.24606" lon="-1.56126">
        <ele>68</ele>
        <time>2022-05-03T08:51:47Z</time>
      </trkpt>
      <trkpt lat="47.24608" lon="-1.56127">
        <ele>68</ele>
        <time>2022-05-03T08:51:48Z</time>
      </trkpt>
      <trkpt lat="47.24609" lon="-1.56128">
        <ele>67</ele>
        <time>2022-05-03T08:51:49Z</time>
      </trkpt>
      <trkpt lat="47.2461" lon="-1.5613">
        <ele>67</ele>
        <time>2022-05-03T08:51:50Z</time>
      </trkpt>
      <trkpt lat="47.24611" lon="-1.56131">
        <ele>67</ele>
        <time>2022-05-03T08:51:51Z</time>
      </trkpt>
      <trkpt lat="47.24612" lon="-1.56133">
        <ele>67</ele>
        <time>2022-05-03T08:51:52Z</time>
      </trkpt>
      <trkpt lat="47.24613" lon="-1.56134">
        <ele>67</ele>
        <time>2022-05-03T08:51:53Z</time>
      </trkpt>
      <trkpt lat="47.24614" lon="-1.56135">
        <ele>67</ele>
        <time>2022-05-03T08:51:54Z</time>
      </trkpt>
      <trkpt lat="47.24615" lon="-1.56137">
        <ele>67</ele>
        <time>2022-05-03T08:51:55Z</time>
      </trkpt>
      <trkpt lat="47.24616" lon="-1.56138">
        <ele>67</ele>
        <time>2022-05-03T08:51:56Z</time>
      </trkpt>
      <trkpt lat="47.24617" lon="-1.5614">
        <ele>67</ele>
        <time>2022-05-03T08:51:57Z</time>
      </trkpt>
      <trkpt lat="47.24618" lon="-1.56141">
        <ele>66</ele>
        <time>2022-05-03T08:51:58Z</time>
      </trkpt>
      <trkpt lat="47.24619" lon="-1.56143">
        <ele>67</ele>
        <time>2022-05-03T08:51:59Z</time>
      </trkpt>
      <trkpt lat="47.2462" lon="-1.56145">
        <ele>66</ele>
        <time>2022-05-03T08:52:00Z</time>
      </trkpt>
      <trkpt lat="47.24621" lon="-1.56146">
        <ele>66</ele>
        <time>2022-05-03T08:52:01Z</time>
      </trkpt>
      <trkpt lat="47.24622" lon="-1.56148">
        <ele>66</ele>
        <time>2022-05-03T08:52:02Z</time>
      </trkpt>
      <trkpt lat="47.24623" lon="-1.56149">
        <ele>66</ele>
        <time>2022-05-03T08:52:03Z</time>
      </trkpt>
      <trkpt lat="47.24624" lon="-1.5615">
        <ele>66</ele>
        <time>2022-05-03T08:52:04Z</time>
      </trkpt>
      <trkpt lat="47.24625" lon="-1.56152">
        <ele>66</ele>
        <time>2022-05-03T08:52:05Z</time>
      </trkpt>
      <trkpt lat="47.24626" lon="-1.56153">
        <ele>66</ele>
        <time>2022-05-03T08:52:06Z</time>
      </trkpt>
      <trkpt lat="47.24627" lon="-1.56155">
        <ele>66</ele>
        <time>2022-05-03T08:52:07Z</time>
      </trkpt>
      <trkpt lat="47.24628" lon="-1.56156">
        <ele>67</ele>
        <time>2022-05-03T08:52:08Z</time>
      </trkpt>
      <trkpt lat="47.24629" lon="-1.56157">
        <ele>67</ele>
        <time>2022-05-03T08:52:09Z</time>
      </trkpt>
      <trkpt lat="47.2463" lon="-1.56158">
        <ele>67</ele>
        <time>2022-05-03T08:52:10Z</time>
      </trkpt>
      <trkpt lat="47.24632" lon="-1.5616">
        <ele>66</ele>
        <time>2022-05-03T08:52:11Z</time>
      </trkpt>
      <trkpt lat="47.24633" lon="-1.56161">
        <ele>66</ele>
        <time>2022-05-03T08:52:12Z</time>
      </trkpt>
      <trkpt lat="47.24634" lon="-1.56162">
        <ele>67</ele>
        <time>2022-05-03T08:52:13Z</time>
      </trkpt>
      <trkpt lat="47.24635" lon="-1.56163">
        <ele>66</ele>
        <time>2022-05-03T08:52:14Z</time>
      </trkpt>
      <trkpt lat="47.24636" lon="-1.56164">
        <ele>66</ele>
        <time>2022-05-03T08:52:15Z</time>
      </trkpt>
      <trkpt lat="47.24637" lon="-1.56166">
        <ele>66</ele>
        <time>2022-05-03T08:52:16Z</time>
      </trkpt>
      <trkpt lat="47.24638" lon="-1.56168">
        <ele>66</ele>
        <time>2022-05-03T08:52:17Z</time>
      </trkpt>
      <trkpt lat="47.24639" lon="-1.56169">
        <ele>66</ele>
        <time>2022-05-03T08:52:18Z</time>
      </trkpt>
      <trkpt lat="47.2464" lon="-1.5617">
        <ele>66</ele>
        <time>2022-05-03T08:52:19Z</time>
      </trkpt>
      <trkpt lat="47.24642" lon="-1.56171">
        <ele>66</ele>
        <time>2022-05-03T08:52:20Z</time>
      </trkpt>
      <trkpt lat="47.24643" lon="-1.56172">
        <ele>66</ele>
        <time>2022-05-03T08:52:21Z</time>
      </trkpt>
      <trkpt lat="47.24644" lon="-1.56173">
        <ele>65</ele>
        <time>2022-05-03T08:52:22Z</time>
      </trkpt>
      <trkpt lat="47.24646" lon="-1.56174">
        <ele>65</ele>
        <time>2022-05-03T08:52:23Z</time>
      </trkpt>
      <trkpt lat="47.24647" lon="-1.56175">
        <ele>65</ele>
        <time>2022-05-03T08:52:24Z</time>
      </trkpt>
      <trkpt lat="47.24648" lon="-1.56176">
        <ele>65</ele>
        <time>2022-05-03T08:52:25Z</time>
      </trkpt>
      <trkpt lat="47.24649" lon="-1.56177">
        <ele>65</ele>
        <time>2022-05-03T08:52:26Z</time>
      </trkpt>
      <trkpt lat="47.24651" lon="-1.56178">
        <ele>65</ele>
        <time>2022-05-03T08:52:27Z</time>
      </trkpt>
      <trkpt lat="47.24652" lon="-1.56179">
        <ele>65</ele>
        <time>2022-05-03T08:52:28Z</time>
      </trkpt>
      <trkpt lat="47.24653" lon="-1.5618">
        <ele>65</ele>
        <time>2022-05-03T08:52:29Z</time>
      </trkpt>
      <trkpt lat="47.24654" lon="-1.56181">
        <ele>65</ele>
        <time>2022-05-03T08:52:30Z</time>
      </trkpt>
      <trkpt lat="47.24655" lon="-1.56182">
        <ele>65</ele>
        <time>2022-05-03T08:52:31Z</time>
      </trkpt>
      <trkpt lat="47.24656" lon="-1.56183">
        <ele>65</ele>
        <time>2022-05-03T08:52:32Z</time>
      </trkpt>
      <trkpt lat="47.24657" lon="-1.56184">
        <ele>66</ele>
        <time>2022-05-03T08:52:33Z</time>
      </trkpt>
      <trkpt lat="47.24659" lon="-1.56185">
        <ele>65</ele>
        <time>2022-05-03T08:52:34Z</time>
      </trkpt>
      <trkpt lat="47.2466" lon="-1.56186">
        <ele>65</ele>
        <time>2022-05-03T08:52:35Z</time>
      </trkpt>
      <trkpt lat="47.24661" lon="-1.56186">
        <ele>66</ele>
        <time>2022-05-03T08:52:36Z</time>
      </trkpt>
      <trkpt lat="47.24662" lon="-1.56188">
        <ele>66</ele>
        <time>2022-05-03T08:52:37Z</time>
      </trkpt>
      <trkpt lat="47.24664" lon="-1.56189">
        <ele>66</ele>
        <time>2022-05-03T08:52:38Z</time>
      </trkpt>
      <trkpt lat="47.24665" lon="-1.5619">
        <ele>66</ele>
        <time>2022-05-03T08:52:39Z</time>
      </trkpt>
      <trkpt lat="47.24666" lon="-1.5619">
        <ele>66</ele>
        <time>2022-05-03T08:52:40Z</time>
      </trkpt>
      <trkpt lat="47.24667" lon="-1.56191">
        <ele>66</ele>
        <time>2022-05-03T08:52:41Z</time>
      </trkpt>
      <trkpt lat="47.24669" lon="-1.56192">
        <ele>66</ele>
        <time>2022-05-03T08:52:42Z</time>
      </trkpt>
      <trkpt lat="47.2467" lon="-1.56193">
        <ele>66</ele>
        <time>2022-05-03T08:52:43Z</time>
      </trkpt>
      <trkpt lat="47.24671" lon="-1.56194">
        <ele>66</ele>
        <time>2022-05-03T08:52:44Z</time>
      </trkpt>
      <trkpt lat="47.24672" lon="-1.56194">
        <ele>66</ele>
        <time>2022-05-03T08:52:45Z</time>
      </trkpt>
      <trkpt lat="47.24674" lon="-1.56195">
        <ele>66</ele>
        <time>2022-05-03T08:52:46Z</time>
      </trkpt>
      <trkpt lat="47.24675" lon="-1.56196">
        <ele>66</ele>
        <time>2022-05-03T08:52:47Z</time>
      </trkpt>
      <trkpt lat="47.24676" lon="-1.56197">
        <ele>66</ele>
        <time>2022-05-03T08:52:48Z</time>
      </trkpt>
      <trkpt lat="47.24677" lon="-1.56198">
        <ele>66</ele>
        <time>2022-05-03T08:52:49Z</time>
      </trkpt>
      <trkpt lat="47.24678" lon="-1.56199">
        <ele>66</ele>
        <time>2022-05-03T08:52:50Z</time>
      </trkpt>
      <trkpt lat="47.2468" lon="-1.56199">
        <ele>66</ele>
        <time>2022-05-03T08:52:51Z</time>
      </trkpt>
      <trkpt lat="47.24681" lon="-1.562">
        <ele>66</ele>
        <time>2022-05-03T08:52:52Z</time>
      </trkpt>
      <trkpt lat="47.24682" lon="-1.56201">
        <ele>66</ele>
        <time>2022-05-03T08:52:53Z</time>
      </trkpt>
      <trkpt lat="47.24683" lon="-1.56202">
        <ele>65</ele>
        <time>2022-05-03T08:52:54Z</time>
      </trkpt>
      <trkpt lat="47.24685" lon="-1.56202">
        <ele>66</ele>
        <time>2022-05-03T08:52:55Z</time>
      </trkpt>
      <trkpt lat="47.24686" lon="-1.56202">
        <ele>66</ele>
        <time>2022-05-03T08:52:56Z</time>
      </trkpt>
      <trkpt lat="47.24687" lon="-1.56203">
        <ele>66</ele>
        <time>2022-05-03T08:52:57Z</time>
      </trkpt>
      <trkpt lat="47.24688" lon="-1.56204">
        <ele>66</ele>
        <time>2022-05-03T08:52:58Z</time>
      </trkpt>
      <trkpt lat="47.2469" lon="-1.56205">
        <ele>66</ele>
        <time>2022-05-03T08:52:59Z</time>
      </trkpt>
      <trkpt lat="47.24691" lon="-1.56206">
        <ele>66</ele>
        <time>2022-05-03T08:53:00Z</time>
      </trkpt>
      <trkpt lat="47.24692" lon="-1.56207">
        <ele>66</ele>
        <time>2022-05-03T08:53:01Z</time>
      </trkpt>
      <trkpt lat="47.24693" lon="-1.56208">
        <ele>66</ele>
        <time>2022-05-03T08:53:02Z</time>
      </trkpt>
      <trkpt lat="47.24694" lon="-1.56208">
        <ele>66</ele>
        <time>2022-05-03T08:53:03Z</time>
      </trkpt>
      <trkpt lat="47.24695" lon="-1.56209">
        <ele>66</ele>
        <time>2022-05-03T08:53:04Z</time>
      </trkpt>
      <trkpt lat="47.24696" lon="-1.5621">
        <ele>66</ele>
        <time>2022-05-03T08:53:05Z</time>
      </trkpt>
      <trkpt lat="47.24698" lon="-1.56211">
        <ele>66</ele>
        <time>2022-05-03T08:53:06Z</time>
      </trkpt>
      <trkpt lat="47.24699" lon="-1.56212">
        <ele>65</ele>
        <time>2022-05-03T08:53:07Z</time>
      </trkpt>
      <trkpt lat="47.247" lon="-1.56212">
        <ele>65</ele>
        <time>2022-05-03T08:53:08Z</time>
      </trkpt>
      <trkpt lat="47.24701" lon="-1.56213">
        <ele>65</ele>
        <time>2022-05-03T08:53:09Z</time>
      </trkpt>
      <trkpt lat="47.24703" lon="-1.56214">
        <ele>65</ele>
        <time>2022-05-03T08:53:10Z</time>
      </trkpt>
      <trkpt lat="47.24704" lon="-1.56215">
        <ele>65</ele>
        <time>2022-05-03T08:53:11Z</time>
      </trkpt>
      <trkpt lat="47.24705" lon="-1.56216">
        <ele>65</ele>
        <time>2022-05-03T08:53:12Z</time>
      </trkpt>
      <trkpt lat="47.24706" lon="-1.56217">
        <ele>65</ele>
        <time>2022-05-03T08:53:13Z</time>
      </trkpt>
      <trkpt lat="47.24707" lon="-1.56218">
        <ele>65</ele>
        <time>2022-05-03T08:53:14Z</time>
      </trkpt>
      <trkpt lat="47.24709" lon="-1.56219">
        <ele>65</ele>
        <time>2022-05-03T08:53:15Z</time>
      </trkpt>
      <trkpt lat="47.2471" lon="-1.5622">
        <ele>65</ele>
        <time>2022-05-03T08:53:16Z</time>
      </trkpt>
      <trkpt lat="47.24711" lon="-1.56221">
        <ele>64</ele>
        <time>2022-05-03T08:53:17Z</time>
      </trkpt>
      <trkpt lat="47.24712" lon="-1.56222">
        <ele>64</ele>
        <time>2022-05-03T08:53:18Z</time>
      </trkpt>
      <trkpt lat="47.24714" lon="-1.56222">
        <ele>65</ele>
        <time>2022-05-03T08:53:19Z</time>
      </trkpt>
      <trkpt lat="47.24715" lon="-1.56223">
        <ele>64</ele>
        <time>2022-05-03T08:53:20Z</time>
      </trkpt>
      <trkpt lat="47.24716" lon="-1.56224">
        <ele>64</ele>
        <time>2022-05-03T08:53:21Z</time>
      </trkpt>
      <trkpt lat="47.24717" lon="-1.56225">
        <ele>64</ele>
        <time>2022-05-03T08:53:22Z</time>
      </trkpt>
      <trkpt lat="47.24719" lon="-1.56225">
        <ele>64</ele>
        <time>2022-05-03T08:53:23Z</time>
      </trkpt>
      <trkpt lat="47.2472" lon="-1.56226">
        <ele>64</ele>
        <time>2022-05-03T08:53:24Z</time>
      </trkpt>
      <trkpt lat="47.24722" lon="-1.56227">
        <ele>65</ele>
        <time>2022-05-03T08:53:25Z</time>
      </trkpt>
      <trkpt lat="47.24722" lon="-1.56228">
        <ele>65</ele>
        <time>2022-05-03T08:53:26Z</time>
      </trkpt>
      <trkpt lat="47.24723" lon="-1.56229">
        <ele>65</ele>
        <time>2022-05-03T08:53:27Z</time>
      </trkpt>
      <trkpt lat="47.24725" lon="-1.56229">
        <ele>65</ele>
        <time>2022-05-03T08:53:28Z</time>
      </trkpt>
      <trkpt lat="47.24726" lon="-1.5623">
        <ele>65</ele>
        <time>2022-05-03T08:53:29Z</time>
      </trkpt>
      <trkpt lat="47.24727" lon="-1.56231">
        <ele>66</ele>
        <time>2022-05-03T08:53:30Z</time>
      </trkpt>
      <trkpt lat="47.24728" lon="-1.56232">
        <ele>65</ele>
        <time>2022-05-03T08:53:31Z</time>
      </trkpt>
      <trkpt lat="47.2473" lon="-1.56232">
        <ele>65</ele>
        <time>2022-05-03T08:53:32Z</time>
      </trkpt>
      <trkpt lat="47.24731" lon="-1.56233">
        <ele>65</ele>
        <time>2022-05-03T08:53:33Z</time>
      </trkpt>
      <trkpt lat="47.24732" lon="-1.56234">
        <ele>65</ele>
        <time>2022-05-03T08:53:34Z</time>
      </trkpt>
      <trkpt lat="47.24733" lon="-1.56235">
        <ele>65</ele>
        <time>2022-05-03T08:53:35Z</time>
      </trkpt>
      <trkpt lat="47.24735" lon="-1.56235">
        <ele>65</ele>
        <time>2022-05-03T08:53:36Z</time>
      </trkpt>
      <trkpt lat="47.24736" lon="-1.56236">
        <ele>66</ele>
        <time>2022-05-03T08:53:37Z</time>
      </trkpt>
      <trkpt lat="47.24737" lon="-1.56237">
        <ele>66</ele>
        <time>2022-05-03T08:53:38Z</time>
      </trkpt>
      <trkpt lat="47.24738" lon="-1.56238">
        <ele>66</ele>
        <time>2022-05-03T08:53:39Z</time>
      </trkpt>
      <trkpt lat="47.2474" lon="-1.56239">
        <ele>66</ele>
        <time>2022-05-03T08:53:40Z</time>
      </trkpt>
      <trkpt lat="47.24741" lon="-1.56239">
        <ele>66</ele>
        <time>2022-05-03T08:53:41Z</time>
      </trkpt>
      <trkpt lat="47.24742" lon="-1.5624">
        <ele>66</ele>
        <time>2022-05-03T08:53:42Z</time>
      </trkpt>
      <trkpt lat="47.24743" lon="-1.56241">
        <ele>66</ele>
        <time>2022-05-03T08:53:43Z</time>
      </trkpt>
      <trkpt lat="47.24744" lon="-1.56241">
        <ele>66</ele>
        <time>2022-05-03T08:53:44Z</time>
      </trkpt>
      <trkpt lat="47.24746" lon="-1.56242">
        <ele>66</ele>
        <time>2022-05-03T08:53:45Z</time>
      </trkpt>
      <trkpt lat="47.24748" lon="-1.56243">
        <ele>66</ele>
        <time>2022-05-03T08:53:46Z</time>
      </trkpt>
      <trkpt lat="47.24749" lon="-1.56244">
        <ele>66</ele>
        <time>2022-05-03T08:53:47Z</time>
      </trkpt>
      <trkpt lat="47.2475" lon="-1.56245">
        <ele>66</ele>
        <time>2022-05-03T08:53:48Z</time>
      </trkpt>
      <trkpt lat="47.24751" lon="-1.56246">
        <ele>67</ele>
        <time>2022-05-03T08:53:49Z</time>
      </trkpt>
      <trkpt lat="47.24752" lon="-1.56246">
        <ele>67</ele>
        <time>2022-05-03T08:53:50Z</time>
      </trkpt>
      <trkpt lat="47.24754" lon="-1.56247">
        <ele>67</ele>
        <time>2022-05-03T08:53:51Z</time>
      </trkpt>
      <trkpt lat="47.24755" lon="-1.56248">
        <ele>67</ele>
        <time>2022-05-03T08:53:52Z</time>
      </trkpt>
      <trkpt lat="47.24756" lon="-1.56249">
        <ele>67</ele>
        <time>2022-05-03T08:53:53Z</time>
      </trkpt>
      <trkpt lat="47.24757" lon="-1.5625">
        <ele>67</ele>
        <time>2022-05-03T08:53:54Z</time>
      </trkpt>
      <trkpt lat="47.2476" lon="-1.56251">
        <ele>67</ele>
        <time>2022-05-03T08:53:55Z</time>
      </trkpt>
      <trkpt lat="47.2476" lon="-1.56251">
        <ele>67</ele>
        <time>2022-05-03T08:53:55Z</time>
      </trkpt>
      <trkpt lat="47.24761" lon="-1.56252">
        <ele>67</ele>
        <time>2022-05-03T08:53:57Z</time>
      </trkpt>
      <trkpt lat="47.24762" lon="-1.56253">
        <ele>67</ele>
        <time>2022-05-03T08:53:58Z</time>
      </trkpt>
      <trkpt lat="47.24764" lon="-1.56254">
        <ele>67</ele>
        <time>2022-05-03T08:53:59Z</time>
      </trkpt>
      <trkpt lat="47.24765" lon="-1.56254">
        <ele>68</ele>
        <time>2022-05-03T08:54:00Z</time>
      </trkpt>
      <trkpt lat="47.24766" lon="-1.56255">
        <ele>68</ele>
        <time>2022-05-03T08:54:01Z</time>
      </trkpt>
      <trkpt lat="47.24767" lon="-1.56256">
        <ele>68</ele>
        <time>2022-05-03T08:54:02Z</time>
      </trkpt>
      <trkpt lat="47.24769" lon="-1.56257">
        <ele>68</ele>
        <time>2022-05-03T08:54:03Z</time>
      </trkpt>
      <trkpt lat="47.2477" lon="-1.56258">
        <ele>68</ele>
        <time>2022-05-03T08:54:04Z</time>
      </trkpt>
      <trkpt lat="47.24772" lon="-1.56259">
        <ele>68</ele>
        <time>2022-05-03T08:54:05Z</time>
      </trkpt>
      <trkpt lat="47.24773" lon="-1.5626">
        <ele>67</ele>
        <time>2022-05-03T08:54:06Z</time>
      </trkpt>
      <trkpt lat="47.24775" lon="-1.56261">
        <ele>67</ele>
        <time>2022-05-03T08:54:07Z</time>
      </trkpt>
      <trkpt lat="47.24775" lon="-1.56261">
        <ele>67</ele>
        <time>2022-05-03T08:54:07Z</time>
      </trkpt>
      <trkpt lat="47.24777" lon="-1.56261">
        <ele>67</ele>
        <time>2022-05-03T08:54:09Z</time>
      </trkpt>
      <trkpt lat="47.24778" lon="-1.56262">
        <ele>67</ele>
        <time>2022-05-03T08:54:10Z</time>
      </trkpt>
      <trkpt lat="47.24779" lon="-1.56263">
        <ele>67</ele>
        <time>2022-05-03T08:54:11Z</time>
      </trkpt>
      <trkpt lat="47.2478" lon="-1.56264">
        <ele>68</ele>
        <time>2022-05-03T08:54:12Z</time>
      </trkpt>
      <trkpt lat="47.24782" lon="-1.56265">
        <ele>68</ele>
        <time>2022-05-03T08:54:13Z</time>
      </trkpt>
      <trkpt lat="47.24783" lon="-1.56265">
        <ele>68</ele>
        <time>2022-05-03T08:54:14Z</time>
      </trkpt>
      <trkpt lat="47.24785" lon="-1.56266">
        <ele>68</ele>
        <time>2022-05-03T08:54:15Z</time>
      </trkpt>
      <trkpt lat="47.24787" lon="-1.56268">
        <ele>69</ele>
        <time>2022-05-03T08:54:16Z</time>
      </trkpt>
      <trkpt lat="47.24787" lon="-1.56268">
        <ele>69</ele>
        <time>2022-05-03T08:54:16Z</time>
      </trkpt>
      <trkpt lat="47.24788" lon="-1.56268">
        <ele>68</ele>
        <time>2022-05-03T08:54:18Z</time>
      </trkpt>
      <trkpt lat="47.24789" lon="-1.56269">
        <ele>68</ele>
        <time>2022-05-03T08:54:19Z</time>
      </trkpt>
      <trkpt lat="47.24792" lon="-1.56271">
        <ele>68</ele>
        <time>2022-05-03T08:54:20Z</time>
      </trkpt>
      <trkpt lat="47.24792" lon="-1.56271">
        <ele>68</ele>
        <time>2022-05-03T08:54:20Z</time>
      </trkpt>
      <trkpt lat="47.24793" lon="-1.56272">
        <ele>69</ele>
        <time>2022-05-03T08:54:22Z</time>
      </trkpt>
      <trkpt lat="47.24796" lon="-1.56274">
        <ele>68</ele>
        <time>2022-05-03T08:54:23Z</time>
      </trkpt>
      <trkpt lat="47.24796" lon="-1.56274">
        <ele>68</ele>
        <time>2022-05-03T08:54:23Z</time>
      </trkpt>
      <trkpt lat="47.24797" lon="-1.56275">
        <ele>69</ele>
        <time>2022-05-03T08:54:25Z</time>
      </trkpt>
      <trkpt lat="47.248" lon="-1.56277">
        <ele>68</ele>
        <time>2022-05-03T08:54:26Z</time>
      </trkpt>
      <trkpt lat="47.248" lon="-1.56277">
        <ele>68</ele>
        <time>2022-05-03T08:54:26Z</time>
      </trkpt>
      <trkpt lat="47.24802" lon="-1.56279">
        <ele>68</ele>
        <time>2022-05-03T08:54:28Z</time>
      </trkpt>
      <trkpt lat="47.24804" lon="-1.5628">
        <ele>68</ele>
        <time>2022-05-03T08:54:29Z</time>
      </trkpt>
      <trkpt lat="47.24805" lon="-1.56281">
        <ele>68</ele>
        <time>2022-05-03T08:54:30Z</time>
      </trkpt>
      <trkpt lat="47.24806" lon="-1.56281">
        <ele>68</ele>
        <time>2022-05-03T08:54:31Z</time>
      </trkpt>
      <trkpt lat="47.24806" lon="-1.56281">
        <ele>68</ele>
        <time>2022-05-03T08:54:31Z</time>
      </trkpt>
      <trkpt lat="47.24809" lon="-1.56283">
        <ele>68</ele>
        <time>2022-05-03T08:54:33Z</time>
      </trkpt>
      <trkpt lat="47.2481" lon="-1.56283">
        <ele>68</ele>
        <time>2022-05-03T08:54:34Z</time>
      </trkpt>
      <trkpt lat="47.2481" lon="-1.56283">
        <ele>68</ele>
        <time>2022-05-03T08:54:34Z</time>
      </trkpt>
      <trkpt lat="47.24812" lon="-1.56285">
        <ele>68</ele>
        <time>2022-05-03T08:54:36Z</time>
      </trkpt>
      <trkpt lat="47.24814" lon="-1.56286">
        <ele>68</ele>
        <time>2022-05-03T08:54:37Z</time>
      </trkpt>
      <trkpt lat="47.24815" lon="-1.56286">
        <ele>68</ele>
        <time>2022-05-03T08:54:38Z</time>
      </trkpt>
      <trkpt lat="47.24816" lon="-1.56287">
        <ele>68</ele>
        <time>2022-05-03T08:54:39Z</time>
      </trkpt>
      <trkpt lat="47.24817" lon="-1.56288">
        <ele>69</ele>
        <time>2022-05-03T08:54:40Z</time>
      </trkpt>
      <trkpt lat="47.24818" lon="-1.56289">
        <ele>69</ele>
        <time>2022-05-03T08:54:41Z</time>
      </trkpt>
      <trkpt lat="47.24819" lon="-1.56289">
        <ele>69</ele>
        <time>2022-05-03T08:54:42Z</time>
      </trkpt>
      <trkpt lat="47.24819" lon="-1.56289">
        <ele>69</ele>
        <time>2022-05-03T08:54:42Z</time>
      </trkpt>
      <trkpt lat="47.24822" lon="-1.56291">
        <ele>69</ele>
        <time>2022-05-03T08:54:44Z</time>
      </trkpt>
      <trkpt lat="47.24823" lon="-1.56292">
        <ele>69</ele>
        <time>2022-05-03T08:54:45Z</time>
      </trkpt>
      <trkpt lat="47.24824" lon="-1.56293">
        <ele>69</ele>
        <time>2022-05-03T08:54:46Z</time>
      </trkpt>
      <trkpt lat="47.24825" lon="-1.56293">
        <ele>69</ele>
        <time>2022-05-03T08:54:47Z</time>
      </trkpt>
      <trkpt lat="47.24826" lon="-1.56295">
        <ele>69</ele>
        <time>2022-05-03T08:54:48Z</time>
      </trkpt>
      <trkpt lat="47.24828" lon="-1.56296">
        <ele>69</ele>
        <time>2022-05-03T08:54:49Z</time>
      </trkpt>
      <trkpt lat="47.24829" lon="-1.56296">
        <ele>69</ele>
        <time>2022-05-03T08:54:50Z</time>
      </trkpt>
      <trkpt lat="47.2483" lon="-1.56297">
        <ele>69</ele>
        <time>2022-05-03T08:54:51Z</time>
      </trkpt>
      <trkpt lat="47.24831" lon="-1.56298">
        <ele>69</ele>
        <time>2022-05-03T08:54:52Z</time>
      </trkpt>
      <trkpt lat="47.24833" lon="-1.56299">
        <ele>69</ele>
        <time>2022-05-03T08:54:53Z</time>
      </trkpt>
      <trkpt lat="47.24834" lon="-1.563">
        <ele>69</ele>
        <time>2022-05-03T08:54:54Z</time>
      </trkpt>
      <trkpt lat="47.24835" lon="-1.56301">
        <ele>70</ele>
        <time>2022-05-03T08:54:55Z</time>
      </trkpt>
      <trkpt lat="47.24836" lon="-1.56302">
        <ele>70</ele>
        <time>2022-05-03T08:54:56Z</time>
      </trkpt>
      <trkpt lat="47.24838" lon="-1.56302">
        <ele>70</ele>
        <time>2022-05-03T08:54:57Z</time>
      </trkpt>
      <trkpt lat="47.24839" lon="-1.56303">
        <ele>70</ele>
        <time>2022-05-03T08:54:58Z</time>
      </trkpt>
      <trkpt lat="47.2484" lon="-1.56304">
        <ele>71</ele>
        <time>2022-05-03T08:54:59Z</time>
      </trkpt>
      <trkpt lat="47.24841" lon="-1.56304">
        <ele>71</ele>
        <time>2022-05-03T08:55:00Z</time>
      </trkpt>
      <trkpt lat="47.24843" lon="-1.56305">
        <ele>70</ele>
        <time>2022-05-03T08:55:01Z</time>
      </trkpt>
      <trkpt lat="47.24844" lon="-1.56306">
        <ele>70</ele>
        <time>2022-05-03T08:55:02Z</time>
      </trkpt>
      <trkpt lat="47.24845" lon="-1.56307">
        <ele>70</ele>
        <time>2022-05-03T08:55:03Z</time>
      </trkpt>
      <trkpt lat="47.24847" lon="-1.56308">
        <ele>70</ele>
        <time>2022-05-03T08:55:04Z</time>
      </trkpt>
      <trkpt lat="47.24848" lon="-1.56308">
        <ele>71</ele>
        <time>2022-05-03T08:55:05Z</time>
      </trkpt>
      <trkpt lat="47.24849" lon="-1.56309">
        <ele>70</ele>
        <time>2022-05-03T08:55:06Z</time>
      </trkpt>
      <trkpt lat="47.24851" lon="-1.5631">
        <ele>70</ele>
        <time>2022-05-03T08:55:07Z</time>
      </trkpt>
      <trkpt lat="47.24852" lon="-1.56311">
        <ele>70</ele>
        <time>2022-05-03T08:55:08Z</time>
      </trkpt>
      <trkpt lat="47.24853" lon="-1.56312">
        <ele>70</ele>
        <time>2022-05-03T08:55:09Z</time>
      </trkpt>
      <trkpt lat="47.24855" lon="-1.56313">
        <ele>70</ele>
        <time>2022-05-03T08:55:10Z</time>
      </trkpt>
      <trkpt lat="47.24856" lon="-1.56314">
        <ele>70</ele>
        <time>2022-05-03T08:55:11Z</time>
      </trkpt>
      <trkpt lat="47.24857" lon="-1.56314">
        <ele>70</ele>
        <time>2022-05-03T08:55:12Z</time>
      </trkpt>
      <trkpt lat="47.24859" lon="-1.56315">
        <ele>70</ele>
        <time>2022-05-03T08:55:13Z</time>
      </trkpt>
      <trkpt lat="47.2486" lon="-1.56316">
        <ele>70</ele>
        <time>2022-05-03T08:55:14Z</time>
      </trkpt>
      <trkpt lat="47.24861" lon="-1.56317">
        <ele>71</ele>
        <time>2022-05-03T08:55:15Z</time>
      </trkpt>
      <trkpt lat="47.24862" lon="-1.56318">
        <ele>71</ele>
        <time>2022-05-03T08:55:16Z</time>
      </trkpt>
      <trkpt lat="47.24864" lon="-1.56318">
        <ele>71</ele>
        <time>2022-05-03T08:55:17Z</time>
      </trkpt>
      <trkpt lat="47.24865" lon="-1.56319">
        <ele>71</ele>
        <time>2022-05-03T08:55:18Z</time>
      </trkpt>
      <trkpt lat="47.24867" lon="-1.5632">
        <ele>71</ele>
        <time>2022-05-03T08:55:19Z</time>
      </trkpt>
      <trkpt lat="47.24867" lon="-1.56321">
        <ele>71</ele>
        <time>2022-05-03T08:55:20Z</time>
      </trkpt>
      <trkpt lat="47.24869" lon="-1.56321">
        <ele>71</ele>
        <time>2022-05-03T08:55:21Z</time>
      </trkpt>
      <trkpt lat="47.2487" lon="-1.56322">
        <ele>71</ele>
        <time>2022-05-03T08:55:22Z</time>
      </trkpt>
      <trkpt lat="47.24871" lon="-1.56323">
        <ele>71</ele>
        <time>2022-05-03T08:55:23Z</time>
      </trkpt>
      <trkpt lat="47.24872" lon="-1.56324">
        <ele>71</ele>
        <time>2022-05-03T08:55:24Z</time>
      </trkpt>
      <trkpt lat="47.24873" lon="-1.56324">
        <ele>71</ele>
        <time>2022-05-03T08:55:25Z</time>
      </trkpt>
      <trkpt lat="47.24875" lon="-1.56325">
        <ele>72</ele>
        <time>2022-05-03T08:55:26Z</time>
      </trkpt>
      <trkpt lat="47.24876" lon="-1.56326">
        <ele>72</ele>
        <time>2022-05-03T08:55:27Z</time>
      </trkpt>
      <trkpt lat="47.24877" lon="-1.56327">
        <ele>72</ele>
        <time>2022-05-03T08:55:28Z</time>
      </trkpt>
      <trkpt lat="47.24878" lon="-1.56328">
        <ele>71</ele>
        <time>2022-05-03T08:55:29Z</time>
      </trkpt>
      <trkpt lat="47.2488" lon="-1.56329">
        <ele>71</ele>
        <time>2022-05-03T08:55:30Z</time>
      </trkpt>
      <trkpt lat="47.24881" lon="-1.56329">
        <ele>71</ele>
        <time>2022-05-03T08:55:31Z</time>
      </trkpt>
      <trkpt lat="47.24882" lon="-1.5633">
        <ele>71</ele>
        <time>2022-05-03T08:55:32Z</time>
      </trkpt>
      <trkpt lat="47.24883" lon="-1.56331">
        <ele>71</ele>
        <time>2022-05-03T08:55:33Z</time>
      </trkpt>
      <trkpt lat="47.24885" lon="-1.56332">
        <ele>71</ele>
        <time>2022-05-03T08:55:34Z</time>
      </trkpt>
      <trkpt lat="47.24886" lon="-1.56332">
        <ele>71</ele>
        <time>2022-05-03T08:55:35Z</time>
      </trkpt>
      <trkpt lat="47.24887" lon="-1.56333">
        <ele>71</ele>
        <time>2022-05-03T08:55:36Z</time>
      </trkpt>
      <trkpt lat="47.24889" lon="-1.56334">
        <ele>71</ele>
        <time>2022-05-03T08:55:37Z</time>
      </trkpt>
      <trkpt lat="47.2489" lon="-1.56335">
        <ele>71</ele>
        <time>2022-05-03T08:55:38Z</time>
      </trkpt>
      <trkpt lat="47.24891" lon="-1.56336">
        <ele>71</ele>
        <time>2022-05-03T08:55:39Z</time>
      </trkpt>
      <trkpt lat="47.24892" lon="-1.56337">
        <ele>71</ele>
        <time>2022-05-03T08:55:40Z</time>
      </trkpt>
      <trkpt lat="47.24894" lon="-1.56337">
        <ele>71</ele>
        <time>2022-05-03T08:55:41Z</time>
      </trkpt>
      <trkpt lat="47.24895" lon="-1.56338">
        <ele>71</ele>
        <time>2022-05-03T08:55:42Z</time>
      </trkpt>
      <trkpt lat="47.24896" lon="-1.56339">
        <ele>71</ele>
        <time>2022-05-03T08:55:43Z</time>
      </trkpt>
      <trkpt lat="47.24897" lon="-1.5634">
        <ele>71</ele>
        <time>2022-05-03T08:55:44Z</time>
      </trkpt>
      <trkpt lat="47.24899" lon="-1.56341">
        <ele>71</ele>
        <time>2022-05-03T08:55:45Z</time>
      </trkpt>
      <trkpt lat="47.24899" lon="-1.56342">
        <ele>71</ele>
        <time>2022-05-03T08:55:46Z</time>
      </trkpt>
      <trkpt lat="47.249" lon="-1.56342">
        <ele>71</ele>
        <time>2022-05-03T08:55:47Z</time>
      </trkpt>
      <trkpt lat="47.24902" lon="-1.56343">
        <ele>71</ele>
        <time>2022-05-03T08:55:48Z</time>
      </trkpt>
      <trkpt lat="47.24903" lon="-1.56344">
        <ele>71</ele>
        <time>2022-05-03T08:55:49Z</time>
      </trkpt>
      <trkpt lat="47.24904" lon="-1.56344">
        <ele>71</ele>
        <time>2022-05-03T08:55:50Z</time>
      </trkpt>
      <trkpt lat="47.24905" lon="-1.56345">
        <ele>71</ele>
        <time>2022-05-03T08:55:51Z</time>
      </trkpt>
      <trkpt lat="47.24907" lon="-1.56346">
        <ele>71</ele>
        <time>2022-05-03T08:55:52Z</time>
      </trkpt>
      <trkpt lat="47.24908" lon="-1.56347">
        <ele>71</ele>
        <time>2022-05-03T08:55:53Z</time>
      </trkpt>
      <trkpt lat="47.24909" lon="-1.56348">
        <ele>71</ele>
        <time>2022-05-03T08:55:54Z</time>
      </trkpt>
      <trkpt lat="47.2491" lon="-1.56348">
        <ele>71</ele>
        <time>2022-05-03T08:55:55Z</time>
      </trkpt>
      <trkpt lat="47.24912" lon="-1.56349">
        <ele>71</ele>
        <time>2022-05-03T08:55:56Z</time>
      </trkpt>
      <trkpt lat="47.24913" lon="-1.56349">
        <ele>71</ele>
        <time>2022-05-03T08:55:57Z</time>
      </trkpt>
      <trkpt lat="47.24914" lon="-1.5635">
        <ele>71</ele>
        <time>2022-05-03T08:55:58Z</time>
      </trkpt>
      <trkpt lat="47.24915" lon="-1.5635">
        <ele>71</ele>
        <time>2022-05-03T08:55:59Z</time>
      </trkpt>
      <trkpt lat="47.24917" lon="-1.5635">
        <ele>72</ele>
        <time>2022-05-03T08:56:00Z</time>
      </trkpt>
      <trkpt lat="47.24918" lon="-1.56351">
        <ele>71</ele>
        <time>2022-05-03T08:56:01Z</time>
      </trkpt>
      <trkpt lat="47.24919" lon="-1.56351">
        <ele>71</ele>
        <time>2022-05-03T08:56:02Z</time>
      </trkpt>
      <trkpt lat="47.2492" lon="-1.56352">
        <ele>71</ele>
        <time>2022-05-03T08:56:03Z</time>
      </trkpt>
      <trkpt lat="47.24921" lon="-1.56352">
        <ele>71</ele>
        <time>2022-05-03T08:56:04Z</time>
      </trkpt>
      <trkpt lat="47.24923" lon="-1.56353">
        <ele>71</ele>
        <time>2022-05-03T08:56:05Z</time>
      </trkpt>
      <trkpt lat="47.24924" lon="-1.56353">
        <ele>71</ele>
        <time>2022-05-03T08:56:06Z</time>
      </trkpt>
      <trkpt lat="47.24926" lon="-1.56353">
        <ele>71</ele>
        <time>2022-05-03T08:56:07Z</time>
      </trkpt>
      <trkpt lat="47.24927" lon="-1.56353">
        <ele>71</ele>
        <time>2022-05-03T08:56:08Z</time>
      </trkpt>
      <trkpt lat="47.24928" lon="-1.56353">
        <ele>71</ele>
        <time>2022-05-03T08:56:09Z</time>
      </trkpt>
      <trkpt lat="47.24929" lon="-1.56353">
        <ele>70</ele>
        <time>2022-05-03T08:56:10Z</time>
      </trkpt>
      <trkpt lat="47.24931" lon="-1.56354">
        <ele>70</ele>
        <time>2022-05-03T08:56:11Z</time>
      </trkpt>
      <trkpt lat="47.24931" lon="-1.56354">
        <ele>70</ele>
        <time>2022-05-03T08:56:12Z</time>
      </trkpt>
      <trkpt lat="47.24933" lon="-1.56355">
        <ele>70</ele>
        <time>2022-05-03T08:56:13Z</time>
      </trkpt>
      <trkpt lat="47.24934" lon="-1.56356">
        <ele>70</ele>
        <time>2022-05-03T08:56:14Z</time>
      </trkpt>
      <trkpt lat="47.24935" lon="-1.56357">
        <ele>70</ele>
        <time>2022-05-03T08:56:15Z</time>
      </trkpt>
      <trkpt lat="47.24936" lon="-1.56357">
        <ele>71</ele>
        <time>2022-05-03T08:56:16Z</time>
      </trkpt>
      <trkpt lat="47.24937" lon="-1.56358">
        <ele>70</ele>
        <time>2022-05-03T08:56:17Z</time>
      </trkpt>
      <trkpt lat="47.24939" lon="-1.56358">
        <ele>70</ele>
        <time>2022-05-03T08:56:18Z</time>
      </trkpt>
      <trkpt lat="47.2494" lon="-1.56359">
        <ele>70</ele>
        <time>2022-05-03T08:56:19Z</time>
      </trkpt>
      <trkpt lat="47.24941" lon="-1.56359">
        <ele>70</ele>
        <time>2022-05-03T08:56:20Z</time>
      </trkpt>
      <trkpt lat="47.24942" lon="-1.56359">
        <ele>70</ele>
        <time>2022-05-03T08:56:21Z</time>
      </trkpt>
      <trkpt lat="47.24944" lon="-1.56359">
        <ele>70</ele>
        <time>2022-05-03T08:56:22Z</time>
      </trkpt>
      <trkpt lat="47.24945" lon="-1.5636">
        <ele>70</ele>
        <time>2022-05-03T08:56:23Z</time>
      </trkpt>
      <trkpt lat="47.24946" lon="-1.5636">
        <ele>71</ele>
        <time>2022-05-03T08:56:24Z</time>
      </trkpt>
      <trkpt lat="47.24947" lon="-1.5636">
        <ele>71</ele>
        <time>2022-05-03T08:56:25Z</time>
      </trkpt>
      <trkpt lat="47.24948" lon="-1.56361">
        <ele>71</ele>
        <time>2022-05-03T08:56:26Z</time>
      </trkpt>
      <trkpt lat="47.2495" lon="-1.56361">
        <ele>70</ele>
        <time>2022-05-03T08:56:27Z</time>
      </trkpt>
      <trkpt lat="47.24951" lon="-1.56362">
        <ele>70</ele>
        <time>2022-05-03T08:56:28Z</time>
      </trkpt>
      <trkpt lat="47.24952" lon="-1.56362">
        <ele>71</ele>
        <time>2022-05-03T08:56:29Z</time>
      </trkpt>
      <trkpt lat="47.24953" lon="-1.56363">
        <ele>70</ele>
        <time>2022-05-03T08:56:30Z</time>
      </trkpt>
      <trkpt lat="47.24955" lon="-1.56363">
        <ele>71</ele>
        <time>2022-05-03T08:56:31Z</time>
      </trkpt>
      <trkpt lat="47.24955" lon="-1.56364">
        <ele>71</ele>
        <time>2022-05-03T08:56:32Z</time>
      </trkpt>
      <trkpt lat="47.24957" lon="-1.56365">
        <ele>71</ele>
        <time>2022-05-03T08:56:33Z</time>
      </trkpt>
      <trkpt lat="47.24958" lon="-1.56366">
        <ele>71</ele>
        <time>2022-05-03T08:56:34Z</time>
      </trkpt>
      <trkpt lat="47.24959" lon="-1.56366">
        <ele>71</ele>
        <time>2022-05-03T08:56:35Z</time>
      </trkpt>
      <trkpt lat="47.2496" lon="-1.56367">
        <ele>71</ele>
        <time>2022-05-03T08:56:36Z</time>
      </trkpt>
      <trkpt lat="47.24962" lon="-1.56367">
        <ele>71</ele>
        <time>2022-05-03T08:56:37Z</time>
      </trkpt>
      <trkpt lat="47.24963" lon="-1.56368">
        <ele>71</ele>
        <time>2022-05-03T08:56:38Z</time>
      </trkpt>
      <trkpt lat="47.24964" lon="-1.56368">
        <ele>71</ele>
        <time>2022-05-03T08:56:39Z</time>
      </trkpt>
      <trkpt lat="47.24965" lon="-1.56369">
        <ele>71</ele>
        <time>2022-05-03T08:56:40Z</time>
      </trkpt>
      <trkpt lat="47.24967" lon="-1.56369">
        <ele>71</ele>
        <time>2022-05-03T08:56:41Z</time>
      </trkpt>
      <trkpt lat="47.24968" lon="-1.5637">
        <ele>71</ele>
        <time>2022-05-03T08:56:42Z</time>
      </trkpt>
      <trkpt lat="47.24969" lon="-1.56371">
        <ele>71</ele>
        <time>2022-05-03T08:56:43Z</time>
      </trkpt>
      <trkpt lat="47.2497" lon="-1.56372">
        <ele>71</ele>
        <time>2022-05-03T08:56:44Z</time>
      </trkpt>
      <trkpt lat="47.24972" lon="-1.56372">
        <ele>71</ele>
        <time>2022-05-03T08:56:45Z</time>
      </trkpt>
      <trkpt lat="47.24973" lon="-1.56373">
        <ele>71</ele>
        <time>2022-05-03T08:56:46Z</time>
      </trkpt>
      <trkpt lat="47.24974" lon="-1.56373">
        <ele>71</ele>
        <time>2022-05-03T08:56:47Z</time>
      </trkpt>
      <trkpt lat="47.24975" lon="-1.56374">
        <ele>71</ele>
        <time>2022-05-03T08:56:48Z</time>
      </trkpt>
      <trkpt lat="47.24976" lon="-1.56374">
        <ele>71</ele>
        <time>2022-05-03T08:56:49Z</time>
      </trkpt>
      <trkpt lat="47.24978" lon="-1.56375">
        <ele>71</ele>
        <time>2022-05-03T08:56:50Z</time>
      </trkpt>
      <trkpt lat="47.24979" lon="-1.56375">
        <ele>72</ele>
        <time>2022-05-03T08:56:51Z</time>
      </trkpt>
      <trkpt lat="47.2498" lon="-1.56376">
        <ele>72</ele>
        <time>2022-05-03T08:56:52Z</time>
      </trkpt>
      <trkpt lat="47.24982" lon="-1.56376">
        <ele>72</ele>
        <time>2022-05-03T08:56:53Z</time>
      </trkpt>
      <trkpt lat="47.24983" lon="-1.56377">
        <ele>72</ele>
        <time>2022-05-03T08:56:54Z</time>
      </trkpt>
      <trkpt lat="47.24984" lon="-1.56377">
        <ele>72</ele>
        <time>2022-05-03T08:56:55Z</time>
      </trkpt>
      <trkpt lat="47.24986" lon="-1.56378">
        <ele>72</ele>
        <time>2022-05-03T08:56:56Z</time>
      </trkpt>
      <trkpt lat="47.24987" lon="-1.56378">
        <ele>72</ele>
        <time>2022-05-03T08:56:57Z</time>
      </trkpt>
      <trkpt lat="47.24988" lon="-1.56379">
        <ele>72</ele>
        <time>2022-05-03T08:56:58Z</time>
      </trkpt>
      <trkpt lat="47.24989" lon="-1.5638">
        <ele>72</ele>
        <time>2022-05-03T08:56:59Z</time>
      </trkpt>
      <trkpt lat="47.24991" lon="-1.5638">
        <ele>72</ele>
        <time>2022-05-03T08:57:00Z</time>
      </trkpt>
      <trkpt lat="47.24992" lon="-1.56381">
        <ele>72</ele>
        <time>2022-05-03T08:57:01Z</time>
      </trkpt>
      <trkpt lat="47.24993" lon="-1.56382">
        <ele>72</ele>
        <time>2022-05-03T08:57:02Z</time>
      </trkpt>
      <trkpt lat="47.24994" lon="-1.56382">
        <ele>72</ele>
        <time>2022-05-03T08:57:03Z</time>
      </trkpt>
      <trkpt lat="47.24995" lon="-1.56383">
        <ele>72</ele>
        <time>2022-05-03T08:57:04Z</time>
      </trkpt>
      <trkpt lat="47.24997" lon="-1.56384">
        <ele>72</ele>
        <time>2022-05-03T08:57:05Z</time>
      </trkpt>
      <trkpt lat="47.24998" lon="-1.56385">
        <ele>72</ele>
        <time>2022-05-03T08:57:06Z</time>
      </trkpt>
      <trkpt lat="47.24999" lon="-1.56386">
        <ele>72</ele>
        <time>2022-05-03T08:57:07Z</time>
      </trkpt>
      <trkpt lat="47.25001" lon="-1.56386">
        <ele>72</ele>
        <time>2022-05-03T08:57:08Z</time>
      </trkpt>
      <trkpt lat="47.25002" lon="-1.56387">
        <ele>72</ele>
        <time>2022-05-03T08:57:09Z</time>
      </trkpt>
      <trkpt lat="47.25003" lon="-1.56388">
        <ele>72</ele>
        <time>2022-05-03T08:57:10Z</time>
      </trkpt>
      <trkpt lat="47.25004" lon="-1.56388">
        <ele>72</ele>
        <time>2022-05-03T08:57:11Z</time>
      </trkpt>
      <trkpt lat="47.25006" lon="-1.56389">
        <ele>72</ele>
        <time>2022-05-03T08:57:12Z</time>
      </trkpt>
      <trkpt lat="47.25007" lon="-1.5639">
        <ele>72</ele>
        <time>2022-05-03T08:57:13Z</time>
      </trkpt>
      <trkpt lat="47.25008" lon="-1.5639">
        <ele>72</ele>
        <time>2022-05-03T08:57:14Z</time>
      </trkpt>
      <trkpt lat="47.25009" lon="-1.56391">
        <ele>72</ele>
        <time>2022-05-03T08:57:15Z</time>
      </trkpt>
      <trkpt lat="47.25011" lon="-1.56393">
        <ele>72</ele>
        <time>2022-05-03T08:57:16Z</time>
      </trkpt>
      <trkpt lat="47.25012" lon="-1.56394">
        <ele>72</ele>
        <time>2022-05-03T08:57:17Z</time>
      </trkpt>
      <trkpt lat="47.25013" lon="-1.56395">
        <ele>72</ele>
        <time>2022-05-03T08:57:18Z</time>
      </trkpt>
      <trkpt lat="47.25015" lon="-1.56396">
        <ele>72</ele>
        <time>2022-05-03T08:57:19Z</time>
      </trkpt>
      <trkpt lat="47.25016" lon="-1.56397">
        <ele>72</ele>
        <time>2022-05-03T08:57:20Z</time>
      </trkpt>
      <trkpt lat="47.25017" lon="-1.56397">
        <ele>71</ele>
        <time>2022-05-03T08:57:21Z</time>
      </trkpt>
      <trkpt lat="47.25018" lon="-1.56398">
        <ele>71</ele>
        <time>2022-05-03T08:57:22Z</time>
      </trkpt>
      <trkpt lat="47.25019" lon="-1.56399">
        <ele>72</ele>
        <time>2022-05-03T08:57:23Z</time>
      </trkpt>
      <trkpt lat="47.25021" lon="-1.564">
        <ele>71</ele>
        <time>2022-05-03T08:57:24Z</time>
      </trkpt>
      <trkpt lat="47.25022" lon="-1.56401">
        <ele>71</ele>
        <time>2022-05-03T08:57:25Z</time>
      </trkpt>
      <trkpt lat="47.25024" lon="-1.56402">
        <ele>72</ele>
        <time>2022-05-03T08:57:26Z</time>
      </trkpt>
      <trkpt lat="47.25025" lon="-1.56403">
        <ele>72</ele>
        <time>2022-05-03T08:57:27Z</time>
      </trkpt>
      <trkpt lat="47.25026" lon="-1.56404">
        <ele>72</ele>
        <time>2022-05-03T08:57:28Z</time>
      </trkpt>
      <trkpt lat="47.25027" lon="-1.56405">
        <ele>72</ele>
        <time>2022-05-03T08:57:29Z</time>
      </trkpt>
      <trkpt lat="47.25028" lon="-1.56406">
        <ele>72</ele>
        <time>2022-05-03T08:57:30Z</time>
      </trkpt>
      <trkpt lat="47.2503" lon="-1.56407">
        <ele>72</ele>
        <time>2022-05-03T08:57:31Z</time>
      </trkpt>
      <trkpt lat="47.25031" lon="-1.56408">
        <ele>73</ele>
        <time>2022-05-03T08:57:32Z</time>
      </trkpt>
      <trkpt lat="47.25032" lon="-1.56409">
        <ele>73</ele>
        <time>2022-05-03T08:57:33Z</time>
      </trkpt>
      <trkpt lat="47.25033" lon="-1.5641">
        <ele>72</ele>
        <time>2022-05-03T08:57:34Z</time>
      </trkpt>
      <trkpt lat="47.25034" lon="-1.56411">
        <ele>73</ele>
        <time>2022-05-03T08:57:35Z</time>
      </trkpt>
      <trkpt lat="47.25036" lon="-1.56411">
        <ele>72</ele>
        <time>2022-05-03T08:57:36Z</time>
      </trkpt>
      <trkpt lat="47.25037" lon="-1.56412">
        <ele>72</ele>
        <time>2022-05-03T08:57:37Z</time>
      </trkpt>
      <trkpt lat="47.25038" lon="-1.56413">
        <ele>72</ele>
        <time>2022-05-03T08:57:38Z</time>
      </trkpt>
      <trkpt lat="47.25039" lon="-1.56413">
        <ele>72</ele>
        <time>2022-05-03T08:57:39Z</time>
      </trkpt>
      <trkpt lat="47.2504" lon="-1.56414">
        <ele>73</ele>
        <time>2022-05-03T08:57:40Z</time>
      </trkpt>
      <trkpt lat="47.25042" lon="-1.56415">
        <ele>72</ele>
        <time>2022-05-03T08:57:41Z</time>
      </trkpt>
      <trkpt lat="47.25043" lon="-1.56416">
        <ele>73</ele>
        <time>2022-05-03T08:57:42Z</time>
      </trkpt>
      <trkpt lat="47.25044" lon="-1.56416">
        <ele>73</ele>
        <time>2022-05-03T08:57:43Z</time>
      </trkpt>
      <trkpt lat="47.25045" lon="-1.56417">
        <ele>73</ele>
        <time>2022-05-03T08:57:44Z</time>
      </trkpt>
      <trkpt lat="47.25047" lon="-1.56418">
        <ele>73</ele>
        <time>2022-05-03T08:57:45Z</time>
      </trkpt>
      <trkpt lat="47.25048" lon="-1.56419">
        <ele>73</ele>
        <time>2022-05-03T08:57:46Z</time>
      </trkpt>
      <trkpt lat="47.25049" lon="-1.56419">
        <ele>73</ele>
        <time>2022-05-03T08:57:47Z</time>
      </trkpt>
      <trkpt lat="47.2505" lon="-1.5642">
        <ele>73</ele>
        <time>2022-05-03T08:57:48Z</time>
      </trkpt>
      <trkpt lat="47.25051" lon="-1.56422">
        <ele>73</ele>
        <time>2022-05-03T08:57:49Z</time>
      </trkpt>
      <trkpt lat="47.25052" lon="-1.56422">
        <ele>73</ele>
        <time>2022-05-03T08:57:50Z</time>
      </trkpt>
      <trkpt lat="47.25053" lon="-1.56423">
        <ele>73</ele>
        <time>2022-05-03T08:57:51Z</time>
      </trkpt>
      <trkpt lat="47.25055" lon="-1.56424">
        <ele>73</ele>
        <time>2022-05-03T08:57:52Z</time>
      </trkpt>
      <trkpt lat="47.25056" lon="-1.56425">
        <ele>73</ele>
        <time>2022-05-03T08:57:53Z</time>
      </trkpt>
      <trkpt lat="47.25057" lon="-1.56426">
        <ele>72</ele>
        <time>2022-05-03T08:57:54Z</time>
      </trkpt>
      <trkpt lat="47.25058" lon="-1.56426">
        <ele>72</ele>
        <time>2022-05-03T08:57:55Z</time>
      </trkpt>
      <trkpt lat="47.2506" lon="-1.56427">
        <ele>73</ele>
        <time>2022-05-03T08:57:56Z</time>
      </trkpt>
      <trkpt lat="47.25061" lon="-1.56428">
        <ele>73</ele>
        <time>2022-05-03T08:57:57Z</time>
      </trkpt>
      <trkpt lat="47.25062" lon="-1.56429">
        <ele>73</ele>
        <time>2022-05-03T08:57:58Z</time>
      </trkpt>
      <trkpt lat="47.25063" lon="-1.5643">
        <ele>73</ele>
        <time>2022-05-03T08:57:59Z</time>
      </trkpt>
      <trkpt lat="47.25065" lon="-1.56431">
        <ele>74</ele>
        <time>2022-05-03T08:58:00Z</time>
      </trkpt>
      <trkpt lat="47.25066" lon="-1.56431">
        <ele>74</ele>
        <time>2022-05-03T08:58:01Z</time>
      </trkpt>
      <trkpt lat="47.25066" lon="-1.56432">
        <ele>74</ele>
        <time>2022-05-03T08:58:02Z</time>
      </trkpt>
      <trkpt lat="47.25068" lon="-1.56433">
        <ele>75</ele>
        <time>2022-05-03T08:58:03Z</time>
      </trkpt>
      <trkpt lat="47.25069" lon="-1.56434">
        <ele>74</ele>
        <time>2022-05-03T08:58:04Z</time>
      </trkpt>
      <trkpt lat="47.2507" lon="-1.56435">
        <ele>74</ele>
        <time>2022-05-03T08:58:05Z</time>
      </trkpt>
      <trkpt lat="47.25071" lon="-1.56436">
        <ele>74</ele>
        <time>2022-05-03T08:58:06Z</time>
      </trkpt>
      <trkpt lat="47.25073" lon="-1.56437">
        <ele>74</ele>
        <time>2022-05-03T08:58:07Z</time>
      </trkpt>
      <trkpt lat="47.25073" lon="-1.56437">
        <ele>74</ele>
        <time>2022-05-03T08:58:08Z</time>
      </trkpt>
      <trkpt lat="47.25074" lon="-1.56438">
        <ele>75</ele>
        <time>2022-05-03T08:58:09Z</time>
      </trkpt>
      <trkpt lat="47.25076" lon="-1.56439">
        <ele>75</ele>
        <time>2022-05-03T08:58:10Z</time>
      </trkpt>
      <trkpt lat="47.25077" lon="-1.5644">
        <ele>75</ele>
        <time>2022-05-03T08:58:11Z</time>
      </trkpt>
      <trkpt lat="47.25078" lon="-1.5644">
        <ele>74</ele>
        <time>2022-05-03T08:58:12Z</time>
      </trkpt>
      <trkpt lat="47.25079" lon="-1.56441">
        <ele>75</ele>
        <time>2022-05-03T08:58:13Z</time>
      </trkpt>
      <trkpt lat="47.2508" lon="-1.56442">
        <ele>74</ele>
        <time>2022-05-03T08:58:14Z</time>
      </trkpt>
      <trkpt lat="47.25081" lon="-1.56443">
        <ele>75</ele>
        <time>2022-05-03T08:58:15Z</time>
      </trkpt>
      <trkpt lat="47.25082" lon="-1.56444">
        <ele>75</ele>
        <time>2022-05-03T08:58:16Z</time>
      </trkpt>
      <trkpt lat="47.25084" lon="-1.56445">
        <ele>75</ele>
        <time>2022-05-03T08:58:17Z</time>
      </trkpt>
      <trkpt lat="47.25085" lon="-1.56446">
        <ele>75</ele>
        <time>2022-05-03T08:58:18Z</time>
      </trkpt>
      <trkpt lat="47.25086" lon="-1.56446">
        <ele>75</ele>
        <time>2022-05-03T08:58:19Z</time>
      </trkpt>
      <trkpt lat="47.25087" lon="-1.56447">
        <ele>75</ele>
        <time>2022-05-03T08:58:20Z</time>
      </trkpt>
      <trkpt lat="47.25088" lon="-1.56447">
        <ele>76</ele>
        <time>2022-05-03T08:58:21Z</time>
      </trkpt>
      <trkpt lat="47.25089" lon="-1.56448">
        <ele>76</ele>
        <time>2022-05-03T08:58:22Z</time>
      </trkpt>
      <trkpt lat="47.2509" lon="-1.56449">
        <ele>76</ele>
        <time>2022-05-03T08:58:23Z</time>
      </trkpt>
      <trkpt lat="47.25091" lon="-1.5645">
        <ele>76</ele>
        <time>2022-05-03T08:58:24Z</time>
      </trkpt>
      <trkpt lat="47.25092" lon="-1.56451">
        <ele>77</ele>
        <time>2022-05-03T08:58:25Z</time>
      </trkpt>
      <trkpt lat="47.25094" lon="-1.56451">
        <ele>77</ele>
        <time>2022-05-03T08:58:26Z</time>
      </trkpt>
      <trkpt lat="47.25095" lon="-1.56452">
        <ele>77</ele>
        <time>2022-05-03T08:58:27Z</time>
      </trkpt>
      <trkpt lat="47.25096" lon="-1.56454">
        <ele>77</ele>
        <time>2022-05-03T08:58:28Z</time>
      </trkpt>
      <trkpt lat="47.25098" lon="-1.56455">
        <ele>77</ele>
        <time>2022-05-03T08:58:29Z</time>
      </trkpt>
      <trkpt lat="47.25099" lon="-1.56456">
        <ele>77</ele>
        <time>2022-05-03T08:58:30Z</time>
      </trkpt>
      <trkpt lat="47.251" lon="-1.56457">
        <ele>77</ele>
        <time>2022-05-03T08:58:31Z</time>
      </trkpt>
      <trkpt lat="47.25102" lon="-1.56458">
        <ele>77</ele>
        <time>2022-05-03T08:58:32Z</time>
      </trkpt>
      <trkpt lat="47.25103" lon="-1.56459">
        <ele>77</ele>
        <time>2022-05-03T08:58:33Z</time>
      </trkpt>
      <trkpt lat="47.25104" lon="-1.5646">
        <ele>77</ele>
        <time>2022-05-03T08:58:34Z</time>
      </trkpt>
      <trkpt lat="47.25105" lon="-1.56461">
        <ele>78</ele>
        <time>2022-05-03T08:58:35Z</time>
      </trkpt>
      <trkpt lat="47.25106" lon="-1.56461">
        <ele>78</ele>
        <time>2022-05-03T08:58:36Z</time>
      </trkpt>
      <trkpt lat="47.25107" lon="-1.56462">
        <ele>79</ele>
        <time>2022-05-03T08:58:37Z</time>
      </trkpt>
      <trkpt lat="47.25108" lon="-1.56462">
        <ele>79</ele>
        <time>2022-05-03T08:58:38Z</time>
      </trkpt>
      <trkpt lat="47.25109" lon="-1.56463">
        <ele>79</ele>
        <time>2022-05-03T08:58:39Z</time>
      </trkpt>
      <trkpt lat="47.2511" lon="-1.56464">
        <ele>79</ele>
        <time>2022-05-03T08:58:40Z</time>
      </trkpt>
      <trkpt lat="47.25111" lon="-1.56466">
        <ele>79</ele>
        <time>2022-05-03T08:58:41Z</time>
      </trkpt>
      <trkpt lat="47.25112" lon="-1.56466">
        <ele>79</ele>
        <time>2022-05-03T08:58:42Z</time>
      </trkpt>
      <trkpt lat="47.25113" lon="-1.56467">
        <ele>79</ele>
        <time>2022-05-03T08:58:43Z</time>
      </trkpt>
      <trkpt lat="47.25114" lon="-1.56468">
        <ele>80</ele>
        <time>2022-05-03T08:58:44Z</time>
      </trkpt>
      <trkpt lat="47.25116" lon="-1.56469">
        <ele>80</ele>
        <time>2022-05-03T08:58:45Z</time>
      </trkpt>
      <trkpt lat="47.25116" lon="-1.5647">
        <ele>80</ele>
        <time>2022-05-03T08:58:46Z</time>
      </trkpt>
      <trkpt lat="47.25118" lon="-1.56471">
        <ele>79</ele>
        <time>2022-05-03T08:58:47Z</time>
      </trkpt>
      <trkpt lat="47.25119" lon="-1.56473">
        <ele>78</ele>
        <time>2022-05-03T08:58:48Z</time>
      </trkpt>
      <trkpt lat="47.2512" lon="-1.56475">
        <ele>78</ele>
        <time>2022-05-03T08:58:49Z</time>
      </trkpt>
      <trkpt lat="47.25121" lon="-1.56476">
        <ele>77</ele>
        <time>2022-05-03T08:58:50Z</time>
      </trkpt>
      <trkpt lat="47.25122" lon="-1.56477">
        <ele>77</ele>
        <time>2022-05-03T08:58:51Z</time>
      </trkpt>
      <trkpt lat="47.25123" lon="-1.56479">
        <ele>77</ele>
        <time>2022-05-03T08:58:52Z</time>
      </trkpt>
      <trkpt lat="47.25124" lon="-1.5648">
        <ele>77</ele>
        <time>2022-05-03T08:58:53Z</time>
      </trkpt>
      <trkpt lat="47.25125" lon="-1.56481">
        <ele>77</ele>
        <time>2022-05-03T08:58:54Z</time>
      </trkpt>
      <trkpt lat="47.25126" lon="-1.56482">
        <ele>77</ele>
        <time>2022-05-03T08:58:55Z</time>
      </trkpt>
      <trkpt lat="47.25127" lon="-1.56483">
        <ele>77</ele>
        <time>2022-05-03T08:58:56Z</time>
      </trkpt>
      <trkpt lat="47.25128" lon="-1.56484">
        <ele>77</ele>
        <time>2022-05-03T08:58:57Z</time>
      </trkpt>
      <trkpt lat="47.25129" lon="-1.56484">
        <ele>77</ele>
        <time>2022-05-03T08:58:58Z</time>
      </trkpt>
      <trkpt lat="47.25131" lon="-1.56485">
        <ele>77</ele>
        <time>2022-05-03T08:58:59Z</time>
      </trkpt>
      <trkpt lat="47.25132" lon="-1.56486">
        <ele>76</ele>
        <time>2022-05-03T08:59:00Z</time>
      </trkpt>
      <trkpt lat="47.25132" lon="-1.56487">
        <ele>76</ele>
        <time>2022-05-03T08:59:01Z</time>
      </trkpt>
      <trkpt lat="47.25134" lon="-1.56488">
        <ele>75</ele>
        <time>2022-05-03T08:59:02Z</time>
      </trkpt>
      <trkpt lat="47.25135" lon="-1.56488">
        <ele>75</ele>
        <time>2022-05-03T08:59:03Z</time>
      </trkpt>
      <trkpt lat="47.25136" lon="-1.56489">
        <ele>75</ele>
        <time>2022-05-03T08:59:04Z</time>
      </trkpt>
      <trkpt lat="47.25137" lon="-1.5649">
        <ele>75</ele>
        <time>2022-05-03T08:59:05Z</time>
      </trkpt>
      <trkpt lat="47.25138" lon="-1.56491">
        <ele>75</ele>
        <time>2022-05-03T08:59:06Z</time>
      </trkpt>
      <trkpt lat="47.2514" lon="-1.56492">
        <ele>75</ele>
        <time>2022-05-03T08:59:07Z</time>
      </trkpt>
      <trkpt lat="47.25142" lon="-1.56493">
        <ele>76</ele>
        <time>2022-05-03T08:59:08Z</time>
      </trkpt>
      <trkpt lat="47.25143" lon="-1.56495">
        <ele>76</ele>
        <time>2022-05-03T08:59:09Z</time>
      </trkpt>
      <trkpt lat="47.25144" lon="-1.56496">
        <ele>76</ele>
        <time>2022-05-03T08:59:10Z</time>
      </trkpt>
      <trkpt lat="47.25145" lon="-1.56496">
        <ele>76</ele>
        <time>2022-05-03T08:59:11Z</time>
      </trkpt>
      <trkpt lat="47.25147" lon="-1.56497">
        <ele>76</ele>
        <time>2022-05-03T08:59:12Z</time>
      </trkpt>
      <trkpt lat="47.25148" lon="-1.56498">
        <ele>76</ele>
        <time>2022-05-03T08:59:13Z</time>
      </trkpt>
      <trkpt lat="47.25149" lon="-1.56499">
        <ele>76</ele>
        <time>2022-05-03T08:59:14Z</time>
      </trkpt>
      <trkpt lat="47.2515" lon="-1.56499">
        <ele>76</ele>
        <time>2022-05-03T08:59:15Z</time>
      </trkpt>
      <trkpt lat="47.25152" lon="-1.56501">
        <ele>76</ele>
        <time>2022-05-03T08:59:16Z</time>
      </trkpt>
      <trkpt lat="47.25153" lon="-1.56501">
        <ele>76</ele>
        <time>2022-05-03T08:59:17Z</time>
      </trkpt>
      <trkpt lat="47.25154" lon="-1.56502">
        <ele>76</ele>
        <time>2022-05-03T08:59:18Z</time>
      </trkpt>
      <trkpt lat="47.25155" lon="-1.56503">
        <ele>76</ele>
        <time>2022-05-03T08:59:19Z</time>
      </trkpt>
      <trkpt lat="47.25156" lon="-1.56504">
        <ele>76</ele>
        <time>2022-05-03T08:59:20Z</time>
      </trkpt>
      <trkpt lat="47.25157" lon="-1.56504">
        <ele>76</ele>
        <time>2022-05-03T08:59:21Z</time>
      </trkpt>
      <trkpt lat="47.25158" lon="-1.56505">
        <ele>76</ele>
        <time>2022-05-03T08:59:22Z</time>
      </trkpt>
      <trkpt lat="47.25159" lon="-1.56505">
        <ele>77</ele>
        <time>2022-05-03T08:59:23Z</time>
      </trkpt>
      <trkpt lat="47.2516" lon="-1.56505">
        <ele>77</ele>
        <time>2022-05-03T08:59:24Z</time>
      </trkpt>
      <trkpt lat="47.25161" lon="-1.56506">
        <ele>76</ele>
        <time>2022-05-03T08:59:25Z</time>
      </trkpt>
      <trkpt lat="47.25162" lon="-1.56506">
        <ele>76</ele>
        <time>2022-05-03T08:59:26Z</time>
      </trkpt>
      <trkpt lat="47.25163" lon="-1.56507">
        <ele>76</ele>
        <time>2022-05-03T08:59:27Z</time>
      </trkpt>
      <trkpt lat="47.25163" lon="-1.56506">
        <ele>76</ele>
        <time>2022-05-03T08:59:28Z</time>
      </trkpt>
      <trkpt lat="47.25164" lon="-1.56507">
        <ele>76</ele>
        <time>2022-05-03T08:59:29Z</time>
      </trkpt>
      <trkpt lat="47.25165" lon="-1.56506">
        <ele>77</ele>
        <time>2022-05-03T08:59:30Z</time>
      </trkpt>
      <trkpt lat="47.25166" lon="-1.56506">
        <ele>77</ele>
        <time>2022-05-03T08:59:31Z</time>
      </trkpt>
      <trkpt lat="47.25167" lon="-1.56506">
        <ele>77</ele>
        <time>2022-05-03T08:59:32Z</time>
      </trkpt>
      <trkpt lat="47.25168" lon="-1.56506">
        <ele>76</ele>
        <time>2022-05-03T08:59:33Z</time>
      </trkpt>
      <trkpt lat="47.25168" lon="-1.56505">
        <ele>76</ele>
        <time>2022-05-03T08:59:34Z</time>
      </trkpt>
      <trkpt lat="47.25168" lon="-1.56504">
        <ele>77</ele>
        <time>2022-05-03T08:59:35Z</time>
      </trkpt>
      <trkpt lat="47.25168" lon="-1.56503">
        <ele>78</ele>
        <time>2022-05-03T08:59:36Z</time>
      </trkpt>
      <trkpt lat="47.25168" lon="-1.56502">
        <ele>79</ele>
        <time>2022-05-03T08:59:37Z</time>
      </trkpt>
      <trkpt lat="47.25168" lon="-1.565">
        <ele>80</ele>
        <time>2022-05-03T08:59:38Z</time>
      </trkpt>
      <trkpt lat="47.25169" lon="-1.56499">
        <ele>80</ele>
        <time>2022-05-03T08:59:39Z</time>
      </trkpt>
      <trkpt lat="47.25169" lon="-1.56498">
        <ele>81</ele>
        <time>2022-05-03T08:59:40Z</time>
      </trkpt>
      <trkpt lat="47.25169" lon="-1.56496">
        <ele>81</ele>
        <time>2022-05-03T08:59:41Z</time>
      </trkpt>
      <trkpt lat="47.25169" lon="-1.56495">
        <ele>81</ele>
        <time>2022-05-03T08:59:42Z</time>
      </trkpt>
      <trkpt lat="47.25169" lon="-1.56494">
        <ele>81</ele>
        <time>2022-05-03T08:59:43Z</time>
      </trkpt>
      <trkpt lat="47.25169" lon="-1.56492">
        <ele>82</ele>
        <time>2022-05-03T08:59:44Z</time>
      </trkpt>
      <trkpt lat="47.25169" lon="-1.56491">
        <ele>82</ele>
        <time>2022-05-03T08:59:45Z</time>
      </trkpt>
      <trkpt lat="47.25169" lon="-1.56489">
        <ele>81</ele>
        <time>2022-05-03T08:59:46Z</time>
      </trkpt>
      <trkpt lat="47.25169" lon="-1.56487">
        <ele>81</ele>
        <time>2022-05-03T08:59:47Z</time>
      </trkpt>
      <trkpt lat="47.25169" lon="-1.56485">
        <ele>82</ele>
        <time>2022-05-03T08:59:48Z</time>
      </trkpt>
      <trkpt lat="47.2517" lon="-1.56483">
        <ele>82</ele>
        <time>2022-05-03T08:59:49Z</time>
      </trkpt>
      <trkpt lat="47.25169" lon="-1.56482">
        <ele>82</ele>
        <time>2022-05-03T08:59:50Z</time>
      </trkpt>
      <trkpt lat="47.25169" lon="-1.5648">
        <ele>82</ele>
        <time>2022-05-03T08:59:51Z</time>
      </trkpt>
      <trkpt lat="47.25169" lon="-1.56478">
        <ele>82</ele>
        <time>2022-05-03T08:59:52Z</time>
      </trkpt>
      <trkpt lat="47.25169" lon="-1.56478">
        <ele>82</ele>
        <time>2022-05-03T08:59:53Z</time>
      </trkpt>
      <trkpt lat="47.2517" lon="-1.56475">
        <ele>82</ele>
        <time>2022-05-03T08:59:54Z</time>
      </trkpt>
      <trkpt lat="47.2517" lon="-1.56473">
        <ele>83</ele>
        <time>2022-05-03T08:59:55Z</time>
      </trkpt>
      <trkpt lat="47.2517" lon="-1.56472">
        <ele>82</ele>
        <time>2022-05-03T08:59:56Z</time>
      </trkpt>
      <trkpt lat="47.2517" lon="-1.5647">
        <ele>82</ele>
        <time>2022-05-03T08:59:57Z</time>
      </trkpt>
      <trkpt lat="47.25171" lon="-1.56468">
        <ele>83</ele>
        <time>2022-05-03T08:59:58Z</time>
      </trkpt>
      <trkpt lat="47.2517" lon="-1.56466">
        <ele>82</ele>
        <time>2022-05-03T08:59:59Z</time>
      </trkpt>
      <trkpt lat="47.2517" lon="-1.56464">
        <ele>83</ele>
        <time>2022-05-03T09:00:00Z</time>
      </trkpt>
      <trkpt lat="47.2517" lon="-1.56462">
        <ele>83</ele>
        <time>2022-05-03T09:00:01Z</time>
      </trkpt>
      <trkpt lat="47.2517" lon="-1.5646">
        <ele>83</ele>
        <time>2022-05-03T09:00:02Z</time>
      </trkpt>
      <trkpt lat="47.2517" lon="-1.56458">
        <ele>82</ele>
        <time>2022-05-03T09:00:03Z</time>
      </trkpt>
      <trkpt lat="47.2517" lon="-1.56456">
        <ele>83</ele>
        <time>2022-05-03T09:00:04Z</time>
      </trkpt>
      <trkpt lat="47.25171" lon="-1.56454">
        <ele>84</ele>
        <time>2022-05-03T09:00:05Z</time>
      </trkpt>
      <trkpt lat="47.25171" lon="-1.56452">
        <ele>83</ele>
        <time>2022-05-03T09:00:06Z</time>
      </trkpt>
      <trkpt lat="47.25172" lon="-1.5645">
        <ele>83</ele>
        <time>2022-05-03T09:00:07Z</time>
      </trkpt>
      <trkpt lat="47.25172" lon="-1.56448">
        <ele>84</ele>
        <time>2022-05-03T09:00:08Z</time>
      </trkpt>
      <trkpt lat="47.25172" lon="-1.56447">
        <ele>85</ele>
        <time>2022-05-03T09:00:09Z</time>
      </trkpt>
      <trkpt lat="47.25172" lon="-1.56444">
        <ele>85</ele>
        <time>2022-05-03T09:00:10Z</time>
      </trkpt>
      <trkpt lat="47.25172" lon="-1.56443">
        <ele>84</ele>
        <time>2022-05-03T09:00:11Z</time>
      </trkpt>
      <trkpt lat="47.25171" lon="-1.56442">
        <ele>84</ele>
        <time>2022-05-03T09:00:12Z</time>
      </trkpt>
      <trkpt lat="47.25171" lon="-1.5644">
        <ele>85</ele>
        <time>2022-05-03T09:00:13Z</time>
      </trkpt>
      <trkpt lat="47.25172" lon="-1.56437">
        <ele>85</ele>
        <time>2022-05-03T09:00:14Z</time>
      </trkpt>
      <trkpt lat="47.25172" lon="-1.56435">
        <ele>85</ele>
        <time>2022-05-03T09:00:15Z</time>
      </trkpt>
      <trkpt lat="47.25172" lon="-1.56433">
        <ele>85</ele>
        <time>2022-05-03T09:00:16Z</time>
      </trkpt>
      <trkpt lat="47.25172" lon="-1.56432">
        <ele>85</ele>
        <time>2022-05-03T09:00:17Z</time>
      </trkpt>
      <trkpt lat="47.25172" lon="-1.56431">
        <ele>85</ele>
        <time>2022-05-03T09:00:18Z</time>
      </trkpt>
      <trkpt lat="47.25174" lon="-1.56429">
        <ele>85</ele>
        <time>2022-05-03T09:00:19Z</time>
      </trkpt>
      <trkpt lat="47.25175" lon="-1.56426">
        <ele>84</ele>
        <time>2022-05-03T09:00:20Z</time>
      </trkpt>
      <trkpt lat="47.25176" lon="-1.56424">
        <ele>84</ele>
        <time>2022-05-03T09:00:21Z</time>
      </trkpt>
      <trkpt lat="47.25178" lon="-1.56422">
        <ele>83</ele>
        <time>2022-05-03T09:00:22Z</time>
      </trkpt>
      <trkpt lat="47.2518" lon="-1.5642">
        <ele>82</ele>
        <time>2022-05-03T09:00:23Z</time>
      </trkpt>
      <trkpt lat="47.25181" lon="-1.56418">
        <ele>81</ele>
        <time>2022-05-03T09:00:24Z</time>
      </trkpt>
      <trkpt lat="47.25183" lon="-1.56416">
        <ele>80</ele>
        <time>2022-05-03T09:00:25Z</time>
      </trkpt>
      <trkpt lat="47.25185" lon="-1.56416">
        <ele>80</ele>
        <time>2022-05-03T09:00:26Z</time>
      </trkpt>
      <trkpt lat="47.25186" lon="-1.56415">
        <ele>80</ele>
        <time>2022-05-03T09:00:27Z</time>
      </trkpt>
      <trkpt lat="47.25188" lon="-1.56414">
        <ele>80</ele>
        <time>2022-05-03T09:00:28Z</time>
      </trkpt>
      <trkpt lat="47.25189" lon="-1.56413">
        <ele>80</ele>
        <time>2022-05-03T09:00:29Z</time>
      </trkpt>
      <trkpt lat="47.25191" lon="-1.56412">
        <ele>80</ele>
        <time>2022-05-03T09:00:30Z</time>
      </trkpt>
      <trkpt lat="47.25193" lon="-1.56413">
        <ele>79</ele>
        <time>2022-05-03T09:00:31Z</time>
      </trkpt>
      <trkpt lat="47.25194" lon="-1.56412">
        <ele>79</ele>
        <time>2022-05-03T09:00:32Z</time>
      </trkpt>
      <trkpt lat="47.25196" lon="-1.56412">
        <ele>79</ele>
        <time>2022-05-03T09:00:33Z</time>
      </trkpt>
      <trkpt lat="47.25197" lon="-1.56412">
        <ele>79</ele>
        <time>2022-05-03T09:00:34Z</time>
      </trkpt>
      <trkpt lat="47.25198" lon="-1.56411">
        <ele>80</ele>
        <time>2022-05-03T09:00:35Z</time>
      </trkpt>
      <trkpt lat="47.25199" lon="-1.56411">
        <ele>79</ele>
        <time>2022-05-03T09:00:36Z</time>
      </trkpt>
      <trkpt lat="47.252" lon="-1.56409">
        <ele>79</ele>
        <time>2022-05-03T09:00:37Z</time>
      </trkpt>
      <trkpt lat="47.252" lon="-1.56408">
        <ele>79</ele>
        <time>2022-05-03T09:00:38Z</time>
      </trkpt>
      <trkpt lat="47.252" lon="-1.56407">
        <ele>79</ele>
        <time>2022-05-03T09:00:39Z</time>
      </trkpt>
      <trkpt lat="47.25201" lon="-1.56406">
        <ele>79</ele>
        <time>2022-05-03T09:00:40Z</time>
      </trkpt>
      <trkpt lat="47.25201" lon="-1.56405">
        <ele>79</ele>
        <time>2022-05-03T09:00:41Z</time>
      </trkpt>
      <trkpt lat="47.25202" lon="-1.56404">
        <ele>79</ele>
        <time>2022-05-03T09:00:42Z</time>
      </trkpt>
      <trkpt lat="47.25203" lon="-1.56404">
        <ele>79</ele>
        <time>2022-05-03T09:00:43Z</time>
      </trkpt>
      <trkpt lat="47.25204" lon="-1.56403">
        <ele>79</ele>
        <time>2022-05-03T09:00:44Z</time>
      </trkpt>
      <trkpt lat="47.25204" lon="-1.56402">
        <ele>80</ele>
        <time>2022-05-03T09:00:45Z</time>
      </trkpt>
      <trkpt lat="47.25205" lon="-1.56402">
        <ele>80</ele>
        <time>2022-05-03T09:00:46Z</time>
      </trkpt>
      <trkpt lat="47.25206" lon="-1.564">
        <ele>81</ele>
        <time>2022-05-03T09:00:47Z</time>
      </trkpt>
      <trkpt lat="47.25206" lon="-1.56399">
        <ele>81</ele>
        <time>2022-05-03T09:00:48Z</time>
      </trkpt>
      <trkpt lat="47.25208" lon="-1.56397">
        <ele>82</ele>
        <time>2022-05-03T09:00:49Z</time>
      </trkpt>
      <trkpt lat="47.25208" lon="-1.56396">
        <ele>82</ele>
        <time>2022-05-03T09:00:50Z</time>
      </trkpt>
      <trkpt lat="47.25209" lon="-1.56395">
        <ele>82</ele>
        <time>2022-05-03T09:00:51Z</time>
      </trkpt>
      <trkpt lat="47.2521" lon="-1.56394">
        <ele>83</ele>
        <time>2022-05-03T09:00:52Z</time>
      </trkpt>
      <trkpt lat="47.25212" lon="-1.56393">
        <ele>82</ele>
        <time>2022-05-03T09:00:53Z</time>
      </trkpt>
      <trkpt lat="47.25213" lon="-1.56392">
        <ele>82</ele>
        <time>2022-05-03T09:00:54Z</time>
      </trkpt>
      <trkpt lat="47.25215" lon="-1.56391">
        <ele>81</ele>
        <time>2022-05-03T09:00:55Z</time>
      </trkpt>
      <trkpt lat="47.25216" lon="-1.56391">
        <ele>81</ele>
        <time>2022-05-03T09:00:56Z</time>
      </trkpt>
      <trkpt lat="47.25217" lon="-1.5639">
        <ele>81</ele>
        <time>2022-05-03T09:00:57Z</time>
      </trkpt>
      <trkpt lat="47.25218" lon="-1.56389">
        <ele>81</ele>
        <time>2022-05-03T09:00:58Z</time>
      </trkpt>
      <trkpt lat="47.2522" lon="-1.56388">
        <ele>81</ele>
        <time>2022-05-03T09:00:59Z</time>
      </trkpt>
      <trkpt lat="47.25222" lon="-1.56387">
        <ele>80</ele>
        <time>2022-05-03T09:01:00Z</time>
      </trkpt>
      <trkpt lat="47.25223" lon="-1.56387">
        <ele>80</ele>
        <time>2022-05-03T09:01:01Z</time>
      </trkpt>
      <trkpt lat="47.25224" lon="-1.56387">
        <ele>80</ele>
        <time>2022-05-03T09:01:02Z</time>
      </trkpt>
      <trkpt lat="47.25225" lon="-1.56386">
        <ele>79</ele>
        <time>2022-05-03T09:01:03Z</time>
      </trkpt>
      <trkpt lat="47.25227" lon="-1.56386">
        <ele>79</ele>
        <time>2022-05-03T09:01:04Z</time>
      </trkpt>
      <trkpt lat="47.25229" lon="-1.56385">
        <ele>79</ele>
        <time>2022-05-03T09:01:05Z</time>
      </trkpt>
      <trkpt lat="47.2523" lon="-1.56384">
        <ele>78</ele>
        <time>2022-05-03T09:01:06Z</time>
      </trkpt>
      <trkpt lat="47.25231" lon="-1.56384">
        <ele>78</ele>
        <time>2022-05-03T09:01:07Z</time>
      </trkpt>
      <trkpt lat="47.25233" lon="-1.56383">
        <ele>78</ele>
        <time>2022-05-03T09:01:08Z</time>
      </trkpt>
      <trkpt lat="47.25234" lon="-1.56383">
        <ele>78</ele>
        <time>2022-05-03T09:01:09Z</time>
      </trkpt>
      <trkpt lat="47.25236" lon="-1.56382">
        <ele>77</ele>
        <time>2022-05-03T09:01:10Z</time>
      </trkpt>
      <trkpt lat="47.25237" lon="-1.56382">
        <ele>77</ele>
        <time>2022-05-03T09:01:11Z</time>
      </trkpt>
      <trkpt lat="47.25238" lon="-1.56381">
        <ele>76</ele>
        <time>2022-05-03T09:01:12Z</time>
      </trkpt>
      <trkpt lat="47.2524" lon="-1.56381">
        <ele>76</ele>
        <time>2022-05-03T09:01:13Z</time>
      </trkpt>
      <trkpt lat="47.25241" lon="-1.56381">
        <ele>76</ele>
        <time>2022-05-03T09:01:14Z</time>
      </trkpt>
      <trkpt lat="47.25243" lon="-1.56381">
        <ele>76</ele>
        <time>2022-05-03T09:01:15Z</time>
      </trkpt>
      <trkpt lat="47.25244" lon="-1.56382">
        <ele>76</ele>
        <time>2022-05-03T09:01:16Z</time>
      </trkpt>
      <trkpt lat="47.25245" lon="-1.56381">
        <ele>75</ele>
        <time>2022-05-03T09:01:17Z</time>
      </trkpt>
      <trkpt lat="47.25246" lon="-1.5638">
        <ele>75</ele>
        <time>2022-05-03T09:01:18Z</time>
      </trkpt>
      <trkpt lat="47.25247" lon="-1.56379">
        <ele>75</ele>
        <time>2022-05-03T09:01:19Z</time>
      </trkpt>
      <trkpt lat="47.25249" lon="-1.56379">
        <ele>75</ele>
        <time>2022-05-03T09:01:20Z</time>
      </trkpt>
      <trkpt lat="47.2525" lon="-1.56379">
        <ele>76</ele>
        <time>2022-05-03T09:01:21Z</time>
      </trkpt>
      <trkpt lat="47.25251" lon="-1.5638">
        <ele>76</ele>
        <time>2022-05-03T09:01:22Z</time>
      </trkpt>
      <trkpt lat="47.25253" lon="-1.5638">
        <ele>76</ele>
        <time>2022-05-03T09:01:23Z</time>
      </trkpt>
      <trkpt lat="47.25254" lon="-1.56379">
        <ele>76</ele>
        <time>2022-05-03T09:01:24Z</time>
      </trkpt>
      <trkpt lat="47.25255" lon="-1.56379">
        <ele>76</ele>
        <time>2022-05-03T09:01:25Z</time>
      </trkpt>
      <trkpt lat="47.25257" lon="-1.56378">
        <ele>76</ele>
        <time>2022-05-03T09:01:26Z</time>
      </trkpt>
      <trkpt lat="47.25258" lon="-1.56378">
        <ele>77</ele>
        <time>2022-05-03T09:01:27Z</time>
      </trkpt>
      <trkpt lat="47.2526" lon="-1.56377">
        <ele>77</ele>
        <time>2022-05-03T09:01:28Z</time>
      </trkpt>
      <trkpt lat="47.25261" lon="-1.56377">
        <ele>77</ele>
        <time>2022-05-03T09:01:29Z</time>
      </trkpt>
      <trkpt lat="47.25263" lon="-1.56377">
        <ele>77</ele>
        <time>2022-05-03T09:01:30Z</time>
      </trkpt>
      <trkpt lat="47.25264" lon="-1.56376">
        <ele>77</ele>
        <time>2022-05-03T09:01:31Z</time>
      </trkpt>
      <trkpt lat="47.25265" lon="-1.56376">
        <ele>77</ele>
        <time>2022-05-03T09:01:32Z</time>
      </trkpt>
      <trkpt lat="47.25266" lon="-1.56376">
        <ele>77</ele>
        <time>2022-05-03T09:01:33Z</time>
      </trkpt>
      <trkpt lat="47.25267" lon="-1.56377">
        <ele>77</ele>
        <time>2022-05-03T09:01:34Z</time>
      </trkpt>
      <trkpt lat="47.25269" lon="-1.56377">
        <ele>77</ele>
        <time>2022-05-03T09:01:35Z</time>
      </trkpt>
      <trkpt lat="47.2527" lon="-1.56377">
        <ele>77</ele>
        <time>2022-05-03T09:01:36Z</time>
      </trkpt>
      <trkpt lat="47.25272" lon="-1.56378">
        <ele>77</ele>
        <time>2022-05-03T09:01:37Z</time>
      </trkpt>
      <trkpt lat="47.25273" lon="-1.56378">
        <ele>77</ele>
        <time>2022-05-03T09:01:38Z</time>
      </trkpt>
      <trkpt lat="47.25274" lon="-1.56378">
        <ele>76</ele>
        <time>2022-05-03T09:01:39Z</time>
      </trkpt>
      <trkpt lat="47.25276" lon="-1.56379">
        <ele>76</ele>
        <time>2022-05-03T09:01:40Z</time>
      </trkpt>
      <trkpt lat="47.25277" lon="-1.56379">
        <ele>76</ele>
        <time>2022-05-03T09:01:41Z</time>
      </trkpt>
      <trkpt lat="47.25279" lon="-1.56379">
        <ele>76</ele>
        <time>2022-05-03T09:01:42Z</time>
      </trkpt>
      <trkpt lat="47.2528" lon="-1.56379">
        <ele>76</ele>
        <time>2022-05-03T09:01:43Z</time>
      </trkpt>
      <trkpt lat="47.25281" lon="-1.5638">
        <ele>76</ele>
        <time>2022-05-03T09:01:44Z</time>
      </trkpt>
      <trkpt lat="47.25282" lon="-1.5638">
        <ele>77</ele>
        <time>2022-05-03T09:01:45Z</time>
      </trkpt>
      <trkpt lat="47.25283" lon="-1.56381">
        <ele>77</ele>
        <time>2022-05-03T09:01:46Z</time>
      </trkpt>
      <trkpt lat="47.25285" lon="-1.56381">
        <ele>77</ele>
        <time>2022-05-03T09:01:47Z</time>
      </trkpt>
      <trkpt lat="47.25286" lon="-1.56381">
        <ele>77</ele>
        <time>2022-05-03T09:01:48Z</time>
      </trkpt>
      <trkpt lat="47.25287" lon="-1.56382">
        <ele>76</ele>
        <time>2022-05-03T09:01:49Z</time>
      </trkpt>
      <trkpt lat="47.25289" lon="-1.56382">
        <ele>77</ele>
        <time>2022-05-03T09:01:50Z</time>
      </trkpt>
      <trkpt lat="47.2529" lon="-1.56383">
        <ele>77</ele>
        <time>2022-05-03T09:01:51Z</time>
      </trkpt>
      <trkpt lat="47.25291" lon="-1.56383">
        <ele>77</ele>
        <time>2022-05-03T09:01:52Z</time>
      </trkpt>
      <trkpt lat="47.25293" lon="-1.56384">
        <ele>77</ele>
        <time>2022-05-03T09:01:53Z</time>
      </trkpt>
      <trkpt lat="47.25294" lon="-1.56385">
        <ele>77</ele>
        <time>2022-05-03T09:01:54Z</time>
      </trkpt>
      <trkpt lat="47.25295" lon="-1.56385">
        <ele>77</ele>
        <time>2022-05-03T09:01:55Z</time>
      </trkpt>
      <trkpt lat="47.25296" lon="-1.56386">
        <ele>77</ele>
        <time>2022-05-03T09:01:56Z</time>
      </trkpt>
      <trkpt lat="47.25298" lon="-1.56386">
        <ele>77</ele>
        <time>2022-05-03T09:01:57Z</time>
      </trkpt>
      <trkpt lat="47.25299" lon="-1.56386">
        <ele>77</ele>
        <time>2022-05-03T09:01:58Z</time>
      </trkpt>
      <trkpt lat="47.253" lon="-1.56386">
        <ele>77</ele>
        <time>2022-05-03T09:01:59Z</time>
      </trkpt>
      <trkpt lat="47.25302" lon="-1.56386">
        <ele>77</ele>
        <time>2022-05-03T09:02:00Z</time>
      </trkpt>
      <trkpt lat="47.25303" lon="-1.56387">
        <ele>77</ele>
        <time>2022-05-03T09:02:01Z</time>
      </trkpt>
      <trkpt lat="47.25304" lon="-1.56388">
        <ele>76</ele>
        <time>2022-05-03T09:02:02Z</time>
      </trkpt>
      <trkpt lat="47.25306" lon="-1.56388">
        <ele>77</ele>
        <time>2022-05-03T09:02:03Z</time>
      </trkpt>
      <trkpt lat="47.25307" lon="-1.56388">
        <ele>77</ele>
        <time>2022-05-03T09:02:04Z</time>
      </trkpt>
      <trkpt lat="47.25309" lon="-1.56389">
        <ele>76</ele>
        <time>2022-05-03T09:02:05Z</time>
      </trkpt>
      <trkpt lat="47.2531" lon="-1.56389">
        <ele>76</ele>
        <time>2022-05-03T09:02:06Z</time>
      </trkpt>
      <trkpt lat="47.25311" lon="-1.5639">
        <ele>76</ele>
        <time>2022-05-03T09:02:07Z</time>
      </trkpt>
      <trkpt lat="47.25313" lon="-1.56391">
        <ele>76</ele>
        <time>2022-05-03T09:02:08Z</time>
      </trkpt>
      <trkpt lat="47.25314" lon="-1.56391">
        <ele>76</ele>
        <time>2022-05-03T09:02:09Z</time>
      </trkpt>
      <trkpt lat="47.25316" lon="-1.56391">
        <ele>76</ele>
        <time>2022-05-03T09:02:10Z</time>
      </trkpt>
      <trkpt lat="47.25317" lon="-1.56392">
        <ele>76</ele>
        <time>2022-05-03T09:02:11Z</time>
      </trkpt>
      <trkpt lat="47.25318" lon="-1.56392">
        <ele>76</ele>
        <time>2022-05-03T09:02:12Z</time>
      </trkpt>
      <trkpt lat="47.25319" lon="-1.56393">
        <ele>76</ele>
        <time>2022-05-03T09:02:13Z</time>
      </trkpt>
      <trkpt lat="47.2532" lon="-1.56393">
        <ele>76</ele>
        <time>2022-05-03T09:02:14Z</time>
      </trkpt>
      <trkpt lat="47.25322" lon="-1.56394">
        <ele>76</ele>
        <time>2022-05-03T09:02:15Z</time>
      </trkpt>
      <trkpt lat="47.25323" lon="-1.56394">
        <ele>77</ele>
        <time>2022-05-03T09:02:16Z</time>
      </trkpt>
      <trkpt lat="47.25325" lon="-1.56394">
        <ele>76</ele>
        <time>2022-05-03T09:02:17Z</time>
      </trkpt>
      <trkpt lat="47.25326" lon="-1.56395">
        <ele>76</ele>
        <time>2022-05-03T09:02:18Z</time>
      </trkpt>
      <trkpt lat="47.25327" lon="-1.56396">
        <ele>76</ele>
        <time>2022-05-03T09:02:19Z</time>
      </trkpt>
      <trkpt lat="47.25329" lon="-1.56397">
        <ele>76</ele>
        <time>2022-05-03T09:02:20Z</time>
      </trkpt>
      <trkpt lat="47.2533" lon="-1.56397">
        <ele>76</ele>
        <time>2022-05-03T09:02:21Z</time>
      </trkpt>
      <trkpt lat="47.25332" lon="-1.56398">
        <ele>76</ele>
        <time>2022-05-03T09:02:22Z</time>
      </trkpt>
      <trkpt lat="47.25333" lon="-1.56398">
        <ele>76</ele>
        <time>2022-05-03T09:02:23Z</time>
      </trkpt>
      <trkpt lat="47.25334" lon="-1.56398">
        <ele>76</ele>
        <time>2022-05-03T09:02:24Z</time>
      </trkpt>
      <trkpt lat="47.25336" lon="-1.56399">
        <ele>76</ele>
        <time>2022-05-03T09:02:25Z</time>
      </trkpt>
      <trkpt lat="47.25337" lon="-1.56399">
        <ele>77</ele>
        <time>2022-05-03T09:02:26Z</time>
      </trkpt>
      <trkpt lat="47.25338" lon="-1.564">
        <ele>76</ele>
        <time>2022-05-03T09:02:27Z</time>
      </trkpt>
      <trkpt lat="47.2534" lon="-1.564">
        <ele>77</ele>
        <time>2022-05-03T09:02:28Z</time>
      </trkpt>
      <trkpt lat="47.25341" lon="-1.56401">
        <ele>78</ele>
        <time>2022-05-03T09:02:29Z</time>
      </trkpt>
      <trkpt lat="47.25343" lon="-1.56401">
        <ele>78</ele>
        <time>2022-05-03T09:02:30Z</time>
      </trkpt>
      <trkpt lat="47.25344" lon="-1.56402">
        <ele>78</ele>
        <time>2022-05-03T09:02:31Z</time>
      </trkpt>
      <trkpt lat="47.25345" lon="-1.56402">
        <ele>78</ele>
        <time>2022-05-03T09:02:32Z</time>
      </trkpt>
      <trkpt lat="47.25346" lon="-1.56403">
        <ele>78</ele>
        <time>2022-05-03T09:02:33Z</time>
      </trkpt>
      <trkpt lat="47.25347" lon="-1.56403">
        <ele>78</ele>
        <time>2022-05-03T09:02:34Z</time>
      </trkpt>
      <trkpt lat="47.25348" lon="-1.56404">
        <ele>78</ele>
        <time>2022-05-03T09:02:35Z</time>
      </trkpt>
      <trkpt lat="47.25349" lon="-1.56404">
        <ele>77</ele>
        <time>2022-05-03T09:02:36Z</time>
      </trkpt>
      <trkpt lat="47.2535" lon="-1.56404">
        <ele>77</ele>
        <time>2022-05-03T09:02:37Z</time>
      </trkpt>
      <trkpt lat="47.25351" lon="-1.56405">
        <ele>78</ele>
        <time>2022-05-03T09:02:38Z</time>
      </trkpt>
      <trkpt lat="47.25351" lon="-1.56405">
        <ele>78</ele>
        <time>2022-05-03T09:02:39Z</time>
      </trkpt>
      <trkpt lat="47.25353" lon="-1.56405">
        <ele>77</ele>
        <time>2022-05-03T09:02:40Z</time>
      </trkpt>
      <trkpt lat="47.25354" lon="-1.56405">
        <ele>77</ele>
        <time>2022-05-03T09:02:41Z</time>
      </trkpt>
      <trkpt lat="47.25356" lon="-1.56405">
        <ele>76</ele>
        <time>2022-05-03T09:02:42Z</time>
      </trkpt>
      <trkpt lat="47.25358" lon="-1.56406">
        <ele>76</ele>
        <time>2022-05-03T09:02:43Z</time>
      </trkpt>
      <trkpt lat="47.25359" lon="-1.56407">
        <ele>76</ele>
        <time>2022-05-03T09:02:44Z</time>
      </trkpt>
      <trkpt lat="47.25361" lon="-1.56407">
        <ele>77</ele>
        <time>2022-05-03T09:02:45Z</time>
      </trkpt>
      <trkpt lat="47.25362" lon="-1.56408">
        <ele>77</ele>
        <time>2022-05-03T09:02:46Z</time>
      </trkpt>
      <trkpt lat="47.25364" lon="-1.56408">
        <ele>77</ele>
        <time>2022-05-03T09:02:47Z</time>
      </trkpt>
      <trkpt lat="47.25365" lon="-1.56408">
        <ele>77</ele>
        <time>2022-05-03T09:02:48Z</time>
      </trkpt>
      <trkpt lat="47.25367" lon="-1.56409">
        <ele>77</ele>
        <time>2022-05-03T09:02:49Z</time>
      </trkpt>
      <trkpt lat="47.25368" lon="-1.56409">
        <ele>77</ele>
        <time>2022-05-03T09:02:50Z</time>
      </trkpt>
      <trkpt lat="47.25369" lon="-1.56409">
        <ele>78</ele>
        <time>2022-05-03T09:02:51Z</time>
      </trkpt>
      <trkpt lat="47.2537" lon="-1.5641">
        <ele>77</ele>
        <time>2022-05-03T09:02:52Z</time>
      </trkpt>
      <trkpt lat="47.25371" lon="-1.56411">
        <ele>77</ele>
        <time>2022-05-03T09:02:53Z</time>
      </trkpt>
      <trkpt lat="47.25372" lon="-1.56412">
        <ele>77</ele>
        <time>2022-05-03T09:02:54Z</time>
      </trkpt>
      <trkpt lat="47.25374" lon="-1.56413">
        <ele>78</ele>
        <time>2022-05-03T09:02:55Z</time>
      </trkpt>
      <trkpt lat="47.25375" lon="-1.56412">
        <ele>78</ele>
        <time>2022-05-03T09:02:56Z</time>
      </trkpt>
      <trkpt lat="47.25376" lon="-1.56412">
        <ele>78</ele>
        <time>2022-05-03T09:02:57Z</time>
      </trkpt>
      <trkpt lat="47.25377" lon="-1.56412">
        <ele>79</ele>
        <time>2022-05-03T09:02:58Z</time>
      </trkpt>
      <trkpt lat="47.25378" lon="-1.56412">
        <ele>79</ele>
        <time>2022-05-03T09:02:59Z</time>
      </trkpt>
      <trkpt lat="47.25379" lon="-1.56411">
        <ele>79</ele>
        <time>2022-05-03T09:03:00Z</time>
      </trkpt>
      <trkpt lat="47.2538" lon="-1.5641">
        <ele>80</ele>
        <time>2022-05-03T09:03:01Z</time>
      </trkpt>
      <trkpt lat="47.25382" lon="-1.56409">
        <ele>80</ele>
        <time>2022-05-03T09:03:02Z</time>
      </trkpt>
      <trkpt lat="47.25383" lon="-1.56408">
        <ele>80</ele>
        <time>2022-05-03T09:03:03Z</time>
      </trkpt>
      <trkpt lat="47.25384" lon="-1.56407">
        <ele>80</ele>
        <time>2022-05-03T09:03:04Z</time>
      </trkpt>
      <trkpt lat="47.25386" lon="-1.56406">
        <ele>80</ele>
        <time>2022-05-03T09:03:05Z</time>
      </trkpt>
      <trkpt lat="47.25387" lon="-1.56405">
        <ele>80</ele>
        <time>2022-05-03T09:03:06Z</time>
      </trkpt>
      <trkpt lat="47.25388" lon="-1.56404">
        <ele>80</ele>
        <time>2022-05-03T09:03:07Z</time>
      </trkpt>
      <trkpt lat="47.2539" lon="-1.56403">
        <ele>80</ele>
        <time>2022-05-03T09:03:08Z</time>
      </trkpt>
      <trkpt lat="47.25391" lon="-1.56403">
        <ele>79</ele>
        <time>2022-05-03T09:03:09Z</time>
      </trkpt>
      <trkpt lat="47.25392" lon="-1.56402">
        <ele>80</ele>
        <time>2022-05-03T09:03:10Z</time>
      </trkpt>
      <trkpt lat="47.25393" lon="-1.56402">
        <ele>80</ele>
        <time>2022-05-03T09:03:11Z</time>
      </trkpt>
      <trkpt lat="47.25394" lon="-1.56401">
        <ele>79</ele>
        <time>2022-05-03T09:03:12Z</time>
      </trkpt>
      <trkpt lat="47.25395" lon="-1.564">
        <ele>80</ele>
        <time>2022-05-03T09:03:13Z</time>
      </trkpt>
      <trkpt lat="47.25397" lon="-1.564">
        <ele>80</ele>
        <time>2022-05-03T09:03:14Z</time>
      </trkpt>
      <trkpt lat="47.25398" lon="-1.56399">
        <ele>80</ele>
        <time>2022-05-03T09:03:15Z</time>
      </trkpt>
      <trkpt lat="47.25399" lon="-1.56398">
        <ele>81</ele>
        <time>2022-05-03T09:03:16Z</time>
      </trkpt>
      <trkpt lat="47.25401" lon="-1.56398">
        <ele>81</ele>
        <time>2022-05-03T09:03:17Z</time>
      </trkpt>
      <trkpt lat="47.25401" lon="-1.56398">
        <ele>81</ele>
        <time>2022-05-03T09:03:18Z</time>
      </trkpt>
      <trkpt lat="47.25402" lon="-1.56399">
        <ele>81</ele>
        <time>2022-05-03T09:03:19Z</time>
      </trkpt>
      <trkpt lat="47.25403" lon="-1.564">
        <ele>81</ele>
        <time>2022-05-03T09:03:20Z</time>
      </trkpt>
      <trkpt lat="47.25403" lon="-1.56401">
        <ele>81</ele>
        <time>2022-05-03T09:03:21Z</time>
      </trkpt>
      <trkpt lat="47.25404" lon="-1.56401">
        <ele>81</ele>
        <time>2022-05-03T09:03:22Z</time>
      </trkpt>
      <trkpt lat="47.25404" lon="-1.56402">
        <ele>82</ele>
        <time>2022-05-03T09:03:23Z</time>
      </trkpt>
      <trkpt lat="47.25405" lon="-1.56403">
        <ele>81</ele>
        <time>2022-05-03T09:03:24Z</time>
      </trkpt>
      <trkpt lat="47.25406" lon="-1.56404">
        <ele>82</ele>
        <time>2022-05-03T09:03:25Z</time>
      </trkpt>
      <trkpt lat="47.25406" lon="-1.56405">
        <ele>81</ele>
        <time>2022-05-03T09:03:26Z</time>
      </trkpt>
      <trkpt lat="47.25407" lon="-1.56406">
        <ele>81</ele>
        <time>2022-05-03T09:03:27Z</time>
      </trkpt>
      <trkpt lat="47.25408" lon="-1.56408">
        <ele>81</ele>
        <time>2022-05-03T09:03:28Z</time>
      </trkpt>
      <trkpt lat="47.25409" lon="-1.5641">
        <ele>80</ele>
        <time>2022-05-03T09:03:29Z</time>
      </trkpt>
      <trkpt lat="47.25411" lon="-1.56411">
        <ele>80</ele>
        <time>2022-05-03T09:03:30Z</time>
      </trkpt>
      <trkpt lat="47.25412" lon="-1.56412">
        <ele>80</ele>
        <time>2022-05-03T09:03:31Z</time>
      </trkpt>
      <trkpt lat="47.25414" lon="-1.56412">
        <ele>80</ele>
        <time>2022-05-03T09:03:32Z</time>
      </trkpt>
      <trkpt lat="47.25415" lon="-1.56412">
        <ele>80</ele>
        <time>2022-05-03T09:03:33Z</time>
      </trkpt>
      <trkpt lat="47.25416" lon="-1.56412">
        <ele>80</ele>
        <time>2022-05-03T09:03:34Z</time>
      </trkpt>
      <trkpt lat="47.25417" lon="-1.56411">
        <ele>81</ele>
        <time>2022-05-03T09:03:35Z</time>
      </trkpt>
      <trkpt lat="47.25418" lon="-1.56411">
        <ele>81</ele>
        <time>2022-05-03T09:03:36Z</time>
      </trkpt>
      <trkpt lat="47.25419" lon="-1.56411">
        <ele>82</ele>
        <time>2022-05-03T09:03:37Z</time>
      </trkpt>
      <trkpt lat="47.2542" lon="-1.56411">
        <ele>82</ele>
        <time>2022-05-03T09:03:38Z</time>
      </trkpt>
      <trkpt lat="47.25421" lon="-1.5641">
        <ele>83</ele>
        <time>2022-05-03T09:03:39Z</time>
      </trkpt>
      <trkpt lat="47.25423" lon="-1.56409">
        <ele>83</ele>
        <time>2022-05-03T09:03:40Z</time>
      </trkpt>
      <trkpt lat="47.25423" lon="-1.56409">
        <ele>84</ele>
        <time>2022-05-03T09:03:41Z</time>
      </trkpt>
      <trkpt lat="47.25425" lon="-1.56408">
        <ele>84</ele>
        <time>2022-05-03T09:03:42Z</time>
      </trkpt>
      <trkpt lat="47.25426" lon="-1.56407">
        <ele>84</ele>
        <time>2022-05-03T09:03:43Z</time>
      </trkpt>
      <trkpt lat="47.25428" lon="-1.56407">
        <ele>84</ele>
        <time>2022-05-03T09:03:44Z</time>
      </trkpt>
      <trkpt lat="47.25429" lon="-1.56406">
        <ele>84</ele>
        <time>2022-05-03T09:03:45Z</time>
      </trkpt>
      <trkpt lat="47.2543" lon="-1.56405">
        <ele>84</ele>
        <time>2022-05-03T09:03:46Z</time>
      </trkpt>
      <trkpt lat="47.25432" lon="-1.56404">
        <ele>84</ele>
        <time>2022-05-03T09:03:47Z</time>
      </trkpt>
      <trkpt lat="47.25433" lon="-1.56403">
        <ele>84</ele>
        <time>2022-05-03T09:03:48Z</time>
      </trkpt>
      <trkpt lat="47.25435" lon="-1.56402">
        <ele>85</ele>
        <time>2022-05-03T09:03:49Z</time>
      </trkpt>
      <trkpt lat="47.25436" lon="-1.56401">
        <ele>85</ele>
        <time>2022-05-03T09:03:50Z</time>
      </trkpt>
      <trkpt lat="47.25437" lon="-1.564">
        <ele>85</ele>
        <time>2022-05-03T09:03:51Z</time>
      </trkpt>
      <trkpt lat="47.25438" lon="-1.564">
        <ele>85</ele>
        <time>2022-05-03T09:03:52Z</time>
      </trkpt>
      <trkpt lat="47.25439" lon="-1.56399">
        <ele>85</ele>
        <time>2022-05-03T09:03:53Z</time>
      </trkpt>
      <trkpt lat="47.2544" lon="-1.56399">
        <ele>85</ele>
        <time>2022-05-03T09:03:54Z</time>
      </trkpt>
      <trkpt lat="47.25441" lon="-1.56398">
        <ele>85</ele>
        <time>2022-05-03T09:03:55Z</time>
      </trkpt>
      <trkpt lat="47.25442" lon="-1.56397">
        <ele>85</ele>
        <time>2022-05-03T09:03:56Z</time>
      </trkpt>
      <trkpt lat="47.25443" lon="-1.56397">
        <ele>86</ele>
        <time>2022-05-03T09:03:57Z</time>
      </trkpt>
      <trkpt lat="47.25444" lon="-1.56396">
        <ele>86</ele>
        <time>2022-05-03T09:03:58Z</time>
      </trkpt>
      <trkpt lat="47.25446" lon="-1.56396">
        <ele>85</ele>
        <time>2022-05-03T09:03:59Z</time>
      </trkpt>
      <trkpt lat="47.25447" lon="-1.56396">
        <ele>85</ele>
        <time>2022-05-03T09:04:00Z</time>
      </trkpt>
      <trkpt lat="47.25448" lon="-1.56395">
        <ele>85</ele>
        <time>2022-05-03T09:04:01Z</time>
      </trkpt>
      <trkpt lat="47.2545" lon="-1.56394">
        <ele>85</ele>
        <time>2022-05-03T09:04:02Z</time>
      </trkpt>
      <trkpt lat="47.25451" lon="-1.56393">
        <ele>84</ele>
        <time>2022-05-03T09:04:03Z</time>
      </trkpt>
      <trkpt lat="47.25452" lon="-1.56391">
        <ele>84</ele>
        <time>2022-05-03T09:04:04Z</time>
      </trkpt>
      <trkpt lat="47.25453" lon="-1.5639">
        <ele>84</ele>
        <time>2022-05-03T09:04:05Z</time>
      </trkpt>
      <trkpt lat="47.25454" lon="-1.56389">
        <ele>84</ele>
        <time>2022-05-03T09:04:06Z</time>
      </trkpt>
      <trkpt lat="47.25456" lon="-1.56388">
        <ele>84</ele>
        <time>2022-05-03T09:04:07Z</time>
      </trkpt>
      <trkpt lat="47.25457" lon="-1.56388">
        <ele>84</ele>
        <time>2022-05-03T09:04:08Z</time>
      </trkpt>
      <trkpt lat="47.25458" lon="-1.56387">
        <ele>84</ele>
        <time>2022-05-03T09:04:09Z</time>
      </trkpt>
      <trkpt lat="47.25459" lon="-1.56386">
        <ele>84</ele>
        <time>2022-05-03T09:04:10Z</time>
      </trkpt>
      <trkpt lat="47.2546" lon="-1.56385">
        <ele>84</ele>
        <time>2022-05-03T09:04:11Z</time>
      </trkpt>
      <trkpt lat="47.25462" lon="-1.56384">
        <ele>84</ele>
        <time>2022-05-03T09:04:12Z</time>
      </trkpt>
      <trkpt lat="47.25463" lon="-1.56383">
        <ele>84</ele>
        <time>2022-05-03T09:04:13Z</time>
      </trkpt>
      <trkpt lat="47.25464" lon="-1.56382">
        <ele>84</ele>
        <time>2022-05-03T09:04:14Z</time>
      </trkpt>
      <trkpt lat="47.25465" lon="-1.56381">
        <ele>85</ele>
        <time>2022-05-03T09:04:15Z</time>
      </trkpt>
      <trkpt lat="47.25467" lon="-1.5638">
        <ele>84</ele>
        <time>2022-05-03T09:04:16Z</time>
      </trkpt>
      <trkpt lat="47.25468" lon="-1.56379">
        <ele>84</ele>
        <time>2022-05-03T09:04:17Z</time>
      </trkpt>
      <trkpt lat="47.2547" lon="-1.56379">
        <ele>84</ele>
        <time>2022-05-03T09:04:18Z</time>
      </trkpt>
      <trkpt lat="47.25472" lon="-1.56378">
        <ele>83</ele>
        <time>2022-05-03T09:04:19Z</time>
      </trkpt>
      <trkpt lat="47.25473" lon="-1.56377">
        <ele>83</ele>
        <time>2022-05-03T09:04:20Z</time>
      </trkpt>
      <trkpt lat="47.25474" lon="-1.56376">
        <ele>83</ele>
        <time>2022-05-03T09:04:21Z</time>
      </trkpt>
      <trkpt lat="47.25475" lon="-1.56375">
        <ele>83</ele>
        <time>2022-05-03T09:04:22Z</time>
      </trkpt>
      <trkpt lat="47.25477" lon="-1.56374">
        <ele>83</ele>
        <time>2022-05-03T09:04:23Z</time>
      </trkpt>
      <trkpt lat="47.25478" lon="-1.56374">
        <ele>82</ele>
        <time>2022-05-03T09:04:24Z</time>
      </trkpt>
      <trkpt lat="47.2548" lon="-1.56373">
        <ele>83</ele>
        <time>2022-05-03T09:04:25Z</time>
      </trkpt>
      <trkpt lat="47.25481" lon="-1.56372">
        <ele>83</ele>
        <time>2022-05-03T09:04:26Z</time>
      </trkpt>
      <trkpt lat="47.25482" lon="-1.56371">
        <ele>82</ele>
        <time>2022-05-03T09:04:27Z</time>
      </trkpt>
      <trkpt lat="47.25484" lon="-1.56371">
        <ele>82</ele>
        <time>2022-05-03T09:04:28Z</time>
      </trkpt>
      <trkpt lat="47.25485" lon="-1.5637">
        <ele>82</ele>
        <time>2022-05-03T09:04:29Z</time>
      </trkpt>
      <trkpt lat="47.25486" lon="-1.56369">
        <ele>81</ele>
        <time>2022-05-03T09:04:30Z</time>
      </trkpt>
      <trkpt lat="47.25488" lon="-1.56368">
        <ele>81</ele>
        <time>2022-05-03T09:04:31Z</time>
      </trkpt>
      <trkpt lat="47.25489" lon="-1.56367">
        <ele>81</ele>
        <time>2022-05-03T09:04:32Z</time>
      </trkpt>
      <trkpt lat="47.2549" lon="-1.56366">
        <ele>81</ele>
        <time>2022-05-03T09:04:33Z</time>
      </trkpt>
      <trkpt lat="47.25492" lon="-1.56364">
        <ele>80</ele>
        <time>2022-05-03T09:04:34Z</time>
      </trkpt>
      <trkpt lat="47.25493" lon="-1.56363">
        <ele>80</ele>
        <time>2022-05-03T09:04:35Z</time>
      </trkpt>
      <trkpt lat="47.25494" lon="-1.56362">
        <ele>80</ele>
        <time>2022-05-03T09:04:36Z</time>
      </trkpt>
      <trkpt lat="47.25495" lon="-1.56361">
        <ele>80</ele>
        <time>2022-05-03T09:04:37Z</time>
      </trkpt>
      <trkpt lat="47.25496" lon="-1.56361">
        <ele>80</ele>
        <time>2022-05-03T09:04:38Z</time>
      </trkpt>
      <trkpt lat="47.25497" lon="-1.5636">
        <ele>81</ele>
        <time>2022-05-03T09:04:39Z</time>
      </trkpt>
      <trkpt lat="47.25497" lon="-1.56359">
        <ele>81</ele>
        <time>2022-05-03T09:04:40Z</time>
      </trkpt>
      <trkpt lat="47.25498" lon="-1.56358">
        <ele>81</ele>
        <time>2022-05-03T09:04:41Z</time>
      </trkpt>
      <trkpt lat="47.25499" lon="-1.56358">
        <ele>81</ele>
        <time>2022-05-03T09:04:42Z</time>
      </trkpt>
      <trkpt lat="47.25501" lon="-1.56357">
        <ele>80</ele>
        <time>2022-05-03T09:04:43Z</time>
      </trkpt>
      <trkpt lat="47.25502" lon="-1.56356">
        <ele>80</ele>
        <time>2022-05-03T09:04:44Z</time>
      </trkpt>
      <trkpt lat="47.25503" lon="-1.56355">
        <ele>80</ele>
        <time>2022-05-03T09:04:45Z</time>
      </trkpt>
      <trkpt lat="47.25505" lon="-1.56354">
        <ele>80</ele>
        <time>2022-05-03T09:04:46Z</time>
      </trkpt>
      <trkpt lat="47.25506" lon="-1.56352">
        <ele>79</ele>
        <time>2022-05-03T09:04:47Z</time>
      </trkpt>
      <trkpt lat="47.25507" lon="-1.56351">
        <ele>79</ele>
        <time>2022-05-03T09:04:48Z</time>
      </trkpt>
      <trkpt lat="47.25508" lon="-1.5635">
        <ele>79</ele>
        <time>2022-05-03T09:04:49Z</time>
      </trkpt>
      <trkpt lat="47.25509" lon="-1.56348">
        <ele>79</ele>
        <time>2022-05-03T09:04:50Z</time>
      </trkpt>
      <trkpt lat="47.25511" lon="-1.56347">
        <ele>79</ele>
        <time>2022-05-03T09:04:51Z</time>
      </trkpt>
      <trkpt lat="47.25512" lon="-1.56347">
        <ele>79</ele>
        <time>2022-05-03T09:04:52Z</time>
      </trkpt>
      <trkpt lat="47.25514" lon="-1.56345">
        <ele>79</ele>
        <time>2022-05-03T09:04:53Z</time>
      </trkpt>
      <trkpt lat="47.25515" lon="-1.56344">
        <ele>79</ele>
        <time>2022-05-03T09:04:54Z</time>
      </trkpt>
      <trkpt lat="47.25516" lon="-1.56344">
        <ele>78</ele>
        <time>2022-05-03T09:04:55Z</time>
      </trkpt>
      <trkpt lat="47.25518" lon="-1.56343">
        <ele>79</ele>
        <time>2022-05-03T09:04:56Z</time>
      </trkpt>
      <trkpt lat="47.25519" lon="-1.56342">
        <ele>79</ele>
        <time>2022-05-03T09:04:57Z</time>
      </trkpt>
      <trkpt lat="47.2552" lon="-1.56341">
        <ele>79</ele>
        <time>2022-05-03T09:04:58Z</time>
      </trkpt>
      <trkpt lat="47.25522" lon="-1.5634">
        <ele>79</ele>
        <time>2022-05-03T09:04:59Z</time>
      </trkpt>
      <trkpt lat="47.25522" lon="-1.56339">
        <ele>79</ele>
        <time>2022-05-03T09:05:00Z</time>
      </trkpt>
      <trkpt lat="47.25523" lon="-1.56338">
        <ele>79</ele>
        <time>2022-05-03T09:05:01Z</time>
      </trkpt>
      <trkpt lat="47.25525" lon="-1.56337">
        <ele>78</ele>
        <time>2022-05-03T09:05:02Z</time>
      </trkpt>
      <trkpt lat="47.25526" lon="-1.56336">
        <ele>78</ele>
        <time>2022-05-03T09:05:03Z</time>
      </trkpt>
      <trkpt lat="47.25528" lon="-1.56336">
        <ele>77</ele>
        <time>2022-05-03T09:05:04Z</time>
      </trkpt>
      <trkpt lat="47.25529" lon="-1.56335">
        <ele>77</ele>
        <time>2022-05-03T09:05:05Z</time>
      </trkpt>
      <trkpt lat="47.2553" lon="-1.56334">
        <ele>78</ele>
        <time>2022-05-03T09:05:06Z</time>
      </trkpt>
      <trkpt lat="47.25532" lon="-1.56334">
        <ele>78</ele>
        <time>2022-05-03T09:05:07Z</time>
      </trkpt>
      <trkpt lat="47.25533" lon="-1.56334">
        <ele>79</ele>
        <time>2022-05-03T09:05:08Z</time>
      </trkpt>
      <trkpt lat="47.25534" lon="-1.56333">
        <ele>78</ele>
        <time>2022-05-03T09:05:09Z</time>
      </trkpt>
      <trkpt lat="47.25535" lon="-1.56332">
        <ele>78</ele>
        <time>2022-05-03T09:05:10Z</time>
      </trkpt>
      <trkpt lat="47.25536" lon="-1.56331">
        <ele>78</ele>
        <time>2022-05-03T09:05:11Z</time>
      </trkpt>
      <trkpt lat="47.25538" lon="-1.5633">
        <ele>78</ele>
        <time>2022-05-03T09:05:12Z</time>
      </trkpt>
      <trkpt lat="47.25539" lon="-1.56329">
        <ele>78</ele>
        <time>2022-05-03T09:05:13Z</time>
      </trkpt>
      <trkpt lat="47.2554" lon="-1.56328">
        <ele>78</ele>
        <time>2022-05-03T09:05:14Z</time>
      </trkpt>
      <trkpt lat="47.25541" lon="-1.56327">
        <ele>78</ele>
        <time>2022-05-03T09:05:15Z</time>
      </trkpt>
      <trkpt lat="47.25542" lon="-1.56326">
        <ele>78</ele>
        <time>2022-05-03T09:05:16Z</time>
      </trkpt>
      <trkpt lat="47.25544" lon="-1.56325">
        <ele>78</ele>
        <time>2022-05-03T09:05:17Z</time>
      </trkpt>
      <trkpt lat="47.25545" lon="-1.56324">
        <ele>78</ele>
        <time>2022-05-03T09:05:18Z</time>
      </trkpt>
      <trkpt lat="47.25546" lon="-1.56323">
        <ele>78</ele>
        <time>2022-05-03T09:05:19Z</time>
      </trkpt>
      <trkpt lat="47.25547" lon="-1.56322">
        <ele>78</ele>
        <time>2022-05-03T09:05:20Z</time>
      </trkpt>
      <trkpt lat="47.25548" lon="-1.56321">
        <ele>78</ele>
        <time>2022-05-03T09:05:21Z</time>
      </trkpt>
      <trkpt lat="47.2555" lon="-1.5632">
        <ele>78</ele>
        <time>2022-05-03T09:05:22Z</time>
      </trkpt>
      <trkpt lat="47.25551" lon="-1.56319">
        <ele>78</ele>
        <time>2022-05-03T09:05:23Z</time>
      </trkpt>
      <trkpt lat="47.25552" lon="-1.56319">
        <ele>77</ele>
        <time>2022-05-03T09:05:24Z</time>
      </trkpt>
      <trkpt lat="47.25554" lon="-1.56318">
        <ele>77</ele>
        <time>2022-05-03T09:05:25Z</time>
      </trkpt>
      <trkpt lat="47.25555" lon="-1.56317">
        <ele>77</ele>
        <time>2022-05-03T09:05:26Z</time>
      </trkpt>
      <trkpt lat="47.25556" lon="-1.56316">
        <ele>78</ele>
        <time>2022-05-03T09:05:27Z</time>
      </trkpt>
      <trkpt lat="47.25557" lon="-1.56315">
        <ele>78</ele>
        <time>2022-05-03T09:05:28Z</time>
      </trkpt>
      <trkpt lat="47.25559" lon="-1.56314">
        <ele>78</ele>
        <time>2022-05-03T09:05:29Z</time>
      </trkpt>
      <trkpt lat="47.2556" lon="-1.56314">
        <ele>78</ele>
        <time>2022-05-03T09:05:30Z</time>
      </trkpt>
      <trkpt lat="47.25561" lon="-1.56313">
        <ele>79</ele>
        <time>2022-05-03T09:05:31Z</time>
      </trkpt>
      <trkpt lat="47.25562" lon="-1.56313">
        <ele>79</ele>
        <time>2022-05-03T09:05:32Z</time>
      </trkpt>
      <trkpt lat="47.25563" lon="-1.56312">
        <ele>79</ele>
        <time>2022-05-03T09:05:33Z</time>
      </trkpt>
      <trkpt lat="47.25564" lon="-1.56312">
        <ele>78</ele>
        <time>2022-05-03T09:05:34Z</time>
      </trkpt>
      <trkpt lat="47.25565" lon="-1.56311">
        <ele>78</ele>
        <time>2022-05-03T09:05:35Z</time>
      </trkpt>
      <trkpt lat="47.25567" lon="-1.56312">
        <ele>78</ele>
        <time>2022-05-03T09:05:36Z</time>
      </trkpt>
      <trkpt lat="47.25568" lon="-1.56312">
        <ele>77</ele>
        <time>2022-05-03T09:05:37Z</time>
      </trkpt>
      <trkpt lat="47.25569" lon="-1.56311">
        <ele>77</ele>
        <time>2022-05-03T09:05:38Z</time>
      </trkpt>
      <trkpt lat="47.2557" lon="-1.56311">
        <ele>77</ele>
        <time>2022-05-03T09:05:39Z</time>
      </trkpt>
      <trkpt lat="47.25572" lon="-1.5631">
        <ele>77</ele>
        <time>2022-05-03T09:05:40Z</time>
      </trkpt>
      <trkpt lat="47.25573" lon="-1.5631">
        <ele>76</ele>
        <time>2022-05-03T09:05:41Z</time>
      </trkpt>
      <trkpt lat="47.25574" lon="-1.56309">
        <ele>76</ele>
        <time>2022-05-03T09:05:42Z</time>
      </trkpt>
      <trkpt lat="47.25576" lon="-1.56309">
        <ele>76</ele>
        <time>2022-05-03T09:05:43Z</time>
      </trkpt>
      <trkpt lat="47.25577" lon="-1.56309">
        <ele>75</ele>
        <time>2022-05-03T09:05:44Z</time>
      </trkpt>
      <trkpt lat="47.25578" lon="-1.56308">
        <ele>75</ele>
        <time>2022-05-03T09:05:45Z</time>
      </trkpt>
      <trkpt lat="47.2558" lon="-1.56308">
        <ele>75</ele>
        <time>2022-05-03T09:05:46Z</time>
      </trkpt>
      <trkpt lat="47.25581" lon="-1.56307">
        <ele>75</ele>
        <time>2022-05-03T09:05:47Z</time>
      </trkpt>
      <trkpt lat="47.25582" lon="-1.56306">
        <ele>75</ele>
        <time>2022-05-03T09:05:48Z</time>
      </trkpt>
      <trkpt lat="47.25583" lon="-1.56306">
        <ele>75</ele>
        <time>2022-05-03T09:05:49Z</time>
      </trkpt>
      <trkpt lat="47.25584" lon="-1.56305">
        <ele>75</ele>
        <time>2022-05-03T09:05:50Z</time>
      </trkpt>
      <trkpt lat="47.25586" lon="-1.56304">
        <ele>75</ele>
        <time>2022-05-03T09:05:51Z</time>
      </trkpt>
      <trkpt lat="47.25587" lon="-1.56303">
        <ele>75</ele>
        <time>2022-05-03T09:05:52Z</time>
      </trkpt>
      <trkpt lat="47.25588" lon="-1.56302">
        <ele>75</ele>
        <time>2022-05-03T09:05:53Z</time>
      </trkpt>
      <trkpt lat="47.25589" lon="-1.56301">
        <ele>75</ele>
        <time>2022-05-03T09:05:54Z</time>
      </trkpt>
      <trkpt lat="47.2559" lon="-1.563">
        <ele>75</ele>
        <time>2022-05-03T09:05:55Z</time>
      </trkpt>
      <trkpt lat="47.25591" lon="-1.56299">
        <ele>75</ele>
        <time>2022-05-03T09:05:56Z</time>
      </trkpt>
      <trkpt lat="47.25593" lon="-1.56299">
        <ele>75</ele>
        <time>2022-05-03T09:05:57Z</time>
      </trkpt>
      <trkpt lat="47.25594" lon="-1.56298">
        <ele>75</ele>
        <time>2022-05-03T09:05:58Z</time>
      </trkpt>
      <trkpt lat="47.25595" lon="-1.56298">
        <ele>74</ele>
        <time>2022-05-03T09:05:59Z</time>
      </trkpt>
      <trkpt lat="47.25597" lon="-1.56299">
        <ele>74</ele>
        <time>2022-05-03T09:06:00Z</time>
      </trkpt>
      <trkpt lat="47.25598" lon="-1.56299">
        <ele>74</ele>
        <time>2022-05-03T09:06:01Z</time>
      </trkpt>
      <trkpt lat="47.25599" lon="-1.56299">
        <ele>73</ele>
        <time>2022-05-03T09:06:02Z</time>
      </trkpt>
      <trkpt lat="47.25601" lon="-1.56299">
        <ele>73</ele>
        <time>2022-05-03T09:06:03Z</time>
      </trkpt>
      <trkpt lat="47.25602" lon="-1.563">
        <ele>73</ele>
        <time>2022-05-03T09:06:04Z</time>
      </trkpt>
      <trkpt lat="47.25604" lon="-1.563">
        <ele>72</ele>
        <time>2022-05-03T09:06:05Z</time>
      </trkpt>
      <trkpt lat="47.25605" lon="-1.563">
        <ele>72</ele>
        <time>2022-05-03T09:06:06Z</time>
      </trkpt>
      <trkpt lat="47.25606" lon="-1.563">
        <ele>72</ele>
        <time>2022-05-03T09:06:07Z</time>
      </trkpt>
      <trkpt lat="47.25607" lon="-1.563">
        <ele>72</ele>
        <time>2022-05-03T09:06:08Z</time>
      </trkpt>
      <trkpt lat="47.25608" lon="-1.563">
        <ele>72</ele>
        <time>2022-05-03T09:06:09Z</time>
      </trkpt>
      <trkpt lat="47.25609" lon="-1.56301">
        <ele>71</ele>
        <time>2022-05-03T09:06:10Z</time>
      </trkpt>
      <trkpt lat="47.2561" lon="-1.56301">
        <ele>71</ele>
        <time>2022-05-03T09:06:11Z</time>
      </trkpt>
      <trkpt lat="47.25611" lon="-1.56301">
        <ele>71</ele>
        <time>2022-05-03T09:06:12Z</time>
      </trkpt>
      <trkpt lat="47.25612" lon="-1.56301">
        <ele>70</ele>
        <time>2022-05-03T09:06:13Z</time>
      </trkpt>
      <trkpt lat="47.25613" lon="-1.56302">
        <ele>70</ele>
        <time>2022-05-03T09:06:14Z</time>
      </trkpt>
      <trkpt lat="47.25615" lon="-1.56302">
        <ele>70</ele>
        <time>2022-05-03T09:06:15Z</time>
      </trkpt>
      <trkpt lat="47.25617" lon="-1.56303">
        <ele>70</ele>
        <time>2022-05-03T09:06:16Z</time>
      </trkpt>
      <trkpt lat="47.25618" lon="-1.56303">
        <ele>70</ele>
        <time>2022-05-03T09:06:17Z</time>
      </trkpt>
      <trkpt lat="47.25619" lon="-1.56303">
        <ele>70</ele>
        <time>2022-05-03T09:06:18Z</time>
      </trkpt>
      <trkpt lat="47.2562" lon="-1.56304">
        <ele>70</ele>
        <time>2022-05-03T09:06:19Z</time>
      </trkpt>
      <trkpt lat="47.25621" lon="-1.56305">
        <ele>70</ele>
        <time>2022-05-03T09:06:20Z</time>
      </trkpt>
      <trkpt lat="47.25623" lon="-1.56306">
        <ele>69</ele>
        <time>2022-05-03T09:06:21Z</time>
      </trkpt>
      <trkpt lat="47.25623" lon="-1.56306">
        <ele>69</ele>
        <time>2022-05-03T09:06:22Z</time>
      </trkpt>
      <trkpt lat="47.25624" lon="-1.56307">
        <ele>69</ele>
        <time>2022-05-03T09:06:23Z</time>
      </trkpt>
      <trkpt lat="47.25625" lon="-1.56308">
        <ele>69</ele>
        <time>2022-05-03T09:06:24Z</time>
      </trkpt>
      <trkpt lat="47.25625" lon="-1.56309">
        <ele>69</ele>
        <time>2022-05-03T09:06:25Z</time>
      </trkpt>
      <trkpt lat="47.25625" lon="-1.56309">
        <ele>69</ele>
        <time>2022-05-03T09:06:26Z</time>
      </trkpt>
      <trkpt lat="47.25626" lon="-1.5631">
        <ele>69</ele>
        <time>2022-05-03T09:06:27Z</time>
      </trkpt>
      <trkpt lat="47.25627" lon="-1.56311">
        <ele>69</ele>
        <time>2022-05-03T09:06:28Z</time>
      </trkpt>
      <trkpt lat="47.25628" lon="-1.56312">
        <ele>70</ele>
        <time>2022-05-03T09:06:29Z</time>
      </trkpt>
      <trkpt lat="47.25629" lon="-1.56312">
        <ele>70</ele>
        <time>2022-05-03T09:06:30Z</time>
      </trkpt>
      <trkpt lat="47.25631" lon="-1.56312">
        <ele>69</ele>
        <time>2022-05-03T09:06:31Z</time>
      </trkpt>
      <trkpt lat="47.25633" lon="-1.56313">
        <ele>70</ele>
        <time>2022-05-03T09:06:32Z</time>
      </trkpt>
      <trkpt lat="47.25634" lon="-1.56313">
        <ele>69</ele>
        <time>2022-05-03T09:06:33Z</time>
      </trkpt>
      <trkpt lat="47.25636" lon="-1.56314">
        <ele>68</ele>
        <time>2022-05-03T09:06:34Z</time>
      </trkpt>
      <trkpt lat="47.25637" lon="-1.56315">
        <ele>68</ele>
        <time>2022-05-03T09:06:35Z</time>
      </trkpt>
      <trkpt lat="47.25637" lon="-1.56316">
        <ele>68</ele>
        <time>2022-05-03T09:06:36Z</time>
      </trkpt>
      <trkpt lat="47.25638" lon="-1.56317">
        <ele>67</ele>
        <time>2022-05-03T09:06:37Z</time>
      </trkpt>
      <trkpt lat="47.25639" lon="-1.56316">
        <ele>67</ele>
        <time>2022-05-03T09:06:38Z</time>
      </trkpt>
      <trkpt lat="47.2564" lon="-1.56315">
        <ele>67</ele>
        <time>2022-05-03T09:06:39Z</time>
      </trkpt>
      <trkpt lat="47.25641" lon="-1.56315">
        <ele>67</ele>
        <time>2022-05-03T09:06:40Z</time>
      </trkpt>
      <trkpt lat="47.25642" lon="-1.56314">
        <ele>67</ele>
        <time>2022-05-03T09:06:41Z</time>
      </trkpt>
      <trkpt lat="47.25643" lon="-1.56313">
        <ele>67</ele>
        <time>2022-05-03T09:06:42Z</time>
      </trkpt>
      <trkpt lat="47.25644" lon="-1.56312">
        <ele>67</ele>
        <time>2022-05-03T09:06:43Z</time>
      </trkpt>
      <trkpt lat="47.25645" lon="-1.56311">
        <ele>67</ele>
        <time>2022-05-03T09:06:44Z</time>
      </trkpt>
      <trkpt lat="47.25646" lon="-1.5631">
        <ele>67</ele>
        <time>2022-05-03T09:06:45Z</time>
      </trkpt>
      <trkpt lat="47.25647" lon="-1.56308">
        <ele>67</ele>
        <time>2022-05-03T09:06:46Z</time>
      </trkpt>
      <trkpt lat="47.25647" lon="-1.56307">
        <ele>67</ele>
        <time>2022-05-03T09:06:47Z</time>
      </trkpt>
      <trkpt lat="47.25648" lon="-1.56305">
        <ele>68</ele>
        <time>2022-05-03T09:06:48Z</time>
      </trkpt>
      <trkpt lat="47.25649" lon="-1.56304">
        <ele>68</ele>
        <time>2022-05-03T09:06:49Z</time>
      </trkpt>
      <trkpt lat="47.25649" lon="-1.56303">
        <ele>68</ele>
        <time>2022-05-03T09:06:50Z</time>
      </trkpt>
      <trkpt lat="47.2565" lon="-1.56301">
        <ele>69</ele>
        <time>2022-05-03T09:06:51Z</time>
      </trkpt>
      <trkpt lat="47.2565" lon="-1.563">
        <ele>69</ele>
        <time>2022-05-03T09:06:52Z</time>
      </trkpt>
      <trkpt lat="47.25651" lon="-1.56298">
        <ele>69</ele>
        <time>2022-05-03T09:06:53Z</time>
      </trkpt>
      <trkpt lat="47.25652" lon="-1.56297">
        <ele>70</ele>
        <time>2022-05-03T09:06:54Z</time>
      </trkpt>
      <trkpt lat="47.25652" lon="-1.56295">
        <ele>70</ele>
        <time>2022-05-03T09:06:55Z</time>
      </trkpt>
      <trkpt lat="47.25653" lon="-1.56293">
        <ele>70</ele>
        <time>2022-05-03T09:06:56Z</time>
      </trkpt>
      <trkpt lat="47.25653" lon="-1.56291">
        <ele>71</ele>
        <time>2022-05-03T09:06:57Z</time>
      </trkpt>
      <trkpt lat="47.25654" lon="-1.56289">
        <ele>71</ele>
        <time>2022-05-03T09:06:58Z</time>
      </trkpt>
      <trkpt lat="47.25654" lon="-1.56287">
        <ele>71</ele>
        <time>2022-05-03T09:06:59Z</time>
      </trkpt>
      <trkpt lat="47.25654" lon="-1.56285">
        <ele>71</ele>
        <time>2022-05-03T09:07:00Z</time>
      </trkpt>
      <trkpt lat="47.25654" lon="-1.56283">
        <ele>71</ele>
        <time>2022-05-03T09:07:01Z</time>
      </trkpt>
      <trkpt lat="47.25655" lon="-1.56281">
        <ele>71</ele>
        <time>2022-05-03T09:07:02Z</time>
      </trkpt>
      <trkpt lat="47.25655" lon="-1.5628">
        <ele>71</ele>
        <time>2022-05-03T09:07:03Z</time>
      </trkpt>
      <trkpt lat="47.25655" lon="-1.56277">
        <ele>70</ele>
        <time>2022-05-03T09:07:04Z</time>
      </trkpt>
      <trkpt lat="47.25656" lon="-1.56275">
        <ele>70</ele>
        <time>2022-05-03T09:07:05Z</time>
      </trkpt>
      <trkpt lat="47.25656" lon="-1.56273">
        <ele>70</ele>
        <time>2022-05-03T09:07:06Z</time>
      </trkpt>
      <trkpt lat="47.25656" lon="-1.56271">
        <ele>70</ele>
        <time>2022-05-03T09:07:07Z</time>
      </trkpt>
      <trkpt lat="47.25657" lon="-1.56269">
        <ele>71</ele>
        <time>2022-05-03T09:07:08Z</time>
      </trkpt>
      <trkpt lat="47.25657" lon="-1.56267">
        <ele>71</ele>
        <time>2022-05-03T09:07:09Z</time>
      </trkpt>
      <trkpt lat="47.25658" lon="-1.56265">
        <ele>71</ele>
        <time>2022-05-03T09:07:10Z</time>
      </trkpt>
      <trkpt lat="47.25658" lon="-1.56263">
        <ele>71</ele>
        <time>2022-05-03T09:07:11Z</time>
      </trkpt>
      <trkpt lat="47.25658" lon="-1.56261">
        <ele>71</ele>
        <time>2022-05-03T09:07:12Z</time>
      </trkpt>
      <trkpt lat="47.25658" lon="-1.56259">
        <ele>71</ele>
        <time>2022-05-03T09:07:13Z</time>
      </trkpt>
      <trkpt lat="47.25659" lon="-1.56257">
        <ele>71</ele>
        <time>2022-05-03T09:07:14Z</time>
      </trkpt>
      <trkpt lat="47.25659" lon="-1.56256">
        <ele>71</ele>
        <time>2022-05-03T09:07:15Z</time>
      </trkpt>
      <trkpt lat="47.2566" lon="-1.56254">
        <ele>71</ele>
        <time>2022-05-03T09:07:16Z</time>
      </trkpt>
      <trkpt lat="47.2566" lon="-1.56252">
        <ele>71</ele>
        <time>2022-05-03T09:07:17Z</time>
      </trkpt>
      <trkpt lat="47.25661" lon="-1.5625">
        <ele>71</ele>
        <time>2022-05-03T09:07:18Z</time>
      </trkpt>
      <trkpt lat="47.25661" lon="-1.56248">
        <ele>71</ele>
        <time>2022-05-03T09:07:19Z</time>
      </trkpt>
      <trkpt lat="47.25662" lon="-1.56246">
        <ele>71</ele>
        <time>2022-05-03T09:07:20Z</time>
      </trkpt>
      <trkpt lat="47.25662" lon="-1.56244">
        <ele>71</ele>
        <time>2022-05-03T09:07:21Z</time>
      </trkpt>
      <trkpt lat="47.25663" lon="-1.56242">
        <ele>71</ele>
        <time>2022-05-03T09:07:22Z</time>
      </trkpt>
      <trkpt lat="47.25663" lon="-1.5624">
        <ele>71</ele>
        <time>2022-05-03T09:07:23Z</time>
      </trkpt>
      <trkpt lat="47.25664" lon="-1.56238">
        <ele>71</ele>
        <time>2022-05-03T09:07:24Z</time>
      </trkpt>
      <trkpt lat="47.25665" lon="-1.56236">
        <ele>72</ele>
        <time>2022-05-03T09:07:25Z</time>
      </trkpt>
      <trkpt lat="47.25665" lon="-1.56234">
        <ele>71</ele>
        <time>2022-05-03T09:07:26Z</time>
      </trkpt>
      <trkpt lat="47.25666" lon="-1.56232">
        <ele>71</ele>
        <time>2022-05-03T09:07:27Z</time>
      </trkpt>
      <trkpt lat="47.25666" lon="-1.5623">
        <ele>71</ele>
        <time>2022-05-03T09:07:28Z</time>
      </trkpt>
      <trkpt lat="47.25667" lon="-1.56228">
        <ele>71</ele>
        <time>2022-05-03T09:07:29Z</time>
      </trkpt>
      <trkpt lat="47.25667" lon="-1.56226">
        <ele>71</ele>
        <time>2022-05-03T09:07:30Z</time>
      </trkpt>
      <trkpt lat="47.25668" lon="-1.56224">
        <ele>72</ele>
        <time>2022-05-03T09:07:31Z</time>
      </trkpt>
      <trkpt lat="47.25668" lon="-1.56222">
        <ele>71</ele>
        <time>2022-05-03T09:07:32Z</time>
      </trkpt>
      <trkpt lat="47.25668" lon="-1.5622">
        <ele>71</ele>
        <time>2022-05-03T09:07:33Z</time>
      </trkpt>
      <trkpt lat="47.25669" lon="-1.56218">
        <ele>71</ele>
        <time>2022-05-03T09:07:34Z</time>
      </trkpt>
      <trkpt lat="47.25669" lon="-1.56216">
        <ele>71</ele>
        <time>2022-05-03T09:07:35Z</time>
      </trkpt>
      <trkpt lat="47.2567" lon="-1.56215">
        <ele>71</ele>
        <time>2022-05-03T09:07:36Z</time>
      </trkpt>
      <trkpt lat="47.2567" lon="-1.56213">
        <ele>71</ele>
        <time>2022-05-03T09:07:37Z</time>
      </trkpt>
      <trkpt lat="47.2567" lon="-1.56211">
        <ele>70</ele>
        <time>2022-05-03T09:07:38Z</time>
      </trkpt>
      <trkpt lat="47.25671" lon="-1.56209">
        <ele>70</ele>
        <time>2022-05-03T09:07:39Z</time>
      </trkpt>
      <trkpt lat="47.25672" lon="-1.56208">
        <ele>70</ele>
        <time>2022-05-03T09:07:40Z</time>
      </trkpt>
      <trkpt lat="47.25672" lon="-1.56206">
        <ele>69</ele>
        <time>2022-05-03T09:07:41Z</time>
      </trkpt>
      <trkpt lat="47.25673" lon="-1.56204">
        <ele>69</ele>
        <time>2022-05-03T09:07:42Z</time>
      </trkpt>
      <trkpt lat="47.25674" lon="-1.56202">
        <ele>69</ele>
        <time>2022-05-03T09:07:43Z</time>
      </trkpt>
      <trkpt lat="47.25674" lon="-1.562">
        <ele>69</ele>
        <time>2022-05-03T09:07:44Z</time>
      </trkpt>
      <trkpt lat="47.25675" lon="-1.56199">
        <ele>69</ele>
        <time>2022-05-03T09:07:45Z</time>
      </trkpt>
      <trkpt lat="47.25676" lon="-1.56198">
        <ele>70</ele>
        <time>2022-05-03T09:07:46Z</time>
      </trkpt>
      <trkpt lat="47.25677" lon="-1.56197">
        <ele>71</ele>
        <time>2022-05-03T09:07:47Z</time>
      </trkpt>
      <trkpt lat="47.25678" lon="-1.56196">
        <ele>71</ele>
        <time>2022-05-03T09:07:48Z</time>
      </trkpt>
      <trkpt lat="47.25678" lon="-1.56194">
        <ele>72</ele>
        <time>2022-05-03T09:07:49Z</time>
      </trkpt>
      <trkpt lat="47.25679" lon="-1.56192">
        <ele>72</ele>
        <time>2022-05-03T09:07:50Z</time>
      </trkpt>
      <trkpt lat="47.2568" lon="-1.5619">
        <ele>72</ele>
        <time>2022-05-03T09:07:51Z</time>
      </trkpt>
      <trkpt lat="47.25681" lon="-1.56188">
        <ele>72</ele>
        <time>2022-05-03T09:07:52Z</time>
      </trkpt>
      <trkpt lat="47.25682" lon="-1.56186">
        <ele>72</ele>
        <time>2022-05-03T09:07:53Z</time>
      </trkpt>
      <trkpt lat="47.25682" lon="-1.56185">
        <ele>72</ele>
        <time>2022-05-03T09:07:54Z</time>
      </trkpt>
      <trkpt lat="47.25683" lon="-1.56183">
        <ele>71</ele>
        <time>2022-05-03T09:07:55Z</time>
      </trkpt>
      <trkpt lat="47.25684" lon="-1.5618">
        <ele>71</ele>
        <time>2022-05-03T09:07:56Z</time>
      </trkpt>
      <trkpt lat="47.25684" lon="-1.56178">
        <ele>71</ele>
        <time>2022-05-03T09:07:57Z</time>
      </trkpt>
      <trkpt lat="47.25686" lon="-1.56177">
        <ele>71</ele>
        <time>2022-05-03T09:07:58Z</time>
      </trkpt>
      <trkpt lat="47.25686" lon="-1.56175">
        <ele>71</ele>
        <time>2022-05-03T09:07:59Z</time>
      </trkpt>
      <trkpt lat="47.25687" lon="-1.56173">
        <ele>71</ele>
        <time>2022-05-03T09:08:00Z</time>
      </trkpt>
      <trkpt lat="47.25687" lon="-1.56172">
        <ele>71</ele>
        <time>2022-05-03T09:08:01Z</time>
      </trkpt>
      <trkpt lat="47.25688" lon="-1.5617">
        <ele>71</ele>
        <time>2022-05-03T09:08:02Z</time>
      </trkpt>
      <trkpt lat="47.25689" lon="-1.56168">
        <ele>71</ele>
        <time>2022-05-03T09:08:03Z</time>
      </trkpt>
      <trkpt lat="47.2569" lon="-1.56166">
        <ele>72</ele>
        <time>2022-05-03T09:08:04Z</time>
      </trkpt>
      <trkpt lat="47.25691" lon="-1.56165">
        <ele>73</ele>
        <time>2022-05-03T09:08:05Z</time>
      </trkpt>
      <trkpt lat="47.25692" lon="-1.56163">
        <ele>73</ele>
        <time>2022-05-03T09:08:06Z</time>
      </trkpt>
      <trkpt lat="47.25692" lon="-1.56161">
        <ele>73</ele>
        <time>2022-05-03T09:08:07Z</time>
      </trkpt>
      <trkpt lat="47.25693" lon="-1.5616">
        <ele>74</ele>
        <time>2022-05-03T09:08:08Z</time>
      </trkpt>
      <trkpt lat="47.25694" lon="-1.56159">
        <ele>74</ele>
        <time>2022-05-03T09:08:09Z</time>
      </trkpt>
      <trkpt lat="47.25694" lon="-1.56158">
        <ele>74</ele>
        <time>2022-05-03T09:08:10Z</time>
      </trkpt>
      <trkpt lat="47.25695" lon="-1.56157">
        <ele>75</ele>
        <time>2022-05-03T09:08:11Z</time>
      </trkpt>
      <trkpt lat="47.25696" lon="-1.56156">
        <ele>75</ele>
        <time>2022-05-03T09:08:12Z</time>
      </trkpt>
      <trkpt lat="47.25697" lon="-1.56155">
        <ele>75</ele>
        <time>2022-05-03T09:08:13Z</time>
      </trkpt>
      <trkpt lat="47.25698" lon="-1.56154">
        <ele>75</ele>
        <time>2022-05-03T09:08:14Z</time>
      </trkpt>
      <trkpt lat="47.25699" lon="-1.56153">
        <ele>75</ele>
        <time>2022-05-03T09:08:15Z</time>
      </trkpt>
      <trkpt lat="47.257" lon="-1.56151">
        <ele>75</ele>
        <time>2022-05-03T09:08:16Z</time>
      </trkpt>
      <trkpt lat="47.257" lon="-1.56149">
        <ele>76</ele>
        <time>2022-05-03T09:08:17Z</time>
      </trkpt>
      <trkpt lat="47.25701" lon="-1.56147">
        <ele>76</ele>
        <time>2022-05-03T09:08:18Z</time>
      </trkpt>
      <trkpt lat="47.25702" lon="-1.56146">
        <ele>76</ele>
        <time>2022-05-03T09:08:19Z</time>
      </trkpt>
      <trkpt lat="47.25703" lon="-1.56144">
        <ele>76</ele>
        <time>2022-05-03T09:08:20Z</time>
      </trkpt>
      <trkpt lat="47.25704" lon="-1.56142">
        <ele>76</ele>
        <time>2022-05-03T09:08:21Z</time>
      </trkpt>
      <trkpt lat="47.25705" lon="-1.5614">
        <ele>76</ele>
        <time>2022-05-03T09:08:22Z</time>
      </trkpt>
      <trkpt lat="47.25705" lon="-1.56138">
        <ele>76</ele>
        <time>2022-05-03T09:08:23Z</time>
      </trkpt>
      <trkpt lat="47.25706" lon="-1.56136">
        <ele>76</ele>
        <time>2022-05-03T09:08:24Z</time>
      </trkpt>
      <trkpt lat="47.25706" lon="-1.56133">
        <ele>76</ele>
        <time>2022-05-03T09:08:25Z</time>
      </trkpt>
      <trkpt lat="47.25706" lon="-1.56131">
        <ele>76</ele>
        <time>2022-05-03T09:08:26Z</time>
      </trkpt>
      <trkpt lat="47.25706" lon="-1.56128">
        <ele>76</ele>
        <time>2022-05-03T09:08:27Z</time>
      </trkpt>
      <trkpt lat="47.25706" lon="-1.56126">
        <ele>76</ele>
        <time>2022-05-03T09:08:28Z</time>
      </trkpt>
      <trkpt lat="47.25706" lon="-1.56124">
        <ele>76</ele>
        <time>2022-05-03T09:08:29Z</time>
      </trkpt>
      <trkpt lat="47.25706" lon="-1.56122">
        <ele>76</ele>
        <time>2022-05-03T09:08:30Z</time>
      </trkpt>
      <trkpt lat="47.25707" lon="-1.5612">
        <ele>77</ele>
        <time>2022-05-03T09:08:31Z</time>
      </trkpt>
      <trkpt lat="47.25707" lon="-1.56118">
        <ele>77</ele>
        <time>2022-05-03T09:08:32Z</time>
      </trkpt>
      <trkpt lat="47.25708" lon="-1.56117">
        <ele>76</ele>
        <time>2022-05-03T09:08:33Z</time>
      </trkpt>
      <trkpt lat="47.25709" lon="-1.56115">
        <ele>76</ele>
        <time>2022-05-03T09:08:34Z</time>
      </trkpt>
      <trkpt lat="47.25709" lon="-1.56114">
        <ele>76</ele>
        <time>2022-05-03T09:08:35Z</time>
      </trkpt>
      <trkpt lat="47.2571" lon="-1.56112">
        <ele>76</ele>
        <time>2022-05-03T09:08:36Z</time>
      </trkpt>
      <trkpt lat="47.2571" lon="-1.5611">
        <ele>75</ele>
        <time>2022-05-03T09:08:37Z</time>
      </trkpt>
      <trkpt lat="47.25711" lon="-1.56108">
        <ele>75</ele>
        <time>2022-05-03T09:08:38Z</time>
      </trkpt>
      <trkpt lat="47.25712" lon="-1.56106">
        <ele>74</ele>
        <time>2022-05-03T09:08:39Z</time>
      </trkpt>
      <trkpt lat="47.25713" lon="-1.56104">
        <ele>74</ele>
        <time>2022-05-03T09:08:40Z</time>
      </trkpt>
      <trkpt lat="47.25714" lon="-1.56103">
        <ele>74</ele>
        <time>2022-05-03T09:08:41Z</time>
      </trkpt>
      <trkpt lat="47.25715" lon="-1.56101">
        <ele>74</ele>
        <time>2022-05-03T09:08:42Z</time>
      </trkpt>
      <trkpt lat="47.25716" lon="-1.561">
        <ele>74</ele>
        <time>2022-05-03T09:08:43Z</time>
      </trkpt>
      <trkpt lat="47.25716" lon="-1.56098">
        <ele>75</ele>
        <time>2022-05-03T09:08:44Z</time>
      </trkpt>
      <trkpt lat="47.25717" lon="-1.56097">
        <ele>75</ele>
        <time>2022-05-03T09:08:45Z</time>
      </trkpt>
      <trkpt lat="47.25718" lon="-1.56096">
        <ele>75</ele>
        <time>2022-05-03T09:08:46Z</time>
      </trkpt>
      <trkpt lat="47.25719" lon="-1.56094">
        <ele>76</ele>
        <time>2022-05-03T09:08:47Z</time>
      </trkpt>
      <trkpt lat="47.2572" lon="-1.56093">
        <ele>76</ele>
        <time>2022-05-03T09:08:48Z</time>
      </trkpt>
      <trkpt lat="47.2572" lon="-1.56092">
        <ele>76</ele>
        <time>2022-05-03T09:08:49Z</time>
      </trkpt>
      <trkpt lat="47.25721" lon="-1.5609">
        <ele>76</ele>
        <time>2022-05-03T09:08:50Z</time>
      </trkpt>
      <trkpt lat="47.25721" lon="-1.56089">
        <ele>76</ele>
        <time>2022-05-03T09:08:51Z</time>
      </trkpt>
      <trkpt lat="47.25722" lon="-1.56087">
        <ele>76</ele>
        <time>2022-05-03T09:08:52Z</time>
      </trkpt>
      <trkpt lat="47.25722" lon="-1.56085">
        <ele>76</ele>
        <time>2022-05-03T09:08:53Z</time>
      </trkpt>
      <trkpt lat="47.25723" lon="-1.56084">
        <ele>76</ele>
        <time>2022-05-03T09:08:54Z</time>
      </trkpt>
      <trkpt lat="47.25723" lon="-1.56082">
        <ele>76</ele>
        <time>2022-05-03T09:08:55Z</time>
      </trkpt>
      <trkpt lat="47.25724" lon="-1.5608">
        <ele>76</ele>
        <time>2022-05-03T09:08:56Z</time>
      </trkpt>
      <trkpt lat="47.25724" lon="-1.56079">
        <ele>77</ele>
        <time>2022-05-03T09:08:57Z</time>
      </trkpt>
      <trkpt lat="47.25726" lon="-1.56077">
        <ele>77</ele>
        <time>2022-05-03T09:08:58Z</time>
      </trkpt>
      <trkpt lat="47.25726" lon="-1.56076">
        <ele>77</ele>
        <time>2022-05-03T09:08:59Z</time>
      </trkpt>
      <trkpt lat="47.25727" lon="-1.56075">
        <ele>78</ele>
        <time>2022-05-03T09:09:00Z</time>
      </trkpt>
      <trkpt lat="47.25728" lon="-1.56073">
        <ele>78</ele>
        <time>2022-05-03T09:09:01Z</time>
      </trkpt>
      <trkpt lat="47.25729" lon="-1.56072">
        <ele>78</ele>
        <time>2022-05-03T09:09:02Z</time>
      </trkpt>
      <trkpt lat="47.2573" lon="-1.5607">
        <ele>77</ele>
        <time>2022-05-03T09:09:03Z</time>
      </trkpt>
      <trkpt lat="47.25731" lon="-1.56069">
        <ele>77</ele>
        <time>2022-05-03T09:09:04Z</time>
      </trkpt>
      <trkpt lat="47.25731" lon="-1.56067">
        <ele>77</ele>
        <time>2022-05-03T09:09:05Z</time>
      </trkpt>
      <trkpt lat="47.25733" lon="-1.56066">
        <ele>77</ele>
        <time>2022-05-03T09:09:06Z</time>
      </trkpt>
      <trkpt lat="47.25734" lon="-1.56064">
        <ele>76</ele>
        <time>2022-05-03T09:09:07Z</time>
      </trkpt>
      <trkpt lat="47.25734" lon="-1.56063">
        <ele>76</ele>
        <time>2022-05-03T09:09:08Z</time>
      </trkpt>
      <trkpt lat="47.25735" lon="-1.5606">
        <ele>76</ele>
        <time>2022-05-03T09:09:09Z</time>
      </trkpt>
      <trkpt lat="47.25736" lon="-1.56059">
        <ele>76</ele>
        <time>2022-05-03T09:09:10Z</time>
      </trkpt>
      <trkpt lat="47.25736" lon="-1.56057">
        <ele>76</ele>
        <time>2022-05-03T09:09:11Z</time>
      </trkpt>
      <trkpt lat="47.25737" lon="-1.56056">
        <ele>76</ele>
        <time>2022-05-03T09:09:12Z</time>
      </trkpt>
      <trkpt lat="47.25738" lon="-1.56054">
        <ele>76</ele>
        <time>2022-05-03T09:09:13Z</time>
      </trkpt>
      <trkpt lat="47.25739" lon="-1.56053">
        <ele>76</ele>
        <time>2022-05-03T09:09:14Z</time>
      </trkpt>
      <trkpt lat="47.25739" lon="-1.56051">
        <ele>76</ele>
        <time>2022-05-03T09:09:15Z</time>
      </trkpt>
      <trkpt lat="47.2574" lon="-1.56049">
        <ele>76</ele>
        <time>2022-05-03T09:09:16Z</time>
      </trkpt>
      <trkpt lat="47.25741" lon="-1.56048">
        <ele>76</ele>
        <time>2022-05-03T09:09:17Z</time>
      </trkpt>
      <trkpt lat="47.25741" lon="-1.56046">
        <ele>76</ele>
        <time>2022-05-03T09:09:18Z</time>
      </trkpt>
      <trkpt lat="47.25742" lon="-1.56045">
        <ele>76</ele>
        <time>2022-05-03T09:09:19Z</time>
      </trkpt>
      <trkpt lat="47.25743" lon="-1.56044">
        <ele>75</ele>
        <time>2022-05-03T09:09:20Z</time>
      </trkpt>
      <trkpt lat="47.25743" lon="-1.56042">
        <ele>75</ele>
        <time>2022-05-03T09:09:21Z</time>
      </trkpt>
      <trkpt lat="47.25743" lon="-1.5604">
        <ele>75</ele>
        <time>2022-05-03T09:09:22Z</time>
      </trkpt>
      <trkpt lat="47.25744" lon="-1.56038">
        <ele>76</ele>
        <time>2022-05-03T09:09:23Z</time>
      </trkpt>
      <trkpt lat="47.25745" lon="-1.56037">
        <ele>76</ele>
        <time>2022-05-03T09:09:24Z</time>
      </trkpt>
      <trkpt lat="47.25745" lon="-1.56034">
        <ele>76</ele>
        <time>2022-05-03T09:09:25Z</time>
      </trkpt>
      <trkpt lat="47.25746" lon="-1.56032">
        <ele>76</ele>
        <time>2022-05-03T09:09:26Z</time>
      </trkpt>
      <trkpt lat="47.25747" lon="-1.5603">
        <ele>76</ele>
        <time>2022-05-03T09:09:27Z</time>
      </trkpt>
      <trkpt lat="47.25748" lon="-1.56028">
        <ele>77</ele>
        <time>2022-05-03T09:09:28Z</time>
      </trkpt>
      <trkpt lat="47.25748" lon="-1.56026">
        <ele>77</ele>
        <time>2022-05-03T09:09:29Z</time>
      </trkpt>
      <trkpt lat="47.25748" lon="-1.56025">
        <ele>76</ele>
        <time>2022-05-03T09:09:30Z</time>
      </trkpt>
      <trkpt lat="47.25749" lon="-1.56024">
        <ele>77</ele>
        <time>2022-05-03T09:09:31Z</time>
      </trkpt>
      <trkpt lat="47.2575" lon="-1.56022">
        <ele>77</ele>
        <time>2022-05-03T09:09:32Z</time>
      </trkpt>
      <trkpt lat="47.2575" lon="-1.5602">
        <ele>78</ele>
        <time>2022-05-03T09:09:33Z</time>
      </trkpt>
      <trkpt lat="47.25751" lon="-1.56018">
        <ele>78</ele>
        <time>2022-05-03T09:09:34Z</time>
      </trkpt>
      <trkpt lat="47.25752" lon="-1.56016">
        <ele>79</ele>
        <time>2022-05-03T09:09:35Z</time>
      </trkpt>
      <trkpt lat="47.25753" lon="-1.56014">
        <ele>79</ele>
        <time>2022-05-03T09:09:36Z</time>
      </trkpt>
      <trkpt lat="47.25753" lon="-1.56012">
        <ele>80</ele>
        <time>2022-05-03T09:09:37Z</time>
      </trkpt>
      <trkpt lat="47.25754" lon="-1.56011">
        <ele>80</ele>
        <time>2022-05-03T09:09:38Z</time>
      </trkpt>
      <trkpt lat="47.25755" lon="-1.56009">
        <ele>81</ele>
        <time>2022-05-03T09:09:39Z</time>
      </trkpt>
      <trkpt lat="47.25755" lon="-1.56007">
        <ele>81</ele>
        <time>2022-05-03T09:09:40Z</time>
      </trkpt>
      <trkpt lat="47.25756" lon="-1.56005">
        <ele>82</ele>
        <time>2022-05-03T09:09:41Z</time>
      </trkpt>
      <trkpt lat="47.25756" lon="-1.56003">
        <ele>82</ele>
        <time>2022-05-03T09:09:42Z</time>
      </trkpt>
      <trkpt lat="47.25756" lon="-1.56001">
        <ele>83</ele>
        <time>2022-05-03T09:09:43Z</time>
      </trkpt>
      <trkpt lat="47.25756" lon="-1.55999">
        <ele>83</ele>
        <time>2022-05-03T09:09:44Z</time>
      </trkpt>
      <trkpt lat="47.25757" lon="-1.55997">
        <ele>84</ele>
        <time>2022-05-03T09:09:45Z</time>
      </trkpt>
      <trkpt lat="47.25757" lon="-1.55995">
        <ele>84</ele>
        <time>2022-05-03T09:09:46Z</time>
      </trkpt>
      <trkpt lat="47.25757" lon="-1.55993">
        <ele>84</ele>
        <time>2022-05-03T09:09:47Z</time>
      </trkpt>
      <trkpt lat="47.25758" lon="-1.55991">
        <ele>85</ele>
        <time>2022-05-03T09:09:48Z</time>
      </trkpt>
      <trkpt lat="47.25758" lon="-1.55989">
        <ele>85</ele>
        <time>2022-05-03T09:09:49Z</time>
      </trkpt>
      <trkpt lat="47.25759" lon="-1.55987">
        <ele>84</ele>
        <time>2022-05-03T09:09:50Z</time>
      </trkpt>
      <trkpt lat="47.2576" lon="-1.55985">
        <ele>84</ele>
        <time>2022-05-03T09:09:51Z</time>
      </trkpt>
      <trkpt lat="47.25761" lon="-1.55984">
        <ele>84</ele>
        <time>2022-05-03T09:09:52Z</time>
      </trkpt>
      <trkpt lat="47.25762" lon="-1.55981">
        <ele>84</ele>
        <time>2022-05-03T09:09:53Z</time>
      </trkpt>
      <trkpt lat="47.25763" lon="-1.55979">
        <ele>85</ele>
        <time>2022-05-03T09:09:54Z</time>
      </trkpt>
      <trkpt lat="47.25763" lon="-1.55978">
        <ele>84</ele>
        <time>2022-05-03T09:09:55Z</time>
      </trkpt>
      <trkpt lat="47.25764" lon="-1.55975">
        <ele>84</ele>
        <time>2022-05-03T09:09:56Z</time>
      </trkpt>
      <trkpt lat="47.25765" lon="-1.55973">
        <ele>83</ele>
        <time>2022-05-03T09:09:57Z</time>
      </trkpt>
      <trkpt lat="47.25765" lon="-1.55971">
        <ele>84</ele>
        <time>2022-05-03T09:09:58Z</time>
      </trkpt>
      <trkpt lat="47.25766" lon="-1.5597">
        <ele>84</ele>
        <time>2022-05-03T09:09:59Z</time>
      </trkpt>
      <trkpt lat="47.25766" lon="-1.55968">
        <ele>84</ele>
        <time>2022-05-03T09:10:00Z</time>
      </trkpt>
      <trkpt lat="47.25766" lon="-1.55966">
        <ele>84</ele>
        <time>2022-05-03T09:10:01Z</time>
      </trkpt>
      <trkpt lat="47.25766" lon="-1.55964">
        <ele>84</ele>
        <time>2022-05-03T09:10:02Z</time>
      </trkpt>
      <trkpt lat="47.25766" lon="-1.55962">
        <ele>84</ele>
        <time>2022-05-03T09:10:03Z</time>
      </trkpt>
      <trkpt lat="47.25766" lon="-1.55961">
        <ele>84</ele>
        <time>2022-05-03T09:10:04Z</time>
      </trkpt>
      <trkpt lat="47.25767" lon="-1.55959">
        <ele>84</ele>
        <time>2022-05-03T09:10:05Z</time>
      </trkpt>
      <trkpt lat="47.25767" lon="-1.55957">
        <ele>84</ele>
        <time>2022-05-03T09:10:06Z</time>
      </trkpt>
      <trkpt lat="47.25768" lon="-1.55955">
        <ele>84</ele>
        <time>2022-05-03T09:10:07Z</time>
      </trkpt>
      <trkpt lat="47.25768" lon="-1.55953">
        <ele>84</ele>
        <time>2022-05-03T09:10:08Z</time>
      </trkpt>
      <trkpt lat="47.25769" lon="-1.55951">
        <ele>83</ele>
        <time>2022-05-03T09:10:09Z</time>
      </trkpt>
      <trkpt lat="47.25769" lon="-1.55949">
        <ele>83</ele>
        <time>2022-05-03T09:10:10Z</time>
      </trkpt>
      <trkpt lat="47.2577" lon="-1.55948">
        <ele>83</ele>
        <time>2022-05-03T09:10:11Z</time>
      </trkpt>
      <trkpt lat="47.2577" lon="-1.55946">
        <ele>82</ele>
        <time>2022-05-03T09:10:12Z</time>
      </trkpt>
      <trkpt lat="47.25771" lon="-1.55945">
        <ele>81</ele>
        <time>2022-05-03T09:10:13Z</time>
      </trkpt>
      <trkpt lat="47.25772" lon="-1.55944">
        <ele>80</ele>
        <time>2022-05-03T09:10:14Z</time>
      </trkpt>
      <trkpt lat="47.25773" lon="-1.55943">
        <ele>80</ele>
        <time>2022-05-03T09:10:15Z</time>
      </trkpt>
      <trkpt lat="47.25774" lon="-1.55942">
        <ele>79</ele>
        <time>2022-05-03T09:10:16Z</time>
      </trkpt>
      <trkpt lat="47.25774" lon="-1.5594">
        <ele>78</ele>
        <time>2022-05-03T09:10:17Z</time>
      </trkpt>
      <trkpt lat="47.25775" lon="-1.55939">
        <ele>77</ele>
        <time>2022-05-03T09:10:18Z</time>
      </trkpt>
      <trkpt lat="47.25776" lon="-1.55939">
        <ele>76</ele>
        <time>2022-05-03T09:10:19Z</time>
      </trkpt>
      <trkpt lat="47.25778" lon="-1.55938">
        <ele>76</ele>
        <time>2022-05-03T09:10:20Z</time>
      </trkpt>
      <trkpt lat="47.25779" lon="-1.55937">
        <ele>75</ele>
        <time>2022-05-03T09:10:21Z</time>
      </trkpt>
      <trkpt lat="47.2578" lon="-1.55937">
        <ele>75</ele>
        <time>2022-05-03T09:10:22Z</time>
      </trkpt>
      <trkpt lat="47.25781" lon="-1.55937">
        <ele>75</ele>
        <time>2022-05-03T09:10:23Z</time>
      </trkpt>
      <trkpt lat="47.25782" lon="-1.55936">
        <ele>75</ele>
        <time>2022-05-03T09:10:24Z</time>
      </trkpt>
      <trkpt lat="47.25782" lon="-1.55936">
        <ele>75</ele>
        <time>2022-05-03T09:10:25Z</time>
      </trkpt>
      <trkpt lat="47.25784" lon="-1.55936">
        <ele>74</ele>
        <time>2022-05-03T09:10:26Z</time>
      </trkpt>
      <trkpt lat="47.25784" lon="-1.55935">
        <ele>74</ele>
        <time>2022-05-03T09:10:27Z</time>
      </trkpt>
      <trkpt lat="47.25785" lon="-1.55935">
        <ele>74</ele>
        <time>2022-05-03T09:10:28Z</time>
      </trkpt>
      <trkpt lat="47.25785" lon="-1.55934">
        <ele>74</ele>
        <time>2022-05-03T09:10:29Z</time>
      </trkpt>
      <trkpt lat="47.25787" lon="-1.55933">
        <ele>74</ele>
        <time>2022-05-03T09:10:30Z</time>
      </trkpt>
      <trkpt lat="47.25788" lon="-1.55932">
        <ele>73</ele>
        <time>2022-05-03T09:10:31Z</time>
      </trkpt>
      <trkpt lat="47.25789" lon="-1.55931">
        <ele>73</ele>
        <time>2022-05-03T09:10:32Z</time>
      </trkpt>
      <trkpt lat="47.25789" lon="-1.5593">
        <ele>73</ele>
        <time>2022-05-03T09:10:33Z</time>
      </trkpt>
      <trkpt lat="47.2579" lon="-1.55929">
        <ele>72</ele>
        <time>2022-05-03T09:10:34Z</time>
      </trkpt>
      <trkpt lat="47.25791" lon="-1.55928">
        <ele>72</ele>
        <time>2022-05-03T09:10:35Z</time>
      </trkpt>
      <trkpt lat="47.25792" lon="-1.55927">
        <ele>72</ele>
        <time>2022-05-03T09:10:36Z</time>
      </trkpt>
      <trkpt lat="47.25792" lon="-1.55927">
        <ele>72</ele>
        <time>2022-05-03T09:10:37Z</time>
      </trkpt>
      <trkpt lat="47.25792" lon="-1.55927">
        <ele>72</ele>
        <time>2022-05-03T09:10:38Z</time>
      </trkpt>
      <trkpt lat="47.25794" lon="-1.55924">
        <ele>71</ele>
        <time>2022-05-03T09:10:39Z</time>
      </trkpt>
      <trkpt lat="47.25795" lon="-1.55923">
        <ele>72</ele>
        <time>2022-05-03T09:10:40Z</time>
      </trkpt>
      <trkpt lat="47.25795" lon="-1.55922">
        <ele>72</ele>
        <time>2022-05-03T09:10:41Z</time>
      </trkpt>
      <trkpt lat="47.25796" lon="-1.55921">
        <ele>73</ele>
        <time>2022-05-03T09:10:42Z</time>
      </trkpt>
      <trkpt lat="47.25796" lon="-1.55921">
        <ele>73</ele>
        <time>2022-05-03T09:10:43Z</time>
      </trkpt>
      <trkpt lat="47.25796" lon="-1.55921">
        <ele>73</ele>
        <time>2022-05-03T09:10:44Z</time>
      </trkpt>
      <trkpt lat="47.25799" lon="-1.55918">
        <ele>74</ele>
        <time>2022-05-03T09:10:45Z</time>
      </trkpt>
      <trkpt lat="47.258" lon="-1.55916">
        <ele>74</ele>
        <time>2022-05-03T09:10:46Z</time>
      </trkpt>
      <trkpt lat="47.25801" lon="-1.55915">
        <ele>74</ele>
        <time>2022-05-03T09:10:47Z</time>
      </trkpt>
      <trkpt lat="47.25802" lon="-1.55914">
        <ele>75</ele>
        <time>2022-05-03T09:10:48Z</time>
      </trkpt>
      <trkpt lat="47.25803" lon="-1.55913">
        <ele>75</ele>
        <time>2022-05-03T09:10:49Z</time>
      </trkpt>
      <trkpt lat="47.25805" lon="-1.55911">
        <ele>75</ele>
        <time>2022-05-03T09:10:50Z</time>
      </trkpt>
      <trkpt lat="47.25806" lon="-1.5591">
        <ele>74</ele>
        <time>2022-05-03T09:10:51Z</time>
      </trkpt>
      <trkpt lat="47.25807" lon="-1.55908">
        <ele>75</ele>
        <time>2022-05-03T09:10:52Z</time>
      </trkpt>
      <trkpt lat="47.25808" lon="-1.55907">
        <ele>75</ele>
        <time>2022-05-03T09:10:53Z</time>
      </trkpt>
      <trkpt lat="47.25808" lon="-1.55906">
        <ele>75</ele>
        <time>2022-05-03T09:10:54Z</time>
      </trkpt>
      <trkpt lat="47.2581" lon="-1.55904">
        <ele>75</ele>
        <time>2022-05-03T09:10:55Z</time>
      </trkpt>
      <trkpt lat="47.2581" lon="-1.55903">
        <ele>75</ele>
        <time>2022-05-03T09:10:56Z</time>
      </trkpt>
      <trkpt lat="47.25811" lon="-1.55901">
        <ele>75</ele>
        <time>2022-05-03T09:10:57Z</time>
      </trkpt>
      <trkpt lat="47.25811" lon="-1.559">
        <ele>75</ele>
        <time>2022-05-03T09:10:58Z</time>
      </trkpt>
      <trkpt lat="47.25811" lon="-1.559">
        <ele>75</ele>
        <time>2022-05-03T09:10:59Z</time>
      </trkpt>
      <trkpt lat="47.25811" lon="-1.559">
        <ele>75</ele>
        <time>2022-05-03T09:11:00Z</time>
      </trkpt>
      <trkpt lat="47.25814" lon="-1.55897">
        <ele>75</ele>
        <time>2022-05-03T09:11:01Z</time>
      </trkpt>
      <trkpt lat="47.25815" lon="-1.55896">
        <ele>76</ele>
        <time>2022-05-03T09:11:02Z</time>
      </trkpt>
      <trkpt lat="47.25816" lon="-1.55895">
        <ele>76</ele>
        <time>2022-05-03T09:11:03Z</time>
      </trkpt>
      <trkpt lat="47.25816" lon="-1.55893">
        <ele>76</ele>
        <time>2022-05-03T09:11:04Z</time>
      </trkpt>
      <trkpt lat="47.25818" lon="-1.55891">
        <ele>77</ele>
        <time>2022-05-03T09:11:05Z</time>
      </trkpt>
      <trkpt lat="47.25819" lon="-1.5589">
        <ele>77</ele>
        <time>2022-05-03T09:11:06Z</time>
      </trkpt>
      <trkpt lat="47.2582" lon="-1.55889">
        <ele>77</ele>
        <time>2022-05-03T09:11:07Z</time>
      </trkpt>
      <trkpt lat="47.25821" lon="-1.55887">
        <ele>78</ele>
        <time>2022-05-03T09:11:08Z</time>
      </trkpt>
      <trkpt lat="47.25821" lon="-1.55887">
        <ele>78</ele>
        <time>2022-05-03T09:11:09Z</time>
      </trkpt>
      <trkpt lat="47.25821" lon="-1.55887">
        <ele>78</ele>
        <time>2022-05-03T09:11:10Z</time>
      </trkpt>
      <trkpt lat="47.25824" lon="-1.55884">
        <ele>78</ele>
        <time>2022-05-03T09:11:11Z</time>
      </trkpt>
      <trkpt lat="47.25825" lon="-1.55882">
        <ele>78</ele>
        <time>2022-05-03T09:11:12Z</time>
      </trkpt>
      <trkpt lat="47.25826" lon="-1.55881">
        <ele>78</ele>
        <time>2022-05-03T09:11:13Z</time>
      </trkpt>
      <trkpt lat="47.25827" lon="-1.55879">
        <ele>78</ele>
        <time>2022-05-03T09:11:14Z</time>
      </trkpt>
      <trkpt lat="47.25828" lon="-1.55877">
        <ele>77</ele>
        <time>2022-05-03T09:11:15Z</time>
      </trkpt>
      <trkpt lat="47.25829" lon="-1.55876">
        <ele>76</ele>
        <time>2022-05-03T09:11:16Z</time>
      </trkpt>
      <trkpt lat="47.2583" lon="-1.55874">
        <ele>76</ele>
        <time>2022-05-03T09:11:17Z</time>
      </trkpt>
      <trkpt lat="47.25831" lon="-1.55872">
        <ele>75</ele>
        <time>2022-05-03T09:11:18Z</time>
      </trkpt>
      <trkpt lat="47.25832" lon="-1.55871">
        <ele>76</ele>
        <time>2022-05-03T09:11:19Z</time>
      </trkpt>
      <trkpt lat="47.25832" lon="-1.5587">
        <ele>76</ele>
        <time>2022-05-03T09:11:20Z</time>
      </trkpt>
      <trkpt lat="47.25832" lon="-1.55868">
        <ele>75</ele>
        <time>2022-05-03T09:11:21Z</time>
      </trkpt>
      <trkpt lat="47.25832" lon="-1.55866">
        <ele>75</ele>
        <time>2022-05-03T09:11:22Z</time>
      </trkpt>
      <trkpt lat="47.25833" lon="-1.55864">
        <ele>75</ele>
        <time>2022-05-03T09:11:23Z</time>
      </trkpt>
      <trkpt lat="47.25834" lon="-1.55862">
        <ele>75</ele>
        <time>2022-05-03T09:11:24Z</time>
      </trkpt>
      <trkpt lat="47.25834" lon="-1.5586">
        <ele>75</ele>
        <time>2022-05-03T09:11:25Z</time>
      </trkpt>
      <trkpt lat="47.25835" lon="-1.55858">
        <ele>75</ele>
        <time>2022-05-03T09:11:26Z</time>
      </trkpt>
      <trkpt lat="47.25836" lon="-1.55856">
        <ele>75</ele>
        <time>2022-05-03T09:11:27Z</time>
      </trkpt>
      <trkpt lat="47.25837" lon="-1.55854">
        <ele>75</ele>
        <time>2022-05-03T09:11:28Z</time>
      </trkpt>
      <trkpt lat="47.25837" lon="-1.55853">
        <ele>75</ele>
        <time>2022-05-03T09:11:29Z</time>
      </trkpt>
      <trkpt lat="47.25837" lon="-1.55852">
        <ele>75</ele>
        <time>2022-05-03T09:11:30Z</time>
      </trkpt>
      <trkpt lat="47.25838" lon="-1.5585">
        <ele>75</ele>
        <time>2022-05-03T09:11:31Z</time>
      </trkpt>
      <trkpt lat="47.25839" lon="-1.55849">
        <ele>74</ele>
        <time>2022-05-03T09:11:32Z</time>
      </trkpt>
      <trkpt lat="47.25839" lon="-1.55847">
        <ele>74</ele>
        <time>2022-05-03T09:11:33Z</time>
      </trkpt>
      <trkpt lat="47.25839" lon="-1.55846">
        <ele>74</ele>
        <time>2022-05-03T09:11:34Z</time>
      </trkpt>
      <trkpt lat="47.2584" lon="-1.55844">
        <ele>74</ele>
        <time>2022-05-03T09:11:35Z</time>
      </trkpt>
      <trkpt lat="47.2584" lon="-1.55842">
        <ele>74</ele>
        <time>2022-05-03T09:11:36Z</time>
      </trkpt>
      <trkpt lat="47.25841" lon="-1.5584">
        <ele>74</ele>
        <time>2022-05-03T09:11:37Z</time>
      </trkpt>
      <trkpt lat="47.25841" lon="-1.55839">
        <ele>74</ele>
        <time>2022-05-03T09:11:38Z</time>
      </trkpt>
      <trkpt lat="47.25842" lon="-1.55837">
        <ele>74</ele>
        <time>2022-05-03T09:11:39Z</time>
      </trkpt>
      <trkpt lat="47.25842" lon="-1.55835">
        <ele>74</ele>
        <time>2022-05-03T09:11:40Z</time>
      </trkpt>
      <trkpt lat="47.25843" lon="-1.55833">
        <ele>75</ele>
        <time>2022-05-03T09:11:41Z</time>
      </trkpt>
      <trkpt lat="47.25843" lon="-1.55831">
        <ele>76</ele>
        <time>2022-05-03T09:11:42Z</time>
      </trkpt>
      <trkpt lat="47.25844" lon="-1.5583">
        <ele>75</ele>
        <time>2022-05-03T09:11:43Z</time>
      </trkpt>
      <trkpt lat="47.25845" lon="-1.55828">
        <ele>75</ele>
        <time>2022-05-03T09:11:44Z</time>
      </trkpt>
      <trkpt lat="47.25845" lon="-1.55827">
        <ele>74</ele>
        <time>2022-05-03T09:11:45Z</time>
      </trkpt>
      <trkpt lat="47.25846" lon="-1.55826">
        <ele>73</ele>
        <time>2022-05-03T09:11:46Z</time>
      </trkpt>
      <trkpt lat="47.25847" lon="-1.55826">
        <ele>73</ele>
        <time>2022-05-03T09:11:47Z</time>
      </trkpt>
      <trkpt lat="47.25848" lon="-1.55825">
        <ele>72</ele>
        <time>2022-05-03T09:11:48Z</time>
      </trkpt>
      <trkpt lat="47.25848" lon="-1.55824">
        <ele>72</ele>
        <time>2022-05-03T09:11:49Z</time>
      </trkpt>
      <trkpt lat="47.25849" lon="-1.55823">
        <ele>72</ele>
        <time>2022-05-03T09:11:50Z</time>
      </trkpt>
      <trkpt lat="47.2585" lon="-1.55822">
        <ele>71</ele>
        <time>2022-05-03T09:11:51Z</time>
      </trkpt>
      <trkpt lat="47.25851" lon="-1.55821">
        <ele>71</ele>
        <time>2022-05-03T09:11:52Z</time>
      </trkpt>
      <trkpt lat="47.25853" lon="-1.5582">
        <ele>71</ele>
        <time>2022-05-03T09:11:53Z</time>
      </trkpt>
      <trkpt lat="47.25854" lon="-1.55819">
        <ele>71</ele>
        <time>2022-05-03T09:11:54Z</time>
      </trkpt>
      <trkpt lat="47.25856" lon="-1.55818">
        <ele>70</ele>
        <time>2022-05-03T09:11:55Z</time>
      </trkpt>
      <trkpt lat="47.25857" lon="-1.55816">
        <ele>71</ele>
        <time>2022-05-03T09:11:56Z</time>
      </trkpt>
      <trkpt lat="47.25858" lon="-1.55815">
        <ele>70</ele>
        <time>2022-05-03T09:11:57Z</time>
      </trkpt>
      <trkpt lat="47.2586" lon="-1.55813">
        <ele>70</ele>
        <time>2022-05-03T09:11:58Z</time>
      </trkpt>
      <trkpt lat="47.25861" lon="-1.55811">
        <ele>70</ele>
        <time>2022-05-03T09:11:59Z</time>
      </trkpt>
      <trkpt lat="47.25863" lon="-1.55809">
        <ele>70</ele>
        <time>2022-05-03T09:12:00Z</time>
      </trkpt>
      <trkpt lat="47.25863" lon="-1.55807">
        <ele>70</ele>
        <time>2022-05-03T09:12:01Z</time>
      </trkpt>
      <trkpt lat="47.25864" lon="-1.55806">
        <ele>69</ele>
        <time>2022-05-03T09:12:02Z</time>
      </trkpt>
      <trkpt lat="47.25866" lon="-1.55804">
        <ele>69</ele>
        <time>2022-05-03T09:12:03Z</time>
      </trkpt>
      <trkpt lat="47.25866" lon="-1.55802">
        <ele>69</ele>
        <time>2022-05-03T09:12:04Z</time>
      </trkpt>
      <trkpt lat="47.25867" lon="-1.55801">
        <ele>69</ele>
        <time>2022-05-03T09:12:05Z</time>
      </trkpt>
      <trkpt lat="47.25869" lon="-1.55799">
        <ele>69</ele>
        <time>2022-05-03T09:12:06Z</time>
      </trkpt>
      <trkpt lat="47.2587" lon="-1.55797">
        <ele>68</ele>
        <time>2022-05-03T09:12:07Z</time>
      </trkpt>
      <trkpt lat="47.25871" lon="-1.55795">
        <ele>68</ele>
        <time>2022-05-03T09:12:08Z</time>
      </trkpt>
      <trkpt lat="47.25872" lon="-1.55793">
        <ele>68</ele>
        <time>2022-05-03T09:12:09Z</time>
      </trkpt>
      <trkpt lat="47.25872" lon="-1.55791">
        <ele>67</ele>
        <time>2022-05-03T09:12:10Z</time>
      </trkpt>
      <trkpt lat="47.25872" lon="-1.5579">
        <ele>67</ele>
        <time>2022-05-03T09:12:11Z</time>
      </trkpt>
      <trkpt lat="47.25873" lon="-1.55787">
        <ele>67</ele>
        <time>2022-05-03T09:12:12Z</time>
      </trkpt>
      <trkpt lat="47.25874" lon="-1.55786">
        <ele>67</ele>
        <time>2022-05-03T09:12:13Z</time>
      </trkpt>
      <trkpt lat="47.25874" lon="-1.55784">
        <ele>67</ele>
        <time>2022-05-03T09:12:14Z</time>
      </trkpt>
      <trkpt lat="47.25875" lon="-1.55782">
        <ele>67</ele>
        <time>2022-05-03T09:12:15Z</time>
      </trkpt>
      <trkpt lat="47.25876" lon="-1.5578">
        <ele>67</ele>
        <time>2022-05-03T09:12:16Z</time>
      </trkpt>
      <trkpt lat="47.25877" lon="-1.55779">
        <ele>68</ele>
        <time>2022-05-03T09:12:17Z</time>
      </trkpt>
      <trkpt lat="47.25877" lon="-1.55777">
        <ele>67</ele>
        <time>2022-05-03T09:12:18Z</time>
      </trkpt>
      <trkpt lat="47.25879" lon="-1.55775">
        <ele>67</ele>
        <time>2022-05-03T09:12:19Z</time>
      </trkpt>
      <trkpt lat="47.25879" lon="-1.55774">
        <ele>67</ele>
        <time>2022-05-03T09:12:20Z</time>
      </trkpt>
      <trkpt lat="47.2588" lon="-1.55773">
        <ele>67</ele>
        <time>2022-05-03T09:12:21Z</time>
      </trkpt>
      <trkpt lat="47.25881" lon="-1.55771">
        <ele>68</ele>
        <time>2022-05-03T09:12:22Z</time>
      </trkpt>
      <trkpt lat="47.25881" lon="-1.5577">
        <ele>68</ele>
        <time>2022-05-03T09:12:23Z</time>
      </trkpt>
      <trkpt lat="47.25882" lon="-1.55769">
        <ele>68</ele>
        <time>2022-05-03T09:12:24Z</time>
      </trkpt>
      <trkpt lat="47.25883" lon="-1.55767">
        <ele>68</ele>
        <time>2022-05-03T09:12:25Z</time>
      </trkpt>
      <trkpt lat="47.25883" lon="-1.55766">
        <ele>68</ele>
        <time>2022-05-03T09:12:26Z</time>
      </trkpt>
      <trkpt lat="47.25884" lon="-1.55765">
        <ele>69</ele>
        <time>2022-05-03T09:12:27Z</time>
      </trkpt>
      <trkpt lat="47.25885" lon="-1.55764">
        <ele>68</ele>
        <time>2022-05-03T09:12:28Z</time>
      </trkpt>
      <trkpt lat="47.25885" lon="-1.55763">
        <ele>68</ele>
        <time>2022-05-03T09:12:29Z</time>
      </trkpt>
      <trkpt lat="47.25886" lon="-1.55762">
        <ele>68</ele>
        <time>2022-05-03T09:12:30Z</time>
      </trkpt>
      <trkpt lat="47.25887" lon="-1.55761">
        <ele>68</ele>
        <time>2022-05-03T09:12:31Z</time>
      </trkpt>
      <trkpt lat="47.25888" lon="-1.5576">
        <ele>68</ele>
        <time>2022-05-03T09:12:32Z</time>
      </trkpt>
      <trkpt lat="47.25889" lon="-1.5576">
        <ele>67</ele>
        <time>2022-05-03T09:12:33Z</time>
      </trkpt>
      <trkpt lat="47.2589" lon="-1.55759">
        <ele>67</ele>
        <time>2022-05-03T09:12:34Z</time>
      </trkpt>
      <trkpt lat="47.25892" lon="-1.55759">
        <ele>66</ele>
        <time>2022-05-03T09:12:35Z</time>
      </trkpt>
      <trkpt lat="47.25893" lon="-1.55759">
        <ele>66</ele>
        <time>2022-05-03T09:12:36Z</time>
      </trkpt>
      <trkpt lat="47.25893" lon="-1.55759">
        <ele>66</ele>
        <time>2022-05-03T09:12:37Z</time>
      </trkpt>
      <trkpt lat="47.25893" lon="-1.55759">
        <ele>66</ele>
        <time>2022-05-03T09:12:38Z</time>
      </trkpt>
      <trkpt lat="47.25895" lon="-1.55758">
        <ele>66</ele>
        <time>2022-05-03T09:12:39Z</time>
      </trkpt>
      <trkpt lat="47.25896" lon="-1.55758">
        <ele>65</ele>
        <time>2022-05-03T09:12:40Z</time>
      </trkpt>
      <trkpt lat="47.25898" lon="-1.55758">
        <ele>65</ele>
        <time>2022-05-03T09:12:41Z</time>
      </trkpt>
      <trkpt lat="47.25899" lon="-1.55757">
        <ele>65</ele>
        <time>2022-05-03T09:12:42Z</time>
      </trkpt>
      <trkpt lat="47.259" lon="-1.55757">
        <ele>65</ele>
        <time>2022-05-03T09:12:43Z</time>
      </trkpt>
      <trkpt lat="47.25902" lon="-1.55758">
        <ele>64</ele>
        <time>2022-05-03T09:12:44Z</time>
      </trkpt>
      <trkpt lat="47.25903" lon="-1.55758">
        <ele>64</ele>
        <time>2022-05-03T09:12:45Z</time>
      </trkpt>
      <trkpt lat="47.25904" lon="-1.55758">
        <ele>65</ele>
        <time>2022-05-03T09:12:46Z</time>
      </trkpt>
      <trkpt lat="47.25905" lon="-1.55758">
        <ele>65</ele>
        <time>2022-05-03T09:12:47Z</time>
      </trkpt>
      <trkpt lat="47.25906" lon="-1.55757">
        <ele>64</ele>
        <time>2022-05-03T09:12:48Z</time>
      </trkpt>
      <trkpt lat="47.25908" lon="-1.55757">
        <ele>64</ele>
        <time>2022-05-03T09:12:49Z</time>
      </trkpt>
      <trkpt lat="47.25909" lon="-1.55756">
        <ele>64</ele>
        <time>2022-05-03T09:12:50Z</time>
      </trkpt>
      <trkpt lat="47.2591" lon="-1.55756">
        <ele>63</ele>
        <time>2022-05-03T09:12:51Z</time>
      </trkpt>
      <trkpt lat="47.25911" lon="-1.55755">
        <ele>63</ele>
        <time>2022-05-03T09:12:52Z</time>
      </trkpt>
      <trkpt lat="47.25912" lon="-1.55755">
        <ele>63</ele>
        <time>2022-05-03T09:12:53Z</time>
      </trkpt>
      <trkpt lat="47.25913" lon="-1.55755">
        <ele>63</ele>
        <time>2022-05-03T09:12:54Z</time>
      </trkpt>
      <trkpt lat="47.25913" lon="-1.55755">
        <ele>63</ele>
        <time>2022-05-03T09:12:55Z</time>
      </trkpt>
      <trkpt lat="47.25914" lon="-1.55755">
        <ele>63</ele>
        <time>2022-05-03T09:12:56Z</time>
      </trkpt>
      <trkpt lat="47.25916" lon="-1.55755">
        <ele>63</ele>
        <time>2022-05-03T09:12:57Z</time>
      </trkpt>
      <trkpt lat="47.25917" lon="-1.55755">
        <ele>63</ele>
        <time>2022-05-03T09:12:58Z</time>
      </trkpt>
      <trkpt lat="47.25919" lon="-1.55755">
        <ele>63</ele>
        <time>2022-05-03T09:12:59Z</time>
      </trkpt>
      <trkpt lat="47.2592" lon="-1.55756">
        <ele>63</ele>
        <time>2022-05-03T09:13:00Z</time>
      </trkpt>
      <trkpt lat="47.25921" lon="-1.55756">
        <ele>64</ele>
        <time>2022-05-03T09:13:01Z</time>
      </trkpt>
      <trkpt lat="47.25922" lon="-1.55756">
        <ele>65</ele>
        <time>2022-05-03T09:13:02Z</time>
      </trkpt>
      <trkpt lat="47.25924" lon="-1.55756">
        <ele>65</ele>
        <time>2022-05-03T09:13:03Z</time>
      </trkpt>
      <trkpt lat="47.25925" lon="-1.55757">
        <ele>66</ele>
        <time>2022-05-03T09:13:04Z</time>
      </trkpt>
      <trkpt lat="47.25927" lon="-1.55757">
        <ele>67</ele>
        <time>2022-05-03T09:13:05Z</time>
      </trkpt>
      <trkpt lat="47.25929" lon="-1.55757">
        <ele>68</ele>
        <time>2022-05-03T09:13:06Z</time>
      </trkpt>
      <trkpt lat="47.2593" lon="-1.55758">
        <ele>68</ele>
        <time>2022-05-03T09:13:07Z</time>
      </trkpt>
      <trkpt lat="47.25932" lon="-1.55757">
        <ele>67</ele>
        <time>2022-05-03T09:13:08Z</time>
      </trkpt>
      <trkpt lat="47.25933" lon="-1.55757">
        <ele>67</ele>
        <time>2022-05-03T09:13:09Z</time>
      </trkpt>
      <trkpt lat="47.25934" lon="-1.55758">
        <ele>67</ele>
        <time>2022-05-03T09:13:10Z</time>
      </trkpt>
      <trkpt lat="47.25935" lon="-1.55757">
        <ele>68</ele>
        <time>2022-05-03T09:13:11Z</time>
      </trkpt>
      <trkpt lat="47.25937" lon="-1.55757">
        <ele>67</ele>
        <time>2022-05-03T09:13:12Z</time>
      </trkpt>
      <trkpt lat="47.25939" lon="-1.55756">
        <ele>66</ele>
        <time>2022-05-03T09:13:13Z</time>
      </trkpt>
      <trkpt lat="47.2594" lon="-1.55756">
        <ele>65</ele>
        <time>2022-05-03T09:13:14Z</time>
      </trkpt>
      <trkpt lat="47.25941" lon="-1.55756">
        <ele>65</ele>
        <time>2022-05-03T09:13:15Z</time>
      </trkpt>
      <trkpt lat="47.25941" lon="-1.55756">
        <ele>65</ele>
        <time>2022-05-03T09:13:16Z</time>
      </trkpt>
      <trkpt lat="47.25941" lon="-1.55756">
        <ele>65</ele>
        <time>2022-05-03T09:13:17Z</time>
      </trkpt>
      <trkpt lat="47.25943" lon="-1.55755">
        <ele>65</ele>
        <time>2022-05-03T09:13:18Z</time>
      </trkpt>
      <trkpt lat="47.25943" lon="-1.55755">
        <ele>64</ele>
        <time>2022-05-03T09:13:19Z</time>
      </trkpt>
      <trkpt lat="47.25944" lon="-1.55755">
        <ele>64</ele>
        <time>2022-05-03T09:13:20Z</time>
      </trkpt>
      <trkpt lat="47.25944" lon="-1.55755">
        <ele>64</ele>
        <time>2022-05-03T09:13:21Z</time>
      </trkpt>
      <trkpt lat="47.25944" lon="-1.55755">
        <ele>64</ele>
        <time>2022-05-03T09:13:22Z</time>
      </trkpt>
      <trkpt lat="47.25944" lon="-1.55755">
        <ele>64</ele>
        <time>2022-05-03T09:13:23Z</time>
      </trkpt>
      <trkpt lat="47.25946" lon="-1.55753">
        <ele>64</ele>
        <time>2022-05-03T09:13:24Z</time>
      </trkpt>
      <trkpt lat="47.25946" lon="-1.55752">
        <ele>65</ele>
        <time>2022-05-03T09:13:25Z</time>
      </trkpt>
      <trkpt lat="47.25946" lon="-1.55751">
        <ele>64</ele>
        <time>2022-05-03T09:13:26Z</time>
      </trkpt>
      <trkpt lat="47.25947" lon="-1.55751">
        <ele>64</ele>
        <time>2022-05-03T09:13:27Z</time>
      </trkpt>
      <trkpt lat="47.25947" lon="-1.55751">
        <ele>64</ele>
        <time>2022-05-03T09:13:28Z</time>
      </trkpt>
      <trkpt lat="47.25947" lon="-1.55751">
        <ele>64</ele>
        <time>2022-05-03T09:13:29Z</time>
      </trkpt>
      <trkpt lat="47.25949" lon="-1.55751">
        <ele>64</ele>
        <time>2022-05-03T09:13:30Z</time>
      </trkpt>
      <trkpt lat="47.25949" lon="-1.5575">
        <ele>63</ele>
        <time>2022-05-03T09:13:31Z</time>
      </trkpt>
      <trkpt lat="47.2595" lon="-1.55749">
        <ele>63</ele>
        <time>2022-05-03T09:13:32Z</time>
      </trkpt>
      <trkpt lat="47.25951" lon="-1.55748">
        <ele>63</ele>
        <time>2022-05-03T09:13:33Z</time>
      </trkpt>
      <trkpt lat="47.25953" lon="-1.55748">
        <ele>63</ele>
        <time>2022-05-03T09:13:34Z</time>
      </trkpt>
      <trkpt lat="47.25954" lon="-1.55748">
        <ele>63</ele>
        <time>2022-05-03T09:13:35Z</time>
      </trkpt>
      <trkpt lat="47.25956" lon="-1.55749">
        <ele>64</ele>
        <time>2022-05-03T09:13:36Z</time>
      </trkpt>
      <trkpt lat="47.25957" lon="-1.55749">
        <ele>64</ele>
        <time>2022-05-03T09:13:37Z</time>
      </trkpt>
      <trkpt lat="47.25958" lon="-1.55749">
        <ele>64</ele>
        <time>2022-05-03T09:13:38Z</time>
      </trkpt>
      <trkpt lat="47.25959" lon="-1.5575">
        <ele>64</ele>
        <time>2022-05-03T09:13:39Z</time>
      </trkpt>
      <trkpt lat="47.2596" lon="-1.55751">
        <ele>64</ele>
        <time>2022-05-03T09:13:40Z</time>
      </trkpt>
      <trkpt lat="47.25961" lon="-1.55751">
        <ele>64</ele>
        <time>2022-05-03T09:13:41Z</time>
      </trkpt>
      <trkpt lat="47.25962" lon="-1.55752">
        <ele>64</ele>
        <time>2022-05-03T09:13:42Z</time>
      </trkpt>
      <trkpt lat="47.25964" lon="-1.55753">
        <ele>64</ele>
        <time>2022-05-03T09:13:43Z</time>
      </trkpt>
      <trkpt lat="47.25964" lon="-1.55753">
        <ele>64</ele>
        <time>2022-05-03T09:13:44Z</time>
      </trkpt>
      <trkpt lat="47.25966" lon="-1.55754">
        <ele>64</ele>
        <time>2022-05-03T09:13:45Z</time>
      </trkpt>
      <trkpt lat="47.25966" lon="-1.55755">
        <ele>64</ele>
        <time>2022-05-03T09:13:46Z</time>
      </trkpt>
      <trkpt lat="47.25967" lon="-1.55756">
        <ele>65</ele>
        <time>2022-05-03T09:13:47Z</time>
      </trkpt>
      <trkpt lat="47.25968" lon="-1.55757">
        <ele>65</ele>
        <time>2022-05-03T09:13:48Z</time>
      </trkpt>
      <trkpt lat="47.25969" lon="-1.55758">
        <ele>65</ele>
        <time>2022-05-03T09:13:49Z</time>
      </trkpt>
      <trkpt lat="47.2597" lon="-1.55759">
        <ele>65</ele>
        <time>2022-05-03T09:13:50Z</time>
      </trkpt>
      <trkpt lat="47.25971" lon="-1.5576">
        <ele>64</ele>
        <time>2022-05-03T09:13:51Z</time>
      </trkpt>
      <trkpt lat="47.25972" lon="-1.55761">
        <ele>64</ele>
        <time>2022-05-03T09:13:52Z</time>
      </trkpt>
      <trkpt lat="47.25973" lon="-1.55762">
        <ele>64</ele>
        <time>2022-05-03T09:13:53Z</time>
      </trkpt>
      <trkpt lat="47.25974" lon="-1.55763">
        <ele>64</ele>
        <time>2022-05-03T09:13:54Z</time>
      </trkpt>
      <trkpt lat="47.25975" lon="-1.55763">
        <ele>64</ele>
        <time>2022-05-03T09:13:55Z</time>
      </trkpt>
      <trkpt lat="47.25977" lon="-1.55764">
        <ele>64</ele>
        <time>2022-05-03T09:13:56Z</time>
      </trkpt>
      <trkpt lat="47.25978" lon="-1.55764">
        <ele>63</ele>
        <time>2022-05-03T09:13:57Z</time>
      </trkpt>
      <trkpt lat="47.25979" lon="-1.55764">
        <ele>63</ele>
        <time>2022-05-03T09:13:58Z</time>
      </trkpt>
      <trkpt lat="47.2598" lon="-1.55764">
        <ele>63</ele>
        <time>2022-05-03T09:13:59Z</time>
      </trkpt>
      <trkpt lat="47.25981" lon="-1.55765">
        <ele>63</ele>
        <time>2022-05-03T09:14:00Z</time>
      </trkpt>
      <trkpt lat="47.25982" lon="-1.55765">
        <ele>63</ele>
        <time>2022-05-03T09:14:01Z</time>
      </trkpt>
      <trkpt lat="47.25983" lon="-1.55765">
        <ele>63</ele>
        <time>2022-05-03T09:14:02Z</time>
      </trkpt>
      <trkpt lat="47.25984" lon="-1.55765">
        <ele>63</ele>
        <time>2022-05-03T09:14:03Z</time>
      </trkpt>
      <trkpt lat="47.25985" lon="-1.55766">
        <ele>63</ele>
        <time>2022-05-03T09:14:04Z</time>
      </trkpt>
      <trkpt lat="47.25987" lon="-1.55766">
        <ele>63</ele>
        <time>2022-05-03T09:14:05Z</time>
      </trkpt>
      <trkpt lat="47.25988" lon="-1.55767">
        <ele>63</ele>
        <time>2022-05-03T09:14:06Z</time>
      </trkpt>
      <trkpt lat="47.25989" lon="-1.55768">
        <ele>64</ele>
        <time>2022-05-03T09:14:07Z</time>
      </trkpt>
      <trkpt lat="47.2599" lon="-1.55769">
        <ele>64</ele>
        <time>2022-05-03T09:14:08Z</time>
      </trkpt>
      <trkpt lat="47.25991" lon="-1.55769">
        <ele>64</ele>
        <time>2022-05-03T09:14:09Z</time>
      </trkpt>
      <trkpt lat="47.25993" lon="-1.5577">
        <ele>64</ele>
        <time>2022-05-03T09:14:10Z</time>
      </trkpt>
      <trkpt lat="47.25993" lon="-1.55771">
        <ele>64</ele>
        <time>2022-05-03T09:14:11Z</time>
      </trkpt>
      <trkpt lat="47.25995" lon="-1.55771">
        <ele>65</ele>
        <time>2022-05-03T09:14:12Z</time>
      </trkpt>
      <trkpt lat="47.25996" lon="-1.55771">
        <ele>65</ele>
        <time>2022-05-03T09:14:13Z</time>
      </trkpt>
      <trkpt lat="47.25997" lon="-1.55771">
        <ele>65</ele>
        <time>2022-05-03T09:14:14Z</time>
      </trkpt>
      <trkpt lat="47.25998" lon="-1.55771">
        <ele>65</ele>
        <time>2022-05-03T09:14:15Z</time>
      </trkpt>
      <trkpt lat="47.25999" lon="-1.5577">
        <ele>65</ele>
        <time>2022-05-03T09:14:16Z</time>
      </trkpt>
      <trkpt lat="47.26" lon="-1.55769">
        <ele>65</ele>
        <time>2022-05-03T09:14:17Z</time>
      </trkpt>
      <trkpt lat="47.26001" lon="-1.55768">
        <ele>65</ele>
        <time>2022-05-03T09:14:18Z</time>
      </trkpt>
      <trkpt lat="47.26003" lon="-1.55767">
        <ele>65</ele>
        <time>2022-05-03T09:14:19Z</time>
      </trkpt>
      <trkpt lat="47.26003" lon="-1.55766">
        <ele>65</ele>
        <time>2022-05-03T09:14:20Z</time>
      </trkpt>
      <trkpt lat="47.26004" lon="-1.55765">
        <ele>65</ele>
        <time>2022-05-03T09:14:21Z</time>
      </trkpt>
      <trkpt lat="47.26005" lon="-1.55763">
        <ele>65</ele>
        <time>2022-05-03T09:14:22Z</time>
      </trkpt>
      <trkpt lat="47.26006" lon="-1.55762">
        <ele>64</ele>
        <time>2022-05-03T09:14:23Z</time>
      </trkpt>
      <trkpt lat="47.26006" lon="-1.55761">
        <ele>64</ele>
        <time>2022-05-03T09:14:24Z</time>
      </trkpt>
      <trkpt lat="47.26007" lon="-1.5576">
        <ele>65</ele>
        <time>2022-05-03T09:14:25Z</time>
      </trkpt>
      <trkpt lat="47.26008" lon="-1.55759">
        <ele>65</ele>
        <time>2022-05-03T09:14:26Z</time>
      </trkpt>
      <trkpt lat="47.26008" lon="-1.55759">
        <ele>65</ele>
        <time>2022-05-03T09:14:27Z</time>
      </trkpt>
      <trkpt lat="47.26009" lon="-1.55758">
        <ele>65</ele>
        <time>2022-05-03T09:14:28Z</time>
      </trkpt>
      <trkpt lat="47.26011" lon="-1.55757">
        <ele>66</ele>
        <time>2022-05-03T09:14:29Z</time>
      </trkpt>
      <trkpt lat="47.26012" lon="-1.55756">
        <ele>66</ele>
        <time>2022-05-03T09:14:30Z</time>
      </trkpt>
      <trkpt lat="47.26013" lon="-1.55755">
        <ele>66</ele>
        <time>2022-05-03T09:14:31Z</time>
      </trkpt>
      <trkpt lat="47.26014" lon="-1.55754">
        <ele>66</ele>
        <time>2022-05-03T09:14:32Z</time>
      </trkpt>
      <trkpt lat="47.26015" lon="-1.55753">
        <ele>67</ele>
        <time>2022-05-03T09:14:33Z</time>
      </trkpt>
      <trkpt lat="47.26017" lon="-1.55752">
        <ele>67</ele>
        <time>2022-05-03T09:14:34Z</time>
      </trkpt>
      <trkpt lat="47.26018" lon="-1.55751">
        <ele>67</ele>
        <time>2022-05-03T09:14:35Z</time>
      </trkpt>
      <trkpt lat="47.26019" lon="-1.55751">
        <ele>67</ele>
        <time>2022-05-03T09:14:36Z</time>
      </trkpt>
      <trkpt lat="47.2602" lon="-1.5575">
        <ele>67</ele>
        <time>2022-05-03T09:14:37Z</time>
      </trkpt>
      <trkpt lat="47.26021" lon="-1.55749">
        <ele>67</ele>
        <time>2022-05-03T09:14:38Z</time>
      </trkpt>
      <trkpt lat="47.26022" lon="-1.55748">
        <ele>67</ele>
        <time>2022-05-03T09:14:39Z</time>
      </trkpt>
      <trkpt lat="47.26023" lon="-1.55747">
        <ele>67</ele>
        <time>2022-05-03T09:14:40Z</time>
      </trkpt>
      <trkpt lat="47.26024" lon="-1.55746">
        <ele>67</ele>
        <time>2022-05-03T09:14:41Z</time>
      </trkpt>
      <trkpt lat="47.26025" lon="-1.55745">
        <ele>67</ele>
        <time>2022-05-03T09:14:42Z</time>
      </trkpt>
      <trkpt lat="47.26026" lon="-1.55744">
        <ele>67</ele>
        <time>2022-05-03T09:14:43Z</time>
      </trkpt>
      <trkpt lat="47.26027" lon="-1.55742">
        <ele>67</ele>
        <time>2022-05-03T09:14:44Z</time>
      </trkpt>
      <trkpt lat="47.26028" lon="-1.55741">
        <ele>67</ele>
        <time>2022-05-03T09:14:45Z</time>
      </trkpt>
      <trkpt lat="47.26029" lon="-1.5574">
        <ele>68</ele>
        <time>2022-05-03T09:14:46Z</time>
      </trkpt>
      <trkpt lat="47.2603" lon="-1.55738">
        <ele>68</ele>
        <time>2022-05-03T09:14:47Z</time>
      </trkpt>
      <trkpt lat="47.2603" lon="-1.55736">
        <ele>68</ele>
        <time>2022-05-03T09:14:48Z</time>
      </trkpt>
      <trkpt lat="47.26031" lon="-1.55735">
        <ele>67</ele>
        <time>2022-05-03T09:14:49Z</time>
      </trkpt>
      <trkpt lat="47.26032" lon="-1.55734">
        <ele>68</ele>
        <time>2022-05-03T09:14:50Z</time>
      </trkpt>
      <trkpt lat="47.26033" lon="-1.55733">
        <ele>68</ele>
        <time>2022-05-03T09:14:51Z</time>
      </trkpt>
      <trkpt lat="47.26033" lon="-1.55732">
        <ele>67</ele>
        <time>2022-05-03T09:14:52Z</time>
      </trkpt>
      <trkpt lat="47.26034" lon="-1.55731">
        <ele>68</ele>
        <time>2022-05-03T09:14:53Z</time>
      </trkpt>
      <trkpt lat="47.26035" lon="-1.55729">
        <ele>68</ele>
        <time>2022-05-03T09:14:54Z</time>
      </trkpt>
      <trkpt lat="47.26037" lon="-1.55728">
        <ele>68</ele>
        <time>2022-05-03T09:14:55Z</time>
      </trkpt>
      <trkpt lat="47.26037" lon="-1.55726">
        <ele>68</ele>
        <time>2022-05-03T09:14:56Z</time>
      </trkpt>
      <trkpt lat="47.26038" lon="-1.55725">
        <ele>69</ele>
        <time>2022-05-03T09:14:57Z</time>
      </trkpt>
      <trkpt lat="47.26039" lon="-1.55724">
        <ele>68</ele>
        <time>2022-05-03T09:14:58Z</time>
      </trkpt>
      <trkpt lat="47.2604" lon="-1.55722">
        <ele>68</ele>
        <time>2022-05-03T09:14:59Z</time>
      </trkpt>
      <trkpt lat="47.2604" lon="-1.55721">
        <ele>68</ele>
        <time>2022-05-03T09:15:00Z</time>
      </trkpt>
      <trkpt lat="47.2604" lon="-1.55719">
        <ele>68</ele>
        <time>2022-05-03T09:15:01Z</time>
      </trkpt>
      <trkpt lat="47.2604" lon="-1.55718">
        <ele>68</ele>
        <time>2022-05-03T09:15:02Z</time>
      </trkpt>
      <trkpt lat="47.2604" lon="-1.55716">
        <ele>68</ele>
        <time>2022-05-03T09:15:03Z</time>
      </trkpt>
      <trkpt lat="47.2604" lon="-1.55714">
        <ele>68</ele>
        <time>2022-05-03T09:15:04Z</time>
      </trkpt>
      <trkpt lat="47.2604" lon="-1.55713">
        <ele>68</ele>
        <time>2022-05-03T09:15:05Z</time>
      </trkpt>
      <trkpt lat="47.2604" lon="-1.55711">
        <ele>68</ele>
        <time>2022-05-03T09:15:06Z</time>
      </trkpt>
      <trkpt lat="47.26041" lon="-1.55709">
        <ele>68</ele>
        <time>2022-05-03T09:15:07Z</time>
      </trkpt>
      <trkpt lat="47.26041" lon="-1.55707">
        <ele>68</ele>
        <time>2022-05-03T09:15:08Z</time>
      </trkpt>
      <trkpt lat="47.26041" lon="-1.55705">
        <ele>68</ele>
        <time>2022-05-03T09:15:09Z</time>
      </trkpt>
      <trkpt lat="47.26041" lon="-1.55704">
        <ele>69</ele>
        <time>2022-05-03T09:15:10Z</time>
      </trkpt>
      <trkpt lat="47.26041" lon="-1.55702">
        <ele>69</ele>
        <time>2022-05-03T09:15:11Z</time>
      </trkpt>
      <trkpt lat="47.26041" lon="-1.55701">
        <ele>70</ele>
        <time>2022-05-03T09:15:12Z</time>
      </trkpt>
      <trkpt lat="47.26041" lon="-1.55699">
        <ele>70</ele>
        <time>2022-05-03T09:15:13Z</time>
      </trkpt>
      <trkpt lat="47.26041" lon="-1.55697">
        <ele>69</ele>
        <time>2022-05-03T09:15:14Z</time>
      </trkpt>
      <trkpt lat="47.26041" lon="-1.55695">
        <ele>69</ele>
        <time>2022-05-03T09:15:15Z</time>
      </trkpt>
      <trkpt lat="47.26041" lon="-1.55693">
        <ele>69</ele>
        <time>2022-05-03T09:15:16Z</time>
      </trkpt>
      <trkpt lat="47.26041" lon="-1.55692">
        <ele>68</ele>
        <time>2022-05-03T09:15:17Z</time>
      </trkpt>
      <trkpt lat="47.26042" lon="-1.55689">
        <ele>68</ele>
        <time>2022-05-03T09:15:18Z</time>
      </trkpt>
      <trkpt lat="47.26042" lon="-1.55687">
        <ele>68</ele>
        <time>2022-05-03T09:15:19Z</time>
      </trkpt>
      <trkpt lat="47.26042" lon="-1.55685">
        <ele>68</ele>
        <time>2022-05-03T09:15:20Z</time>
      </trkpt>
      <trkpt lat="47.26041" lon="-1.55683">
        <ele>68</ele>
        <time>2022-05-03T09:15:21Z</time>
      </trkpt>
      <trkpt lat="47.26041" lon="-1.55681">
        <ele>68</ele>
        <time>2022-05-03T09:15:22Z</time>
      </trkpt>
      <trkpt lat="47.26041" lon="-1.5568">
        <ele>68</ele>
        <time>2022-05-03T09:15:23Z</time>
      </trkpt>
      <trkpt lat="47.26041" lon="-1.55678">
        <ele>68</ele>
        <time>2022-05-03T09:15:24Z</time>
      </trkpt>
      <trkpt lat="47.2604" lon="-1.55677">
        <ele>68</ele>
        <time>2022-05-03T09:15:25Z</time>
      </trkpt>
      <trkpt lat="47.2604" lon="-1.55675">
        <ele>68</ele>
        <time>2022-05-03T09:15:26Z</time>
      </trkpt>
      <trkpt lat="47.2604" lon="-1.55673">
        <ele>68</ele>
        <time>2022-05-03T09:15:27Z</time>
      </trkpt>
      <trkpt lat="47.2604" lon="-1.55671">
        <ele>68</ele>
        <time>2022-05-03T09:15:28Z</time>
      </trkpt>
      <trkpt lat="47.2604" lon="-1.5567">
        <ele>68</ele>
        <time>2022-05-03T09:15:29Z</time>
      </trkpt>
      <trkpt lat="47.2604" lon="-1.55668">
        <ele>68</ele>
        <time>2022-05-03T09:15:30Z</time>
      </trkpt>
      <trkpt lat="47.26039" lon="-1.55667">
        <ele>68</ele>
        <time>2022-05-03T09:15:31Z</time>
      </trkpt>
      <trkpt lat="47.2604" lon="-1.55666">
        <ele>68</ele>
        <time>2022-05-03T09:15:32Z</time>
      </trkpt>
      <trkpt lat="47.2604" lon="-1.55664">
        <ele>68</ele>
        <time>2022-05-03T09:15:33Z</time>
      </trkpt>
      <trkpt lat="47.26041" lon="-1.55663">
        <ele>68</ele>
        <time>2022-05-03T09:15:34Z</time>
      </trkpt>
      <trkpt lat="47.26041" lon="-1.55662">
        <ele>68</ele>
        <time>2022-05-03T09:15:35Z</time>
      </trkpt>
      <trkpt lat="47.26041" lon="-1.55661">
        <ele>68</ele>
        <time>2022-05-03T09:15:36Z</time>
      </trkpt>
      <trkpt lat="47.26041" lon="-1.55659">
        <ele>68</ele>
        <time>2022-05-03T09:15:37Z</time>
      </trkpt>
      <trkpt lat="47.2604" lon="-1.55657">
        <ele>67</ele>
        <time>2022-05-03T09:15:38Z</time>
      </trkpt>
      <trkpt lat="47.2604" lon="-1.55656">
        <ele>67</ele>
        <time>2022-05-03T09:15:39Z</time>
      </trkpt>
      <trkpt lat="47.26039" lon="-1.55654">
        <ele>67</ele>
        <time>2022-05-03T09:15:40Z</time>
      </trkpt>
      <trkpt lat="47.26038" lon="-1.55653">
        <ele>67</ele>
        <time>2022-05-03T09:15:41Z</time>
      </trkpt>
      <trkpt lat="47.26038" lon="-1.55652">
        <ele>67</ele>
        <time>2022-05-03T09:15:42Z</time>
      </trkpt>
      <trkpt lat="47.26037" lon="-1.55652">
        <ele>67</ele>
        <time>2022-05-03T09:15:43Z</time>
      </trkpt>
      <trkpt lat="47.26037" lon="-1.55651">
        <ele>67</ele>
        <time>2022-05-03T09:15:44Z</time>
      </trkpt>
      <trkpt lat="47.26036" lon="-1.5565">
        <ele>66</ele>
        <time>2022-05-03T09:15:45Z</time>
      </trkpt>
      <trkpt lat="47.26035" lon="-1.55649">
        <ele>66</ele>
        <time>2022-05-03T09:15:46Z</time>
      </trkpt>
      <trkpt lat="47.26034" lon="-1.55648">
        <ele>66</ele>
        <time>2022-05-03T09:15:47Z</time>
      </trkpt>
      <trkpt lat="47.26033" lon="-1.55647">
        <ele>66</ele>
        <time>2022-05-03T09:15:48Z</time>
      </trkpt>
      <trkpt lat="47.26032" lon="-1.55646">
        <ele>67</ele>
        <time>2022-05-03T09:15:49Z</time>
      </trkpt>
      <trkpt lat="47.26031" lon="-1.55644">
        <ele>67</ele>
        <time>2022-05-03T09:15:50Z</time>
      </trkpt>
      <trkpt lat="47.2603" lon="-1.55643">
        <ele>67</ele>
        <time>2022-05-03T09:15:51Z</time>
      </trkpt>
      <trkpt lat="47.26028" lon="-1.55641">
        <ele>67</ele>
        <time>2022-05-03T09:15:52Z</time>
      </trkpt>
      <trkpt lat="47.26027" lon="-1.55641">
        <ele>67</ele>
        <time>2022-05-03T09:15:53Z</time>
      </trkpt>
      <trkpt lat="47.26026" lon="-1.5564">
        <ele>68</ele>
        <time>2022-05-03T09:15:54Z</time>
      </trkpt>
      <trkpt lat="47.26025" lon="-1.55638">
        <ele>68</ele>
        <time>2022-05-03T09:15:55Z</time>
      </trkpt>
      <trkpt lat="47.26023" lon="-1.55637">
        <ele>68</ele>
        <time>2022-05-03T09:15:56Z</time>
      </trkpt>
      <trkpt lat="47.26022" lon="-1.55636">
        <ele>69</ele>
        <time>2022-05-03T09:15:57Z</time>
      </trkpt>
      <trkpt lat="47.26021" lon="-1.55636">
        <ele>69</ele>
        <time>2022-05-03T09:15:58Z</time>
      </trkpt>
      <trkpt lat="47.2602" lon="-1.55635">
        <ele>69</ele>
        <time>2022-05-03T09:15:59Z</time>
      </trkpt>
      <trkpt lat="47.26019" lon="-1.55634">
        <ele>69</ele>
        <time>2022-05-03T09:16:00Z</time>
      </trkpt>
      <trkpt lat="47.26018" lon="-1.55633">
        <ele>70</ele>
        <time>2022-05-03T09:16:01Z</time>
      </trkpt>
      <trkpt lat="47.26017" lon="-1.55632">
        <ele>70</ele>
        <time>2022-05-03T09:16:02Z</time>
      </trkpt>
      <trkpt lat="47.26016" lon="-1.55632">
        <ele>69</ele>
        <time>2022-05-03T09:16:03Z</time>
      </trkpt>
      <trkpt lat="47.26014" lon="-1.55631">
        <ele>70</ele>
        <time>2022-05-03T09:16:04Z</time>
      </trkpt>
      <trkpt lat="47.26013" lon="-1.5563">
        <ele>70</ele>
        <time>2022-05-03T09:16:05Z</time>
      </trkpt>
      <trkpt lat="47.26012" lon="-1.55629">
        <ele>70</ele>
        <time>2022-05-03T09:16:06Z</time>
      </trkpt>
      <trkpt lat="47.26011" lon="-1.55628">
        <ele>70</ele>
        <time>2022-05-03T09:16:07Z</time>
      </trkpt>
      <trkpt lat="47.2601" lon="-1.55626">
        <ele>70</ele>
        <time>2022-05-03T09:16:08Z</time>
      </trkpt>
      <trkpt lat="47.26009" lon="-1.55625">
        <ele>71</ele>
        <time>2022-05-03T09:16:09Z</time>
      </trkpt>
      <trkpt lat="47.26009" lon="-1.55623">
        <ele>71</ele>
        <time>2022-05-03T09:16:10Z</time>
      </trkpt>
      <trkpt lat="47.26008" lon="-1.55622">
        <ele>71</ele>
        <time>2022-05-03T09:16:11Z</time>
      </trkpt>
      <trkpt lat="47.26007" lon="-1.5562">
        <ele>71</ele>
        <time>2022-05-03T09:16:12Z</time>
      </trkpt>
      <trkpt lat="47.26006" lon="-1.55618">
        <ele>71</ele>
        <time>2022-05-03T09:16:13Z</time>
      </trkpt>
      <trkpt lat="47.26006" lon="-1.55617">
        <ele>72</ele>
        <time>2022-05-03T09:16:14Z</time>
      </trkpt>
      <trkpt lat="47.26005" lon="-1.55615">
        <ele>72</ele>
        <time>2022-05-03T09:16:15Z</time>
      </trkpt>
      <trkpt lat="47.26004" lon="-1.55613">
        <ele>72</ele>
        <time>2022-05-03T09:16:16Z</time>
      </trkpt>
      <trkpt lat="47.26004" lon="-1.55611">
        <ele>72</ele>
        <time>2022-05-03T09:16:17Z</time>
      </trkpt>
      <trkpt lat="47.26004" lon="-1.55609">
        <ele>71</ele>
        <time>2022-05-03T09:16:18Z</time>
      </trkpt>
      <trkpt lat="47.26003" lon="-1.55607">
        <ele>71</ele>
        <time>2022-05-03T09:16:19Z</time>
      </trkpt>
      <trkpt lat="47.26003" lon="-1.55605">
        <ele>71</ele>
        <time>2022-05-03T09:16:20Z</time>
      </trkpt>
      <trkpt lat="47.26003" lon="-1.55603">
        <ele>70</ele>
        <time>2022-05-03T09:16:21Z</time>
      </trkpt>
      <trkpt lat="47.26003" lon="-1.55601">
        <ele>70</ele>
        <time>2022-05-03T09:16:22Z</time>
      </trkpt>
      <trkpt lat="47.26003" lon="-1.55599">
        <ele>70</ele>
        <time>2022-05-03T09:16:23Z</time>
      </trkpt>
      <trkpt lat="47.26003" lon="-1.55596">
        <ele>70</ele>
        <time>2022-05-03T09:16:24Z</time>
      </trkpt>
      <trkpt lat="47.26003" lon="-1.55594">
        <ele>69</ele>
        <time>2022-05-03T09:16:25Z</time>
      </trkpt>
      <trkpt lat="47.26003" lon="-1.55592">
        <ele>68</ele>
        <time>2022-05-03T09:16:26Z</time>
      </trkpt>
      <trkpt lat="47.26003" lon="-1.5559">
        <ele>68</ele>
        <time>2022-05-03T09:16:27Z</time>
      </trkpt>
      <trkpt lat="47.26003" lon="-1.55587">
        <ele>67</ele>
        <time>2022-05-03T09:16:28Z</time>
      </trkpt>
      <trkpt lat="47.26004" lon="-1.55585">
        <ele>67</ele>
        <time>2022-05-03T09:16:29Z</time>
      </trkpt>
      <trkpt lat="47.26004" lon="-1.55583">
        <ele>67</ele>
        <time>2022-05-03T09:16:30Z</time>
      </trkpt>
      <trkpt lat="47.26005" lon="-1.55581">
        <ele>67</ele>
        <time>2022-05-03T09:16:31Z</time>
      </trkpt>
      <trkpt lat="47.26005" lon="-1.55579">
        <ele>67</ele>
        <time>2022-05-03T09:16:32Z</time>
      </trkpt>
      <trkpt lat="47.26006" lon="-1.55577">
        <ele>67</ele>
        <time>2022-05-03T09:16:33Z</time>
      </trkpt>
      <trkpt lat="47.26006" lon="-1.55575">
        <ele>66</ele>
        <time>2022-05-03T09:16:34Z</time>
      </trkpt>
      <trkpt lat="47.26006" lon="-1.55573">
        <ele>66</ele>
        <time>2022-05-03T09:16:35Z</time>
      </trkpt>
      <trkpt lat="47.26007" lon="-1.55571">
        <ele>66</ele>
        <time>2022-05-03T09:16:36Z</time>
      </trkpt>
      <trkpt lat="47.26007" lon="-1.5557">
        <ele>66</ele>
        <time>2022-05-03T09:16:37Z</time>
      </trkpt>
      <trkpt lat="47.26008" lon="-1.55568">
        <ele>66</ele>
        <time>2022-05-03T09:16:38Z</time>
      </trkpt>
      <trkpt lat="47.26008" lon="-1.55566">
        <ele>66</ele>
        <time>2022-05-03T09:16:39Z</time>
      </trkpt>
      <trkpt lat="47.26009" lon="-1.55564">
        <ele>66</ele>
        <time>2022-05-03T09:16:40Z</time>
      </trkpt>
      <trkpt lat="47.26009" lon="-1.55562">
        <ele>65</ele>
        <time>2022-05-03T09:16:41Z</time>
      </trkpt>
      <trkpt lat="47.26009" lon="-1.5556">
        <ele>65</ele>
        <time>2022-05-03T09:16:42Z</time>
      </trkpt>
      <trkpt lat="47.2601" lon="-1.55559">
        <ele>65</ele>
        <time>2022-05-03T09:16:43Z</time>
      </trkpt>
      <trkpt lat="47.26011" lon="-1.55557">
        <ele>65</ele>
        <time>2022-05-03T09:16:44Z</time>
      </trkpt>
      <trkpt lat="47.26011" lon="-1.55555">
        <ele>64</ele>
        <time>2022-05-03T09:16:45Z</time>
      </trkpt>
      <trkpt lat="47.26012" lon="-1.55553">
        <ele>64</ele>
        <time>2022-05-03T09:16:46Z</time>
      </trkpt>
      <trkpt lat="47.26012" lon="-1.55551">
        <ele>64</ele>
        <time>2022-05-03T09:16:47Z</time>
      </trkpt>
      <trkpt lat="47.26013" lon="-1.55549">
        <ele>64</ele>
        <time>2022-05-03T09:16:48Z</time>
      </trkpt>
      <trkpt lat="47.26014" lon="-1.55548">
        <ele>63</ele>
        <time>2022-05-03T09:16:49Z</time>
      </trkpt>
      <trkpt lat="47.26014" lon="-1.55545">
        <ele>64</ele>
        <time>2022-05-03T09:16:50Z</time>
      </trkpt>
      <trkpt lat="47.26015" lon="-1.55542">
        <ele>63</ele>
        <time>2022-05-03T09:16:51Z</time>
      </trkpt>
      <trkpt lat="47.26015" lon="-1.5554">
        <ele>63</ele>
        <time>2022-05-03T09:16:52Z</time>
      </trkpt>
      <trkpt lat="47.26016" lon="-1.55538">
        <ele>63</ele>
        <time>2022-05-03T09:16:53Z</time>
      </trkpt>
      <trkpt lat="47.26016" lon="-1.55537">
        <ele>64</ele>
        <time>2022-05-03T09:16:54Z</time>
      </trkpt>
      <trkpt lat="47.26017" lon="-1.55535">
        <ele>64</ele>
        <time>2022-05-03T09:16:55Z</time>
      </trkpt>
      <trkpt lat="47.26017" lon="-1.55534">
        <ele>64</ele>
        <time>2022-05-03T09:16:56Z</time>
      </trkpt>
      <trkpt lat="47.26018" lon="-1.55532">
        <ele>64</ele>
        <time>2022-05-03T09:16:57Z</time>
      </trkpt>
      <trkpt lat="47.26019" lon="-1.5553">
        <ele>64</ele>
        <time>2022-05-03T09:16:58Z</time>
      </trkpt>
      <trkpt lat="47.2602" lon="-1.55529">
        <ele>64</ele>
        <time>2022-05-03T09:16:59Z</time>
      </trkpt>
      <trkpt lat="47.2602" lon="-1.55527">
        <ele>64</ele>
        <time>2022-05-03T09:17:00Z</time>
      </trkpt>
      <trkpt lat="47.26021" lon="-1.55526">
        <ele>64</ele>
        <time>2022-05-03T09:17:01Z</time>
      </trkpt>
      <trkpt lat="47.26022" lon="-1.55524">
        <ele>64</ele>
        <time>2022-05-03T09:17:02Z</time>
      </trkpt>
      <trkpt lat="47.26022" lon="-1.55522">
        <ele>64</ele>
        <time>2022-05-03T09:17:03Z</time>
      </trkpt>
      <trkpt lat="47.26023" lon="-1.5552">
        <ele>64</ele>
        <time>2022-05-03T09:17:04Z</time>
      </trkpt>
      <trkpt lat="47.26024" lon="-1.55518">
        <ele>63</ele>
        <time>2022-05-03T09:17:05Z</time>
      </trkpt>
      <trkpt lat="47.26024" lon="-1.55517">
        <ele>63</ele>
        <time>2022-05-03T09:17:06Z</time>
      </trkpt>
      <trkpt lat="47.26025" lon="-1.55515">
        <ele>63</ele>
        <time>2022-05-03T09:17:07Z</time>
      </trkpt>
      <trkpt lat="47.26025" lon="-1.55513">
        <ele>63</ele>
        <time>2022-05-03T09:17:08Z</time>
      </trkpt>
      <trkpt lat="47.26027" lon="-1.55511">
        <ele>63</ele>
        <time>2022-05-03T09:17:09Z</time>
      </trkpt>
      <trkpt lat="47.26028" lon="-1.55509">
        <ele>63</ele>
        <time>2022-05-03T09:17:10Z</time>
      </trkpt>
      <trkpt lat="47.26028" lon="-1.55507">
        <ele>63</ele>
        <time>2022-05-03T09:17:11Z</time>
      </trkpt>
      <trkpt lat="47.2603" lon="-1.55506">
        <ele>63</ele>
        <time>2022-05-03T09:17:12Z</time>
      </trkpt>
      <trkpt lat="47.2603" lon="-1.55504">
        <ele>62</ele>
        <time>2022-05-03T09:17:13Z</time>
      </trkpt>
      <trkpt lat="47.2603" lon="-1.55502">
        <ele>63</ele>
        <time>2022-05-03T09:17:14Z</time>
      </trkpt>
      <trkpt lat="47.26031" lon="-1.555">
        <ele>63</ele>
        <time>2022-05-03T09:17:15Z</time>
      </trkpt>
      <trkpt lat="47.26032" lon="-1.55499">
        <ele>63</ele>
        <time>2022-05-03T09:17:16Z</time>
      </trkpt>
      <trkpt lat="47.26032" lon="-1.55497">
        <ele>64</ele>
        <time>2022-05-03T09:17:17Z</time>
      </trkpt>
      <trkpt lat="47.26033" lon="-1.55496">
        <ele>64</ele>
        <time>2022-05-03T09:17:18Z</time>
      </trkpt>
      <trkpt lat="47.26033" lon="-1.55494">
        <ele>65</ele>
        <time>2022-05-03T09:17:19Z</time>
      </trkpt>
      <trkpt lat="47.26034" lon="-1.55492">
        <ele>65</ele>
        <time>2022-05-03T09:17:20Z</time>
      </trkpt>
      <trkpt lat="47.26035" lon="-1.55489">
        <ele>64</ele>
        <time>2022-05-03T09:17:21Z</time>
      </trkpt>
      <trkpt lat="47.26035" lon="-1.55487">
        <ele>64</ele>
        <time>2022-05-03T09:17:22Z</time>
      </trkpt>
      <trkpt lat="47.26036" lon="-1.55485">
        <ele>65</ele>
        <time>2022-05-03T09:17:23Z</time>
      </trkpt>
      <trkpt lat="47.26036" lon="-1.55484">
        <ele>65</ele>
        <time>2022-05-03T09:17:24Z</time>
      </trkpt>
      <trkpt lat="47.26037" lon="-1.55482">
        <ele>65</ele>
        <time>2022-05-03T09:17:25Z</time>
      </trkpt>
      <trkpt lat="47.26038" lon="-1.55479">
        <ele>65</ele>
        <time>2022-05-03T09:17:26Z</time>
      </trkpt>
      <trkpt lat="47.26038" lon="-1.55477">
        <ele>65</ele>
        <time>2022-05-03T09:17:27Z</time>
      </trkpt>
      <trkpt lat="47.26039" lon="-1.55476">
        <ele>65</ele>
        <time>2022-05-03T09:17:28Z</time>
      </trkpt>
      <trkpt lat="47.2604" lon="-1.55473">
        <ele>64</ele>
        <time>2022-05-03T09:17:29Z</time>
      </trkpt>
      <trkpt lat="47.26041" lon="-1.55471">
        <ele>64</ele>
        <time>2022-05-03T09:17:30Z</time>
      </trkpt>
      <trkpt lat="47.26041" lon="-1.55469">
        <ele>64</ele>
        <time>2022-05-03T09:17:31Z</time>
      </trkpt>
      <trkpt lat="47.26041" lon="-1.55467">
        <ele>64</ele>
        <time>2022-05-03T09:17:33Z</time>
      </trkpt>
      <trkpt lat="47.26043" lon="-1.55465">
        <ele>64</ele>
        <time>2022-05-03T09:17:34Z</time>
      </trkpt>
      <trkpt lat="47.26043" lon="-1.55463">
        <ele>64</ele>
        <time>2022-05-03T09:17:35Z</time>
      </trkpt>
      <trkpt lat="47.26044" lon="-1.55461">
        <ele>64</ele>
        <time>2022-05-03T09:17:36Z</time>
      </trkpt>
      <trkpt lat="47.26045" lon="-1.55458">
        <ele>63</ele>
        <time>2022-05-03T09:17:37Z</time>
      </trkpt>
      <trkpt lat="47.26045" lon="-1.55456">
        <ele>64</ele>
        <time>2022-05-03T09:17:38Z</time>
      </trkpt>
      <trkpt lat="47.26045" lon="-1.55454">
        <ele>63</ele>
        <time>2022-05-03T09:17:39Z</time>
      </trkpt>
      <trkpt lat="47.26046" lon="-1.55452">
        <ele>63</ele>
        <time>2022-05-03T09:17:40Z</time>
      </trkpt>
      <trkpt lat="47.26046" lon="-1.5545">
        <ele>64</ele>
        <time>2022-05-03T09:17:41Z</time>
      </trkpt>
      <trkpt lat="47.26047" lon="-1.55449">
        <ele>64</ele>
        <time>2022-05-03T09:17:42Z</time>
      </trkpt>
      <trkpt lat="47.26048" lon="-1.55447">
        <ele>64</ele>
        <time>2022-05-03T09:17:43Z</time>
      </trkpt>
      <trkpt lat="47.26048" lon="-1.55445">
        <ele>64</ele>
        <time>2022-05-03T09:17:44Z</time>
      </trkpt>
      <trkpt lat="47.26049" lon="-1.55443">
        <ele>64</ele>
        <time>2022-05-03T09:17:45Z</time>
      </trkpt>
      <trkpt lat="47.26049" lon="-1.55441">
        <ele>64</ele>
        <time>2022-05-03T09:17:46Z</time>
      </trkpt>
      <trkpt lat="47.2605" lon="-1.55439">
        <ele>64</ele>
        <time>2022-05-03T09:17:47Z</time>
      </trkpt>
      <trkpt lat="47.26051" lon="-1.55437">
        <ele>64</ele>
        <time>2022-05-03T09:17:48Z</time>
      </trkpt>
      <trkpt lat="47.26052" lon="-1.55435">
        <ele>64</ele>
        <time>2022-05-03T09:17:49Z</time>
      </trkpt>
      <trkpt lat="47.26053" lon="-1.55432">
        <ele>63</ele>
        <time>2022-05-03T09:17:50Z</time>
      </trkpt>
      <trkpt lat="47.26053" lon="-1.5543">
        <ele>63</ele>
        <time>2022-05-03T09:17:51Z</time>
      </trkpt>
      <trkpt lat="47.26054" lon="-1.55428">
        <ele>63</ele>
        <time>2022-05-03T09:17:52Z</time>
      </trkpt>
      <trkpt lat="47.26054" lon="-1.55425">
        <ele>63</ele>
        <time>2022-05-03T09:17:53Z</time>
      </trkpt>
      <trkpt lat="47.26055" lon="-1.55424">
        <ele>63</ele>
        <time>2022-05-03T09:17:54Z</time>
      </trkpt>
      <trkpt lat="47.26055" lon="-1.55421">
        <ele>63</ele>
        <time>2022-05-03T09:17:55Z</time>
      </trkpt>
      <trkpt lat="47.26056" lon="-1.5542">
        <ele>63</ele>
        <time>2022-05-03T09:17:56Z</time>
      </trkpt>
      <trkpt lat="47.26057" lon="-1.55418">
        <ele>62</ele>
        <time>2022-05-03T09:17:57Z</time>
      </trkpt>
      <trkpt lat="47.26057" lon="-1.55417">
        <ele>62</ele>
        <time>2022-05-03T09:17:58Z</time>
      </trkpt>
      <trkpt lat="47.26058" lon="-1.55415">
        <ele>62</ele>
        <time>2022-05-03T09:17:59Z</time>
      </trkpt>
      <trkpt lat="47.26059" lon="-1.55413">
        <ele>62</ele>
        <time>2022-05-03T09:18:00Z</time>
      </trkpt>
      <trkpt lat="47.2606" lon="-1.55412">
        <ele>62</ele>
        <time>2022-05-03T09:18:01Z</time>
      </trkpt>
      <trkpt lat="47.2606" lon="-1.5541">
        <ele>62</ele>
        <time>2022-05-03T09:18:02Z</time>
      </trkpt>
      <trkpt lat="47.26061" lon="-1.55408">
        <ele>61</ele>
        <time>2022-05-03T09:18:03Z</time>
      </trkpt>
      <trkpt lat="47.26061" lon="-1.55406">
        <ele>60</ele>
        <time>2022-05-03T09:18:04Z</time>
      </trkpt>
      <trkpt lat="47.26062" lon="-1.55405">
        <ele>60</ele>
        <time>2022-05-03T09:18:05Z</time>
      </trkpt>
      <trkpt lat="47.26062" lon="-1.55403">
        <ele>60</ele>
        <time>2022-05-03T09:18:06Z</time>
      </trkpt>
      <trkpt lat="47.26063" lon="-1.55402">
        <ele>60</ele>
        <time>2022-05-03T09:18:07Z</time>
      </trkpt>
      <trkpt lat="47.26064" lon="-1.554">
        <ele>60</ele>
        <time>2022-05-03T09:18:08Z</time>
      </trkpt>
      <trkpt lat="47.26065" lon="-1.55398">
        <ele>60</ele>
        <time>2022-05-03T09:18:09Z</time>
      </trkpt>
      <trkpt lat="47.26066" lon="-1.55396">
        <ele>60</ele>
        <time>2022-05-03T09:18:10Z</time>
      </trkpt>
      <trkpt lat="47.26067" lon="-1.55394">
        <ele>60</ele>
        <time>2022-05-03T09:18:11Z</time>
      </trkpt>
      <trkpt lat="47.26067" lon="-1.55393">
        <ele>60</ele>
        <time>2022-05-03T09:18:12Z</time>
      </trkpt>
      <trkpt lat="47.26068" lon="-1.55391">
        <ele>60</ele>
        <time>2022-05-03T09:18:13Z</time>
      </trkpt>
      <trkpt lat="47.26069" lon="-1.55389">
        <ele>60</ele>
        <time>2022-05-03T09:18:14Z</time>
      </trkpt>
      <trkpt lat="47.2607" lon="-1.55387">
        <ele>60</ele>
        <time>2022-05-03T09:18:15Z</time>
      </trkpt>
      <trkpt lat="47.2607" lon="-1.55385">
        <ele>60</ele>
        <time>2022-05-03T09:18:16Z</time>
      </trkpt>
      <trkpt lat="47.26072" lon="-1.55384">
        <ele>60</ele>
        <time>2022-05-03T09:18:17Z</time>
      </trkpt>
      <trkpt lat="47.26073" lon="-1.55381">
        <ele>59</ele>
        <time>2022-05-03T09:18:18Z</time>
      </trkpt>
      <trkpt lat="47.26074" lon="-1.5538">
        <ele>59</ele>
        <time>2022-05-03T09:18:19Z</time>
      </trkpt>
      <trkpt lat="47.26074" lon="-1.55377">
        <ele>59</ele>
        <time>2022-05-03T09:18:20Z</time>
      </trkpt>
      <trkpt lat="47.26075" lon="-1.55376">
        <ele>59</ele>
        <time>2022-05-03T09:18:21Z</time>
      </trkpt>
      <trkpt lat="47.26076" lon="-1.55374">
        <ele>59</ele>
        <time>2022-05-03T09:18:22Z</time>
      </trkpt>
      <trkpt lat="47.26077" lon="-1.55373">
        <ele>60</ele>
        <time>2022-05-03T09:18:23Z</time>
      </trkpt>
      <trkpt lat="47.26078" lon="-1.55371">
        <ele>60</ele>
        <time>2022-05-03T09:18:24Z</time>
      </trkpt>
      <trkpt lat="47.26078" lon="-1.5537">
        <ele>60</ele>
        <time>2022-05-03T09:18:25Z</time>
      </trkpt>
      <trkpt lat="47.26079" lon="-1.55369">
        <ele>60</ele>
        <time>2022-05-03T09:18:26Z</time>
      </trkpt>
      <trkpt lat="47.2608" lon="-1.55367">
        <ele>59</ele>
        <time>2022-05-03T09:18:27Z</time>
      </trkpt>
      <trkpt lat="47.2608" lon="-1.55366">
        <ele>59</ele>
        <time>2022-05-03T09:18:28Z</time>
      </trkpt>
      <trkpt lat="47.26082" lon="-1.55364">
        <ele>59</ele>
        <time>2022-05-03T09:18:29Z</time>
      </trkpt>
      <trkpt lat="47.26082" lon="-1.55363">
        <ele>59</ele>
        <time>2022-05-03T09:18:30Z</time>
      </trkpt>
      <trkpt lat="47.26083" lon="-1.55361">
        <ele>59</ele>
        <time>2022-05-03T09:18:31Z</time>
      </trkpt>
      <trkpt lat="47.26084" lon="-1.55359">
        <ele>59</ele>
        <time>2022-05-03T09:18:32Z</time>
      </trkpt>
      <trkpt lat="47.26085" lon="-1.55358">
        <ele>59</ele>
        <time>2022-05-03T09:18:33Z</time>
      </trkpt>
      <trkpt lat="47.26085" lon="-1.55356">
        <ele>59</ele>
        <time>2022-05-03T09:18:34Z</time>
      </trkpt>
      <trkpt lat="47.26086" lon="-1.55354">
        <ele>60</ele>
        <time>2022-05-03T09:18:35Z</time>
      </trkpt>
      <trkpt lat="47.26086" lon="-1.55352">
        <ele>60</ele>
        <time>2022-05-03T09:18:36Z</time>
      </trkpt>
      <trkpt lat="47.26087" lon="-1.5535">
        <ele>60</ele>
        <time>2022-05-03T09:18:37Z</time>
      </trkpt>
      <trkpt lat="47.26088" lon="-1.55349">
        <ele>60</ele>
        <time>2022-05-03T09:18:38Z</time>
      </trkpt>
      <trkpt lat="47.26089" lon="-1.55347">
        <ele>59</ele>
        <time>2022-05-03T09:18:39Z</time>
      </trkpt>
      <trkpt lat="47.2609" lon="-1.55345">
        <ele>59</ele>
        <time>2022-05-03T09:18:40Z</time>
      </trkpt>
      <trkpt lat="47.26091" lon="-1.55343">
        <ele>59</ele>
        <time>2022-05-03T09:18:41Z</time>
      </trkpt>
      <trkpt lat="47.26091" lon="-1.55341">
        <ele>59</ele>
        <time>2022-05-03T09:18:42Z</time>
      </trkpt>
      <trkpt lat="47.26092" lon="-1.55339">
        <ele>59</ele>
        <time>2022-05-03T09:18:43Z</time>
      </trkpt>
      <trkpt lat="47.26093" lon="-1.55337">
        <ele>59</ele>
        <time>2022-05-03T09:18:44Z</time>
      </trkpt>
      <trkpt lat="47.26093" lon="-1.55336">
        <ele>59</ele>
        <time>2022-05-03T09:18:45Z</time>
      </trkpt>
      <trkpt lat="47.26094" lon="-1.55334">
        <ele>60</ele>
        <time>2022-05-03T09:18:46Z</time>
      </trkpt>
      <trkpt lat="47.26095" lon="-1.55332">
        <ele>60</ele>
        <time>2022-05-03T09:18:47Z</time>
      </trkpt>
      <trkpt lat="47.26096" lon="-1.5533">
        <ele>60</ele>
        <time>2022-05-03T09:18:48Z</time>
      </trkpt>
      <trkpt lat="47.26096" lon="-1.55329">
        <ele>60</ele>
        <time>2022-05-03T09:18:49Z</time>
      </trkpt>
      <trkpt lat="47.26097" lon="-1.55327">
        <ele>60</ele>
        <time>2022-05-03T09:18:50Z</time>
      </trkpt>
      <trkpt lat="47.26098" lon="-1.55325">
        <ele>60</ele>
        <time>2022-05-03T09:18:51Z</time>
      </trkpt>
      <trkpt lat="47.26099" lon="-1.55323">
        <ele>60</ele>
        <time>2022-05-03T09:18:52Z</time>
      </trkpt>
      <trkpt lat="47.26099" lon="-1.55321">
        <ele>60</ele>
        <time>2022-05-03T09:18:53Z</time>
      </trkpt>
      <trkpt lat="47.261" lon="-1.5532">
        <ele>60</ele>
        <time>2022-05-03T09:18:54Z</time>
      </trkpt>
      <trkpt lat="47.26101" lon="-1.55318">
        <ele>60</ele>
        <time>2022-05-03T09:18:55Z</time>
      </trkpt>
      <trkpt lat="47.26102" lon="-1.55316">
        <ele>59</ele>
        <time>2022-05-03T09:18:56Z</time>
      </trkpt>
      <trkpt lat="47.26103" lon="-1.55315">
        <ele>59</ele>
        <time>2022-05-03T09:18:57Z</time>
      </trkpt>
      <trkpt lat="47.26104" lon="-1.55313">
        <ele>59</ele>
        <time>2022-05-03T09:18:58Z</time>
      </trkpt>
      <trkpt lat="47.26106" lon="-1.55312">
        <ele>59</ele>
        <time>2022-05-03T09:18:59Z</time>
      </trkpt>
      <trkpt lat="47.26107" lon="-1.55311">
        <ele>59</ele>
        <time>2022-05-03T09:19:00Z</time>
      </trkpt>
      <trkpt lat="47.26108" lon="-1.5531">
        <ele>58</ele>
        <time>2022-05-03T09:19:01Z</time>
      </trkpt>
      <trkpt lat="47.26109" lon="-1.55309">
        <ele>58</ele>
        <time>2022-05-03T09:19:02Z</time>
      </trkpt>
      <trkpt lat="47.26111" lon="-1.55309">
        <ele>58</ele>
        <time>2022-05-03T09:19:03Z</time>
      </trkpt>
      <trkpt lat="47.26112" lon="-1.55309">
        <ele>58</ele>
        <time>2022-05-03T09:19:04Z</time>
      </trkpt>
      <trkpt lat="47.26114" lon="-1.5531">
        <ele>58</ele>
        <time>2022-05-03T09:19:05Z</time>
      </trkpt>
      <trkpt lat="47.26115" lon="-1.55311">
        <ele>58</ele>
        <time>2022-05-03T09:19:06Z</time>
      </trkpt>
      <trkpt lat="47.26116" lon="-1.55312">
        <ele>57</ele>
        <time>2022-05-03T09:19:07Z</time>
      </trkpt>
      <trkpt lat="47.26117" lon="-1.55312">
        <ele>57</ele>
        <time>2022-05-03T09:19:08Z</time>
      </trkpt>
      <trkpt lat="47.26119" lon="-1.55313">
        <ele>57</ele>
        <time>2022-05-03T09:19:09Z</time>
      </trkpt>
      <trkpt lat="47.2612" lon="-1.55315">
        <ele>57</ele>
        <time>2022-05-03T09:19:10Z</time>
      </trkpt>
      <trkpt lat="47.26122" lon="-1.55315">
        <ele>57</ele>
        <time>2022-05-03T09:19:11Z</time>
      </trkpt>
      <trkpt lat="47.26123" lon="-1.55316">
        <ele>57</ele>
        <time>2022-05-03T09:19:12Z</time>
      </trkpt>
      <trkpt lat="47.26124" lon="-1.55316">
        <ele>57</ele>
        <time>2022-05-03T09:19:13Z</time>
      </trkpt>
      <trkpt lat="47.26126" lon="-1.55317">
        <ele>57</ele>
        <time>2022-05-03T09:19:14Z</time>
      </trkpt>
      <trkpt lat="47.26127" lon="-1.55318">
        <ele>57</ele>
        <time>2022-05-03T09:19:15Z</time>
      </trkpt>
      <trkpt lat="47.26128" lon="-1.55319">
        <ele>57</ele>
        <time>2022-05-03T09:19:16Z</time>
      </trkpt>
      <trkpt lat="47.2613" lon="-1.5532">
        <ele>56</ele>
        <time>2022-05-03T09:19:17Z</time>
      </trkpt>
      <trkpt lat="47.26131" lon="-1.5532">
        <ele>56</ele>
        <time>2022-05-03T09:19:18Z</time>
      </trkpt>
      <trkpt lat="47.26132" lon="-1.55321">
        <ele>56</ele>
        <time>2022-05-03T09:19:19Z</time>
      </trkpt>
      <trkpt lat="47.26133" lon="-1.55322">
        <ele>56</ele>
        <time>2022-05-03T09:19:20Z</time>
      </trkpt>
      <trkpt lat="47.26135" lon="-1.55323">
        <ele>56</ele>
        <time>2022-05-03T09:19:21Z</time>
      </trkpt>
      <trkpt lat="47.26136" lon="-1.55323">
        <ele>56</ele>
        <time>2022-05-03T09:19:22Z</time>
      </trkpt>
      <trkpt lat="47.26137" lon="-1.55323">
        <ele>56</ele>
        <time>2022-05-03T09:19:23Z</time>
      </trkpt>
      <trkpt lat="47.26138" lon="-1.55324">
        <ele>56</ele>
        <time>2022-05-03T09:19:24Z</time>
      </trkpt>
      <trkpt lat="47.2614" lon="-1.55324">
        <ele>56</ele>
        <time>2022-05-03T09:19:25Z</time>
      </trkpt>
      <trkpt lat="47.26141" lon="-1.55325">
        <ele>56</ele>
        <time>2022-05-03T09:19:26Z</time>
      </trkpt>
      <trkpt lat="47.26142" lon="-1.55326">
        <ele>56</ele>
        <time>2022-05-03T09:19:27Z</time>
      </trkpt>
      <trkpt lat="47.26143" lon="-1.55326">
        <ele>56</ele>
        <time>2022-05-03T09:19:28Z</time>
      </trkpt>
      <trkpt lat="47.26144" lon="-1.55327">
        <ele>56</ele>
        <time>2022-05-03T09:19:29Z</time>
      </trkpt>
      <trkpt lat="47.26146" lon="-1.55328">
        <ele>56</ele>
        <time>2022-05-03T09:19:30Z</time>
      </trkpt>
      <trkpt lat="47.26147" lon="-1.55329">
        <ele>56</ele>
        <time>2022-05-03T09:19:31Z</time>
      </trkpt>
      <trkpt lat="47.26149" lon="-1.5533">
        <ele>56</ele>
        <time>2022-05-03T09:19:32Z</time>
      </trkpt>
      <trkpt lat="47.2615" lon="-1.55331">
        <ele>56</ele>
        <time>2022-05-03T09:19:33Z</time>
      </trkpt>
      <trkpt lat="47.26151" lon="-1.55331">
        <ele>56</ele>
        <time>2022-05-03T09:19:34Z</time>
      </trkpt>
      <trkpt lat="47.26152" lon="-1.55332">
        <ele>55</ele>
        <time>2022-05-03T09:19:35Z</time>
      </trkpt>
      <trkpt lat="47.26154" lon="-1.55333">
        <ele>55</ele>
        <time>2022-05-03T09:19:36Z</time>
      </trkpt>
      <trkpt lat="47.26155" lon="-1.55334">
        <ele>55</ele>
        <time>2022-05-03T09:19:37Z</time>
      </trkpt>
      <trkpt lat="47.26156" lon="-1.55334">
        <ele>56</ele>
        <time>2022-05-03T09:19:38Z</time>
      </trkpt>
      <trkpt lat="47.26157" lon="-1.55334">
        <ele>56</ele>
        <time>2022-05-03T09:19:39Z</time>
      </trkpt>
      <trkpt lat="47.26159" lon="-1.55335">
        <ele>56</ele>
        <time>2022-05-03T09:19:40Z</time>
      </trkpt>
      <trkpt lat="47.2616" lon="-1.55335">
        <ele>56</ele>
        <time>2022-05-03T09:19:41Z</time>
      </trkpt>
      <trkpt lat="47.26162" lon="-1.55336">
        <ele>56</ele>
        <time>2022-05-03T09:19:42Z</time>
      </trkpt>
      <trkpt lat="47.26163" lon="-1.55337">
        <ele>56</ele>
        <time>2022-05-03T09:19:43Z</time>
      </trkpt>
      <trkpt lat="47.26164" lon="-1.55338">
        <ele>56</ele>
        <time>2022-05-03T09:19:44Z</time>
      </trkpt>
      <trkpt lat="47.26165" lon="-1.55338">
        <ele>56</ele>
        <time>2022-05-03T09:19:45Z</time>
      </trkpt>
      <trkpt lat="47.26167" lon="-1.55339">
        <ele>57</ele>
        <time>2022-05-03T09:19:46Z</time>
      </trkpt>
      <trkpt lat="47.26168" lon="-1.5534">
        <ele>57</ele>
        <time>2022-05-03T09:19:47Z</time>
      </trkpt>
      <trkpt lat="47.26168" lon="-1.55341">
        <ele>57</ele>
        <time>2022-05-03T09:19:48Z</time>
      </trkpt>
      <trkpt lat="47.2617" lon="-1.55342">
        <ele>58</ele>
        <time>2022-05-03T09:19:49Z</time>
      </trkpt>
      <trkpt lat="47.26171" lon="-1.55342">
        <ele>58</ele>
        <time>2022-05-03T09:19:50Z</time>
      </trkpt>
      <trkpt lat="47.26172" lon="-1.55342">
        <ele>58</ele>
        <time>2022-05-03T09:19:51Z</time>
      </trkpt>
      <trkpt lat="47.26174" lon="-1.55343">
        <ele>58</ele>
        <time>2022-05-03T09:19:52Z</time>
      </trkpt>
      <trkpt lat="47.26175" lon="-1.55344">
        <ele>58</ele>
        <time>2022-05-03T09:19:53Z</time>
      </trkpt>
      <trkpt lat="47.26177" lon="-1.55345">
        <ele>58</ele>
        <time>2022-05-03T09:19:54Z</time>
      </trkpt>
      <trkpt lat="47.26178" lon="-1.55346">
        <ele>59</ele>
        <time>2022-05-03T09:19:55Z</time>
      </trkpt>
      <trkpt lat="47.26179" lon="-1.55346">
        <ele>59</ele>
        <time>2022-05-03T09:19:56Z</time>
      </trkpt>
      <trkpt lat="47.2618" lon="-1.55347">
        <ele>59</ele>
        <time>2022-05-03T09:19:57Z</time>
      </trkpt>
      <trkpt lat="47.26181" lon="-1.55347">
        <ele>59</ele>
        <time>2022-05-03T09:19:58Z</time>
      </trkpt>
      <trkpt lat="47.26182" lon="-1.55348">
        <ele>59</ele>
        <time>2022-05-03T09:19:59Z</time>
      </trkpt>
      <trkpt lat="47.26183" lon="-1.55349">
        <ele>59</ele>
        <time>2022-05-03T09:20:00Z</time>
      </trkpt>
      <trkpt lat="47.26185" lon="-1.55349">
        <ele>60</ele>
        <time>2022-05-03T09:20:01Z</time>
      </trkpt>
      <trkpt lat="47.26186" lon="-1.55349">
        <ele>60</ele>
        <time>2022-05-03T09:20:02Z</time>
      </trkpt>
      <trkpt lat="47.26187" lon="-1.5535">
        <ele>61</ele>
        <time>2022-05-03T09:20:03Z</time>
      </trkpt>
      <trkpt lat="47.26188" lon="-1.5535">
        <ele>61</ele>
        <time>2022-05-03T09:20:04Z</time>
      </trkpt>
      <trkpt lat="47.26189" lon="-1.55351">
        <ele>61</ele>
        <time>2022-05-03T09:20:05Z</time>
      </trkpt>
      <trkpt lat="47.26191" lon="-1.55351">
        <ele>61</ele>
        <time>2022-05-03T09:20:06Z</time>
      </trkpt>
      <trkpt lat="47.26192" lon="-1.55352">
        <ele>61</ele>
        <time>2022-05-03T09:20:07Z</time>
      </trkpt>
      <trkpt lat="47.26194" lon="-1.55353">
        <ele>62</ele>
        <time>2022-05-03T09:20:08Z</time>
      </trkpt>
      <trkpt lat="47.26195" lon="-1.55353">
        <ele>62</ele>
        <time>2022-05-03T09:20:09Z</time>
      </trkpt>
      <trkpt lat="47.26196" lon="-1.55354">
        <ele>62</ele>
        <time>2022-05-03T09:20:10Z</time>
      </trkpt>
      <trkpt lat="47.26197" lon="-1.55354">
        <ele>62</ele>
        <time>2022-05-03T09:20:11Z</time>
      </trkpt>
      <trkpt lat="47.26198" lon="-1.55354">
        <ele>62</ele>
        <time>2022-05-03T09:20:12Z</time>
      </trkpt>
      <trkpt lat="47.26199" lon="-1.55354">
        <ele>62</ele>
        <time>2022-05-03T09:20:13Z</time>
      </trkpt>
      <trkpt lat="47.26201" lon="-1.55354">
        <ele>62</ele>
        <time>2022-05-03T09:20:14Z</time>
      </trkpt>
      <trkpt lat="47.26202" lon="-1.55355">
        <ele>62</ele>
        <time>2022-05-03T09:20:15Z</time>
      </trkpt>
      <trkpt lat="47.26204" lon="-1.55355">
        <ele>62</ele>
        <time>2022-05-03T09:20:16Z</time>
      </trkpt>
      <trkpt lat="47.26205" lon="-1.55355">
        <ele>62</ele>
        <time>2022-05-03T09:20:17Z</time>
      </trkpt>
      <trkpt lat="47.26206" lon="-1.55355">
        <ele>62</ele>
        <time>2022-05-03T09:20:18Z</time>
      </trkpt>
      <trkpt lat="47.26207" lon="-1.55354">
        <ele>62</ele>
        <time>2022-05-03T09:20:19Z</time>
      </trkpt>
      <trkpt lat="47.26209" lon="-1.55354">
        <ele>62</ele>
        <time>2022-05-03T09:20:20Z</time>
      </trkpt>
      <trkpt lat="47.2621" lon="-1.55354">
        <ele>62</ele>
        <time>2022-05-03T09:20:21Z</time>
      </trkpt>
      <trkpt lat="47.26211" lon="-1.55354">
        <ele>62</ele>
        <time>2022-05-03T09:20:22Z</time>
      </trkpt>
      <trkpt lat="47.26212" lon="-1.55353">
        <ele>62</ele>
        <time>2022-05-03T09:20:23Z</time>
      </trkpt>
      <trkpt lat="47.26213" lon="-1.55352">
        <ele>62</ele>
        <time>2022-05-03T09:20:24Z</time>
      </trkpt>
      <trkpt lat="47.26214" lon="-1.55351">
        <ele>62</ele>
        <time>2022-05-03T09:20:25Z</time>
      </trkpt>
      <trkpt lat="47.26215" lon="-1.5535">
        <ele>62</ele>
        <time>2022-05-03T09:20:26Z</time>
      </trkpt>
      <trkpt lat="47.26216" lon="-1.55349">
        <ele>62</ele>
        <time>2022-05-03T09:20:27Z</time>
      </trkpt>
      <trkpt lat="47.26217" lon="-1.55348">
        <ele>62</ele>
        <time>2022-05-03T09:20:28Z</time>
      </trkpt>
      <trkpt lat="47.26218" lon="-1.55347">
        <ele>62</ele>
        <time>2022-05-03T09:20:29Z</time>
      </trkpt>
      <trkpt lat="47.26219" lon="-1.55346">
        <ele>62</ele>
        <time>2022-05-03T09:20:30Z</time>
      </trkpt>
      <trkpt lat="47.2622" lon="-1.55344">
        <ele>61</ele>
        <time>2022-05-03T09:20:31Z</time>
      </trkpt>
      <trkpt lat="47.26221" lon="-1.55343">
        <ele>61</ele>
        <time>2022-05-03T09:20:32Z</time>
      </trkpt>
      <trkpt lat="47.26222" lon="-1.55341">
        <ele>61</ele>
        <time>2022-05-03T09:20:33Z</time>
      </trkpt>
      <trkpt lat="47.26223" lon="-1.5534">
        <ele>61</ele>
        <time>2022-05-03T09:20:34Z</time>
      </trkpt>
      <trkpt lat="47.26224" lon="-1.55338">
        <ele>61</ele>
        <time>2022-05-03T09:20:35Z</time>
      </trkpt>
      <trkpt lat="47.26225" lon="-1.55337">
        <ele>61</ele>
        <time>2022-05-03T09:20:36Z</time>
      </trkpt>
      <trkpt lat="47.26226" lon="-1.55336">
        <ele>61</ele>
        <time>2022-05-03T09:20:37Z</time>
      </trkpt>
      <trkpt lat="47.26227" lon="-1.55334">
        <ele>61</ele>
        <time>2022-05-03T09:20:38Z</time>
      </trkpt>
      <trkpt lat="47.26228" lon="-1.55333">
        <ele>61</ele>
        <time>2022-05-03T09:20:39Z</time>
      </trkpt>
      <trkpt lat="47.26229" lon="-1.55331">
        <ele>61</ele>
        <time>2022-05-03T09:20:40Z</time>
      </trkpt>
      <trkpt lat="47.2623" lon="-1.5533">
        <ele>61</ele>
        <time>2022-05-03T09:20:41Z</time>
      </trkpt>
      <trkpt lat="47.26231" lon="-1.55329">
        <ele>61</ele>
        <time>2022-05-03T09:20:42Z</time>
      </trkpt>
      <trkpt lat="47.26231" lon="-1.55327">
        <ele>62</ele>
        <time>2022-05-03T09:20:43Z</time>
      </trkpt>
      <trkpt lat="47.26232" lon="-1.55326">
        <ele>62</ele>
        <time>2022-05-03T09:20:44Z</time>
      </trkpt>
      <trkpt lat="47.26233" lon="-1.55324">
        <ele>62</ele>
        <time>2022-05-03T09:20:45Z</time>
      </trkpt>
      <trkpt lat="47.26234" lon="-1.55323">
        <ele>62</ele>
        <time>2022-05-03T09:20:46Z</time>
      </trkpt>
      <trkpt lat="47.26235" lon="-1.55322">
        <ele>63</ele>
        <time>2022-05-03T09:20:47Z</time>
      </trkpt>
      <trkpt lat="47.26236" lon="-1.5532">
        <ele>63</ele>
        <time>2022-05-03T09:20:48Z</time>
      </trkpt>
      <trkpt lat="47.26238" lon="-1.55319">
        <ele>63</ele>
        <time>2022-05-03T09:20:49Z</time>
      </trkpt>
      <trkpt lat="47.26238" lon="-1.55317">
        <ele>63</ele>
        <time>2022-05-03T09:20:50Z</time>
      </trkpt>
      <trkpt lat="47.26239" lon="-1.55316">
        <ele>64</ele>
        <time>2022-05-03T09:20:51Z</time>
      </trkpt>
      <trkpt lat="47.2624" lon="-1.55316">
        <ele>64</ele>
        <time>2022-05-03T09:20:52Z</time>
      </trkpt>
      <trkpt lat="47.26241" lon="-1.55315">
        <ele>65</ele>
        <time>2022-05-03T09:20:53Z</time>
      </trkpt>
      <trkpt lat="47.26241" lon="-1.55314">
        <ele>65</ele>
        <time>2022-05-03T09:20:54Z</time>
      </trkpt>
      <trkpt lat="47.26242" lon="-1.55313">
        <ele>65</ele>
        <time>2022-05-03T09:20:55Z</time>
      </trkpt>
      <trkpt lat="47.26243" lon="-1.55312">
        <ele>66</ele>
        <time>2022-05-03T09:20:56Z</time>
      </trkpt>
      <trkpt lat="47.26244" lon="-1.5531">
        <ele>66</ele>
        <time>2022-05-03T09:20:57Z</time>
      </trkpt>
      <trkpt lat="47.26245" lon="-1.55309">
        <ele>67</ele>
        <time>2022-05-03T09:20:58Z</time>
      </trkpt>
      <trkpt lat="47.26246" lon="-1.55307">
        <ele>66</ele>
        <time>2022-05-03T09:20:59Z</time>
      </trkpt>
      <trkpt lat="47.26247" lon="-1.55306">
        <ele>66</ele>
        <time>2022-05-03T09:21:00Z</time>
      </trkpt>
      <trkpt lat="47.26248" lon="-1.55304">
        <ele>66</ele>
        <time>2022-05-03T09:21:01Z</time>
      </trkpt>
      <trkpt lat="47.26249" lon="-1.55303">
        <ele>66</ele>
        <time>2022-05-03T09:21:02Z</time>
      </trkpt>
      <trkpt lat="47.2625" lon="-1.55301">
        <ele>66</ele>
        <time>2022-05-03T09:21:03Z</time>
      </trkpt>
      <trkpt lat="47.26251" lon="-1.553">
        <ele>66</ele>
        <time>2022-05-03T09:21:04Z</time>
      </trkpt>
      <trkpt lat="47.26252" lon="-1.55298">
        <ele>66</ele>
        <time>2022-05-03T09:21:05Z</time>
      </trkpt>
      <trkpt lat="47.26253" lon="-1.55297">
        <ele>66</ele>
        <time>2022-05-03T09:21:06Z</time>
      </trkpt>
      <trkpt lat="47.26254" lon="-1.55295">
        <ele>66</ele>
        <time>2022-05-03T09:21:07Z</time>
      </trkpt>
      <trkpt lat="47.26255" lon="-1.55294">
        <ele>67</ele>
        <time>2022-05-03T09:21:08Z</time>
      </trkpt>
      <trkpt lat="47.26256" lon="-1.55293">
        <ele>67</ele>
        <time>2022-05-03T09:21:09Z</time>
      </trkpt>
      <trkpt lat="47.26257" lon="-1.55292">
        <ele>67</ele>
        <time>2022-05-03T09:21:10Z</time>
      </trkpt>
      <trkpt lat="47.26258" lon="-1.5529">
        <ele>66</ele>
        <time>2022-05-03T09:21:11Z</time>
      </trkpt>
      <trkpt lat="47.26259" lon="-1.55289">
        <ele>66</ele>
        <time>2022-05-03T09:21:12Z</time>
      </trkpt>
      <trkpt lat="47.2626" lon="-1.55287">
        <ele>66</ele>
        <time>2022-05-03T09:21:13Z</time>
      </trkpt>
      <trkpt lat="47.2626" lon="-1.55285">
        <ele>67</ele>
        <time>2022-05-03T09:21:14Z</time>
      </trkpt>
      <trkpt lat="47.26262" lon="-1.55284">
        <ele>67</ele>
        <time>2022-05-03T09:21:15Z</time>
      </trkpt>
      <trkpt lat="47.26263" lon="-1.55282">
        <ele>66</ele>
        <time>2022-05-03T09:21:16Z</time>
      </trkpt>
      <trkpt lat="47.26264" lon="-1.55281">
        <ele>66</ele>
        <time>2022-05-03T09:21:17Z</time>
      </trkpt>
      <trkpt lat="47.26265" lon="-1.5528">
        <ele>66</ele>
        <time>2022-05-03T09:21:18Z</time>
      </trkpt>
      <trkpt lat="47.26266" lon="-1.55278">
        <ele>66</ele>
        <time>2022-05-03T09:21:19Z</time>
      </trkpt>
      <trkpt lat="47.26267" lon="-1.55277">
        <ele>66</ele>
        <time>2022-05-03T09:21:20Z</time>
      </trkpt>
      <trkpt lat="47.26268" lon="-1.55276">
        <ele>66</ele>
        <time>2022-05-03T09:21:21Z</time>
      </trkpt>
      <trkpt lat="47.26269" lon="-1.55274">
        <ele>66</ele>
        <time>2022-05-03T09:21:22Z</time>
      </trkpt>
      <trkpt lat="47.2627" lon="-1.55272">
        <ele>66</ele>
        <time>2022-05-03T09:21:23Z</time>
      </trkpt>
      <trkpt lat="47.26271" lon="-1.55271">
        <ele>67</ele>
        <time>2022-05-03T09:21:24Z</time>
      </trkpt>
      <trkpt lat="47.26272" lon="-1.5527">
        <ele>67</ele>
        <time>2022-05-03T09:21:25Z</time>
      </trkpt>
      <trkpt lat="47.26273" lon="-1.55268">
        <ele>67</ele>
        <time>2022-05-03T09:21:26Z</time>
      </trkpt>
      <trkpt lat="47.26274" lon="-1.55267">
        <ele>67</ele>
        <time>2022-05-03T09:21:27Z</time>
      </trkpt>
      <trkpt lat="47.26275" lon="-1.55265">
        <ele>67</ele>
        <time>2022-05-03T09:21:28Z</time>
      </trkpt>
      <trkpt lat="47.26276" lon="-1.55264">
        <ele>67</ele>
        <time>2022-05-03T09:21:29Z</time>
      </trkpt>
      <trkpt lat="47.26276" lon="-1.55262">
        <ele>68</ele>
        <time>2022-05-03T09:21:30Z</time>
      </trkpt>
      <trkpt lat="47.26277" lon="-1.55261">
        <ele>68</ele>
        <time>2022-05-03T09:21:31Z</time>
      </trkpt>
      <trkpt lat="47.26278" lon="-1.5526">
        <ele>68</ele>
        <time>2022-05-03T09:21:32Z</time>
      </trkpt>
      <trkpt lat="47.26279" lon="-1.55258">
        <ele>68</ele>
        <time>2022-05-03T09:21:33Z</time>
      </trkpt>
      <trkpt lat="47.2628" lon="-1.55257">
        <ele>68</ele>
        <time>2022-05-03T09:21:34Z</time>
      </trkpt>
      <trkpt lat="47.26281" lon="-1.55255">
        <ele>68</ele>
        <time>2022-05-03T09:21:35Z</time>
      </trkpt>
      <trkpt lat="47.26282" lon="-1.55254">
        <ele>68</ele>
        <time>2022-05-03T09:21:36Z</time>
      </trkpt>
      <trkpt lat="47.26283" lon="-1.55253">
        <ele>69</ele>
        <time>2022-05-03T09:21:37Z</time>
      </trkpt>
      <trkpt lat="47.26284" lon="-1.55251">
        <ele>68</ele>
        <time>2022-05-03T09:21:38Z</time>
      </trkpt>
      <trkpt lat="47.26285" lon="-1.5525">
        <ele>69</ele>
        <time>2022-05-03T09:21:39Z</time>
      </trkpt>
      <trkpt lat="47.26286" lon="-1.55249">
        <ele>69</ele>
        <time>2022-05-03T09:21:40Z</time>
      </trkpt>
      <trkpt lat="47.26287" lon="-1.55248">
        <ele>68</ele>
        <time>2022-05-03T09:21:41Z</time>
      </trkpt>
      <trkpt lat="47.26288" lon="-1.55246">
        <ele>69</ele>
        <time>2022-05-03T09:21:42Z</time>
      </trkpt>
      <trkpt lat="47.26289" lon="-1.55245">
        <ele>69</ele>
        <time>2022-05-03T09:21:43Z</time>
      </trkpt>
      <trkpt lat="47.2629" lon="-1.55244">
        <ele>68</ele>
        <time>2022-05-03T09:21:44Z</time>
      </trkpt>
      <trkpt lat="47.26291" lon="-1.55242">
        <ele>68</ele>
        <time>2022-05-03T09:21:45Z</time>
      </trkpt>
      <trkpt lat="47.26292" lon="-1.55241">
        <ele>68</ele>
        <time>2022-05-03T09:21:46Z</time>
      </trkpt>
      <trkpt lat="47.26293" lon="-1.55239">
        <ele>68</ele>
        <time>2022-05-03T09:21:47Z</time>
      </trkpt>
      <trkpt lat="47.26294" lon="-1.55238">
        <ele>69</ele>
        <time>2022-05-03T09:21:48Z</time>
      </trkpt>
      <trkpt lat="47.26295" lon="-1.55237">
        <ele>69</ele>
        <time>2022-05-03T09:21:49Z</time>
      </trkpt>
      <trkpt lat="47.26296" lon="-1.55236">
        <ele>69</ele>
        <time>2022-05-03T09:21:50Z</time>
      </trkpt>
      <trkpt lat="47.26297" lon="-1.55235">
        <ele>69</ele>
        <time>2022-05-03T09:21:51Z</time>
      </trkpt>
      <trkpt lat="47.26298" lon="-1.55234">
        <ele>69</ele>
        <time>2022-05-03T09:21:52Z</time>
      </trkpt>
      <trkpt lat="47.26299" lon="-1.55232">
        <ele>69</ele>
        <time>2022-05-03T09:21:53Z</time>
      </trkpt>
      <trkpt lat="47.263" lon="-1.55232">
        <ele>69</ele>
        <time>2022-05-03T09:21:54Z</time>
      </trkpt>
      <trkpt lat="47.26301" lon="-1.55231">
        <ele>69</ele>
        <time>2022-05-03T09:21:55Z</time>
      </trkpt>
      <trkpt lat="47.26302" lon="-1.5523">
        <ele>70</ele>
        <time>2022-05-03T09:21:56Z</time>
      </trkpt>
      <trkpt lat="47.26304" lon="-1.55229">
        <ele>70</ele>
        <time>2022-05-03T09:21:57Z</time>
      </trkpt>
      <trkpt lat="47.26305" lon="-1.55228">
        <ele>71</ele>
        <time>2022-05-03T09:21:58Z</time>
      </trkpt>
      <trkpt lat="47.26306" lon="-1.55226">
        <ele>71</ele>
        <time>2022-05-03T09:21:59Z</time>
      </trkpt>
      <trkpt lat="47.26307" lon="-1.55226">
        <ele>71</ele>
        <time>2022-05-03T09:22:00Z</time>
      </trkpt>
      <trkpt lat="47.26308" lon="-1.55225">
        <ele>71</ele>
        <time>2022-05-03T09:22:01Z</time>
      </trkpt>
      <trkpt lat="47.2631" lon="-1.55224">
        <ele>71</ele>
        <time>2022-05-03T09:22:02Z</time>
      </trkpt>
      <trkpt lat="47.26311" lon="-1.55223">
        <ele>71</ele>
        <time>2022-05-03T09:22:03Z</time>
      </trkpt>
      <trkpt lat="47.26312" lon="-1.55223">
        <ele>71</ele>
        <time>2022-05-03T09:22:04Z</time>
      </trkpt>
      <trkpt lat="47.26313" lon="-1.55222">
        <ele>71</ele>
        <time>2022-05-03T09:22:05Z</time>
      </trkpt>
      <trkpt lat="47.26315" lon="-1.55221">
        <ele>72</ele>
        <time>2022-05-03T09:22:06Z</time>
      </trkpt>
      <trkpt lat="47.26316" lon="-1.55221">
        <ele>72</ele>
        <time>2022-05-03T09:22:07Z</time>
      </trkpt>
      <trkpt lat="47.26317" lon="-1.5522">
        <ele>72</ele>
        <time>2022-05-03T09:22:08Z</time>
      </trkpt>
      <trkpt lat="47.26318" lon="-1.55219">
        <ele>72</ele>
        <time>2022-05-03T09:22:09Z</time>
      </trkpt>
      <trkpt lat="47.2632" lon="-1.55219">
        <ele>73</ele>
        <time>2022-05-03T09:22:10Z</time>
      </trkpt>
      <trkpt lat="47.26321" lon="-1.55218">
        <ele>73</ele>
        <time>2022-05-03T09:22:11Z</time>
      </trkpt>
      <trkpt lat="47.26321" lon="-1.55217">
        <ele>73</ele>
        <time>2022-05-03T09:22:12Z</time>
      </trkpt>
      <trkpt lat="47.26323" lon="-1.55216">
        <ele>73</ele>
        <time>2022-05-03T09:22:13Z</time>
      </trkpt>
      <trkpt lat="47.26323" lon="-1.55215">
        <ele>73</ele>
        <time>2022-05-03T09:22:14Z</time>
      </trkpt>
      <trkpt lat="47.26324" lon="-1.55215">
        <ele>74</ele>
        <time>2022-05-03T09:22:15Z</time>
      </trkpt>
      <trkpt lat="47.26325" lon="-1.55214">
        <ele>74</ele>
        <time>2022-05-03T09:22:16Z</time>
      </trkpt>
      <trkpt lat="47.26326" lon="-1.55212">
        <ele>74</ele>
        <time>2022-05-03T09:22:17Z</time>
      </trkpt>
      <trkpt lat="47.26327" lon="-1.55212">
        <ele>74</ele>
        <time>2022-05-03T09:22:18Z</time>
      </trkpt>
      <trkpt lat="47.26328" lon="-1.55211">
        <ele>74</ele>
        <time>2022-05-03T09:22:19Z</time>
      </trkpt>
      <trkpt lat="47.26329" lon="-1.5521">
        <ele>74</ele>
        <time>2022-05-03T09:22:20Z</time>
      </trkpt>
      <trkpt lat="47.26331" lon="-1.55209">
        <ele>74</ele>
        <time>2022-05-03T09:22:21Z</time>
      </trkpt>
      <trkpt lat="47.26331" lon="-1.55207">
        <ele>75</ele>
        <time>2022-05-03T09:22:22Z</time>
      </trkpt>
      <trkpt lat="47.26333" lon="-1.55206">
        <ele>75</ele>
        <time>2022-05-03T09:22:23Z</time>
      </trkpt>
      <trkpt lat="47.26334" lon="-1.55205">
        <ele>75</ele>
        <time>2022-05-03T09:22:24Z</time>
      </trkpt>
      <trkpt lat="47.26334" lon="-1.55203">
        <ele>75</ele>
        <time>2022-05-03T09:22:25Z</time>
      </trkpt>
      <trkpt lat="47.26336" lon="-1.55203">
        <ele>75</ele>
        <time>2022-05-03T09:22:26Z</time>
      </trkpt>
      <trkpt lat="47.26337" lon="-1.55201">
        <ele>75</ele>
        <time>2022-05-03T09:22:27Z</time>
      </trkpt>
      <trkpt lat="47.26338" lon="-1.55201">
        <ele>75</ele>
        <time>2022-05-03T09:22:28Z</time>
      </trkpt>
      <trkpt lat="47.26339" lon="-1.55199">
        <ele>74</ele>
        <time>2022-05-03T09:22:29Z</time>
      </trkpt>
      <trkpt lat="47.26341" lon="-1.55199">
        <ele>74</ele>
        <time>2022-05-03T09:22:30Z</time>
      </trkpt>
      <trkpt lat="47.26342" lon="-1.55198">
        <ele>74</ele>
        <time>2022-05-03T09:22:31Z</time>
      </trkpt>
      <trkpt lat="47.26344" lon="-1.55198">
        <ele>74</ele>
        <time>2022-05-03T09:22:32Z</time>
      </trkpt>
      <trkpt lat="47.26345" lon="-1.55198">
        <ele>74</ele>
        <time>2022-05-03T09:22:33Z</time>
      </trkpt>
      <trkpt lat="47.26347" lon="-1.55198">
        <ele>73</ele>
        <time>2022-05-03T09:22:34Z</time>
      </trkpt>
      <trkpt lat="47.26348" lon="-1.55197">
        <ele>73</ele>
        <time>2022-05-03T09:22:35Z</time>
      </trkpt>
      <trkpt lat="47.26349" lon="-1.55197">
        <ele>73</ele>
        <time>2022-05-03T09:22:36Z</time>
      </trkpt>
      <trkpt lat="47.2635" lon="-1.55198">
        <ele>73</ele>
        <time>2022-05-03T09:22:37Z</time>
      </trkpt>
      <trkpt lat="47.26352" lon="-1.55198">
        <ele>73</ele>
        <time>2022-05-03T09:22:38Z</time>
      </trkpt>
      <trkpt lat="47.26354" lon="-1.55198">
        <ele>73</ele>
        <time>2022-05-03T09:22:39Z</time>
      </trkpt>
      <trkpt lat="47.26355" lon="-1.55199">
        <ele>73</ele>
        <time>2022-05-03T09:22:40Z</time>
      </trkpt>
      <trkpt lat="47.26357" lon="-1.55199">
        <ele>73</ele>
        <time>2022-05-03T09:22:41Z</time>
      </trkpt>
      <trkpt lat="47.26358" lon="-1.55199">
        <ele>73</ele>
        <time>2022-05-03T09:22:42Z</time>
      </trkpt>
      <trkpt lat="47.26359" lon="-1.552">
        <ele>74</ele>
        <time>2022-05-03T09:22:43Z</time>
      </trkpt>
      <trkpt lat="47.2636" lon="-1.55201">
        <ele>74</ele>
        <time>2022-05-03T09:22:44Z</time>
      </trkpt>
      <trkpt lat="47.26361" lon="-1.55202">
        <ele>74</ele>
        <time>2022-05-03T09:22:45Z</time>
      </trkpt>
      <trkpt lat="47.26362" lon="-1.55203">
        <ele>74</ele>
        <time>2022-05-03T09:22:46Z</time>
      </trkpt>
      <trkpt lat="47.26363" lon="-1.55205">
        <ele>74</ele>
        <time>2022-05-03T09:22:47Z</time>
      </trkpt>
      <trkpt lat="47.26364" lon="-1.55206">
        <ele>74</ele>
        <time>2022-05-03T09:22:48Z</time>
      </trkpt>
      <trkpt lat="47.26365" lon="-1.55207">
        <ele>74</ele>
        <time>2022-05-03T09:22:49Z</time>
      </trkpt>
      <trkpt lat="47.26366" lon="-1.55208">
        <ele>74</ele>
        <time>2022-05-03T09:22:50Z</time>
      </trkpt>
      <trkpt lat="47.26368" lon="-1.55209">
        <ele>74</ele>
        <time>2022-05-03T09:22:51Z</time>
      </trkpt>
      <trkpt lat="47.26369" lon="-1.5521">
        <ele>74</ele>
        <time>2022-05-03T09:22:52Z</time>
      </trkpt>
      <trkpt lat="47.2637" lon="-1.5521">
        <ele>74</ele>
        <time>2022-05-03T09:22:53Z</time>
      </trkpt>
      <trkpt lat="47.26371" lon="-1.55211">
        <ele>75</ele>
        <time>2022-05-03T09:22:54Z</time>
      </trkpt>
      <trkpt lat="47.26373" lon="-1.55213">
        <ele>75</ele>
        <time>2022-05-03T09:22:55Z</time>
      </trkpt>
      <trkpt lat="47.26374" lon="-1.55213">
        <ele>75</ele>
        <time>2022-05-03T09:22:56Z</time>
      </trkpt>
      <trkpt lat="47.26376" lon="-1.55214">
        <ele>74</ele>
        <time>2022-05-03T09:22:57Z</time>
      </trkpt>
      <trkpt lat="47.26377" lon="-1.55215">
        <ele>75</ele>
        <time>2022-05-03T09:22:58Z</time>
      </trkpt>
      <trkpt lat="47.26378" lon="-1.55217">
        <ele>75</ele>
        <time>2022-05-03T09:22:59Z</time>
      </trkpt>
      <trkpt lat="47.26379" lon="-1.55217">
        <ele>75</ele>
        <time>2022-05-03T09:23:00Z</time>
      </trkpt>
      <trkpt lat="47.2638" lon="-1.55218">
        <ele>75</ele>
        <time>2022-05-03T09:23:01Z</time>
      </trkpt>
      <trkpt lat="47.26381" lon="-1.55219">
        <ele>75</ele>
        <time>2022-05-03T09:23:02Z</time>
      </trkpt>
      <trkpt lat="47.26382" lon="-1.55219">
        <ele>75</ele>
        <time>2022-05-03T09:23:03Z</time>
      </trkpt>
      <trkpt lat="47.26384" lon="-1.5522">
        <ele>76</ele>
        <time>2022-05-03T09:23:04Z</time>
      </trkpt>
      <trkpt lat="47.26385" lon="-1.55221">
        <ele>76</ele>
        <time>2022-05-03T09:23:05Z</time>
      </trkpt>
      <trkpt lat="47.26386" lon="-1.55222">
        <ele>76</ele>
        <time>2022-05-03T09:23:06Z</time>
      </trkpt>
      <trkpt lat="47.26387" lon="-1.55222">
        <ele>76</ele>
        <time>2022-05-03T09:23:07Z</time>
      </trkpt>
      <trkpt lat="47.26388" lon="-1.55223">
        <ele>76</ele>
        <time>2022-05-03T09:23:08Z</time>
      </trkpt>
      <trkpt lat="47.26389" lon="-1.55223">
        <ele>76</ele>
        <time>2022-05-03T09:23:09Z</time>
      </trkpt>
      <trkpt lat="47.2639" lon="-1.55224">
        <ele>76</ele>
        <time>2022-05-03T09:23:10Z</time>
      </trkpt>
      <trkpt lat="47.26391" lon="-1.55224">
        <ele>77</ele>
        <time>2022-05-03T09:23:11Z</time>
      </trkpt>
      <trkpt lat="47.26392" lon="-1.55226">
        <ele>77</ele>
        <time>2022-05-03T09:23:12Z</time>
      </trkpt>
      <trkpt lat="47.26394" lon="-1.55227">
        <ele>77</ele>
        <time>2022-05-03T09:23:13Z</time>
      </trkpt>
      <trkpt lat="47.26395" lon="-1.55229">
        <ele>77</ele>
        <time>2022-05-03T09:23:14Z</time>
      </trkpt>
      <trkpt lat="47.26395" lon="-1.55231">
        <ele>78</ele>
        <time>2022-05-03T09:23:15Z</time>
      </trkpt>
      <trkpt lat="47.26396" lon="-1.55232">
        <ele>78</ele>
        <time>2022-05-03T09:23:16Z</time>
      </trkpt>
      <trkpt lat="47.26397" lon="-1.55233">
        <ele>77</ele>
        <time>2022-05-03T09:23:17Z</time>
      </trkpt>
      <trkpt lat="47.26399" lon="-1.55234">
        <ele>77</ele>
        <time>2022-05-03T09:23:18Z</time>
      </trkpt>
      <trkpt lat="47.26399" lon="-1.55235">
        <ele>77</ele>
        <time>2022-05-03T09:23:19Z</time>
      </trkpt>
      <trkpt lat="47.264" lon="-1.55236">
        <ele>77</ele>
        <time>2022-05-03T09:23:20Z</time>
      </trkpt>
      <trkpt lat="47.26401" lon="-1.55237">
        <ele>77</ele>
        <time>2022-05-03T09:23:21Z</time>
      </trkpt>
      <trkpt lat="47.26402" lon="-1.55237">
        <ele>77</ele>
        <time>2022-05-03T09:23:22Z</time>
      </trkpt>
      <trkpt lat="47.26403" lon="-1.55238">
        <ele>77</ele>
        <time>2022-05-03T09:23:23Z</time>
      </trkpt>
      <trkpt lat="47.26405" lon="-1.55239">
        <ele>77</ele>
        <time>2022-05-03T09:23:24Z</time>
      </trkpt>
      <trkpt lat="47.26406" lon="-1.5524">
        <ele>77</ele>
        <time>2022-05-03T09:23:25Z</time>
      </trkpt>
      <trkpt lat="47.26407" lon="-1.5524">
        <ele>76</ele>
        <time>2022-05-03T09:23:26Z</time>
      </trkpt>
      <trkpt lat="47.26408" lon="-1.55241">
        <ele>76</ele>
        <time>2022-05-03T09:23:27Z</time>
      </trkpt>
      <trkpt lat="47.2641" lon="-1.55243">
        <ele>76</ele>
        <time>2022-05-03T09:23:28Z</time>
      </trkpt>
      <trkpt lat="47.26411" lon="-1.55244">
        <ele>76</ele>
        <time>2022-05-03T09:23:29Z</time>
      </trkpt>
      <trkpt lat="47.26412" lon="-1.55245">
        <ele>75</ele>
        <time>2022-05-03T09:23:30Z</time>
      </trkpt>
      <trkpt lat="47.26413" lon="-1.55246">
        <ele>76</ele>
        <time>2022-05-03T09:23:31Z</time>
      </trkpt>
      <trkpt lat="47.26414" lon="-1.55247">
        <ele>75</ele>
        <time>2022-05-03T09:23:32Z</time>
      </trkpt>
      <trkpt lat="47.26415" lon="-1.55247">
        <ele>75</ele>
        <time>2022-05-03T09:23:33Z</time>
      </trkpt>
      <trkpt lat="47.26416" lon="-1.55249">
        <ele>75</ele>
        <time>2022-05-03T09:23:34Z</time>
      </trkpt>
      <trkpt lat="47.26418" lon="-1.55249">
        <ele>75</ele>
        <time>2022-05-03T09:23:35Z</time>
      </trkpt>
      <trkpt lat="47.26419" lon="-1.5525">
        <ele>75</ele>
        <time>2022-05-03T09:23:36Z</time>
      </trkpt>
      <trkpt lat="47.2642" lon="-1.55252">
        <ele>75</ele>
        <time>2022-05-03T09:23:37Z</time>
      </trkpt>
      <trkpt lat="47.26421" lon="-1.55253">
        <ele>74</ele>
        <time>2022-05-03T09:23:38Z</time>
      </trkpt>
      <trkpt lat="47.26423" lon="-1.55254">
        <ele>74</ele>
        <time>2022-05-03T09:23:39Z</time>
      </trkpt>
      <trkpt lat="47.26424" lon="-1.55255">
        <ele>74</ele>
        <time>2022-05-03T09:23:40Z</time>
      </trkpt>
      <trkpt lat="47.26425" lon="-1.55257">
        <ele>74</ele>
        <time>2022-05-03T09:23:41Z</time>
      </trkpt>
      <trkpt lat="47.26426" lon="-1.55258">
        <ele>73</ele>
        <time>2022-05-03T09:23:42Z</time>
      </trkpt>
      <trkpt lat="47.26427" lon="-1.55259">
        <ele>73</ele>
        <time>2022-05-03T09:23:43Z</time>
      </trkpt>
      <trkpt lat="47.26428" lon="-1.5526">
        <ele>74</ele>
        <time>2022-05-03T09:23:44Z</time>
      </trkpt>
      <trkpt lat="47.26429" lon="-1.5526">
        <ele>74</ele>
        <time>2022-05-03T09:23:45Z</time>
      </trkpt>
      <trkpt lat="47.26431" lon="-1.55261">
        <ele>74</ele>
        <time>2022-05-03T09:23:46Z</time>
      </trkpt>
      <trkpt lat="47.26432" lon="-1.55263">
        <ele>74</ele>
        <time>2022-05-03T09:23:47Z</time>
      </trkpt>
      <trkpt lat="47.26433" lon="-1.55264">
        <ele>74</ele>
        <time>2022-05-03T09:23:48Z</time>
      </trkpt>
      <trkpt lat="47.26434" lon="-1.55265">
        <ele>74</ele>
        <time>2022-05-03T09:23:49Z</time>
      </trkpt>
      <trkpt lat="47.26435" lon="-1.55267">
        <ele>75</ele>
        <time>2022-05-03T09:23:50Z</time>
      </trkpt>
      <trkpt lat="47.26436" lon="-1.55268">
        <ele>75</ele>
        <time>2022-05-03T09:23:51Z</time>
      </trkpt>
      <trkpt lat="47.26437" lon="-1.5527">
        <ele>75</ele>
        <time>2022-05-03T09:23:52Z</time>
      </trkpt>
      <trkpt lat="47.26437" lon="-1.55271">
        <ele>76</ele>
        <time>2022-05-03T09:23:53Z</time>
      </trkpt>
      <trkpt lat="47.26438" lon="-1.55272">
        <ele>76</ele>
        <time>2022-05-03T09:23:54Z</time>
      </trkpt>
      <trkpt lat="47.26439" lon="-1.55273">
        <ele>76</ele>
        <time>2022-05-03T09:23:55Z</time>
      </trkpt>
      <trkpt lat="47.2644" lon="-1.55274">
        <ele>77</ele>
        <time>2022-05-03T09:23:56Z</time>
      </trkpt>
      <trkpt lat="47.2644" lon="-1.55275">
        <ele>78</ele>
        <time>2022-05-03T09:23:57Z</time>
      </trkpt>
      <trkpt lat="47.2644" lon="-1.55276">
        <ele>78</ele>
        <time>2022-05-03T09:23:58Z</time>
      </trkpt>
      <trkpt lat="47.26442" lon="-1.55276">
        <ele>78</ele>
        <time>2022-05-03T09:23:59Z</time>
      </trkpt>
      <trkpt lat="47.26443" lon="-1.55277">
        <ele>78</ele>
        <time>2022-05-03T09:24:00Z</time>
      </trkpt>
      <trkpt lat="47.26444" lon="-1.55278">
        <ele>78</ele>
        <time>2022-05-03T09:24:01Z</time>
      </trkpt>
      <trkpt lat="47.26446" lon="-1.5528">
        <ele>79</ele>
        <time>2022-05-03T09:24:02Z</time>
      </trkpt>
      <trkpt lat="47.26447" lon="-1.55281">
        <ele>79</ele>
        <time>2022-05-03T09:24:03Z</time>
      </trkpt>
      <trkpt lat="47.26448" lon="-1.55282">
        <ele>80</ele>
        <time>2022-05-03T09:24:04Z</time>
      </trkpt>
      <trkpt lat="47.26448" lon="-1.55283">
        <ele>80</ele>
        <time>2022-05-03T09:24:05Z</time>
      </trkpt>
      <trkpt lat="47.2645" lon="-1.55284">
        <ele>80</ele>
        <time>2022-05-03T09:24:06Z</time>
      </trkpt>
      <trkpt lat="47.2645" lon="-1.55286">
        <ele>80</ele>
        <time>2022-05-03T09:24:07Z</time>
      </trkpt>
      <trkpt lat="47.26451" lon="-1.55288">
        <ele>81</ele>
        <time>2022-05-03T09:24:08Z</time>
      </trkpt>
      <trkpt lat="47.26452" lon="-1.55289">
        <ele>81</ele>
        <time>2022-05-03T09:24:09Z</time>
      </trkpt>
      <trkpt lat="47.26453" lon="-1.5529">
        <ele>81</ele>
        <time>2022-05-03T09:24:10Z</time>
      </trkpt>
      <trkpt lat="47.26454" lon="-1.55292">
        <ele>81</ele>
        <time>2022-05-03T09:24:11Z</time>
      </trkpt>
      <trkpt lat="47.26455" lon="-1.55293">
        <ele>81</ele>
        <time>2022-05-03T09:24:12Z</time>
      </trkpt>
      <trkpt lat="47.26457" lon="-1.55294">
        <ele>82</ele>
        <time>2022-05-03T09:24:13Z</time>
      </trkpt>
      <trkpt lat="47.26457" lon="-1.55295">
        <ele>83</ele>
        <time>2022-05-03T09:24:14Z</time>
      </trkpt>
      <trkpt lat="47.26458" lon="-1.55295">
        <ele>84</ele>
        <time>2022-05-03T09:24:15Z</time>
      </trkpt>
      <trkpt lat="47.2646" lon="-1.55296">
        <ele>84</ele>
        <time>2022-05-03T09:24:16Z</time>
      </trkpt>
      <trkpt lat="47.26461" lon="-1.55297">
        <ele>84</ele>
        <time>2022-05-03T09:24:17Z</time>
      </trkpt>
      <trkpt lat="47.26462" lon="-1.55297">
        <ele>84</ele>
        <time>2022-05-03T09:24:18Z</time>
      </trkpt>
      <trkpt lat="47.26463" lon="-1.55298">
        <ele>85</ele>
        <time>2022-05-03T09:24:19Z</time>
      </trkpt>
      <trkpt lat="47.26465" lon="-1.55299">
        <ele>85</ele>
        <time>2022-05-03T09:24:20Z</time>
      </trkpt>
      <trkpt lat="47.26466" lon="-1.55299">
        <ele>85</ele>
        <time>2022-05-03T09:24:21Z</time>
      </trkpt>
      <trkpt lat="47.26468" lon="-1.553">
        <ele>85</ele>
        <time>2022-05-03T09:24:22Z</time>
      </trkpt>
      <trkpt lat="47.26469" lon="-1.55301">
        <ele>86</ele>
        <time>2022-05-03T09:24:23Z</time>
      </trkpt>
      <trkpt lat="47.26471" lon="-1.55302">
        <ele>85</ele>
        <time>2022-05-03T09:24:24Z</time>
      </trkpt>
      <trkpt lat="47.26473" lon="-1.55302">
        <ele>85</ele>
        <time>2022-05-03T09:24:25Z</time>
      </trkpt>
      <trkpt lat="47.26474" lon="-1.55303">
        <ele>85</ele>
        <time>2022-05-03T09:24:26Z</time>
      </trkpt>
      <trkpt lat="47.26475" lon="-1.55304">
        <ele>85</ele>
        <time>2022-05-03T09:24:27Z</time>
      </trkpt>
      <trkpt lat="47.26477" lon="-1.55304">
        <ele>84</ele>
        <time>2022-05-03T09:24:28Z</time>
      </trkpt>
      <trkpt lat="47.26478" lon="-1.55305">
        <ele>84</ele>
        <time>2022-05-03T09:24:29Z</time>
      </trkpt>
      <trkpt lat="47.26479" lon="-1.55306">
        <ele>83</ele>
        <time>2022-05-03T09:24:30Z</time>
      </trkpt>
      <trkpt lat="47.26481" lon="-1.55307">
        <ele>83</ele>
        <time>2022-05-03T09:24:31Z</time>
      </trkpt>
      <trkpt lat="47.26483" lon="-1.55308">
        <ele>82</ele>
        <time>2022-05-03T09:24:32Z</time>
      </trkpt>
      <trkpt lat="47.26484" lon="-1.55309">
        <ele>81</ele>
        <time>2022-05-03T09:24:33Z</time>
      </trkpt>
      <trkpt lat="47.26485" lon="-1.5531">
        <ele>81</ele>
        <time>2022-05-03T09:24:34Z</time>
      </trkpt>
      <trkpt lat="47.26486" lon="-1.55311">
        <ele>80</ele>
        <time>2022-05-03T09:24:35Z</time>
      </trkpt>
      <trkpt lat="47.26487" lon="-1.55312">
        <ele>80</ele>
        <time>2022-05-03T09:24:36Z</time>
      </trkpt>
      <trkpt lat="47.26489" lon="-1.55312">
        <ele>80</ele>
        <time>2022-05-03T09:24:37Z</time>
      </trkpt>
      <trkpt lat="47.2649" lon="-1.55313">
        <ele>80</ele>
        <time>2022-05-03T09:24:38Z</time>
      </trkpt>
      <trkpt lat="47.26491" lon="-1.55314">
        <ele>80</ele>
        <time>2022-05-03T09:24:39Z</time>
      </trkpt>
      <trkpt lat="47.26492" lon="-1.55315">
        <ele>80</ele>
        <time>2022-05-03T09:24:40Z</time>
      </trkpt>
      <trkpt lat="47.26494" lon="-1.55316">
        <ele>80</ele>
        <time>2022-05-03T09:24:41Z</time>
      </trkpt>
      <trkpt lat="47.26495" lon="-1.55317">
        <ele>79</ele>
        <time>2022-05-03T09:24:42Z</time>
      </trkpt>
      <trkpt lat="47.26497" lon="-1.55317">
        <ele>79</ele>
        <time>2022-05-03T09:24:43Z</time>
      </trkpt>
      <trkpt lat="47.26498" lon="-1.55318">
        <ele>79</ele>
        <time>2022-05-03T09:24:44Z</time>
      </trkpt>
      <trkpt lat="47.26499" lon="-1.55318">
        <ele>79</ele>
        <time>2022-05-03T09:24:45Z</time>
      </trkpt>
      <trkpt lat="47.26501" lon="-1.55319">
        <ele>79</ele>
        <time>2022-05-03T09:24:46Z</time>
      </trkpt>
      <trkpt lat="47.26502" lon="-1.5532">
        <ele>79</ele>
        <time>2022-05-03T09:24:47Z</time>
      </trkpt>
      <trkpt lat="47.26504" lon="-1.5532">
        <ele>80</ele>
        <time>2022-05-03T09:24:48Z</time>
      </trkpt>
      <trkpt lat="47.26505" lon="-1.5532">
        <ele>79</ele>
        <time>2022-05-03T09:24:49Z</time>
      </trkpt>
      <trkpt lat="47.26506" lon="-1.55321">
        <ele>79</ele>
        <time>2022-05-03T09:24:50Z</time>
      </trkpt>
      <trkpt lat="47.26508" lon="-1.55322">
        <ele>79</ele>
        <time>2022-05-03T09:24:51Z</time>
      </trkpt>
      <trkpt lat="47.26509" lon="-1.55322">
        <ele>79</ele>
        <time>2022-05-03T09:24:52Z</time>
      </trkpt>
      <trkpt lat="47.2651" lon="-1.55323">
        <ele>79</ele>
        <time>2022-05-03T09:24:53Z</time>
      </trkpt>
      <trkpt lat="47.26511" lon="-1.55325">
        <ele>80</ele>
        <time>2022-05-03T09:24:54Z</time>
      </trkpt>
      <trkpt lat="47.26512" lon="-1.55326">
        <ele>80</ele>
        <time>2022-05-03T09:24:55Z</time>
      </trkpt>
      <trkpt lat="47.26513" lon="-1.55327">
        <ele>80</ele>
        <time>2022-05-03T09:24:56Z</time>
      </trkpt>
      <trkpt lat="47.26514" lon="-1.55328">
        <ele>80</ele>
        <time>2022-05-03T09:24:57Z</time>
      </trkpt>
      <trkpt lat="47.26515" lon="-1.55328">
        <ele>79</ele>
        <time>2022-05-03T09:24:58Z</time>
      </trkpt>
      <trkpt lat="47.26516" lon="-1.55329">
        <ele>79</ele>
        <time>2022-05-03T09:24:59Z</time>
      </trkpt>
      <trkpt lat="47.26517" lon="-1.55329">
        <ele>79</ele>
        <time>2022-05-03T09:25:00Z</time>
      </trkpt>
      <trkpt lat="47.26517" lon="-1.55329">
        <ele>79</ele>
        <time>2022-05-03T09:25:01Z</time>
      </trkpt>
      <trkpt lat="47.26518" lon="-1.55329">
        <ele>79</ele>
        <time>2022-05-03T09:25:02Z</time>
      </trkpt>
      <trkpt lat="47.2652" lon="-1.55329">
        <ele>78</ele>
        <time>2022-05-03T09:25:03Z</time>
      </trkpt>
      <trkpt lat="47.26521" lon="-1.55329">
        <ele>78</ele>
        <time>2022-05-03T09:25:04Z</time>
      </trkpt>
      <trkpt lat="47.26521" lon="-1.55328">
        <ele>78</ele>
        <time>2022-05-03T09:25:05Z</time>
      </trkpt>
      <trkpt lat="47.26522" lon="-1.55327">
        <ele>78</ele>
        <time>2022-05-03T09:25:06Z</time>
      </trkpt>
      <trkpt lat="47.26523" lon="-1.55327">
        <ele>78</ele>
        <time>2022-05-03T09:25:07Z</time>
      </trkpt>
      <trkpt lat="47.26524" lon="-1.55325">
        <ele>78</ele>
        <time>2022-05-03T09:25:08Z</time>
      </trkpt>
      <trkpt lat="47.26526" lon="-1.55325">
        <ele>78</ele>
        <time>2022-05-03T09:25:09Z</time>
      </trkpt>
      <trkpt lat="47.26527" lon="-1.55323">
        <ele>78</ele>
        <time>2022-05-03T09:25:10Z</time>
      </trkpt>
      <trkpt lat="47.26528" lon="-1.55322">
        <ele>78</ele>
        <time>2022-05-03T09:25:11Z</time>
      </trkpt>
      <trkpt lat="47.26529" lon="-1.55321">
        <ele>78</ele>
        <time>2022-05-03T09:25:12Z</time>
      </trkpt>
      <trkpt lat="47.2653" lon="-1.5532">
        <ele>78</ele>
        <time>2022-05-03T09:25:13Z</time>
      </trkpt>
      <trkpt lat="47.26531" lon="-1.55319">
        <ele>77</ele>
        <time>2022-05-03T09:25:14Z</time>
      </trkpt>
      <trkpt lat="47.26532" lon="-1.55318">
        <ele>77</ele>
        <time>2022-05-03T09:25:15Z</time>
      </trkpt>
      <trkpt lat="47.26533" lon="-1.55316">
        <ele>77</ele>
        <time>2022-05-03T09:25:16Z</time>
      </trkpt>
      <trkpt lat="47.26534" lon="-1.55314">
        <ele>77</ele>
        <time>2022-05-03T09:25:17Z</time>
      </trkpt>
      <trkpt lat="47.26535" lon="-1.55312">
        <ele>78</ele>
        <time>2022-05-03T09:25:18Z</time>
      </trkpt>
      <trkpt lat="47.26537" lon="-1.5531">
        <ele>78</ele>
        <time>2022-05-03T09:25:19Z</time>
      </trkpt>
      <trkpt lat="47.26538" lon="-1.55309">
        <ele>78</ele>
        <time>2022-05-03T09:25:20Z</time>
      </trkpt>
      <trkpt lat="47.26539" lon="-1.55307">
        <ele>77</ele>
        <time>2022-05-03T09:25:21Z</time>
      </trkpt>
      <trkpt lat="47.2654" lon="-1.55305">
        <ele>77</ele>
        <time>2022-05-03T09:25:22Z</time>
      </trkpt>
      <trkpt lat="47.2654" lon="-1.55303">
        <ele>77</ele>
        <time>2022-05-03T09:25:23Z</time>
      </trkpt>
      <trkpt lat="47.26542" lon="-1.55302">
        <ele>77</ele>
        <time>2022-05-03T09:25:24Z</time>
      </trkpt>
      <trkpt lat="47.26543" lon="-1.553">
        <ele>76</ele>
        <time>2022-05-03T09:25:25Z</time>
      </trkpt>
      <trkpt lat="47.26544" lon="-1.55299">
        <ele>77</ele>
        <time>2022-05-03T09:25:26Z</time>
      </trkpt>
      <trkpt lat="47.26545" lon="-1.55297">
        <ele>77</ele>
        <time>2022-05-03T09:25:27Z</time>
      </trkpt>
      <trkpt lat="47.26546" lon="-1.55296">
        <ele>77</ele>
        <time>2022-05-03T09:25:28Z</time>
      </trkpt>
      <trkpt lat="47.26547" lon="-1.55294">
        <ele>77</ele>
        <time>2022-05-03T09:25:29Z</time>
      </trkpt>
      <trkpt lat="47.26548" lon="-1.55293">
        <ele>77</ele>
        <time>2022-05-03T09:25:30Z</time>
      </trkpt>
      <trkpt lat="47.26548" lon="-1.55291">
        <ele>77</ele>
        <time>2022-05-03T09:25:31Z</time>
      </trkpt>
      <trkpt lat="47.26549" lon="-1.5529">
        <ele>77</ele>
        <time>2022-05-03T09:25:32Z</time>
      </trkpt>
      <trkpt lat="47.2655" lon="-1.55288">
        <ele>77</ele>
        <time>2022-05-03T09:25:33Z</time>
      </trkpt>
      <trkpt lat="47.26551" lon="-1.55286">
        <ele>77</ele>
        <time>2022-05-03T09:25:34Z</time>
      </trkpt>
      <trkpt lat="47.26551" lon="-1.55285">
        <ele>77</ele>
        <time>2022-05-03T09:25:35Z</time>
      </trkpt>
      <trkpt lat="47.26553" lon="-1.55283">
        <ele>76</ele>
        <time>2022-05-03T09:25:36Z</time>
      </trkpt>
      <trkpt lat="47.26554" lon="-1.55282">
        <ele>77</ele>
        <time>2022-05-03T09:25:37Z</time>
      </trkpt>
      <trkpt lat="47.26555" lon="-1.55281">
        <ele>77</ele>
        <time>2022-05-03T09:25:38Z</time>
      </trkpt>
      <trkpt lat="47.26556" lon="-1.55279">
        <ele>77</ele>
        <time>2022-05-03T09:25:39Z</time>
      </trkpt>
      <trkpt lat="47.26556" lon="-1.55277">
        <ele>76</ele>
        <time>2022-05-03T09:25:40Z</time>
      </trkpt>
      <trkpt lat="47.26557" lon="-1.55275">
        <ele>76</ele>
        <time>2022-05-03T09:25:41Z</time>
      </trkpt>
      <trkpt lat="47.26558" lon="-1.55273">
        <ele>76</ele>
        <time>2022-05-03T09:25:42Z</time>
      </trkpt>
      <trkpt lat="47.26559" lon="-1.55271">
        <ele>76</ele>
        <time>2022-05-03T09:25:43Z</time>
      </trkpt>
      <trkpt lat="47.26559" lon="-1.5527">
        <ele>76</ele>
        <time>2022-05-03T09:25:44Z</time>
      </trkpt>
      <trkpt lat="47.2656" lon="-1.55268">
        <ele>77</ele>
        <time>2022-05-03T09:25:45Z</time>
      </trkpt>
      <trkpt lat="47.2656" lon="-1.55266">
        <ele>77</ele>
        <time>2022-05-03T09:25:46Z</time>
      </trkpt>
      <trkpt lat="47.26561" lon="-1.55265">
        <ele>77</ele>
        <time>2022-05-03T09:25:47Z</time>
      </trkpt>
      <trkpt lat="47.26561" lon="-1.55263">
        <ele>78</ele>
        <time>2022-05-03T09:25:48Z</time>
      </trkpt>
      <trkpt lat="47.26562" lon="-1.55262">
        <ele>78</ele>
        <time>2022-05-03T09:25:49Z</time>
      </trkpt>
      <trkpt lat="47.26562" lon="-1.5526">
        <ele>78</ele>
        <time>2022-05-03T09:25:50Z</time>
      </trkpt>
      <trkpt lat="47.26563" lon="-1.55258">
        <ele>78</ele>
        <time>2022-05-03T09:25:51Z</time>
      </trkpt>
      <trkpt lat="47.26563" lon="-1.55256">
        <ele>78</ele>
        <time>2022-05-03T09:25:52Z</time>
      </trkpt>
      <trkpt lat="47.26563" lon="-1.55254">
        <ele>78</ele>
        <time>2022-05-03T09:25:53Z</time>
      </trkpt>
      <trkpt lat="47.26563" lon="-1.55253">
        <ele>78</ele>
        <time>2022-05-03T09:25:54Z</time>
      </trkpt>
      <trkpt lat="47.26564" lon="-1.55251">
        <ele>78</ele>
        <time>2022-05-03T09:25:55Z</time>
      </trkpt>
      <trkpt lat="47.26565" lon="-1.55249">
        <ele>78</ele>
        <time>2022-05-03T09:25:56Z</time>
      </trkpt>
      <trkpt lat="47.26566" lon="-1.55247">
        <ele>78</ele>
        <time>2022-05-03T09:25:57Z</time>
      </trkpt>
      <trkpt lat="47.26566" lon="-1.55246">
        <ele>78</ele>
        <time>2022-05-03T09:25:58Z</time>
      </trkpt>
      <trkpt lat="47.26567" lon="-1.55245">
        <ele>78</ele>
        <time>2022-05-03T09:25:59Z</time>
      </trkpt>
      <trkpt lat="47.26568" lon="-1.55243">
        <ele>78</ele>
        <time>2022-05-03T09:26:00Z</time>
      </trkpt>
      <trkpt lat="47.26568" lon="-1.55242">
        <ele>77</ele>
        <time>2022-05-03T09:26:01Z</time>
      </trkpt>
      <trkpt lat="47.26568" lon="-1.55241">
        <ele>78</ele>
        <time>2022-05-03T09:26:02Z</time>
      </trkpt>
      <trkpt lat="47.26569" lon="-1.5524">
        <ele>78</ele>
        <time>2022-05-03T09:26:03Z</time>
      </trkpt>
      <trkpt lat="47.26569" lon="-1.5524">
        <ele>78</ele>
        <time>2022-05-03T09:26:04Z</time>
      </trkpt>
      <trkpt lat="47.26569" lon="-1.5524">
        <ele>78</ele>
        <time>2022-05-03T09:26:05Z</time>
      </trkpt>
      <trkpt lat="47.26571" lon="-1.55239">
        <ele>78</ele>
        <time>2022-05-03T09:26:06Z</time>
      </trkpt>
      <trkpt lat="47.26572" lon="-1.55238">
        <ele>78</ele>
        <time>2022-05-03T09:26:07Z</time>
      </trkpt>
      <trkpt lat="47.26573" lon="-1.55238">
        <ele>78</ele>
        <time>2022-05-03T09:26:08Z</time>
      </trkpt>
      <trkpt lat="47.26574" lon="-1.55236">
        <ele>78</ele>
        <time>2022-05-03T09:26:09Z</time>
      </trkpt>
      <trkpt lat="47.26575" lon="-1.55235">
        <ele>77</ele>
        <time>2022-05-03T09:26:10Z</time>
      </trkpt>
      <trkpt lat="47.26577" lon="-1.55234">
        <ele>77</ele>
        <time>2022-05-03T09:26:11Z</time>
      </trkpt>
      <trkpt lat="47.26578" lon="-1.55234">
        <ele>77</ele>
        <time>2022-05-03T09:26:12Z</time>
      </trkpt>
      <trkpt lat="47.2658" lon="-1.55234">
        <ele>76</ele>
        <time>2022-05-03T09:26:13Z</time>
      </trkpt>
      <trkpt lat="47.26581" lon="-1.55234">
        <ele>76</ele>
        <time>2022-05-03T09:26:14Z</time>
      </trkpt>
      <trkpt lat="47.26582" lon="-1.55234">
        <ele>76</ele>
        <time>2022-05-03T09:26:15Z</time>
      </trkpt>
      <trkpt lat="47.26584" lon="-1.55235">
        <ele>75</ele>
        <time>2022-05-03T09:26:16Z</time>
      </trkpt>
      <trkpt lat="47.26585" lon="-1.55235">
        <ele>74</ele>
        <time>2022-05-03T09:26:17Z</time>
      </trkpt>
      <trkpt lat="47.26587" lon="-1.55236">
        <ele>74</ele>
        <time>2022-05-03T09:26:18Z</time>
      </trkpt>
      <trkpt lat="47.26588" lon="-1.55236">
        <ele>74</ele>
        <time>2022-05-03T09:26:19Z</time>
      </trkpt>
      <trkpt lat="47.26589" lon="-1.55236">
        <ele>74</ele>
        <time>2022-05-03T09:26:20Z</time>
      </trkpt>
      <trkpt lat="47.2659" lon="-1.55237">
        <ele>75</ele>
        <time>2022-05-03T09:26:21Z</time>
      </trkpt>
      <trkpt lat="47.26592" lon="-1.55237">
        <ele>75</ele>
        <time>2022-05-03T09:26:22Z</time>
      </trkpt>
      <trkpt lat="47.26593" lon="-1.55238">
        <ele>75</ele>
        <time>2022-05-03T09:26:23Z</time>
      </trkpt>
      <trkpt lat="47.26594" lon="-1.55238">
        <ele>75</ele>
        <time>2022-05-03T09:26:24Z</time>
      </trkpt>
      <trkpt lat="47.26595" lon="-1.55239">
        <ele>74</ele>
        <time>2022-05-03T09:26:25Z</time>
      </trkpt>
      <trkpt lat="47.26597" lon="-1.55239">
        <ele>73</ele>
        <time>2022-05-03T09:26:26Z</time>
      </trkpt>
      <trkpt lat="47.26598" lon="-1.5524">
        <ele>73</ele>
        <time>2022-05-03T09:26:27Z</time>
      </trkpt>
      <trkpt lat="47.266" lon="-1.5524">
        <ele>73</ele>
        <time>2022-05-03T09:26:28Z</time>
      </trkpt>
      <trkpt lat="47.266" lon="-1.55241">
        <ele>73</ele>
        <time>2022-05-03T09:26:29Z</time>
      </trkpt>
      <trkpt lat="47.266" lon="-1.55242">
        <ele>73</ele>
        <time>2022-05-03T09:26:30Z</time>
      </trkpt>
      <trkpt lat="47.26601" lon="-1.55243">
        <ele>73</ele>
        <time>2022-05-03T09:26:31Z</time>
      </trkpt>
      <trkpt lat="47.26603" lon="-1.55243">
        <ele>73</ele>
        <time>2022-05-03T09:26:32Z</time>
      </trkpt>
      <trkpt lat="47.26604" lon="-1.55244">
        <ele>73</ele>
        <time>2022-05-03T09:26:33Z</time>
      </trkpt>
      <trkpt lat="47.26605" lon="-1.55244">
        <ele>73</ele>
        <time>2022-05-03T09:26:34Z</time>
      </trkpt>
      <trkpt lat="47.26606" lon="-1.55245">
        <ele>73</ele>
        <time>2022-05-03T09:26:35Z</time>
      </trkpt>
      <trkpt lat="47.26607" lon="-1.55246">
        <ele>73</ele>
        <time>2022-05-03T09:26:36Z</time>
      </trkpt>
      <trkpt lat="47.26608" lon="-1.55246">
        <ele>73</ele>
        <time>2022-05-03T09:26:37Z</time>
      </trkpt>
      <trkpt lat="47.26609" lon="-1.55248">
        <ele>72</ele>
        <time>2022-05-03T09:26:38Z</time>
      </trkpt>
      <trkpt lat="47.26611" lon="-1.55248">
        <ele>72</ele>
        <time>2022-05-03T09:26:39Z</time>
      </trkpt>
      <trkpt lat="47.26612" lon="-1.55249">
        <ele>72</ele>
        <time>2022-05-03T09:26:40Z</time>
      </trkpt>
      <trkpt lat="47.26613" lon="-1.5525">
        <ele>72</ele>
        <time>2022-05-03T09:26:41Z</time>
      </trkpt>
      <trkpt lat="47.26614" lon="-1.55251">
        <ele>72</ele>
        <time>2022-05-03T09:26:42Z</time>
      </trkpt>
      <trkpt lat="47.26616" lon="-1.55252">
        <ele>73</ele>
        <time>2022-05-03T09:26:43Z</time>
      </trkpt>
      <trkpt lat="47.26617" lon="-1.55253">
        <ele>73</ele>
        <time>2022-05-03T09:26:44Z</time>
      </trkpt>
      <trkpt lat="47.26618" lon="-1.55254">
        <ele>73</ele>
        <time>2022-05-03T09:26:45Z</time>
      </trkpt>
      <trkpt lat="47.26619" lon="-1.55254">
        <ele>73</ele>
        <time>2022-05-03T09:26:46Z</time>
      </trkpt>
      <trkpt lat="47.26619" lon="-1.55254">
        <ele>73</ele>
        <time>2022-05-03T09:26:47Z</time>
      </trkpt>
      <trkpt lat="47.26621" lon="-1.55255">
        <ele>73</ele>
        <time>2022-05-03T09:26:48Z</time>
      </trkpt>
      <trkpt lat="47.26622" lon="-1.55257">
        <ele>73</ele>
        <time>2022-05-03T09:26:49Z</time>
      </trkpt>
      <trkpt lat="47.26623" lon="-1.55257">
        <ele>73</ele>
        <time>2022-05-03T09:26:50Z</time>
      </trkpt>
      <trkpt lat="47.26624" lon="-1.55259">
        <ele>72</ele>
        <time>2022-05-03T09:26:51Z</time>
      </trkpt>
      <trkpt lat="47.26626" lon="-1.5526">
        <ele>72</ele>
        <time>2022-05-03T09:26:52Z</time>
      </trkpt>
      <trkpt lat="47.26627" lon="-1.5526">
        <ele>72</ele>
        <time>2022-05-03T09:26:53Z</time>
      </trkpt>
      <trkpt lat="47.26629" lon="-1.55261">
        <ele>72</ele>
        <time>2022-05-03T09:26:54Z</time>
      </trkpt>
      <trkpt lat="47.2663" lon="-1.55262">
        <ele>73</ele>
        <time>2022-05-03T09:26:55Z</time>
      </trkpt>
      <trkpt lat="47.26632" lon="-1.55263">
        <ele>72</ele>
        <time>2022-05-03T09:26:56Z</time>
      </trkpt>
      <trkpt lat="47.26633" lon="-1.55263">
        <ele>72</ele>
        <time>2022-05-03T09:26:57Z</time>
      </trkpt>
      <trkpt lat="47.26634" lon="-1.55264">
        <ele>72</ele>
        <time>2022-05-03T09:26:58Z</time>
      </trkpt>
      <trkpt lat="47.26635" lon="-1.55265">
        <ele>73</ele>
        <time>2022-05-03T09:26:59Z</time>
      </trkpt>
      <trkpt lat="47.26637" lon="-1.55266">
        <ele>73</ele>
        <time>2022-05-03T09:27:00Z</time>
      </trkpt>
      <trkpt lat="47.26638" lon="-1.55267">
        <ele>73</ele>
        <time>2022-05-03T09:27:01Z</time>
      </trkpt>
      <trkpt lat="47.26639" lon="-1.55268">
        <ele>73</ele>
        <time>2022-05-03T09:27:02Z</time>
      </trkpt>
      <trkpt lat="47.2664" lon="-1.55269">
        <ele>73</ele>
        <time>2022-05-03T09:27:03Z</time>
      </trkpt>
      <trkpt lat="47.26642" lon="-1.5527">
        <ele>73</ele>
        <time>2022-05-03T09:27:04Z</time>
      </trkpt>
      <trkpt lat="47.26643" lon="-1.55271">
        <ele>72</ele>
        <time>2022-05-03T09:27:05Z</time>
      </trkpt>
      <trkpt lat="47.26645" lon="-1.55272">
        <ele>73</ele>
        <time>2022-05-03T09:27:06Z</time>
      </trkpt>
      <trkpt lat="47.26646" lon="-1.55273">
        <ele>72</ele>
        <time>2022-05-03T09:27:07Z</time>
      </trkpt>
      <trkpt lat="47.26647" lon="-1.55273">
        <ele>72</ele>
        <time>2022-05-03T09:27:08Z</time>
      </trkpt>
      <trkpt lat="47.26648" lon="-1.55274">
        <ele>72</ele>
        <time>2022-05-03T09:27:09Z</time>
      </trkpt>
      <trkpt lat="47.26649" lon="-1.55275">
        <ele>73</ele>
        <time>2022-05-03T09:27:10Z</time>
      </trkpt>
      <trkpt lat="47.2665" lon="-1.55276">
        <ele>73</ele>
        <time>2022-05-03T09:27:11Z</time>
      </trkpt>
      <trkpt lat="47.26651" lon="-1.55277">
        <ele>73</ele>
        <time>2022-05-03T09:27:12Z</time>
      </trkpt>
      <trkpt lat="47.26652" lon="-1.55277">
        <ele>73</ele>
        <time>2022-05-03T09:27:13Z</time>
      </trkpt>
      <trkpt lat="47.26653" lon="-1.55278">
        <ele>72</ele>
        <time>2022-05-03T09:27:14Z</time>
      </trkpt>
      <trkpt lat="47.26654" lon="-1.55279">
        <ele>72</ele>
        <time>2022-05-03T09:27:15Z</time>
      </trkpt>
      <trkpt lat="47.26656" lon="-1.55279">
        <ele>72</ele>
        <time>2022-05-03T09:27:16Z</time>
      </trkpt>
      <trkpt lat="47.26657" lon="-1.55281">
        <ele>72</ele>
        <time>2022-05-03T09:27:17Z</time>
      </trkpt>
      <trkpt lat="47.26658" lon="-1.55282">
        <ele>72</ele>
        <time>2022-05-03T09:27:18Z</time>
      </trkpt>
      <trkpt lat="47.26659" lon="-1.55283">
        <ele>72</ele>
        <time>2022-05-03T09:27:19Z</time>
      </trkpt>
      <trkpt lat="47.26661" lon="-1.55284">
        <ele>72</ele>
        <time>2022-05-03T09:27:20Z</time>
      </trkpt>
      <trkpt lat="47.26662" lon="-1.55285">
        <ele>72</ele>
        <time>2022-05-03T09:27:21Z</time>
      </trkpt>
      <trkpt lat="47.26663" lon="-1.55286">
        <ele>73</ele>
        <time>2022-05-03T09:27:22Z</time>
      </trkpt>
      <trkpt lat="47.26664" lon="-1.55287">
        <ele>73</ele>
        <time>2022-05-03T09:27:23Z</time>
      </trkpt>
      <trkpt lat="47.26666" lon="-1.55288">
        <ele>73</ele>
        <time>2022-05-03T09:27:24Z</time>
      </trkpt>
      <trkpt lat="47.26667" lon="-1.55288">
        <ele>74</ele>
        <time>2022-05-03T09:27:25Z</time>
      </trkpt>
      <trkpt lat="47.26667" lon="-1.5529">
        <ele>73</ele>
        <time>2022-05-03T09:27:26Z</time>
      </trkpt>
      <trkpt lat="47.26669" lon="-1.55291">
        <ele>73</ele>
        <time>2022-05-03T09:27:27Z</time>
      </trkpt>
      <trkpt lat="47.2667" lon="-1.55291">
        <ele>74</ele>
        <time>2022-05-03T09:27:28Z</time>
      </trkpt>
      <trkpt lat="47.26671" lon="-1.55292">
        <ele>74</ele>
        <time>2022-05-03T09:27:29Z</time>
      </trkpt>
      <trkpt lat="47.26672" lon="-1.55292">
        <ele>74</ele>
        <time>2022-05-03T09:27:30Z</time>
      </trkpt>
      <trkpt lat="47.26673" lon="-1.55292">
        <ele>74</ele>
        <time>2022-05-03T09:27:31Z</time>
      </trkpt>
      <trkpt lat="47.26674" lon="-1.55293">
        <ele>74</ele>
        <time>2022-05-03T09:27:32Z</time>
      </trkpt>
      <trkpt lat="47.26676" lon="-1.55294">
        <ele>74</ele>
        <time>2022-05-03T09:27:33Z</time>
      </trkpt>
      <trkpt lat="47.26677" lon="-1.55295">
        <ele>75</ele>
        <time>2022-05-03T09:27:34Z</time>
      </trkpt>
      <trkpt lat="47.26679" lon="-1.55297">
        <ele>75</ele>
        <time>2022-05-03T09:27:35Z</time>
      </trkpt>
      <trkpt lat="47.26679" lon="-1.55297">
        <ele>75</ele>
        <time>2022-05-03T09:27:36Z</time>
      </trkpt>
      <trkpt lat="47.26681" lon="-1.55298">
        <ele>75</ele>
        <time>2022-05-03T09:27:37Z</time>
      </trkpt>
      <trkpt lat="47.26682" lon="-1.55299">
        <ele>75</ele>
        <time>2022-05-03T09:27:38Z</time>
      </trkpt>
      <trkpt lat="47.26683" lon="-1.553">
        <ele>74</ele>
        <time>2022-05-03T09:27:39Z</time>
      </trkpt>
      <trkpt lat="47.26685" lon="-1.55301">
        <ele>74</ele>
        <time>2022-05-03T09:27:40Z</time>
      </trkpt>
      <trkpt lat="47.26686" lon="-1.55301">
        <ele>74</ele>
        <time>2022-05-03T09:27:41Z</time>
      </trkpt>
      <trkpt lat="47.26687" lon="-1.55301">
        <ele>73</ele>
        <time>2022-05-03T09:27:42Z</time>
      </trkpt>
      <trkpt lat="47.26688" lon="-1.55301">
        <ele>73</ele>
        <time>2022-05-03T09:27:43Z</time>
      </trkpt>
      <trkpt lat="47.2669" lon="-1.55302">
        <ele>73</ele>
        <time>2022-05-03T09:27:44Z</time>
      </trkpt>
      <trkpt lat="47.26691" lon="-1.55302">
        <ele>72</ele>
        <time>2022-05-03T09:27:45Z</time>
      </trkpt>
      <trkpt lat="47.26693" lon="-1.55302">
        <ele>72</ele>
        <time>2022-05-03T09:27:46Z</time>
      </trkpt>
      <trkpt lat="47.26694" lon="-1.55302">
        <ele>72</ele>
        <time>2022-05-03T09:27:47Z</time>
      </trkpt>
      <trkpt lat="47.26695" lon="-1.55303">
        <ele>72</ele>
        <time>2022-05-03T09:27:48Z</time>
      </trkpt>
      <trkpt lat="47.26696" lon="-1.55304">
        <ele>71</ele>
        <time>2022-05-03T09:27:49Z</time>
      </trkpt>
      <trkpt lat="47.26698" lon="-1.55305">
        <ele>71</ele>
        <time>2022-05-03T09:27:50Z</time>
      </trkpt>
      <trkpt lat="47.26699" lon="-1.55306">
        <ele>71</ele>
        <time>2022-05-03T09:27:51Z</time>
      </trkpt>
      <trkpt lat="47.267" lon="-1.55306">
        <ele>71</ele>
        <time>2022-05-03T09:27:52Z</time>
      </trkpt>
      <trkpt lat="47.26701" lon="-1.55306">
        <ele>71</ele>
        <time>2022-05-03T09:27:53Z</time>
      </trkpt>
      <trkpt lat="47.26702" lon="-1.55307">
        <ele>71</ele>
        <time>2022-05-03T09:27:54Z</time>
      </trkpt>
      <trkpt lat="47.26704" lon="-1.55308">
        <ele>71</ele>
        <time>2022-05-03T09:27:55Z</time>
      </trkpt>
      <trkpt lat="47.26705" lon="-1.55309">
        <ele>71</ele>
        <time>2022-05-03T09:27:56Z</time>
      </trkpt>
      <trkpt lat="47.26706" lon="-1.55309">
        <ele>72</ele>
        <time>2022-05-03T09:27:57Z</time>
      </trkpt>
      <trkpt lat="47.26708" lon="-1.55309">
        <ele>72</ele>
        <time>2022-05-03T09:27:58Z</time>
      </trkpt>
      <trkpt lat="47.26708" lon="-1.55309">
        <ele>72</ele>
        <time>2022-05-03T09:27:59Z</time>
      </trkpt>
      <trkpt lat="47.2671" lon="-1.5531">
        <ele>72</ele>
        <time>2022-05-03T09:28:00Z</time>
      </trkpt>
      <trkpt lat="47.26711" lon="-1.5531">
        <ele>72</ele>
        <time>2022-05-03T09:28:01Z</time>
      </trkpt>
      <trkpt lat="47.26712" lon="-1.5531">
        <ele>72</ele>
        <time>2022-05-03T09:28:02Z</time>
      </trkpt>
      <trkpt lat="47.26713" lon="-1.5531">
        <ele>72</ele>
        <time>2022-05-03T09:28:03Z</time>
      </trkpt>
      <trkpt lat="47.26714" lon="-1.5531">
        <ele>73</ele>
        <time>2022-05-03T09:28:04Z</time>
      </trkpt>
      <trkpt lat="47.26716" lon="-1.55311">
        <ele>73</ele>
        <time>2022-05-03T09:28:05Z</time>
      </trkpt>
      <trkpt lat="47.26717" lon="-1.55311">
        <ele>73</ele>
        <time>2022-05-03T09:28:06Z</time>
      </trkpt>
      <trkpt lat="47.26718" lon="-1.55311">
        <ele>73</ele>
        <time>2022-05-03T09:28:07Z</time>
      </trkpt>
      <trkpt lat="47.26719" lon="-1.55311">
        <ele>73</ele>
        <time>2022-05-03T09:28:08Z</time>
      </trkpt>
      <trkpt lat="47.2672" lon="-1.55311">
        <ele>73</ele>
        <time>2022-05-03T09:28:09Z</time>
      </trkpt>
      <trkpt lat="47.26722" lon="-1.55311">
        <ele>73</ele>
        <time>2022-05-03T09:28:10Z</time>
      </trkpt>
      <trkpt lat="47.26724" lon="-1.55312">
        <ele>73</ele>
        <time>2022-05-03T09:28:11Z</time>
      </trkpt>
      <trkpt lat="47.26725" lon="-1.55311">
        <ele>73</ele>
        <time>2022-05-03T09:28:12Z</time>
      </trkpt>
      <trkpt lat="47.26727" lon="-1.55312">
        <ele>73</ele>
        <time>2022-05-03T09:28:13Z</time>
      </trkpt>
      <trkpt lat="47.26728" lon="-1.55312">
        <ele>73</ele>
        <time>2022-05-03T09:28:14Z</time>
      </trkpt>
      <trkpt lat="47.26729" lon="-1.55313">
        <ele>73</ele>
        <time>2022-05-03T09:28:15Z</time>
      </trkpt>
      <trkpt lat="47.2673" lon="-1.55314">
        <ele>73</ele>
        <time>2022-05-03T09:28:16Z</time>
      </trkpt>
      <trkpt lat="47.26732" lon="-1.55314">
        <ele>73</ele>
        <time>2022-05-03T09:28:17Z</time>
      </trkpt>
      <trkpt lat="47.26733" lon="-1.55315">
        <ele>73</ele>
        <time>2022-05-03T09:28:18Z</time>
      </trkpt>
      <trkpt lat="47.26733" lon="-1.55315">
        <ele>73</ele>
        <time>2022-05-03T09:28:19Z</time>
      </trkpt>
      <trkpt lat="47.26733" lon="-1.55315">
        <ele>73</ele>
        <time>2022-05-03T09:28:20Z</time>
      </trkpt>
      <trkpt lat="47.26735" lon="-1.55315">
        <ele>73</ele>
        <time>2022-05-03T09:28:21Z</time>
      </trkpt>
      <trkpt lat="47.26736" lon="-1.55315">
        <ele>72</ele>
        <time>2022-05-03T09:28:22Z</time>
      </trkpt>
      <trkpt lat="47.26738" lon="-1.55316">
        <ele>72</ele>
        <time>2022-05-03T09:28:23Z</time>
      </trkpt>
      <trkpt lat="47.26739" lon="-1.55316">
        <ele>72</ele>
        <time>2022-05-03T09:28:24Z</time>
      </trkpt>
      <trkpt lat="47.26741" lon="-1.55317">
        <ele>73</ele>
        <time>2022-05-03T09:28:25Z</time>
      </trkpt>
      <trkpt lat="47.26742" lon="-1.55318">
        <ele>73</ele>
        <time>2022-05-03T09:28:26Z</time>
      </trkpt>
      <trkpt lat="47.26744" lon="-1.55318">
        <ele>72</ele>
        <time>2022-05-03T09:28:27Z</time>
      </trkpt>
      <trkpt lat="47.26746" lon="-1.5532">
        <ele>72</ele>
        <time>2022-05-03T09:28:28Z</time>
      </trkpt>
      <trkpt lat="47.26747" lon="-1.55321">
        <ele>72</ele>
        <time>2022-05-03T09:28:29Z</time>
      </trkpt>
      <trkpt lat="47.26749" lon="-1.55322">
        <ele>71</ele>
        <time>2022-05-03T09:28:30Z</time>
      </trkpt>
      <trkpt lat="47.26751" lon="-1.55323">
        <ele>72</ele>
        <time>2022-05-03T09:28:31Z</time>
      </trkpt>
      <trkpt lat="47.26752" lon="-1.55324">
        <ele>71</ele>
        <time>2022-05-03T09:28:32Z</time>
      </trkpt>
      <trkpt lat="47.26754" lon="-1.55324">
        <ele>71</ele>
        <time>2022-05-03T09:28:33Z</time>
      </trkpt>
      <trkpt lat="47.26755" lon="-1.55325">
        <ele>72</ele>
        <time>2022-05-03T09:28:34Z</time>
      </trkpt>
      <trkpt lat="47.26757" lon="-1.55326">
        <ele>72</ele>
        <time>2022-05-03T09:28:35Z</time>
      </trkpt>
      <trkpt lat="47.26759" lon="-1.55328">
        <ele>71</ele>
        <time>2022-05-03T09:28:36Z</time>
      </trkpt>
      <trkpt lat="47.2676" lon="-1.55329">
        <ele>72</ele>
        <time>2022-05-03T09:28:37Z</time>
      </trkpt>
      <trkpt lat="47.26761" lon="-1.5533">
        <ele>72</ele>
        <time>2022-05-03T09:28:38Z</time>
      </trkpt>
      <trkpt lat="47.26763" lon="-1.5533">
        <ele>72</ele>
        <time>2022-05-03T09:28:39Z</time>
      </trkpt>
      <trkpt lat="47.26764" lon="-1.55332">
        <ele>72</ele>
        <time>2022-05-03T09:28:40Z</time>
      </trkpt>
      <trkpt lat="47.26765" lon="-1.55332">
        <ele>72</ele>
        <time>2022-05-03T09:28:41Z</time>
      </trkpt>
      <trkpt lat="47.26766" lon="-1.55334">
        <ele>72</ele>
        <time>2022-05-03T09:28:42Z</time>
      </trkpt>
      <trkpt lat="47.26767" lon="-1.55335">
        <ele>72</ele>
        <time>2022-05-03T09:28:43Z</time>
      </trkpt>
      <trkpt lat="47.26768" lon="-1.55336">
        <ele>72</ele>
        <time>2022-05-03T09:28:44Z</time>
      </trkpt>
      <trkpt lat="47.26769" lon="-1.55338">
        <ele>72</ele>
        <time>2022-05-03T09:28:45Z</time>
      </trkpt>
      <trkpt lat="47.2677" lon="-1.55339">
        <ele>72</ele>
        <time>2022-05-03T09:28:46Z</time>
      </trkpt>
      <trkpt lat="47.26772" lon="-1.5534">
        <ele>72</ele>
        <time>2022-05-03T09:28:47Z</time>
      </trkpt>
      <trkpt lat="47.26773" lon="-1.55341">
        <ele>72</ele>
        <time>2022-05-03T09:28:48Z</time>
      </trkpt>
      <trkpt lat="47.26774" lon="-1.55341">
        <ele>73</ele>
        <time>2022-05-03T09:28:49Z</time>
      </trkpt>
      <trkpt lat="47.26776" lon="-1.55341">
        <ele>73</ele>
        <time>2022-05-03T09:28:50Z</time>
      </trkpt>
      <trkpt lat="47.26777" lon="-1.55341">
        <ele>74</ele>
        <time>2022-05-03T09:28:51Z</time>
      </trkpt>
      <trkpt lat="47.26778" lon="-1.5534">
        <ele>74</ele>
        <time>2022-05-03T09:28:52Z</time>
      </trkpt>
      <trkpt lat="47.26779" lon="-1.55339">
        <ele>74</ele>
        <time>2022-05-03T09:28:53Z</time>
      </trkpt>
      <trkpt lat="47.2678" lon="-1.55338">
        <ele>74</ele>
        <time>2022-05-03T09:28:54Z</time>
      </trkpt>
      <trkpt lat="47.26781" lon="-1.55337">
        <ele>74</ele>
        <time>2022-05-03T09:28:55Z</time>
      </trkpt>
      <trkpt lat="47.26782" lon="-1.55336">
        <ele>74</ele>
        <time>2022-05-03T09:28:56Z</time>
      </trkpt>
      <trkpt lat="47.26783" lon="-1.55335">
        <ele>74</ele>
        <time>2022-05-03T09:28:57Z</time>
      </trkpt>
      <trkpt lat="47.26783" lon="-1.55334">
        <ele>74</ele>
        <time>2022-05-03T09:28:58Z</time>
      </trkpt>
      <trkpt lat="47.26785" lon="-1.55334">
        <ele>74</ele>
        <time>2022-05-03T09:28:59Z</time>
      </trkpt>
      <trkpt lat="47.26785" lon="-1.55333">
        <ele>74</ele>
        <time>2022-05-03T09:29:00Z</time>
      </trkpt>
      <trkpt lat="47.26786" lon="-1.55332">
        <ele>74</ele>
        <time>2022-05-03T09:29:01Z</time>
      </trkpt>
      <trkpt lat="47.26786" lon="-1.55331">
        <ele>74</ele>
        <time>2022-05-03T09:29:02Z</time>
      </trkpt>
      <trkpt lat="47.26787" lon="-1.55331">
        <ele>74</ele>
        <time>2022-05-03T09:29:03Z</time>
      </trkpt>
      <trkpt lat="47.26788" lon="-1.5533">
        <ele>74</ele>
        <time>2022-05-03T09:29:04Z</time>
      </trkpt>
      <trkpt lat="47.26788" lon="-1.55329">
        <ele>75</ele>
        <time>2022-05-03T09:29:05Z</time>
      </trkpt>
      <trkpt lat="47.2679" lon="-1.55329">
        <ele>75</ele>
        <time>2022-05-03T09:29:06Z</time>
      </trkpt>
      <trkpt lat="47.2679" lon="-1.55327">
        <ele>75</ele>
        <time>2022-05-03T09:29:07Z</time>
      </trkpt>
      <trkpt lat="47.26791" lon="-1.55326">
        <ele>76</ele>
        <time>2022-05-03T09:29:08Z</time>
      </trkpt>
      <trkpt lat="47.26792" lon="-1.55325">
        <ele>76</ele>
        <time>2022-05-03T09:29:09Z</time>
      </trkpt>
      <trkpt lat="47.26793" lon="-1.55324">
        <ele>76</ele>
        <time>2022-05-03T09:29:10Z</time>
      </trkpt>
      <trkpt lat="47.26794" lon="-1.55323">
        <ele>76</ele>
        <time>2022-05-03T09:29:11Z</time>
      </trkpt>
      <trkpt lat="47.26795" lon="-1.55322">
        <ele>77</ele>
        <time>2022-05-03T09:29:12Z</time>
      </trkpt>
      <trkpt lat="47.26796" lon="-1.55321">
        <ele>76</ele>
        <time>2022-05-03T09:29:13Z</time>
      </trkpt>
      <trkpt lat="47.26797" lon="-1.55319">
        <ele>76</ele>
        <time>2022-05-03T09:29:14Z</time>
      </trkpt>
      <trkpt lat="47.26798" lon="-1.55318">
        <ele>77</ele>
        <time>2022-05-03T09:29:15Z</time>
      </trkpt>
      <trkpt lat="47.26798" lon="-1.55317">
        <ele>77</ele>
        <time>2022-05-03T09:29:16Z</time>
      </trkpt>
      <trkpt lat="47.26799" lon="-1.55317">
        <ele>77</ele>
        <time>2022-05-03T09:29:17Z</time>
      </trkpt>
      <trkpt lat="47.268" lon="-1.55316">
        <ele>77</ele>
        <time>2022-05-03T09:29:18Z</time>
      </trkpt>
      <trkpt lat="47.26801" lon="-1.55315">
        <ele>77</ele>
        <time>2022-05-03T09:29:19Z</time>
      </trkpt>
      <trkpt lat="47.26802" lon="-1.55315">
        <ele>77</ele>
        <time>2022-05-03T09:29:20Z</time>
      </trkpt>
      <trkpt lat="47.26804" lon="-1.55314">
        <ele>77</ele>
        <time>2022-05-03T09:29:21Z</time>
      </trkpt>
      <trkpt lat="47.26805" lon="-1.55314">
        <ele>77</ele>
        <time>2022-05-03T09:29:22Z</time>
      </trkpt>
      <trkpt lat="47.26806" lon="-1.55313">
        <ele>77</ele>
        <time>2022-05-03T09:29:23Z</time>
      </trkpt>
      <trkpt lat="47.26807" lon="-1.55313">
        <ele>77</ele>
        <time>2022-05-03T09:29:24Z</time>
      </trkpt>
      <trkpt lat="47.26808" lon="-1.55312">
        <ele>77</ele>
        <time>2022-05-03T09:29:25Z</time>
      </trkpt>
      <trkpt lat="47.26809" lon="-1.55312">
        <ele>77</ele>
        <time>2022-05-03T09:29:26Z</time>
      </trkpt>
      <trkpt lat="47.26811" lon="-1.5531">
        <ele>77</ele>
        <time>2022-05-03T09:29:27Z</time>
      </trkpt>
      <trkpt lat="47.26812" lon="-1.55309">
        <ele>77</ele>
        <time>2022-05-03T09:29:28Z</time>
      </trkpt>
      <trkpt lat="47.26814" lon="-1.55308">
        <ele>77</ele>
        <time>2022-05-03T09:29:29Z</time>
      </trkpt>
      <trkpt lat="47.26815" lon="-1.55307">
        <ele>77</ele>
        <time>2022-05-03T09:29:30Z</time>
      </trkpt>
      <trkpt lat="47.26816" lon="-1.55306">
        <ele>77</ele>
        <time>2022-05-03T09:29:31Z</time>
      </trkpt>
      <trkpt lat="47.26817" lon="-1.55305">
        <ele>77</ele>
        <time>2022-05-03T09:29:32Z</time>
      </trkpt>
      <trkpt lat="47.26819" lon="-1.55304">
        <ele>77</ele>
        <time>2022-05-03T09:29:33Z</time>
      </trkpt>
      <trkpt lat="47.2682" lon="-1.55303">
        <ele>77</ele>
        <time>2022-05-03T09:29:34Z</time>
      </trkpt>
      <trkpt lat="47.26822" lon="-1.55303">
        <ele>77</ele>
        <time>2022-05-03T09:29:35Z</time>
      </trkpt>
      <trkpt lat="47.26823" lon="-1.55302">
        <ele>77</ele>
        <time>2022-05-03T09:29:36Z</time>
      </trkpt>
      <trkpt lat="47.26824" lon="-1.55301">
        <ele>77</ele>
        <time>2022-05-03T09:29:37Z</time>
      </trkpt>
      <trkpt lat="47.26825" lon="-1.553">
        <ele>77</ele>
        <time>2022-05-03T09:29:38Z</time>
      </trkpt>
      <trkpt lat="47.26826" lon="-1.55299">
        <ele>77</ele>
        <time>2022-05-03T09:29:39Z</time>
      </trkpt>
      <trkpt lat="47.26827" lon="-1.55298">
        <ele>76</ele>
        <time>2022-05-03T09:29:40Z</time>
      </trkpt>
      <trkpt lat="47.26828" lon="-1.55297">
        <ele>76</ele>
        <time>2022-05-03T09:29:41Z</time>
      </trkpt>
      <trkpt lat="47.2683" lon="-1.55296">
        <ele>76</ele>
        <time>2022-05-03T09:29:42Z</time>
      </trkpt>
      <trkpt lat="47.26831" lon="-1.55295">
        <ele>76</ele>
        <time>2022-05-03T09:29:43Z</time>
      </trkpt>
      <trkpt lat="47.26833" lon="-1.55294">
        <ele>77</ele>
        <time>2022-05-03T09:29:44Z</time>
      </trkpt>
      <trkpt lat="47.26833" lon="-1.55293">
        <ele>77</ele>
        <time>2022-05-03T09:29:45Z</time>
      </trkpt>
      <trkpt lat="47.26835" lon="-1.55292">
        <ele>77</ele>
        <time>2022-05-03T09:29:46Z</time>
      </trkpt>
      <trkpt lat="47.26836" lon="-1.55292">
        <ele>77</ele>
        <time>2022-05-03T09:29:47Z</time>
      </trkpt>
      <trkpt lat="47.26837" lon="-1.55291">
        <ele>77</ele>
        <time>2022-05-03T09:29:48Z</time>
      </trkpt>
      <trkpt lat="47.26838" lon="-1.5529">
        <ele>78</ele>
        <time>2022-05-03T09:29:49Z</time>
      </trkpt>
      <trkpt lat="47.26839" lon="-1.55289">
        <ele>78</ele>
        <time>2022-05-03T09:29:50Z</time>
      </trkpt>
      <trkpt lat="47.2684" lon="-1.55288">
        <ele>78</ele>
        <time>2022-05-03T09:29:51Z</time>
      </trkpt>
      <trkpt lat="47.26843" lon="-1.55287">
        <ele>78</ele>
        <time>2022-05-03T09:29:52Z</time>
      </trkpt>
      <trkpt lat="47.26843" lon="-1.55287">
        <ele>78</ele>
        <time>2022-05-03T09:29:52Z</time>
      </trkpt>
      <trkpt lat="47.26843" lon="-1.55286">
        <ele>78</ele>
        <time>2022-05-03T09:29:54Z</time>
      </trkpt>
      <trkpt lat="47.26845" lon="-1.55285">
        <ele>78</ele>
        <time>2022-05-03T09:29:55Z</time>
      </trkpt>
      <trkpt lat="47.26846" lon="-1.55285">
        <ele>78</ele>
        <time>2022-05-03T09:29:56Z</time>
      </trkpt>
      <trkpt lat="47.26848" lon="-1.55284">
        <ele>78</ele>
        <time>2022-05-03T09:29:57Z</time>
      </trkpt>
      <trkpt lat="47.2685" lon="-1.55283">
        <ele>78</ele>
        <time>2022-05-03T09:29:58Z</time>
      </trkpt>
      <trkpt lat="47.26852" lon="-1.55283">
        <ele>78</ele>
        <time>2022-05-03T09:29:59Z</time>
      </trkpt>
      <trkpt lat="47.26852" lon="-1.55283">
        <ele>78</ele>
        <time>2022-05-03T09:29:59Z</time>
      </trkpt>
      <trkpt lat="47.26854" lon="-1.55281">
        <ele>78</ele>
        <time>2022-05-03T09:30:01Z</time>
      </trkpt>
      <trkpt lat="47.26854" lon="-1.55281">
        <ele>78</ele>
        <time>2022-05-03T09:30:01Z</time>
      </trkpt>
      <trkpt lat="47.26855" lon="-1.55281">
        <ele>78</ele>
        <time>2022-05-03T09:30:03Z</time>
      </trkpt>
      <trkpt lat="47.26858" lon="-1.55281">
        <ele>79</ele>
        <time>2022-05-03T09:30:04Z</time>
      </trkpt>
      <trkpt lat="47.26859" lon="-1.55281">
        <ele>79</ele>
        <time>2022-05-03T09:30:05Z</time>
      </trkpt>
      <trkpt lat="47.2686" lon="-1.5528">
        <ele>79</ele>
        <time>2022-05-03T09:30:06Z</time>
      </trkpt>
      <trkpt lat="47.2686" lon="-1.5528">
        <ele>79</ele>
        <time>2022-05-03T09:30:06Z</time>
      </trkpt>
      <trkpt lat="47.26862" lon="-1.5528">
        <ele>78</ele>
        <time>2022-05-03T09:30:08Z</time>
      </trkpt>
      <trkpt lat="47.26864" lon="-1.55279">
        <ele>78</ele>
        <time>2022-05-03T09:30:09Z</time>
      </trkpt>
      <trkpt lat="47.26865" lon="-1.55279">
        <ele>79</ele>
        <time>2022-05-03T09:30:10Z</time>
      </trkpt>
      <trkpt lat="47.26865" lon="-1.55278">
        <ele>78</ele>
        <time>2022-05-03T09:30:11Z</time>
      </trkpt>
      <trkpt lat="47.26866" lon="-1.55278">
        <ele>78</ele>
        <time>2022-05-03T09:30:12Z</time>
      </trkpt>
      <trkpt lat="47.26867" lon="-1.55277">
        <ele>78</ele>
        <time>2022-05-03T09:30:13Z</time>
      </trkpt>
      <trkpt lat="47.26868" lon="-1.55276">
        <ele>78</ele>
        <time>2022-05-03T09:30:14Z</time>
      </trkpt>
      <trkpt lat="47.2687" lon="-1.55275">
        <ele>78</ele>
        <time>2022-05-03T09:30:15Z</time>
      </trkpt>
      <trkpt lat="47.26871" lon="-1.55275">
        <ele>78</ele>
        <time>2022-05-03T09:30:16Z</time>
      </trkpt>
      <trkpt lat="47.26871" lon="-1.55275">
        <ele>78</ele>
        <time>2022-05-03T09:30:16Z</time>
      </trkpt>
      <trkpt lat="47.26873" lon="-1.55273">
        <ele>79</ele>
        <time>2022-05-03T09:30:18Z</time>
      </trkpt>
      <trkpt lat="47.26873" lon="-1.55273">
        <ele>79</ele>
        <time>2022-05-03T09:30:18Z</time>
      </trkpt>
      <trkpt lat="47.26876" lon="-1.55272">
        <ele>79</ele>
        <time>2022-05-03T09:30:20Z</time>
      </trkpt>
      <trkpt lat="47.26877" lon="-1.55271">
        <ele>79</ele>
        <time>2022-05-03T09:30:21Z</time>
      </trkpt>
      <trkpt lat="47.26878" lon="-1.5527">
        <ele>80</ele>
        <time>2022-05-03T09:30:22Z</time>
      </trkpt>
      <trkpt lat="47.2688" lon="-1.55269">
        <ele>80</ele>
        <time>2022-05-03T09:30:23Z</time>
      </trkpt>
      <trkpt lat="47.26881" lon="-1.55268">
        <ele>80</ele>
        <time>2022-05-03T09:30:24Z</time>
      </trkpt>
      <trkpt lat="47.26881" lon="-1.55268">
        <ele>80</ele>
        <time>2022-05-03T09:30:24Z</time>
      </trkpt>
      <trkpt lat="47.26883" lon="-1.55266">
        <ele>80</ele>
        <time>2022-05-03T09:30:26Z</time>
      </trkpt>
      <trkpt lat="47.26885" lon="-1.55266">
        <ele>80</ele>
        <time>2022-05-03T09:30:27Z</time>
      </trkpt>
      <trkpt lat="47.26886" lon="-1.55265">
        <ele>80</ele>
        <time>2022-05-03T09:30:28Z</time>
      </trkpt>
      <trkpt lat="47.26887" lon="-1.55264">
        <ele>79</ele>
        <time>2022-05-03T09:30:29Z</time>
      </trkpt>
      <trkpt lat="47.26889" lon="-1.55263">
        <ele>80</ele>
        <time>2022-05-03T09:30:30Z</time>
      </trkpt>
      <trkpt lat="47.2689" lon="-1.55263">
        <ele>80</ele>
        <time>2022-05-03T09:30:31Z</time>
      </trkpt>
      <trkpt lat="47.26891" lon="-1.55263">
        <ele>80</ele>
        <time>2022-05-03T09:30:32Z</time>
      </trkpt>
      <trkpt lat="47.26893" lon="-1.55262">
        <ele>80</ele>
        <time>2022-05-03T09:30:33Z</time>
      </trkpt>
      <trkpt lat="47.26894" lon="-1.55262">
        <ele>80</ele>
        <time>2022-05-03T09:30:34Z</time>
      </trkpt>
      <trkpt lat="47.26895" lon="-1.55261">
        <ele>80</ele>
        <time>2022-05-03T09:30:35Z</time>
      </trkpt>
      <trkpt lat="47.26896" lon="-1.55261">
        <ele>81</ele>
        <time>2022-05-03T09:30:36Z</time>
      </trkpt>
      <trkpt lat="47.26897" lon="-1.55261">
        <ele>82</ele>
        <time>2022-05-03T09:30:37Z</time>
      </trkpt>
      <trkpt lat="47.26897" lon="-1.55261">
        <ele>82</ele>
        <time>2022-05-03T09:30:37Z</time>
      </trkpt>
      <trkpt lat="47.26901" lon="-1.55259">
        <ele>81</ele>
        <time>2022-05-03T09:30:39Z</time>
      </trkpt>
      <trkpt lat="47.26901" lon="-1.55259">
        <ele>81</ele>
        <time>2022-05-03T09:30:39Z</time>
      </trkpt>
      <trkpt lat="47.26903" lon="-1.55258">
        <ele>81</ele>
        <time>2022-05-03T09:30:41Z</time>
      </trkpt>
      <trkpt lat="47.26904" lon="-1.55257">
        <ele>81</ele>
        <time>2022-05-03T09:30:42Z</time>
      </trkpt>
      <trkpt lat="47.26905" lon="-1.55257">
        <ele>81</ele>
        <time>2022-05-03T09:30:43Z</time>
      </trkpt>
      <trkpt lat="47.26907" lon="-1.55256">
        <ele>80</ele>
        <time>2022-05-03T09:30:44Z</time>
      </trkpt>
      <trkpt lat="47.26908" lon="-1.55255">
        <ele>80</ele>
        <time>2022-05-03T09:30:45Z</time>
      </trkpt>
      <trkpt lat="47.2691" lon="-1.55254">
        <ele>80</ele>
        <time>2022-05-03T09:30:46Z</time>
      </trkpt>
      <trkpt lat="47.26911" lon="-1.55254">
        <ele>80</ele>
        <time>2022-05-03T09:30:47Z</time>
      </trkpt>
      <trkpt lat="47.26912" lon="-1.55253">
        <ele>80</ele>
        <time>2022-05-03T09:30:48Z</time>
      </trkpt>
      <trkpt lat="47.26914" lon="-1.55252">
        <ele>79</ele>
        <time>2022-05-03T09:30:49Z</time>
      </trkpt>
      <trkpt lat="47.26915" lon="-1.55252">
        <ele>79</ele>
        <time>2022-05-03T09:30:50Z</time>
      </trkpt>
      <trkpt lat="47.26917" lon="-1.55251">
        <ele>78</ele>
        <time>2022-05-03T09:30:51Z</time>
      </trkpt>
      <trkpt lat="47.26918" lon="-1.55251">
        <ele>78</ele>
        <time>2022-05-03T09:30:52Z</time>
      </trkpt>
      <trkpt lat="47.26919" lon="-1.5525">
        <ele>79</ele>
        <time>2022-05-03T09:30:53Z</time>
      </trkpt>
      <trkpt lat="47.2692" lon="-1.55249">
        <ele>79</ele>
        <time>2022-05-03T09:30:54Z</time>
      </trkpt>
      <trkpt lat="47.26922" lon="-1.55249">
        <ele>79</ele>
        <time>2022-05-03T09:30:55Z</time>
      </trkpt>
      <trkpt lat="47.26923" lon="-1.55248">
        <ele>79</ele>
        <time>2022-05-03T09:30:56Z</time>
      </trkpt>
      <trkpt lat="47.26924" lon="-1.55248">
        <ele>79</ele>
        <time>2022-05-03T09:30:57Z</time>
      </trkpt>
      <trkpt lat="47.26925" lon="-1.55247">
        <ele>79</ele>
        <time>2022-05-03T09:30:58Z</time>
      </trkpt>
      <trkpt lat="47.26927" lon="-1.55247">
        <ele>78</ele>
        <time>2022-05-03T09:30:59Z</time>
      </trkpt>
      <trkpt lat="47.26928" lon="-1.55246">
        <ele>78</ele>
        <time>2022-05-03T09:31:00Z</time>
      </trkpt>
      <trkpt lat="47.2693" lon="-1.55245">
        <ele>78</ele>
        <time>2022-05-03T09:31:01Z</time>
      </trkpt>
      <trkpt lat="47.26931" lon="-1.55244">
        <ele>79</ele>
        <time>2022-05-03T09:31:02Z</time>
      </trkpt>
      <trkpt lat="47.26932" lon="-1.55244">
        <ele>79</ele>
        <time>2022-05-03T09:31:03Z</time>
      </trkpt>
      <trkpt lat="47.26933" lon="-1.55243">
        <ele>79</ele>
        <time>2022-05-03T09:31:04Z</time>
      </trkpt>
      <trkpt lat="47.26934" lon="-1.55243">
        <ele>79</ele>
        <time>2022-05-03T09:31:05Z</time>
      </trkpt>
      <trkpt lat="47.26936" lon="-1.55243">
        <ele>79</ele>
        <time>2022-05-03T09:31:06Z</time>
      </trkpt>
      <trkpt lat="47.26937" lon="-1.55243">
        <ele>79</ele>
        <time>2022-05-03T09:31:07Z</time>
      </trkpt>
      <trkpt lat="47.26938" lon="-1.55243">
        <ele>79</ele>
        <time>2022-05-03T09:31:08Z</time>
      </trkpt>
      <trkpt lat="47.26939" lon="-1.55242">
        <ele>78</ele>
        <time>2022-05-03T09:31:09Z</time>
      </trkpt>
      <trkpt lat="47.2694" lon="-1.55242">
        <ele>79</ele>
        <time>2022-05-03T09:31:10Z</time>
      </trkpt>
      <trkpt lat="47.26942" lon="-1.55242">
        <ele>79</ele>
        <time>2022-05-03T09:31:11Z</time>
      </trkpt>
      <trkpt lat="47.26943" lon="-1.55241">
        <ele>79</ele>
        <time>2022-05-03T09:31:12Z</time>
      </trkpt>
      <trkpt lat="47.26944" lon="-1.5524">
        <ele>79</ele>
        <time>2022-05-03T09:31:13Z</time>
      </trkpt>
      <trkpt lat="47.26946" lon="-1.5524">
        <ele>79</ele>
        <time>2022-05-03T09:31:14Z</time>
      </trkpt>
      <trkpt lat="47.26947" lon="-1.55239">
        <ele>79</ele>
        <time>2022-05-03T09:31:15Z</time>
      </trkpt>
      <trkpt lat="47.26948" lon="-1.55239">
        <ele>79</ele>
        <time>2022-05-03T09:31:16Z</time>
      </trkpt>
      <trkpt lat="47.26949" lon="-1.55238">
        <ele>79</ele>
        <time>2022-05-03T09:31:17Z</time>
      </trkpt>
      <trkpt lat="47.2695" lon="-1.55238">
        <ele>80</ele>
        <time>2022-05-03T09:31:18Z</time>
      </trkpt>
      <trkpt lat="47.26951" lon="-1.55237">
        <ele>80</ele>
        <time>2022-05-03T09:31:19Z</time>
      </trkpt>
      <trkpt lat="47.26952" lon="-1.55236">
        <ele>80</ele>
        <time>2022-05-03T09:31:20Z</time>
      </trkpt>
      <trkpt lat="47.26954" lon="-1.55236">
        <ele>79</ele>
        <time>2022-05-03T09:31:21Z</time>
      </trkpt>
      <trkpt lat="47.26955" lon="-1.55235">
        <ele>79</ele>
        <time>2022-05-03T09:31:22Z</time>
      </trkpt>
      <trkpt lat="47.26956" lon="-1.55234">
        <ele>79</ele>
        <time>2022-05-03T09:31:23Z</time>
      </trkpt>
      <trkpt lat="47.26957" lon="-1.55234">
        <ele>79</ele>
        <time>2022-05-03T09:31:24Z</time>
      </trkpt>
      <trkpt lat="47.26959" lon="-1.55233">
        <ele>79</ele>
        <time>2022-05-03T09:31:25Z</time>
      </trkpt>
      <trkpt lat="47.2696" lon="-1.55233">
        <ele>79</ele>
        <time>2022-05-03T09:31:26Z</time>
      </trkpt>
      <trkpt lat="47.26961" lon="-1.55232">
        <ele>79</ele>
        <time>2022-05-03T09:31:27Z</time>
      </trkpt>
      <trkpt lat="47.26962" lon="-1.55232">
        <ele>79</ele>
        <time>2022-05-03T09:31:28Z</time>
      </trkpt>
      <trkpt lat="47.26963" lon="-1.55231">
        <ele>79</ele>
        <time>2022-05-03T09:31:29Z</time>
      </trkpt>
      <trkpt lat="47.26964" lon="-1.5523">
        <ele>79</ele>
        <time>2022-05-03T09:31:30Z</time>
      </trkpt>
      <trkpt lat="47.26965" lon="-1.55229">
        <ele>78</ele>
        <time>2022-05-03T09:31:31Z</time>
      </trkpt>
      <trkpt lat="47.26966" lon="-1.55229">
        <ele>78</ele>
        <time>2022-05-03T09:31:32Z</time>
      </trkpt>
      <trkpt lat="47.26967" lon="-1.55229">
        <ele>78</ele>
        <time>2022-05-03T09:31:33Z</time>
      </trkpt>
      <trkpt lat="47.26968" lon="-1.55229">
        <ele>78</ele>
        <time>2022-05-03T09:31:34Z</time>
      </trkpt>
      <trkpt lat="47.26969" lon="-1.55229">
        <ele>78</ele>
        <time>2022-05-03T09:31:35Z</time>
      </trkpt>
      <trkpt lat="47.2697" lon="-1.55229">
        <ele>78</ele>
        <time>2022-05-03T09:31:36Z</time>
      </trkpt>
      <trkpt lat="47.26971" lon="-1.55228">
        <ele>78</ele>
        <time>2022-05-03T09:31:37Z</time>
      </trkpt>
      <trkpt lat="47.26971" lon="-1.55228">
        <ele>78</ele>
        <time>2022-05-03T09:31:38Z</time>
      </trkpt>
      <trkpt lat="47.26972" lon="-1.55227">
        <ele>78</ele>
        <time>2022-05-03T09:31:39Z</time>
      </trkpt>
      <trkpt lat="47.26973" lon="-1.55227">
        <ele>78</ele>
        <time>2022-05-03T09:31:40Z</time>
      </trkpt>
      <trkpt lat="47.26974" lon="-1.55227">
        <ele>78</ele>
        <time>2022-05-03T09:31:41Z</time>
      </trkpt>
      <trkpt lat="47.26974" lon="-1.55227">
        <ele>78</ele>
        <time>2022-05-03T09:31:42Z</time>
      </trkpt>
      <trkpt lat="47.26975" lon="-1.55227">
        <ele>78</ele>
        <time>2022-05-03T09:31:43Z</time>
      </trkpt>
      <trkpt lat="47.26976" lon="-1.55228">
        <ele>78</ele>
        <time>2022-05-03T09:31:44Z</time>
      </trkpt>
      <trkpt lat="47.26976" lon="-1.55228">
        <ele>78</ele>
        <time>2022-05-03T09:31:45Z</time>
      </trkpt>
      <trkpt lat="47.26977" lon="-1.55228">
        <ele>78</ele>
        <time>2022-05-03T09:31:46Z</time>
      </trkpt>
      <trkpt lat="47.26978" lon="-1.55228">
        <ele>78</ele>
        <time>2022-05-03T09:31:47Z</time>
      </trkpt>
      <trkpt lat="47.26978" lon="-1.55229">
        <ele>77</ele>
        <time>2022-05-03T09:31:48Z</time>
      </trkpt>
      <trkpt lat="47.26979" lon="-1.55229">
        <ele>77</ele>
        <time>2022-05-03T09:31:49Z</time>
      </trkpt>
      <trkpt lat="47.26981" lon="-1.5523">
        <ele>77</ele>
        <time>2022-05-03T09:31:50Z</time>
      </trkpt>
      <trkpt lat="47.26982" lon="-1.5523">
        <ele>77</ele>
        <time>2022-05-03T09:31:51Z</time>
      </trkpt>
      <trkpt lat="47.26983" lon="-1.5523">
        <ele>76</ele>
        <time>2022-05-03T09:31:52Z</time>
      </trkpt>
      <trkpt lat="47.26983" lon="-1.55231">
        <ele>76</ele>
        <time>2022-05-03T09:31:53Z</time>
      </trkpt>
      <trkpt lat="47.26984" lon="-1.55232">
        <ele>76</ele>
        <time>2022-05-03T09:31:54Z</time>
      </trkpt>
      <trkpt lat="47.26984" lon="-1.55232">
        <ele>76</ele>
        <time>2022-05-03T09:31:55Z</time>
      </trkpt>
      <trkpt lat="47.26985" lon="-1.55233">
        <ele>76</ele>
        <time>2022-05-03T09:31:56Z</time>
      </trkpt>
      <trkpt lat="47.26985" lon="-1.55234">
        <ele>76</ele>
        <time>2022-05-03T09:31:57Z</time>
      </trkpt>
      <trkpt lat="47.26986" lon="-1.55234">
        <ele>76</ele>
        <time>2022-05-03T09:31:58Z</time>
      </trkpt>
      <trkpt lat="47.26985" lon="-1.55234">
        <ele>76</ele>
        <time>2022-05-03T09:31:59Z</time>
      </trkpt>
      <trkpt lat="47.26985" lon="-1.55234">
        <ele>76</ele>
        <time>2022-05-03T09:32:00Z</time>
      </trkpt>
      <trkpt lat="47.26985" lon="-1.55234">
        <ele>76</ele>
        <time>2022-05-03T09:32:01Z</time>
      </trkpt>
      <trkpt lat="47.26985" lon="-1.55234">
        <ele>76</ele>
        <time>2022-05-03T09:32:02Z</time>
      </trkpt>
      <trkpt lat="47.26985" lon="-1.55234">
        <ele>76</ele>
        <time>2022-05-03T09:32:02Z</time>
      </trkpt>
      <trkpt lat="47.26985" lon="-1.55234">
        <ele>76</ele>
        <time>2022-05-03T09:32:02Z</time>
      </trkpt>
    </trkseg>
  </trk>
</gpx>